<?xml version="1.0" encoding="UTF-8" standalone="no" ?>
<gpx xmlns="http://www.topografix.com/GPX/1/1" xmlns:xsi="http://www.w3.org/2001/XMLSchema-instance" xsi:schemaLocation="http://www.topografix.com/GPX/1/1 http://www.topografix.com/GPX/1/1/gpx.xsd" version="1.1" creator="VisuGPX - https://www.visugpx.com">
  <metadata>
    <name>Wallabies Tet Adriatique Juillet 2025/1</name>
    <desc><![CDATA[Les Wallabies Adriatique 2025]]></desc>
  </metadata>
  <trk>
    <name><![CDATA[6 ACT MNE_AL]]></name>
    <extensions>
      <line xmlns="http://www.topografix.com/GPX/gpx_style/0/2">
        <color>ff2600</color>
        <width>4</width>
      </line>
    </extensions>
    <trkseg>
      <trkpt lat="40.70359" lon="19.93762">
        <ele>55.409999847412</ele>
        <time>2024-09-27T06:28:40.000Z</time>
      </trkpt>
      <trkpt lat="40.70358" lon="19.93762">
        <ele>55.409999847412</ele>
        <time>2024-09-27T06:28:41.000Z</time>
      </trkpt>
      <trkpt lat="40.70351" lon="19.93761">
        <ele>55.409999847412</ele>
        <time>2024-09-27T06:28:42.000Z</time>
      </trkpt>
      <trkpt lat="40.70289" lon="19.93757">
        <ele>54.930000305176</ele>
        <time>2024-09-27T06:28:51.000Z</time>
      </trkpt>
      <trkpt lat="40.70275" lon="19.93754">
        <ele>55.409999847412</ele>
        <time>2024-09-27T06:28:54.000Z</time>
      </trkpt>
      <trkpt lat="40.70274" lon="19.93754">
        <ele>55.409999847412</ele>
        <time>2024-09-27T06:28:55.000Z</time>
      </trkpt>
      <trkpt lat="40.70268" lon="19.93753">
        <ele>55.409999847412</ele>
        <time>2024-09-27T06:28:56.000Z</time>
      </trkpt>
      <trkpt lat="40.70246" lon="19.93754">
        <ele>55.409999847412</ele>
        <time>2024-09-27T06:28:59.000Z</time>
      </trkpt>
      <trkpt lat="40.70237" lon="19.93753">
        <ele>55.409999847412</ele>
        <time>2024-09-27T06:29:01.000Z</time>
      </trkpt>
      <trkpt lat="40.70231" lon="19.93753">
        <ele>55.409999847412</ele>
        <time>2024-09-27T06:29:02.000Z</time>
      </trkpt>
      <trkpt lat="40.70226" lon="19.93755">
        <ele>55.409999847412</ele>
        <time>2024-09-27T06:29:03.000Z</time>
      </trkpt>
      <trkpt lat="40.70223" lon="19.93759">
        <ele>55.409999847412</ele>
        <time>2024-09-27T06:29:04.000Z</time>
      </trkpt>
      <trkpt lat="40.7022" lon="19.93764">
        <ele>55.409999847412</ele>
        <time>2024-09-27T06:29:05.000Z</time>
      </trkpt>
      <trkpt lat="40.7022" lon="19.93771">
        <ele>55.409999847412</ele>
        <time>2024-09-27T06:29:06.000Z</time>
      </trkpt>
      <trkpt lat="40.70221" lon="19.9378">
        <ele>55.409999847412</ele>
        <time>2024-09-27T06:29:07.000Z</time>
      </trkpt>
      <trkpt lat="40.70221" lon="19.93789">
        <ele>55.409999847412</ele>
        <time>2024-09-27T06:29:08.000Z</time>
      </trkpt>
      <trkpt lat="40.70221" lon="19.93799">
        <ele>55.409999847412</ele>
        <time>2024-09-27T06:29:09.000Z</time>
      </trkpt>
      <trkpt lat="40.70221" lon="19.93824">
        <ele>55.409999847412</ele>
        <time>2024-09-27T06:29:11.000Z</time>
      </trkpt>
      <trkpt lat="40.70221" lon="19.93827">
        <ele>55.409999847412</ele>
        <time>2024-09-27T06:29:12.000Z</time>
      </trkpt>
      <trkpt lat="40.70219" lon="19.93963">
        <ele>58.779998779297</ele>
        <time>2024-09-27T06:29:22.000Z</time>
      </trkpt>
      <trkpt lat="40.70222" lon="19.94157">
        <ele>62.619998931885</ele>
        <time>2024-09-27T06:29:36.000Z</time>
      </trkpt>
      <trkpt lat="40.70223" lon="19.94167">
        <ele>62.619998931885</ele>
        <time>2024-09-27T06:29:37.000Z</time>
      </trkpt>
      <trkpt lat="40.70225" lon="19.94178">
        <ele>62.139999389648</ele>
        <time>2024-09-27T06:29:38.000Z</time>
      </trkpt>
      <trkpt lat="40.70228" lon="19.94189">
        <ele>62.139999389648</ele>
        <time>2024-09-27T06:29:39.000Z</time>
      </trkpt>
      <trkpt lat="40.70231" lon="19.942">
        <ele>61.659999847412</ele>
        <time>2024-09-27T06:29:40.000Z</time>
      </trkpt>
      <trkpt lat="40.70238" lon="19.94219">
        <ele>61.659999847412</ele>
        <time>2024-09-27T06:29:41.000Z</time>
      </trkpt>
      <trkpt lat="40.70239" lon="19.94222">
        <ele>61.659999847412</ele>
        <time>2024-09-27T06:29:42.000Z</time>
      </trkpt>
      <trkpt lat="40.70242" lon="19.94231">
        <ele>61.659999847412</ele>
        <time>2024-09-27T06:29:43.000Z</time>
      </trkpt>
      <trkpt lat="40.70243" lon="19.94243">
        <ele>61.180000305176</ele>
        <time>2024-09-27T06:29:44.000Z</time>
      </trkpt>
      <trkpt lat="40.70243" lon="19.94254">
        <ele>60.700000762939</ele>
        <time>2024-09-27T06:29:45.000Z</time>
      </trkpt>
      <trkpt lat="40.70242" lon="19.94265">
        <ele>60.700000762939</ele>
        <time>2024-09-27T06:29:46.000Z</time>
      </trkpt>
      <trkpt lat="40.70234" lon="19.94314">
        <ele>61.180000305176</ele>
        <time>2024-09-27T06:29:50.000Z</time>
      </trkpt>
      <trkpt lat="40.70233" lon="19.94329">
        <ele>61.180000305176</ele>
        <time>2024-09-27T06:29:51.000Z</time>
      </trkpt>
      <trkpt lat="40.70233" lon="19.94334">
        <ele>61.180000305176</ele>
        <time>2024-09-27T06:29:52.000Z</time>
      </trkpt>
      <trkpt lat="40.70236" lon="19.94377">
        <ele>61.659999847412</ele>
        <time>2024-09-27T06:29:56.000Z</time>
      </trkpt>
      <trkpt lat="40.70236" lon="19.94383">
        <ele>61.659999847412</ele>
        <time>2024-09-27T06:29:57.000Z</time>
      </trkpt>
      <trkpt lat="40.70236" lon="19.9439">
        <ele>61.659999847412</ele>
        <time>2024-09-27T06:29:58.000Z</time>
      </trkpt>
      <trkpt lat="40.70235" lon="19.94398">
        <ele>61.180000305176</ele>
        <time>2024-09-27T06:29:59.000Z</time>
      </trkpt>
      <trkpt lat="40.70236" lon="19.94406">
        <ele>60.700000762939</ele>
        <time>2024-09-27T06:30:00.000Z</time>
      </trkpt>
      <trkpt lat="40.70237" lon="19.94413">
        <ele>60.220001220703</ele>
        <time>2024-09-27T06:30:01.000Z</time>
      </trkpt>
      <trkpt lat="40.7024" lon="19.94421">
        <ele>59.740001678467</ele>
        <time>2024-09-27T06:30:02.000Z</time>
      </trkpt>
      <trkpt lat="40.70245" lon="19.9444">
        <ele>58.299999237061</ele>
        <time>2024-09-27T06:30:04.000Z</time>
      </trkpt>
      <trkpt lat="40.70247" lon="19.94446">
        <ele>58.299999237061</ele>
        <time>2024-09-27T06:30:05.000Z</time>
      </trkpt>
      <trkpt lat="40.70248" lon="19.94455">
        <ele>57.819999694824</ele>
        <time>2024-09-27T06:30:06.000Z</time>
      </trkpt>
      <trkpt lat="40.70251" lon="19.94467">
        <ele>57.340000152588</ele>
        <time>2024-09-27T06:30:07.000Z</time>
      </trkpt>
      <trkpt lat="40.70251" lon="19.94469">
        <ele>57.340000152588</ele>
        <time>2024-09-27T06:30:08.000Z</time>
      </trkpt>
      <trkpt lat="40.70253" lon="19.94475">
        <ele>56.860000610352</ele>
        <time>2024-09-27T06:30:09.000Z</time>
      </trkpt>
      <trkpt lat="40.7026" lon="19.945">
        <ele>56.860000610352</ele>
        <time>2024-09-27T06:30:16.000Z</time>
      </trkpt>
      <trkpt lat="40.70262" lon="19.94505">
        <ele>56.860000610352</ele>
        <time>2024-09-27T06:30:17.000Z</time>
      </trkpt>
      <trkpt lat="40.70264" lon="19.94511">
        <ele>56.860000610352</ele>
        <time>2024-09-27T06:30:18.000Z</time>
      </trkpt>
      <trkpt lat="40.70277" lon="19.9454">
        <ele>56.860000610352</ele>
        <time>2024-09-27T06:30:22.000Z</time>
      </trkpt>
      <trkpt lat="40.70291" lon="19.94571">
        <ele>56.860000610352</ele>
        <time>2024-09-27T06:30:25.000Z</time>
      </trkpt>
      <trkpt lat="40.70314" lon="19.94623">
        <ele>56.860000610352</ele>
        <time>2024-09-27T06:30:30.000Z</time>
      </trkpt>
      <trkpt lat="40.70339" lon="19.94681">
        <ele>56.369998931885</ele>
        <time>2024-09-27T06:30:36.000Z</time>
      </trkpt>
      <trkpt lat="40.70341" lon="19.94685">
        <ele>56.369998931885</ele>
        <time>2024-09-27T06:30:37.000Z</time>
      </trkpt>
      <trkpt lat="40.70344" lon="19.94697">
        <ele>56.369998931885</ele>
        <time>2024-09-27T06:30:38.000Z</time>
      </trkpt>
      <trkpt lat="40.70348" lon="19.94718">
        <ele>56.369998931885</ele>
        <time>2024-09-27T06:30:39.000Z</time>
      </trkpt>
      <trkpt lat="40.70361" lon="19.94824">
        <ele>56.860000610352</ele>
        <time>2024-09-27T06:30:49.000Z</time>
      </trkpt>
      <trkpt lat="40.70362" lon="19.94835">
        <ele>56.860000610352</ele>
        <time>2024-09-27T06:30:50.000Z</time>
      </trkpt>
      <trkpt lat="40.70362" lon="19.94861">
        <ele>56.860000610352</ele>
        <time>2024-09-27T06:30:52.000Z</time>
      </trkpt>
      <trkpt lat="40.70362" lon="19.94867">
        <ele>56.860000610352</ele>
        <time>2024-09-27T06:30:53.000Z</time>
      </trkpt>
      <trkpt lat="40.7036" lon="19.94879">
        <ele>56.860000610352</ele>
        <time>2024-09-27T06:30:54.000Z</time>
      </trkpt>
      <trkpt lat="40.70357" lon="19.94889">
        <ele>56.860000610352</ele>
        <time>2024-09-27T06:30:55.000Z</time>
      </trkpt>
      <trkpt lat="40.70354" lon="19.94901">
        <ele>56.860000610352</ele>
        <time>2024-09-27T06:30:56.000Z</time>
      </trkpt>
      <trkpt lat="40.70347" lon="19.94924">
        <ele>56.860000610352</ele>
        <time>2024-09-27T06:30:58.000Z</time>
      </trkpt>
      <trkpt lat="40.70345" lon="19.94928">
        <ele>57.340000152588</ele>
        <time>2024-09-27T06:30:59.000Z</time>
      </trkpt>
      <trkpt lat="40.7034" lon="19.94939">
        <ele>57.340000152588</ele>
        <time>2024-09-27T06:31:00.000Z</time>
      </trkpt>
      <trkpt lat="40.70336" lon="19.94947">
        <ele>57.340000152588</ele>
        <time>2024-09-27T06:31:01.000Z</time>
      </trkpt>
      <trkpt lat="40.70316" lon="19.94983">
        <ele>58.779998779297</ele>
        <time>2024-09-27T06:31:04.000Z</time>
      </trkpt>
      <trkpt lat="40.7031" lon="19.94994">
        <ele>59.259998321533</ele>
        <time>2024-09-27T06:31:05.000Z</time>
      </trkpt>
      <trkpt lat="40.70309" lon="19.94995">
        <ele>59.259998321533</ele>
        <time>2024-09-27T06:31:06.000Z</time>
      </trkpt>
      <trkpt lat="40.70303" lon="19.95005">
        <ele>59.740001678467</ele>
        <time>2024-09-27T06:31:07.000Z</time>
      </trkpt>
      <trkpt lat="40.70297" lon="19.95012">
        <ele>60.220001220703</ele>
        <time>2024-09-27T06:31:08.000Z</time>
      </trkpt>
      <trkpt lat="40.70288" lon="19.95023">
        <ele>61.180000305176</ele>
        <time>2024-09-27T06:31:09.000Z</time>
      </trkpt>
      <trkpt lat="40.70284" lon="19.95027">
        <ele>61.180000305176</ele>
        <time>2024-09-27T06:31:10.000Z</time>
      </trkpt>
      <trkpt lat="40.70274" lon="19.95032">
        <ele>61.659999847412</ele>
        <time>2024-09-27T06:31:11.000Z</time>
      </trkpt>
      <trkpt lat="40.70266" lon="19.95036">
        <ele>62.619998931885</ele>
        <time>2024-09-27T06:31:12.000Z</time>
      </trkpt>
      <trkpt lat="40.70257" lon="19.95042">
        <ele>63.580001831055</ele>
        <time>2024-09-27T06:31:13.000Z</time>
      </trkpt>
      <trkpt lat="40.70163" lon="19.95131">
        <ele>74.160003662109</ele>
        <time>2024-09-27T06:31:21.000Z</time>
      </trkpt>
      <trkpt lat="40.70053" lon="19.95207">
        <ele>87.139999389648</ele>
        <time>2024-09-27T06:31:30.000Z</time>
      </trkpt>
      <trkpt lat="40.70007" lon="19.95237">
        <ele>92.419998168945</ele>
        <time>2024-09-27T06:31:34.000Z</time>
      </trkpt>
      <trkpt lat="40.69995" lon="19.95244">
        <ele>93.870002746582</ele>
        <time>2024-09-27T06:31:35.000Z</time>
      </trkpt>
      <trkpt lat="40.69943" lon="19.95266">
        <ele>101.55999755859</ele>
        <time>2024-09-27T06:31:38.000Z</time>
      </trkpt>
      <trkpt lat="40.69937" lon="19.95269">
        <ele>102.04000091553</ele>
        <time>2024-09-27T06:31:39.000Z</time>
      </trkpt>
      <trkpt lat="40.69864" lon="19.95311">
        <ele>109.25</ele>
        <time>2024-09-27T06:31:45.000Z</time>
      </trkpt>
      <trkpt lat="40.69847" lon="19.95319">
        <ele>110.20999908447</ele>
        <time>2024-09-27T06:31:46.000Z</time>
      </trkpt>
      <trkpt lat="40.6984" lon="19.95322">
        <ele>110.20999908447</ele>
        <time>2024-09-27T06:31:47.000Z</time>
      </trkpt>
      <trkpt lat="40.69826" lon="19.95327">
        <ele>110.69000244141</ele>
        <time>2024-09-27T06:31:48.000Z</time>
      </trkpt>
      <trkpt lat="40.69799" lon="19.95332">
        <ele>112.12999725342</ele>
        <time>2024-09-27T06:31:49.000Z</time>
      </trkpt>
      <trkpt lat="40.6972" lon="19.95357">
        <ele>116.94000244141</ele>
        <time>2024-09-27T06:31:55.000Z</time>
      </trkpt>
      <trkpt lat="40.69609" lon="19.95409">
        <ele>125.58999633789</ele>
        <time>2024-09-27T06:32:03.000Z</time>
      </trkpt>
      <trkpt lat="40.69531" lon="19.95443">
        <ele>132.80000305176</ele>
        <time>2024-09-27T06:32:08.000Z</time>
      </trkpt>
      <trkpt lat="40.69525" lon="19.95445">
        <ele>133.2799987793</ele>
        <time>2024-09-27T06:32:09.000Z</time>
      </trkpt>
      <trkpt lat="40.69498" lon="19.95454">
        <ele>135.19999694824</ele>
        <time>2024-09-27T06:32:11.000Z</time>
      </trkpt>
      <trkpt lat="40.69478" lon="19.95463">
        <ele>136.63999938965</ele>
        <time>2024-09-27T06:32:12.000Z</time>
      </trkpt>
      <trkpt lat="40.69466" lon="19.95468">
        <ele>137.13000488281</ele>
        <time>2024-09-27T06:32:13.000Z</time>
      </trkpt>
      <trkpt lat="40.69435" lon="19.95485">
        <ele>139.5299987793</ele>
        <time>2024-09-27T06:32:15.000Z</time>
      </trkpt>
      <trkpt lat="40.69377" lon="19.95523">
        <ele>144.33999633789</ele>
        <time>2024-09-27T06:32:19.000Z</time>
      </trkpt>
      <trkpt lat="40.69321" lon="19.95563">
        <ele>150.10000610352</ele>
        <time>2024-09-27T06:32:23.000Z</time>
      </trkpt>
      <trkpt lat="40.69286" lon="19.95584">
        <ele>153.94999694824</ele>
        <time>2024-09-27T06:32:26.000Z</time>
      </trkpt>
      <trkpt lat="40.69272" lon="19.9559">
        <ele>155.38999938965</ele>
        <time>2024-09-27T06:32:27.000Z</time>
      </trkpt>
      <trkpt lat="40.6921" lon="19.95612">
        <ele>159.7200012207</ele>
        <time>2024-09-27T06:32:32.000Z</time>
      </trkpt>
      <trkpt lat="40.69199" lon="19.95616">
        <ele>160.19999694824</ele>
        <time>2024-09-27T06:32:33.000Z</time>
      </trkpt>
      <trkpt lat="40.69183" lon="19.95622">
        <ele>160.67999267578</ele>
        <time>2024-09-27T06:32:34.000Z</time>
      </trkpt>
      <trkpt lat="40.6917" lon="19.95626">
        <ele>160.67999267578</ele>
        <time>2024-09-27T06:32:35.000Z</time>
      </trkpt>
      <trkpt lat="40.69163" lon="19.95628">
        <ele>161.16000366211</ele>
        <time>2024-09-27T06:32:36.000Z</time>
      </trkpt>
      <trkpt lat="40.69156" lon="19.95629">
        <ele>161.16000366211</ele>
        <time>2024-09-27T06:32:37.000Z</time>
      </trkpt>
      <trkpt lat="40.69147" lon="19.95629">
        <ele>161.63999938965</ele>
        <time>2024-09-27T06:32:38.000Z</time>
      </trkpt>
      <trkpt lat="40.69138" lon="19.95625">
        <ele>161.63999938965</ele>
        <time>2024-09-27T06:32:39.000Z</time>
      </trkpt>
      <trkpt lat="40.69123" lon="19.95615">
        <ele>161.63999938965</ele>
        <time>2024-09-27T06:32:40.000Z</time>
      </trkpt>
      <trkpt lat="40.69114" lon="19.95609">
        <ele>162.60000610352</ele>
        <time>2024-09-27T06:32:41.000Z</time>
      </trkpt>
      <trkpt lat="40.6911" lon="19.95608">
        <ele>163.55999755859</ele>
        <time>2024-09-27T06:32:42.000Z</time>
      </trkpt>
      <trkpt lat="40.69103" lon="19.95605">
        <ele>164.52000427246</ele>
        <time>2024-09-27T06:32:43.000Z</time>
      </trkpt>
      <trkpt lat="40.69094" lon="19.95604">
        <ele>165.47999572754</ele>
        <time>2024-09-27T06:32:44.000Z</time>
      </trkpt>
      <trkpt lat="40.69084" lon="19.95607">
        <ele>166.44999694824</ele>
        <time>2024-09-27T06:32:45.000Z</time>
      </trkpt>
      <trkpt lat="40.6907" lon="19.95616">
        <ele>167.41000366211</ele>
        <time>2024-09-27T06:32:46.000Z</time>
      </trkpt>
      <trkpt lat="40.69065" lon="19.95619">
        <ele>167.41000366211</ele>
        <time>2024-09-27T06:32:47.000Z</time>
      </trkpt>
      <trkpt lat="40.69055" lon="19.95625">
        <ele>168.36999511719</ele>
        <time>2024-09-27T06:32:48.000Z</time>
      </trkpt>
      <trkpt lat="40.69042" lon="19.9563">
        <ele>168.85000610352</ele>
        <time>2024-09-27T06:32:49.000Z</time>
      </trkpt>
      <trkpt lat="40.69032" lon="19.95632">
        <ele>169.33000183105</ele>
        <time>2024-09-27T06:32:50.000Z</time>
      </trkpt>
      <trkpt lat="40.69019" lon="19.95632">
        <ele>170.28999328613</ele>
        <time>2024-09-27T06:32:51.000Z</time>
      </trkpt>
      <trkpt lat="40.69007" lon="19.95629">
        <ele>172.21000671387</ele>
        <time>2024-09-27T06:32:52.000Z</time>
      </trkpt>
      <trkpt lat="40.68997" lon="19.95624">
        <ele>172.69000244141</ele>
        <time>2024-09-27T06:32:53.000Z</time>
      </trkpt>
      <trkpt lat="40.68982" lon="19.95615">
        <ele>173.66000366211</ele>
        <time>2024-09-27T06:32:54.000Z</time>
      </trkpt>
      <trkpt lat="40.68956" lon="19.956">
        <ele>175.58000183105</ele>
        <time>2024-09-27T06:32:56.000Z</time>
      </trkpt>
      <trkpt lat="40.68954" lon="19.95599">
        <ele>175.58000183105</ele>
        <time>2024-09-27T06:32:57.000Z</time>
      </trkpt>
      <trkpt lat="40.68947" lon="19.95596">
        <ele>175.58000183105</ele>
        <time>2024-09-27T06:32:58.000Z</time>
      </trkpt>
      <trkpt lat="40.68939" lon="19.95596">
        <ele>175.10000610352</ele>
        <time>2024-09-27T06:32:59.000Z</time>
      </trkpt>
      <trkpt lat="40.68933" lon="19.956">
        <ele>175.10000610352</ele>
        <time>2024-09-27T06:33:00.000Z</time>
      </trkpt>
      <trkpt lat="40.68929" lon="19.95607">
        <ele>175.10000610352</ele>
        <time>2024-09-27T06:33:01.000Z</time>
      </trkpt>
      <trkpt lat="40.68927" lon="19.95619">
        <ele>175.10000610352</ele>
        <time>2024-09-27T06:33:02.000Z</time>
      </trkpt>
      <trkpt lat="40.68928" lon="19.95629">
        <ele>175.58000183105</ele>
        <time>2024-09-27T06:33:03.000Z</time>
      </trkpt>
      <trkpt lat="40.68933" lon="19.95641">
        <ele>175.58000183105</ele>
        <time>2024-09-27T06:33:04.000Z</time>
      </trkpt>
      <trkpt lat="40.68938" lon="19.95654">
        <ele>176.05999755859</ele>
        <time>2024-09-27T06:33:05.000Z</time>
      </trkpt>
      <trkpt lat="40.68942" lon="19.95665">
        <ele>176.05999755859</ele>
        <time>2024-09-27T06:33:06.000Z</time>
      </trkpt>
      <trkpt lat="40.68952" lon="19.95698">
        <ele>177.02000427246</ele>
        <time>2024-09-27T06:33:08.000Z</time>
      </trkpt>
      <trkpt lat="40.68954" lon="19.95704">
        <ele>177.5</ele>
        <time>2024-09-27T06:33:09.000Z</time>
      </trkpt>
      <trkpt lat="40.68958" lon="19.95713">
        <ele>177.5</ele>
        <time>2024-09-27T06:33:10.000Z</time>
      </trkpt>
      <trkpt lat="40.68969" lon="19.95738">
        <ele>178.94000244141</ele>
        <time>2024-09-27T06:33:12.000Z</time>
      </trkpt>
      <trkpt lat="40.68974" lon="19.95751">
        <ele>179.89999389648</ele>
        <time>2024-09-27T06:33:13.000Z</time>
      </trkpt>
      <trkpt lat="40.68976" lon="19.95764">
        <ele>179.41999816895</ele>
        <time>2024-09-27T06:33:14.000Z</time>
      </trkpt>
      <trkpt lat="40.68979" lon="19.95785">
        <ele>181.83000183105</ele>
        <time>2024-09-27T06:33:15.000Z</time>
      </trkpt>
      <trkpt lat="40.68979" lon="19.9579">
        <ele>181.83000183105</ele>
        <time>2024-09-27T06:33:16.000Z</time>
      </trkpt>
      <trkpt lat="40.68977" lon="19.958">
        <ele>182.78999328613</ele>
        <time>2024-09-27T06:33:17.000Z</time>
      </trkpt>
      <trkpt lat="40.68971" lon="19.95809">
        <ele>184.22999572754</ele>
        <time>2024-09-27T06:33:18.000Z</time>
      </trkpt>
      <trkpt lat="40.68962" lon="19.95814">
        <ele>185.19000244141</ele>
        <time>2024-09-27T06:33:19.000Z</time>
      </trkpt>
      <trkpt lat="40.68951" lon="19.95819">
        <ele>185.66999816895</ele>
        <time>2024-09-27T06:33:20.000Z</time>
      </trkpt>
      <trkpt lat="40.68943" lon="19.95823">
        <ele>186.14999389648</ele>
        <time>2024-09-27T06:33:21.000Z</time>
      </trkpt>
      <trkpt lat="40.68934" lon="19.95831">
        <ele>187.11000061035</ele>
        <time>2024-09-27T06:33:22.000Z</time>
      </trkpt>
      <trkpt lat="40.68927" lon="19.95841">
        <ele>187.58999633789</ele>
        <time>2024-09-27T06:33:23.000Z</time>
      </trkpt>
      <trkpt lat="40.68922" lon="19.95854">
        <ele>188.55999755859</ele>
        <time>2024-09-27T06:33:24.000Z</time>
      </trkpt>
      <trkpt lat="40.68919" lon="19.95872">
        <ele>190</ele>
        <time>2024-09-27T06:33:25.000Z</time>
      </trkpt>
      <trkpt lat="40.68914" lon="19.95893">
        <ele>190.96000671387</ele>
        <time>2024-09-27T06:33:26.000Z</time>
      </trkpt>
      <trkpt lat="40.68913" lon="19.95896">
        <ele>190.96000671387</ele>
        <time>2024-09-27T06:33:27.000Z</time>
      </trkpt>
      <trkpt lat="40.68911" lon="19.9591">
        <ele>191.44000244141</ele>
        <time>2024-09-27T06:33:28.000Z</time>
      </trkpt>
      <trkpt lat="40.68909" lon="19.95932">
        <ele>192.88000488281</ele>
        <time>2024-09-27T06:33:29.000Z</time>
      </trkpt>
      <trkpt lat="40.68908" lon="19.9594">
        <ele>193.36000061035</ele>
        <time>2024-09-27T06:33:30.000Z</time>
      </trkpt>
      <trkpt lat="40.68904" lon="19.95953">
        <ele>193.83999633789</ele>
        <time>2024-09-27T06:33:31.000Z</time>
      </trkpt>
      <trkpt lat="40.689" lon="19.95964">
        <ele>193.83999633789</ele>
        <time>2024-09-27T06:33:32.000Z</time>
      </trkpt>
      <trkpt lat="40.68898" lon="19.95975">
        <ele>193.36000061035</ele>
        <time>2024-09-27T06:33:33.000Z</time>
      </trkpt>
      <trkpt lat="40.689" lon="19.95987">
        <ele>193.83999633789</ele>
        <time>2024-09-27T06:33:34.000Z</time>
      </trkpt>
      <trkpt lat="40.68903" lon="19.96003">
        <ele>194.32000732422</ele>
        <time>2024-09-27T06:33:35.000Z</time>
      </trkpt>
      <trkpt lat="40.68905" lon="19.96014">
        <ele>194.32000732422</ele>
        <time>2024-09-27T06:33:36.000Z</time>
      </trkpt>
      <trkpt lat="40.68904" lon="19.96026">
        <ele>194.32000732422</ele>
        <time>2024-09-27T06:33:37.000Z</time>
      </trkpt>
      <trkpt lat="40.689" lon="19.96037">
        <ele>194.32000732422</ele>
        <time>2024-09-27T06:33:38.000Z</time>
      </trkpt>
      <trkpt lat="40.68892" lon="19.96046">
        <ele>194.32000732422</ele>
        <time>2024-09-27T06:33:39.000Z</time>
      </trkpt>
      <trkpt lat="40.68884" lon="19.9605">
        <ele>193.83999633789</ele>
        <time>2024-09-27T06:33:40.000Z</time>
      </trkpt>
      <trkpt lat="40.68875" lon="19.96049">
        <ele>194.32000732422</ele>
        <time>2024-09-27T06:33:41.000Z</time>
      </trkpt>
      <trkpt lat="40.68866" lon="19.96044">
        <ele>194.32000732422</ele>
        <time>2024-09-27T06:33:42.000Z</time>
      </trkpt>
      <trkpt lat="40.68857" lon="19.96037">
        <ele>194.80000305176</ele>
        <time>2024-09-27T06:33:43.000Z</time>
      </trkpt>
      <trkpt lat="40.68845" lon="19.9603">
        <ele>195.2799987793</ele>
        <time>2024-09-27T06:33:44.000Z</time>
      </trkpt>
      <trkpt lat="40.68833" lon="19.96025">
        <ele>195.77000427246</ele>
        <time>2024-09-27T06:33:45.000Z</time>
      </trkpt>
      <trkpt lat="40.68822" lon="19.96022">
        <ele>196.25</ele>
        <time>2024-09-27T06:33:46.000Z</time>
      </trkpt>
      <trkpt lat="40.68811" lon="19.96021">
        <ele>196.72999572754</ele>
        <time>2024-09-27T06:33:47.000Z</time>
      </trkpt>
      <trkpt lat="40.688" lon="19.96022">
        <ele>197.69000244141</ele>
        <time>2024-09-27T06:33:48.000Z</time>
      </trkpt>
      <trkpt lat="40.68775" lon="19.96029">
        <ele>199.61000061035</ele>
        <time>2024-09-27T06:33:50.000Z</time>
      </trkpt>
      <trkpt lat="40.68748" lon="19.96038">
        <ele>202.00999450684</ele>
        <time>2024-09-27T06:33:52.000Z</time>
      </trkpt>
      <trkpt lat="40.68739" lon="19.96042">
        <ele>202.49000549316</ele>
        <time>2024-09-27T06:33:53.000Z</time>
      </trkpt>
      <trkpt lat="40.6873" lon="19.96046">
        <ele>203.46000671387</ele>
        <time>2024-09-27T06:33:54.000Z</time>
      </trkpt>
      <trkpt lat="40.68719" lon="19.96048">
        <ele>204.41999816895</ele>
        <time>2024-09-27T06:33:55.000Z</time>
      </trkpt>
      <trkpt lat="40.68707" lon="19.96048">
        <ele>204.89999389648</ele>
        <time>2024-09-27T06:33:56.000Z</time>
      </trkpt>
      <trkpt lat="40.68695" lon="19.96044">
        <ele>205.38000488281</ele>
        <time>2024-09-27T06:33:57.000Z</time>
      </trkpt>
      <trkpt lat="40.68686" lon="19.96037">
        <ele>206.33999633789</ele>
        <time>2024-09-27T06:33:58.000Z</time>
      </trkpt>
      <trkpt lat="40.68679" lon="19.96028">
        <ele>206.82000732422</ele>
        <time>2024-09-27T06:33:59.000Z</time>
      </trkpt>
      <trkpt lat="40.68673" lon="19.96017">
        <ele>207.7799987793</ele>
        <time>2024-09-27T06:34:00.000Z</time>
      </trkpt>
      <trkpt lat="40.68668" lon="19.96008">
        <ele>208.25999450684</ele>
        <time>2024-09-27T06:34:01.000Z</time>
      </trkpt>
      <trkpt lat="40.6866" lon="19.96">
        <ele>209.2200012207</ele>
        <time>2024-09-27T06:34:02.000Z</time>
      </trkpt>
      <trkpt lat="40.68651" lon="19.95994">
        <ele>209.69999694824</ele>
        <time>2024-09-27T06:34:03.000Z</time>
      </trkpt>
      <trkpt lat="40.68641" lon="19.95989">
        <ele>211.14999389648</ele>
        <time>2024-09-27T06:34:04.000Z</time>
      </trkpt>
      <trkpt lat="40.68631" lon="19.95984">
        <ele>212.11000061035</ele>
        <time>2024-09-27T06:34:05.000Z</time>
      </trkpt>
      <trkpt lat="40.68623" lon="19.9598">
        <ele>213.55000305176</ele>
        <time>2024-09-27T06:34:06.000Z</time>
      </trkpt>
      <trkpt lat="40.68616" lon="19.95975">
        <ele>214.0299987793</ele>
        <time>2024-09-27T06:34:07.000Z</time>
      </trkpt>
      <trkpt lat="40.68607" lon="19.95968">
        <ele>214.99000549316</ele>
        <time>2024-09-27T06:34:08.000Z</time>
      </trkpt>
      <trkpt lat="40.68603" lon="19.95964">
        <ele>215.4700012207</ele>
        <time>2024-09-27T06:34:09.000Z</time>
      </trkpt>
      <trkpt lat="40.68596" lon="19.95961">
        <ele>215.4700012207</ele>
        <time>2024-09-27T06:34:10.000Z</time>
      </trkpt>
      <trkpt lat="40.68591" lon="19.95961">
        <ele>215.4700012207</ele>
        <time>2024-09-27T06:34:11.000Z</time>
      </trkpt>
      <trkpt lat="40.68585" lon="19.95964">
        <ele>215.4700012207</ele>
        <time>2024-09-27T06:34:12.000Z</time>
      </trkpt>
      <trkpt lat="40.6858" lon="19.95971">
        <ele>215.94999694824</ele>
        <time>2024-09-27T06:34:13.000Z</time>
      </trkpt>
      <trkpt lat="40.68576" lon="19.95979">
        <ele>215.94999694824</ele>
        <time>2024-09-27T06:34:14.000Z</time>
      </trkpt>
      <trkpt lat="40.68573" lon="19.95989">
        <ele>216.42999267578</ele>
        <time>2024-09-27T06:34:15.000Z</time>
      </trkpt>
      <trkpt lat="40.68568" lon="19.95998">
        <ele>216.42999267578</ele>
        <time>2024-09-27T06:34:16.000Z</time>
      </trkpt>
      <trkpt lat="40.68562" lon="19.96005">
        <ele>216.42999267578</ele>
        <time>2024-09-27T06:34:17.000Z</time>
      </trkpt>
      <trkpt lat="40.68554" lon="19.9601">
        <ele>216.91000366211</ele>
        <time>2024-09-27T06:34:18.000Z</time>
      </trkpt>
      <trkpt lat="40.68549" lon="19.96014">
        <ele>216.91000366211</ele>
        <time>2024-09-27T06:34:19.000Z</time>
      </trkpt>
      <trkpt lat="40.68544" lon="19.9602">
        <ele>216.91000366211</ele>
        <time>2024-09-27T06:34:20.000Z</time>
      </trkpt>
      <trkpt lat="40.68541" lon="19.9603">
        <ele>216.91000366211</ele>
        <time>2024-09-27T06:34:21.000Z</time>
      </trkpt>
      <trkpt lat="40.68541" lon="19.96039">
        <ele>216.91000366211</ele>
        <time>2024-09-27T06:34:22.000Z</time>
      </trkpt>
      <trkpt lat="40.68544" lon="19.96049">
        <ele>217.39999389648</ele>
        <time>2024-09-27T06:34:23.000Z</time>
      </trkpt>
      <trkpt lat="40.68547" lon="19.96062">
        <ele>217.39999389648</ele>
        <time>2024-09-27T06:34:24.000Z</time>
      </trkpt>
      <trkpt lat="40.68549" lon="19.96074">
        <ele>217.39999389648</ele>
        <time>2024-09-27T06:34:25.000Z</time>
      </trkpt>
      <trkpt lat="40.68549" lon="19.96088">
        <ele>217.88000488281</ele>
        <time>2024-09-27T06:34:26.000Z</time>
      </trkpt>
      <trkpt lat="40.68549" lon="19.96099">
        <ele>217.88000488281</ele>
        <time>2024-09-27T06:34:27.000Z</time>
      </trkpt>
      <trkpt lat="40.6855" lon="19.96113">
        <ele>218.36000061035</ele>
        <time>2024-09-27T06:34:28.000Z</time>
      </trkpt>
      <trkpt lat="40.68554" lon="19.96126">
        <ele>218.83999633789</ele>
        <time>2024-09-27T06:34:29.000Z</time>
      </trkpt>
      <trkpt lat="40.68565" lon="19.96141">
        <ele>219.32000732422</ele>
        <time>2024-09-27T06:34:30.000Z</time>
      </trkpt>
      <trkpt lat="40.68568" lon="19.96147">
        <ele>219.80000305176</ele>
        <time>2024-09-27T06:34:31.000Z</time>
      </trkpt>
      <trkpt lat="40.68571" lon="19.96159">
        <ele>220.2799987793</ele>
        <time>2024-09-27T06:34:32.000Z</time>
      </trkpt>
      <trkpt lat="40.6857" lon="19.96168">
        <ele>220.2799987793</ele>
        <time>2024-09-27T06:34:33.000Z</time>
      </trkpt>
      <trkpt lat="40.68566" lon="19.96181">
        <ele>220.75999450684</ele>
        <time>2024-09-27T06:34:34.000Z</time>
      </trkpt>
      <trkpt lat="40.68561" lon="19.96192">
        <ele>221.24000549316</ele>
        <time>2024-09-27T06:34:35.000Z</time>
      </trkpt>
      <trkpt lat="40.68546" lon="19.9622">
        <ele>222.19999694824</ele>
        <time>2024-09-27T06:34:37.000Z</time>
      </trkpt>
      <trkpt lat="40.68542" lon="19.96228">
        <ele>222.19999694824</ele>
        <time>2024-09-27T06:34:38.000Z</time>
      </trkpt>
      <trkpt lat="40.68534" lon="19.96238">
        <ele>223.16000366211</ele>
        <time>2024-09-27T06:34:39.000Z</time>
      </trkpt>
      <trkpt lat="40.68524" lon="19.96243">
        <ele>223.63999938965</ele>
        <time>2024-09-27T06:34:40.000Z</time>
      </trkpt>
      <trkpt lat="40.68508" lon="19.96249">
        <ele>225.08999633789</ele>
        <time>2024-09-27T06:34:41.000Z</time>
      </trkpt>
      <trkpt lat="40.68503" lon="19.9625">
        <ele>225.57000732422</ele>
        <time>2024-09-27T06:34:42.000Z</time>
      </trkpt>
      <trkpt lat="40.68488" lon="19.96253">
        <ele>226.5299987793</ele>
        <time>2024-09-27T06:34:43.000Z</time>
      </trkpt>
      <trkpt lat="40.68478" lon="19.96254">
        <ele>227.00999450684</ele>
        <time>2024-09-27T06:34:44.000Z</time>
      </trkpt>
      <trkpt lat="40.68451" lon="19.96253">
        <ele>229.41000366211</ele>
        <time>2024-09-27T06:34:46.000Z</time>
      </trkpt>
      <trkpt lat="40.68426" lon="19.96249">
        <ele>232.30000305176</ele>
        <time>2024-09-27T06:34:47.000Z</time>
      </trkpt>
      <trkpt lat="40.68422" lon="19.96248">
        <ele>232.7799987793</ele>
        <time>2024-09-27T06:34:48.000Z</time>
      </trkpt>
      <trkpt lat="40.68408" lon="19.96249">
        <ele>234.2200012207</ele>
        <time>2024-09-27T06:34:49.000Z</time>
      </trkpt>
      <trkpt lat="40.68377" lon="19.96255">
        <ele>237.10000610352</ele>
        <time>2024-09-27T06:34:51.000Z</time>
      </trkpt>
      <trkpt lat="40.68356" lon="19.96262">
        <ele>239.02000427246</ele>
        <time>2024-09-27T06:34:53.000Z</time>
      </trkpt>
      <trkpt lat="40.68347" lon="19.96266">
        <ele>239.99000549316</ele>
        <time>2024-09-27T06:34:54.000Z</time>
      </trkpt>
      <trkpt lat="40.68335" lon="19.96272">
        <ele>240.94999694824</ele>
        <time>2024-09-27T06:34:55.000Z</time>
      </trkpt>
      <trkpt lat="40.68319" lon="19.96286">
        <ele>242.86999511719</ele>
        <time>2024-09-27T06:34:56.000Z</time>
      </trkpt>
      <trkpt lat="40.68315" lon="19.96289">
        <ele>243.35000610352</ele>
        <time>2024-09-27T06:34:57.000Z</time>
      </trkpt>
      <trkpt lat="40.68306" lon="19.96295">
        <ele>244.30999755859</ele>
        <time>2024-09-27T06:34:58.000Z</time>
      </trkpt>
      <trkpt lat="40.68296" lon="19.96298">
        <ele>245.27000427246</ele>
        <time>2024-09-27T06:34:59.000Z</time>
      </trkpt>
      <trkpt lat="40.68286" lon="19.96296">
        <ele>246.22999572754</ele>
        <time>2024-09-27T06:35:00.000Z</time>
      </trkpt>
      <trkpt lat="40.6827" lon="19.96291">
        <ele>247.67999267578</ele>
        <time>2024-09-27T06:35:01.000Z</time>
      </trkpt>
      <trkpt lat="40.68267" lon="19.9629">
        <ele>247.67999267578</ele>
        <time>2024-09-27T06:35:02.000Z</time>
      </trkpt>
      <trkpt lat="40.6826" lon="19.96291">
        <ele>248.16000366211</ele>
        <time>2024-09-27T06:35:03.000Z</time>
      </trkpt>
      <trkpt lat="40.68254" lon="19.96296">
        <ele>248.63999938965</ele>
        <time>2024-09-27T06:35:04.000Z</time>
      </trkpt>
      <trkpt lat="40.68252" lon="19.96304">
        <ele>249.11999511719</ele>
        <time>2024-09-27T06:35:05.000Z</time>
      </trkpt>
      <trkpt lat="40.68253" lon="19.96315">
        <ele>249.60000610352</ele>
        <time>2024-09-27T06:35:06.000Z</time>
      </trkpt>
      <trkpt lat="40.68253" lon="19.96328">
        <ele>250.08000183105</ele>
        <time>2024-09-27T06:35:07.000Z</time>
      </trkpt>
      <trkpt lat="40.68252" lon="19.96341">
        <ele>250.55999755859</ele>
        <time>2024-09-27T06:35:08.000Z</time>
      </trkpt>
      <trkpt lat="40.68248" lon="19.96355">
        <ele>251.03999328613</ele>
        <time>2024-09-27T06:35:09.000Z</time>
      </trkpt>
      <trkpt lat="40.68239" lon="19.96383">
        <ele>251.52000427246</ele>
        <time>2024-09-27T06:35:11.000Z</time>
      </trkpt>
      <trkpt lat="40.68235" lon="19.96397">
        <ele>252</ele>
        <time>2024-09-27T06:35:12.000Z</time>
      </trkpt>
      <trkpt lat="40.68228" lon="19.9642">
        <ele>253.44000244141</ele>
        <time>2024-09-27T06:35:13.000Z</time>
      </trkpt>
      <trkpt lat="40.68226" lon="19.96429">
        <ele>253.44000244141</ele>
        <time>2024-09-27T06:35:14.000Z</time>
      </trkpt>
      <trkpt lat="40.68222" lon="19.96437">
        <ele>254.41000366211</ele>
        <time>2024-09-27T06:35:15.000Z</time>
      </trkpt>
      <trkpt lat="40.68217" lon="19.96448">
        <ele>254.88999938965</ele>
        <time>2024-09-27T06:35:16.000Z</time>
      </trkpt>
      <trkpt lat="40.68209" lon="19.96454">
        <ele>256.32998657227</ele>
        <time>2024-09-27T06:35:17.000Z</time>
      </trkpt>
      <trkpt lat="40.68197" lon="19.96459">
        <ele>256.80999755859</ele>
        <time>2024-09-27T06:35:18.000Z</time>
      </trkpt>
      <trkpt lat="40.6819" lon="19.96463">
        <ele>257.29000854492</ele>
        <time>2024-09-27T06:35:19.000Z</time>
      </trkpt>
      <trkpt lat="40.68183" lon="19.96471">
        <ele>257.76998901367</ele>
        <time>2024-09-27T06:35:20.000Z</time>
      </trkpt>
      <trkpt lat="40.68179" lon="19.96479">
        <ele>258.25</ele>
        <time>2024-09-27T06:35:21.000Z</time>
      </trkpt>
      <trkpt lat="40.68178" lon="19.96491">
        <ele>258.73001098633</ele>
        <time>2024-09-27T06:35:22.000Z</time>
      </trkpt>
      <trkpt lat="40.68186" lon="19.96561">
        <ele>263.54000854492</ele>
        <time>2024-09-27T06:35:27.000Z</time>
      </trkpt>
      <trkpt lat="40.68186" lon="19.96572">
        <ele>264.5</ele>
        <time>2024-09-27T06:35:28.000Z</time>
      </trkpt>
      <trkpt lat="40.68184" lon="19.96584">
        <ele>264.98001098633</ele>
        <time>2024-09-27T06:35:29.000Z</time>
      </trkpt>
      <trkpt lat="40.6818" lon="19.96596">
        <ele>265.94000244141</ele>
        <time>2024-09-27T06:35:30.000Z</time>
      </trkpt>
      <trkpt lat="40.68174" lon="19.96603">
        <ele>266.42001342773</ele>
        <time>2024-09-27T06:35:31.000Z</time>
      </trkpt>
      <trkpt lat="40.68165" lon="19.96608">
        <ele>267.38000488281</ele>
        <time>2024-09-27T06:35:32.000Z</time>
      </trkpt>
      <trkpt lat="40.68155" lon="19.96609">
        <ele>268.35000610352</ele>
        <time>2024-09-27T06:35:33.000Z</time>
      </trkpt>
      <trkpt lat="40.68146" lon="19.96606">
        <ele>269.30999755859</ele>
        <time>2024-09-27T06:35:34.000Z</time>
      </trkpt>
      <trkpt lat="40.68141" lon="19.966">
        <ele>269.79000854492</ele>
        <time>2024-09-27T06:35:35.000Z</time>
      </trkpt>
      <trkpt lat="40.68138" lon="19.9659">
        <ele>271.23001098633</ele>
        <time>2024-09-27T06:35:36.000Z</time>
      </trkpt>
      <trkpt lat="40.68138" lon="19.96578">
        <ele>272.67001342773</ele>
        <time>2024-09-27T06:35:37.000Z</time>
      </trkpt>
      <trkpt lat="40.68142" lon="19.96566">
        <ele>273.63000488281</ele>
        <time>2024-09-27T06:35:38.000Z</time>
      </trkpt>
      <trkpt lat="40.68145" lon="19.96555">
        <ele>274.10998535156</ele>
        <time>2024-09-27T06:35:39.000Z</time>
      </trkpt>
      <trkpt lat="40.68147" lon="19.96542">
        <ele>275.07000732422</ele>
        <time>2024-09-27T06:35:40.000Z</time>
      </trkpt>
      <trkpt lat="40.68147" lon="19.96528">
        <ele>276.51998901367</ele>
        <time>2024-09-27T06:35:41.000Z</time>
      </trkpt>
      <trkpt lat="40.68134" lon="19.96461">
        <ele>280.35998535156</ele>
        <time>2024-09-27T06:35:45.000Z</time>
      </trkpt>
      <trkpt lat="40.68134" lon="19.96459">
        <ele>280.83999633789</ele>
        <time>2024-09-27T06:35:46.000Z</time>
      </trkpt>
      <trkpt lat="40.68132" lon="19.96433">
        <ele>281.79998779297</ele>
        <time>2024-09-27T06:35:47.000Z</time>
      </trkpt>
      <trkpt lat="40.68132" lon="19.96431">
        <ele>281.79998779297</ele>
        <time>2024-09-27T06:35:48.000Z</time>
      </trkpt>
      <trkpt lat="40.68129" lon="19.96416">
        <ele>282.2799987793</ele>
        <time>2024-09-27T06:35:49.000Z</time>
      </trkpt>
      <trkpt lat="40.68129" lon="19.96403">
        <ele>283.25</ele>
        <time>2024-09-27T06:35:50.000Z</time>
      </trkpt>
      <trkpt lat="40.68131" lon="19.96393">
        <ele>283.73001098633</ele>
        <time>2024-09-27T06:35:51.000Z</time>
      </trkpt>
      <trkpt lat="40.68137" lon="19.96384">
        <ele>284.20999145508</ele>
        <time>2024-09-27T06:35:52.000Z</time>
      </trkpt>
      <trkpt lat="40.68146" lon="19.96376">
        <ele>285.17001342773</ele>
        <time>2024-09-27T06:35:53.000Z</time>
      </trkpt>
      <trkpt lat="40.68159" lon="19.96366">
        <ele>285.64999389648</ele>
        <time>2024-09-27T06:35:54.000Z</time>
      </trkpt>
      <trkpt lat="40.68165" lon="19.96361">
        <ele>286.13000488281</ele>
        <time>2024-09-27T06:35:55.000Z</time>
      </trkpt>
      <trkpt lat="40.68172" lon="19.96354">
        <ele>286.60998535156</ele>
        <time>2024-09-27T06:35:56.000Z</time>
      </trkpt>
      <trkpt lat="40.68179" lon="19.96348">
        <ele>287.08999633789</ele>
        <time>2024-09-27T06:35:57.000Z</time>
      </trkpt>
      <trkpt lat="40.68182" lon="19.96345">
        <ele>287.08999633789</ele>
        <time>2024-09-27T06:35:58.000Z</time>
      </trkpt>
      <trkpt lat="40.68185" lon="19.9634">
        <ele>287.57000732422</ele>
        <time>2024-09-27T06:35:59.000Z</time>
      </trkpt>
      <trkpt lat="40.68187" lon="19.96334">
        <ele>288.04998779297</ele>
        <time>2024-09-27T06:36:00.000Z</time>
      </trkpt>
      <trkpt lat="40.68188" lon="19.96327">
        <ele>288.5299987793</ele>
        <time>2024-09-27T06:36:01.000Z</time>
      </trkpt>
      <trkpt lat="40.68186" lon="19.96318">
        <ele>289.01000976562</ele>
        <time>2024-09-27T06:36:02.000Z</time>
      </trkpt>
      <trkpt lat="40.68182" lon="19.9631">
        <ele>289.48999023438</ele>
        <time>2024-09-27T06:36:03.000Z</time>
      </trkpt>
      <trkpt lat="40.68176" lon="19.96305">
        <ele>289.9700012207</ele>
        <time>2024-09-27T06:36:04.000Z</time>
      </trkpt>
      <trkpt lat="40.68163" lon="19.96298">
        <ele>290.45999145508</ele>
        <time>2024-09-27T06:36:05.000Z</time>
      </trkpt>
      <trkpt lat="40.68162" lon="19.96297">
        <ele>290.45999145508</ele>
        <time>2024-09-27T06:36:06.000Z</time>
      </trkpt>
      <trkpt lat="40.68155" lon="19.96292">
        <ele>289.9700012207</ele>
        <time>2024-09-27T06:36:07.000Z</time>
      </trkpt>
      <trkpt lat="40.68149" lon="19.96284">
        <ele>289.9700012207</ele>
        <time>2024-09-27T06:36:08.000Z</time>
      </trkpt>
      <trkpt lat="40.68144" lon="19.96274">
        <ele>289.9700012207</ele>
        <time>2024-09-27T06:36:09.000Z</time>
      </trkpt>
      <trkpt lat="40.6814" lon="19.96262">
        <ele>289.9700012207</ele>
        <time>2024-09-27T06:36:10.000Z</time>
      </trkpt>
      <trkpt lat="40.68131" lon="19.96208">
        <ele>290.94000244141</ele>
        <time>2024-09-27T06:36:14.000Z</time>
      </trkpt>
      <trkpt lat="40.68131" lon="19.96205">
        <ele>290.94000244141</ele>
        <time>2024-09-27T06:36:15.000Z</time>
      </trkpt>
      <trkpt lat="40.68131" lon="19.96197">
        <ele>291.42001342773</ele>
        <time>2024-09-27T06:36:16.000Z</time>
      </trkpt>
      <trkpt lat="40.68132" lon="19.96189">
        <ele>291.42001342773</ele>
        <time>2024-09-27T06:36:17.000Z</time>
      </trkpt>
      <trkpt lat="40.68136" lon="19.96184">
        <ele>290.94000244141</ele>
        <time>2024-09-27T06:36:18.000Z</time>
      </trkpt>
      <trkpt lat="40.6814" lon="19.96181">
        <ele>290.94000244141</ele>
        <time>2024-09-27T06:36:19.000Z</time>
      </trkpt>
      <trkpt lat="40.68146" lon="19.9618">
        <ele>290.94000244141</ele>
        <time>2024-09-27T06:36:20.000Z</time>
      </trkpt>
      <trkpt lat="40.68156" lon="19.96182">
        <ele>290.94000244141</ele>
        <time>2024-09-27T06:36:21.000Z</time>
      </trkpt>
      <trkpt lat="40.68159" lon="19.96183">
        <ele>290.94000244141</ele>
        <time>2024-09-27T06:36:22.000Z</time>
      </trkpt>
      <trkpt lat="40.68165" lon="19.96182">
        <ele>290.94000244141</ele>
        <time>2024-09-27T06:36:23.000Z</time>
      </trkpt>
      <trkpt lat="40.68171" lon="19.96179">
        <ele>291.42001342773</ele>
        <time>2024-09-27T06:36:24.000Z</time>
      </trkpt>
      <trkpt lat="40.68177" lon="19.96174">
        <ele>291.89999389648</ele>
        <time>2024-09-27T06:36:25.000Z</time>
      </trkpt>
      <trkpt lat="40.68181" lon="19.96167">
        <ele>292.85998535156</ele>
        <time>2024-09-27T06:36:26.000Z</time>
      </trkpt>
      <trkpt lat="40.68185" lon="19.96159">
        <ele>293.33999633789</ele>
        <time>2024-09-27T06:36:27.000Z</time>
      </trkpt>
      <trkpt lat="40.6819" lon="19.96142">
        <ele>293.82000732422</ele>
        <time>2024-09-27T06:36:28.000Z</time>
      </trkpt>
      <trkpt lat="40.68207" lon="19.96093">
        <ele>296.70001220703</ele>
        <time>2024-09-27T06:36:32.000Z</time>
      </trkpt>
      <trkpt lat="40.6821" lon="19.96081">
        <ele>297.67001342773</ele>
        <time>2024-09-27T06:36:33.000Z</time>
      </trkpt>
      <trkpt lat="40.6821" lon="19.9607">
        <ele>298.63000488281</ele>
        <time>2024-09-27T06:36:34.000Z</time>
      </trkpt>
      <trkpt lat="40.68207" lon="19.96063">
        <ele>299.10998535156</ele>
        <time>2024-09-27T06:36:35.000Z</time>
      </trkpt>
      <trkpt lat="40.68201" lon="19.96059">
        <ele>300.07000732422</ele>
        <time>2024-09-27T06:36:36.000Z</time>
      </trkpt>
      <trkpt lat="40.68194" lon="19.9606">
        <ele>301.51000976562</ele>
        <time>2024-09-27T06:36:37.000Z</time>
      </trkpt>
      <trkpt lat="40.68186" lon="19.96066">
        <ele>301.98999023438</ele>
        <time>2024-09-27T06:36:38.000Z</time>
      </trkpt>
      <trkpt lat="40.68176" lon="19.96075">
        <ele>302.95001220703</ele>
        <time>2024-09-27T06:36:39.000Z</time>
      </trkpt>
      <trkpt lat="40.68167" lon="19.96087">
        <ele>303.91000366211</ele>
        <time>2024-09-27T06:36:40.000Z</time>
      </trkpt>
      <trkpt lat="40.6816" lon="19.961">
        <ele>304.88000488281</ele>
        <time>2024-09-27T06:36:41.000Z</time>
      </trkpt>
      <trkpt lat="40.68151" lon="19.96111">
        <ele>305.83999633789</ele>
        <time>2024-09-27T06:36:42.000Z</time>
      </trkpt>
      <trkpt lat="40.68141" lon="19.96118">
        <ele>306.79998779297</ele>
        <time>2024-09-27T06:36:43.000Z</time>
      </trkpt>
      <trkpt lat="40.68131" lon="19.9612">
        <ele>307.76000976562</ele>
        <time>2024-09-27T06:36:44.000Z</time>
      </trkpt>
      <trkpt lat="40.68121" lon="19.96117">
        <ele>308.7200012207</ele>
        <time>2024-09-27T06:36:45.000Z</time>
      </trkpt>
      <trkpt lat="40.68111" lon="19.96109">
        <ele>310.16000366211</ele>
        <time>2024-09-27T06:36:46.000Z</time>
      </trkpt>
      <trkpt lat="40.68102" lon="19.96101">
        <ele>311.60000610352</ele>
        <time>2024-09-27T06:36:47.000Z</time>
      </trkpt>
      <trkpt lat="40.68087" lon="19.96086">
        <ele>314.01000976562</ele>
        <time>2024-09-27T06:36:48.000Z</time>
      </trkpt>
      <trkpt lat="40.68084" lon="19.96083">
        <ele>314.48999023438</ele>
        <time>2024-09-27T06:36:49.000Z</time>
      </trkpt>
      <trkpt lat="40.68077" lon="19.96079">
        <ele>315.45001220703</ele>
        <time>2024-09-27T06:36:50.000Z</time>
      </trkpt>
      <trkpt lat="40.6807" lon="19.9608">
        <ele>315.92999267578</ele>
        <time>2024-09-27T06:36:51.000Z</time>
      </trkpt>
      <trkpt lat="40.68066" lon="19.96086">
        <ele>316.41000366211</ele>
        <time>2024-09-27T06:36:52.000Z</time>
      </trkpt>
      <trkpt lat="40.68065" lon="19.96095">
        <ele>316.89001464844</ele>
        <time>2024-09-27T06:36:53.000Z</time>
      </trkpt>
      <trkpt lat="40.68069" lon="19.96113">
        <ele>317.85000610352</ele>
        <time>2024-09-27T06:36:54.000Z</time>
      </trkpt>
      <trkpt lat="40.6807" lon="19.96118">
        <ele>317.85000610352</ele>
        <time>2024-09-27T06:36:55.000Z</time>
      </trkpt>
      <trkpt lat="40.68071" lon="19.96132">
        <ele>317.85000610352</ele>
        <time>2024-09-27T06:36:56.000Z</time>
      </trkpt>
      <trkpt lat="40.68069" lon="19.96145">
        <ele>318.32998657227</ele>
        <time>2024-09-27T06:36:57.000Z</time>
      </trkpt>
      <trkpt lat="40.68065" lon="19.9616">
        <ele>318.80999755859</ele>
        <time>2024-09-27T06:36:58.000Z</time>
      </trkpt>
      <trkpt lat="40.6806" lon="19.96174">
        <ele>319.29998779297</ele>
        <time>2024-09-27T06:36:59.000Z</time>
      </trkpt>
      <trkpt lat="40.68054" lon="19.96194">
        <ele>319.7799987793</ele>
        <time>2024-09-27T06:37:00.000Z</time>
      </trkpt>
      <trkpt lat="40.6805" lon="19.96209">
        <ele>320.26000976562</ele>
        <time>2024-09-27T06:37:01.000Z</time>
      </trkpt>
      <trkpt lat="40.68045" lon="19.96223">
        <ele>321.2200012207</ele>
        <time>2024-09-27T06:37:02.000Z</time>
      </trkpt>
      <trkpt lat="40.68039" lon="19.96238">
        <ele>322.17999267578</ele>
        <time>2024-09-27T06:37:03.000Z</time>
      </trkpt>
      <trkpt lat="40.68031" lon="19.9625">
        <ele>323.14001464844</ele>
        <time>2024-09-27T06:37:04.000Z</time>
      </trkpt>
      <trkpt lat="40.68022" lon="19.96258">
        <ele>324.57998657227</ele>
        <time>2024-09-27T06:37:05.000Z</time>
      </trkpt>
      <trkpt lat="40.68011" lon="19.96263">
        <ele>325.54000854492</ele>
        <time>2024-09-27T06:37:06.000Z</time>
      </trkpt>
      <trkpt lat="40.68002" lon="19.96263">
        <ele>326.98999023438</ele>
        <time>2024-09-27T06:37:07.000Z</time>
      </trkpt>
      <trkpt lat="40.67996" lon="19.9626">
        <ele>327.95001220703</ele>
        <time>2024-09-27T06:37:08.000Z</time>
      </trkpt>
      <trkpt lat="40.67993" lon="19.96252">
        <ele>328.42999267578</ele>
        <time>2024-09-27T06:37:09.000Z</time>
      </trkpt>
      <trkpt lat="40.67995" lon="19.96244">
        <ele>329.39001464844</ele>
        <time>2024-09-27T06:37:10.000Z</time>
      </trkpt>
      <trkpt lat="40.68" lon="19.96234">
        <ele>330.82998657227</ele>
        <time>2024-09-27T06:37:11.000Z</time>
      </trkpt>
      <trkpt lat="40.68004" lon="19.96221">
        <ele>331.79000854492</ele>
        <time>2024-09-27T06:37:12.000Z</time>
      </trkpt>
      <trkpt lat="40.68006" lon="19.96205">
        <ele>333.23001098633</ele>
        <time>2024-09-27T06:37:13.000Z</time>
      </trkpt>
      <trkpt lat="40.68005" lon="19.96186">
        <ele>334.67999267578</ele>
        <time>2024-09-27T06:37:14.000Z</time>
      </trkpt>
      <trkpt lat="40.68002" lon="19.96162">
        <ele>336.60000610352</ele>
        <time>2024-09-27T06:37:15.000Z</time>
      </trkpt>
      <trkpt lat="40.67999" lon="19.96151">
        <ele>337.55999755859</ele>
        <time>2024-09-27T06:37:16.000Z</time>
      </trkpt>
      <trkpt lat="40.67995" lon="19.96138">
        <ele>339</ele>
        <time>2024-09-27T06:37:17.000Z</time>
      </trkpt>
      <trkpt lat="40.67987" lon="19.96126">
        <ele>339.95999145508</ele>
        <time>2024-09-27T06:37:18.000Z</time>
      </trkpt>
      <trkpt lat="40.67978" lon="19.96115">
        <ele>340.92001342773</ele>
        <time>2024-09-27T06:37:19.000Z</time>
      </trkpt>
      <trkpt lat="40.67961" lon="19.96102">
        <ele>342.85000610352</ele>
        <time>2024-09-27T06:37:20.000Z</time>
      </trkpt>
      <trkpt lat="40.67957" lon="19.96098">
        <ele>343.32998657227</ele>
        <time>2024-09-27T06:37:21.000Z</time>
      </trkpt>
      <trkpt lat="40.67951" lon="19.96089">
        <ele>344.29000854492</ele>
        <time>2024-09-27T06:37:22.000Z</time>
      </trkpt>
      <trkpt lat="40.67949" lon="19.96077">
        <ele>345.25</ele>
        <time>2024-09-27T06:37:23.000Z</time>
      </trkpt>
      <trkpt lat="40.6795" lon="19.96062">
        <ele>346.69000244141</ele>
        <time>2024-09-27T06:37:24.000Z</time>
      </trkpt>
      <trkpt lat="40.67952" lon="19.96044">
        <ele>348.13000488281</ele>
        <time>2024-09-27T06:37:25.000Z</time>
      </trkpt>
      <trkpt lat="40.67953" lon="19.96035">
        <ele>349.10000610352</ele>
        <time>2024-09-27T06:37:26.000Z</time>
      </trkpt>
      <trkpt lat="40.67951" lon="19.96024">
        <ele>350.54000854492</ele>
        <time>2024-09-27T06:37:27.000Z</time>
      </trkpt>
      <trkpt lat="40.67946" lon="19.96016">
        <ele>351.01998901367</ele>
        <time>2024-09-27T06:37:28.000Z</time>
      </trkpt>
      <trkpt lat="40.67939" lon="19.96013">
        <ele>352.45999145508</ele>
        <time>2024-09-27T06:37:29.000Z</time>
      </trkpt>
      <trkpt lat="40.67931" lon="19.96015">
        <ele>353.42001342773</ele>
        <time>2024-09-27T06:37:30.000Z</time>
      </trkpt>
      <trkpt lat="40.67923" lon="19.9602">
        <ele>354.38000488281</ele>
        <time>2024-09-27T06:37:31.000Z</time>
      </trkpt>
      <trkpt lat="40.67909" lon="19.96031">
        <ele>355.82998657227</ele>
        <time>2024-09-27T06:37:32.000Z</time>
      </trkpt>
      <trkpt lat="40.67904" lon="19.96034">
        <ele>356.30999755859</ele>
        <time>2024-09-27T06:37:33.000Z</time>
      </trkpt>
      <trkpt lat="40.67892" lon="19.9604">
        <ele>357.75</ele>
        <time>2024-09-27T06:37:34.000Z</time>
      </trkpt>
      <trkpt lat="40.67878" lon="19.96044">
        <ele>359.19000244141</ele>
        <time>2024-09-27T06:37:35.000Z</time>
      </trkpt>
      <trkpt lat="40.67865" lon="19.96046">
        <ele>360.14999389648</ele>
        <time>2024-09-27T06:37:36.000Z</time>
      </trkpt>
      <trkpt lat="40.67845" lon="19.96047">
        <ele>361.58999633789</ele>
        <time>2024-09-27T06:37:37.000Z</time>
      </trkpt>
      <trkpt lat="40.67818" lon="19.96047">
        <ele>364</ele>
        <time>2024-09-27T06:37:39.000Z</time>
      </trkpt>
      <trkpt lat="40.67813" lon="19.96046">
        <ele>364.48001098633</ele>
        <time>2024-09-27T06:37:40.000Z</time>
      </trkpt>
      <trkpt lat="40.67801" lon="19.96043">
        <ele>365.92001342773</ele>
        <time>2024-09-27T06:37:41.000Z</time>
      </trkpt>
      <trkpt lat="40.6779" lon="19.96037">
        <ele>366.88000488281</ele>
        <time>2024-09-27T06:37:42.000Z</time>
      </trkpt>
      <trkpt lat="40.6778" lon="19.96028">
        <ele>367.83999633789</ele>
        <time>2024-09-27T06:37:43.000Z</time>
      </trkpt>
      <trkpt lat="40.6777" lon="19.96016">
        <ele>368.79998779297</ele>
        <time>2024-09-27T06:37:44.000Z</time>
      </trkpt>
      <trkpt lat="40.67763" lon="19.96003">
        <ele>370.23999023438</ele>
        <time>2024-09-27T06:37:45.000Z</time>
      </trkpt>
      <trkpt lat="40.67753" lon="19.95979">
        <ele>373.13000488281</ele>
        <time>2024-09-27T06:37:46.000Z</time>
      </trkpt>
      <trkpt lat="40.67751" lon="19.95974">
        <ele>373.60998535156</ele>
        <time>2024-09-27T06:37:47.000Z</time>
      </trkpt>
      <trkpt lat="40.67745" lon="19.95956">
        <ele>375.04998779297</ele>
        <time>2024-09-27T06:37:48.000Z</time>
      </trkpt>
      <trkpt lat="40.67737" lon="19.95927">
        <ele>376.9700012207</ele>
        <time>2024-09-27T06:37:49.000Z</time>
      </trkpt>
      <trkpt lat="40.67734" lon="19.95917">
        <ele>377.45001220703</ele>
        <time>2024-09-27T06:37:50.000Z</time>
      </trkpt>
      <trkpt lat="40.67729" lon="19.95905">
        <ele>378.42001342773</ele>
        <time>2024-09-27T06:37:51.000Z</time>
      </trkpt>
      <trkpt lat="40.67721" lon="19.95888">
        <ele>380.33999633789</ele>
        <time>2024-09-27T06:37:52.000Z</time>
      </trkpt>
      <trkpt lat="40.67716" lon="19.95874">
        <ele>381.7799987793</ele>
        <time>2024-09-27T06:37:53.000Z</time>
      </trkpt>
      <trkpt lat="40.67711" lon="19.95856">
        <ele>383.70001220703</ele>
        <time>2024-09-27T06:37:54.000Z</time>
      </trkpt>
      <trkpt lat="40.6771" lon="19.95836">
        <ele>384.66000366211</ele>
        <time>2024-09-27T06:37:55.000Z</time>
      </trkpt>
      <trkpt lat="40.6771" lon="19.95796">
        <ele>386.10998535156</ele>
        <time>2024-09-27T06:37:57.000Z</time>
      </trkpt>
      <trkpt lat="40.6771" lon="19.95784">
        <ele>386.58999633789</ele>
        <time>2024-09-27T06:37:58.000Z</time>
      </trkpt>
      <trkpt lat="40.67709" lon="19.9577">
        <ele>386.58999633789</ele>
        <time>2024-09-27T06:37:59.000Z</time>
      </trkpt>
      <trkpt lat="40.67707" lon="19.95759">
        <ele>387.54998779297</ele>
        <time>2024-09-27T06:38:00.000Z</time>
      </trkpt>
      <trkpt lat="40.67704" lon="19.95753">
        <ele>388.0299987793</ele>
        <time>2024-09-27T06:38:01.000Z</time>
      </trkpt>
      <trkpt lat="40.67683" lon="19.95747">
        <ele>388.51000976562</ele>
        <time>2024-09-27T06:38:07.000Z</time>
      </trkpt>
      <trkpt lat="40.67679" lon="19.95747">
        <ele>388.51000976562</ele>
        <time>2024-09-27T06:38:08.000Z</time>
      </trkpt>
      <trkpt lat="40.67674" lon="19.95748">
        <ele>388.98999023438</ele>
        <time>2024-09-27T06:38:09.000Z</time>
      </trkpt>
      <trkpt lat="40.67664" lon="19.95751">
        <ele>388.98999023438</ele>
        <time>2024-09-27T06:38:11.000Z</time>
      </trkpt>
      <trkpt lat="40.67659" lon="19.95753">
        <ele>389.4700012207</ele>
        <time>2024-09-27T06:38:12.000Z</time>
      </trkpt>
      <trkpt lat="40.67651" lon="19.95756">
        <ele>390.42999267578</ele>
        <time>2024-09-27T06:38:14.000Z</time>
      </trkpt>
      <trkpt lat="40.67644" lon="19.95759">
        <ele>390.91000366211</ele>
        <time>2024-09-27T06:38:16.000Z</time>
      </trkpt>
      <trkpt lat="40.67635" lon="19.95763">
        <ele>391.86999511719</ele>
        <time>2024-09-27T06:38:23.000Z</time>
      </trkpt>
      <trkpt lat="40.67622" lon="19.95769">
        <ele>393.79998779297</ele>
        <time>2024-09-27T06:40:39.000Z</time>
      </trkpt>
      <trkpt lat="40.67621" lon="19.95769">
        <ele>393.79998779297</ele>
        <time>2024-09-27T06:40:40.000Z</time>
      </trkpt>
      <trkpt lat="40.67616" lon="19.95769">
        <ele>394.2799987793</ele>
        <time>2024-09-27T06:40:41.000Z</time>
      </trkpt>
      <trkpt lat="40.67613" lon="19.95768">
        <ele>394.2799987793</ele>
        <time>2024-09-27T06:40:42.000Z</time>
      </trkpt>
      <trkpt lat="40.67607" lon="19.95766">
        <ele>394.76000976562</ele>
        <time>2024-09-27T06:40:43.000Z</time>
      </trkpt>
      <trkpt lat="40.67592" lon="19.95758">
        <ele>396.20001220703</ele>
        <time>2024-09-27T06:40:46.000Z</time>
      </trkpt>
      <trkpt lat="40.67586" lon="19.95754">
        <ele>397.16000366211</ele>
        <time>2024-09-27T06:40:47.000Z</time>
      </trkpt>
      <trkpt lat="40.67581" lon="19.95751">
        <ele>397.16000366211</ele>
        <time>2024-09-27T06:40:48.000Z</time>
      </trkpt>
      <trkpt lat="40.67574" lon="19.95747">
        <ele>398.11999511719</ele>
        <time>2024-09-27T06:40:49.000Z</time>
      </trkpt>
      <trkpt lat="40.67569" lon="19.95743">
        <ele>398.60000610352</ele>
        <time>2024-09-27T06:40:50.000Z</time>
      </trkpt>
      <trkpt lat="40.67554" lon="19.95735">
        <ele>400.5299987793</ele>
        <time>2024-09-27T06:40:52.000Z</time>
      </trkpt>
      <trkpt lat="40.67545" lon="19.9573">
        <ele>401.48999023438</ele>
        <time>2024-09-27T06:40:53.000Z</time>
      </trkpt>
      <trkpt lat="40.67543" lon="19.95729">
        <ele>401.48999023438</ele>
        <time>2024-09-27T06:40:54.000Z</time>
      </trkpt>
      <trkpt lat="40.67536" lon="19.95725">
        <ele>401.9700012207</ele>
        <time>2024-09-27T06:40:55.000Z</time>
      </trkpt>
      <trkpt lat="40.67531" lon="19.95722">
        <ele>402.45001220703</ele>
        <time>2024-09-27T06:40:56.000Z</time>
      </trkpt>
      <trkpt lat="40.67527" lon="19.9572">
        <ele>402.92999267578</ele>
        <time>2024-09-27T06:40:57.000Z</time>
      </trkpt>
      <trkpt lat="40.67519" lon="19.95714">
        <ele>402.92999267578</ele>
        <time>2024-09-27T06:40:58.000Z</time>
      </trkpt>
      <trkpt lat="40.67511" lon="19.95708">
        <ele>402.92999267578</ele>
        <time>2024-09-27T06:40:59.000Z</time>
      </trkpt>
      <trkpt lat="40.67509" lon="19.95707">
        <ele>402.92999267578</ele>
        <time>2024-09-27T06:41:00.000Z</time>
      </trkpt>
      <trkpt lat="40.67503" lon="19.95704">
        <ele>402.92999267578</ele>
        <time>2024-09-27T06:41:01.000Z</time>
      </trkpt>
      <trkpt lat="40.67495" lon="19.95702">
        <ele>402.45001220703</ele>
        <time>2024-09-27T06:41:02.000Z</time>
      </trkpt>
      <trkpt lat="40.67476" lon="19.957">
        <ele>402.45001220703</ele>
        <time>2024-09-27T06:41:04.000Z</time>
      </trkpt>
      <trkpt lat="40.67472" lon="19.957">
        <ele>402.45001220703</ele>
        <time>2024-09-27T06:41:05.000Z</time>
      </trkpt>
      <trkpt lat="40.67467" lon="19.957">
        <ele>402.45001220703</ele>
        <time>2024-09-27T06:41:06.000Z</time>
      </trkpt>
      <trkpt lat="40.67459" lon="19.95701">
        <ele>402.45001220703</ele>
        <time>2024-09-27T06:41:07.000Z</time>
      </trkpt>
      <trkpt lat="40.67452" lon="19.95704">
        <ele>402.45001220703</ele>
        <time>2024-09-27T06:41:08.000Z</time>
      </trkpt>
      <trkpt lat="40.67444" lon="19.95708">
        <ele>402.92999267578</ele>
        <time>2024-09-27T06:41:09.000Z</time>
      </trkpt>
      <trkpt lat="40.6744" lon="19.9571">
        <ele>403.41000366211</ele>
        <time>2024-09-27T06:41:10.000Z</time>
      </trkpt>
      <trkpt lat="40.67434" lon="19.95712">
        <ele>404.36999511719</ele>
        <time>2024-09-27T06:41:11.000Z</time>
      </trkpt>
      <trkpt lat="40.67428" lon="19.95712">
        <ele>404.85000610352</ele>
        <time>2024-09-27T06:41:12.000Z</time>
      </trkpt>
      <trkpt lat="40.67423" lon="19.95711">
        <ele>405.32998657227</ele>
        <time>2024-09-27T06:41:13.000Z</time>
      </trkpt>
      <trkpt lat="40.67417" lon="19.95709">
        <ele>406.29000854492</ele>
        <time>2024-09-27T06:41:14.000Z</time>
      </trkpt>
      <trkpt lat="40.67412" lon="19.95706">
        <ele>406.76998901367</ele>
        <time>2024-09-27T06:41:15.000Z</time>
      </trkpt>
      <trkpt lat="40.67405" lon="19.95699">
        <ele>407.73999023438</ele>
        <time>2024-09-27T06:41:16.000Z</time>
      </trkpt>
      <trkpt lat="40.67401" lon="19.95696">
        <ele>408.70001220703</ele>
        <time>2024-09-27T06:41:17.000Z</time>
      </trkpt>
      <trkpt lat="40.67395" lon="19.95691">
        <ele>409.17999267578</ele>
        <time>2024-09-27T06:41:18.000Z</time>
      </trkpt>
      <trkpt lat="40.67386" lon="19.95685">
        <ele>410.14001464844</ele>
        <time>2024-09-27T06:41:19.000Z</time>
      </trkpt>
      <trkpt lat="40.67382" lon="19.95682">
        <ele>410.14001464844</ele>
        <time>2024-09-27T06:41:20.000Z</time>
      </trkpt>
      <trkpt lat="40.67377" lon="19.95679">
        <ele>410.14001464844</ele>
        <time>2024-09-27T06:41:21.000Z</time>
      </trkpt>
      <trkpt lat="40.67371" lon="19.95676">
        <ele>410.14001464844</ele>
        <time>2024-09-27T06:41:22.000Z</time>
      </trkpt>
      <trkpt lat="40.67365" lon="19.95675">
        <ele>409.66000366211</ele>
        <time>2024-09-27T06:41:23.000Z</time>
      </trkpt>
      <trkpt lat="40.67353" lon="19.95672">
        <ele>409.17999267578</ele>
        <time>2024-09-27T06:41:25.000Z</time>
      </trkpt>
      <trkpt lat="40.67344" lon="19.9567">
        <ele>409.17999267578</ele>
        <time>2024-09-27T06:41:26.000Z</time>
      </trkpt>
      <trkpt lat="40.67342" lon="19.95669">
        <ele>409.17999267578</ele>
        <time>2024-09-27T06:41:27.000Z</time>
      </trkpt>
      <trkpt lat="40.67336" lon="19.95668">
        <ele>409.17999267578</ele>
        <time>2024-09-27T06:41:28.000Z</time>
      </trkpt>
      <trkpt lat="40.67332" lon="19.95668">
        <ele>409.17999267578</ele>
        <time>2024-09-27T06:41:29.000Z</time>
      </trkpt>
      <trkpt lat="40.67327" lon="19.95667">
        <ele>408.2200012207</ele>
        <time>2024-09-27T06:41:30.000Z</time>
      </trkpt>
      <trkpt lat="40.67306" lon="19.95671">
        <ele>405.80999755859</ele>
        <time>2024-09-27T06:41:36.000Z</time>
      </trkpt>
      <trkpt lat="40.67302" lon="19.95675">
        <ele>405.80999755859</ele>
        <time>2024-09-27T06:41:37.000Z</time>
      </trkpt>
      <trkpt lat="40.67298" lon="19.95681">
        <ele>405.80999755859</ele>
        <time>2024-09-27T06:41:38.000Z</time>
      </trkpt>
      <trkpt lat="40.67294" lon="19.95687">
        <ele>405.80999755859</ele>
        <time>2024-09-27T06:41:39.000Z</time>
      </trkpt>
      <trkpt lat="40.67279" lon="19.9571">
        <ele>406.29000854492</ele>
        <time>2024-09-27T06:41:42.000Z</time>
      </trkpt>
      <trkpt lat="40.67277" lon="19.95712">
        <ele>406.29000854492</ele>
        <time>2024-09-27T06:41:43.000Z</time>
      </trkpt>
      <trkpt lat="40.67272" lon="19.95719">
        <ele>406.29000854492</ele>
        <time>2024-09-27T06:41:44.000Z</time>
      </trkpt>
      <trkpt lat="40.67266" lon="19.95725">
        <ele>406.29000854492</ele>
        <time>2024-09-27T06:41:45.000Z</time>
      </trkpt>
      <trkpt lat="40.67259" lon="19.95729">
        <ele>406.76998901367</ele>
        <time>2024-09-27T06:41:46.000Z</time>
      </trkpt>
      <trkpt lat="40.67251" lon="19.95731">
        <ele>407.26000976562</ele>
        <time>2024-09-27T06:41:47.000Z</time>
      </trkpt>
      <trkpt lat="40.67243" lon="19.95731">
        <ele>407.73999023438</ele>
        <time>2024-09-27T06:41:48.000Z</time>
      </trkpt>
      <trkpt lat="40.67236" lon="19.95731">
        <ele>408.70001220703</ele>
        <time>2024-09-27T06:41:49.000Z</time>
      </trkpt>
      <trkpt lat="40.67209" lon="19.95725">
        <ele>411.57998657227</ele>
        <time>2024-09-27T06:41:53.000Z</time>
      </trkpt>
      <trkpt lat="40.67203" lon="19.95725">
        <ele>412.05999755859</ele>
        <time>2024-09-27T06:41:54.000Z</time>
      </trkpt>
      <trkpt lat="40.67197" lon="19.95727">
        <ele>412.54000854492</ele>
        <time>2024-09-27T06:41:55.000Z</time>
      </trkpt>
      <trkpt lat="40.6719" lon="19.95731">
        <ele>412.54000854492</ele>
        <time>2024-09-27T06:41:56.000Z</time>
      </trkpt>
      <trkpt lat="40.67184" lon="19.95736">
        <ele>413.01998901367</ele>
        <time>2024-09-27T06:41:57.000Z</time>
      </trkpt>
      <trkpt lat="40.67179" lon="19.95743">
        <ele>413.98001098633</ele>
        <time>2024-09-27T06:41:58.000Z</time>
      </trkpt>
      <trkpt lat="40.67163" lon="19.95775">
        <ele>416.86999511719</ele>
        <time>2024-09-27T06:42:01.000Z</time>
      </trkpt>
      <trkpt lat="40.67161" lon="19.95778">
        <ele>417.35000610352</ele>
        <time>2024-09-27T06:42:02.000Z</time>
      </trkpt>
      <trkpt lat="40.67147" lon="19.95813">
        <ele>420.70999145508</ele>
        <time>2024-09-27T06:42:06.000Z</time>
      </trkpt>
      <trkpt lat="40.67142" lon="19.95823">
        <ele>421.67999267578</ele>
        <time>2024-09-27T06:42:07.000Z</time>
      </trkpt>
      <trkpt lat="40.67137" lon="19.95832">
        <ele>422.64001464844</ele>
        <time>2024-09-27T06:42:08.000Z</time>
      </trkpt>
      <trkpt lat="40.6713" lon="19.95842">
        <ele>423.60000610352</ele>
        <time>2024-09-27T06:42:09.000Z</time>
      </trkpt>
      <trkpt lat="40.67089" lon="19.95898">
        <ele>429.36999511719</ele>
        <time>2024-09-27T06:42:14.000Z</time>
      </trkpt>
      <trkpt lat="40.67086" lon="19.95903">
        <ele>430.32998657227</ele>
        <time>2024-09-27T06:42:15.000Z</time>
      </trkpt>
      <trkpt lat="40.67076" lon="19.95917">
        <ele>431.76998901367</ele>
        <time>2024-09-27T06:42:16.000Z</time>
      </trkpt>
      <trkpt lat="40.67074" lon="19.95919">
        <ele>431.76998901367</ele>
        <time>2024-09-27T06:42:17.000Z</time>
      </trkpt>
      <trkpt lat="40.67062" lon="19.95933">
        <ele>432.73001098633</ele>
        <time>2024-09-27T06:42:18.000Z</time>
      </trkpt>
      <trkpt lat="40.67059" lon="19.95937">
        <ele>433.20999145508</ele>
        <time>2024-09-27T06:42:19.000Z</time>
      </trkpt>
      <trkpt lat="40.67053" lon="19.95947">
        <ele>433.69000244141</ele>
        <time>2024-09-27T06:42:20.000Z</time>
      </trkpt>
      <trkpt lat="40.67046" lon="19.9596">
        <ele>434.64999389648</ele>
        <time>2024-09-27T06:42:21.000Z</time>
      </trkpt>
      <trkpt lat="40.67038" lon="19.9598">
        <ele>436.10000610352</ele>
        <time>2024-09-27T06:42:22.000Z</time>
      </trkpt>
      <trkpt lat="40.6703" lon="19.96001">
        <ele>437.05999755859</ele>
        <time>2024-09-27T06:42:24.000Z</time>
      </trkpt>
      <trkpt lat="40.67029" lon="19.96005">
        <ele>437.05999755859</ele>
        <time>2024-09-27T06:42:25.000Z</time>
      </trkpt>
      <trkpt lat="40.67027" lon="19.96014">
        <ele>437.54000854492</ele>
        <time>2024-09-27T06:42:26.000Z</time>
      </trkpt>
      <trkpt lat="40.67026" lon="19.96024">
        <ele>438.01998901367</ele>
        <time>2024-09-27T06:42:27.000Z</time>
      </trkpt>
      <trkpt lat="40.67028" lon="19.96034">
        <ele>438.98001098633</ele>
        <time>2024-09-27T06:42:28.000Z</time>
      </trkpt>
      <trkpt lat="40.67031" lon="19.96045">
        <ele>439.45999145508</ele>
        <time>2024-09-27T06:42:29.000Z</time>
      </trkpt>
      <trkpt lat="40.67035" lon="19.96059">
        <ele>440.42001342773</ele>
        <time>2024-09-27T06:42:30.000Z</time>
      </trkpt>
      <trkpt lat="40.67038" lon="19.96069">
        <ele>440.89999389648</ele>
        <time>2024-09-27T06:42:31.000Z</time>
      </trkpt>
      <trkpt lat="40.67049" lon="19.96123">
        <ele>442.82000732422</ele>
        <time>2024-09-27T06:42:35.000Z</time>
      </trkpt>
      <trkpt lat="40.6705" lon="19.96132">
        <ele>443.30999755859</ele>
        <time>2024-09-27T06:42:36.000Z</time>
      </trkpt>
      <trkpt lat="40.67051" lon="19.96144">
        <ele>442.82000732422</ele>
        <time>2024-09-27T06:42:37.000Z</time>
      </trkpt>
      <trkpt lat="40.6705" lon="19.96155">
        <ele>442.82000732422</ele>
        <time>2024-09-27T06:42:38.000Z</time>
      </trkpt>
      <trkpt lat="40.67047" lon="19.96164">
        <ele>443.30999755859</ele>
        <time>2024-09-27T06:42:39.000Z</time>
      </trkpt>
      <trkpt lat="40.67043" lon="19.9617">
        <ele>443.79000854492</ele>
        <time>2024-09-27T06:42:40.000Z</time>
      </trkpt>
      <trkpt lat="40.67038" lon="19.96173">
        <ele>444.26998901367</ele>
        <time>2024-09-27T06:42:41.000Z</time>
      </trkpt>
      <trkpt lat="40.67032" lon="19.96174">
        <ele>444.26998901367</ele>
        <time>2024-09-27T06:42:42.000Z</time>
      </trkpt>
      <trkpt lat="40.67028" lon="19.96172">
        <ele>444.75</ele>
        <time>2024-09-27T06:42:43.000Z</time>
      </trkpt>
      <trkpt lat="40.67023" lon="19.96167">
        <ele>445.23001098633</ele>
        <time>2024-09-27T06:42:44.000Z</time>
      </trkpt>
      <trkpt lat="40.6702" lon="19.96159">
        <ele>445.70999145508</ele>
        <time>2024-09-27T06:42:45.000Z</time>
      </trkpt>
      <trkpt lat="40.67018" lon="19.9615">
        <ele>446.19000244141</ele>
        <time>2024-09-27T06:42:46.000Z</time>
      </trkpt>
      <trkpt lat="40.67017" lon="19.96142">
        <ele>446.67001342773</ele>
        <time>2024-09-27T06:42:47.000Z</time>
      </trkpt>
      <trkpt lat="40.67012" lon="19.96108">
        <ele>447.63000488281</ele>
        <time>2024-09-27T06:42:50.000Z</time>
      </trkpt>
      <trkpt lat="40.67011" lon="19.96102">
        <ele>448.10998535156</ele>
        <time>2024-09-27T06:42:51.000Z</time>
      </trkpt>
      <trkpt lat="40.67008" lon="19.96091">
        <ele>448.58999633789</ele>
        <time>2024-09-27T06:42:52.000Z</time>
      </trkpt>
      <trkpt lat="40.67003" lon="19.9608">
        <ele>449.54998779297</ele>
        <time>2024-09-27T06:42:53.000Z</time>
      </trkpt>
      <trkpt lat="40.66997" lon="19.96071">
        <ele>450.0299987793</ele>
        <time>2024-09-27T06:42:54.000Z</time>
      </trkpt>
      <trkpt lat="40.6699" lon="19.96065">
        <ele>450.51998901367</ele>
        <time>2024-09-27T06:42:55.000Z</time>
      </trkpt>
      <trkpt lat="40.66982" lon="19.9606">
        <ele>451</ele>
        <time>2024-09-27T06:42:56.000Z</time>
      </trkpt>
      <trkpt lat="40.66972" lon="19.96056">
        <ele>451.48001098633</ele>
        <time>2024-09-27T06:42:57.000Z</time>
      </trkpt>
      <trkpt lat="40.66965" lon="19.96051">
        <ele>452.44000244141</ele>
        <time>2024-09-27T06:42:58.000Z</time>
      </trkpt>
      <trkpt lat="40.6696" lon="19.96043">
        <ele>452.92001342773</ele>
        <time>2024-09-27T06:42:59.000Z</time>
      </trkpt>
      <trkpt lat="40.66958" lon="19.96034">
        <ele>453.88000488281</ele>
        <time>2024-09-27T06:43:00.000Z</time>
      </trkpt>
      <trkpt lat="40.66958" lon="19.96022">
        <ele>454.83999633789</ele>
        <time>2024-09-27T06:43:01.000Z</time>
      </trkpt>
      <trkpt lat="40.66958" lon="19.96012">
        <ele>455.32000732422</ele>
        <time>2024-09-27T06:43:02.000Z</time>
      </trkpt>
      <trkpt lat="40.66961" lon="19.95983">
        <ele>456.2799987793</ele>
        <time>2024-09-27T06:43:04.000Z</time>
      </trkpt>
      <trkpt lat="40.66961" lon="19.95975">
        <ele>456.76000976562</ele>
        <time>2024-09-27T06:43:05.000Z</time>
      </trkpt>
      <trkpt lat="40.66961" lon="19.95964">
        <ele>456.76000976562</ele>
        <time>2024-09-27T06:43:06.000Z</time>
      </trkpt>
      <trkpt lat="40.66959" lon="19.95953">
        <ele>457.23999023438</ele>
        <time>2024-09-27T06:43:07.000Z</time>
      </trkpt>
      <trkpt lat="40.66956" lon="19.95942">
        <ele>457.23999023438</ele>
        <time>2024-09-27T06:43:08.000Z</time>
      </trkpt>
      <trkpt lat="40.6695" lon="19.95932">
        <ele>457.7200012207</ele>
        <time>2024-09-27T06:43:09.000Z</time>
      </trkpt>
      <trkpt lat="40.66944" lon="19.95924">
        <ele>458.20999145508</ele>
        <time>2024-09-27T06:43:10.000Z</time>
      </trkpt>
      <trkpt lat="40.66936" lon="19.95917">
        <ele>458.69000244141</ele>
        <time>2024-09-27T06:43:11.000Z</time>
      </trkpt>
      <trkpt lat="40.66931" lon="19.95913">
        <ele>458.69000244141</ele>
        <time>2024-09-27T06:43:12.000Z</time>
      </trkpt>
      <trkpt lat="40.66923" lon="19.95911">
        <ele>459.17001342773</ele>
        <time>2024-09-27T06:43:13.000Z</time>
      </trkpt>
      <trkpt lat="40.66915" lon="19.95911">
        <ele>459.17001342773</ele>
        <time>2024-09-27T06:43:14.000Z</time>
      </trkpt>
      <trkpt lat="40.66906" lon="19.95914">
        <ele>459.17001342773</ele>
        <time>2024-09-27T06:43:15.000Z</time>
      </trkpt>
      <trkpt lat="40.66897" lon="19.95918">
        <ele>459.17001342773</ele>
        <time>2024-09-27T06:43:16.000Z</time>
      </trkpt>
      <trkpt lat="40.6689" lon="19.95923">
        <ele>459.17001342773</ele>
        <time>2024-09-27T06:43:17.000Z</time>
      </trkpt>
      <trkpt lat="40.66876" lon="19.95933">
        <ele>459.17001342773</ele>
        <time>2024-09-27T06:43:18.000Z</time>
      </trkpt>
      <trkpt lat="40.66856" lon="19.95946">
        <ele>459.17001342773</ele>
        <time>2024-09-27T06:43:21.000Z</time>
      </trkpt>
      <trkpt lat="40.66842" lon="19.95954">
        <ele>459.17001342773</ele>
        <time>2024-09-27T06:43:23.000Z</time>
      </trkpt>
      <trkpt lat="40.66834" lon="19.95957">
        <ele>459.17001342773</ele>
        <time>2024-09-27T06:43:24.000Z</time>
      </trkpt>
      <trkpt lat="40.6683" lon="19.95958">
        <ele>458.69000244141</ele>
        <time>2024-09-27T06:43:25.000Z</time>
      </trkpt>
      <trkpt lat="40.66823" lon="19.95959">
        <ele>459.17001342773</ele>
        <time>2024-09-27T06:43:26.000Z</time>
      </trkpt>
      <trkpt lat="40.66814" lon="19.95957">
        <ele>459.17001342773</ele>
        <time>2024-09-27T06:43:27.000Z</time>
      </trkpt>
      <trkpt lat="40.66806" lon="19.95954">
        <ele>459.64999389648</ele>
        <time>2024-09-27T06:43:28.000Z</time>
      </trkpt>
      <trkpt lat="40.66785" lon="19.95946">
        <ele>460.13000488281</ele>
        <time>2024-09-27T06:43:31.000Z</time>
      </trkpt>
      <trkpt lat="40.66783" lon="19.95945">
        <ele>460.13000488281</ele>
        <time>2024-09-27T06:43:32.000Z</time>
      </trkpt>
      <trkpt lat="40.66775" lon="19.95943">
        <ele>460.60998535156</ele>
        <time>2024-09-27T06:43:33.000Z</time>
      </trkpt>
      <trkpt lat="40.66766" lon="19.95941">
        <ele>460.60998535156</ele>
        <time>2024-09-27T06:43:34.000Z</time>
      </trkpt>
      <trkpt lat="40.66758" lon="19.95941">
        <ele>461.08999633789</ele>
        <time>2024-09-27T06:43:35.000Z</time>
      </trkpt>
      <trkpt lat="40.66746" lon="19.95942">
        <ele>461.57000732422</ele>
        <time>2024-09-27T06:43:36.000Z</time>
      </trkpt>
      <trkpt lat="40.66741" lon="19.95941">
        <ele>461.57000732422</ele>
        <time>2024-09-27T06:43:37.000Z</time>
      </trkpt>
      <trkpt lat="40.66734" lon="19.95939">
        <ele>462.04998779297</ele>
        <time>2024-09-27T06:43:38.000Z</time>
      </trkpt>
      <trkpt lat="40.66727" lon="19.95936">
        <ele>462.5299987793</ele>
        <time>2024-09-27T06:43:39.000Z</time>
      </trkpt>
      <trkpt lat="40.66721" lon="19.9593">
        <ele>463.01000976562</ele>
        <time>2024-09-27T06:43:40.000Z</time>
      </trkpt>
      <trkpt lat="40.66716" lon="19.95921">
        <ele>463.01000976562</ele>
        <time>2024-09-27T06:43:41.000Z</time>
      </trkpt>
      <trkpt lat="40.66713" lon="19.95915">
        <ele>463.01000976562</ele>
        <time>2024-09-27T06:43:42.000Z</time>
      </trkpt>
      <trkpt lat="40.66708" lon="19.95909">
        <ele>463.48999023438</ele>
        <time>2024-09-27T06:43:43.000Z</time>
      </trkpt>
      <trkpt lat="40.66703" lon="19.95905">
        <ele>463.48999023438</ele>
        <time>2024-09-27T06:43:44.000Z</time>
      </trkpt>
      <trkpt lat="40.66697" lon="19.95905">
        <ele>463.9700012207</ele>
        <time>2024-09-27T06:43:45.000Z</time>
      </trkpt>
      <trkpt lat="40.66691" lon="19.95907">
        <ele>463.9700012207</ele>
        <time>2024-09-27T06:43:46.000Z</time>
      </trkpt>
      <trkpt lat="40.66681" lon="19.95911">
        <ele>464.92999267578</ele>
        <time>2024-09-27T06:43:47.000Z</time>
      </trkpt>
      <trkpt lat="40.66674" lon="19.95915">
        <ele>465.42001342773</ele>
        <time>2024-09-27T06:43:49.000Z</time>
      </trkpt>
      <trkpt lat="40.66669" lon="19.95917">
        <ele>465.89999389648</ele>
        <time>2024-09-27T06:43:50.000Z</time>
      </trkpt>
      <trkpt lat="40.66632" lon="19.95928">
        <ele>467.82000732422</ele>
        <time>2024-09-27T06:43:55.000Z</time>
      </trkpt>
      <trkpt lat="40.66626" lon="19.95929">
        <ele>467.82000732422</ele>
        <time>2024-09-27T06:43:56.000Z</time>
      </trkpt>
      <trkpt lat="40.6662" lon="19.9593">
        <ele>468.29998779297</ele>
        <time>2024-09-27T06:43:57.000Z</time>
      </trkpt>
      <trkpt lat="40.6661" lon="19.95931">
        <ele>468.29998779297</ele>
        <time>2024-09-27T06:43:58.000Z</time>
      </trkpt>
      <trkpt lat="40.66605" lon="19.95931">
        <ele>468.29998779297</ele>
        <time>2024-09-27T06:43:59.000Z</time>
      </trkpt>
      <trkpt lat="40.66597" lon="19.95934">
        <ele>468.7799987793</ele>
        <time>2024-09-27T06:44:00.000Z</time>
      </trkpt>
      <trkpt lat="40.66589" lon="19.95939">
        <ele>468.7799987793</ele>
        <time>2024-09-27T06:44:01.000Z</time>
      </trkpt>
      <trkpt lat="40.66571" lon="19.95953">
        <ele>469.73999023438</ele>
        <time>2024-09-27T06:44:03.000Z</time>
      </trkpt>
      <trkpt lat="40.66566" lon="19.95957">
        <ele>470.2200012207</ele>
        <time>2024-09-27T06:44:04.000Z</time>
      </trkpt>
      <trkpt lat="40.66559" lon="19.95965">
        <ele>470.2200012207</ele>
        <time>2024-09-27T06:44:05.000Z</time>
      </trkpt>
      <trkpt lat="40.66554" lon="19.95973">
        <ele>469.73999023438</ele>
        <time>2024-09-27T06:44:06.000Z</time>
      </trkpt>
      <trkpt lat="40.66548" lon="19.95982">
        <ele>469.73999023438</ele>
        <time>2024-09-27T06:44:07.000Z</time>
      </trkpt>
      <trkpt lat="40.66543" lon="19.95992">
        <ele>469.73999023438</ele>
        <time>2024-09-27T06:44:08.000Z</time>
      </trkpt>
      <trkpt lat="40.66539" lon="19.96005">
        <ele>469.26000976562</ele>
        <time>2024-09-27T06:44:09.000Z</time>
      </trkpt>
      <trkpt lat="40.66521" lon="19.96065">
        <ele>467.82000732422</ele>
        <time>2024-09-27T06:44:15.000Z</time>
      </trkpt>
      <trkpt lat="40.6652" lon="19.96075">
        <ele>467.33999633789</ele>
        <time>2024-09-27T06:44:16.000Z</time>
      </trkpt>
      <trkpt lat="40.6652" lon="19.96085">
        <ele>466.85998535156</ele>
        <time>2024-09-27T06:44:17.000Z</time>
      </trkpt>
      <trkpt lat="40.66521" lon="19.96095">
        <ele>465.89999389648</ele>
        <time>2024-09-27T06:44:18.000Z</time>
      </trkpt>
      <trkpt lat="40.66524" lon="19.96106">
        <ele>465.42001342773</ele>
        <time>2024-09-27T06:44:19.000Z</time>
      </trkpt>
      <trkpt lat="40.66528" lon="19.96117">
        <ele>464.92999267578</ele>
        <time>2024-09-27T06:44:20.000Z</time>
      </trkpt>
      <trkpt lat="40.66536" lon="19.96134">
        <ele>464.45001220703</ele>
        <time>2024-09-27T06:44:21.000Z</time>
      </trkpt>
      <trkpt lat="40.66537" lon="19.96137">
        <ele>463.9700012207</ele>
        <time>2024-09-27T06:44:22.000Z</time>
      </trkpt>
      <trkpt lat="40.66541" lon="19.96147">
        <ele>463.9700012207</ele>
        <time>2024-09-27T06:44:23.000Z</time>
      </trkpt>
      <trkpt lat="40.66544" lon="19.96157">
        <ele>463.9700012207</ele>
        <time>2024-09-27T06:44:24.000Z</time>
      </trkpt>
      <trkpt lat="40.66544" lon="19.96168">
        <ele>463.48999023438</ele>
        <time>2024-09-27T06:44:25.000Z</time>
      </trkpt>
      <trkpt lat="40.66542" lon="19.96178">
        <ele>463.48999023438</ele>
        <time>2024-09-27T06:44:26.000Z</time>
      </trkpt>
      <trkpt lat="40.66539" lon="19.96189">
        <ele>463.9700012207</ele>
        <time>2024-09-27T06:44:27.000Z</time>
      </trkpt>
      <trkpt lat="40.66536" lon="19.96198">
        <ele>464.45001220703</ele>
        <time>2024-09-27T06:44:28.000Z</time>
      </trkpt>
      <trkpt lat="40.66529" lon="19.96213">
        <ele>465.42001342773</ele>
        <time>2024-09-27T06:44:29.000Z</time>
      </trkpt>
      <trkpt lat="40.66516" lon="19.96236">
        <ele>467.82000732422</ele>
        <time>2024-09-27T06:44:31.000Z</time>
      </trkpt>
      <trkpt lat="40.66509" lon="19.96249">
        <ele>469.26000976562</ele>
        <time>2024-09-27T06:44:32.000Z</time>
      </trkpt>
      <trkpt lat="40.66506" lon="19.96254">
        <ele>469.73999023438</ele>
        <time>2024-09-27T06:44:33.000Z</time>
      </trkpt>
      <trkpt lat="40.66491" lon="19.96285">
        <ele>471.17999267578</ele>
        <time>2024-09-27T06:44:36.000Z</time>
      </trkpt>
      <trkpt lat="40.66476" lon="19.96314">
        <ele>469.73999023438</ele>
        <time>2024-09-27T06:44:38.000Z</time>
      </trkpt>
      <trkpt lat="40.66466" lon="19.9633">
        <ele>469.26000976562</ele>
        <time>2024-09-27T06:44:40.000Z</time>
      </trkpt>
      <trkpt lat="40.6646" lon="19.9634">
        <ele>469.26000976562</ele>
        <time>2024-09-27T06:44:41.000Z</time>
      </trkpt>
      <trkpt lat="40.66454" lon="19.96348">
        <ele>469.26000976562</ele>
        <time>2024-09-27T06:44:42.000Z</time>
      </trkpt>
      <trkpt lat="40.66444" lon="19.96359">
        <ele>469.26000976562</ele>
        <time>2024-09-27T06:44:43.000Z</time>
      </trkpt>
      <trkpt lat="40.6644" lon="19.96363">
        <ele>469.26000976562</ele>
        <time>2024-09-27T06:44:44.000Z</time>
      </trkpt>
      <trkpt lat="40.66435" lon="19.96372">
        <ele>469.26000976562</ele>
        <time>2024-09-27T06:44:45.000Z</time>
      </trkpt>
      <trkpt lat="40.66433" lon="19.96381">
        <ele>469.73999023438</ele>
        <time>2024-09-27T06:44:46.000Z</time>
      </trkpt>
      <trkpt lat="40.66433" lon="19.96393">
        <ele>469.73999023438</ele>
        <time>2024-09-27T06:44:47.000Z</time>
      </trkpt>
      <trkpt lat="40.66437" lon="19.96433">
        <ele>470.70001220703</ele>
        <time>2024-09-27T06:44:50.000Z</time>
      </trkpt>
      <trkpt lat="40.66437" lon="19.9644">
        <ele>471.17999267578</ele>
        <time>2024-09-27T06:44:51.000Z</time>
      </trkpt>
      <trkpt lat="40.66437" lon="19.96448">
        <ele>471.66000366211</ele>
        <time>2024-09-27T06:44:52.000Z</time>
      </trkpt>
      <trkpt lat="40.66434" lon="19.96455">
        <ele>471.66000366211</ele>
        <time>2024-09-27T06:44:53.000Z</time>
      </trkpt>
      <trkpt lat="40.66429" lon="19.96461">
        <ele>472.14001464844</ele>
        <time>2024-09-27T06:44:54.000Z</time>
      </trkpt>
      <trkpt lat="40.66422" lon="19.96468">
        <ele>472.14001464844</ele>
        <time>2024-09-27T06:44:55.000Z</time>
      </trkpt>
      <trkpt lat="40.66414" lon="19.96477">
        <ele>472.63000488281</ele>
        <time>2024-09-27T06:44:56.000Z</time>
      </trkpt>
      <trkpt lat="40.66408" lon="19.96488">
        <ele>472.63000488281</ele>
        <time>2024-09-27T06:44:57.000Z</time>
      </trkpt>
      <trkpt lat="40.66403" lon="19.965">
        <ele>473.10998535156</ele>
        <time>2024-09-27T06:44:58.000Z</time>
      </trkpt>
      <trkpt lat="40.664" lon="19.96511">
        <ele>473.58999633789</ele>
        <time>2024-09-27T06:44:59.000Z</time>
      </trkpt>
      <trkpt lat="40.66398" lon="19.96522">
        <ele>474.54998779297</ele>
        <time>2024-09-27T06:45:00.000Z</time>
      </trkpt>
      <trkpt lat="40.66398" lon="19.96534">
        <ele>475.0299987793</ele>
        <time>2024-09-27T06:45:01.000Z</time>
      </trkpt>
      <trkpt lat="40.66397" lon="19.96542">
        <ele>475.51000976562</ele>
        <time>2024-09-27T06:45:02.000Z</time>
      </trkpt>
      <trkpt lat="40.66394" lon="19.96551">
        <ele>475.98999023438</ele>
        <time>2024-09-27T06:45:03.000Z</time>
      </trkpt>
      <trkpt lat="40.66389" lon="19.96557">
        <ele>476.4700012207</ele>
        <time>2024-09-27T06:45:04.000Z</time>
      </trkpt>
      <trkpt lat="40.66383" lon="19.96561">
        <ele>476.95001220703</ele>
        <time>2024-09-27T06:45:05.000Z</time>
      </trkpt>
      <trkpt lat="40.66375" lon="19.96563">
        <ele>477.42999267578</ele>
        <time>2024-09-27T06:45:06.000Z</time>
      </trkpt>
      <trkpt lat="40.66365" lon="19.96565">
        <ele>477.42999267578</ele>
        <time>2024-09-27T06:45:07.000Z</time>
      </trkpt>
      <trkpt lat="40.66353" lon="19.96568">
        <ele>477.91000366211</ele>
        <time>2024-09-27T06:45:08.000Z</time>
      </trkpt>
      <trkpt lat="40.66347" lon="19.9657">
        <ele>478.39001464844</ele>
        <time>2024-09-27T06:45:09.000Z</time>
      </trkpt>
      <trkpt lat="40.66335" lon="19.96576">
        <ele>479.35000610352</ele>
        <time>2024-09-27T06:45:10.000Z</time>
      </trkpt>
      <trkpt lat="40.6633" lon="19.96578">
        <ele>479.35000610352</ele>
        <time>2024-09-27T06:45:11.000Z</time>
      </trkpt>
      <trkpt lat="40.66318" lon="19.96582">
        <ele>480.32000732422</ele>
        <time>2024-09-27T06:45:12.000Z</time>
      </trkpt>
      <trkpt lat="40.66314" lon="19.96583">
        <ele>480.32000732422</ele>
        <time>2024-09-27T06:45:13.000Z</time>
      </trkpt>
      <trkpt lat="40.66305" lon="19.96584">
        <ele>480.79998779297</ele>
        <time>2024-09-27T06:45:14.000Z</time>
      </trkpt>
      <trkpt lat="40.66296" lon="19.96584">
        <ele>480.79998779297</ele>
        <time>2024-09-27T06:45:15.000Z</time>
      </trkpt>
      <trkpt lat="40.66282" lon="19.96583">
        <ele>480.79998779297</ele>
        <time>2024-09-27T06:45:16.000Z</time>
      </trkpt>
      <trkpt lat="40.66276" lon="19.96583">
        <ele>480.32000732422</ele>
        <time>2024-09-27T06:45:17.000Z</time>
      </trkpt>
      <trkpt lat="40.66267" lon="19.96585">
        <ele>480.32000732422</ele>
        <time>2024-09-27T06:45:18.000Z</time>
      </trkpt>
      <trkpt lat="40.66261" lon="19.96589">
        <ele>480.32000732422</ele>
        <time>2024-09-27T06:45:19.000Z</time>
      </trkpt>
      <trkpt lat="40.66255" lon="19.96596">
        <ele>480.32000732422</ele>
        <time>2024-09-27T06:45:20.000Z</time>
      </trkpt>
      <trkpt lat="40.66251" lon="19.96607">
        <ele>480.79998779297</ele>
        <time>2024-09-27T06:45:21.000Z</time>
      </trkpt>
      <trkpt lat="40.66244" lon="19.96624">
        <ele>481.2799987793</ele>
        <time>2024-09-27T06:45:22.000Z</time>
      </trkpt>
      <trkpt lat="40.66243" lon="19.96629">
        <ele>481.76000976562</ele>
        <time>2024-09-27T06:45:23.000Z</time>
      </trkpt>
      <trkpt lat="40.66238" lon="19.96641">
        <ele>482.23999023438</ele>
        <time>2024-09-27T06:45:24.000Z</time>
      </trkpt>
      <trkpt lat="40.66234" lon="19.96649">
        <ele>482.7200012207</ele>
        <time>2024-09-27T06:45:25.000Z</time>
      </trkpt>
      <trkpt lat="40.66228" lon="19.96659">
        <ele>483.20001220703</ele>
        <time>2024-09-27T06:45:26.000Z</time>
      </trkpt>
      <trkpt lat="40.66221" lon="19.96666">
        <ele>483.67999267578</ele>
        <time>2024-09-27T06:45:27.000Z</time>
      </trkpt>
      <trkpt lat="40.66214" lon="19.9667">
        <ele>484.64001464844</ele>
        <time>2024-09-27T06:45:28.000Z</time>
      </trkpt>
      <trkpt lat="40.66205" lon="19.96673">
        <ele>486.07998657227</ele>
        <time>2024-09-27T06:45:29.000Z</time>
      </trkpt>
      <trkpt lat="40.66194" lon="19.96675">
        <ele>486.55999755859</ele>
        <time>2024-09-27T06:45:30.000Z</time>
      </trkpt>
      <trkpt lat="40.66188" lon="19.96677">
        <ele>487.04998779297</ele>
        <time>2024-09-27T06:45:31.000Z</time>
      </trkpt>
      <trkpt lat="40.66178" lon="19.9668">
        <ele>487.5299987793</ele>
        <time>2024-09-27T06:45:32.000Z</time>
      </trkpt>
      <trkpt lat="40.6617" lon="19.96685">
        <ele>488.01000976562</ele>
        <time>2024-09-27T06:45:33.000Z</time>
      </trkpt>
      <trkpt lat="40.66164" lon="19.96692">
        <ele>488.48999023438</ele>
        <time>2024-09-27T06:45:34.000Z</time>
      </trkpt>
      <trkpt lat="40.66159" lon="19.96701">
        <ele>489.45001220703</ele>
        <time>2024-09-27T06:45:35.000Z</time>
      </trkpt>
      <trkpt lat="40.66156" lon="19.96711">
        <ele>489.92999267578</ele>
        <time>2024-09-27T06:45:36.000Z</time>
      </trkpt>
      <trkpt lat="40.66156" lon="19.96722">
        <ele>490.89001464844</ele>
        <time>2024-09-27T06:45:37.000Z</time>
      </trkpt>
      <trkpt lat="40.66157" lon="19.96734">
        <ele>491.36999511719</ele>
        <time>2024-09-27T06:45:38.000Z</time>
      </trkpt>
      <trkpt lat="40.66159" lon="19.96747">
        <ele>491.85000610352</ele>
        <time>2024-09-27T06:45:39.000Z</time>
      </trkpt>
      <trkpt lat="40.66167" lon="19.96785">
        <ele>493.29000854492</ele>
        <time>2024-09-27T06:45:42.000Z</time>
      </trkpt>
      <trkpt lat="40.66168" lon="19.96792">
        <ele>493.29000854492</ele>
        <time>2024-09-27T06:45:43.000Z</time>
      </trkpt>
      <trkpt lat="40.66168" lon="19.96801">
        <ele>493.76998901367</ele>
        <time>2024-09-27T06:45:44.000Z</time>
      </trkpt>
      <trkpt lat="40.66167" lon="19.96807">
        <ele>494.26000976562</ele>
        <time>2024-09-27T06:45:45.000Z</time>
      </trkpt>
      <trkpt lat="40.66164" lon="19.96811">
        <ele>494.26000976562</ele>
        <time>2024-09-27T06:45:46.000Z</time>
      </trkpt>
      <trkpt lat="40.6616" lon="19.96812">
        <ele>494.26000976562</ele>
        <time>2024-09-27T06:45:47.000Z</time>
      </trkpt>
      <trkpt lat="40.66155" lon="19.9681">
        <ele>494.73999023438</ele>
        <time>2024-09-27T06:45:48.000Z</time>
      </trkpt>
      <trkpt lat="40.66151" lon="19.96806">
        <ele>494.73999023438</ele>
        <time>2024-09-27T06:45:49.000Z</time>
      </trkpt>
      <trkpt lat="40.66147" lon="19.96799">
        <ele>495.2200012207</ele>
        <time>2024-09-27T06:45:50.000Z</time>
      </trkpt>
      <trkpt lat="40.66144" lon="19.9679">
        <ele>495.70001220703</ele>
        <time>2024-09-27T06:45:51.000Z</time>
      </trkpt>
      <trkpt lat="40.66139" lon="19.96777">
        <ele>496.66000366211</ele>
        <time>2024-09-27T06:45:52.000Z</time>
      </trkpt>
      <trkpt lat="40.66133" lon="19.96764">
        <ele>497.61999511719</ele>
        <time>2024-09-27T06:45:53.000Z</time>
      </trkpt>
      <trkpt lat="40.6613" lon="19.96759">
        <ele>498.10000610352</ele>
        <time>2024-09-27T06:45:54.000Z</time>
      </trkpt>
      <trkpt lat="40.66125" lon="19.9675">
        <ele>498.57998657227</ele>
        <time>2024-09-27T06:45:55.000Z</time>
      </trkpt>
      <trkpt lat="40.6612" lon="19.96744">
        <ele>499.05999755859</ele>
        <time>2024-09-27T06:45:56.000Z</time>
      </trkpt>
      <trkpt lat="40.66113" lon="19.96739">
        <ele>499.54000854492</ele>
        <time>2024-09-27T06:45:57.000Z</time>
      </trkpt>
      <trkpt lat="40.66105" lon="19.96735">
        <ele>499.54000854492</ele>
        <time>2024-09-27T06:45:58.000Z</time>
      </trkpt>
      <trkpt lat="40.66098" lon="19.96733">
        <ele>500.01998901367</ele>
        <time>2024-09-27T06:45:59.000Z</time>
      </trkpt>
      <trkpt lat="40.66084" lon="19.96731">
        <ele>500.5</ele>
        <time>2024-09-27T06:46:00.000Z</time>
      </trkpt>
      <trkpt lat="40.66079" lon="19.96731">
        <ele>500.5</ele>
        <time>2024-09-27T06:46:01.000Z</time>
      </trkpt>
      <trkpt lat="40.66069" lon="19.96733">
        <ele>500.98001098633</ele>
        <time>2024-09-27T06:46:02.000Z</time>
      </trkpt>
      <trkpt lat="40.6606" lon="19.96737">
        <ele>500.98001098633</ele>
        <time>2024-09-27T06:46:03.000Z</time>
      </trkpt>
      <trkpt lat="40.66049" lon="19.96744">
        <ele>501.45999145508</ele>
        <time>2024-09-27T06:46:04.000Z</time>
      </trkpt>
      <trkpt lat="40.66034" lon="19.96752">
        <ele>502.42999267578</ele>
        <time>2024-09-27T06:46:05.000Z</time>
      </trkpt>
      <trkpt lat="40.66023" lon="19.96758">
        <ele>502.91000366211</ele>
        <time>2024-09-27T06:46:07.000Z</time>
      </trkpt>
      <trkpt lat="40.66013" lon="19.96761">
        <ele>503.39001464844</ele>
        <time>2024-09-27T06:46:08.000Z</time>
      </trkpt>
      <trkpt lat="40.66004" lon="19.96762">
        <ele>503.39001464844</ele>
        <time>2024-09-27T06:46:09.000Z</time>
      </trkpt>
      <trkpt lat="40.65992" lon="19.96759">
        <ele>503.86999511719</ele>
        <time>2024-09-27T06:46:10.000Z</time>
      </trkpt>
      <trkpt lat="40.65952" lon="19.96749">
        <ele>505.79000854492</ele>
        <time>2024-09-27T06:46:13.000Z</time>
      </trkpt>
      <trkpt lat="40.65948" lon="19.96747">
        <ele>505.79000854492</ele>
        <time>2024-09-27T06:46:14.000Z</time>
      </trkpt>
      <trkpt lat="40.65935" lon="19.96742">
        <ele>506.26998901367</ele>
        <time>2024-09-27T06:46:15.000Z</time>
      </trkpt>
      <trkpt lat="40.65886" lon="19.96712">
        <ele>506.26998901367</ele>
        <time>2024-09-27T06:46:19.000Z</time>
      </trkpt>
      <trkpt lat="40.65882" lon="19.9671">
        <ele>506.26998901367</ele>
        <time>2024-09-27T06:46:20.000Z</time>
      </trkpt>
      <trkpt lat="40.65873" lon="19.96707">
        <ele>506.26998901367</ele>
        <time>2024-09-27T06:46:21.000Z</time>
      </trkpt>
      <trkpt lat="40.65863" lon="19.96706">
        <ele>506.26998901367</ele>
        <time>2024-09-27T06:46:22.000Z</time>
      </trkpt>
      <trkpt lat="40.65854" lon="19.96708">
        <ele>506.75</ele>
        <time>2024-09-27T06:46:23.000Z</time>
      </trkpt>
      <trkpt lat="40.65845" lon="19.96712">
        <ele>507.23001098633</ele>
        <time>2024-09-27T06:46:24.000Z</time>
      </trkpt>
      <trkpt lat="40.65837" lon="19.96719">
        <ele>507.70999145508</ele>
        <time>2024-09-27T06:46:25.000Z</time>
      </trkpt>
      <trkpt lat="40.65818" lon="19.96741">
        <ele>509.16000366211</ele>
        <time>2024-09-27T06:46:27.000Z</time>
      </trkpt>
      <trkpt lat="40.65815" lon="19.96745">
        <ele>509.16000366211</ele>
        <time>2024-09-27T06:46:28.000Z</time>
      </trkpt>
      <trkpt lat="40.65809" lon="19.96754">
        <ele>509.64001464844</ele>
        <time>2024-09-27T06:46:29.000Z</time>
      </trkpt>
      <trkpt lat="40.65801" lon="19.96763">
        <ele>510.11999511719</ele>
        <time>2024-09-27T06:46:30.000Z</time>
      </trkpt>
      <trkpt lat="40.65796" lon="19.96772">
        <ele>510.60000610352</ele>
        <time>2024-09-27T06:46:31.000Z</time>
      </trkpt>
      <trkpt lat="40.65791" lon="19.96783">
        <ele>511.07998657227</ele>
        <time>2024-09-27T06:46:32.000Z</time>
      </trkpt>
      <trkpt lat="40.65789" lon="19.96793">
        <ele>511.07998657227</ele>
        <time>2024-09-27T06:46:33.000Z</time>
      </trkpt>
      <trkpt lat="40.65787" lon="19.96806">
        <ele>511.55999755859</ele>
        <time>2024-09-27T06:46:34.000Z</time>
      </trkpt>
      <trkpt lat="40.65783" lon="19.96827">
        <ele>512.03997802734</ele>
        <time>2024-09-27T06:46:35.000Z</time>
      </trkpt>
      <trkpt lat="40.65772" lon="19.96878">
        <ele>513.47998046875</ele>
        <time>2024-09-27T06:46:39.000Z</time>
      </trkpt>
      <trkpt lat="40.65769" lon="19.96888">
        <ele>513.47998046875</ele>
        <time>2024-09-27T06:46:40.000Z</time>
      </trkpt>
      <trkpt lat="40.65765" lon="19.96899">
        <ele>513.96002197266</ele>
        <time>2024-09-27T06:46:41.000Z</time>
      </trkpt>
      <trkpt lat="40.65759" lon="19.96908">
        <ele>513.96002197266</ele>
        <time>2024-09-27T06:46:42.000Z</time>
      </trkpt>
      <trkpt lat="40.65753" lon="19.96914">
        <ele>514.44000244141</ele>
        <time>2024-09-27T06:46:43.000Z</time>
      </trkpt>
      <trkpt lat="40.65745" lon="19.96919">
        <ele>514.91998291016</ele>
        <time>2024-09-27T06:46:44.000Z</time>
      </trkpt>
      <trkpt lat="40.65736" lon="19.96921">
        <ele>514.91998291016</ele>
        <time>2024-09-27T06:46:45.000Z</time>
      </trkpt>
      <trkpt lat="40.65719" lon="19.96924">
        <ele>514.91998291016</ele>
        <time>2024-09-27T06:46:46.000Z</time>
      </trkpt>
      <trkpt lat="40.65706" lon="19.96925">
        <ele>514.44000244141</ele>
        <time>2024-09-27T06:46:47.000Z</time>
      </trkpt>
      <trkpt lat="40.65704" lon="19.96925">
        <ele>514.44000244141</ele>
        <time>2024-09-27T06:46:48.000Z</time>
      </trkpt>
      <trkpt lat="40.65693" lon="19.96928">
        <ele>514.44000244141</ele>
        <time>2024-09-27T06:46:49.000Z</time>
      </trkpt>
      <trkpt lat="40.6567" lon="19.96937">
        <ele>514.44000244141</ele>
        <time>2024-09-27T06:46:51.000Z</time>
      </trkpt>
      <trkpt lat="40.65611" lon="19.96958">
        <ele>515.88000488281</ele>
        <time>2024-09-27T06:46:55.000Z</time>
      </trkpt>
      <trkpt lat="40.65598" lon="19.96963">
        <ele>516.84997558594</ele>
        <time>2024-09-27T06:46:57.000Z</time>
      </trkpt>
      <trkpt lat="40.65591" lon="19.96966">
        <ele>517.33001708984</ele>
        <time>2024-09-27T06:46:58.000Z</time>
      </trkpt>
      <trkpt lat="40.65583" lon="19.96966">
        <ele>518.28997802734</ele>
        <time>2024-09-27T06:46:59.000Z</time>
      </trkpt>
      <trkpt lat="40.65576" lon="19.96962">
        <ele>518.77001953125</ele>
        <time>2024-09-27T06:47:00.000Z</time>
      </trkpt>
      <trkpt lat="40.6557" lon="19.96956">
        <ele>519.72998046875</ele>
        <time>2024-09-27T06:47:01.000Z</time>
      </trkpt>
      <trkpt lat="40.65561" lon="19.96941">
        <ele>520.69000244141</ele>
        <time>2024-09-27T06:47:02.000Z</time>
      </trkpt>
      <trkpt lat="40.65558" lon="19.96938">
        <ele>520.69000244141</ele>
        <time>2024-09-27T06:47:03.000Z</time>
      </trkpt>
      <trkpt lat="40.6555" lon="19.96928">
        <ele>520.69000244141</ele>
        <time>2024-09-27T06:47:04.000Z</time>
      </trkpt>
      <trkpt lat="40.65542" lon="19.9692">
        <ele>521.16998291016</ele>
        <time>2024-09-27T06:47:05.000Z</time>
      </trkpt>
      <trkpt lat="40.65533" lon="19.96914">
        <ele>521.65002441406</ele>
        <time>2024-09-27T06:47:06.000Z</time>
      </trkpt>
      <trkpt lat="40.65524" lon="19.96909">
        <ele>521.65002441406</ele>
        <time>2024-09-27T06:47:07.000Z</time>
      </trkpt>
      <trkpt lat="40.65511" lon="19.96903">
        <ele>522.13000488281</ele>
        <time>2024-09-27T06:47:08.000Z</time>
      </trkpt>
      <trkpt lat="40.65503" lon="19.969">
        <ele>522.60998535156</ele>
        <time>2024-09-27T06:47:09.000Z</time>
      </trkpt>
      <trkpt lat="40.65492" lon="19.96897">
        <ele>522.60998535156</ele>
        <time>2024-09-27T06:47:10.000Z</time>
      </trkpt>
      <trkpt lat="40.65481" lon="19.96898">
        <ele>523.58001708984</ele>
        <time>2024-09-27T06:47:11.000Z</time>
      </trkpt>
      <trkpt lat="40.65471" lon="19.969">
        <ele>524.53997802734</ele>
        <time>2024-09-27T06:47:12.000Z</time>
      </trkpt>
      <trkpt lat="40.65434" lon="19.96921">
        <ele>527.41998291016</ele>
        <time>2024-09-27T06:47:15.000Z</time>
      </trkpt>
      <trkpt lat="40.65419" lon="19.9693">
        <ele>528.38000488281</ele>
        <time>2024-09-27T06:47:17.000Z</time>
      </trkpt>
      <trkpt lat="40.65365" lon="19.96955">
        <ele>531.27001953125</ele>
        <time>2024-09-27T06:47:22.000Z</time>
      </trkpt>
      <trkpt lat="40.6533" lon="19.96975">
        <ele>533.19000244141</ele>
        <time>2024-09-27T06:47:25.000Z</time>
      </trkpt>
      <trkpt lat="40.65286" lon="19.96999">
        <ele>536.07000732422</ele>
        <time>2024-09-27T06:47:29.000Z</time>
      </trkpt>
      <trkpt lat="40.6528" lon="19.97002">
        <ele>536.54998779297</ele>
        <time>2024-09-27T06:47:30.000Z</time>
      </trkpt>
      <trkpt lat="40.65263" lon="19.9701">
        <ele>537.98999023438</ele>
        <time>2024-09-27T06:47:31.000Z</time>
      </trkpt>
      <trkpt lat="40.65252" lon="19.97015">
        <ele>539.44000244141</ele>
        <time>2024-09-27T06:47:32.000Z</time>
      </trkpt>
      <trkpt lat="40.65249" lon="19.97017">
        <ele>539.44000244141</ele>
        <time>2024-09-27T06:47:33.000Z</time>
      </trkpt>
      <trkpt lat="40.6522" lon="19.97033">
        <ele>542.79998779297</ele>
        <time>2024-09-27T06:47:36.000Z</time>
      </trkpt>
      <trkpt lat="40.65209" lon="19.97041">
        <ele>544.23999023438</ele>
        <time>2024-09-27T06:47:37.000Z</time>
      </trkpt>
      <trkpt lat="40.652" lon="19.97046">
        <ele>545.20001220703</ele>
        <time>2024-09-27T06:47:38.000Z</time>
      </trkpt>
      <trkpt lat="40.65181" lon="19.97056">
        <ele>548.09002685547</ele>
        <time>2024-09-27T06:47:39.000Z</time>
      </trkpt>
      <trkpt lat="40.65177" lon="19.97058">
        <ele>548.57000732422</ele>
        <time>2024-09-27T06:47:40.000Z</time>
      </trkpt>
      <trkpt lat="40.6517" lon="19.97061">
        <ele>549.53002929688</ele>
        <time>2024-09-27T06:47:41.000Z</time>
      </trkpt>
      <trkpt lat="40.65162" lon="19.97062">
        <ele>550.48999023438</ele>
        <time>2024-09-27T06:47:42.000Z</time>
      </trkpt>
      <trkpt lat="40.65153" lon="19.97061">
        <ele>551.45001220703</ele>
        <time>2024-09-27T06:47:43.000Z</time>
      </trkpt>
      <trkpt lat="40.65143" lon="19.97056">
        <ele>552.40997314453</ele>
        <time>2024-09-27T06:47:44.000Z</time>
      </trkpt>
      <trkpt lat="40.65135" lon="19.97053">
        <ele>552.40997314453</ele>
        <time>2024-09-27T06:47:45.000Z</time>
      </trkpt>
      <trkpt lat="40.65126" lon="19.9705">
        <ele>553.38000488281</ele>
        <time>2024-09-27T06:47:46.000Z</time>
      </trkpt>
      <trkpt lat="40.65104" lon="19.97045">
        <ele>554.82000732422</ele>
        <time>2024-09-27T06:47:48.000Z</time>
      </trkpt>
      <trkpt lat="40.65097" lon="19.97044">
        <ele>555.29998779297</ele>
        <time>2024-09-27T06:47:49.000Z</time>
      </trkpt>
      <trkpt lat="40.65089" lon="19.97045">
        <ele>555.78002929688</ele>
        <time>2024-09-27T06:47:50.000Z</time>
      </trkpt>
      <trkpt lat="40.6508" lon="19.97048">
        <ele>557.21997070312</ele>
        <time>2024-09-27T06:47:51.000Z</time>
      </trkpt>
      <trkpt lat="40.65073" lon="19.97052">
        <ele>557.70001220703</ele>
        <time>2024-09-27T06:47:52.000Z</time>
      </trkpt>
      <trkpt lat="40.65066" lon="19.97058">
        <ele>558.17999267578</ele>
        <time>2024-09-27T06:47:53.000Z</time>
      </trkpt>
      <trkpt lat="40.65057" lon="19.97068">
        <ele>558.65997314453</ele>
        <time>2024-09-27T06:47:54.000Z</time>
      </trkpt>
      <trkpt lat="40.65053" lon="19.97073">
        <ele>559.14001464844</ele>
        <time>2024-09-27T06:47:55.000Z</time>
      </trkpt>
      <trkpt lat="40.65037" lon="19.97099">
        <ele>560.59002685547</ele>
        <time>2024-09-27T06:47:57.000Z</time>
      </trkpt>
      <trkpt lat="40.65033" lon="19.97107">
        <ele>561.07000732422</ele>
        <time>2024-09-27T06:47:58.000Z</time>
      </trkpt>
      <trkpt lat="40.65029" lon="19.97112">
        <ele>561.54998779297</ele>
        <time>2024-09-27T06:47:59.000Z</time>
      </trkpt>
      <trkpt lat="40.65023" lon="19.9712">
        <ele>562.03002929688</ele>
        <time>2024-09-27T06:48:00.000Z</time>
      </trkpt>
      <trkpt lat="40.65015" lon="19.97127">
        <ele>562.51000976562</ele>
        <time>2024-09-27T06:48:01.000Z</time>
      </trkpt>
      <trkpt lat="40.65007" lon="19.97129">
        <ele>562.98999023438</ele>
        <time>2024-09-27T06:48:02.000Z</time>
      </trkpt>
      <trkpt lat="40.64999" lon="19.97128">
        <ele>562.98999023438</ele>
        <time>2024-09-27T06:48:03.000Z</time>
      </trkpt>
      <trkpt lat="40.64992" lon="19.97124">
        <ele>563.95001220703</ele>
        <time>2024-09-27T06:48:04.000Z</time>
      </trkpt>
      <trkpt lat="40.64986" lon="19.97116">
        <ele>564.42999267578</ele>
        <time>2024-09-27T06:48:05.000Z</time>
      </trkpt>
      <trkpt lat="40.6498" lon="19.97107">
        <ele>564.90997314453</ele>
        <time>2024-09-27T06:48:06.000Z</time>
      </trkpt>
      <trkpt lat="40.64973" lon="19.97099">
        <ele>565.39001464844</ele>
        <time>2024-09-27T06:48:07.000Z</time>
      </trkpt>
      <trkpt lat="40.64963" lon="19.97092">
        <ele>565.86999511719</ele>
        <time>2024-09-27T06:48:08.000Z</time>
      </trkpt>
      <trkpt lat="40.64949" lon="19.97083">
        <ele>566.34997558594</ele>
        <time>2024-09-27T06:48:09.000Z</time>
      </trkpt>
      <trkpt lat="40.64942" lon="19.97081">
        <ele>566.34997558594</ele>
        <time>2024-09-27T06:48:10.000Z</time>
      </trkpt>
      <trkpt lat="40.64938" lon="19.97079">
        <ele>566.34997558594</ele>
        <time>2024-09-27T06:48:11.000Z</time>
      </trkpt>
      <trkpt lat="40.64928" lon="19.97076">
        <ele>566.83001708984</ele>
        <time>2024-09-27T06:48:12.000Z</time>
      </trkpt>
      <trkpt lat="40.64919" lon="19.97075">
        <ele>567.32000732422</ele>
        <time>2024-09-27T06:48:13.000Z</time>
      </trkpt>
      <trkpt lat="40.64891" lon="19.97072">
        <ele>569.23999023438</ele>
        <time>2024-09-27T06:48:16.000Z</time>
      </trkpt>
      <trkpt lat="40.64882" lon="19.97071">
        <ele>569.71997070312</ele>
        <time>2024-09-27T06:48:17.000Z</time>
      </trkpt>
      <trkpt lat="40.64852" lon="19.97063">
        <ele>572.11999511719</ele>
        <time>2024-09-27T06:48:20.000Z</time>
      </trkpt>
      <trkpt lat="40.64849" lon="19.97062">
        <ele>572.11999511719</ele>
        <time>2024-09-27T06:48:21.000Z</time>
      </trkpt>
      <trkpt lat="40.64824" lon="19.97056">
        <ele>574.03997802734</ele>
        <time>2024-09-27T06:48:23.000Z</time>
      </trkpt>
      <trkpt lat="40.6482" lon="19.97054">
        <ele>574.53002929688</ele>
        <time>2024-09-27T06:48:24.000Z</time>
      </trkpt>
      <trkpt lat="40.64812" lon="19.97051">
        <ele>575.01000976562</ele>
        <time>2024-09-27T06:48:25.000Z</time>
      </trkpt>
      <trkpt lat="40.64804" lon="19.97047">
        <ele>575.96997070312</ele>
        <time>2024-09-27T06:48:26.000Z</time>
      </trkpt>
      <trkpt lat="40.64796" lon="19.97044">
        <ele>575.96997070312</ele>
        <time>2024-09-27T06:48:27.000Z</time>
      </trkpt>
      <trkpt lat="40.64786" lon="19.97042">
        <ele>576.92999267578</ele>
        <time>2024-09-27T06:48:28.000Z</time>
      </trkpt>
      <trkpt lat="40.64765" lon="19.97041">
        <ele>577.89001464844</ele>
        <time>2024-09-27T06:48:30.000Z</time>
      </trkpt>
      <trkpt lat="40.64748" lon="19.9704">
        <ele>579.33001708984</ele>
        <time>2024-09-27T06:48:32.000Z</time>
      </trkpt>
      <trkpt lat="40.64735" lon="19.97039">
        <ele>579.80999755859</ele>
        <time>2024-09-27T06:48:33.000Z</time>
      </trkpt>
      <trkpt lat="40.6473" lon="19.97039">
        <ele>580.28997802734</ele>
        <time>2024-09-27T06:48:34.000Z</time>
      </trkpt>
      <trkpt lat="40.6472" lon="19.9704">
        <ele>580.77001953125</ele>
        <time>2024-09-27T06:48:35.000Z</time>
      </trkpt>
      <trkpt lat="40.64711" lon="19.97043">
        <ele>581.72998046875</ele>
        <time>2024-09-27T06:48:36.000Z</time>
      </trkpt>
      <trkpt lat="40.64699" lon="19.97049">
        <ele>583.17999267578</ele>
        <time>2024-09-27T06:48:37.000Z</time>
      </trkpt>
      <trkpt lat="40.64691" lon="19.97055">
        <ele>584.14001464844</ele>
        <time>2024-09-27T06:48:38.000Z</time>
      </trkpt>
      <trkpt lat="40.64682" lon="19.97062">
        <ele>585.09997558594</ele>
        <time>2024-09-27T06:48:39.000Z</time>
      </trkpt>
      <trkpt lat="40.64676" lon="19.97066">
        <ele>585.58001708984</ele>
        <time>2024-09-27T06:48:40.000Z</time>
      </trkpt>
      <trkpt lat="40.64665" lon="19.97072">
        <ele>586.53997802734</ele>
        <time>2024-09-27T06:48:41.000Z</time>
      </trkpt>
      <trkpt lat="40.6464" lon="19.97079">
        <ele>589.42999267578</ele>
        <time>2024-09-27T06:48:43.000Z</time>
      </trkpt>
      <trkpt lat="40.64638" lon="19.97079">
        <ele>589.42999267578</ele>
        <time>2024-09-27T06:48:44.000Z</time>
      </trkpt>
      <trkpt lat="40.64627" lon="19.9708">
        <ele>590.39001464844</ele>
        <time>2024-09-27T06:48:45.000Z</time>
      </trkpt>
      <trkpt lat="40.64604" lon="19.97078">
        <ele>592.30999755859</ele>
        <time>2024-09-27T06:48:47.000Z</time>
      </trkpt>
      <trkpt lat="40.64597" lon="19.97077">
        <ele>592.78997802734</ele>
        <time>2024-09-27T06:48:48.000Z</time>
      </trkpt>
      <trkpt lat="40.64589" lon="19.97077">
        <ele>593.75</ele>
        <time>2024-09-27T06:48:49.000Z</time>
      </trkpt>
      <trkpt lat="40.64581" lon="19.97078">
        <ele>594.71002197266</ele>
        <time>2024-09-27T06:48:50.000Z</time>
      </trkpt>
      <trkpt lat="40.64572" lon="19.97082">
        <ele>595.66998291016</ele>
        <time>2024-09-27T06:48:51.000Z</time>
      </trkpt>
      <trkpt lat="40.64562" lon="19.97087">
        <ele>597.11999511719</ele>
        <time>2024-09-27T06:48:52.000Z</time>
      </trkpt>
      <trkpt lat="40.64554" lon="19.97094">
        <ele>598.08001708984</ele>
        <time>2024-09-27T06:48:53.000Z</time>
      </trkpt>
      <trkpt lat="40.64548" lon="19.97101">
        <ele>599.52001953125</ele>
        <time>2024-09-27T06:48:54.000Z</time>
      </trkpt>
      <trkpt lat="40.64541" lon="19.97112">
        <ele>600.96002197266</ele>
        <time>2024-09-27T06:48:55.000Z</time>
      </trkpt>
      <trkpt lat="40.64534" lon="19.97123">
        <ele>602.40002441406</ele>
        <time>2024-09-27T06:48:56.000Z</time>
      </trkpt>
      <trkpt lat="40.6453" lon="19.9713">
        <ele>602.88000488281</ele>
        <time>2024-09-27T06:48:57.000Z</time>
      </trkpt>
      <trkpt lat="40.64528" lon="19.97138">
        <ele>603.84997558594</ele>
        <time>2024-09-27T06:48:58.000Z</time>
      </trkpt>
      <trkpt lat="40.64528" lon="19.97148">
        <ele>604.33001708984</ele>
        <time>2024-09-27T06:48:59.000Z</time>
      </trkpt>
      <trkpt lat="40.64529" lon="19.97157">
        <ele>605.77001953125</ele>
        <time>2024-09-27T06:49:00.000Z</time>
      </trkpt>
      <trkpt lat="40.64533" lon="19.97173">
        <ele>607.21002197266</ele>
        <time>2024-09-27T06:49:01.000Z</time>
      </trkpt>
      <trkpt lat="40.64535" lon="19.9718">
        <ele>607.69000244141</ele>
        <time>2024-09-27T06:49:02.000Z</time>
      </trkpt>
      <trkpt lat="40.64543" lon="19.97201">
        <ele>609.13000488281</ele>
        <time>2024-09-27T06:49:04.000Z</time>
      </trkpt>
      <trkpt lat="40.64545" lon="19.97208">
        <ele>609.60998535156</ele>
        <time>2024-09-27T06:49:05.000Z</time>
      </trkpt>
      <trkpt lat="40.64546" lon="19.97217">
        <ele>610.09002685547</ele>
        <time>2024-09-27T06:49:06.000Z</time>
      </trkpt>
      <trkpt lat="40.64544" lon="19.97225">
        <ele>611.05999755859</ele>
        <time>2024-09-27T06:49:07.000Z</time>
      </trkpt>
      <trkpt lat="40.6454" lon="19.97231">
        <ele>611.53997802734</ele>
        <time>2024-09-27T06:49:08.000Z</time>
      </trkpt>
      <trkpt lat="40.64534" lon="19.97237">
        <ele>612.5</ele>
        <time>2024-09-27T06:49:09.000Z</time>
      </trkpt>
      <trkpt lat="40.64519" lon="19.97252">
        <ele>612.97998046875</ele>
        <time>2024-09-27T06:49:11.000Z</time>
      </trkpt>
      <trkpt lat="40.64512" lon="19.97259">
        <ele>613.46002197266</ele>
        <time>2024-09-27T06:49:12.000Z</time>
      </trkpt>
      <trkpt lat="40.64506" lon="19.97266">
        <ele>613.46002197266</ele>
        <time>2024-09-27T06:49:13.000Z</time>
      </trkpt>
      <trkpt lat="40.64491" lon="19.97288">
        <ele>613.94000244141</ele>
        <time>2024-09-27T06:49:15.000Z</time>
      </trkpt>
      <trkpt lat="40.64488" lon="19.97293">
        <ele>614.41998291016</ele>
        <time>2024-09-27T06:49:16.000Z</time>
      </trkpt>
      <trkpt lat="40.64483" lon="19.97299">
        <ele>614.41998291016</ele>
        <time>2024-09-27T06:49:17.000Z</time>
      </trkpt>
      <trkpt lat="40.64477" lon="19.97305">
        <ele>614.90002441406</ele>
        <time>2024-09-27T06:49:18.000Z</time>
      </trkpt>
      <trkpt lat="40.64466" lon="19.9731">
        <ele>614.90002441406</ele>
        <time>2024-09-27T06:49:19.000Z</time>
      </trkpt>
      <trkpt lat="40.64456" lon="19.97314">
        <ele>614.41998291016</ele>
        <time>2024-09-27T06:49:20.000Z</time>
      </trkpt>
      <trkpt lat="40.6445" lon="19.97317">
        <ele>613.94000244141</ele>
        <time>2024-09-27T06:49:21.000Z</time>
      </trkpt>
      <trkpt lat="40.64442" lon="19.97321">
        <ele>613.46002197266</ele>
        <time>2024-09-27T06:49:22.000Z</time>
      </trkpt>
      <trkpt lat="40.64435" lon="19.97325">
        <ele>612.97998046875</ele>
        <time>2024-09-27T06:49:23.000Z</time>
      </trkpt>
      <trkpt lat="40.64423" lon="19.97335">
        <ele>612.5</ele>
        <time>2024-09-27T06:49:24.000Z</time>
      </trkpt>
      <trkpt lat="40.64418" lon="19.97339">
        <ele>612.02001953125</ele>
        <time>2024-09-27T06:49:25.000Z</time>
      </trkpt>
      <trkpt lat="40.64413" lon="19.97345">
        <ele>611.53997802734</ele>
        <time>2024-09-27T06:49:26.000Z</time>
      </trkpt>
      <trkpt lat="40.64408" lon="19.97353">
        <ele>611.05999755859</ele>
        <time>2024-09-27T06:49:27.000Z</time>
      </trkpt>
      <trkpt lat="40.64402" lon="19.97365">
        <ele>611.05999755859</ele>
        <time>2024-09-27T06:49:28.000Z</time>
      </trkpt>
      <trkpt lat="40.64399" lon="19.97371">
        <ele>610.57000732422</ele>
        <time>2024-09-27T06:49:29.000Z</time>
      </trkpt>
      <trkpt lat="40.6439" lon="19.97386">
        <ele>609.13000488281</ele>
        <time>2024-09-27T06:49:30.000Z</time>
      </trkpt>
      <trkpt lat="40.64381" lon="19.97397">
        <ele>607.69000244141</ele>
        <time>2024-09-27T06:49:32.000Z</time>
      </trkpt>
      <trkpt lat="40.64372" lon="19.97407">
        <ele>606.25</ele>
        <time>2024-09-27T06:49:33.000Z</time>
      </trkpt>
      <trkpt lat="40.64369" lon="19.9741">
        <ele>605.77001953125</ele>
        <time>2024-09-27T06:49:34.000Z</time>
      </trkpt>
      <trkpt lat="40.64365" lon="19.97417">
        <ele>604.33001708984</ele>
        <time>2024-09-27T06:49:35.000Z</time>
      </trkpt>
      <trkpt lat="40.64363" lon="19.97423">
        <ele>603.84997558594</ele>
        <time>2024-09-27T06:49:36.000Z</time>
      </trkpt>
      <trkpt lat="40.64364" lon="19.9743">
        <ele>602.88000488281</ele>
        <time>2024-09-27T06:49:37.000Z</time>
      </trkpt>
      <trkpt lat="40.64367" lon="19.97436">
        <ele>601.91998291016</ele>
        <time>2024-09-27T06:49:38.000Z</time>
      </trkpt>
      <trkpt lat="40.64372" lon="19.97442">
        <ele>601.44000244141</ele>
        <time>2024-09-27T06:49:39.000Z</time>
      </trkpt>
      <trkpt lat="40.64377" lon="19.97448">
        <ele>600.47998046875</ele>
        <time>2024-09-27T06:49:40.000Z</time>
      </trkpt>
      <trkpt lat="40.64381" lon="19.97453">
        <ele>600</ele>
        <time>2024-09-27T06:49:41.000Z</time>
      </trkpt>
      <trkpt lat="40.64387" lon="19.9746">
        <ele>599.03997802734</ele>
        <time>2024-09-27T06:49:42.000Z</time>
      </trkpt>
      <trkpt lat="40.64391" lon="19.97464">
        <ele>598.55999755859</ele>
        <time>2024-09-27T06:49:43.000Z</time>
      </trkpt>
      <trkpt lat="40.64396" lon="19.97471">
        <ele>597.59997558594</ele>
        <time>2024-09-27T06:49:44.000Z</time>
      </trkpt>
      <trkpt lat="40.64399" lon="19.97479">
        <ele>597.11999511719</ele>
        <time>2024-09-27T06:49:45.000Z</time>
      </trkpt>
      <trkpt lat="40.64401" lon="19.97487">
        <ele>596.64001464844</ele>
        <time>2024-09-27T06:49:46.000Z</time>
      </trkpt>
      <trkpt lat="40.64402" lon="19.97496">
        <ele>596.15002441406</ele>
        <time>2024-09-27T06:49:47.000Z</time>
      </trkpt>
      <trkpt lat="40.64403" lon="19.97503">
        <ele>595.66998291016</ele>
        <time>2024-09-27T06:49:48.000Z</time>
      </trkpt>
      <trkpt lat="40.64402" lon="19.97513">
        <ele>595.19000244141</ele>
        <time>2024-09-27T06:49:49.000Z</time>
      </trkpt>
      <trkpt lat="40.644" lon="19.97521">
        <ele>594.71002197266</ele>
        <time>2024-09-27T06:49:50.000Z</time>
      </trkpt>
      <trkpt lat="40.64397" lon="19.97529">
        <ele>594.22998046875</ele>
        <time>2024-09-27T06:49:51.000Z</time>
      </trkpt>
      <trkpt lat="40.6439" lon="19.97549">
        <ele>593.75</ele>
        <time>2024-09-27T06:49:53.000Z</time>
      </trkpt>
      <trkpt lat="40.64387" lon="19.97555">
        <ele>593.27001953125</ele>
        <time>2024-09-27T06:49:54.000Z</time>
      </trkpt>
      <trkpt lat="40.64384" lon="19.97561">
        <ele>593.27001953125</ele>
        <time>2024-09-27T06:49:55.000Z</time>
      </trkpt>
      <trkpt lat="40.64379" lon="19.97568">
        <ele>592.78997802734</ele>
        <time>2024-09-27T06:49:56.000Z</time>
      </trkpt>
      <trkpt lat="40.64365" lon="19.97585">
        <ele>592.30999755859</ele>
        <time>2024-09-27T06:49:58.000Z</time>
      </trkpt>
      <trkpt lat="40.64361" lon="19.97589">
        <ele>591.83001708984</ele>
        <time>2024-09-27T06:49:59.000Z</time>
      </trkpt>
      <trkpt lat="40.64355" lon="19.97595">
        <ele>591.83001708984</ele>
        <time>2024-09-27T06:50:00.000Z</time>
      </trkpt>
      <trkpt lat="40.64352" lon="19.97599">
        <ele>591.34997558594</ele>
        <time>2024-09-27T06:50:01.000Z</time>
      </trkpt>
      <trkpt lat="40.64348" lon="19.97604">
        <ele>591.34997558594</ele>
        <time>2024-09-27T06:50:02.000Z</time>
      </trkpt>
      <trkpt lat="40.64344" lon="19.97608">
        <ele>591.34997558594</ele>
        <time>2024-09-27T06:50:03.000Z</time>
      </trkpt>
      <trkpt lat="40.64339" lon="19.97613">
        <ele>591.34997558594</ele>
        <time>2024-09-27T06:50:04.000Z</time>
      </trkpt>
      <trkpt lat="40.64329" lon="19.97623">
        <ele>590.86999511719</ele>
        <time>2024-09-27T06:50:06.000Z</time>
      </trkpt>
      <trkpt lat="40.64324" lon="19.97626">
        <ele>590.39001464844</ele>
        <time>2024-09-27T06:50:07.000Z</time>
      </trkpt>
      <trkpt lat="40.64321" lon="19.97629">
        <ele>590.39001464844</ele>
        <time>2024-09-27T06:50:08.000Z</time>
      </trkpt>
      <trkpt lat="40.64318" lon="19.97632">
        <ele>589.90997314453</ele>
        <time>2024-09-27T06:50:09.000Z</time>
      </trkpt>
      <trkpt lat="40.64314" lon="19.97635">
        <ele>589.42999267578</ele>
        <time>2024-09-27T06:50:10.000Z</time>
      </trkpt>
      <trkpt lat="40.64309" lon="19.97639">
        <ele>588.95001220703</ele>
        <time>2024-09-27T06:50:11.000Z</time>
      </trkpt>
      <trkpt lat="40.643" lon="19.97647">
        <ele>587.97998046875</ele>
        <time>2024-09-27T06:50:13.000Z</time>
      </trkpt>
      <trkpt lat="40.64296" lon="19.9765">
        <ele>587.5</ele>
        <time>2024-09-27T06:50:14.000Z</time>
      </trkpt>
      <trkpt lat="40.64286" lon="19.97659">
        <ele>587.02001953125</ele>
        <time>2024-09-27T06:50:17.000Z</time>
      </trkpt>
      <trkpt lat="40.64278" lon="19.97665">
        <ele>586.53997802734</ele>
        <time>2024-09-27T06:50:18.000Z</time>
      </trkpt>
      <trkpt lat="40.64276" lon="19.97666">
        <ele>586.53997802734</ele>
        <time>2024-09-27T06:50:19.000Z</time>
      </trkpt>
      <trkpt lat="40.64271" lon="19.97671">
        <ele>586.05999755859</ele>
        <time>2024-09-27T06:50:20.000Z</time>
      </trkpt>
      <trkpt lat="40.64267" lon="19.97674">
        <ele>585.58001708984</ele>
        <time>2024-09-27T06:50:21.000Z</time>
      </trkpt>
      <trkpt lat="40.64262" lon="19.97679">
        <ele>585.58001708984</ele>
        <time>2024-09-27T06:50:22.000Z</time>
      </trkpt>
      <trkpt lat="40.64255" lon="19.97688">
        <ele>584.61999511719</ele>
        <time>2024-09-27T06:50:23.000Z</time>
      </trkpt>
      <trkpt lat="40.64253" lon="19.9769">
        <ele>584.61999511719</ele>
        <time>2024-09-27T06:50:24.000Z</time>
      </trkpt>
      <trkpt lat="40.64247" lon="19.97697">
        <ele>583.65997314453</ele>
        <time>2024-09-27T06:50:25.000Z</time>
      </trkpt>
      <trkpt lat="40.64236" lon="19.97707">
        <ele>582.70001220703</ele>
        <time>2024-09-27T06:50:27.000Z</time>
      </trkpt>
      <trkpt lat="40.64232" lon="19.97711">
        <ele>582.70001220703</ele>
        <time>2024-09-27T06:50:28.000Z</time>
      </trkpt>
      <trkpt lat="40.64221" lon="19.97718">
        <ele>581.72998046875</ele>
        <time>2024-09-27T06:50:29.000Z</time>
      </trkpt>
      <trkpt lat="40.64205" lon="19.97728">
        <ele>580.77001953125</ele>
        <time>2024-09-27T06:50:32.000Z</time>
      </trkpt>
      <trkpt lat="40.64159" lon="19.97756">
        <ele>578.84997558594</ele>
        <time>2024-09-27T06:50:39.000Z</time>
      </trkpt>
      <trkpt lat="40.64153" lon="19.97759">
        <ele>578.84997558594</ele>
        <time>2024-09-27T06:50:40.000Z</time>
      </trkpt>
      <trkpt lat="40.64134" lon="19.97764">
        <ele>578.36999511719</ele>
        <time>2024-09-27T06:50:42.000Z</time>
      </trkpt>
      <trkpt lat="40.64129" lon="19.97766">
        <ele>578.36999511719</ele>
        <time>2024-09-27T06:50:43.000Z</time>
      </trkpt>
      <trkpt lat="40.64122" lon="19.97768">
        <ele>578.36999511719</ele>
        <time>2024-09-27T06:50:44.000Z</time>
      </trkpt>
      <trkpt lat="40.64115" lon="19.97771">
        <ele>578.36999511719</ele>
        <time>2024-09-27T06:50:45.000Z</time>
      </trkpt>
      <trkpt lat="40.64107" lon="19.97775">
        <ele>578.36999511719</ele>
        <time>2024-09-27T06:50:46.000Z</time>
      </trkpt>
      <trkpt lat="40.641" lon="19.97781">
        <ele>578.36999511719</ele>
        <time>2024-09-27T06:50:47.000Z</time>
      </trkpt>
      <trkpt lat="40.64092" lon="19.97788">
        <ele>578.84997558594</ele>
        <time>2024-09-27T06:50:48.000Z</time>
      </trkpt>
      <trkpt lat="40.64085" lon="19.97797">
        <ele>579.33001708984</ele>
        <time>2024-09-27T06:50:49.000Z</time>
      </trkpt>
      <trkpt lat="40.64079" lon="19.97804">
        <ele>579.33001708984</ele>
        <time>2024-09-27T06:50:50.000Z</time>
      </trkpt>
      <trkpt lat="40.6407" lon="19.97816">
        <ele>579.33001708984</ele>
        <time>2024-09-27T06:50:51.000Z</time>
      </trkpt>
      <trkpt lat="40.64064" lon="19.97824">
        <ele>579.80999755859</ele>
        <time>2024-09-27T06:50:52.000Z</time>
      </trkpt>
      <trkpt lat="40.64062" lon="19.97826">
        <ele>579.80999755859</ele>
        <time>2024-09-27T06:50:53.000Z</time>
      </trkpt>
      <trkpt lat="40.64055" lon="19.97834">
        <ele>579.33001708984</ele>
        <time>2024-09-27T06:50:54.000Z</time>
      </trkpt>
      <trkpt lat="40.64045" lon="19.97845">
        <ele>579.33001708984</ele>
        <time>2024-09-27T06:50:55.000Z</time>
      </trkpt>
      <trkpt lat="40.64043" lon="19.97848">
        <ele>579.33001708984</ele>
        <time>2024-09-27T06:50:56.000Z</time>
      </trkpt>
      <trkpt lat="40.64037" lon="19.97855">
        <ele>578.84997558594</ele>
        <time>2024-09-27T06:50:57.000Z</time>
      </trkpt>
      <trkpt lat="40.64025" lon="19.97877">
        <ele>578.36999511719</ele>
        <time>2024-09-27T06:50:59.000Z</time>
      </trkpt>
      <trkpt lat="40.6402" lon="19.97886">
        <ele>578.36999511719</ele>
        <time>2024-09-27T06:51:00.000Z</time>
      </trkpt>
      <trkpt lat="40.64017" lon="19.97894">
        <ele>578.36999511719</ele>
        <time>2024-09-27T06:51:01.000Z</time>
      </trkpt>
      <trkpt lat="40.64014" lon="19.97902">
        <ele>578.36999511719</ele>
        <time>2024-09-27T06:51:02.000Z</time>
      </trkpt>
      <trkpt lat="40.64009" lon="19.97917">
        <ele>578.36999511719</ele>
        <time>2024-09-27T06:51:03.000Z</time>
      </trkpt>
      <trkpt lat="40.64007" lon="19.97924">
        <ele>578.36999511719</ele>
        <time>2024-09-27T06:51:04.000Z</time>
      </trkpt>
      <trkpt lat="40.64005" lon="19.9793">
        <ele>578.36999511719</ele>
        <time>2024-09-27T06:51:05.000Z</time>
      </trkpt>
      <trkpt lat="40.64" lon="19.97942">
        <ele>578.84997558594</ele>
        <time>2024-09-27T06:51:06.000Z</time>
      </trkpt>
      <trkpt lat="40.63997" lon="19.97949">
        <ele>578.84997558594</ele>
        <time>2024-09-27T06:51:07.000Z</time>
      </trkpt>
      <trkpt lat="40.63994" lon="19.97959">
        <ele>578.84997558594</ele>
        <time>2024-09-27T06:51:08.000Z</time>
      </trkpt>
      <trkpt lat="40.6399" lon="19.97974">
        <ele>579.80999755859</ele>
        <time>2024-09-27T06:51:09.000Z</time>
      </trkpt>
      <trkpt lat="40.63987" lon="19.97984">
        <ele>579.80999755859</ele>
        <time>2024-09-27T06:51:10.000Z</time>
      </trkpt>
      <trkpt lat="40.63984" lon="19.97993">
        <ele>579.33001708984</ele>
        <time>2024-09-27T06:51:12.000Z</time>
      </trkpt>
      <trkpt lat="40.63981" lon="19.98001">
        <ele>579.33001708984</ele>
        <time>2024-09-27T06:51:13.000Z</time>
      </trkpt>
      <trkpt lat="40.63978" lon="19.98008">
        <ele>579.33001708984</ele>
        <time>2024-09-27T06:51:14.000Z</time>
      </trkpt>
      <trkpt lat="40.6397" lon="19.98017">
        <ele>578.84997558594</ele>
        <time>2024-09-27T06:51:15.000Z</time>
      </trkpt>
      <trkpt lat="40.63964" lon="19.98024">
        <ele>578.36999511719</ele>
        <time>2024-09-27T06:51:16.000Z</time>
      </trkpt>
      <trkpt lat="40.6396" lon="19.98029">
        <ele>578.36999511719</ele>
        <time>2024-09-27T06:51:17.000Z</time>
      </trkpt>
      <trkpt lat="40.6395" lon="19.98039">
        <ele>577.40997314453</ele>
        <time>2024-09-27T06:51:19.000Z</time>
      </trkpt>
      <trkpt lat="40.63946" lon="19.98042">
        <ele>577.40997314453</ele>
        <time>2024-09-27T06:51:20.000Z</time>
      </trkpt>
      <trkpt lat="40.63941" lon="19.98049">
        <ele>577.40997314453</ele>
        <time>2024-09-27T06:51:21.000Z</time>
      </trkpt>
      <trkpt lat="40.63928" lon="19.98066">
        <ele>576.92999267578</ele>
        <time>2024-09-27T06:51:23.000Z</time>
      </trkpt>
      <trkpt lat="40.63927" lon="19.98069">
        <ele>576.45001220703</ele>
        <time>2024-09-27T06:51:24.000Z</time>
      </trkpt>
      <trkpt lat="40.63921" lon="19.98078">
        <ele>575.96997070312</ele>
        <time>2024-09-27T06:51:25.000Z</time>
      </trkpt>
      <trkpt lat="40.63916" lon="19.98085">
        <ele>575.48999023438</ele>
        <time>2024-09-27T06:51:26.000Z</time>
      </trkpt>
      <trkpt lat="40.6391" lon="19.98095">
        <ele>575.01000976562</ele>
        <time>2024-09-27T06:51:27.000Z</time>
      </trkpt>
      <trkpt lat="40.63906" lon="19.98102">
        <ele>574.53002929688</ele>
        <time>2024-09-27T06:51:28.000Z</time>
      </trkpt>
      <trkpt lat="40.63887" lon="19.98139">
        <ele>572.59997558594</ele>
        <time>2024-09-27T06:51:33.000Z</time>
      </trkpt>
      <trkpt lat="40.63884" lon="19.98145">
        <ele>572.11999511719</ele>
        <time>2024-09-27T06:51:34.000Z</time>
      </trkpt>
      <trkpt lat="40.63878" lon="19.98156">
        <ele>571.64001464844</ele>
        <time>2024-09-27T06:51:35.000Z</time>
      </trkpt>
      <trkpt lat="40.63875" lon="19.98163">
        <ele>571.15997314453</ele>
        <time>2024-09-27T06:51:36.000Z</time>
      </trkpt>
      <trkpt lat="40.63873" lon="19.98171">
        <ele>570.67999267578</ele>
        <time>2024-09-27T06:51:37.000Z</time>
      </trkpt>
      <trkpt lat="40.63868" lon="19.98184">
        <ele>569.23999023438</ele>
        <time>2024-09-27T06:51:38.000Z</time>
      </trkpt>
      <trkpt lat="40.63842" lon="19.98246">
        <ele>568.28002929688</ele>
        <time>2024-09-27T06:51:44.000Z</time>
      </trkpt>
      <trkpt lat="40.63839" lon="19.98254">
        <ele>568.28002929688</ele>
        <time>2024-09-27T06:51:45.000Z</time>
      </trkpt>
      <trkpt lat="40.63837" lon="19.98259">
        <ele>568.28002929688</ele>
        <time>2024-09-27T06:51:46.000Z</time>
      </trkpt>
      <trkpt lat="40.63834" lon="19.98268">
        <ele>568.28002929688</ele>
        <time>2024-09-27T06:51:47.000Z</time>
      </trkpt>
      <trkpt lat="40.63832" lon="19.98278">
        <ele>568.28002929688</ele>
        <time>2024-09-27T06:51:48.000Z</time>
      </trkpt>
      <trkpt lat="40.6383" lon="19.98291">
        <ele>568.76000976562</ele>
        <time>2024-09-27T06:51:49.000Z</time>
      </trkpt>
      <trkpt lat="40.63828" lon="19.98302">
        <ele>569.23999023438</ele>
        <time>2024-09-27T06:51:50.000Z</time>
      </trkpt>
      <trkpt lat="40.63827" lon="19.98315">
        <ele>569.71997070312</ele>
        <time>2024-09-27T06:51:51.000Z</time>
      </trkpt>
      <trkpt lat="40.63826" lon="19.98322">
        <ele>570.20001220703</ele>
        <time>2024-09-27T06:51:52.000Z</time>
      </trkpt>
      <trkpt lat="40.63824" lon="19.98331">
        <ele>570.67999267578</ele>
        <time>2024-09-27T06:51:53.000Z</time>
      </trkpt>
      <trkpt lat="40.63819" lon="19.98338">
        <ele>571.15997314453</ele>
        <time>2024-09-27T06:51:54.000Z</time>
      </trkpt>
      <trkpt lat="40.63815" lon="19.98344">
        <ele>571.64001464844</ele>
        <time>2024-09-27T06:51:55.000Z</time>
      </trkpt>
      <trkpt lat="40.63808" lon="19.98348">
        <ele>572.11999511719</ele>
        <time>2024-09-27T06:51:56.000Z</time>
      </trkpt>
      <trkpt lat="40.63801" lon="19.98352">
        <ele>572.59997558594</ele>
        <time>2024-09-27T06:51:57.000Z</time>
      </trkpt>
      <trkpt lat="40.63795" lon="19.98357">
        <ele>573.55999755859</ele>
        <time>2024-09-27T06:51:58.000Z</time>
      </trkpt>
      <trkpt lat="40.63788" lon="19.98363">
        <ele>573.55999755859</ele>
        <time>2024-09-27T06:51:59.000Z</time>
      </trkpt>
      <trkpt lat="40.63783" lon="19.98371">
        <ele>573.55999755859</ele>
        <time>2024-09-27T06:52:00.000Z</time>
      </trkpt>
      <trkpt lat="40.63778" lon="19.98381">
        <ele>574.03997802734</ele>
        <time>2024-09-27T06:52:01.000Z</time>
      </trkpt>
      <trkpt lat="40.63768" lon="19.98401">
        <ele>574.53002929688</ele>
        <time>2024-09-27T06:52:03.000Z</time>
      </trkpt>
      <trkpt lat="40.63761" lon="19.98413">
        <ele>574.53002929688</ele>
        <time>2024-09-27T06:52:04.000Z</time>
      </trkpt>
      <trkpt lat="40.63758" lon="19.98418">
        <ele>574.53002929688</ele>
        <time>2024-09-27T06:52:05.000Z</time>
      </trkpt>
      <trkpt lat="40.63748" lon="19.98437">
        <ele>575.01000976562</ele>
        <time>2024-09-27T06:52:07.000Z</time>
      </trkpt>
      <trkpt lat="40.63743" lon="19.98444">
        <ele>575.48999023438</ele>
        <time>2024-09-27T06:52:08.000Z</time>
      </trkpt>
      <trkpt lat="40.63739" lon="19.9845">
        <ele>575.48999023438</ele>
        <time>2024-09-27T06:52:09.000Z</time>
      </trkpt>
      <trkpt lat="40.63732" lon="19.98457">
        <ele>575.48999023438</ele>
        <time>2024-09-27T06:52:10.000Z</time>
      </trkpt>
      <trkpt lat="40.63725" lon="19.98464">
        <ele>575.01000976562</ele>
        <time>2024-09-27T06:52:11.000Z</time>
      </trkpt>
      <trkpt lat="40.63714" lon="19.9847">
        <ele>575.01000976562</ele>
        <time>2024-09-27T06:52:12.000Z</time>
      </trkpt>
      <trkpt lat="40.63708" lon="19.98473">
        <ele>575.01000976562</ele>
        <time>2024-09-27T06:52:13.000Z</time>
      </trkpt>
      <trkpt lat="40.63689" lon="19.98482">
        <ele>574.53002929688</ele>
        <time>2024-09-27T06:52:15.000Z</time>
      </trkpt>
      <trkpt lat="40.63683" lon="19.98484">
        <ele>574.53002929688</ele>
        <time>2024-09-27T06:52:16.000Z</time>
      </trkpt>
      <trkpt lat="40.63677" lon="19.98486">
        <ele>574.03997802734</ele>
        <time>2024-09-27T06:52:17.000Z</time>
      </trkpt>
      <trkpt lat="40.63671" lon="19.98489">
        <ele>573.55999755859</ele>
        <time>2024-09-27T06:52:18.000Z</time>
      </trkpt>
      <trkpt lat="40.63664" lon="19.98493">
        <ele>573.08001708984</ele>
        <time>2024-09-27T06:52:19.000Z</time>
      </trkpt>
      <trkpt lat="40.63658" lon="19.98497">
        <ele>572.59997558594</ele>
        <time>2024-09-27T06:52:20.000Z</time>
      </trkpt>
      <trkpt lat="40.63652" lon="19.98504">
        <ele>572.11999511719</ele>
        <time>2024-09-27T06:52:21.000Z</time>
      </trkpt>
      <trkpt lat="40.63648" lon="19.98512">
        <ele>571.64001464844</ele>
        <time>2024-09-27T06:52:22.000Z</time>
      </trkpt>
      <trkpt lat="40.63642" lon="19.98524">
        <ele>571.15997314453</ele>
        <time>2024-09-27T06:52:23.000Z</time>
      </trkpt>
      <trkpt lat="40.6364" lon="19.9853">
        <ele>570.67999267578</ele>
        <time>2024-09-27T06:52:24.000Z</time>
      </trkpt>
      <trkpt lat="40.63636" lon="19.98537">
        <ele>570.20001220703</ele>
        <time>2024-09-27T06:52:25.000Z</time>
      </trkpt>
      <trkpt lat="40.63634" lon="19.98545">
        <ele>570.20001220703</ele>
        <time>2024-09-27T06:52:26.000Z</time>
      </trkpt>
      <trkpt lat="40.63628" lon="19.98565">
        <ele>569.23999023438</ele>
        <time>2024-09-27T06:52:28.000Z</time>
      </trkpt>
      <trkpt lat="40.63625" lon="19.98575">
        <ele>568.76000976562</ele>
        <time>2024-09-27T06:52:29.000Z</time>
      </trkpt>
      <trkpt lat="40.63622" lon="19.98587">
        <ele>568.76000976562</ele>
        <time>2024-09-27T06:52:30.000Z</time>
      </trkpt>
      <trkpt lat="40.6362" lon="19.98592">
        <ele>568.28002929688</ele>
        <time>2024-09-27T06:52:31.000Z</time>
      </trkpt>
      <trkpt lat="40.63615" lon="19.98604">
        <ele>567.79998779297</ele>
        <time>2024-09-27T06:52:32.000Z</time>
      </trkpt>
      <trkpt lat="40.63608" lon="19.98619">
        <ele>566.83001708984</ele>
        <time>2024-09-27T06:52:34.000Z</time>
      </trkpt>
      <trkpt lat="40.63605" lon="19.98624">
        <ele>566.34997558594</ele>
        <time>2024-09-27T06:52:35.000Z</time>
      </trkpt>
      <trkpt lat="40.63601" lon="19.98632">
        <ele>565.86999511719</ele>
        <time>2024-09-27T06:52:36.000Z</time>
      </trkpt>
      <trkpt lat="40.63598" lon="19.98638">
        <ele>565.86999511719</ele>
        <time>2024-09-27T06:52:37.000Z</time>
      </trkpt>
      <trkpt lat="40.63595" lon="19.98646">
        <ele>565.39001464844</ele>
        <time>2024-09-27T06:52:38.000Z</time>
      </trkpt>
      <trkpt lat="40.63588" lon="19.98662">
        <ele>564.42999267578</ele>
        <time>2024-09-27T06:52:40.000Z</time>
      </trkpt>
      <trkpt lat="40.63584" lon="19.9867">
        <ele>563.95001220703</ele>
        <time>2024-09-27T06:52:41.000Z</time>
      </trkpt>
      <trkpt lat="40.63582" lon="19.98677">
        <ele>563.95001220703</ele>
        <time>2024-09-27T06:52:42.000Z</time>
      </trkpt>
      <trkpt lat="40.6358" lon="19.98683">
        <ele>563.46997070312</ele>
        <time>2024-09-27T06:52:43.000Z</time>
      </trkpt>
      <trkpt lat="40.63578" lon="19.9869">
        <ele>562.98999023438</ele>
        <time>2024-09-27T06:52:44.000Z</time>
      </trkpt>
      <trkpt lat="40.63576" lon="19.98701">
        <ele>562.51000976562</ele>
        <time>2024-09-27T06:52:45.000Z</time>
      </trkpt>
      <trkpt lat="40.63575" lon="19.98708">
        <ele>562.03002929688</ele>
        <time>2024-09-27T06:52:46.000Z</time>
      </trkpt>
      <trkpt lat="40.63575" lon="19.98716">
        <ele>561.54998779297</ele>
        <time>2024-09-27T06:52:47.000Z</time>
      </trkpt>
      <trkpt lat="40.63575" lon="19.98725">
        <ele>561.07000732422</ele>
        <time>2024-09-27T06:52:48.000Z</time>
      </trkpt>
      <trkpt lat="40.63577" lon="19.98734">
        <ele>560.10998535156</ele>
        <time>2024-09-27T06:52:49.000Z</time>
      </trkpt>
      <trkpt lat="40.6358" lon="19.98744">
        <ele>559.61999511719</ele>
        <time>2024-09-27T06:52:50.000Z</time>
      </trkpt>
      <trkpt lat="40.63589" lon="19.98762">
        <ele>558.17999267578</ele>
        <time>2024-09-27T06:52:52.000Z</time>
      </trkpt>
      <trkpt lat="40.63594" lon="19.98771">
        <ele>557.21997070312</ele>
        <time>2024-09-27T06:52:53.000Z</time>
      </trkpt>
      <trkpt lat="40.63598" lon="19.98781">
        <ele>556.73999023438</ele>
        <time>2024-09-27T06:52:54.000Z</time>
      </trkpt>
      <trkpt lat="40.636" lon="19.98792">
        <ele>555.78002929688</ele>
        <time>2024-09-27T06:52:55.000Z</time>
      </trkpt>
      <trkpt lat="40.63602" lon="19.98803">
        <ele>555.29998779297</ele>
        <time>2024-09-27T06:52:56.000Z</time>
      </trkpt>
      <trkpt lat="40.63601" lon="19.98813">
        <ele>554.82000732422</ele>
        <time>2024-09-27T06:52:57.000Z</time>
      </trkpt>
      <trkpt lat="40.63599" lon="19.98822">
        <ele>554.34002685547</ele>
        <time>2024-09-27T06:52:58.000Z</time>
      </trkpt>
      <trkpt lat="40.63594" lon="19.98834">
        <ele>553.38000488281</ele>
        <time>2024-09-27T06:52:59.000Z</time>
      </trkpt>
      <trkpt lat="40.6359" lon="19.98841">
        <ele>553.38000488281</ele>
        <time>2024-09-27T06:53:00.000Z</time>
      </trkpt>
      <trkpt lat="40.63582" lon="19.98852">
        <ele>553.38000488281</ele>
        <time>2024-09-27T06:53:01.000Z</time>
      </trkpt>
      <trkpt lat="40.63573" lon="19.98865">
        <ele>552.90002441406</ele>
        <time>2024-09-27T06:53:02.000Z</time>
      </trkpt>
      <trkpt lat="40.63571" lon="19.98869">
        <ele>553.38000488281</ele>
        <time>2024-09-27T06:53:03.000Z</time>
      </trkpt>
      <trkpt lat="40.63564" lon="19.9888">
        <ele>553.38000488281</ele>
        <time>2024-09-27T06:53:04.000Z</time>
      </trkpt>
      <trkpt lat="40.6356" lon="19.98889">
        <ele>552.90002441406</ele>
        <time>2024-09-27T06:53:05.000Z</time>
      </trkpt>
      <trkpt lat="40.63555" lon="19.98901">
        <ele>552.90002441406</ele>
        <time>2024-09-27T06:53:06.000Z</time>
      </trkpt>
      <trkpt lat="40.63553" lon="19.98911">
        <ele>552.90002441406</ele>
        <time>2024-09-27T06:53:07.000Z</time>
      </trkpt>
      <trkpt lat="40.63548" lon="19.98946">
        <ele>553.38000488281</ele>
        <time>2024-09-27T06:53:09.000Z</time>
      </trkpt>
      <trkpt lat="40.63547" lon="19.9895">
        <ele>553.38000488281</ele>
        <time>2024-09-27T06:53:10.000Z</time>
      </trkpt>
      <trkpt lat="40.63545" lon="19.9896">
        <ele>553.38000488281</ele>
        <time>2024-09-27T06:53:11.000Z</time>
      </trkpt>
      <trkpt lat="40.63543" lon="19.98967">
        <ele>553.85998535156</ele>
        <time>2024-09-27T06:53:12.000Z</time>
      </trkpt>
      <trkpt lat="40.63537" lon="19.9898">
        <ele>553.38000488281</ele>
        <time>2024-09-27T06:53:19.000Z</time>
      </trkpt>
      <trkpt lat="40.63531" lon="19.98985">
        <ele>552.40997314453</ele>
        <time>2024-09-27T06:58:08.000Z</time>
      </trkpt>
      <trkpt lat="40.63528" lon="19.98994">
        <ele>552.40997314453</ele>
        <time>2024-09-27T06:58:18.000Z</time>
      </trkpt>
      <trkpt lat="40.63526" lon="19.98996">
        <ele>551.45001220703</ele>
        <time>2024-09-27T06:58:22.000Z</time>
      </trkpt>
      <trkpt lat="40.63512" lon="19.99017">
        <ele>550.48999023438</ele>
        <time>2024-09-27T06:58:31.000Z</time>
      </trkpt>
      <trkpt lat="40.63507" lon="19.99025">
        <ele>550.96997070312</ele>
        <time>2024-09-27T06:58:33.000Z</time>
      </trkpt>
      <trkpt lat="40.63503" lon="19.99031">
        <ele>550.96997070312</ele>
        <time>2024-09-27T06:58:34.000Z</time>
      </trkpt>
      <trkpt lat="40.635" lon="19.99035">
        <ele>550.96997070312</ele>
        <time>2024-09-27T06:58:35.000Z</time>
      </trkpt>
      <trkpt lat="40.63497" lon="19.9904">
        <ele>550.96997070312</ele>
        <time>2024-09-27T06:58:36.000Z</time>
      </trkpt>
      <trkpt lat="40.63476" lon="19.99072">
        <ele>553.38000488281</ele>
        <time>2024-09-27T06:58:45.000Z</time>
      </trkpt>
      <trkpt lat="40.6346" lon="19.99099">
        <ele>556.73999023438</ele>
        <time>2024-09-27T06:58:53.000Z</time>
      </trkpt>
      <trkpt lat="40.6345" lon="19.99122">
        <ele>559.61999511719</ele>
        <time>2024-09-27T06:58:59.000Z</time>
      </trkpt>
      <trkpt lat="40.63449" lon="19.99126">
        <ele>559.61999511719</ele>
        <time>2024-09-27T06:59:00.000Z</time>
      </trkpt>
      <trkpt lat="40.63434" lon="19.99169">
        <ele>563.95001220703</ele>
        <time>2024-09-27T06:59:10.000Z</time>
      </trkpt>
      <trkpt lat="40.63432" lon="19.99175">
        <ele>564.90997314453</ele>
        <time>2024-09-27T06:59:11.000Z</time>
      </trkpt>
      <trkpt lat="40.63423" lon="19.99187">
        <ele>566.34997558594</ele>
        <time>2024-09-27T06:59:14.000Z</time>
      </trkpt>
      <trkpt lat="40.63421" lon="19.99188">
        <ele>566.83001708984</ele>
        <time>2024-09-27T06:59:15.000Z</time>
      </trkpt>
      <trkpt lat="40.63416" lon="19.99193">
        <ele>567.32000732422</ele>
        <time>2024-09-27T06:59:16.000Z</time>
      </trkpt>
      <trkpt lat="40.63414" lon="19.99195">
        <ele>567.32000732422</ele>
        <time>2024-09-27T06:59:17.000Z</time>
      </trkpt>
      <trkpt lat="40.6341" lon="19.99198">
        <ele>567.79998779297</ele>
        <time>2024-09-27T06:59:18.000Z</time>
      </trkpt>
      <trkpt lat="40.63385" lon="19.99214">
        <ele>570.67999267578</ele>
        <time>2024-09-27T06:59:26.000Z</time>
      </trkpt>
      <trkpt lat="40.63382" lon="19.99217">
        <ele>571.15997314453</ele>
        <time>2024-09-27T06:59:27.000Z</time>
      </trkpt>
      <trkpt lat="40.63379" lon="19.9922">
        <ele>571.64001464844</ele>
        <time>2024-09-27T06:59:28.000Z</time>
      </trkpt>
      <trkpt lat="40.63375" lon="19.99225">
        <ele>572.11999511719</ele>
        <time>2024-09-27T06:59:29.000Z</time>
      </trkpt>
      <trkpt lat="40.63372" lon="19.99228">
        <ele>572.59997558594</ele>
        <time>2024-09-27T06:59:30.000Z</time>
      </trkpt>
      <trkpt lat="40.63356" lon="19.99242">
        <ele>575.48999023438</ele>
        <time>2024-09-27T06:59:35.000Z</time>
      </trkpt>
      <trkpt lat="40.63353" lon="19.99243">
        <ele>575.48999023438</ele>
        <time>2024-09-27T06:59:36.000Z</time>
      </trkpt>
      <trkpt lat="40.63349" lon="19.99244">
        <ele>575.96997070312</ele>
        <time>2024-09-27T06:59:37.000Z</time>
      </trkpt>
      <trkpt lat="40.63343" lon="19.99243">
        <ele>576.45001220703</ele>
        <time>2024-09-27T06:59:38.000Z</time>
      </trkpt>
      <trkpt lat="40.63337" lon="19.9924">
        <ele>576.45001220703</ele>
        <time>2024-09-27T06:59:39.000Z</time>
      </trkpt>
      <trkpt lat="40.63332" lon="19.99238">
        <ele>576.92999267578</ele>
        <time>2024-09-27T06:59:40.000Z</time>
      </trkpt>
      <trkpt lat="40.63327" lon="19.99235">
        <ele>577.40997314453</ele>
        <time>2024-09-27T06:59:41.000Z</time>
      </trkpt>
      <trkpt lat="40.63322" lon="19.99231">
        <ele>577.89001464844</ele>
        <time>2024-09-27T06:59:42.000Z</time>
      </trkpt>
      <trkpt lat="40.63318" lon="19.99228">
        <ele>577.89001464844</ele>
        <time>2024-09-27T06:59:43.000Z</time>
      </trkpt>
      <trkpt lat="40.63315" lon="19.99224">
        <ele>578.36999511719</ele>
        <time>2024-09-27T06:59:44.000Z</time>
      </trkpt>
      <trkpt lat="40.63312" lon="19.99221">
        <ele>578.84997558594</ele>
        <time>2024-09-27T06:59:45.000Z</time>
      </trkpt>
      <trkpt lat="40.63305" lon="19.99215">
        <ele>579.33001708984</ele>
        <time>2024-09-27T06:59:46.000Z</time>
      </trkpt>
      <trkpt lat="40.63303" lon="19.99213">
        <ele>579.33001708984</ele>
        <time>2024-09-27T06:59:47.000Z</time>
      </trkpt>
      <trkpt lat="40.63298" lon="19.9921">
        <ele>579.80999755859</ele>
        <time>2024-09-27T06:59:48.000Z</time>
      </trkpt>
      <trkpt lat="40.63292" lon="19.99207">
        <ele>579.80999755859</ele>
        <time>2024-09-27T06:59:49.000Z</time>
      </trkpt>
      <trkpt lat="40.63286" lon="19.99204">
        <ele>580.28997802734</ele>
        <time>2024-09-27T06:59:50.000Z</time>
      </trkpt>
      <trkpt lat="40.63282" lon="19.99203">
        <ele>580.28997802734</ele>
        <time>2024-09-27T06:59:51.000Z</time>
      </trkpt>
      <trkpt lat="40.63278" lon="19.99201">
        <ele>580.28997802734</ele>
        <time>2024-09-27T06:59:52.000Z</time>
      </trkpt>
      <trkpt lat="40.63271" lon="19.99199">
        <ele>580.77001953125</ele>
        <time>2024-09-27T06:59:53.000Z</time>
      </trkpt>
      <trkpt lat="40.63267" lon="19.99199">
        <ele>580.77001953125</ele>
        <time>2024-09-27T06:59:54.000Z</time>
      </trkpt>
      <trkpt lat="40.63261" lon="19.99197">
        <ele>580.77001953125</ele>
        <time>2024-09-27T06:59:55.000Z</time>
      </trkpt>
      <trkpt lat="40.63257" lon="19.99197">
        <ele>580.77001953125</ele>
        <time>2024-09-27T06:59:56.000Z</time>
      </trkpt>
      <trkpt lat="40.63251" lon="19.99196">
        <ele>580.77001953125</ele>
        <time>2024-09-27T06:59:57.000Z</time>
      </trkpt>
      <trkpt lat="40.63246" lon="19.99197">
        <ele>581.25</ele>
        <time>2024-09-27T06:59:58.000Z</time>
      </trkpt>
      <trkpt lat="40.6324" lon="19.99199">
        <ele>581.25</ele>
        <time>2024-09-27T06:59:59.000Z</time>
      </trkpt>
      <trkpt lat="40.63235" lon="19.99203">
        <ele>581.72998046875</ele>
        <time>2024-09-27T07:00:00.000Z</time>
      </trkpt>
      <trkpt lat="40.63228" lon="19.99207">
        <ele>582.21997070312</ele>
        <time>2024-09-27T07:00:01.000Z</time>
      </trkpt>
      <trkpt lat="40.63225" lon="19.99209">
        <ele>582.70001220703</ele>
        <time>2024-09-27T07:00:02.000Z</time>
      </trkpt>
      <trkpt lat="40.6322" lon="19.99212">
        <ele>583.17999267578</ele>
        <time>2024-09-27T07:00:03.000Z</time>
      </trkpt>
      <trkpt lat="40.63216" lon="19.99215">
        <ele>583.17999267578</ele>
        <time>2024-09-27T07:00:04.000Z</time>
      </trkpt>
      <trkpt lat="40.63209" lon="19.99219">
        <ele>583.65997314453</ele>
        <time>2024-09-27T07:00:05.000Z</time>
      </trkpt>
      <trkpt lat="40.63202" lon="19.99222">
        <ele>583.65997314453</ele>
        <time>2024-09-27T07:00:06.000Z</time>
      </trkpt>
      <trkpt lat="40.63199" lon="19.99223">
        <ele>584.14001464844</ele>
        <time>2024-09-27T07:00:07.000Z</time>
      </trkpt>
      <trkpt lat="40.63193" lon="19.99225">
        <ele>584.14001464844</ele>
        <time>2024-09-27T07:00:08.000Z</time>
      </trkpt>
      <trkpt lat="40.63188" lon="19.99225">
        <ele>584.61999511719</ele>
        <time>2024-09-27T07:00:09.000Z</time>
      </trkpt>
      <trkpt lat="40.63182" lon="19.99224">
        <ele>585.09997558594</ele>
        <time>2024-09-27T07:00:10.000Z</time>
      </trkpt>
      <trkpt lat="40.63177" lon="19.99221">
        <ele>585.58001708984</ele>
        <time>2024-09-27T07:00:11.000Z</time>
      </trkpt>
      <trkpt lat="40.63171" lon="19.99216">
        <ele>586.05999755859</ele>
        <time>2024-09-27T07:00:12.000Z</time>
      </trkpt>
      <trkpt lat="40.63167" lon="19.99212">
        <ele>586.53997802734</ele>
        <time>2024-09-27T07:00:13.000Z</time>
      </trkpt>
      <trkpt lat="40.63163" lon="19.99206">
        <ele>587.02001953125</ele>
        <time>2024-09-27T07:00:14.000Z</time>
      </trkpt>
      <trkpt lat="40.63155" lon="19.99194">
        <ele>588.46002197266</ele>
        <time>2024-09-27T07:00:16.000Z</time>
      </trkpt>
      <trkpt lat="40.63153" lon="19.99191">
        <ele>588.46002197266</ele>
        <time>2024-09-27T07:00:17.000Z</time>
      </trkpt>
      <trkpt lat="40.6315" lon="19.99187">
        <ele>588.95001220703</ele>
        <time>2024-09-27T07:00:18.000Z</time>
      </trkpt>
      <trkpt lat="40.63146" lon="19.99183">
        <ele>589.42999267578</ele>
        <time>2024-09-27T07:00:19.000Z</time>
      </trkpt>
      <trkpt lat="40.63142" lon="19.99178">
        <ele>589.90997314453</ele>
        <time>2024-09-27T07:00:20.000Z</time>
      </trkpt>
      <trkpt lat="40.63139" lon="19.99173">
        <ele>589.90997314453</ele>
        <time>2024-09-27T07:00:21.000Z</time>
      </trkpt>
      <trkpt lat="40.63136" lon="19.9917">
        <ele>589.90997314453</ele>
        <time>2024-09-27T07:00:22.000Z</time>
      </trkpt>
      <trkpt lat="40.63131" lon="19.99166">
        <ele>589.90997314453</ele>
        <time>2024-09-27T07:00:23.000Z</time>
      </trkpt>
      <trkpt lat="40.63125" lon="19.99162">
        <ele>589.90997314453</ele>
        <time>2024-09-27T07:00:24.000Z</time>
      </trkpt>
      <trkpt lat="40.6312" lon="19.9916">
        <ele>589.90997314453</ele>
        <time>2024-09-27T07:00:25.000Z</time>
      </trkpt>
      <trkpt lat="40.63113" lon="19.99159">
        <ele>589.90997314453</ele>
        <time>2024-09-27T07:00:26.000Z</time>
      </trkpt>
      <trkpt lat="40.63107" lon="19.99161">
        <ele>589.90997314453</ele>
        <time>2024-09-27T07:00:27.000Z</time>
      </trkpt>
      <trkpt lat="40.63101" lon="19.99165">
        <ele>589.90997314453</ele>
        <time>2024-09-27T07:00:28.000Z</time>
      </trkpt>
      <trkpt lat="40.63096" lon="19.99169">
        <ele>590.39001464844</ele>
        <time>2024-09-27T07:00:29.000Z</time>
      </trkpt>
      <trkpt lat="40.63091" lon="19.99172">
        <ele>590.39001464844</ele>
        <time>2024-09-27T07:00:30.000Z</time>
      </trkpt>
      <trkpt lat="40.63085" lon="19.99175">
        <ele>590.39001464844</ele>
        <time>2024-09-27T07:00:31.000Z</time>
      </trkpt>
      <trkpt lat="40.6308" lon="19.99176">
        <ele>590.39001464844</ele>
        <time>2024-09-27T07:00:32.000Z</time>
      </trkpt>
      <trkpt lat="40.63074" lon="19.99177">
        <ele>590.86999511719</ele>
        <time>2024-09-27T07:00:33.000Z</time>
      </trkpt>
      <trkpt lat="40.6307" lon="19.99176">
        <ele>591.34997558594</ele>
        <time>2024-09-27T07:00:34.000Z</time>
      </trkpt>
      <trkpt lat="40.63064" lon="19.99175">
        <ele>591.83001708984</ele>
        <time>2024-09-27T07:00:35.000Z</time>
      </trkpt>
      <trkpt lat="40.63059" lon="19.99173">
        <ele>592.30999755859</ele>
        <time>2024-09-27T07:00:36.000Z</time>
      </trkpt>
      <trkpt lat="40.63053" lon="19.9917">
        <ele>592.78997802734</ele>
        <time>2024-09-27T07:00:37.000Z</time>
      </trkpt>
      <trkpt lat="40.63048" lon="19.99166">
        <ele>593.27001953125</ele>
        <time>2024-09-27T07:00:38.000Z</time>
      </trkpt>
      <trkpt lat="40.63045" lon="19.99162">
        <ele>593.75</ele>
        <time>2024-09-27T07:00:39.000Z</time>
      </trkpt>
      <trkpt lat="40.6304" lon="19.99158">
        <ele>594.71002197266</ele>
        <time>2024-09-27T07:00:40.000Z</time>
      </trkpt>
      <trkpt lat="40.63036" lon="19.99152">
        <ele>595.66998291016</ele>
        <time>2024-09-27T07:00:41.000Z</time>
      </trkpt>
      <trkpt lat="40.63031" lon="19.99146">
        <ele>596.64001464844</ele>
        <time>2024-09-27T07:00:42.000Z</time>
      </trkpt>
      <trkpt lat="40.63029" lon="19.99144">
        <ele>596.64001464844</ele>
        <time>2024-09-27T07:00:43.000Z</time>
      </trkpt>
      <trkpt lat="40.63025" lon="19.99139">
        <ele>597.59997558594</ele>
        <time>2024-09-27T07:00:44.000Z</time>
      </trkpt>
      <trkpt lat="40.6302" lon="19.99136">
        <ele>598.08001708984</ele>
        <time>2024-09-27T07:00:45.000Z</time>
      </trkpt>
      <trkpt lat="40.63013" lon="19.99133">
        <ele>599.03997802734</ele>
        <time>2024-09-27T07:00:46.000Z</time>
      </trkpt>
      <trkpt lat="40.63005" lon="19.9913">
        <ele>600</ele>
        <time>2024-09-27T07:00:47.000Z</time>
      </trkpt>
      <trkpt lat="40.63002" lon="19.99129">
        <ele>600</ele>
        <time>2024-09-27T07:00:48.000Z</time>
      </trkpt>
      <trkpt lat="40.62996" lon="19.99127">
        <ele>600.47998046875</ele>
        <time>2024-09-27T07:00:49.000Z</time>
      </trkpt>
      <trkpt lat="40.62983" lon="19.99124">
        <ele>601.44000244141</ele>
        <time>2024-09-27T07:00:52.000Z</time>
      </trkpt>
      <trkpt lat="40.62979" lon="19.99124">
        <ele>601.91998291016</ele>
        <time>2024-09-27T07:00:53.000Z</time>
      </trkpt>
      <trkpt lat="40.62971" lon="19.99124">
        <ele>602.40002441406</ele>
        <time>2024-09-27T07:00:54.000Z</time>
      </trkpt>
      <trkpt lat="40.62966" lon="19.99124">
        <ele>602.40002441406</ele>
        <time>2024-09-27T07:00:55.000Z</time>
      </trkpt>
      <trkpt lat="40.62959" lon="19.99125">
        <ele>602.40002441406</ele>
        <time>2024-09-27T07:00:56.000Z</time>
      </trkpt>
      <trkpt lat="40.62951" lon="19.99126">
        <ele>602.40002441406</ele>
        <time>2024-09-27T07:00:57.000Z</time>
      </trkpt>
      <trkpt lat="40.62945" lon="19.99127">
        <ele>601.91998291016</ele>
        <time>2024-09-27T07:00:58.000Z</time>
      </trkpt>
      <trkpt lat="40.62939" lon="19.9913">
        <ele>601.91998291016</ele>
        <time>2024-09-27T07:00:59.000Z</time>
      </trkpt>
      <trkpt lat="40.62932" lon="19.99134">
        <ele>601.91998291016</ele>
        <time>2024-09-27T07:01:00.000Z</time>
      </trkpt>
      <trkpt lat="40.62923" lon="19.99143">
        <ele>601.91998291016</ele>
        <time>2024-09-27T07:01:01.000Z</time>
      </trkpt>
      <trkpt lat="40.62921" lon="19.99147">
        <ele>601.91998291016</ele>
        <time>2024-09-27T07:01:02.000Z</time>
      </trkpt>
      <trkpt lat="40.62913" lon="19.99155">
        <ele>601.44000244141</ele>
        <time>2024-09-27T07:01:03.000Z</time>
      </trkpt>
      <trkpt lat="40.62911" lon="19.99158">
        <ele>601.44000244141</ele>
        <time>2024-09-27T07:01:04.000Z</time>
      </trkpt>
      <trkpt lat="40.62905" lon="19.99164">
        <ele>600.96002197266</ele>
        <time>2024-09-27T07:01:05.000Z</time>
      </trkpt>
      <trkpt lat="40.629" lon="19.99171">
        <ele>600.47998046875</ele>
        <time>2024-09-27T07:01:06.000Z</time>
      </trkpt>
      <trkpt lat="40.62895" lon="19.99177">
        <ele>600.47998046875</ele>
        <time>2024-09-27T07:01:07.000Z</time>
      </trkpt>
      <trkpt lat="40.6289" lon="19.99182">
        <ele>600.47998046875</ele>
        <time>2024-09-27T07:01:08.000Z</time>
      </trkpt>
      <trkpt lat="40.62884" lon="19.99186">
        <ele>600.47998046875</ele>
        <time>2024-09-27T07:01:09.000Z</time>
      </trkpt>
      <trkpt lat="40.62875" lon="19.99192">
        <ele>600.96002197266</ele>
        <time>2024-09-27T07:01:10.000Z</time>
      </trkpt>
      <trkpt lat="40.6287" lon="19.99196">
        <ele>601.44000244141</ele>
        <time>2024-09-27T07:01:11.000Z</time>
      </trkpt>
      <trkpt lat="40.62863" lon="19.99199">
        <ele>601.91998291016</ele>
        <time>2024-09-27T07:01:12.000Z</time>
      </trkpt>
      <trkpt lat="40.6286" lon="19.99201">
        <ele>601.91998291016</ele>
        <time>2024-09-27T07:01:13.000Z</time>
      </trkpt>
      <trkpt lat="40.62852" lon="19.99204">
        <ele>602.40002441406</ele>
        <time>2024-09-27T07:01:14.000Z</time>
      </trkpt>
      <trkpt lat="40.62847" lon="19.99205">
        <ele>602.40002441406</ele>
        <time>2024-09-27T07:01:15.000Z</time>
      </trkpt>
      <trkpt lat="40.6284" lon="19.99206">
        <ele>602.40002441406</ele>
        <time>2024-09-27T07:01:16.000Z</time>
      </trkpt>
      <trkpt lat="40.6283" lon="19.99207">
        <ele>602.40002441406</ele>
        <time>2024-09-27T07:01:17.000Z</time>
      </trkpt>
      <trkpt lat="40.62826" lon="19.99207">
        <ele>602.40002441406</ele>
        <time>2024-09-27T07:01:18.000Z</time>
      </trkpt>
      <trkpt lat="40.6282" lon="19.99208">
        <ele>602.40002441406</ele>
        <time>2024-09-27T07:01:19.000Z</time>
      </trkpt>
      <trkpt lat="40.62813" lon="19.99212">
        <ele>602.88000488281</ele>
        <time>2024-09-27T07:01:20.000Z</time>
      </trkpt>
      <trkpt lat="40.62808" lon="19.99215">
        <ele>602.88000488281</ele>
        <time>2024-09-27T07:01:21.000Z</time>
      </trkpt>
      <trkpt lat="40.62803" lon="19.99218">
        <ele>602.88000488281</ele>
        <time>2024-09-27T07:01:22.000Z</time>
      </trkpt>
      <trkpt lat="40.62797" lon="19.99222">
        <ele>602.88000488281</ele>
        <time>2024-09-27T07:01:23.000Z</time>
      </trkpt>
      <trkpt lat="40.62791" lon="19.99226">
        <ele>602.88000488281</ele>
        <time>2024-09-27T07:01:24.000Z</time>
      </trkpt>
      <trkpt lat="40.62785" lon="19.99231">
        <ele>602.88000488281</ele>
        <time>2024-09-27T07:01:25.000Z</time>
      </trkpt>
      <trkpt lat="40.62779" lon="19.99236">
        <ele>602.40002441406</ele>
        <time>2024-09-27T07:01:26.000Z</time>
      </trkpt>
      <trkpt lat="40.62773" lon="19.99242">
        <ele>602.40002441406</ele>
        <time>2024-09-27T07:01:27.000Z</time>
      </trkpt>
      <trkpt lat="40.62768" lon="19.99247">
        <ele>602.40002441406</ele>
        <time>2024-09-27T07:01:28.000Z</time>
      </trkpt>
      <trkpt lat="40.62764" lon="19.99252">
        <ele>602.40002441406</ele>
        <time>2024-09-27T07:01:29.000Z</time>
      </trkpt>
      <trkpt lat="40.62758" lon="19.99262">
        <ele>602.40002441406</ele>
        <time>2024-09-27T07:01:30.000Z</time>
      </trkpt>
      <trkpt lat="40.62756" lon="19.99264">
        <ele>602.40002441406</ele>
        <time>2024-09-27T07:01:31.000Z</time>
      </trkpt>
      <trkpt lat="40.62752" lon="19.99271">
        <ele>602.88000488281</ele>
        <time>2024-09-27T07:01:32.000Z</time>
      </trkpt>
      <trkpt lat="40.62746" lon="19.99278">
        <ele>603.35998535156</ele>
        <time>2024-09-27T07:01:33.000Z</time>
      </trkpt>
      <trkpt lat="40.6274" lon="19.99283">
        <ele>603.35998535156</ele>
        <time>2024-09-27T07:01:34.000Z</time>
      </trkpt>
      <trkpt lat="40.62733" lon="19.99286">
        <ele>603.35998535156</ele>
        <time>2024-09-27T07:01:35.000Z</time>
      </trkpt>
      <trkpt lat="40.62727" lon="19.99288">
        <ele>603.84997558594</ele>
        <time>2024-09-27T07:01:36.000Z</time>
      </trkpt>
      <trkpt lat="40.6272" lon="19.99288">
        <ele>604.33001708984</ele>
        <time>2024-09-27T07:01:37.000Z</time>
      </trkpt>
      <trkpt lat="40.62715" lon="19.99289">
        <ele>604.33001708984</ele>
        <time>2024-09-27T07:01:38.000Z</time>
      </trkpt>
      <trkpt lat="40.62709" lon="19.99291">
        <ele>604.33001708984</ele>
        <time>2024-09-27T07:01:39.000Z</time>
      </trkpt>
      <trkpt lat="40.62705" lon="19.99296">
        <ele>604.80999755859</ele>
        <time>2024-09-27T07:01:40.000Z</time>
      </trkpt>
      <trkpt lat="40.62703" lon="19.99302">
        <ele>605.28997802734</ele>
        <time>2024-09-27T07:01:41.000Z</time>
      </trkpt>
      <trkpt lat="40.62703" lon="19.99308">
        <ele>605.28997802734</ele>
        <time>2024-09-27T07:01:42.000Z</time>
      </trkpt>
      <trkpt lat="40.62704" lon="19.99315">
        <ele>605.77001953125</ele>
        <time>2024-09-27T07:01:43.000Z</time>
      </trkpt>
      <trkpt lat="40.62706" lon="19.99322">
        <ele>606.25</ele>
        <time>2024-09-27T07:01:44.000Z</time>
      </trkpt>
      <trkpt lat="40.62708" lon="19.99328">
        <ele>607.21002197266</ele>
        <time>2024-09-27T07:01:45.000Z</time>
      </trkpt>
      <trkpt lat="40.6271" lon="19.99347">
        <ele>608.16998291016</ele>
        <time>2024-09-27T07:01:48.000Z</time>
      </trkpt>
      <trkpt lat="40.6271" lon="19.99348">
        <ele>608.16998291016</ele>
        <time>2024-09-27T07:01:49.000Z</time>
      </trkpt>
      <trkpt lat="40.62708" lon="19.99354">
        <ele>608.16998291016</ele>
        <time>2024-09-27T07:01:50.000Z</time>
      </trkpt>
      <trkpt lat="40.62705" lon="19.9936">
        <ele>608.65002441406</ele>
        <time>2024-09-27T07:01:51.000Z</time>
      </trkpt>
      <trkpt lat="40.627" lon="19.99366">
        <ele>608.65002441406</ele>
        <time>2024-09-27T07:01:52.000Z</time>
      </trkpt>
      <trkpt lat="40.62695" lon="19.99371">
        <ele>609.13000488281</ele>
        <time>2024-09-27T07:01:53.000Z</time>
      </trkpt>
      <trkpt lat="40.62679" lon="19.99385">
        <ele>609.60998535156</ele>
        <time>2024-09-27T07:01:55.000Z</time>
      </trkpt>
      <trkpt lat="40.62676" lon="19.99388">
        <ele>609.60998535156</ele>
        <time>2024-09-27T07:01:56.000Z</time>
      </trkpt>
      <trkpt lat="40.62666" lon="19.99397">
        <ele>610.09002685547</ele>
        <time>2024-09-27T07:01:58.000Z</time>
      </trkpt>
      <trkpt lat="40.62661" lon="19.99402">
        <ele>610.57000732422</ele>
        <time>2024-09-27T07:01:59.000Z</time>
      </trkpt>
      <trkpt lat="40.62659" lon="19.99404">
        <ele>611.05999755859</ele>
        <time>2024-09-27T07:02:00.000Z</time>
      </trkpt>
      <trkpt lat="40.62655" lon="19.99408">
        <ele>611.05999755859</ele>
        <time>2024-09-27T07:02:01.000Z</time>
      </trkpt>
      <trkpt lat="40.62652" lon="19.9941">
        <ele>611.53997802734</ele>
        <time>2024-09-27T07:02:02.000Z</time>
      </trkpt>
      <trkpt lat="40.62645" lon="19.99415">
        <ele>612.02001953125</ele>
        <time>2024-09-27T07:02:03.000Z</time>
      </trkpt>
      <trkpt lat="40.62642" lon="19.99417">
        <ele>612.5</ele>
        <time>2024-09-27T07:02:04.000Z</time>
      </trkpt>
      <trkpt lat="40.62635" lon="19.99421">
        <ele>612.97998046875</ele>
        <time>2024-09-27T07:02:05.000Z</time>
      </trkpt>
      <trkpt lat="40.62626" lon="19.99425">
        <ele>613.46002197266</ele>
        <time>2024-09-27T07:02:07.000Z</time>
      </trkpt>
      <trkpt lat="40.62621" lon="19.99428">
        <ele>613.94000244141</ele>
        <time>2024-09-27T07:02:08.000Z</time>
      </trkpt>
      <trkpt lat="40.62616" lon="19.99432">
        <ele>613.46002197266</ele>
        <time>2024-09-27T07:02:09.000Z</time>
      </trkpt>
      <trkpt lat="40.62611" lon="19.99437">
        <ele>613.46002197266</ele>
        <time>2024-09-27T07:02:10.000Z</time>
      </trkpt>
      <trkpt lat="40.62608" lon="19.99443">
        <ele>613.46002197266</ele>
        <time>2024-09-27T07:02:11.000Z</time>
      </trkpt>
      <trkpt lat="40.62606" lon="19.99451">
        <ele>613.46002197266</ele>
        <time>2024-09-27T07:02:12.000Z</time>
      </trkpt>
      <trkpt lat="40.62605" lon="19.99459">
        <ele>613.94000244141</ele>
        <time>2024-09-27T07:02:13.000Z</time>
      </trkpt>
      <trkpt lat="40.62603" lon="19.99467">
        <ele>613.94000244141</ele>
        <time>2024-09-27T07:02:14.000Z</time>
      </trkpt>
      <trkpt lat="40.626" lon="19.99474">
        <ele>614.41998291016</ele>
        <time>2024-09-27T07:02:15.000Z</time>
      </trkpt>
      <trkpt lat="40.62596" lon="19.99479">
        <ele>614.41998291016</ele>
        <time>2024-09-27T07:02:16.000Z</time>
      </trkpt>
      <trkpt lat="40.62591" lon="19.99482">
        <ele>614.41998291016</ele>
        <time>2024-09-27T07:02:17.000Z</time>
      </trkpt>
      <trkpt lat="40.62586" lon="19.99483">
        <ele>614.41998291016</ele>
        <time>2024-09-27T07:02:18.000Z</time>
      </trkpt>
      <trkpt lat="40.62581" lon="19.99483">
        <ele>614.41998291016</ele>
        <time>2024-09-27T07:02:19.000Z</time>
      </trkpt>
      <trkpt lat="40.62576" lon="19.99483">
        <ele>614.41998291016</ele>
        <time>2024-09-27T07:02:20.000Z</time>
      </trkpt>
      <trkpt lat="40.62571" lon="19.99485">
        <ele>614.41998291016</ele>
        <time>2024-09-27T07:02:21.000Z</time>
      </trkpt>
      <trkpt lat="40.62567" lon="19.99489">
        <ele>614.90002441406</ele>
        <time>2024-09-27T07:02:22.000Z</time>
      </trkpt>
      <trkpt lat="40.62564" lon="19.99496">
        <ele>615.38000488281</ele>
        <time>2024-09-27T07:02:23.000Z</time>
      </trkpt>
      <trkpt lat="40.62562" lon="19.99504">
        <ele>615.38000488281</ele>
        <time>2024-09-27T07:02:24.000Z</time>
      </trkpt>
      <trkpt lat="40.62562" lon="19.99512">
        <ele>615.85998535156</ele>
        <time>2024-09-27T07:02:25.000Z</time>
      </trkpt>
      <trkpt lat="40.62562" lon="19.99524">
        <ele>616.34002685547</ele>
        <time>2024-09-27T07:02:26.000Z</time>
      </trkpt>
      <trkpt lat="40.62563" lon="19.99533">
        <ele>616.34002685547</ele>
        <time>2024-09-27T07:02:27.000Z</time>
      </trkpt>
      <trkpt lat="40.62564" lon="19.99546">
        <ele>616.82000732422</ele>
        <time>2024-09-27T07:02:28.000Z</time>
      </trkpt>
      <trkpt lat="40.62565" lon="19.99558">
        <ele>617.29998779297</ele>
        <time>2024-09-27T07:02:29.000Z</time>
      </trkpt>
      <trkpt lat="40.62565" lon="19.9956">
        <ele>617.29998779297</ele>
        <time>2024-09-27T07:02:30.000Z</time>
      </trkpt>
      <trkpt lat="40.62566" lon="19.99569">
        <ele>617.78002929688</ele>
        <time>2024-09-27T07:02:31.000Z</time>
      </trkpt>
      <trkpt lat="40.62567" lon="19.99586">
        <ele>618.75</ele>
        <time>2024-09-27T07:02:32.000Z</time>
      </trkpt>
      <trkpt lat="40.62568" lon="19.99589">
        <ele>618.75</ele>
        <time>2024-09-27T07:02:33.000Z</time>
      </trkpt>
      <trkpt lat="40.6257" lon="19.996">
        <ele>619.71002197266</ele>
        <time>2024-09-27T07:02:34.000Z</time>
      </trkpt>
      <trkpt lat="40.62572" lon="19.99612">
        <ele>620.19000244141</ele>
        <time>2024-09-27T07:02:35.000Z</time>
      </trkpt>
      <trkpt lat="40.62574" lon="19.99618">
        <ele>620.19000244141</ele>
        <time>2024-09-27T07:02:36.000Z</time>
      </trkpt>
      <trkpt lat="40.62577" lon="19.9963">
        <ele>620.66998291016</ele>
        <time>2024-09-27T07:02:37.000Z</time>
      </trkpt>
      <trkpt lat="40.62578" lon="19.99632">
        <ele>620.66998291016</ele>
        <time>2024-09-27T07:02:38.000Z</time>
      </trkpt>
      <trkpt lat="40.62582" lon="19.99646">
        <ele>621.15002441406</ele>
        <time>2024-09-27T07:02:39.000Z</time>
      </trkpt>
      <trkpt lat="40.62585" lon="19.99655">
        <ele>621.15002441406</ele>
        <time>2024-09-27T07:02:41.000Z</time>
      </trkpt>
      <trkpt lat="40.62589" lon="19.99665">
        <ele>621.63000488281</ele>
        <time>2024-09-27T07:02:42.000Z</time>
      </trkpt>
      <trkpt lat="40.6259" lon="19.99671">
        <ele>622.10998535156</ele>
        <time>2024-09-27T07:02:43.000Z</time>
      </trkpt>
      <trkpt lat="40.62592" lon="19.99679">
        <ele>622.59002685547</ele>
        <time>2024-09-27T07:02:44.000Z</time>
      </trkpt>
      <trkpt lat="40.62593" lon="19.99687">
        <ele>623.07000732422</ele>
        <time>2024-09-27T07:02:45.000Z</time>
      </trkpt>
      <trkpt lat="40.62593" lon="19.99695">
        <ele>623.54998779297</ele>
        <time>2024-09-27T07:02:46.000Z</time>
      </trkpt>
      <trkpt lat="40.62591" lon="19.99703">
        <ele>624.51000976562</ele>
        <time>2024-09-27T07:02:47.000Z</time>
      </trkpt>
      <trkpt lat="40.62588" lon="19.99707">
        <ele>624.98999023438</ele>
        <time>2024-09-27T07:02:48.000Z</time>
      </trkpt>
      <trkpt lat="40.62583" lon="19.9971">
        <ele>625.46997070312</ele>
        <time>2024-09-27T07:02:49.000Z</time>
      </trkpt>
      <trkpt lat="40.62577" lon="19.9971">
        <ele>625.96002197266</ele>
        <time>2024-09-27T07:02:50.000Z</time>
      </trkpt>
      <trkpt lat="40.62571" lon="19.99708">
        <ele>626.91998291016</ele>
        <time>2024-09-27T07:02:51.000Z</time>
      </trkpt>
      <trkpt lat="40.62547" lon="19.99698">
        <ele>627.88000488281</ele>
        <time>2024-09-27T07:02:54.000Z</time>
      </trkpt>
      <trkpt lat="40.6254" lon="19.99696">
        <ele>628.35998535156</ele>
        <time>2024-09-27T07:02:55.000Z</time>
      </trkpt>
      <trkpt lat="40.62536" lon="19.99694">
        <ele>628.84002685547</ele>
        <time>2024-09-27T07:02:56.000Z</time>
      </trkpt>
      <trkpt lat="40.62528" lon="19.99692">
        <ele>629.32000732422</ele>
        <time>2024-09-27T07:02:57.000Z</time>
      </trkpt>
      <trkpt lat="40.62516" lon="19.99685">
        <ele>630.28002929688</ele>
        <time>2024-09-27T07:02:59.000Z</time>
      </trkpt>
      <trkpt lat="40.62504" lon="19.99678">
        <ele>631.71997070312</ele>
        <time>2024-09-27T07:03:01.000Z</time>
      </trkpt>
      <trkpt lat="40.62493" lon="19.9967">
        <ele>632.20001220703</ele>
        <time>2024-09-27T07:03:02.000Z</time>
      </trkpt>
      <trkpt lat="40.62491" lon="19.99669">
        <ele>632.20001220703</ele>
        <time>2024-09-27T07:03:03.000Z</time>
      </trkpt>
      <trkpt lat="40.62486" lon="19.99665">
        <ele>632.67999267578</ele>
        <time>2024-09-27T07:03:04.000Z</time>
      </trkpt>
      <trkpt lat="40.6248" lon="19.99661">
        <ele>633.16998291016</ele>
        <time>2024-09-27T07:03:05.000Z</time>
      </trkpt>
      <trkpt lat="40.62474" lon="19.99658">
        <ele>633.16998291016</ele>
        <time>2024-09-27T07:03:06.000Z</time>
      </trkpt>
      <trkpt lat="40.62468" lon="19.99655">
        <ele>633.65002441406</ele>
        <time>2024-09-27T07:03:07.000Z</time>
      </trkpt>
      <trkpt lat="40.62462" lon="19.99654">
        <ele>634.60998535156</ele>
        <time>2024-09-27T07:03:08.000Z</time>
      </trkpt>
      <trkpt lat="40.62455" lon="19.99652">
        <ele>635.09002685547</ele>
        <time>2024-09-27T07:03:09.000Z</time>
      </trkpt>
      <trkpt lat="40.62448" lon="19.99651">
        <ele>636.04998779297</ele>
        <time>2024-09-27T07:03:10.000Z</time>
      </trkpt>
      <trkpt lat="40.62443" lon="19.9965">
        <ele>636.53002929688</ele>
        <time>2024-09-27T07:03:11.000Z</time>
      </trkpt>
      <trkpt lat="40.62438" lon="19.99649">
        <ele>637.01000976562</ele>
        <time>2024-09-27T07:03:12.000Z</time>
      </trkpt>
      <trkpt lat="40.62432" lon="19.99647">
        <ele>637.96997070312</ele>
        <time>2024-09-27T07:03:13.000Z</time>
      </trkpt>
      <trkpt lat="40.62426" lon="19.99644">
        <ele>638.45001220703</ele>
        <time>2024-09-27T07:03:14.000Z</time>
      </trkpt>
      <trkpt lat="40.6242" lon="19.99643">
        <ele>639.40997314453</ele>
        <time>2024-09-27T07:03:15.000Z</time>
      </trkpt>
      <trkpt lat="40.62414" lon="19.9964">
        <ele>639.89001464844</ele>
        <time>2024-09-27T07:03:16.000Z</time>
      </trkpt>
      <trkpt lat="40.62407" lon="19.99637">
        <ele>640.38000488281</ele>
        <time>2024-09-27T07:03:17.000Z</time>
      </trkpt>
      <trkpt lat="40.62401" lon="19.99633">
        <ele>640.38000488281</ele>
        <time>2024-09-27T07:03:18.000Z</time>
      </trkpt>
      <trkpt lat="40.62391" lon="19.99626">
        <ele>640.85998535156</ele>
        <time>2024-09-27T07:03:19.000Z</time>
      </trkpt>
      <trkpt lat="40.62386" lon="19.99623">
        <ele>641.34002685547</ele>
        <time>2024-09-27T07:03:20.000Z</time>
      </trkpt>
      <trkpt lat="40.62379" lon="19.99618">
        <ele>641.82000732422</ele>
        <time>2024-09-27T07:03:21.000Z</time>
      </trkpt>
      <trkpt lat="40.62372" lon="19.99614">
        <ele>642.29998779297</ele>
        <time>2024-09-27T07:03:22.000Z</time>
      </trkpt>
      <trkpt lat="40.62366" lon="19.99611">
        <ele>642.78002929688</ele>
        <time>2024-09-27T07:03:23.000Z</time>
      </trkpt>
      <trkpt lat="40.6236" lon="19.99608">
        <ele>643.26000976562</ele>
        <time>2024-09-27T07:03:24.000Z</time>
      </trkpt>
      <trkpt lat="40.62339" lon="19.99601">
        <ele>645.17999267578</ele>
        <time>2024-09-27T07:03:27.000Z</time>
      </trkpt>
      <trkpt lat="40.62331" lon="19.99597">
        <ele>646.14001464844</ele>
        <time>2024-09-27T07:03:28.000Z</time>
      </trkpt>
      <trkpt lat="40.62326" lon="19.99595">
        <ele>646.61999511719</ele>
        <time>2024-09-27T07:03:29.000Z</time>
      </trkpt>
      <trkpt lat="40.6232" lon="19.99592">
        <ele>647.09997558594</ele>
        <time>2024-09-27T07:03:30.000Z</time>
      </trkpt>
      <trkpt lat="40.62315" lon="19.9959">
        <ele>647.59002685547</ele>
        <time>2024-09-27T07:03:31.000Z</time>
      </trkpt>
      <trkpt lat="40.62301" lon="19.99584">
        <ele>648.54998779297</ele>
        <time>2024-09-27T07:03:33.000Z</time>
      </trkpt>
      <trkpt lat="40.62293" lon="19.99579">
        <ele>649.03002929688</ele>
        <time>2024-09-27T07:03:34.000Z</time>
      </trkpt>
      <trkpt lat="40.6229" lon="19.99578">
        <ele>649.03002929688</ele>
        <time>2024-09-27T07:03:35.000Z</time>
      </trkpt>
      <trkpt lat="40.62285" lon="19.99573">
        <ele>649.98999023438</ele>
        <time>2024-09-27T07:03:36.000Z</time>
      </trkpt>
      <trkpt lat="40.6228" lon="19.99568">
        <ele>649.98999023438</ele>
        <time>2024-09-27T07:03:37.000Z</time>
      </trkpt>
      <trkpt lat="40.62275" lon="19.99562">
        <ele>650.95001220703</ele>
        <time>2024-09-27T07:03:38.000Z</time>
      </trkpt>
      <trkpt lat="40.6227" lon="19.99555">
        <ele>651.42999267578</ele>
        <time>2024-09-27T07:03:39.000Z</time>
      </trkpt>
      <trkpt lat="40.62263" lon="19.99547">
        <ele>652.86999511719</ele>
        <time>2024-09-27T07:03:40.000Z</time>
      </trkpt>
      <trkpt lat="40.62259" lon="19.99543">
        <ele>653.34997558594</ele>
        <time>2024-09-27T07:03:41.000Z</time>
      </trkpt>
      <trkpt lat="40.62254" lon="19.99539">
        <ele>653.83001708984</ele>
        <time>2024-09-27T07:03:42.000Z</time>
      </trkpt>
      <trkpt lat="40.62249" lon="19.99536">
        <ele>654.30999755859</ele>
        <time>2024-09-27T07:03:43.000Z</time>
      </trkpt>
      <trkpt lat="40.62246" lon="19.99534">
        <ele>654.79998779297</ele>
        <time>2024-09-27T07:03:44.000Z</time>
      </trkpt>
      <trkpt lat="40.62241" lon="19.99531">
        <ele>654.79998779297</ele>
        <time>2024-09-27T07:03:45.000Z</time>
      </trkpt>
      <trkpt lat="40.62237" lon="19.99529">
        <ele>655.28002929688</ele>
        <time>2024-09-27T07:03:46.000Z</time>
      </trkpt>
      <trkpt lat="40.62232" lon="19.99527">
        <ele>655.76000976562</ele>
        <time>2024-09-27T07:03:47.000Z</time>
      </trkpt>
      <trkpt lat="40.62227" lon="19.99523">
        <ele>656.23999023438</ele>
        <time>2024-09-27T07:03:48.000Z</time>
      </trkpt>
      <trkpt lat="40.62213" lon="19.99514">
        <ele>656.71997070312</ele>
        <time>2024-09-27T07:03:50.000Z</time>
      </trkpt>
      <trkpt lat="40.62207" lon="19.99508">
        <ele>656.71997070312</ele>
        <time>2024-09-27T07:03:51.000Z</time>
      </trkpt>
      <trkpt lat="40.62203" lon="19.99504">
        <ele>657.20001220703</ele>
        <time>2024-09-27T07:03:52.000Z</time>
      </trkpt>
      <trkpt lat="40.62198" lon="19.99498">
        <ele>658.15997314453</ele>
        <time>2024-09-27T07:03:53.000Z</time>
      </trkpt>
      <trkpt lat="40.62194" lon="19.99493">
        <ele>658.64001464844</ele>
        <time>2024-09-27T07:03:54.000Z</time>
      </trkpt>
      <trkpt lat="40.62191" lon="19.99488">
        <ele>659.11999511719</ele>
        <time>2024-09-27T07:03:55.000Z</time>
      </trkpt>
      <trkpt lat="40.62187" lon="19.99482">
        <ele>659.59997558594</ele>
        <time>2024-09-27T07:03:56.000Z</time>
      </trkpt>
      <trkpt lat="40.6218" lon="19.99466">
        <ele>660.08001708984</ele>
        <time>2024-09-27T07:03:58.000Z</time>
      </trkpt>
      <trkpt lat="40.62178" lon="19.99459">
        <ele>660.55999755859</ele>
        <time>2024-09-27T07:03:59.000Z</time>
      </trkpt>
      <trkpt lat="40.62177" lon="19.99458">
        <ele>660.55999755859</ele>
        <time>2024-09-27T07:04:00.000Z</time>
      </trkpt>
      <trkpt lat="40.62174" lon="19.99452">
        <ele>660.55999755859</ele>
        <time>2024-09-27T07:04:01.000Z</time>
      </trkpt>
      <trkpt lat="40.6217" lon="19.99447">
        <ele>661.03997802734</ele>
        <time>2024-09-27T07:04:02.000Z</time>
      </trkpt>
      <trkpt lat="40.62165" lon="19.99442">
        <ele>661.03997802734</ele>
        <time>2024-09-27T07:04:03.000Z</time>
      </trkpt>
      <trkpt lat="40.6216" lon="19.99438">
        <ele>661.03997802734</ele>
        <time>2024-09-27T07:04:04.000Z</time>
      </trkpt>
      <trkpt lat="40.62153" lon="19.99435">
        <ele>661.52001953125</ele>
        <time>2024-09-27T07:04:05.000Z</time>
      </trkpt>
      <trkpt lat="40.62146" lon="19.99434">
        <ele>661.03997802734</ele>
        <time>2024-09-27T07:04:06.000Z</time>
      </trkpt>
      <trkpt lat="40.62138" lon="19.99433">
        <ele>661.03997802734</ele>
        <time>2024-09-27T07:04:07.000Z</time>
      </trkpt>
      <trkpt lat="40.62133" lon="19.99433">
        <ele>661.52001953125</ele>
        <time>2024-09-27T07:04:08.000Z</time>
      </trkpt>
      <trkpt lat="40.62127" lon="19.99434">
        <ele>661.52001953125</ele>
        <time>2024-09-27T07:04:09.000Z</time>
      </trkpt>
      <trkpt lat="40.62121" lon="19.99437">
        <ele>661.52001953125</ele>
        <time>2024-09-27T07:04:10.000Z</time>
      </trkpt>
      <trkpt lat="40.62115" lon="19.99441">
        <ele>661.52001953125</ele>
        <time>2024-09-27T07:04:11.000Z</time>
      </trkpt>
      <trkpt lat="40.62108" lon="19.99448">
        <ele>661.52001953125</ele>
        <time>2024-09-27T07:04:12.000Z</time>
      </trkpt>
      <trkpt lat="40.62097" lon="19.99462">
        <ele>661.52001953125</ele>
        <time>2024-09-27T07:04:14.000Z</time>
      </trkpt>
      <trkpt lat="40.62091" lon="19.99469">
        <ele>661.52001953125</ele>
        <time>2024-09-27T07:04:15.000Z</time>
      </trkpt>
      <trkpt lat="40.62088" lon="19.99472">
        <ele>662.01000976562</ele>
        <time>2024-09-27T07:04:16.000Z</time>
      </trkpt>
      <trkpt lat="40.62083" lon="19.99478">
        <ele>661.52001953125</ele>
        <time>2024-09-27T07:04:17.000Z</time>
      </trkpt>
      <trkpt lat="40.62076" lon="19.99485">
        <ele>661.52001953125</ele>
        <time>2024-09-27T07:04:18.000Z</time>
      </trkpt>
      <trkpt lat="40.62074" lon="19.99486">
        <ele>661.52001953125</ele>
        <time>2024-09-27T07:04:19.000Z</time>
      </trkpt>
      <trkpt lat="40.62067" lon="19.99492">
        <ele>661.52001953125</ele>
        <time>2024-09-27T07:04:20.000Z</time>
      </trkpt>
      <trkpt lat="40.62063" lon="19.99495">
        <ele>661.52001953125</ele>
        <time>2024-09-27T07:04:21.000Z</time>
      </trkpt>
      <trkpt lat="40.62054" lon="19.995">
        <ele>661.03997802734</ele>
        <time>2024-09-27T07:04:22.000Z</time>
      </trkpt>
      <trkpt lat="40.62051" lon="19.99502">
        <ele>661.03997802734</ele>
        <time>2024-09-27T07:04:23.000Z</time>
      </trkpt>
      <trkpt lat="40.62045" lon="19.99506">
        <ele>660.55999755859</ele>
        <time>2024-09-27T07:04:24.000Z</time>
      </trkpt>
      <trkpt lat="40.62034" lon="19.99512">
        <ele>660.08001708984</ele>
        <time>2024-09-27T07:04:25.000Z</time>
      </trkpt>
      <trkpt lat="40.62033" lon="19.99512">
        <ele>660.08001708984</ele>
        <time>2024-09-27T07:04:26.000Z</time>
      </trkpt>
      <trkpt lat="40.62025" lon="19.99517">
        <ele>659.59997558594</ele>
        <time>2024-09-27T07:04:27.000Z</time>
      </trkpt>
      <trkpt lat="40.62021" lon="19.99521">
        <ele>659.59997558594</ele>
        <time>2024-09-27T07:04:28.000Z</time>
      </trkpt>
      <trkpt lat="40.62015" lon="19.99527">
        <ele>659.59997558594</ele>
        <time>2024-09-27T07:04:29.000Z</time>
      </trkpt>
      <trkpt lat="40.62011" lon="19.99532">
        <ele>659.59997558594</ele>
        <time>2024-09-27T07:04:30.000Z</time>
      </trkpt>
      <trkpt lat="40.62006" lon="19.99539">
        <ele>659.59997558594</ele>
        <time>2024-09-27T07:04:31.000Z</time>
      </trkpt>
      <trkpt lat="40.62001" lon="19.99547">
        <ele>659.59997558594</ele>
        <time>2024-09-27T07:04:32.000Z</time>
      </trkpt>
      <trkpt lat="40.61997" lon="19.99555">
        <ele>660.08001708984</ele>
        <time>2024-09-27T07:04:33.000Z</time>
      </trkpt>
      <trkpt lat="40.61992" lon="19.99565">
        <ele>660.08001708984</ele>
        <time>2024-09-27T07:04:34.000Z</time>
      </trkpt>
      <trkpt lat="40.6199" lon="19.9957">
        <ele>660.08001708984</ele>
        <time>2024-09-27T07:04:35.000Z</time>
      </trkpt>
      <trkpt lat="40.61987" lon="19.99578">
        <ele>660.08001708984</ele>
        <time>2024-09-27T07:04:36.000Z</time>
      </trkpt>
      <trkpt lat="40.61984" lon="19.99585">
        <ele>660.08001708984</ele>
        <time>2024-09-27T07:04:37.000Z</time>
      </trkpt>
      <trkpt lat="40.61981" lon="19.99592">
        <ele>660.55999755859</ele>
        <time>2024-09-27T07:04:38.000Z</time>
      </trkpt>
      <trkpt lat="40.61978" lon="19.99599">
        <ele>661.03997802734</ele>
        <time>2024-09-27T07:04:39.000Z</time>
      </trkpt>
      <trkpt lat="40.61971" lon="19.99613">
        <ele>661.03997802734</ele>
        <time>2024-09-27T07:04:40.000Z</time>
      </trkpt>
      <trkpt lat="40.61967" lon="19.99622">
        <ele>662.01000976562</ele>
        <time>2024-09-27T07:04:41.000Z</time>
      </trkpt>
      <trkpt lat="40.61966" lon="19.99624">
        <ele>662.01000976562</ele>
        <time>2024-09-27T07:04:42.000Z</time>
      </trkpt>
      <trkpt lat="40.61961" lon="19.99636">
        <ele>662.48999023438</ele>
        <time>2024-09-27T07:04:43.000Z</time>
      </trkpt>
      <trkpt lat="40.61956" lon="19.99645">
        <ele>662.96997070312</ele>
        <time>2024-09-27T07:04:44.000Z</time>
      </trkpt>
      <trkpt lat="40.61955" lon="19.99648">
        <ele>663.45001220703</ele>
        <time>2024-09-27T07:04:45.000Z</time>
      </trkpt>
      <trkpt lat="40.61953" lon="19.99653">
        <ele>663.45001220703</ele>
        <time>2024-09-27T07:04:46.000Z</time>
      </trkpt>
      <trkpt lat="40.61949" lon="19.99659">
        <ele>663.45001220703</ele>
        <time>2024-09-27T07:04:47.000Z</time>
      </trkpt>
      <trkpt lat="40.61946" lon="19.99666">
        <ele>663.92999267578</ele>
        <time>2024-09-27T07:04:48.000Z</time>
      </trkpt>
      <trkpt lat="40.61942" lon="19.99673">
        <ele>663.92999267578</ele>
        <time>2024-09-27T07:04:49.000Z</time>
      </trkpt>
      <trkpt lat="40.61937" lon="19.99682">
        <ele>664.40997314453</ele>
        <time>2024-09-27T07:04:50.000Z</time>
      </trkpt>
      <trkpt lat="40.61936" lon="19.99685">
        <ele>664.89001464844</ele>
        <time>2024-09-27T07:04:51.000Z</time>
      </trkpt>
      <trkpt lat="40.61932" lon="19.99693">
        <ele>665.84997558594</ele>
        <time>2024-09-27T07:04:52.000Z</time>
      </trkpt>
      <trkpt lat="40.61931" lon="19.99698">
        <ele>666.33001708984</ele>
        <time>2024-09-27T07:04:53.000Z</time>
      </trkpt>
      <trkpt lat="40.61926" lon="19.99711">
        <ele>667.28997802734</ele>
        <time>2024-09-27T07:04:55.000Z</time>
      </trkpt>
      <trkpt lat="40.61922" lon="19.99718">
        <ele>667.77001953125</ele>
        <time>2024-09-27T07:04:56.000Z</time>
      </trkpt>
      <trkpt lat="40.61919" lon="19.99724">
        <ele>668.25</ele>
        <time>2024-09-27T07:04:57.000Z</time>
      </trkpt>
      <trkpt lat="40.61917" lon="19.99729">
        <ele>668.72998046875</ele>
        <time>2024-09-27T07:04:58.000Z</time>
      </trkpt>
      <trkpt lat="40.61912" lon="19.99741">
        <ele>669.70001220703</ele>
        <time>2024-09-27T07:04:59.000Z</time>
      </trkpt>
      <trkpt lat="40.6191" lon="19.99745">
        <ele>669.70001220703</ele>
        <time>2024-09-27T07:05:00.000Z</time>
      </trkpt>
      <trkpt lat="40.61908" lon="19.99749">
        <ele>670.17999267578</ele>
        <time>2024-09-27T07:05:01.000Z</time>
      </trkpt>
      <trkpt lat="40.61902" lon="19.99758">
        <ele>670.17999267578</ele>
        <time>2024-09-27T07:05:02.000Z</time>
      </trkpt>
      <trkpt lat="40.61899" lon="19.99762">
        <ele>670.17999267578</ele>
        <time>2024-09-27T07:05:03.000Z</time>
      </trkpt>
      <trkpt lat="40.61893" lon="19.99771">
        <ele>670.17999267578</ele>
        <time>2024-09-27T07:05:04.000Z</time>
      </trkpt>
      <trkpt lat="40.61881" lon="19.99792">
        <ele>671.14001464844</ele>
        <time>2024-09-27T07:05:07.000Z</time>
      </trkpt>
      <trkpt lat="40.61878" lon="19.99797">
        <ele>671.14001464844</ele>
        <time>2024-09-27T07:05:08.000Z</time>
      </trkpt>
      <trkpt lat="40.61874" lon="19.99804">
        <ele>671.14001464844</ele>
        <time>2024-09-27T07:05:09.000Z</time>
      </trkpt>
      <trkpt lat="40.61869" lon="19.99813">
        <ele>671.61999511719</ele>
        <time>2024-09-27T07:05:11.000Z</time>
      </trkpt>
      <trkpt lat="40.61864" lon="19.99823">
        <ele>671.61999511719</ele>
        <time>2024-09-27T07:05:12.000Z</time>
      </trkpt>
      <trkpt lat="40.6186" lon="19.9983">
        <ele>672.09997558594</ele>
        <time>2024-09-27T07:05:13.000Z</time>
      </trkpt>
      <trkpt lat="40.61858" lon="19.99833">
        <ele>672.09997558594</ele>
        <time>2024-09-27T07:05:14.000Z</time>
      </trkpt>
      <trkpt lat="40.61855" lon="19.9984">
        <ele>672.09997558594</ele>
        <time>2024-09-27T07:05:15.000Z</time>
      </trkpt>
      <trkpt lat="40.61853" lon="19.99847">
        <ele>672.58001708984</ele>
        <time>2024-09-27T07:05:16.000Z</time>
      </trkpt>
      <trkpt lat="40.61852" lon="19.99853">
        <ele>672.58001708984</ele>
        <time>2024-09-27T07:05:17.000Z</time>
      </trkpt>
      <trkpt lat="40.61851" lon="19.99861">
        <ele>673.05999755859</ele>
        <time>2024-09-27T07:05:18.000Z</time>
      </trkpt>
      <trkpt lat="40.61852" lon="19.99869">
        <ele>673.05999755859</ele>
        <time>2024-09-27T07:05:19.000Z</time>
      </trkpt>
      <trkpt lat="40.61853" lon="19.99875">
        <ele>673.53997802734</ele>
        <time>2024-09-27T07:05:20.000Z</time>
      </trkpt>
      <trkpt lat="40.61855" lon="19.99883">
        <ele>673.53997802734</ele>
        <time>2024-09-27T07:05:21.000Z</time>
      </trkpt>
      <trkpt lat="40.61857" lon="19.9989">
        <ele>674.02001953125</ele>
        <time>2024-09-27T07:05:22.000Z</time>
      </trkpt>
      <trkpt lat="40.61858" lon="19.99895">
        <ele>674.02001953125</ele>
        <time>2024-09-27T07:05:23.000Z</time>
      </trkpt>
      <trkpt lat="40.61859" lon="19.99906">
        <ele>674.5</ele>
        <time>2024-09-27T07:05:24.000Z</time>
      </trkpt>
      <trkpt lat="40.6186" lon="19.99909">
        <ele>674.97998046875</ele>
        <time>2024-09-27T07:05:25.000Z</time>
      </trkpt>
      <trkpt lat="40.61861" lon="19.99915">
        <ele>674.97998046875</ele>
        <time>2024-09-27T07:05:26.000Z</time>
      </trkpt>
      <trkpt lat="40.61861" lon="19.99919">
        <ele>674.97998046875</ele>
        <time>2024-09-27T07:05:27.000Z</time>
      </trkpt>
      <trkpt lat="40.61861" lon="19.99925">
        <ele>674.97998046875</ele>
        <time>2024-09-27T07:05:28.000Z</time>
      </trkpt>
      <trkpt lat="40.61861" lon="19.99931">
        <ele>675.46002197266</ele>
        <time>2024-09-27T07:05:29.000Z</time>
      </trkpt>
      <trkpt lat="40.6186" lon="19.99936">
        <ele>675.94000244141</ele>
        <time>2024-09-27T07:05:30.000Z</time>
      </trkpt>
      <trkpt lat="40.61858" lon="19.99941">
        <ele>675.94000244141</ele>
        <time>2024-09-27T07:05:31.000Z</time>
      </trkpt>
      <trkpt lat="40.61855" lon="19.99946">
        <ele>676.41998291016</ele>
        <time>2024-09-27T07:05:32.000Z</time>
      </trkpt>
      <trkpt lat="40.61851" lon="19.9995">
        <ele>676.90997314453</ele>
        <time>2024-09-27T07:05:33.000Z</time>
      </trkpt>
      <trkpt lat="40.61844" lon="19.99957">
        <ele>677.86999511719</ele>
        <time>2024-09-27T07:05:35.000Z</time>
      </trkpt>
      <trkpt lat="40.61839" lon="19.9996">
        <ele>678.34997558594</ele>
        <time>2024-09-27T07:05:36.000Z</time>
      </trkpt>
      <trkpt lat="40.61835" lon="19.99961">
        <ele>678.83001708984</ele>
        <time>2024-09-27T07:05:37.000Z</time>
      </trkpt>
      <trkpt lat="40.61831" lon="19.99961">
        <ele>679.30999755859</ele>
        <time>2024-09-27T07:05:38.000Z</time>
      </trkpt>
      <trkpt lat="40.61825" lon="19.9996">
        <ele>679.78997802734</ele>
        <time>2024-09-27T07:05:39.000Z</time>
      </trkpt>
      <trkpt lat="40.61824" lon="19.9996">
        <ele>679.78997802734</ele>
        <time>2024-09-27T07:05:40.000Z</time>
      </trkpt>
      <trkpt lat="40.61817" lon="19.9996">
        <ele>680.75</ele>
        <time>2024-09-27T07:05:41.000Z</time>
      </trkpt>
      <trkpt lat="40.61815" lon="19.9996">
        <ele>681.22998046875</ele>
        <time>2024-09-27T07:05:42.000Z</time>
      </trkpt>
      <trkpt lat="40.6181" lon="19.99959">
        <ele>681.71002197266</ele>
        <time>2024-09-27T07:05:43.000Z</time>
      </trkpt>
      <trkpt lat="40.61803" lon="19.99959">
        <ele>682.66998291016</ele>
        <time>2024-09-27T07:05:44.000Z</time>
      </trkpt>
      <trkpt lat="40.61801" lon="19.99958">
        <ele>683.15002441406</ele>
        <time>2024-09-27T07:05:45.000Z</time>
      </trkpt>
      <trkpt lat="40.61797" lon="19.99958">
        <ele>683.63000488281</ele>
        <time>2024-09-27T07:05:46.000Z</time>
      </trkpt>
      <trkpt lat="40.6179" lon="19.99957">
        <ele>684.59997558594</ele>
        <time>2024-09-27T07:05:47.000Z</time>
      </trkpt>
      <trkpt lat="40.61789" lon="19.99957">
        <ele>684.59997558594</ele>
        <time>2024-09-27T07:05:48.000Z</time>
      </trkpt>
      <trkpt lat="40.61786" lon="19.99956">
        <ele>685.08001708984</ele>
        <time>2024-09-27T07:05:49.000Z</time>
      </trkpt>
      <trkpt lat="40.6178" lon="19.99955">
        <ele>685.55999755859</ele>
        <time>2024-09-27T07:05:50.000Z</time>
      </trkpt>
      <trkpt lat="40.61776" lon="19.99955">
        <ele>686.52001953125</ele>
        <time>2024-09-27T07:05:51.000Z</time>
      </trkpt>
      <trkpt lat="40.61771" lon="19.99956">
        <ele>687</ele>
        <time>2024-09-27T07:05:52.000Z</time>
      </trkpt>
      <trkpt lat="40.61767" lon="19.99957">
        <ele>687.47998046875</ele>
        <time>2024-09-27T07:05:53.000Z</time>
      </trkpt>
      <trkpt lat="40.61761" lon="19.99959">
        <ele>688.44000244141</ele>
        <time>2024-09-27T07:05:54.000Z</time>
      </trkpt>
      <trkpt lat="40.61757" lon="19.99961">
        <ele>688.91998291016</ele>
        <time>2024-09-27T07:05:55.000Z</time>
      </trkpt>
      <trkpt lat="40.61752" lon="19.99965">
        <ele>689.88000488281</ele>
        <time>2024-09-27T07:05:56.000Z</time>
      </trkpt>
      <trkpt lat="40.61749" lon="19.99967">
        <ele>689.88000488281</ele>
        <time>2024-09-27T07:05:57.000Z</time>
      </trkpt>
      <trkpt lat="40.61743" lon="19.99973">
        <ele>690.84002685547</ele>
        <time>2024-09-27T07:05:58.000Z</time>
      </trkpt>
      <trkpt lat="40.6174" lon="19.99976">
        <ele>690.84002685547</ele>
        <time>2024-09-27T07:05:59.000Z</time>
      </trkpt>
      <trkpt lat="40.61737" lon="19.99979">
        <ele>691.33001708984</ele>
        <time>2024-09-27T07:06:00.000Z</time>
      </trkpt>
      <trkpt lat="40.61734" lon="19.99983">
        <ele>691.80999755859</ele>
        <time>2024-09-27T07:06:01.000Z</time>
      </trkpt>
      <trkpt lat="40.6173" lon="19.99988">
        <ele>691.80999755859</ele>
        <time>2024-09-27T07:06:02.000Z</time>
      </trkpt>
      <trkpt lat="40.61726" lon="19.99993">
        <ele>691.80999755859</ele>
        <time>2024-09-27T07:06:03.000Z</time>
      </trkpt>
      <trkpt lat="40.61719" lon="20.00003">
        <ele>692.28997802734</ele>
        <time>2024-09-27T07:06:04.000Z</time>
      </trkpt>
      <trkpt lat="40.61717" lon="20.00006">
        <ele>692.77001953125</ele>
        <time>2024-09-27T07:06:05.000Z</time>
      </trkpt>
      <trkpt lat="40.61709" lon="20.00019">
        <ele>693.72998046875</ele>
        <time>2024-09-27T07:06:07.000Z</time>
      </trkpt>
      <trkpt lat="40.61707" lon="20.00021">
        <ele>693.72998046875</ele>
        <time>2024-09-27T07:06:08.000Z</time>
      </trkpt>
      <trkpt lat="40.61703" lon="20.00027">
        <ele>694.21002197266</ele>
        <time>2024-09-27T07:06:09.000Z</time>
      </trkpt>
      <trkpt lat="40.61698" lon="20.00032">
        <ele>694.69000244141</ele>
        <time>2024-09-27T07:06:10.000Z</time>
      </trkpt>
      <trkpt lat="40.61694" lon="20.00036">
        <ele>695.16998291016</ele>
        <time>2024-09-27T07:06:11.000Z</time>
      </trkpt>
      <trkpt lat="40.6169" lon="20.0004">
        <ele>695.16998291016</ele>
        <time>2024-09-27T07:06:12.000Z</time>
      </trkpt>
      <trkpt lat="40.61685" lon="20.00043">
        <ele>695.65002441406</ele>
        <time>2024-09-27T07:06:13.000Z</time>
      </trkpt>
      <trkpt lat="40.61679" lon="20.00044">
        <ele>695.65002441406</ele>
        <time>2024-09-27T07:06:14.000Z</time>
      </trkpt>
      <trkpt lat="40.61674" lon="20.00045">
        <ele>696.13000488281</ele>
        <time>2024-09-27T07:06:15.000Z</time>
      </trkpt>
      <trkpt lat="40.61667" lon="20.00044">
        <ele>696.60998535156</ele>
        <time>2024-09-27T07:06:16.000Z</time>
      </trkpt>
      <trkpt lat="40.6166" lon="20.00042">
        <ele>697.09002685547</ele>
        <time>2024-09-27T07:06:17.000Z</time>
      </trkpt>
      <trkpt lat="40.6165" lon="20.00039">
        <ele>697.09002685547</ele>
        <time>2024-09-27T07:06:18.000Z</time>
      </trkpt>
      <trkpt lat="40.61647" lon="20.00038">
        <ele>697.09002685547</ele>
        <time>2024-09-27T07:06:19.000Z</time>
      </trkpt>
      <trkpt lat="40.61638" lon="20.00035">
        <ele>697.09002685547</ele>
        <time>2024-09-27T07:06:20.000Z</time>
      </trkpt>
      <trkpt lat="40.61629" lon="20.00032">
        <ele>697.09002685547</ele>
        <time>2024-09-27T07:06:21.000Z</time>
      </trkpt>
      <trkpt lat="40.61623" lon="20.00029">
        <ele>697.09002685547</ele>
        <time>2024-09-27T07:06:22.000Z</time>
      </trkpt>
      <trkpt lat="40.61621" lon="20.00028">
        <ele>697.09002685547</ele>
        <time>2024-09-27T07:06:23.000Z</time>
      </trkpt>
      <trkpt lat="40.61608" lon="20.00023">
        <ele>697.09002685547</ele>
        <time>2024-09-27T07:06:25.000Z</time>
      </trkpt>
      <trkpt lat="40.61602" lon="20.0002">
        <ele>697.09002685547</ele>
        <time>2024-09-27T07:06:26.000Z</time>
      </trkpt>
      <trkpt lat="40.61594" lon="20.00018">
        <ele>697.09002685547</ele>
        <time>2024-09-27T07:06:27.000Z</time>
      </trkpt>
      <trkpt lat="40.61589" lon="20.00017">
        <ele>696.60998535156</ele>
        <time>2024-09-27T07:06:28.000Z</time>
      </trkpt>
      <trkpt lat="40.61582" lon="20.00017">
        <ele>697.09002685547</ele>
        <time>2024-09-27T07:06:29.000Z</time>
      </trkpt>
      <trkpt lat="40.61574" lon="20.00017">
        <ele>697.09002685547</ele>
        <time>2024-09-27T07:06:30.000Z</time>
      </trkpt>
      <trkpt lat="40.61568" lon="20.00018">
        <ele>697.57000732422</ele>
        <time>2024-09-27T07:06:31.000Z</time>
      </trkpt>
      <trkpt lat="40.61561" lon="20.0002">
        <ele>697.57000732422</ele>
        <time>2024-09-27T07:06:32.000Z</time>
      </trkpt>
      <trkpt lat="40.61551" lon="20.00025">
        <ele>698.04998779297</ele>
        <time>2024-09-27T07:06:33.000Z</time>
      </trkpt>
      <trkpt lat="40.61547" lon="20.00028">
        <ele>698.04998779297</ele>
        <time>2024-09-27T07:06:34.000Z</time>
      </trkpt>
      <trkpt lat="40.61541" lon="20.00032">
        <ele>697.57000732422</ele>
        <time>2024-09-27T07:06:35.000Z</time>
      </trkpt>
      <trkpt lat="40.61537" lon="20.00034">
        <ele>697.57000732422</ele>
        <time>2024-09-27T07:06:36.000Z</time>
      </trkpt>
      <trkpt lat="40.61533" lon="20.00037">
        <ele>697.57000732422</ele>
        <time>2024-09-27T07:06:37.000Z</time>
      </trkpt>
      <trkpt lat="40.6153" lon="20.00038">
        <ele>697.09002685547</ele>
        <time>2024-09-27T07:06:38.000Z</time>
      </trkpt>
      <trkpt lat="40.61526" lon="20.0004">
        <ele>697.09002685547</ele>
        <time>2024-09-27T07:06:39.000Z</time>
      </trkpt>
      <trkpt lat="40.6152" lon="20.00042">
        <ele>696.60998535156</ele>
        <time>2024-09-27T07:06:40.000Z</time>
      </trkpt>
      <trkpt lat="40.61518" lon="20.00042">
        <ele>696.13000488281</ele>
        <time>2024-09-27T07:06:41.000Z</time>
      </trkpt>
      <trkpt lat="40.61514" lon="20.00041">
        <ele>695.65002441406</ele>
        <time>2024-09-27T07:06:42.000Z</time>
      </trkpt>
      <trkpt lat="40.61509" lon="20.00039">
        <ele>694.69000244141</ele>
        <time>2024-09-27T07:06:43.000Z</time>
      </trkpt>
      <trkpt lat="40.61505" lon="20.00036">
        <ele>694.21002197266</ele>
        <time>2024-09-27T07:06:44.000Z</time>
      </trkpt>
      <trkpt lat="40.615" lon="20.00033">
        <ele>693.72998046875</ele>
        <time>2024-09-27T07:06:45.000Z</time>
      </trkpt>
      <trkpt lat="40.61496" lon="20.00029">
        <ele>693.25</ele>
        <time>2024-09-27T07:06:46.000Z</time>
      </trkpt>
      <trkpt lat="40.61492" lon="20.00025">
        <ele>693.72998046875</ele>
        <time>2024-09-27T07:06:47.000Z</time>
      </trkpt>
      <trkpt lat="40.61488" lon="20.00022">
        <ele>693.72998046875</ele>
        <time>2024-09-27T07:06:48.000Z</time>
      </trkpt>
      <trkpt lat="40.61483" lon="20.00019">
        <ele>693.25</ele>
        <time>2024-09-27T07:06:49.000Z</time>
      </trkpt>
      <trkpt lat="40.61477" lon="20.00017">
        <ele>693.25</ele>
        <time>2024-09-27T07:06:50.000Z</time>
      </trkpt>
      <trkpt lat="40.61473" lon="20.00015">
        <ele>692.77001953125</ele>
        <time>2024-09-27T07:06:51.000Z</time>
      </trkpt>
      <trkpt lat="40.61467" lon="20.00014">
        <ele>692.28997802734</ele>
        <time>2024-09-27T07:06:52.000Z</time>
      </trkpt>
      <trkpt lat="40.61461" lon="20.00013">
        <ele>692.28997802734</ele>
        <time>2024-09-27T07:06:53.000Z</time>
      </trkpt>
      <trkpt lat="40.61452" lon="20.00012">
        <ele>692.28997802734</ele>
        <time>2024-09-27T07:06:55.000Z</time>
      </trkpt>
      <trkpt lat="40.61449" lon="20.00012">
        <ele>692.28997802734</ele>
        <time>2024-09-27T07:06:56.000Z</time>
      </trkpt>
      <trkpt lat="40.61445" lon="20.00012">
        <ele>692.77001953125</ele>
        <time>2024-09-27T07:06:57.000Z</time>
      </trkpt>
      <trkpt lat="40.6144" lon="20.00014">
        <ele>692.77001953125</ele>
        <time>2024-09-27T07:06:58.000Z</time>
      </trkpt>
      <trkpt lat="40.61436" lon="20.00016">
        <ele>692.77001953125</ele>
        <time>2024-09-27T07:06:59.000Z</time>
      </trkpt>
      <trkpt lat="40.61432" lon="20.00018">
        <ele>693.25</ele>
        <time>2024-09-27T07:07:00.000Z</time>
      </trkpt>
      <trkpt lat="40.61429" lon="20.00021">
        <ele>693.25</ele>
        <time>2024-09-27T07:07:01.000Z</time>
      </trkpt>
      <trkpt lat="40.61422" lon="20.00026">
        <ele>694.21002197266</ele>
        <time>2024-09-27T07:07:02.000Z</time>
      </trkpt>
      <trkpt lat="40.61421" lon="20.00028">
        <ele>694.21002197266</ele>
        <time>2024-09-27T07:07:03.000Z</time>
      </trkpt>
      <trkpt lat="40.61418" lon="20.00031">
        <ele>694.69000244141</ele>
        <time>2024-09-27T07:07:04.000Z</time>
      </trkpt>
      <trkpt lat="40.61415" lon="20.00035">
        <ele>695.16998291016</ele>
        <time>2024-09-27T07:07:05.000Z</time>
      </trkpt>
      <trkpt lat="40.61409" lon="20.0004">
        <ele>695.65002441406</ele>
        <time>2024-09-27T07:07:06.000Z</time>
      </trkpt>
      <trkpt lat="40.61405" lon="20.00045">
        <ele>696.13000488281</ele>
        <time>2024-09-27T07:07:07.000Z</time>
      </trkpt>
      <trkpt lat="40.61401" lon="20.00048">
        <ele>696.60998535156</ele>
        <time>2024-09-27T07:07:08.000Z</time>
      </trkpt>
      <trkpt lat="40.61396" lon="20.00053">
        <ele>697.09002685547</ele>
        <time>2024-09-27T07:07:09.000Z</time>
      </trkpt>
      <trkpt lat="40.61391" lon="20.00058">
        <ele>697.57000732422</ele>
        <time>2024-09-27T07:07:10.000Z</time>
      </trkpt>
      <trkpt lat="40.61386" lon="20.00064">
        <ele>698.53002929688</ele>
        <time>2024-09-27T07:07:11.000Z</time>
      </trkpt>
      <trkpt lat="40.61381" lon="20.00069">
        <ele>699.02001953125</ele>
        <time>2024-09-27T07:07:12.000Z</time>
      </trkpt>
      <trkpt lat="40.61375" lon="20.00075">
        <ele>700.46002197266</ele>
        <time>2024-09-27T07:07:13.000Z</time>
      </trkpt>
      <trkpt lat="40.61371" lon="20.00079">
        <ele>700.94000244141</ele>
        <time>2024-09-27T07:07:14.000Z</time>
      </trkpt>
      <trkpt lat="40.61367" lon="20.00082">
        <ele>701.41998291016</ele>
        <time>2024-09-27T07:07:15.000Z</time>
      </trkpt>
      <trkpt lat="40.6136" lon="20.00089">
        <ele>701.90002441406</ele>
        <time>2024-09-27T07:07:16.000Z</time>
      </trkpt>
      <trkpt lat="40.61358" lon="20.00092">
        <ele>701.90002441406</ele>
        <time>2024-09-27T07:07:17.000Z</time>
      </trkpt>
      <trkpt lat="40.61353" lon="20.00095">
        <ele>702.38000488281</ele>
        <time>2024-09-27T07:07:18.000Z</time>
      </trkpt>
      <trkpt lat="40.61347" lon="20.001">
        <ele>703.34002685547</ele>
        <time>2024-09-27T07:07:19.000Z</time>
      </trkpt>
      <trkpt lat="40.61343" lon="20.00104">
        <ele>703.82000732422</ele>
        <time>2024-09-27T07:07:20.000Z</time>
      </trkpt>
      <trkpt lat="40.61338" lon="20.00109">
        <ele>704.29998779297</ele>
        <time>2024-09-27T07:07:21.000Z</time>
      </trkpt>
      <trkpt lat="40.61321" lon="20.00128">
        <ele>705.26000976562</ele>
        <time>2024-09-27T07:07:24.000Z</time>
      </trkpt>
      <trkpt lat="40.61319" lon="20.0013">
        <ele>705.26000976562</ele>
        <time>2024-09-27T07:07:25.000Z</time>
      </trkpt>
      <trkpt lat="40.61315" lon="20.00134">
        <ele>705.75</ele>
        <time>2024-09-27T07:07:26.000Z</time>
      </trkpt>
      <trkpt lat="40.61304" lon="20.00149">
        <ele>706.71002197266</ele>
        <time>2024-09-27T07:07:28.000Z</time>
      </trkpt>
      <trkpt lat="40.61301" lon="20.00153">
        <ele>707.19000244141</ele>
        <time>2024-09-27T07:07:29.000Z</time>
      </trkpt>
      <trkpt lat="40.61296" lon="20.0016">
        <ele>707.66998291016</ele>
        <time>2024-09-27T07:07:30.000Z</time>
      </trkpt>
      <trkpt lat="40.61289" lon="20.00166">
        <ele>707.66998291016</ele>
        <time>2024-09-27T07:07:31.000Z</time>
      </trkpt>
      <trkpt lat="40.61285" lon="20.0017">
        <ele>707.66998291016</ele>
        <time>2024-09-27T07:07:32.000Z</time>
      </trkpt>
      <trkpt lat="40.61272" lon="20.00178">
        <ele>707.66998291016</ele>
        <time>2024-09-27T07:07:34.000Z</time>
      </trkpt>
      <trkpt lat="40.61259" lon="20.00184">
        <ele>707.66998291016</ele>
        <time>2024-09-27T07:07:36.000Z</time>
      </trkpt>
      <trkpt lat="40.61254" lon="20.00187">
        <ele>707.19000244141</ele>
        <time>2024-09-27T07:07:37.000Z</time>
      </trkpt>
      <trkpt lat="40.61249" lon="20.00188">
        <ele>707.19000244141</ele>
        <time>2024-09-27T07:07:38.000Z</time>
      </trkpt>
      <trkpt lat="40.61241" lon="20.0019">
        <ele>706.71002197266</ele>
        <time>2024-09-27T07:07:39.000Z</time>
      </trkpt>
      <trkpt lat="40.61226" lon="20.00193">
        <ele>706.22998046875</ele>
        <time>2024-09-27T07:07:41.000Z</time>
      </trkpt>
      <trkpt lat="40.61223" lon="20.00194">
        <ele>706.22998046875</ele>
        <time>2024-09-27T07:07:42.000Z</time>
      </trkpt>
      <trkpt lat="40.61217" lon="20.00196">
        <ele>706.22998046875</ele>
        <time>2024-09-27T07:07:43.000Z</time>
      </trkpt>
      <trkpt lat="40.61211" lon="20.00199">
        <ele>706.22998046875</ele>
        <time>2024-09-27T07:07:44.000Z</time>
      </trkpt>
      <trkpt lat="40.61205" lon="20.00202">
        <ele>706.22998046875</ele>
        <time>2024-09-27T07:07:45.000Z</time>
      </trkpt>
      <trkpt lat="40.61198" lon="20.00206">
        <ele>706.71002197266</ele>
        <time>2024-09-27T07:07:46.000Z</time>
      </trkpt>
      <trkpt lat="40.61174" lon="20.00225">
        <ele>706.71002197266</ele>
        <time>2024-09-27T07:07:49.000Z</time>
      </trkpt>
      <trkpt lat="40.6117" lon="20.00228">
        <ele>706.71002197266</ele>
        <time>2024-09-27T07:07:50.000Z</time>
      </trkpt>
      <trkpt lat="40.61162" lon="20.00232">
        <ele>706.71002197266</ele>
        <time>2024-09-27T07:07:51.000Z</time>
      </trkpt>
      <trkpt lat="40.61129" lon="20.00241">
        <ele>707.66998291016</ele>
        <time>2024-09-27T07:07:55.000Z</time>
      </trkpt>
      <trkpt lat="40.61118" lon="20.00245">
        <ele>708.15002441406</ele>
        <time>2024-09-27T07:07:56.000Z</time>
      </trkpt>
      <trkpt lat="40.61115" lon="20.00246">
        <ele>708.63000488281</ele>
        <time>2024-09-27T07:07:57.000Z</time>
      </trkpt>
      <trkpt lat="40.61107" lon="20.0025">
        <ele>708.63000488281</ele>
        <time>2024-09-27T07:07:58.000Z</time>
      </trkpt>
      <trkpt lat="40.61102" lon="20.00252">
        <ele>708.63000488281</ele>
        <time>2024-09-27T07:07:59.000Z</time>
      </trkpt>
      <trkpt lat="40.61098" lon="20.00254">
        <ele>708.63000488281</ele>
        <time>2024-09-27T07:08:00.000Z</time>
      </trkpt>
      <trkpt lat="40.61093" lon="20.00254">
        <ele>708.63000488281</ele>
        <time>2024-09-27T07:08:01.000Z</time>
      </trkpt>
      <trkpt lat="40.61086" lon="20.00254">
        <ele>708.63000488281</ele>
        <time>2024-09-27T07:08:02.000Z</time>
      </trkpt>
      <trkpt lat="40.61079" lon="20.00253">
        <ele>708.63000488281</ele>
        <time>2024-09-27T07:08:03.000Z</time>
      </trkpt>
      <trkpt lat="40.61072" lon="20.0025">
        <ele>708.63000488281</ele>
        <time>2024-09-27T07:08:04.000Z</time>
      </trkpt>
      <trkpt lat="40.61066" lon="20.00245">
        <ele>708.63000488281</ele>
        <time>2024-09-27T07:08:05.000Z</time>
      </trkpt>
      <trkpt lat="40.6106" lon="20.00237">
        <ele>708.63000488281</ele>
        <time>2024-09-27T07:08:06.000Z</time>
      </trkpt>
      <trkpt lat="40.61056" lon="20.00231">
        <ele>709.10998535156</ele>
        <time>2024-09-27T07:08:07.000Z</time>
      </trkpt>
      <trkpt lat="40.6105" lon="20.00223">
        <ele>710.07000732422</ele>
        <time>2024-09-27T07:08:08.000Z</time>
      </trkpt>
      <trkpt lat="40.61046" lon="20.00217">
        <ele>710.54998779297</ele>
        <time>2024-09-27T07:08:09.000Z</time>
      </trkpt>
      <trkpt lat="40.61041" lon="20.00211">
        <ele>711.03002929688</ele>
        <time>2024-09-27T07:08:10.000Z</time>
      </trkpt>
      <trkpt lat="40.61036" lon="20.00206">
        <ele>711.98999023438</ele>
        <time>2024-09-27T07:08:11.000Z</time>
      </trkpt>
      <trkpt lat="40.6103" lon="20.00202">
        <ele>712.95001220703</ele>
        <time>2024-09-27T07:08:12.000Z</time>
      </trkpt>
      <trkpt lat="40.61023" lon="20.00198">
        <ele>712.95001220703</ele>
        <time>2024-09-27T07:08:13.000Z</time>
      </trkpt>
      <trkpt lat="40.61015" lon="20.00195">
        <ele>713.44000244141</ele>
        <time>2024-09-27T07:08:14.000Z</time>
      </trkpt>
      <trkpt lat="40.60999" lon="20.00188">
        <ele>713.44000244141</ele>
        <time>2024-09-27T07:08:16.000Z</time>
      </trkpt>
      <trkpt lat="40.60994" lon="20.00186">
        <ele>712.95001220703</ele>
        <time>2024-09-27T07:08:17.000Z</time>
      </trkpt>
      <trkpt lat="40.60989" lon="20.00183">
        <ele>712.95001220703</ele>
        <time>2024-09-27T07:08:18.000Z</time>
      </trkpt>
      <trkpt lat="40.60956" lon="20.00167">
        <ele>711.98999023438</ele>
        <time>2024-09-27T07:08:22.000Z</time>
      </trkpt>
      <trkpt lat="40.60946" lon="20.00163">
        <ele>711.98999023438</ele>
        <time>2024-09-27T07:08:23.000Z</time>
      </trkpt>
      <trkpt lat="40.60943" lon="20.00162">
        <ele>711.98999023438</ele>
        <time>2024-09-27T07:08:24.000Z</time>
      </trkpt>
      <trkpt lat="40.60928" lon="20.0016">
        <ele>712.95001220703</ele>
        <time>2024-09-27T07:08:26.000Z</time>
      </trkpt>
      <trkpt lat="40.60916" lon="20.00158">
        <ele>713.44000244141</ele>
        <time>2024-09-27T07:08:27.000Z</time>
      </trkpt>
      <trkpt lat="40.60912" lon="20.00158">
        <ele>713.91998291016</ele>
        <time>2024-09-27T07:08:28.000Z</time>
      </trkpt>
      <trkpt lat="40.60904" lon="20.00157">
        <ele>714.40002441406</ele>
        <time>2024-09-27T07:08:29.000Z</time>
      </trkpt>
      <trkpt lat="40.60897" lon="20.00157">
        <ele>714.88000488281</ele>
        <time>2024-09-27T07:08:30.000Z</time>
      </trkpt>
      <trkpt lat="40.60886" lon="20.00154">
        <ele>716.32000732422</ele>
        <time>2024-09-27T07:08:31.000Z</time>
      </trkpt>
      <trkpt lat="40.60882" lon="20.00154">
        <ele>716.32000732422</ele>
        <time>2024-09-27T07:08:32.000Z</time>
      </trkpt>
      <trkpt lat="40.60876" lon="20.00152">
        <ele>716.79998779297</ele>
        <time>2024-09-27T07:08:33.000Z</time>
      </trkpt>
      <trkpt lat="40.60866" lon="20.00152">
        <ele>717.28002929688</ele>
        <time>2024-09-27T07:08:34.000Z</time>
      </trkpt>
      <trkpt lat="40.6085" lon="20.00152">
        <ele>718.23999023438</ele>
        <time>2024-09-27T07:08:36.000Z</time>
      </trkpt>
      <trkpt lat="40.6083" lon="20.00151">
        <ele>720.15997314453</ele>
        <time>2024-09-27T07:08:39.000Z</time>
      </trkpt>
      <trkpt lat="40.60823" lon="20.0015">
        <ele>721.13000488281</ele>
        <time>2024-09-27T07:08:40.000Z</time>
      </trkpt>
      <trkpt lat="40.6081" lon="20.0015">
        <ele>721.60998535156</ele>
        <time>2024-09-27T07:08:42.000Z</time>
      </trkpt>
      <trkpt lat="40.60795" lon="20.0015">
        <ele>723.04998779297</ele>
        <time>2024-09-27T07:08:44.000Z</time>
      </trkpt>
      <trkpt lat="40.60789" lon="20.0015">
        <ele>723.53002929688</ele>
        <time>2024-09-27T07:08:45.000Z</time>
      </trkpt>
      <trkpt lat="40.60781" lon="20.00149">
        <ele>724.01000976562</ele>
        <time>2024-09-27T07:08:46.000Z</time>
      </trkpt>
      <trkpt lat="40.60771" lon="20.00148">
        <ele>724.96997070312</ele>
        <time>2024-09-27T07:08:47.000Z</time>
      </trkpt>
      <trkpt lat="40.60764" lon="20.00147">
        <ele>725.45001220703</ele>
        <time>2024-09-27T07:08:48.000Z</time>
      </trkpt>
      <trkpt lat="40.60759" lon="20.00145">
        <ele>725.92999267578</ele>
        <time>2024-09-27T07:08:49.000Z</time>
      </trkpt>
      <trkpt lat="40.60752" lon="20.00142">
        <ele>726.40997314453</ele>
        <time>2024-09-27T07:08:50.000Z</time>
      </trkpt>
      <trkpt lat="40.60746" lon="20.00138">
        <ele>726.89001464844</ele>
        <time>2024-09-27T07:08:51.000Z</time>
      </trkpt>
      <trkpt lat="40.60739" lon="20.00133">
        <ele>727.36999511719</ele>
        <time>2024-09-27T07:08:52.000Z</time>
      </trkpt>
      <trkpt lat="40.6073" lon="20.00127">
        <ele>727.85998535156</ele>
        <time>2024-09-27T07:08:53.000Z</time>
      </trkpt>
      <trkpt lat="40.60723" lon="20.00122">
        <ele>727.85998535156</ele>
        <time>2024-09-27T07:08:54.000Z</time>
      </trkpt>
      <trkpt lat="40.60719" lon="20.0012">
        <ele>728.34002685547</ele>
        <time>2024-09-27T07:08:55.000Z</time>
      </trkpt>
      <trkpt lat="40.60711" lon="20.00116">
        <ele>728.82000732422</ele>
        <time>2024-09-27T07:08:56.000Z</time>
      </trkpt>
      <trkpt lat="40.60702" lon="20.00113">
        <ele>728.82000732422</ele>
        <time>2024-09-27T07:08:57.000Z</time>
      </trkpt>
      <trkpt lat="40.60695" lon="20.00111">
        <ele>729.29998779297</ele>
        <time>2024-09-27T07:08:58.000Z</time>
      </trkpt>
      <trkpt lat="40.60683" lon="20.00109">
        <ele>730.26000976562</ele>
        <time>2024-09-27T07:08:59.000Z</time>
      </trkpt>
      <trkpt lat="40.60674" lon="20.00109">
        <ele>731.21997070312</ele>
        <time>2024-09-27T07:09:00.000Z</time>
      </trkpt>
      <trkpt lat="40.60669" lon="20.00108">
        <ele>731.70001220703</ele>
        <time>2024-09-27T07:09:01.000Z</time>
      </trkpt>
      <trkpt lat="40.60665" lon="20.00108">
        <ele>731.70001220703</ele>
        <time>2024-09-27T07:09:02.000Z</time>
      </trkpt>
      <trkpt lat="40.60655" lon="20.00107">
        <ele>733.14001464844</ele>
        <time>2024-09-27T07:09:03.000Z</time>
      </trkpt>
      <trkpt lat="40.60647" lon="20.00107">
        <ele>733.61999511719</ele>
        <time>2024-09-27T07:09:04.000Z</time>
      </trkpt>
      <trkpt lat="40.60641" lon="20.00107">
        <ele>734.09997558594</ele>
        <time>2024-09-27T07:09:05.000Z</time>
      </trkpt>
      <trkpt lat="40.60633" lon="20.00108">
        <ele>735.07000732422</ele>
        <time>2024-09-27T07:09:06.000Z</time>
      </trkpt>
      <trkpt lat="40.60628" lon="20.00109">
        <ele>735.54998779297</ele>
        <time>2024-09-27T07:09:07.000Z</time>
      </trkpt>
      <trkpt lat="40.60622" lon="20.00111">
        <ele>736.03002929688</ele>
        <time>2024-09-27T07:09:08.000Z</time>
      </trkpt>
      <trkpt lat="40.60603" lon="20.00118">
        <ele>738.90997314453</ele>
        <time>2024-09-27T07:09:10.000Z</time>
      </trkpt>
      <trkpt lat="40.60595" lon="20.00121">
        <ele>739.39001464844</ele>
        <time>2024-09-27T07:09:12.000Z</time>
      </trkpt>
      <trkpt lat="40.6059" lon="20.00123">
        <ele>739.86999511719</ele>
        <time>2024-09-27T07:09:13.000Z</time>
      </trkpt>
      <trkpt lat="40.60572" lon="20.00131">
        <ele>740.34997558594</ele>
        <time>2024-09-27T07:09:15.000Z</time>
      </trkpt>
      <trkpt lat="40.60565" lon="20.00133">
        <ele>740.83001708984</ele>
        <time>2024-09-27T07:09:17.000Z</time>
      </trkpt>
      <trkpt lat="40.6056" lon="20.00135">
        <ele>740.83001708984</ele>
        <time>2024-09-27T07:09:18.000Z</time>
      </trkpt>
      <trkpt lat="40.60539" lon="20.00138">
        <ele>740.83001708984</ele>
        <time>2024-09-27T07:09:21.000Z</time>
      </trkpt>
      <trkpt lat="40.60526" lon="20.00142">
        <ele>740.83001708984</ele>
        <time>2024-09-27T07:09:22.000Z</time>
      </trkpt>
      <trkpt lat="40.60514" lon="20.00147">
        <ele>741.30999755859</ele>
        <time>2024-09-27T07:09:23.000Z</time>
      </trkpt>
      <trkpt lat="40.60501" lon="20.00154">
        <ele>740.83001708984</ele>
        <time>2024-09-27T07:09:24.000Z</time>
      </trkpt>
      <trkpt lat="40.60493" lon="20.00159">
        <ele>740.83001708984</ele>
        <time>2024-09-27T07:09:25.000Z</time>
      </trkpt>
      <trkpt lat="40.60476" lon="20.00171">
        <ele>740.83001708984</ele>
        <time>2024-09-27T07:09:26.000Z</time>
      </trkpt>
      <trkpt lat="40.60446" lon="20.00197">
        <ele>739.86999511719</ele>
        <time>2024-09-27T07:09:30.000Z</time>
      </trkpt>
      <trkpt lat="40.6044" lon="20.00202">
        <ele>739.39001464844</ele>
        <time>2024-09-27T07:09:31.000Z</time>
      </trkpt>
      <trkpt lat="40.60435" lon="20.00207">
        <ele>739.39001464844</ele>
        <time>2024-09-27T07:09:32.000Z</time>
      </trkpt>
      <trkpt lat="40.6043" lon="20.00211">
        <ele>738.90997314453</ele>
        <time>2024-09-27T07:09:33.000Z</time>
      </trkpt>
      <trkpt lat="40.60425" lon="20.00215">
        <ele>738.90997314453</ele>
        <time>2024-09-27T07:09:34.000Z</time>
      </trkpt>
      <trkpt lat="40.60419" lon="20.00219">
        <ele>738.42999267578</ele>
        <time>2024-09-27T07:09:35.000Z</time>
      </trkpt>
      <trkpt lat="40.60413" lon="20.00221">
        <ele>737.95001220703</ele>
        <time>2024-09-27T07:09:36.000Z</time>
      </trkpt>
      <trkpt lat="40.60406" lon="20.00223">
        <ele>737.46997070312</ele>
        <time>2024-09-27T07:09:37.000Z</time>
      </trkpt>
      <trkpt lat="40.60391" lon="20.00224">
        <ele>736.03002929688</ele>
        <time>2024-09-27T07:09:39.000Z</time>
      </trkpt>
      <trkpt lat="40.60381" lon="20.00224">
        <ele>735.07000732422</ele>
        <time>2024-09-27T07:09:40.000Z</time>
      </trkpt>
      <trkpt lat="40.60359" lon="20.00224">
        <ele>733.14001464844</ele>
        <time>2024-09-27T07:09:43.000Z</time>
      </trkpt>
      <trkpt lat="40.60327" lon="20.00229">
        <ele>731.21997070312</ele>
        <time>2024-09-27T07:09:48.000Z</time>
      </trkpt>
      <trkpt lat="40.6032" lon="20.00229">
        <ele>730.73999023438</ele>
        <time>2024-09-27T07:09:49.000Z</time>
      </trkpt>
      <trkpt lat="40.60314" lon="20.00228">
        <ele>730.26000976562</ele>
        <time>2024-09-27T07:09:50.000Z</time>
      </trkpt>
      <trkpt lat="40.60305" lon="20.00226">
        <ele>729.29998779297</ele>
        <time>2024-09-27T07:09:51.000Z</time>
      </trkpt>
      <trkpt lat="40.60299" lon="20.00224">
        <ele>728.34002685547</ele>
        <time>2024-09-27T07:09:52.000Z</time>
      </trkpt>
      <trkpt lat="40.60288" lon="20.00219">
        <ele>727.36999511719</ele>
        <time>2024-09-27T07:09:54.000Z</time>
      </trkpt>
      <trkpt lat="40.60283" lon="20.00217">
        <ele>726.89001464844</ele>
        <time>2024-09-27T07:09:55.000Z</time>
      </trkpt>
      <trkpt lat="40.60276" lon="20.00216">
        <ele>725.92999267578</ele>
        <time>2024-09-27T07:09:56.000Z</time>
      </trkpt>
      <trkpt lat="40.60268" lon="20.00217">
        <ele>724.96997070312</ele>
        <time>2024-09-27T07:09:57.000Z</time>
      </trkpt>
      <trkpt lat="40.60262" lon="20.00218">
        <ele>724.48999023438</ele>
        <time>2024-09-27T07:09:58.000Z</time>
      </trkpt>
      <trkpt lat="40.60251" lon="20.00222">
        <ele>724.01000976562</ele>
        <time>2024-09-27T07:09:59.000Z</time>
      </trkpt>
      <trkpt lat="40.60245" lon="20.00224">
        <ele>723.53002929688</ele>
        <time>2024-09-27T07:10:00.000Z</time>
      </trkpt>
      <trkpt lat="40.60233" lon="20.0023">
        <ele>722.57000732422</ele>
        <time>2024-09-27T07:10:01.000Z</time>
      </trkpt>
      <trkpt lat="40.60207" lon="20.00245">
        <ele>721.13000488281</ele>
        <time>2024-09-27T07:10:05.000Z</time>
      </trkpt>
      <trkpt lat="40.60203" lon="20.00248">
        <ele>721.13000488281</ele>
        <time>2024-09-27T07:10:06.000Z</time>
      </trkpt>
      <trkpt lat="40.60189" lon="20.00258">
        <ele>720.65002441406</ele>
        <time>2024-09-27T07:10:08.000Z</time>
      </trkpt>
      <trkpt lat="40.6018" lon="20.00264">
        <ele>720.65002441406</ele>
        <time>2024-09-27T07:10:09.000Z</time>
      </trkpt>
      <trkpt lat="40.60178" lon="20.00266">
        <ele>720.65002441406</ele>
        <time>2024-09-27T07:10:10.000Z</time>
      </trkpt>
      <trkpt lat="40.60172" lon="20.00271">
        <ele>720.65002441406</ele>
        <time>2024-09-27T07:10:11.000Z</time>
      </trkpt>
      <trkpt lat="40.60164" lon="20.00278">
        <ele>720.65002441406</ele>
        <time>2024-09-27T07:10:12.000Z</time>
      </trkpt>
      <trkpt lat="40.6015" lon="20.00291">
        <ele>720.15997314453</ele>
        <time>2024-09-27T07:10:14.000Z</time>
      </trkpt>
      <trkpt lat="40.60142" lon="20.00298">
        <ele>720.15997314453</ele>
        <time>2024-09-27T07:10:15.000Z</time>
      </trkpt>
      <trkpt lat="40.60139" lon="20.00301">
        <ele>720.15997314453</ele>
        <time>2024-09-27T07:10:16.000Z</time>
      </trkpt>
      <trkpt lat="40.60128" lon="20.00309">
        <ele>720.15997314453</ele>
        <time>2024-09-27T07:10:17.000Z</time>
      </trkpt>
      <trkpt lat="40.60123" lon="20.00312">
        <ele>719.67999267578</ele>
        <time>2024-09-27T07:10:18.000Z</time>
      </trkpt>
      <trkpt lat="40.60119" lon="20.00315">
        <ele>719.67999267578</ele>
        <time>2024-09-27T07:10:19.000Z</time>
      </trkpt>
      <trkpt lat="40.60115" lon="20.00317">
        <ele>719.20001220703</ele>
        <time>2024-09-27T07:10:20.000Z</time>
      </trkpt>
      <trkpt lat="40.60102" lon="20.00327">
        <ele>718.23999023438</ele>
        <time>2024-09-27T07:10:22.000Z</time>
      </trkpt>
      <trkpt lat="40.60097" lon="20.0033">
        <ele>718.23999023438</ele>
        <time>2024-09-27T07:10:23.000Z</time>
      </trkpt>
      <trkpt lat="40.60074" lon="20.00353">
        <ele>716.79998779297</ele>
        <time>2024-09-27T07:10:27.000Z</time>
      </trkpt>
      <trkpt lat="40.60019" lon="20.00423">
        <ele>715.35998535156</ele>
        <time>2024-09-27T07:10:36.000Z</time>
      </trkpt>
      <trkpt lat="40.60016" lon="20.00426">
        <ele>715.35998535156</ele>
        <time>2024-09-27T07:10:37.000Z</time>
      </trkpt>
      <trkpt lat="40.6001" lon="20.00433">
        <ele>715.35998535156</ele>
        <time>2024-09-27T07:10:38.000Z</time>
      </trkpt>
      <trkpt lat="40.60003" lon="20.00437">
        <ele>715.35998535156</ele>
        <time>2024-09-27T07:10:39.000Z</time>
      </trkpt>
      <trkpt lat="40.59995" lon="20.00441">
        <ele>715.35998535156</ele>
        <time>2024-09-27T07:10:40.000Z</time>
      </trkpt>
      <trkpt lat="40.59987" lon="20.00443">
        <ele>714.88000488281</ele>
        <time>2024-09-27T07:10:41.000Z</time>
      </trkpt>
      <trkpt lat="40.59979" lon="20.00444">
        <ele>714.88000488281</ele>
        <time>2024-09-27T07:10:42.000Z</time>
      </trkpt>
      <trkpt lat="40.59971" lon="20.00443">
        <ele>714.40002441406</ele>
        <time>2024-09-27T07:10:43.000Z</time>
      </trkpt>
      <trkpt lat="40.59964" lon="20.00441">
        <ele>714.40002441406</ele>
        <time>2024-09-27T07:10:44.000Z</time>
      </trkpt>
      <trkpt lat="40.59956" lon="20.00438">
        <ele>713.91998291016</ele>
        <time>2024-09-27T07:10:45.000Z</time>
      </trkpt>
      <trkpt lat="40.59949" lon="20.00434">
        <ele>713.91998291016</ele>
        <time>2024-09-27T07:10:46.000Z</time>
      </trkpt>
      <trkpt lat="40.59943" lon="20.00429">
        <ele>713.44000244141</ele>
        <time>2024-09-27T07:10:47.000Z</time>
      </trkpt>
      <trkpt lat="40.59927" lon="20.00414">
        <ele>713.44000244141</ele>
        <time>2024-09-27T07:10:50.000Z</time>
      </trkpt>
      <trkpt lat="40.59918" lon="20.00405">
        <ele>713.91998291016</ele>
        <time>2024-09-27T07:10:52.000Z</time>
      </trkpt>
      <trkpt lat="40.5991" lon="20.00399">
        <ele>713.91998291016</ele>
        <time>2024-09-27T07:10:53.000Z</time>
      </trkpt>
      <trkpt lat="40.59907" lon="20.00396">
        <ele>713.91998291016</ele>
        <time>2024-09-27T07:10:54.000Z</time>
      </trkpt>
      <trkpt lat="40.59903" lon="20.00394">
        <ele>713.91998291016</ele>
        <time>2024-09-27T07:10:55.000Z</time>
      </trkpt>
      <trkpt lat="40.59898" lon="20.00391">
        <ele>713.91998291016</ele>
        <time>2024-09-27T07:10:56.000Z</time>
      </trkpt>
      <trkpt lat="40.59894" lon="20.00388">
        <ele>713.91998291016</ele>
        <time>2024-09-27T07:10:57.000Z</time>
      </trkpt>
      <trkpt lat="40.59889" lon="20.00384">
        <ele>713.91998291016</ele>
        <time>2024-09-27T07:10:58.000Z</time>
      </trkpt>
      <trkpt lat="40.59886" lon="20.00382">
        <ele>713.91998291016</ele>
        <time>2024-09-27T07:10:59.000Z</time>
      </trkpt>
      <trkpt lat="40.59881" lon="20.00377">
        <ele>713.91998291016</ele>
        <time>2024-09-27T07:11:00.000Z</time>
      </trkpt>
      <trkpt lat="40.59866" lon="20.00364">
        <ele>713.91998291016</ele>
        <time>2024-09-27T07:11:07.000Z</time>
      </trkpt>
      <trkpt lat="40.59859" lon="20.00354">
        <ele>716.79998779297</ele>
        <time>2024-09-27T07:11:41.000Z</time>
      </trkpt>
      <trkpt lat="40.59857" lon="20.00352">
        <ele>716.79998779297</ele>
        <time>2024-09-27T07:11:42.000Z</time>
      </trkpt>
      <trkpt lat="40.59852" lon="20.00345">
        <ele>716.79998779297</ele>
        <time>2024-09-27T07:11:43.000Z</time>
      </trkpt>
      <trkpt lat="40.59847" lon="20.00339">
        <ele>716.32000732422</ele>
        <time>2024-09-27T07:11:44.000Z</time>
      </trkpt>
      <trkpt lat="40.59845" lon="20.00337">
        <ele>716.32000732422</ele>
        <time>2024-09-27T07:11:45.000Z</time>
      </trkpt>
      <trkpt lat="40.59838" lon="20.00327">
        <ele>715.84002685547</ele>
        <time>2024-09-27T07:11:46.000Z</time>
      </trkpt>
      <trkpt lat="40.59827" lon="20.0031">
        <ele>715.35998535156</ele>
        <time>2024-09-27T07:11:49.000Z</time>
      </trkpt>
      <trkpt lat="40.59826" lon="20.00308">
        <ele>715.35998535156</ele>
        <time>2024-09-27T07:11:50.000Z</time>
      </trkpt>
      <trkpt lat="40.5981" lon="20.00276">
        <ele>713.91998291016</ele>
        <time>2024-09-27T07:11:54.000Z</time>
      </trkpt>
      <trkpt lat="40.59799" lon="20.00256">
        <ele>712.95001220703</ele>
        <time>2024-09-27T07:11:56.000Z</time>
      </trkpt>
      <trkpt lat="40.59793" lon="20.00248">
        <ele>712.46997070312</ele>
        <time>2024-09-27T07:11:57.000Z</time>
      </trkpt>
      <trkpt lat="40.59787" lon="20.0024">
        <ele>712.46997070312</ele>
        <time>2024-09-27T07:11:58.000Z</time>
      </trkpt>
      <trkpt lat="40.59779" lon="20.00233">
        <ele>711.98999023438</ele>
        <time>2024-09-27T07:11:59.000Z</time>
      </trkpt>
      <trkpt lat="40.5976" lon="20.0022">
        <ele>711.51000976562</ele>
        <time>2024-09-27T07:12:01.000Z</time>
      </trkpt>
      <trkpt lat="40.59755" lon="20.00217">
        <ele>711.51000976562</ele>
        <time>2024-09-27T07:12:02.000Z</time>
      </trkpt>
      <trkpt lat="40.59722" lon="20.00203">
        <ele>710.54998779297</ele>
        <time>2024-09-27T07:12:06.000Z</time>
      </trkpt>
      <trkpt lat="40.59714" lon="20.00201">
        <ele>710.54998779297</ele>
        <time>2024-09-27T07:12:08.000Z</time>
      </trkpt>
      <trkpt lat="40.597" lon="20.00195">
        <ele>710.54998779297</ele>
        <time>2024-09-27T07:12:10.000Z</time>
      </trkpt>
      <trkpt lat="40.59694" lon="20.00193">
        <ele>710.54998779297</ele>
        <time>2024-09-27T07:12:11.000Z</time>
      </trkpt>
      <trkpt lat="40.59688" lon="20.00192">
        <ele>710.54998779297</ele>
        <time>2024-09-27T07:12:12.000Z</time>
      </trkpt>
      <trkpt lat="40.59681" lon="20.00192">
        <ele>710.54998779297</ele>
        <time>2024-09-27T07:12:13.000Z</time>
      </trkpt>
      <trkpt lat="40.59675" lon="20.00194">
        <ele>710.54998779297</ele>
        <time>2024-09-27T07:12:14.000Z</time>
      </trkpt>
      <trkpt lat="40.5966" lon="20.00202">
        <ele>710.07000732422</ele>
        <time>2024-09-27T07:12:16.000Z</time>
      </trkpt>
      <trkpt lat="40.59655" lon="20.00205">
        <ele>709.59002685547</ele>
        <time>2024-09-27T07:12:17.000Z</time>
      </trkpt>
      <trkpt lat="40.59646" lon="20.00208">
        <ele>709.10998535156</ele>
        <time>2024-09-27T07:12:18.000Z</time>
      </trkpt>
      <trkpt lat="40.59644" lon="20.00209">
        <ele>709.10998535156</ele>
        <time>2024-09-27T07:12:19.000Z</time>
      </trkpt>
      <trkpt lat="40.59638" lon="20.00211">
        <ele>709.10998535156</ele>
        <time>2024-09-27T07:12:20.000Z</time>
      </trkpt>
      <trkpt lat="40.5963" lon="20.00215">
        <ele>708.63000488281</ele>
        <time>2024-09-27T07:12:21.000Z</time>
      </trkpt>
      <trkpt lat="40.59623" lon="20.00217">
        <ele>708.15002441406</ele>
        <time>2024-09-27T07:12:22.000Z</time>
      </trkpt>
      <trkpt lat="40.59612" lon="20.0022">
        <ele>707.66998291016</ele>
        <time>2024-09-27T07:12:24.000Z</time>
      </trkpt>
      <trkpt lat="40.59603" lon="20.00221">
        <ele>707.19000244141</ele>
        <time>2024-09-27T07:12:25.000Z</time>
      </trkpt>
      <trkpt lat="40.59597" lon="20.00221">
        <ele>707.19000244141</ele>
        <time>2024-09-27T07:12:26.000Z</time>
      </trkpt>
      <trkpt lat="40.59575" lon="20.0022">
        <ele>706.22998046875</ele>
        <time>2024-09-27T07:12:29.000Z</time>
      </trkpt>
      <trkpt lat="40.59569" lon="20.0022">
        <ele>706.22998046875</ele>
        <time>2024-09-27T07:12:30.000Z</time>
      </trkpt>
      <trkpt lat="40.59559" lon="20.00218">
        <ele>705.75</ele>
        <time>2024-09-27T07:12:31.000Z</time>
      </trkpt>
      <trkpt lat="40.59555" lon="20.00218">
        <ele>705.75</ele>
        <time>2024-09-27T07:12:32.000Z</time>
      </trkpt>
      <trkpt lat="40.5954" lon="20.00217">
        <ele>705.26000976562</ele>
        <time>2024-09-27T07:12:34.000Z</time>
      </trkpt>
      <trkpt lat="40.59535" lon="20.00216">
        <ele>704.78002929688</ele>
        <time>2024-09-27T07:12:35.000Z</time>
      </trkpt>
      <trkpt lat="40.59529" lon="20.00214">
        <ele>704.78002929688</ele>
        <time>2024-09-27T07:12:36.000Z</time>
      </trkpt>
      <trkpt lat="40.59523" lon="20.00211">
        <ele>704.29998779297</ele>
        <time>2024-09-27T07:12:37.000Z</time>
      </trkpt>
      <trkpt lat="40.59518" lon="20.00207">
        <ele>703.82000732422</ele>
        <time>2024-09-27T07:12:38.000Z</time>
      </trkpt>
      <trkpt lat="40.59513" lon="20.00203">
        <ele>703.34002685547</ele>
        <time>2024-09-27T07:12:39.000Z</time>
      </trkpt>
      <trkpt lat="40.59508" lon="20.00197">
        <ele>702.85998535156</ele>
        <time>2024-09-27T07:12:40.000Z</time>
      </trkpt>
      <trkpt lat="40.59503" lon="20.00191">
        <ele>702.85998535156</ele>
        <time>2024-09-27T07:12:41.000Z</time>
      </trkpt>
      <trkpt lat="40.59499" lon="20.00187">
        <ele>702.38000488281</ele>
        <time>2024-09-27T07:12:42.000Z</time>
      </trkpt>
      <trkpt lat="40.59496" lon="20.00182">
        <ele>701.90002441406</ele>
        <time>2024-09-27T07:12:43.000Z</time>
      </trkpt>
      <trkpt lat="40.59488" lon="20.00172">
        <ele>700.94000244141</ele>
        <time>2024-09-27T07:12:45.000Z</time>
      </trkpt>
      <trkpt lat="40.59484" lon="20.00166">
        <ele>700.46002197266</ele>
        <time>2024-09-27T07:12:46.000Z</time>
      </trkpt>
      <trkpt lat="40.59481" lon="20.0016">
        <ele>699.97998046875</ele>
        <time>2024-09-27T07:12:47.000Z</time>
      </trkpt>
      <trkpt lat="40.59478" lon="20.00155">
        <ele>699.97998046875</ele>
        <time>2024-09-27T07:12:48.000Z</time>
      </trkpt>
      <trkpt lat="40.59475" lon="20.0015">
        <ele>699.5</ele>
        <time>2024-09-27T07:12:49.000Z</time>
      </trkpt>
      <trkpt lat="40.59472" lon="20.00144">
        <ele>699.02001953125</ele>
        <time>2024-09-27T07:12:50.000Z</time>
      </trkpt>
      <trkpt lat="40.59469" lon="20.0014">
        <ele>698.53002929688</ele>
        <time>2024-09-27T07:12:51.000Z</time>
      </trkpt>
      <trkpt lat="40.59466" lon="20.00135">
        <ele>698.04998779297</ele>
        <time>2024-09-27T07:12:52.000Z</time>
      </trkpt>
      <trkpt lat="40.59462" lon="20.00129">
        <ele>697.57000732422</ele>
        <time>2024-09-27T07:12:53.000Z</time>
      </trkpt>
      <trkpt lat="40.59458" lon="20.00125">
        <ele>697.09002685547</ele>
        <time>2024-09-27T07:12:54.000Z</time>
      </trkpt>
      <trkpt lat="40.59454" lon="20.00121">
        <ele>696.60998535156</ele>
        <time>2024-09-27T07:12:55.000Z</time>
      </trkpt>
      <trkpt lat="40.59449" lon="20.00118">
        <ele>696.60998535156</ele>
        <time>2024-09-27T07:12:56.000Z</time>
      </trkpt>
      <trkpt lat="40.59444" lon="20.00116">
        <ele>696.13000488281</ele>
        <time>2024-09-27T07:12:57.000Z</time>
      </trkpt>
      <trkpt lat="40.59439" lon="20.00114">
        <ele>696.13000488281</ele>
        <time>2024-09-27T07:12:58.000Z</time>
      </trkpt>
      <trkpt lat="40.59434" lon="20.00113">
        <ele>695.65002441406</ele>
        <time>2024-09-27T07:12:59.000Z</time>
      </trkpt>
      <trkpt lat="40.59406" lon="20.00113">
        <ele>695.65002441406</ele>
        <time>2024-09-27T07:13:05.000Z</time>
      </trkpt>
      <trkpt lat="40.59401" lon="20.00112">
        <ele>695.65002441406</ele>
        <time>2024-09-27T07:13:06.000Z</time>
      </trkpt>
      <trkpt lat="40.59397" lon="20.00111">
        <ele>695.65002441406</ele>
        <time>2024-09-27T07:13:07.000Z</time>
      </trkpt>
      <trkpt lat="40.59392" lon="20.00109">
        <ele>695.16998291016</ele>
        <time>2024-09-27T07:13:08.000Z</time>
      </trkpt>
      <trkpt lat="40.59387" lon="20.00105">
        <ele>695.16998291016</ele>
        <time>2024-09-27T07:13:09.000Z</time>
      </trkpt>
      <trkpt lat="40.59377" lon="20.00092">
        <ele>695.16998291016</ele>
        <time>2024-09-27T07:13:11.000Z</time>
      </trkpt>
      <trkpt lat="40.59373" lon="20.00088">
        <ele>695.16998291016</ele>
        <time>2024-09-27T07:13:12.000Z</time>
      </trkpt>
      <trkpt lat="40.59366" lon="20.00083">
        <ele>695.65002441406</ele>
        <time>2024-09-27T07:13:19.000Z</time>
      </trkpt>
      <trkpt lat="40.59366" lon="20.00082">
        <ele>698.04998779297</ele>
        <time>2024-09-27T07:14:11.000Z</time>
      </trkpt>
      <trkpt lat="40.59363" lon="20.00082">
        <ele>698.04998779297</ele>
        <time>2024-09-27T07:14:12.000Z</time>
      </trkpt>
      <trkpt lat="40.59358" lon="20.00081">
        <ele>698.04998779297</ele>
        <time>2024-09-27T07:14:13.000Z</time>
      </trkpt>
      <trkpt lat="40.59351" lon="20.00081">
        <ele>698.04998779297</ele>
        <time>2024-09-27T07:14:14.000Z</time>
      </trkpt>
      <trkpt lat="40.59344" lon="20.00082">
        <ele>698.04998779297</ele>
        <time>2024-09-27T07:14:15.000Z</time>
      </trkpt>
      <trkpt lat="40.59323" lon="20.00092">
        <ele>698.53002929688</ele>
        <time>2024-09-27T07:14:18.000Z</time>
      </trkpt>
      <trkpt lat="40.59318" lon="20.00095">
        <ele>698.53002929688</ele>
        <time>2024-09-27T07:14:19.000Z</time>
      </trkpt>
      <trkpt lat="40.59309" lon="20.00102">
        <ele>699.02001953125</ele>
        <time>2024-09-27T07:14:20.000Z</time>
      </trkpt>
      <trkpt lat="40.59307" lon="20.00103">
        <ele>699.02001953125</ele>
        <time>2024-09-27T07:14:21.000Z</time>
      </trkpt>
      <trkpt lat="40.59292" lon="20.00114">
        <ele>699.5</ele>
        <time>2024-09-27T07:14:23.000Z</time>
      </trkpt>
      <trkpt lat="40.59289" lon="20.00116">
        <ele>699.5</ele>
        <time>2024-09-27T07:14:24.000Z</time>
      </trkpt>
      <trkpt lat="40.59279" lon="20.00123">
        <ele>699.5</ele>
        <time>2024-09-27T07:14:25.000Z</time>
      </trkpt>
      <trkpt lat="40.59278" lon="20.00124">
        <ele>699.5</ele>
        <time>2024-09-27T07:14:26.000Z</time>
      </trkpt>
      <trkpt lat="40.59267" lon="20.0013">
        <ele>699.5</ele>
        <time>2024-09-27T07:14:27.000Z</time>
      </trkpt>
      <trkpt lat="40.59258" lon="20.00134">
        <ele>699.5</ele>
        <time>2024-09-27T07:14:29.000Z</time>
      </trkpt>
      <trkpt lat="40.59253" lon="20.00136">
        <ele>699.5</ele>
        <time>2024-09-27T07:14:30.000Z</time>
      </trkpt>
      <trkpt lat="40.59248" lon="20.00139">
        <ele>699.5</ele>
        <time>2024-09-27T07:14:31.000Z</time>
      </trkpt>
      <trkpt lat="40.59245" lon="20.00142">
        <ele>699.5</ele>
        <time>2024-09-27T07:14:32.000Z</time>
      </trkpt>
      <trkpt lat="40.59238" lon="20.00147">
        <ele>699.5</ele>
        <time>2024-09-27T07:14:33.000Z</time>
      </trkpt>
      <trkpt lat="40.59203" lon="20.00173">
        <ele>699.02001953125</ele>
        <time>2024-09-27T07:14:42.000Z</time>
      </trkpt>
      <trkpt lat="40.59183" lon="20.00184">
        <ele>699.02001953125</ele>
        <time>2024-09-27T07:14:48.000Z</time>
      </trkpt>
      <trkpt lat="40.59179" lon="20.00186">
        <ele>699.02001953125</ele>
        <time>2024-09-27T07:14:49.000Z</time>
      </trkpt>
      <trkpt lat="40.59174" lon="20.00188">
        <ele>699.02001953125</ele>
        <time>2024-09-27T07:14:50.000Z</time>
      </trkpt>
      <trkpt lat="40.59164" lon="20.00193">
        <ele>699.5</ele>
        <time>2024-09-27T07:14:52.000Z</time>
      </trkpt>
      <trkpt lat="40.59161" lon="20.00194">
        <ele>699.5</ele>
        <time>2024-09-27T07:14:53.000Z</time>
      </trkpt>
      <trkpt lat="40.59156" lon="20.00197">
        <ele>699.5</ele>
        <time>2024-09-27T07:14:54.000Z</time>
      </trkpt>
      <trkpt lat="40.59151" lon="20.002">
        <ele>699.97998046875</ele>
        <time>2024-09-27T07:14:55.000Z</time>
      </trkpt>
      <trkpt lat="40.59147" lon="20.00203">
        <ele>700.46002197266</ele>
        <time>2024-09-27T07:14:56.000Z</time>
      </trkpt>
      <trkpt lat="40.59143" lon="20.00207">
        <ele>700.46002197266</ele>
        <time>2024-09-27T07:14:57.000Z</time>
      </trkpt>
      <trkpt lat="40.59136" lon="20.00214">
        <ele>701.41998291016</ele>
        <time>2024-09-27T07:14:58.000Z</time>
      </trkpt>
      <trkpt lat="40.59133" lon="20.00217">
        <ele>701.90002441406</ele>
        <time>2024-09-27T07:14:59.000Z</time>
      </trkpt>
      <trkpt lat="40.5913" lon="20.0022">
        <ele>701.90002441406</ele>
        <time>2024-09-27T07:15:00.000Z</time>
      </trkpt>
      <trkpt lat="40.59126" lon="20.00224">
        <ele>701.90002441406</ele>
        <time>2024-09-27T07:15:01.000Z</time>
      </trkpt>
      <trkpt lat="40.59093" lon="20.00258">
        <ele>704.29998779297</ele>
        <time>2024-09-27T07:15:07.000Z</time>
      </trkpt>
      <trkpt lat="40.59091" lon="20.0026">
        <ele>704.78002929688</ele>
        <time>2024-09-27T07:15:08.000Z</time>
      </trkpt>
      <trkpt lat="40.59082" lon="20.00268">
        <ele>705.26000976562</ele>
        <time>2024-09-27T07:15:10.000Z</time>
      </trkpt>
      <trkpt lat="40.59074" lon="20.00276">
        <ele>705.75</ele>
        <time>2024-09-27T07:15:11.000Z</time>
      </trkpt>
      <trkpt lat="40.59066" lon="20.00285">
        <ele>706.22998046875</ele>
        <time>2024-09-27T07:15:13.000Z</time>
      </trkpt>
      <trkpt lat="40.59062" lon="20.00288">
        <ele>706.71002197266</ele>
        <time>2024-09-27T07:15:14.000Z</time>
      </trkpt>
      <trkpt lat="40.59053" lon="20.00297">
        <ele>707.19000244141</ele>
        <time>2024-09-27T07:15:16.000Z</time>
      </trkpt>
      <trkpt lat="40.5905" lon="20.00299">
        <ele>707.66998291016</ele>
        <time>2024-09-27T07:15:17.000Z</time>
      </trkpt>
      <trkpt lat="40.59048" lon="20.00301">
        <ele>707.66998291016</ele>
        <time>2024-09-27T07:15:18.000Z</time>
      </trkpt>
      <trkpt lat="40.59041" lon="20.00306">
        <ele>708.63000488281</ele>
        <time>2024-09-27T07:15:19.000Z</time>
      </trkpt>
      <trkpt lat="40.59037" lon="20.00307">
        <ele>708.63000488281</ele>
        <time>2024-09-27T07:15:20.000Z</time>
      </trkpt>
      <trkpt lat="40.59033" lon="20.00309">
        <ele>709.10998535156</ele>
        <time>2024-09-27T07:15:21.000Z</time>
      </trkpt>
      <trkpt lat="40.59028" lon="20.00311">
        <ele>709.59002685547</ele>
        <time>2024-09-27T07:15:22.000Z</time>
      </trkpt>
      <trkpt lat="40.59022" lon="20.00314">
        <ele>710.07000732422</ele>
        <time>2024-09-27T07:15:23.000Z</time>
      </trkpt>
      <trkpt lat="40.59018" lon="20.00316">
        <ele>710.54998779297</ele>
        <time>2024-09-27T07:15:24.000Z</time>
      </trkpt>
      <trkpt lat="40.59" lon="20.00322">
        <ele>711.51000976562</ele>
        <time>2024-09-27T07:15:27.000Z</time>
      </trkpt>
      <trkpt lat="40.58995" lon="20.00324">
        <ele>711.98999023438</ele>
        <time>2024-09-27T07:15:28.000Z</time>
      </trkpt>
      <trkpt lat="40.5899" lon="20.00325">
        <ele>711.98999023438</ele>
        <time>2024-09-27T07:15:29.000Z</time>
      </trkpt>
      <trkpt lat="40.58973" lon="20.0033">
        <ele>713.44000244141</ele>
        <time>2024-09-27T07:15:32.000Z</time>
      </trkpt>
      <trkpt lat="40.58967" lon="20.00331">
        <ele>713.91998291016</ele>
        <time>2024-09-27T07:15:33.000Z</time>
      </trkpt>
      <trkpt lat="40.58947" lon="20.00335">
        <ele>714.88000488281</ele>
        <time>2024-09-27T07:15:36.000Z</time>
      </trkpt>
      <trkpt lat="40.58941" lon="20.00336">
        <ele>714.88000488281</ele>
        <time>2024-09-27T07:15:37.000Z</time>
      </trkpt>
      <trkpt lat="40.58932" lon="20.00337">
        <ele>715.35998535156</ele>
        <time>2024-09-27T07:15:39.000Z</time>
      </trkpt>
      <trkpt lat="40.58925" lon="20.00338">
        <ele>715.35998535156</ele>
        <time>2024-09-27T07:15:40.000Z</time>
      </trkpt>
      <trkpt lat="40.58918" lon="20.0034">
        <ele>715.35998535156</ele>
        <time>2024-09-27T07:15:41.000Z</time>
      </trkpt>
      <trkpt lat="40.58911" lon="20.00342">
        <ele>715.35998535156</ele>
        <time>2024-09-27T07:15:42.000Z</time>
      </trkpt>
      <trkpt lat="40.58898" lon="20.00349">
        <ele>715.35998535156</ele>
        <time>2024-09-27T07:15:44.000Z</time>
      </trkpt>
      <trkpt lat="40.5889" lon="20.00354">
        <ele>715.35998535156</ele>
        <time>2024-09-27T07:15:45.000Z</time>
      </trkpt>
      <trkpt lat="40.58886" lon="20.00357">
        <ele>715.35998535156</ele>
        <time>2024-09-27T07:15:46.000Z</time>
      </trkpt>
      <trkpt lat="40.58878" lon="20.00365">
        <ele>715.84002685547</ele>
        <time>2024-09-27T07:15:47.000Z</time>
      </trkpt>
      <trkpt lat="40.58877" lon="20.00366">
        <ele>715.84002685547</ele>
        <time>2024-09-27T07:15:48.000Z</time>
      </trkpt>
      <trkpt lat="40.58873" lon="20.00371">
        <ele>715.84002685547</ele>
        <time>2024-09-27T07:15:49.000Z</time>
      </trkpt>
      <trkpt lat="40.58869" lon="20.00376">
        <ele>715.84002685547</ele>
        <time>2024-09-27T07:15:50.000Z</time>
      </trkpt>
      <trkpt lat="40.58864" lon="20.00382">
        <ele>716.32000732422</ele>
        <time>2024-09-27T07:15:51.000Z</time>
      </trkpt>
      <trkpt lat="40.58857" lon="20.00395">
        <ele>716.79998779297</ele>
        <time>2024-09-27T07:15:53.000Z</time>
      </trkpt>
      <trkpt lat="40.58855" lon="20.00399">
        <ele>716.79998779297</ele>
        <time>2024-09-27T07:15:54.000Z</time>
      </trkpt>
      <trkpt lat="40.58846" lon="20.00421">
        <ele>717.28002929688</ele>
        <time>2024-09-27T07:15:57.000Z</time>
      </trkpt>
      <trkpt lat="40.58839" lon="20.00437">
        <ele>717.28002929688</ele>
        <time>2024-09-27T07:16:00.000Z</time>
      </trkpt>
      <trkpt lat="40.58837" lon="20.00441">
        <ele>717.28002929688</ele>
        <time>2024-09-27T07:16:01.000Z</time>
      </trkpt>
      <trkpt lat="40.58832" lon="20.00451">
        <ele>717.28002929688</ele>
        <time>2024-09-27T07:16:02.000Z</time>
      </trkpt>
      <trkpt lat="40.5883" lon="20.00456">
        <ele>717.28002929688</ele>
        <time>2024-09-27T07:16:03.000Z</time>
      </trkpt>
      <trkpt lat="40.58826" lon="20.00461">
        <ele>717.28002929688</ele>
        <time>2024-09-27T07:16:04.000Z</time>
      </trkpt>
      <trkpt lat="40.58822" lon="20.00465">
        <ele>717.28002929688</ele>
        <time>2024-09-27T07:16:05.000Z</time>
      </trkpt>
      <trkpt lat="40.58818" lon="20.00468">
        <ele>717.28002929688</ele>
        <time>2024-09-27T07:16:06.000Z</time>
      </trkpt>
      <trkpt lat="40.58808" lon="20.00469">
        <ele>716.32000732422</ele>
        <time>2024-09-27T07:16:13.000Z</time>
      </trkpt>
      <trkpt lat="40.58808" lon="20.00469">
        <ele>716.32000732422</ele>
        <time>2024-09-27T07:18:25.000Z</time>
      </trkpt>
      <trkpt lat="40.58794" lon="20.0047">
        <ele>720.15997314453</ele>
        <time>2024-09-27T07:19:07.000Z</time>
      </trkpt>
      <trkpt lat="40.58794" lon="20.0047">
        <ele>719.67999267578</ele>
        <time>2024-09-27T07:19:39.000Z</time>
      </trkpt>
      <trkpt lat="40.58793" lon="20.00469">
        <ele>719.20001220703</ele>
        <time>2024-09-27T07:22:35.000Z</time>
      </trkpt>
      <trkpt lat="40.58784" lon="20.00469">
        <ele>719.20001220703</ele>
        <time>2024-09-27T07:22:38.000Z</time>
      </trkpt>
      <trkpt lat="40.58779" lon="20.0047">
        <ele>719.20001220703</ele>
        <time>2024-09-27T07:22:39.000Z</time>
      </trkpt>
      <trkpt lat="40.58775" lon="20.0047">
        <ele>719.20001220703</ele>
        <time>2024-09-27T07:22:40.000Z</time>
      </trkpt>
      <trkpt lat="40.58769" lon="20.00471">
        <ele>719.20001220703</ele>
        <time>2024-09-27T07:22:41.000Z</time>
      </trkpt>
      <trkpt lat="40.58761" lon="20.00473">
        <ele>718.71997070312</ele>
        <time>2024-09-27T07:22:42.000Z</time>
      </trkpt>
      <trkpt lat="40.58751" lon="20.00475">
        <ele>718.71997070312</ele>
        <time>2024-09-27T07:22:43.000Z</time>
      </trkpt>
      <trkpt lat="40.58748" lon="20.00476">
        <ele>718.71997070312</ele>
        <time>2024-09-27T07:22:44.000Z</time>
      </trkpt>
      <trkpt lat="40.58734" lon="20.0048">
        <ele>718.71997070312</ele>
        <time>2024-09-27T07:22:45.000Z</time>
      </trkpt>
      <trkpt lat="40.58706" lon="20.00491">
        <ele>718.23999023438</ele>
        <time>2024-09-27T07:22:48.000Z</time>
      </trkpt>
      <trkpt lat="40.58687" lon="20.00501">
        <ele>718.23999023438</ele>
        <time>2024-09-27T07:22:50.000Z</time>
      </trkpt>
      <trkpt lat="40.58668" lon="20.00511">
        <ele>718.23999023438</ele>
        <time>2024-09-27T07:22:51.000Z</time>
      </trkpt>
      <trkpt lat="40.58658" lon="20.00517">
        <ele>718.23999023438</ele>
        <time>2024-09-27T07:22:52.000Z</time>
      </trkpt>
      <trkpt lat="40.58589" lon="20.00562">
        <ele>718.23999023438</ele>
        <time>2024-09-27T07:22:59.000Z</time>
      </trkpt>
      <trkpt lat="40.58579" lon="20.00567">
        <ele>718.23999023438</ele>
        <time>2024-09-27T07:23:00.000Z</time>
      </trkpt>
      <trkpt lat="40.58564" lon="20.00573">
        <ele>718.23999023438</ele>
        <time>2024-09-27T07:23:01.000Z</time>
      </trkpt>
      <trkpt lat="40.58543" lon="20.00583">
        <ele>718.71997070312</ele>
        <time>2024-09-27T07:23:03.000Z</time>
      </trkpt>
      <trkpt lat="40.5854" lon="20.00584">
        <ele>719.20001220703</ele>
        <time>2024-09-27T07:23:04.000Z</time>
      </trkpt>
      <trkpt lat="40.58524" lon="20.00594">
        <ele>719.20001220703</ele>
        <time>2024-09-27T07:23:05.000Z</time>
      </trkpt>
      <trkpt lat="40.5852" lon="20.00597">
        <ele>719.67999267578</ele>
        <time>2024-09-27T07:23:06.000Z</time>
      </trkpt>
      <trkpt lat="40.58493" lon="20.00617">
        <ele>719.67999267578</ele>
        <time>2024-09-27T07:23:09.000Z</time>
      </trkpt>
      <trkpt lat="40.58478" lon="20.00631">
        <ele>720.15997314453</ele>
        <time>2024-09-27T07:23:10.000Z</time>
      </trkpt>
      <trkpt lat="40.58422" lon="20.00693">
        <ele>721.60998535156</ele>
        <time>2024-09-27T07:23:17.000Z</time>
      </trkpt>
      <trkpt lat="40.58418" lon="20.00697">
        <ele>721.60998535156</ele>
        <time>2024-09-27T07:23:18.000Z</time>
      </trkpt>
      <trkpt lat="40.58413" lon="20.00705">
        <ele>722.09002685547</ele>
        <time>2024-09-27T07:23:19.000Z</time>
      </trkpt>
      <trkpt lat="40.58407" lon="20.00715">
        <ele>722.09002685547</ele>
        <time>2024-09-27T07:23:20.000Z</time>
      </trkpt>
      <trkpt lat="40.58403" lon="20.00726">
        <ele>722.09002685547</ele>
        <time>2024-09-27T07:23:21.000Z</time>
      </trkpt>
      <trkpt lat="40.584" lon="20.00737">
        <ele>722.09002685547</ele>
        <time>2024-09-27T07:23:22.000Z</time>
      </trkpt>
      <trkpt lat="40.58398" lon="20.00747">
        <ele>722.57000732422</ele>
        <time>2024-09-27T07:23:23.000Z</time>
      </trkpt>
      <trkpt lat="40.58398" lon="20.00758">
        <ele>722.57000732422</ele>
        <time>2024-09-27T07:23:24.000Z</time>
      </trkpt>
      <trkpt lat="40.58398" lon="20.00771">
        <ele>722.57000732422</ele>
        <time>2024-09-27T07:23:25.000Z</time>
      </trkpt>
      <trkpt lat="40.58397" lon="20.00777">
        <ele>722.57000732422</ele>
        <time>2024-09-27T07:23:26.000Z</time>
      </trkpt>
      <trkpt lat="40.58395" lon="20.00784">
        <ele>722.57000732422</ele>
        <time>2024-09-27T07:23:27.000Z</time>
      </trkpt>
      <trkpt lat="40.58392" lon="20.00789">
        <ele>722.57000732422</ele>
        <time>2024-09-27T07:23:28.000Z</time>
      </trkpt>
      <trkpt lat="40.58387" lon="20.00793">
        <ele>722.57000732422</ele>
        <time>2024-09-27T07:23:29.000Z</time>
      </trkpt>
      <trkpt lat="40.58381" lon="20.00793">
        <ele>722.57000732422</ele>
        <time>2024-09-27T07:23:30.000Z</time>
      </trkpt>
      <trkpt lat="40.58374" lon="20.00791">
        <ele>723.04998779297</ele>
        <time>2024-09-27T07:23:31.000Z</time>
      </trkpt>
      <trkpt lat="40.58367" lon="20.00788">
        <ele>723.04998779297</ele>
        <time>2024-09-27T07:23:32.000Z</time>
      </trkpt>
      <trkpt lat="40.5836" lon="20.00786">
        <ele>723.04998779297</ele>
        <time>2024-09-27T07:23:33.000Z</time>
      </trkpt>
      <trkpt lat="40.58353" lon="20.00784">
        <ele>723.04998779297</ele>
        <time>2024-09-27T07:23:34.000Z</time>
      </trkpt>
      <trkpt lat="40.58344" lon="20.00784">
        <ele>723.53002929688</ele>
        <time>2024-09-27T07:23:35.000Z</time>
      </trkpt>
      <trkpt lat="40.58335" lon="20.00785">
        <ele>723.53002929688</ele>
        <time>2024-09-27T07:23:36.000Z</time>
      </trkpt>
      <trkpt lat="40.58323" lon="20.00789">
        <ele>723.53002929688</ele>
        <time>2024-09-27T07:23:37.000Z</time>
      </trkpt>
      <trkpt lat="40.58317" lon="20.00791">
        <ele>723.53002929688</ele>
        <time>2024-09-27T07:23:38.000Z</time>
      </trkpt>
      <trkpt lat="40.58286" lon="20.00805">
        <ele>724.48999023438</ele>
        <time>2024-09-27T07:23:41.000Z</time>
      </trkpt>
      <trkpt lat="40.5828" lon="20.00808">
        <ele>724.48999023438</ele>
        <time>2024-09-27T07:23:42.000Z</time>
      </trkpt>
      <trkpt lat="40.58273" lon="20.00812">
        <ele>724.96997070312</ele>
        <time>2024-09-27T07:23:43.000Z</time>
      </trkpt>
      <trkpt lat="40.58242" lon="20.00834">
        <ele>725.92999267578</ele>
        <time>2024-09-27T07:23:46.000Z</time>
      </trkpt>
      <trkpt lat="40.58224" lon="20.00849">
        <ele>726.89001464844</ele>
        <time>2024-09-27T07:23:49.000Z</time>
      </trkpt>
      <trkpt lat="40.58217" lon="20.00853">
        <ele>726.89001464844</ele>
        <time>2024-09-27T07:23:50.000Z</time>
      </trkpt>
      <trkpt lat="40.58191" lon="20.00867">
        <ele>728.34002685547</ele>
        <time>2024-09-27T07:23:53.000Z</time>
      </trkpt>
      <trkpt lat="40.58185" lon="20.00871">
        <ele>728.82000732422</ele>
        <time>2024-09-27T07:23:54.000Z</time>
      </trkpt>
      <trkpt lat="40.5812" lon="20.00911">
        <ele>728.34002685547</ele>
        <time>2024-09-27T07:24:02.000Z</time>
      </trkpt>
      <trkpt lat="40.58076" lon="20.00942">
        <ele>727.85998535156</ele>
        <time>2024-09-27T07:24:08.000Z</time>
      </trkpt>
      <trkpt lat="40.58071" lon="20.00945">
        <ele>727.85998535156</ele>
        <time>2024-09-27T07:24:09.000Z</time>
      </trkpt>
      <trkpt lat="40.58008" lon="20.00972">
        <ele>727.85998535156</ele>
        <time>2024-09-27T07:24:16.000Z</time>
      </trkpt>
      <trkpt lat="40.57945" lon="20.01005">
        <ele>728.34002685547</ele>
        <time>2024-09-27T07:24:23.000Z</time>
      </trkpt>
      <trkpt lat="40.57929" lon="20.01015">
        <ele>728.82000732422</ele>
        <time>2024-09-27T07:24:25.000Z</time>
      </trkpt>
      <trkpt lat="40.57921" lon="20.01021">
        <ele>729.29998779297</ele>
        <time>2024-09-27T07:24:26.000Z</time>
      </trkpt>
      <trkpt lat="40.57914" lon="20.01028">
        <ele>729.78002929688</ele>
        <time>2024-09-27T07:24:27.000Z</time>
      </trkpt>
      <trkpt lat="40.57907" lon="20.01037">
        <ele>729.78002929688</ele>
        <time>2024-09-27T07:24:28.000Z</time>
      </trkpt>
      <trkpt lat="40.57902" lon="20.01046">
        <ele>730.26000976562</ele>
        <time>2024-09-27T07:24:29.000Z</time>
      </trkpt>
      <trkpt lat="40.57895" lon="20.01064">
        <ele>730.26000976562</ele>
        <time>2024-09-27T07:24:30.000Z</time>
      </trkpt>
      <trkpt lat="40.57894" lon="20.01068">
        <ele>730.26000976562</ele>
        <time>2024-09-27T07:24:31.000Z</time>
      </trkpt>
      <trkpt lat="40.57888" lon="20.01075">
        <ele>730.73999023438</ele>
        <time>2024-09-27T07:24:32.000Z</time>
      </trkpt>
      <trkpt lat="40.57882" lon="20.01081">
        <ele>730.26000976562</ele>
        <time>2024-09-27T07:24:33.000Z</time>
      </trkpt>
      <trkpt lat="40.57875" lon="20.01085">
        <ele>730.26000976562</ele>
        <time>2024-09-27T07:24:34.000Z</time>
      </trkpt>
      <trkpt lat="40.57867" lon="20.01086">
        <ele>730.26000976562</ele>
        <time>2024-09-27T07:24:35.000Z</time>
      </trkpt>
      <trkpt lat="40.5786" lon="20.01086">
        <ele>730.26000976562</ele>
        <time>2024-09-27T07:24:36.000Z</time>
      </trkpt>
      <trkpt lat="40.57848" lon="20.01085">
        <ele>730.26000976562</ele>
        <time>2024-09-27T07:24:37.000Z</time>
      </trkpt>
      <trkpt lat="40.57841" lon="20.01085">
        <ele>730.26000976562</ele>
        <time>2024-09-27T07:24:38.000Z</time>
      </trkpt>
      <trkpt lat="40.57804" lon="20.01087">
        <ele>729.29998779297</ele>
        <time>2024-09-27T07:24:41.000Z</time>
      </trkpt>
      <trkpt lat="40.57802" lon="20.01088">
        <ele>729.29998779297</ele>
        <time>2024-09-27T07:24:42.000Z</time>
      </trkpt>
      <trkpt lat="40.57792" lon="20.0109">
        <ele>729.29998779297</ele>
        <time>2024-09-27T07:24:43.000Z</time>
      </trkpt>
      <trkpt lat="40.57782" lon="20.01093">
        <ele>728.82000732422</ele>
        <time>2024-09-27T07:24:44.000Z</time>
      </trkpt>
      <trkpt lat="40.57772" lon="20.01098">
        <ele>728.82000732422</ele>
        <time>2024-09-27T07:24:45.000Z</time>
      </trkpt>
      <trkpt lat="40.57763" lon="20.01104">
        <ele>728.82000732422</ele>
        <time>2024-09-27T07:24:46.000Z</time>
      </trkpt>
      <trkpt lat="40.57754" lon="20.01111">
        <ele>728.82000732422</ele>
        <time>2024-09-27T07:24:47.000Z</time>
      </trkpt>
      <trkpt lat="40.57746" lon="20.01119">
        <ele>728.82000732422</ele>
        <time>2024-09-27T07:24:48.000Z</time>
      </trkpt>
      <trkpt lat="40.57736" lon="20.01131">
        <ele>728.82000732422</ele>
        <time>2024-09-27T07:24:49.000Z</time>
      </trkpt>
      <trkpt lat="40.57731" lon="20.01136">
        <ele>728.34002685547</ele>
        <time>2024-09-27T07:24:50.000Z</time>
      </trkpt>
      <trkpt lat="40.57722" lon="20.01143">
        <ele>728.82000732422</ele>
        <time>2024-09-27T07:24:51.000Z</time>
      </trkpt>
      <trkpt lat="40.57712" lon="20.01148">
        <ele>728.34002685547</ele>
        <time>2024-09-27T07:24:52.000Z</time>
      </trkpt>
      <trkpt lat="40.577" lon="20.01152">
        <ele>728.34002685547</ele>
        <time>2024-09-27T07:24:53.000Z</time>
      </trkpt>
      <trkpt lat="40.57633" lon="20.01166">
        <ele>727.36999511719</ele>
        <time>2024-09-27T07:24:59.000Z</time>
      </trkpt>
      <trkpt lat="40.57625" lon="20.01168">
        <ele>727.36999511719</ele>
        <time>2024-09-27T07:25:00.000Z</time>
      </trkpt>
      <trkpt lat="40.57547" lon="20.0119">
        <ele>726.40997314453</ele>
        <time>2024-09-27T07:25:07.000Z</time>
      </trkpt>
      <trkpt lat="40.57541" lon="20.01193">
        <ele>725.92999267578</ele>
        <time>2024-09-27T07:25:08.000Z</time>
      </trkpt>
      <trkpt lat="40.57533" lon="20.01198">
        <ele>725.92999267578</ele>
        <time>2024-09-27T07:25:09.000Z</time>
      </trkpt>
      <trkpt lat="40.57526" lon="20.01205">
        <ele>725.92999267578</ele>
        <time>2024-09-27T07:25:10.000Z</time>
      </trkpt>
      <trkpt lat="40.57519" lon="20.01214">
        <ele>725.92999267578</ele>
        <time>2024-09-27T07:25:11.000Z</time>
      </trkpt>
      <trkpt lat="40.57514" lon="20.01223">
        <ele>725.45001220703</ele>
        <time>2024-09-27T07:25:12.000Z</time>
      </trkpt>
      <trkpt lat="40.57508" lon="20.01235">
        <ele>725.45001220703</ele>
        <time>2024-09-27T07:25:13.000Z</time>
      </trkpt>
      <trkpt lat="40.57495" lon="20.01261">
        <ele>725.45001220703</ele>
        <time>2024-09-27T07:25:16.000Z</time>
      </trkpt>
      <trkpt lat="40.5749" lon="20.01269">
        <ele>725.45001220703</ele>
        <time>2024-09-27T07:25:17.000Z</time>
      </trkpt>
      <trkpt lat="40.57484" lon="20.01274">
        <ele>725.45001220703</ele>
        <time>2024-09-27T07:25:18.000Z</time>
      </trkpt>
      <trkpt lat="40.57477" lon="20.01278">
        <ele>725.92999267578</ele>
        <time>2024-09-27T07:25:19.000Z</time>
      </trkpt>
      <trkpt lat="40.5747" lon="20.0128">
        <ele>726.40997314453</ele>
        <time>2024-09-27T07:25:20.000Z</time>
      </trkpt>
      <trkpt lat="40.57461" lon="20.0128">
        <ele>726.89001464844</ele>
        <time>2024-09-27T07:25:21.000Z</time>
      </trkpt>
      <trkpt lat="40.57454" lon="20.01281">
        <ele>727.36999511719</ele>
        <time>2024-09-27T07:25:22.000Z</time>
      </trkpt>
      <trkpt lat="40.57447" lon="20.01283">
        <ele>727.85998535156</ele>
        <time>2024-09-27T07:25:23.000Z</time>
      </trkpt>
      <trkpt lat="40.57439" lon="20.01286">
        <ele>728.34002685547</ele>
        <time>2024-09-27T07:25:24.000Z</time>
      </trkpt>
      <trkpt lat="40.57432" lon="20.0129">
        <ele>728.34002685547</ele>
        <time>2024-09-27T07:25:25.000Z</time>
      </trkpt>
      <trkpt lat="40.57407" lon="20.01311">
        <ele>729.29998779297</ele>
        <time>2024-09-27T07:25:28.000Z</time>
      </trkpt>
      <trkpt lat="40.57403" lon="20.01314">
        <ele>729.29998779297</ele>
        <time>2024-09-27T07:25:29.000Z</time>
      </trkpt>
      <trkpt lat="40.57394" lon="20.01323">
        <ele>729.29998779297</ele>
        <time>2024-09-27T07:25:30.000Z</time>
      </trkpt>
      <trkpt lat="40.57381" lon="20.01337">
        <ele>729.78002929688</ele>
        <time>2024-09-27T07:25:32.000Z</time>
      </trkpt>
      <trkpt lat="40.57375" lon="20.01343">
        <ele>729.78002929688</ele>
        <time>2024-09-27T07:25:33.000Z</time>
      </trkpt>
      <trkpt lat="40.57367" lon="20.01349">
        <ele>730.26000976562</ele>
        <time>2024-09-27T07:25:34.000Z</time>
      </trkpt>
      <trkpt lat="40.57359" lon="20.01353">
        <ele>730.26000976562</ele>
        <time>2024-09-27T07:25:35.000Z</time>
      </trkpt>
      <trkpt lat="40.57348" lon="20.01357">
        <ele>730.73999023438</ele>
        <time>2024-09-27T07:25:36.000Z</time>
      </trkpt>
      <trkpt lat="40.57341" lon="20.0136">
        <ele>730.73999023438</ele>
        <time>2024-09-27T07:25:37.000Z</time>
      </trkpt>
      <trkpt lat="40.57333" lon="20.01365">
        <ele>730.73999023438</ele>
        <time>2024-09-27T07:25:38.000Z</time>
      </trkpt>
      <trkpt lat="40.57288" lon="20.01398">
        <ele>732.65997314453</ele>
        <time>2024-09-27T07:25:43.000Z</time>
      </trkpt>
      <trkpt lat="40.57279" lon="20.01405">
        <ele>732.65997314453</ele>
        <time>2024-09-27T07:25:44.000Z</time>
      </trkpt>
      <trkpt lat="40.57257" lon="20.01421">
        <ele>733.61999511719</ele>
        <time>2024-09-27T07:25:47.000Z</time>
      </trkpt>
      <trkpt lat="40.57251" lon="20.01425">
        <ele>733.61999511719</ele>
        <time>2024-09-27T07:25:48.000Z</time>
      </trkpt>
      <trkpt lat="40.57243" lon="20.0143">
        <ele>734.09997558594</ele>
        <time>2024-09-27T07:25:49.000Z</time>
      </trkpt>
      <trkpt lat="40.57238" lon="20.01432">
        <ele>734.09997558594</ele>
        <time>2024-09-27T07:25:50.000Z</time>
      </trkpt>
      <trkpt lat="40.5722" lon="20.0144">
        <ele>734.58001708984</ele>
        <time>2024-09-27T07:25:52.000Z</time>
      </trkpt>
      <trkpt lat="40.57219" lon="20.0144">
        <ele>734.58001708984</ele>
        <time>2024-09-27T07:25:53.000Z</time>
      </trkpt>
      <trkpt lat="40.57214" lon="20.01443">
        <ele>735.07000732422</ele>
        <time>2024-09-27T07:25:54.000Z</time>
      </trkpt>
      <trkpt lat="40.57207" lon="20.01448">
        <ele>735.07000732422</ele>
        <time>2024-09-27T07:25:55.000Z</time>
      </trkpt>
      <trkpt lat="40.57184" lon="20.01468">
        <ele>735.54998779297</ele>
        <time>2024-09-27T07:26:03.000Z</time>
      </trkpt>
      <trkpt lat="40.57182" lon="20.01471">
        <ele>735.54998779297</ele>
        <time>2024-09-27T07:26:04.000Z</time>
      </trkpt>
      <trkpt lat="40.57177" lon="20.01475">
        <ele>735.54998779297</ele>
        <time>2024-09-27T07:26:05.000Z</time>
      </trkpt>
      <trkpt lat="40.57173" lon="20.01479">
        <ele>735.54998779297</ele>
        <time>2024-09-27T07:26:06.000Z</time>
      </trkpt>
      <trkpt lat="40.5717" lon="20.01483">
        <ele>735.07000732422</ele>
        <time>2024-09-27T07:26:07.000Z</time>
      </trkpt>
      <trkpt lat="40.57159" lon="20.01493">
        <ele>735.54998779297</ele>
        <time>2024-09-27T07:26:09.000Z</time>
      </trkpt>
      <trkpt lat="40.57148" lon="20.01506">
        <ele>736.51000976562</ele>
        <time>2024-09-27T07:26:11.000Z</time>
      </trkpt>
      <trkpt lat="40.57146" lon="20.01508">
        <ele>736.51000976562</ele>
        <time>2024-09-27T07:26:12.000Z</time>
      </trkpt>
      <trkpt lat="40.57142" lon="20.01512">
        <ele>736.51000976562</ele>
        <time>2024-09-27T07:26:13.000Z</time>
      </trkpt>
      <trkpt lat="40.57138" lon="20.01517">
        <ele>736.51000976562</ele>
        <time>2024-09-27T07:26:14.000Z</time>
      </trkpt>
      <trkpt lat="40.57112" lon="20.01552">
        <ele>736.03002929688</ele>
        <time>2024-09-27T07:26:24.000Z</time>
      </trkpt>
      <trkpt lat="40.57098" lon="20.01575">
        <ele>735.54998779297</ele>
        <time>2024-09-27T07:26:33.000Z</time>
      </trkpt>
      <trkpt lat="40.57095" lon="20.0158">
        <ele>739.39001464844</ele>
        <time>2024-09-27T07:30:51.000Z</time>
      </trkpt>
      <trkpt lat="40.57094" lon="20.01583">
        <ele>739.39001464844</ele>
        <time>2024-09-27T07:30:52.000Z</time>
      </trkpt>
      <trkpt lat="40.5709" lon="20.01592">
        <ele>739.39001464844</ele>
        <time>2024-09-27T07:30:53.000Z</time>
      </trkpt>
      <trkpt lat="40.57085" lon="20.01603">
        <ele>739.39001464844</ele>
        <time>2024-09-27T07:30:54.000Z</time>
      </trkpt>
      <trkpt lat="40.57077" lon="20.01617">
        <ele>739.39001464844</ele>
        <time>2024-09-27T07:30:55.000Z</time>
      </trkpt>
      <trkpt lat="40.57066" lon="20.01632">
        <ele>739.39001464844</ele>
        <time>2024-09-27T07:30:56.000Z</time>
      </trkpt>
      <trkpt lat="40.57052" lon="20.01648">
        <ele>739.39001464844</ele>
        <time>2024-09-27T07:30:57.000Z</time>
      </trkpt>
      <trkpt lat="40.57039" lon="20.0166">
        <ele>738.90997314453</ele>
        <time>2024-09-27T07:30:58.000Z</time>
      </trkpt>
      <trkpt lat="40.57025" lon="20.01672">
        <ele>738.42999267578</ele>
        <time>2024-09-27T07:30:59.000Z</time>
      </trkpt>
      <trkpt lat="40.57011" lon="20.01682">
        <ele>738.90997314453</ele>
        <time>2024-09-27T07:31:00.000Z</time>
      </trkpt>
      <trkpt lat="40.56975" lon="20.017">
        <ele>739.39001464844</ele>
        <time>2024-09-27T07:31:02.000Z</time>
      </trkpt>
      <trkpt lat="40.56969" lon="20.01704">
        <ele>739.39001464844</ele>
        <time>2024-09-27T07:31:03.000Z</time>
      </trkpt>
      <trkpt lat="40.56959" lon="20.01712">
        <ele>739.39001464844</ele>
        <time>2024-09-27T07:31:04.000Z</time>
      </trkpt>
      <trkpt lat="40.56952" lon="20.0172">
        <ele>739.39001464844</ele>
        <time>2024-09-27T07:31:05.000Z</time>
      </trkpt>
      <trkpt lat="40.56946" lon="20.0173">
        <ele>739.86999511719</ele>
        <time>2024-09-27T07:31:06.000Z</time>
      </trkpt>
      <trkpt lat="40.56942" lon="20.01741">
        <ele>739.39001464844</ele>
        <time>2024-09-27T07:31:07.000Z</time>
      </trkpt>
      <trkpt lat="40.5694" lon="20.01755">
        <ele>738.90997314453</ele>
        <time>2024-09-27T07:31:08.000Z</time>
      </trkpt>
      <trkpt lat="40.56939" lon="20.01775">
        <ele>737.95001220703</ele>
        <time>2024-09-27T07:31:09.000Z</time>
      </trkpt>
      <trkpt lat="40.56938" lon="20.01785">
        <ele>737.46997070312</ele>
        <time>2024-09-27T07:31:10.000Z</time>
      </trkpt>
      <trkpt lat="40.56936" lon="20.01793">
        <ele>737.46997070312</ele>
        <time>2024-09-27T07:31:11.000Z</time>
      </trkpt>
      <trkpt lat="40.56932" lon="20.018">
        <ele>736.98999023438</ele>
        <time>2024-09-27T07:31:12.000Z</time>
      </trkpt>
      <trkpt lat="40.56927" lon="20.01805">
        <ele>736.51000976562</ele>
        <time>2024-09-27T07:31:13.000Z</time>
      </trkpt>
      <trkpt lat="40.56919" lon="20.01808">
        <ele>736.03002929688</ele>
        <time>2024-09-27T07:31:14.000Z</time>
      </trkpt>
      <trkpt lat="40.56907" lon="20.0181">
        <ele>735.54998779297</ele>
        <time>2024-09-27T07:31:15.000Z</time>
      </trkpt>
      <trkpt lat="40.56894" lon="20.01811">
        <ele>734.58001708984</ele>
        <time>2024-09-27T07:31:16.000Z</time>
      </trkpt>
      <trkpt lat="40.56878" lon="20.01813">
        <ele>733.14001464844</ele>
        <time>2024-09-27T07:31:17.000Z</time>
      </trkpt>
      <trkpt lat="40.56869" lon="20.01813">
        <ele>732.65997314453</ele>
        <time>2024-09-27T07:31:18.000Z</time>
      </trkpt>
      <trkpt lat="40.56844" lon="20.01811">
        <ele>730.26000976562</ele>
        <time>2024-09-27T07:31:19.000Z</time>
      </trkpt>
      <trkpt lat="40.56841" lon="20.01811">
        <ele>729.78002929688</ele>
        <time>2024-09-27T07:31:20.000Z</time>
      </trkpt>
      <trkpt lat="40.5683" lon="20.01812">
        <ele>728.82000732422</ele>
        <time>2024-09-27T07:31:21.000Z</time>
      </trkpt>
      <trkpt lat="40.56819" lon="20.01814">
        <ele>728.34002685547</ele>
        <time>2024-09-27T07:31:22.000Z</time>
      </trkpt>
      <trkpt lat="40.56799" lon="20.01818">
        <ele>727.36999511719</ele>
        <time>2024-09-27T07:31:23.000Z</time>
      </trkpt>
      <trkpt lat="40.56793" lon="20.0182">
        <ele>726.89001464844</ele>
        <time>2024-09-27T07:31:24.000Z</time>
      </trkpt>
      <trkpt lat="40.56782" lon="20.01821">
        <ele>726.40997314453</ele>
        <time>2024-09-27T07:31:25.000Z</time>
      </trkpt>
      <trkpt lat="40.56773" lon="20.01819">
        <ele>725.92999267578</ele>
        <time>2024-09-27T07:31:26.000Z</time>
      </trkpt>
      <trkpt lat="40.5676" lon="20.01814">
        <ele>725.45001220703</ele>
        <time>2024-09-27T07:31:27.000Z</time>
      </trkpt>
      <trkpt lat="40.56748" lon="20.01808">
        <ele>724.01000976562</ele>
        <time>2024-09-27T07:31:28.000Z</time>
      </trkpt>
      <trkpt lat="40.56742" lon="20.01805">
        <ele>723.53002929688</ele>
        <time>2024-09-27T07:31:29.000Z</time>
      </trkpt>
      <trkpt lat="40.56731" lon="20.01803">
        <ele>722.57000732422</ele>
        <time>2024-09-27T07:31:30.000Z</time>
      </trkpt>
      <trkpt lat="40.56718" lon="20.01803">
        <ele>722.09002685547</ele>
        <time>2024-09-27T07:31:31.000Z</time>
      </trkpt>
      <trkpt lat="40.56691" lon="20.01808">
        <ele>721.60998535156</ele>
        <time>2024-09-27T07:31:33.000Z</time>
      </trkpt>
      <trkpt lat="40.56671" lon="20.01815">
        <ele>721.60998535156</ele>
        <time>2024-09-27T07:31:34.000Z</time>
      </trkpt>
      <trkpt lat="40.56663" lon="20.01819">
        <ele>721.60998535156</ele>
        <time>2024-09-27T07:31:35.000Z</time>
      </trkpt>
      <trkpt lat="40.56643" lon="20.01831">
        <ele>721.60998535156</ele>
        <time>2024-09-27T07:31:38.000Z</time>
      </trkpt>
      <trkpt lat="40.56639" lon="20.01835">
        <ele>721.60998535156</ele>
        <time>2024-09-27T07:31:39.000Z</time>
      </trkpt>
      <trkpt lat="40.56634" lon="20.01839">
        <ele>721.60998535156</ele>
        <time>2024-09-27T07:31:40.000Z</time>
      </trkpt>
      <trkpt lat="40.56628" lon="20.01846">
        <ele>721.13000488281</ele>
        <time>2024-09-27T07:31:41.000Z</time>
      </trkpt>
      <trkpt lat="40.56615" lon="20.01865">
        <ele>721.13000488281</ele>
        <time>2024-09-27T07:31:43.000Z</time>
      </trkpt>
      <trkpt lat="40.56607" lon="20.01879">
        <ele>721.13000488281</ele>
        <time>2024-09-27T07:31:46.000Z</time>
      </trkpt>
      <trkpt lat="40.56604" lon="20.01884">
        <ele>721.13000488281</ele>
        <time>2024-09-27T07:31:47.000Z</time>
      </trkpt>
      <trkpt lat="40.56598" lon="20.01892">
        <ele>721.13000488281</ele>
        <time>2024-09-27T07:31:54.000Z</time>
      </trkpt>
      <trkpt lat="40.56595" lon="20.01892">
        <ele>722.09002685547</ele>
        <time>2024-09-27T07:32:51.000Z</time>
      </trkpt>
      <trkpt lat="40.56592" lon="20.01894">
        <ele>722.09002685547</ele>
        <time>2024-09-27T07:32:59.000Z</time>
      </trkpt>
      <trkpt lat="40.56587" lon="20.01899">
        <ele>721.60998535156</ele>
        <time>2024-09-27T07:33:28.000Z</time>
      </trkpt>
      <trkpt lat="40.56584" lon="20.01902">
        <ele>721.60998535156</ele>
        <time>2024-09-27T07:33:29.000Z</time>
      </trkpt>
      <trkpt lat="40.56579" lon="20.01908">
        <ele>721.60998535156</ele>
        <time>2024-09-27T07:33:30.000Z</time>
      </trkpt>
      <trkpt lat="40.56556" lon="20.01935">
        <ele>721.60998535156</ele>
        <time>2024-09-27T07:33:33.000Z</time>
      </trkpt>
      <trkpt lat="40.56556" lon="20.01936">
        <ele>721.60998535156</ele>
        <time>2024-09-27T07:33:34.000Z</time>
      </trkpt>
      <trkpt lat="40.56561" lon="20.01935">
        <ele>721.60998535156</ele>
        <time>2024-09-27T07:47:30.000Z</time>
      </trkpt>
      <trkpt lat="40.56558" lon="20.01939">
        <ele>721.60998535156</ele>
        <time>2024-09-27T07:47:31.000Z</time>
      </trkpt>
      <trkpt lat="40.56533" lon="20.01939">
        <ele>722.09002685547</ele>
        <time>2024-09-27T07:47:38.000Z</time>
      </trkpt>
      <trkpt lat="40.56533" lon="20.01939">
        <ele>722.09002685547</ele>
        <time>2024-09-27T07:47:56.000Z</time>
      </trkpt>
      <trkpt lat="40.56525" lon="20.01936">
        <ele>721.13000488281</ele>
        <time>2024-09-27T07:48:03.000Z</time>
      </trkpt>
      <trkpt lat="40.56518" lon="20.01936">
        <ele>721.13000488281</ele>
        <time>2024-09-27T07:48:04.000Z</time>
      </trkpt>
      <trkpt lat="40.56514" lon="20.01936">
        <ele>721.13000488281</ele>
        <time>2024-09-27T07:48:05.000Z</time>
      </trkpt>
      <trkpt lat="40.56507" lon="20.01938">
        <ele>721.13000488281</ele>
        <time>2024-09-27T07:48:06.000Z</time>
      </trkpt>
      <trkpt lat="40.56501" lon="20.01942">
        <ele>720.65002441406</ele>
        <time>2024-09-27T07:48:07.000Z</time>
      </trkpt>
      <trkpt lat="40.56494" lon="20.01947">
        <ele>720.65002441406</ele>
        <time>2024-09-27T07:48:08.000Z</time>
      </trkpt>
      <trkpt lat="40.56486" lon="20.01955">
        <ele>720.65002441406</ele>
        <time>2024-09-27T07:48:09.000Z</time>
      </trkpt>
      <trkpt lat="40.56478" lon="20.01963">
        <ele>720.65002441406</ele>
        <time>2024-09-27T07:48:10.000Z</time>
      </trkpt>
      <trkpt lat="40.56475" lon="20.01966">
        <ele>720.65002441406</ele>
        <time>2024-09-27T07:48:11.000Z</time>
      </trkpt>
      <trkpt lat="40.56468" lon="20.01971">
        <ele>720.65002441406</ele>
        <time>2024-09-27T07:48:12.000Z</time>
      </trkpt>
      <trkpt lat="40.56445" lon="20.01977">
        <ele>720.65002441406</ele>
        <time>2024-09-27T07:48:15.000Z</time>
      </trkpt>
      <trkpt lat="40.56438" lon="20.0198">
        <ele>721.13000488281</ele>
        <time>2024-09-27T07:48:16.000Z</time>
      </trkpt>
      <trkpt lat="40.56429" lon="20.01986">
        <ele>721.13000488281</ele>
        <time>2024-09-27T07:48:17.000Z</time>
      </trkpt>
      <trkpt lat="40.56422" lon="20.01992">
        <ele>721.13000488281</ele>
        <time>2024-09-27T07:48:18.000Z</time>
      </trkpt>
      <trkpt lat="40.5641" lon="20.02007">
        <ele>721.60998535156</ele>
        <time>2024-09-27T07:48:20.000Z</time>
      </trkpt>
      <trkpt lat="40.56404" lon="20.02013">
        <ele>722.09002685547</ele>
        <time>2024-09-27T07:48:21.000Z</time>
      </trkpt>
      <trkpt lat="40.56397" lon="20.02017">
        <ele>722.57000732422</ele>
        <time>2024-09-27T07:48:22.000Z</time>
      </trkpt>
      <trkpt lat="40.56383" lon="20.02021">
        <ele>723.04998779297</ele>
        <time>2024-09-27T07:48:24.000Z</time>
      </trkpt>
      <trkpt lat="40.56331" lon="20.02042">
        <ele>723.04998779297</ele>
        <time>2024-09-27T07:48:30.000Z</time>
      </trkpt>
      <trkpt lat="40.56323" lon="20.02046">
        <ele>722.57000732422</ele>
        <time>2024-09-27T07:48:31.000Z</time>
      </trkpt>
      <trkpt lat="40.56316" lon="20.0205">
        <ele>722.57000732422</ele>
        <time>2024-09-27T07:48:32.000Z</time>
      </trkpt>
      <trkpt lat="40.56308" lon="20.02055">
        <ele>722.57000732422</ele>
        <time>2024-09-27T07:48:33.000Z</time>
      </trkpt>
      <trkpt lat="40.56294" lon="20.02066">
        <ele>722.57000732422</ele>
        <time>2024-09-27T07:48:35.000Z</time>
      </trkpt>
      <trkpt lat="40.56288" lon="20.02071">
        <ele>722.09002685547</ele>
        <time>2024-09-27T07:48:36.000Z</time>
      </trkpt>
      <trkpt lat="40.56228" lon="20.02144">
        <ele>718.71997070312</ele>
        <time>2024-09-27T07:48:43.000Z</time>
      </trkpt>
      <trkpt lat="40.5622" lon="20.02153">
        <ele>718.71997070312</ele>
        <time>2024-09-27T07:48:44.000Z</time>
      </trkpt>
      <trkpt lat="40.56215" lon="20.02158">
        <ele>718.71997070312</ele>
        <time>2024-09-27T07:48:45.000Z</time>
      </trkpt>
      <trkpt lat="40.56193" lon="20.02174">
        <ele>718.71997070312</ele>
        <time>2024-09-27T07:48:47.000Z</time>
      </trkpt>
      <trkpt lat="40.5619" lon="20.02177">
        <ele>718.71997070312</ele>
        <time>2024-09-27T07:48:48.000Z</time>
      </trkpt>
      <trkpt lat="40.56181" lon="20.02181">
        <ele>718.71997070312</ele>
        <time>2024-09-27T07:48:49.000Z</time>
      </trkpt>
      <trkpt lat="40.56166" lon="20.0219">
        <ele>718.23999023438</ele>
        <time>2024-09-27T07:48:50.000Z</time>
      </trkpt>
      <trkpt lat="40.56092" lon="20.02238">
        <ele>718.71997070312</ele>
        <time>2024-09-27T07:48:58.000Z</time>
      </trkpt>
      <trkpt lat="40.56085" lon="20.02241">
        <ele>718.71997070312</ele>
        <time>2024-09-27T07:48:59.000Z</time>
      </trkpt>
      <trkpt lat="40.56" lon="20.02296">
        <ele>721.13000488281</ele>
        <time>2024-09-27T07:49:09.000Z</time>
      </trkpt>
      <trkpt lat="40.5598" lon="20.0231">
        <ele>721.60998535156</ele>
        <time>2024-09-27T07:49:12.000Z</time>
      </trkpt>
      <trkpt lat="40.55978" lon="20.02312">
        <ele>721.60998535156</ele>
        <time>2024-09-27T07:49:13.000Z</time>
      </trkpt>
      <trkpt lat="40.55972" lon="20.02316">
        <ele>721.60998535156</ele>
        <time>2024-09-27T07:49:14.000Z</time>
      </trkpt>
      <trkpt lat="40.55941" lon="20.02346">
        <ele>721.13000488281</ele>
        <time>2024-09-27T07:49:25.000Z</time>
      </trkpt>
      <trkpt lat="40.55938" lon="20.0235">
        <ele>721.13000488281</ele>
        <time>2024-09-27T07:49:26.000Z</time>
      </trkpt>
      <trkpt lat="40.55927" lon="20.02365">
        <ele>721.13000488281</ele>
        <time>2024-09-27T07:49:30.000Z</time>
      </trkpt>
      <trkpt lat="40.55926" lon="20.02367">
        <ele>721.13000488281</ele>
        <time>2024-09-27T07:49:31.000Z</time>
      </trkpt>
      <trkpt lat="40.55921" lon="20.02374">
        <ele>720.65002441406</ele>
        <time>2024-09-27T07:49:32.000Z</time>
      </trkpt>
      <trkpt lat="40.55877" lon="20.02439">
        <ele>718.23999023438</ele>
        <time>2024-09-27T07:49:39.000Z</time>
      </trkpt>
      <trkpt lat="40.55854" lon="20.02467">
        <ele>716.79998779297</ele>
        <time>2024-09-27T07:49:43.000Z</time>
      </trkpt>
      <trkpt lat="40.5585" lon="20.02471">
        <ele>716.32000732422</ele>
        <time>2024-09-27T07:49:44.000Z</time>
      </trkpt>
      <trkpt lat="40.55848" lon="20.02475">
        <ele>716.32000732422</ele>
        <time>2024-09-27T07:49:45.000Z</time>
      </trkpt>
      <trkpt lat="40.55842" lon="20.02485">
        <ele>715.84002685547</ele>
        <time>2024-09-27T07:49:46.000Z</time>
      </trkpt>
      <trkpt lat="40.5584" lon="20.02487">
        <ele>715.35998535156</ele>
        <time>2024-09-27T07:49:47.000Z</time>
      </trkpt>
      <trkpt lat="40.55835" lon="20.02493">
        <ele>714.88000488281</ele>
        <time>2024-09-27T07:49:48.000Z</time>
      </trkpt>
      <trkpt lat="40.55828" lon="20.02499">
        <ele>714.88000488281</ele>
        <time>2024-09-27T07:49:49.000Z</time>
      </trkpt>
      <trkpt lat="40.55821" lon="20.02504">
        <ele>714.40002441406</ele>
        <time>2024-09-27T07:49:50.000Z</time>
      </trkpt>
      <trkpt lat="40.55814" lon="20.02508">
        <ele>714.40002441406</ele>
        <time>2024-09-27T07:49:51.000Z</time>
      </trkpt>
      <trkpt lat="40.55821" lon="20.02504">
        <ele>715.35998535156</ele>
        <time>2024-09-27T08:09:09.000Z</time>
      </trkpt>
      <trkpt lat="40.55771" lon="20.0253">
        <ele>713.91998291016</ele>
        <time>2024-09-27T08:09:16.000Z</time>
      </trkpt>
      <trkpt lat="40.55746" lon="20.02549">
        <ele>712.95001220703</ele>
        <time>2024-09-27T08:09:20.000Z</time>
      </trkpt>
      <trkpt lat="40.55731" lon="20.0256">
        <ele>711.98999023438</ele>
        <time>2024-09-27T08:09:22.000Z</time>
      </trkpt>
      <trkpt lat="40.55728" lon="20.02562">
        <ele>711.98999023438</ele>
        <time>2024-09-27T08:09:23.000Z</time>
      </trkpt>
      <trkpt lat="40.55715" lon="20.02569">
        <ele>711.51000976562</ele>
        <time>2024-09-27T08:09:24.000Z</time>
      </trkpt>
      <trkpt lat="40.55706" lon="20.02573">
        <ele>711.03002929688</ele>
        <time>2024-09-27T08:09:26.000Z</time>
      </trkpt>
      <trkpt lat="40.55688" lon="20.0258">
        <ele>711.03002929688</ele>
        <time>2024-09-27T08:09:28.000Z</time>
      </trkpt>
      <trkpt lat="40.55684" lon="20.02582">
        <ele>711.03002929688</ele>
        <time>2024-09-27T08:09:29.000Z</time>
      </trkpt>
      <trkpt lat="40.55679" lon="20.02585">
        <ele>711.03002929688</ele>
        <time>2024-09-27T08:09:30.000Z</time>
      </trkpt>
      <trkpt lat="40.55639" lon="20.02615">
        <ele>710.54998779297</ele>
        <time>2024-09-27T08:09:35.000Z</time>
      </trkpt>
      <trkpt lat="40.55635" lon="20.02617">
        <ele>710.54998779297</ele>
        <time>2024-09-27T08:09:36.000Z</time>
      </trkpt>
      <trkpt lat="40.55627" lon="20.02623">
        <ele>710.54998779297</ele>
        <time>2024-09-27T08:09:37.000Z</time>
      </trkpt>
      <trkpt lat="40.55621" lon="20.02626">
        <ele>710.54998779297</ele>
        <time>2024-09-27T08:09:38.000Z</time>
      </trkpt>
      <trkpt lat="40.55607" lon="20.02635">
        <ele>711.03002929688</ele>
        <time>2024-09-27T08:09:40.000Z</time>
      </trkpt>
      <trkpt lat="40.55596" lon="20.02643">
        <ele>711.03002929688</ele>
        <time>2024-09-27T08:09:41.000Z</time>
      </trkpt>
      <trkpt lat="40.55591" lon="20.02646">
        <ele>711.03002929688</ele>
        <time>2024-09-27T08:09:42.000Z</time>
      </trkpt>
      <trkpt lat="40.55584" lon="20.02652">
        <ele>710.07000732422</ele>
        <time>2024-09-27T08:09:43.000Z</time>
      </trkpt>
      <trkpt lat="40.5558" lon="20.02657">
        <ele>710.07000732422</ele>
        <time>2024-09-27T08:09:44.000Z</time>
      </trkpt>
      <trkpt lat="40.55571" lon="20.02669">
        <ele>709.59002685547</ele>
        <time>2024-09-27T08:09:45.000Z</time>
      </trkpt>
      <trkpt lat="40.55568" lon="20.02671">
        <ele>709.59002685547</ele>
        <time>2024-09-27T08:09:46.000Z</time>
      </trkpt>
      <trkpt lat="40.55562" lon="20.02676">
        <ele>709.10998535156</ele>
        <time>2024-09-27T08:09:47.000Z</time>
      </trkpt>
      <trkpt lat="40.55555" lon="20.02679">
        <ele>709.10998535156</ele>
        <time>2024-09-27T08:09:48.000Z</time>
      </trkpt>
      <trkpt lat="40.55547" lon="20.02682">
        <ele>709.10998535156</ele>
        <time>2024-09-27T08:09:49.000Z</time>
      </trkpt>
      <trkpt lat="40.55531" lon="20.02683">
        <ele>709.10998535156</ele>
        <time>2024-09-27T08:09:51.000Z</time>
      </trkpt>
      <trkpt lat="40.55523" lon="20.02682">
        <ele>708.63000488281</ele>
        <time>2024-09-27T08:09:52.000Z</time>
      </trkpt>
      <trkpt lat="40.55515" lon="20.02681">
        <ele>708.63000488281</ele>
        <time>2024-09-27T08:09:53.000Z</time>
      </trkpt>
      <trkpt lat="40.55501" lon="20.02678">
        <ele>708.63000488281</ele>
        <time>2024-09-27T08:09:55.000Z</time>
      </trkpt>
      <trkpt lat="40.55492" lon="20.02675">
        <ele>708.15002441406</ele>
        <time>2024-09-27T08:09:56.000Z</time>
      </trkpt>
      <trkpt lat="40.55483" lon="20.02671">
        <ele>707.66998291016</ele>
        <time>2024-09-27T08:09:57.000Z</time>
      </trkpt>
      <trkpt lat="40.55476" lon="20.02668">
        <ele>707.66998291016</ele>
        <time>2024-09-27T08:09:58.000Z</time>
      </trkpt>
      <trkpt lat="40.5547" lon="20.02664">
        <ele>707.66998291016</ele>
        <time>2024-09-27T08:09:59.000Z</time>
      </trkpt>
      <trkpt lat="40.55465" lon="20.02658">
        <ele>707.66998291016</ele>
        <time>2024-09-27T08:10:00.000Z</time>
      </trkpt>
      <trkpt lat="40.5546" lon="20.0265">
        <ele>707.66998291016</ele>
        <time>2024-09-27T08:10:01.000Z</time>
      </trkpt>
      <trkpt lat="40.55442" lon="20.02617">
        <ele>709.10998535156</ele>
        <time>2024-09-27T08:10:04.000Z</time>
      </trkpt>
      <trkpt lat="40.55439" lon="20.02613">
        <ele>709.59002685547</ele>
        <time>2024-09-27T08:10:05.000Z</time>
      </trkpt>
      <trkpt lat="40.55435" lon="20.02606">
        <ele>710.07000732422</ele>
        <time>2024-09-27T08:10:06.000Z</time>
      </trkpt>
      <trkpt lat="40.5543" lon="20.02599">
        <ele>710.54998779297</ele>
        <time>2024-09-27T08:10:07.000Z</time>
      </trkpt>
      <trkpt lat="40.55423" lon="20.02592">
        <ele>711.51000976562</ele>
        <time>2024-09-27T08:10:08.000Z</time>
      </trkpt>
      <trkpt lat="40.55416" lon="20.02586">
        <ele>712.46997070312</ele>
        <time>2024-09-27T08:10:09.000Z</time>
      </trkpt>
      <trkpt lat="40.55408" lon="20.02583">
        <ele>713.44000244141</ele>
        <time>2024-09-27T08:10:10.000Z</time>
      </trkpt>
      <trkpt lat="40.554" lon="20.02583">
        <ele>713.91998291016</ele>
        <time>2024-09-27T08:10:11.000Z</time>
      </trkpt>
      <trkpt lat="40.55392" lon="20.02585">
        <ele>714.40002441406</ele>
        <time>2024-09-27T08:10:12.000Z</time>
      </trkpt>
      <trkpt lat="40.55369" lon="20.02595">
        <ele>715.84002685547</ele>
        <time>2024-09-27T08:10:14.000Z</time>
      </trkpt>
      <trkpt lat="40.55368" lon="20.02595">
        <ele>715.84002685547</ele>
        <time>2024-09-27T08:10:15.000Z</time>
      </trkpt>
      <trkpt lat="40.5534" lon="20.02603">
        <ele>715.84002685547</ele>
        <time>2024-09-27T08:10:18.000Z</time>
      </trkpt>
      <trkpt lat="40.55333" lon="20.02604">
        <ele>715.35998535156</ele>
        <time>2024-09-27T08:10:19.000Z</time>
      </trkpt>
      <trkpt lat="40.55322" lon="20.02606">
        <ele>715.35998535156</ele>
        <time>2024-09-27T08:10:20.000Z</time>
      </trkpt>
      <trkpt lat="40.5532" lon="20.02606">
        <ele>715.35998535156</ele>
        <time>2024-09-27T08:10:21.000Z</time>
      </trkpt>
      <trkpt lat="40.55311" lon="20.02604">
        <ele>714.88000488281</ele>
        <time>2024-09-27T08:10:22.000Z</time>
      </trkpt>
      <trkpt lat="40.55304" lon="20.02602">
        <ele>714.88000488281</ele>
        <time>2024-09-27T08:10:23.000Z</time>
      </trkpt>
      <trkpt lat="40.55298" lon="20.02598">
        <ele>714.40002441406</ele>
        <time>2024-09-27T08:10:24.000Z</time>
      </trkpt>
      <trkpt lat="40.5529" lon="20.02593">
        <ele>713.91998291016</ele>
        <time>2024-09-27T08:10:25.000Z</time>
      </trkpt>
      <trkpt lat="40.55282" lon="20.02586">
        <ele>713.91998291016</ele>
        <time>2024-09-27T08:10:26.000Z</time>
      </trkpt>
      <trkpt lat="40.55275" lon="20.02578">
        <ele>713.91998291016</ele>
        <time>2024-09-27T08:10:27.000Z</time>
      </trkpt>
      <trkpt lat="40.55269" lon="20.0257">
        <ele>714.40002441406</ele>
        <time>2024-09-27T08:10:28.000Z</time>
      </trkpt>
      <trkpt lat="40.55265" lon="20.02565">
        <ele>714.88000488281</ele>
        <time>2024-09-27T08:10:29.000Z</time>
      </trkpt>
      <trkpt lat="40.55259" lon="20.02558">
        <ele>715.35998535156</ele>
        <time>2024-09-27T08:10:30.000Z</time>
      </trkpt>
      <trkpt lat="40.55251" lon="20.0255">
        <ele>716.32000732422</ele>
        <time>2024-09-27T08:10:31.000Z</time>
      </trkpt>
      <trkpt lat="40.55244" lon="20.02543">
        <ele>716.79998779297</ele>
        <time>2024-09-27T08:10:32.000Z</time>
      </trkpt>
      <trkpt lat="40.55215" lon="20.02518">
        <ele>717.76000976562</ele>
        <time>2024-09-27T08:10:36.000Z</time>
      </trkpt>
      <trkpt lat="40.55208" lon="20.02511">
        <ele>717.76000976562</ele>
        <time>2024-09-27T08:10:37.000Z</time>
      </trkpt>
      <trkpt lat="40.55203" lon="20.02506">
        <ele>717.76000976562</ele>
        <time>2024-09-27T08:10:38.000Z</time>
      </trkpt>
      <trkpt lat="40.55197" lon="20.02499">
        <ele>717.76000976562</ele>
        <time>2024-09-27T08:10:39.000Z</time>
      </trkpt>
      <trkpt lat="40.55193" lon="20.02494">
        <ele>717.76000976562</ele>
        <time>2024-09-27T08:10:40.000Z</time>
      </trkpt>
      <trkpt lat="40.5519" lon="20.02487">
        <ele>717.28002929688</ele>
        <time>2024-09-27T08:10:41.000Z</time>
      </trkpt>
      <trkpt lat="40.55188" lon="20.0248">
        <ele>716.79998779297</ele>
        <time>2024-09-27T08:10:42.000Z</time>
      </trkpt>
      <trkpt lat="40.55189" lon="20.02473">
        <ele>716.32000732422</ele>
        <time>2024-09-27T08:10:43.000Z</time>
      </trkpt>
      <trkpt lat="40.5519" lon="20.02464">
        <ele>715.84002685547</ele>
        <time>2024-09-27T08:10:44.000Z</time>
      </trkpt>
      <trkpt lat="40.55194" lon="20.02455">
        <ele>715.84002685547</ele>
        <time>2024-09-27T08:10:45.000Z</time>
      </trkpt>
      <trkpt lat="40.55201" lon="20.02439">
        <ele>714.88000488281</ele>
        <time>2024-09-27T08:10:46.000Z</time>
      </trkpt>
      <trkpt lat="40.55204" lon="20.02432">
        <ele>714.88000488281</ele>
        <time>2024-09-27T08:10:47.000Z</time>
      </trkpt>
      <trkpt lat="40.55218" lon="20.02406">
        <ele>713.91998291016</ele>
        <time>2024-09-27T08:10:49.000Z</time>
      </trkpt>
      <trkpt lat="40.5522" lon="20.02403">
        <ele>713.91998291016</ele>
        <time>2024-09-27T08:10:50.000Z</time>
      </trkpt>
      <trkpt lat="40.55223" lon="20.02396">
        <ele>713.44000244141</ele>
        <time>2024-09-27T08:10:51.000Z</time>
      </trkpt>
      <trkpt lat="40.55225" lon="20.02388">
        <ele>713.44000244141</ele>
        <time>2024-09-27T08:10:52.000Z</time>
      </trkpt>
      <trkpt lat="40.55225" lon="20.02379">
        <ele>712.95001220703</ele>
        <time>2024-09-27T08:10:53.000Z</time>
      </trkpt>
      <trkpt lat="40.55222" lon="20.02371">
        <ele>713.44000244141</ele>
        <time>2024-09-27T08:10:54.000Z</time>
      </trkpt>
      <trkpt lat="40.55217" lon="20.02365">
        <ele>713.44000244141</ele>
        <time>2024-09-27T08:10:55.000Z</time>
      </trkpt>
      <trkpt lat="40.5521" lon="20.02361">
        <ele>712.95001220703</ele>
        <time>2024-09-27T08:10:56.000Z</time>
      </trkpt>
      <trkpt lat="40.55193" lon="20.02353">
        <ele>712.95001220703</ele>
        <time>2024-09-27T08:10:58.000Z</time>
      </trkpt>
      <trkpt lat="40.55184" lon="20.02348">
        <ele>712.46997070312</ele>
        <time>2024-09-27T08:10:59.000Z</time>
      </trkpt>
      <trkpt lat="40.55179" lon="20.02344">
        <ele>711.98999023438</ele>
        <time>2024-09-27T08:11:00.000Z</time>
      </trkpt>
      <trkpt lat="40.55174" lon="20.0234">
        <ele>711.51000976562</ele>
        <time>2024-09-27T08:11:01.000Z</time>
      </trkpt>
      <trkpt lat="40.55168" lon="20.02334">
        <ele>711.03002929688</ele>
        <time>2024-09-27T08:11:02.000Z</time>
      </trkpt>
      <trkpt lat="40.5516" lon="20.02323">
        <ele>710.07000732422</ele>
        <time>2024-09-27T08:11:03.000Z</time>
      </trkpt>
      <trkpt lat="40.55158" lon="20.02318">
        <ele>709.59002685547</ele>
        <time>2024-09-27T08:11:04.000Z</time>
      </trkpt>
      <trkpt lat="40.55152" lon="20.0231">
        <ele>709.10998535156</ele>
        <time>2024-09-27T08:11:05.000Z</time>
      </trkpt>
      <trkpt lat="40.55146" lon="20.02301">
        <ele>707.66998291016</ele>
        <time>2024-09-27T08:11:06.000Z</time>
      </trkpt>
      <trkpt lat="40.55139" lon="20.02295">
        <ele>707.19000244141</ele>
        <time>2024-09-27T08:11:07.000Z</time>
      </trkpt>
      <trkpt lat="40.5513" lon="20.02287">
        <ele>706.22998046875</ele>
        <time>2024-09-27T08:11:08.000Z</time>
      </trkpt>
      <trkpt lat="40.55123" lon="20.02282">
        <ele>705.26000976562</ele>
        <time>2024-09-27T08:11:09.000Z</time>
      </trkpt>
      <trkpt lat="40.55115" lon="20.02278">
        <ele>704.78002929688</ele>
        <time>2024-09-27T08:11:10.000Z</time>
      </trkpt>
      <trkpt lat="40.55106" lon="20.02275">
        <ele>704.29998779297</ele>
        <time>2024-09-27T08:11:11.000Z</time>
      </trkpt>
      <trkpt lat="40.55098" lon="20.02273">
        <ele>703.82000732422</ele>
        <time>2024-09-27T08:11:12.000Z</time>
      </trkpt>
      <trkpt lat="40.5509" lon="20.02272">
        <ele>703.82000732422</ele>
        <time>2024-09-27T08:11:13.000Z</time>
      </trkpt>
      <trkpt lat="40.55083" lon="20.02272">
        <ele>703.34002685547</ele>
        <time>2024-09-27T08:11:14.000Z</time>
      </trkpt>
      <trkpt lat="40.55075" lon="20.02273">
        <ele>703.34002685547</ele>
        <time>2024-09-27T08:11:15.000Z</time>
      </trkpt>
      <trkpt lat="40.55059" lon="20.02278">
        <ele>703.34002685547</ele>
        <time>2024-09-27T08:11:17.000Z</time>
      </trkpt>
      <trkpt lat="40.55051" lon="20.0228">
        <ele>702.85998535156</ele>
        <time>2024-09-27T08:11:18.000Z</time>
      </trkpt>
      <trkpt lat="40.55043" lon="20.02281">
        <ele>702.85998535156</ele>
        <time>2024-09-27T08:11:19.000Z</time>
      </trkpt>
      <trkpt lat="40.55035" lon="20.02281">
        <ele>702.38000488281</ele>
        <time>2024-09-27T08:11:20.000Z</time>
      </trkpt>
      <trkpt lat="40.55021" lon="20.02279">
        <ele>702.38000488281</ele>
        <time>2024-09-27T08:11:21.000Z</time>
      </trkpt>
      <trkpt lat="40.55019" lon="20.02279">
        <ele>702.38000488281</ele>
        <time>2024-09-27T08:11:22.000Z</time>
      </trkpt>
      <trkpt lat="40.55012" lon="20.02279">
        <ele>701.90002441406</ele>
        <time>2024-09-27T08:11:23.000Z</time>
      </trkpt>
      <trkpt lat="40.55002" lon="20.02279">
        <ele>701.41998291016</ele>
        <time>2024-09-27T08:11:24.000Z</time>
      </trkpt>
      <trkpt lat="40.54998" lon="20.0228">
        <ele>701.41998291016</ele>
        <time>2024-09-27T08:11:25.000Z</time>
      </trkpt>
      <trkpt lat="40.54991" lon="20.02278">
        <ele>700.94000244141</ele>
        <time>2024-09-27T08:11:26.000Z</time>
      </trkpt>
      <trkpt lat="40.54979" lon="20.02272">
        <ele>699.5</ele>
        <time>2024-09-27T08:11:27.000Z</time>
      </trkpt>
      <trkpt lat="40.54973" lon="20.02268">
        <ele>699.5</ele>
        <time>2024-09-27T08:11:28.000Z</time>
      </trkpt>
      <trkpt lat="40.54969" lon="20.02265">
        <ele>699.02001953125</ele>
        <time>2024-09-27T08:11:29.000Z</time>
      </trkpt>
      <trkpt lat="40.54964" lon="20.02262">
        <ele>699.02001953125</ele>
        <time>2024-09-27T08:11:30.000Z</time>
      </trkpt>
      <trkpt lat="40.54951" lon="20.02249">
        <ele>698.04998779297</ele>
        <time>2024-09-27T08:11:32.000Z</time>
      </trkpt>
      <trkpt lat="40.5494" lon="20.02237">
        <ele>697.09002685547</ele>
        <time>2024-09-27T08:11:34.000Z</time>
      </trkpt>
      <trkpt lat="40.54928" lon="20.02222">
        <ele>697.09002685547</ele>
        <time>2024-09-27T08:11:37.000Z</time>
      </trkpt>
      <trkpt lat="40.54925" lon="20.02218">
        <ele>697.09002685547</ele>
        <time>2024-09-27T08:11:38.000Z</time>
      </trkpt>
      <trkpt lat="40.54924" lon="20.02216">
        <ele>697.09002685547</ele>
        <time>2024-09-27T08:11:39.000Z</time>
      </trkpt>
      <trkpt lat="40.54922" lon="20.02213">
        <ele>697.09002685547</ele>
        <time>2024-09-27T08:11:40.000Z</time>
      </trkpt>
      <trkpt lat="40.54917" lon="20.02205">
        <ele>696.60998535156</ele>
        <time>2024-09-27T08:11:42.000Z</time>
      </trkpt>
      <trkpt lat="40.54915" lon="20.02201">
        <ele>696.60998535156</ele>
        <time>2024-09-27T08:11:43.000Z</time>
      </trkpt>
      <trkpt lat="40.54911" lon="20.02196">
        <ele>696.13000488281</ele>
        <time>2024-09-27T08:11:44.000Z</time>
      </trkpt>
      <trkpt lat="40.54904" lon="20.0219">
        <ele>696.13000488281</ele>
        <time>2024-09-27T08:11:45.000Z</time>
      </trkpt>
      <trkpt lat="40.54898" lon="20.02186">
        <ele>695.65002441406</ele>
        <time>2024-09-27T08:11:46.000Z</time>
      </trkpt>
      <trkpt lat="40.54885" lon="20.02176">
        <ele>695.16998291016</ele>
        <time>2024-09-27T08:11:48.000Z</time>
      </trkpt>
      <trkpt lat="40.54879" lon="20.02171">
        <ele>694.69000244141</ele>
        <time>2024-09-27T08:11:49.000Z</time>
      </trkpt>
      <trkpt lat="40.54873" lon="20.02167">
        <ele>694.69000244141</ele>
        <time>2024-09-27T08:11:50.000Z</time>
      </trkpt>
      <trkpt lat="40.54863" lon="20.0216">
        <ele>694.21002197266</ele>
        <time>2024-09-27T08:11:51.000Z</time>
      </trkpt>
      <trkpt lat="40.5486" lon="20.02158">
        <ele>694.21002197266</ele>
        <time>2024-09-27T08:11:52.000Z</time>
      </trkpt>
      <trkpt lat="40.54848" lon="20.0215">
        <ele>693.72998046875</ele>
        <time>2024-09-27T08:11:53.000Z</time>
      </trkpt>
      <trkpt lat="40.54845" lon="20.02148">
        <ele>693.25</ele>
        <time>2024-09-27T08:11:54.000Z</time>
      </trkpt>
      <trkpt lat="40.54836" lon="20.02144">
        <ele>692.77001953125</ele>
        <time>2024-09-27T08:11:55.000Z</time>
      </trkpt>
      <trkpt lat="40.5483" lon="20.02142">
        <ele>692.28997802734</ele>
        <time>2024-09-27T08:11:56.000Z</time>
      </trkpt>
      <trkpt lat="40.54822" lon="20.0214">
        <ele>692.28997802734</ele>
        <time>2024-09-27T08:11:57.000Z</time>
      </trkpt>
      <trkpt lat="40.54815" lon="20.02138">
        <ele>691.80999755859</ele>
        <time>2024-09-27T08:11:58.000Z</time>
      </trkpt>
      <trkpt lat="40.54801" lon="20.02137">
        <ele>690.35998535156</ele>
        <time>2024-09-27T08:11:59.000Z</time>
      </trkpt>
      <trkpt lat="40.54798" lon="20.02137">
        <ele>689.88000488281</ele>
        <time>2024-09-27T08:12:00.000Z</time>
      </trkpt>
      <trkpt lat="40.5479" lon="20.02136">
        <ele>689.40002441406</ele>
        <time>2024-09-27T08:12:01.000Z</time>
      </trkpt>
      <trkpt lat="40.54784" lon="20.02136">
        <ele>688.91998291016</ele>
        <time>2024-09-27T08:12:02.000Z</time>
      </trkpt>
      <trkpt lat="40.54769" lon="20.02137">
        <ele>687.96002197266</ele>
        <time>2024-09-27T08:12:03.000Z</time>
      </trkpt>
      <trkpt lat="40.54766" lon="20.02137">
        <ele>687.47998046875</ele>
        <time>2024-09-27T08:12:04.000Z</time>
      </trkpt>
      <trkpt lat="40.54758" lon="20.02136">
        <ele>687</ele>
        <time>2024-09-27T08:12:05.000Z</time>
      </trkpt>
      <trkpt lat="40.54752" lon="20.02136">
        <ele>686.52001953125</ele>
        <time>2024-09-27T08:12:06.000Z</time>
      </trkpt>
      <trkpt lat="40.54746" lon="20.02134">
        <ele>685.55999755859</ele>
        <time>2024-09-27T08:12:07.000Z</time>
      </trkpt>
      <trkpt lat="40.5474" lon="20.02132">
        <ele>685.08001708984</ele>
        <time>2024-09-27T08:12:08.000Z</time>
      </trkpt>
      <trkpt lat="40.54736" lon="20.02129">
        <ele>684.59997558594</ele>
        <time>2024-09-27T08:12:09.000Z</time>
      </trkpt>
      <trkpt lat="40.54732" lon="20.02122">
        <ele>683.63000488281</ele>
        <time>2024-09-27T08:12:10.000Z</time>
      </trkpt>
      <trkpt lat="40.54732" lon="20.02121">
        <ele>683.15002441406</ele>
        <time>2024-09-27T08:12:11.000Z</time>
      </trkpt>
      <trkpt lat="40.54732" lon="20.02114">
        <ele>682.66998291016</ele>
        <time>2024-09-27T08:12:12.000Z</time>
      </trkpt>
      <trkpt lat="40.54733" lon="20.02108">
        <ele>682.19000244141</ele>
        <time>2024-09-27T08:12:13.000Z</time>
      </trkpt>
      <trkpt lat="40.54735" lon="20.02102">
        <ele>681.71002197266</ele>
        <time>2024-09-27T08:12:14.000Z</time>
      </trkpt>
      <trkpt lat="40.54739" lon="20.02096">
        <ele>681.22998046875</ele>
        <time>2024-09-27T08:12:15.000Z</time>
      </trkpt>
      <trkpt lat="40.54743" lon="20.02091">
        <ele>680.75</ele>
        <time>2024-09-27T08:12:16.000Z</time>
      </trkpt>
      <trkpt lat="40.54751" lon="20.02086">
        <ele>679.78997802734</ele>
        <time>2024-09-27T08:12:17.000Z</time>
      </trkpt>
      <trkpt lat="40.54756" lon="20.02083">
        <ele>679.30999755859</ele>
        <time>2024-09-27T08:12:18.000Z</time>
      </trkpt>
      <trkpt lat="40.54766" lon="20.02079">
        <ele>678.34997558594</ele>
        <time>2024-09-27T08:12:19.000Z</time>
      </trkpt>
      <trkpt lat="40.5477" lon="20.02077">
        <ele>677.86999511719</ele>
        <time>2024-09-27T08:12:20.000Z</time>
      </trkpt>
      <trkpt lat="40.54776" lon="20.02072">
        <ele>677.39001464844</ele>
        <time>2024-09-27T08:12:21.000Z</time>
      </trkpt>
      <trkpt lat="40.54783" lon="20.02066">
        <ele>676.41998291016</ele>
        <time>2024-09-27T08:12:22.000Z</time>
      </trkpt>
      <trkpt lat="40.5479" lon="20.02059">
        <ele>675.94000244141</ele>
        <time>2024-09-27T08:12:23.000Z</time>
      </trkpt>
      <trkpt lat="40.54796" lon="20.02051">
        <ele>675.46002197266</ele>
        <time>2024-09-27T08:12:24.000Z</time>
      </trkpt>
      <trkpt lat="40.54802" lon="20.02042">
        <ele>675.46002197266</ele>
        <time>2024-09-27T08:12:25.000Z</time>
      </trkpt>
      <trkpt lat="40.54806" lon="20.02033">
        <ele>674.97998046875</ele>
        <time>2024-09-27T08:12:26.000Z</time>
      </trkpt>
      <trkpt lat="40.5481" lon="20.02024">
        <ele>674.97998046875</ele>
        <time>2024-09-27T08:12:27.000Z</time>
      </trkpt>
      <trkpt lat="40.54814" lon="20.02016">
        <ele>674.5</ele>
        <time>2024-09-27T08:12:28.000Z</time>
      </trkpt>
      <trkpt lat="40.54817" lon="20.02011">
        <ele>674.5</ele>
        <time>2024-09-27T08:12:29.000Z</time>
      </trkpt>
      <trkpt lat="40.54824" lon="20.02002">
        <ele>674.02001953125</ele>
        <time>2024-09-27T08:12:30.000Z</time>
      </trkpt>
      <trkpt lat="40.54827" lon="20.01998">
        <ele>673.53997802734</ele>
        <time>2024-09-27T08:12:31.000Z</time>
      </trkpt>
      <trkpt lat="40.54832" lon="20.01993">
        <ele>673.05999755859</ele>
        <time>2024-09-27T08:12:32.000Z</time>
      </trkpt>
      <trkpt lat="40.54839" lon="20.01986">
        <ele>672.09997558594</ele>
        <time>2024-09-27T08:12:33.000Z</time>
      </trkpt>
      <trkpt lat="40.54843" lon="20.01984">
        <ele>672.09997558594</ele>
        <time>2024-09-27T08:12:34.000Z</time>
      </trkpt>
      <trkpt lat="40.54848" lon="20.01981">
        <ele>671.61999511719</ele>
        <time>2024-09-27T08:12:35.000Z</time>
      </trkpt>
      <trkpt lat="40.54854" lon="20.0198">
        <ele>670.65997314453</ele>
        <time>2024-09-27T08:12:36.000Z</time>
      </trkpt>
      <trkpt lat="40.5486" lon="20.01982">
        <ele>670.17999267578</ele>
        <time>2024-09-27T08:12:37.000Z</time>
      </trkpt>
      <trkpt lat="40.54867" lon="20.01986">
        <ele>669.21997070312</ele>
        <time>2024-09-27T08:12:38.000Z</time>
      </trkpt>
      <trkpt lat="40.54875" lon="20.01993">
        <ele>667.77001953125</ele>
        <time>2024-09-27T08:12:39.000Z</time>
      </trkpt>
      <trkpt lat="40.54881" lon="20.01997">
        <ele>667.28997802734</ele>
        <time>2024-09-27T08:12:40.000Z</time>
      </trkpt>
      <trkpt lat="40.54886" lon="20.02001">
        <ele>666.33001708984</ele>
        <time>2024-09-27T08:12:41.000Z</time>
      </trkpt>
      <trkpt lat="40.54891" lon="20.02003">
        <ele>665.36999511719</ele>
        <time>2024-09-27T08:12:42.000Z</time>
      </trkpt>
      <trkpt lat="40.54898" lon="20.02004">
        <ele>664.40997314453</ele>
        <time>2024-09-27T08:12:43.000Z</time>
      </trkpt>
      <trkpt lat="40.54904" lon="20.02002">
        <ele>663.92999267578</ele>
        <time>2024-09-27T08:12:44.000Z</time>
      </trkpt>
      <trkpt lat="40.54909" lon="20.01997">
        <ele>662.96997070312</ele>
        <time>2024-09-27T08:12:45.000Z</time>
      </trkpt>
      <trkpt lat="40.54915" lon="20.01989">
        <ele>662.01000976562</ele>
        <time>2024-09-27T08:12:46.000Z</time>
      </trkpt>
      <trkpt lat="40.54918" lon="20.01982">
        <ele>661.52001953125</ele>
        <time>2024-09-27T08:12:47.000Z</time>
      </trkpt>
      <trkpt lat="40.54922" lon="20.01973">
        <ele>660.55999755859</ele>
        <time>2024-09-27T08:12:48.000Z</time>
      </trkpt>
      <trkpt lat="40.54925" lon="20.01968">
        <ele>659.59997558594</ele>
        <time>2024-09-27T08:12:49.000Z</time>
      </trkpt>
      <trkpt lat="40.5493" lon="20.01959">
        <ele>658.64001464844</ele>
        <time>2024-09-27T08:12:50.000Z</time>
      </trkpt>
      <trkpt lat="40.54933" lon="20.01954">
        <ele>658.15997314453</ele>
        <time>2024-09-27T08:12:51.000Z</time>
      </trkpt>
      <trkpt lat="40.54937" lon="20.01947">
        <ele>657.20001220703</ele>
        <time>2024-09-27T08:12:52.000Z</time>
      </trkpt>
      <trkpt lat="40.54941" lon="20.01942">
        <ele>656.23999023438</ele>
        <time>2024-09-27T08:12:53.000Z</time>
      </trkpt>
      <trkpt lat="40.54947" lon="20.01936">
        <ele>655.28002929688</ele>
        <time>2024-09-27T08:12:54.000Z</time>
      </trkpt>
      <trkpt lat="40.54955" lon="20.01927">
        <ele>654.30999755859</ele>
        <time>2024-09-27T08:12:55.000Z</time>
      </trkpt>
      <trkpt lat="40.54959" lon="20.01923">
        <ele>653.83001708984</ele>
        <time>2024-09-27T08:12:56.000Z</time>
      </trkpt>
      <trkpt lat="40.54962" lon="20.01918">
        <ele>652.86999511719</ele>
        <time>2024-09-27T08:12:57.000Z</time>
      </trkpt>
      <trkpt lat="40.54965" lon="20.01912">
        <ele>652.39001464844</ele>
        <time>2024-09-27T08:12:58.000Z</time>
      </trkpt>
      <trkpt lat="40.54966" lon="20.01904">
        <ele>651.90997314453</ele>
        <time>2024-09-27T08:12:59.000Z</time>
      </trkpt>
      <trkpt lat="40.54964" lon="20.01896">
        <ele>651.42999267578</ele>
        <time>2024-09-27T08:13:00.000Z</time>
      </trkpt>
      <trkpt lat="40.54961" lon="20.01889">
        <ele>650.46997070312</ele>
        <time>2024-09-27T08:13:01.000Z</time>
      </trkpt>
      <trkpt lat="40.54956" lon="20.01882">
        <ele>649.51000976562</ele>
        <time>2024-09-27T08:13:02.000Z</time>
      </trkpt>
      <trkpt lat="40.5495" lon="20.01876">
        <ele>648.54998779297</ele>
        <time>2024-09-27T08:13:03.000Z</time>
      </trkpt>
      <trkpt lat="40.54945" lon="20.01869">
        <ele>648.07000732422</ele>
        <time>2024-09-27T08:13:04.000Z</time>
      </trkpt>
      <trkpt lat="40.54941" lon="20.01863">
        <ele>647.09997558594</ele>
        <time>2024-09-27T08:13:05.000Z</time>
      </trkpt>
      <trkpt lat="40.54936" lon="20.01851">
        <ele>646.14001464844</ele>
        <time>2024-09-27T08:13:06.000Z</time>
      </trkpt>
      <trkpt lat="40.54935" lon="20.01849">
        <ele>645.65997314453</ele>
        <time>2024-09-27T08:13:07.000Z</time>
      </trkpt>
      <trkpt lat="40.54933" lon="20.01841">
        <ele>645.17999267578</ele>
        <time>2024-09-27T08:13:08.000Z</time>
      </trkpt>
      <trkpt lat="40.54929" lon="20.0183">
        <ele>644.21997070312</ele>
        <time>2024-09-27T08:13:09.000Z</time>
      </trkpt>
      <trkpt lat="40.54926" lon="20.01822">
        <ele>643.26000976562</ele>
        <time>2024-09-27T08:13:10.000Z</time>
      </trkpt>
      <trkpt lat="40.54922" lon="20.01813">
        <ele>642.29998779297</ele>
        <time>2024-09-27T08:13:11.000Z</time>
      </trkpt>
      <trkpt lat="40.54916" lon="20.018">
        <ele>641.82000732422</ele>
        <time>2024-09-27T08:13:12.000Z</time>
      </trkpt>
      <trkpt lat="40.54914" lon="20.01797">
        <ele>641.34002685547</ele>
        <time>2024-09-27T08:13:13.000Z</time>
      </trkpt>
      <trkpt lat="40.54909" lon="20.0179">
        <ele>640.85998535156</ele>
        <time>2024-09-27T08:13:14.000Z</time>
      </trkpt>
      <trkpt lat="40.54905" lon="20.01783">
        <ele>639.89001464844</ele>
        <time>2024-09-27T08:13:15.000Z</time>
      </trkpt>
      <trkpt lat="40.54902" lon="20.01776">
        <ele>639.89001464844</ele>
        <time>2024-09-27T08:13:16.000Z</time>
      </trkpt>
      <trkpt lat="40.549" lon="20.01768">
        <ele>639.40997314453</ele>
        <time>2024-09-27T08:13:17.000Z</time>
      </trkpt>
      <trkpt lat="40.549" lon="20.01761">
        <ele>638.92999267578</ele>
        <time>2024-09-27T08:13:18.000Z</time>
      </trkpt>
      <trkpt lat="40.54902" lon="20.01747">
        <ele>637.48999023438</ele>
        <time>2024-09-27T08:13:19.000Z</time>
      </trkpt>
      <trkpt lat="40.54902" lon="20.01746">
        <ele>637.48999023438</ele>
        <time>2024-09-27T08:13:20.000Z</time>
      </trkpt>
      <trkpt lat="40.54905" lon="20.01733">
        <ele>636.04998779297</ele>
        <time>2024-09-27T08:13:21.000Z</time>
      </trkpt>
      <trkpt lat="40.5491" lon="20.01706">
        <ele>633.65002441406</ele>
        <time>2024-09-27T08:13:23.000Z</time>
      </trkpt>
      <trkpt lat="40.54912" lon="20.01697">
        <ele>632.67999267578</ele>
        <time>2024-09-27T08:13:24.000Z</time>
      </trkpt>
      <trkpt lat="40.54914" lon="20.01684">
        <ele>632.20001220703</ele>
        <time>2024-09-27T08:13:25.000Z</time>
      </trkpt>
      <trkpt lat="40.54914" lon="20.01677">
        <ele>631.71997070312</ele>
        <time>2024-09-27T08:13:26.000Z</time>
      </trkpt>
      <trkpt lat="40.54915" lon="20.01666">
        <ele>631.23999023438</ele>
        <time>2024-09-27T08:13:27.000Z</time>
      </trkpt>
      <trkpt lat="40.54914" lon="20.01657">
        <ele>630.76000976562</ele>
        <time>2024-09-27T08:13:28.000Z</time>
      </trkpt>
      <trkpt lat="40.54914" lon="20.01644">
        <ele>629.79998779297</ele>
        <time>2024-09-27T08:13:29.000Z</time>
      </trkpt>
      <trkpt lat="40.54913" lon="20.01634">
        <ele>629.32000732422</ele>
        <time>2024-09-27T08:13:30.000Z</time>
      </trkpt>
      <trkpt lat="40.54913" lon="20.01625">
        <ele>628.84002685547</ele>
        <time>2024-09-27T08:13:31.000Z</time>
      </trkpt>
      <trkpt lat="40.54913" lon="20.01621">
        <ele>628.35998535156</ele>
        <time>2024-09-27T08:13:32.000Z</time>
      </trkpt>
      <trkpt lat="40.54912" lon="20.01612">
        <ele>627.88000488281</ele>
        <time>2024-09-27T08:13:33.000Z</time>
      </trkpt>
      <trkpt lat="40.54911" lon="20.01605">
        <ele>627.40002441406</ele>
        <time>2024-09-27T08:13:34.000Z</time>
      </trkpt>
      <trkpt lat="40.54911" lon="20.01595">
        <ele>626.91998291016</ele>
        <time>2024-09-27T08:13:35.000Z</time>
      </trkpt>
      <trkpt lat="40.54913" lon="20.01584">
        <ele>626.44000244141</ele>
        <time>2024-09-27T08:13:36.000Z</time>
      </trkpt>
      <trkpt lat="40.54917" lon="20.01562">
        <ele>625.46997070312</ele>
        <time>2024-09-27T08:13:38.000Z</time>
      </trkpt>
      <trkpt lat="40.54929" lon="20.0152">
        <ele>624.51000976562</ele>
        <time>2024-09-27T08:13:43.000Z</time>
      </trkpt>
      <trkpt lat="40.54931" lon="20.01512">
        <ele>624.51000976562</ele>
        <time>2024-09-27T08:13:44.000Z</time>
      </trkpt>
      <trkpt lat="40.54934" lon="20.01486">
        <ele>624.51000976562</ele>
        <time>2024-09-27T08:13:46.000Z</time>
      </trkpt>
      <trkpt lat="40.54934" lon="20.01473">
        <ele>624.51000976562</ele>
        <time>2024-09-27T08:13:47.000Z</time>
      </trkpt>
      <trkpt lat="40.54933" lon="20.0146">
        <ele>624.98999023438</ele>
        <time>2024-09-27T08:13:48.000Z</time>
      </trkpt>
      <trkpt lat="40.54931" lon="20.01448">
        <ele>624.98999023438</ele>
        <time>2024-09-27T08:13:49.000Z</time>
      </trkpt>
      <trkpt lat="40.54928" lon="20.01438">
        <ele>625.96002197266</ele>
        <time>2024-09-27T08:13:50.000Z</time>
      </trkpt>
      <trkpt lat="40.54923" lon="20.01429">
        <ele>626.44000244141</ele>
        <time>2024-09-27T08:13:51.000Z</time>
      </trkpt>
      <trkpt lat="40.54908" lon="20.01414">
        <ele>627.88000488281</ele>
        <time>2024-09-27T08:13:52.000Z</time>
      </trkpt>
      <trkpt lat="40.54906" lon="20.01411">
        <ele>627.88000488281</ele>
        <time>2024-09-27T08:13:53.000Z</time>
      </trkpt>
      <trkpt lat="40.54892" lon="20.01396">
        <ele>629.79998779297</ele>
        <time>2024-09-27T08:13:54.000Z</time>
      </trkpt>
      <trkpt lat="40.54887" lon="20.0139">
        <ele>630.28002929688</ele>
        <time>2024-09-27T08:13:55.000Z</time>
      </trkpt>
      <trkpt lat="40.54884" lon="20.01387">
        <ele>630.76000976562</ele>
        <time>2024-09-27T08:13:56.000Z</time>
      </trkpt>
      <trkpt lat="40.54878" lon="20.01381">
        <ele>631.23999023438</ele>
        <time>2024-09-27T08:13:57.000Z</time>
      </trkpt>
      <trkpt lat="40.54872" lon="20.01374">
        <ele>632.20001220703</ele>
        <time>2024-09-27T08:13:58.000Z</time>
      </trkpt>
      <trkpt lat="40.54866" lon="20.01365">
        <ele>632.67999267578</ele>
        <time>2024-09-27T08:13:59.000Z</time>
      </trkpt>
      <trkpt lat="40.54862" lon="20.01356">
        <ele>633.16998291016</ele>
        <time>2024-09-27T08:14:00.000Z</time>
      </trkpt>
      <trkpt lat="40.54858" lon="20.01346">
        <ele>634.13000488281</ele>
        <time>2024-09-27T08:14:01.000Z</time>
      </trkpt>
      <trkpt lat="40.54857" lon="20.01338">
        <ele>634.60998535156</ele>
        <time>2024-09-27T08:14:02.000Z</time>
      </trkpt>
      <trkpt lat="40.54857" lon="20.01329">
        <ele>635.09002685547</ele>
        <time>2024-09-27T08:14:03.000Z</time>
      </trkpt>
      <trkpt lat="40.54859" lon="20.01318">
        <ele>635.57000732422</ele>
        <time>2024-09-27T08:14:04.000Z</time>
      </trkpt>
      <trkpt lat="40.54862" lon="20.01308">
        <ele>635.57000732422</ele>
        <time>2024-09-27T08:14:05.000Z</time>
      </trkpt>
      <trkpt lat="40.54866" lon="20.01297">
        <ele>636.04998779297</ele>
        <time>2024-09-27T08:14:06.000Z</time>
      </trkpt>
      <trkpt lat="40.54873" lon="20.01279">
        <ele>636.04998779297</ele>
        <time>2024-09-27T08:14:07.000Z</time>
      </trkpt>
      <trkpt lat="40.54876" lon="20.01272">
        <ele>636.04998779297</ele>
        <time>2024-09-27T08:14:08.000Z</time>
      </trkpt>
      <trkpt lat="40.54877" lon="20.01267">
        <ele>636.04998779297</ele>
        <time>2024-09-27T08:14:09.000Z</time>
      </trkpt>
      <trkpt lat="40.5488" lon="20.01258">
        <ele>636.04998779297</ele>
        <time>2024-09-27T08:14:10.000Z</time>
      </trkpt>
      <trkpt lat="40.54883" lon="20.01245">
        <ele>636.04998779297</ele>
        <time>2024-09-27T08:14:11.000Z</time>
      </trkpt>
      <trkpt lat="40.54884" lon="20.0124">
        <ele>636.04998779297</ele>
        <time>2024-09-27T08:14:12.000Z</time>
      </trkpt>
      <trkpt lat="40.54885" lon="20.01231">
        <ele>636.04998779297</ele>
        <time>2024-09-27T08:14:13.000Z</time>
      </trkpt>
      <trkpt lat="40.54884" lon="20.01222">
        <ele>636.04998779297</ele>
        <time>2024-09-27T08:14:14.000Z</time>
      </trkpt>
      <trkpt lat="40.54881" lon="20.01216">
        <ele>636.04998779297</ele>
        <time>2024-09-27T08:14:15.000Z</time>
      </trkpt>
      <trkpt lat="40.54876" lon="20.0121">
        <ele>636.04998779297</ele>
        <time>2024-09-27T08:14:16.000Z</time>
      </trkpt>
      <trkpt lat="40.54864" lon="20.01201">
        <ele>636.04998779297</ele>
        <time>2024-09-27T08:14:17.000Z</time>
      </trkpt>
      <trkpt lat="40.5486" lon="20.01197">
        <ele>636.04998779297</ele>
        <time>2024-09-27T08:14:18.000Z</time>
      </trkpt>
      <trkpt lat="40.54853" lon="20.01189">
        <ele>636.04998779297</ele>
        <time>2024-09-27T08:14:19.000Z</time>
      </trkpt>
      <trkpt lat="40.54846" lon="20.0118">
        <ele>636.04998779297</ele>
        <time>2024-09-27T08:14:20.000Z</time>
      </trkpt>
      <trkpt lat="40.54839" lon="20.01173">
        <ele>635.57000732422</ele>
        <time>2024-09-27T08:14:21.000Z</time>
      </trkpt>
      <trkpt lat="40.54834" lon="20.01167">
        <ele>635.09002685547</ele>
        <time>2024-09-27T08:14:22.000Z</time>
      </trkpt>
      <trkpt lat="40.54828" lon="20.01161">
        <ele>634.13000488281</ele>
        <time>2024-09-27T08:14:23.000Z</time>
      </trkpt>
      <trkpt lat="40.54823" lon="20.01156">
        <ele>633.16998291016</ele>
        <time>2024-09-27T08:14:24.000Z</time>
      </trkpt>
      <trkpt lat="40.54816" lon="20.01152">
        <ele>632.67999267578</ele>
        <time>2024-09-27T08:14:25.000Z</time>
      </trkpt>
      <trkpt lat="40.54807" lon="20.01149">
        <ele>631.71997070312</ele>
        <time>2024-09-27T08:14:26.000Z</time>
      </trkpt>
      <trkpt lat="40.54784" lon="20.01141">
        <ele>629.79998779297</ele>
        <time>2024-09-27T08:14:28.000Z</time>
      </trkpt>
      <trkpt lat="40.54777" lon="20.01138">
        <ele>629.32000732422</ele>
        <time>2024-09-27T08:14:29.000Z</time>
      </trkpt>
      <trkpt lat="40.54773" lon="20.01136">
        <ele>629.32000732422</ele>
        <time>2024-09-27T08:14:30.000Z</time>
      </trkpt>
      <trkpt lat="40.54768" lon="20.01132">
        <ele>628.84002685547</ele>
        <time>2024-09-27T08:14:31.000Z</time>
      </trkpt>
      <trkpt lat="40.5476" lon="20.01125">
        <ele>628.35998535156</ele>
        <time>2024-09-27T08:14:32.000Z</time>
      </trkpt>
      <trkpt lat="40.54754" lon="20.0112">
        <ele>627.88000488281</ele>
        <time>2024-09-27T08:14:33.000Z</time>
      </trkpt>
      <trkpt lat="40.54747" lon="20.01111">
        <ele>627.40002441406</ele>
        <time>2024-09-27T08:14:34.000Z</time>
      </trkpt>
      <trkpt lat="40.54742" lon="20.01105">
        <ele>626.91998291016</ele>
        <time>2024-09-27T08:14:35.000Z</time>
      </trkpt>
      <trkpt lat="40.54727" lon="20.01085">
        <ele>626.44000244141</ele>
        <time>2024-09-27T08:14:37.000Z</time>
      </trkpt>
      <trkpt lat="40.54723" lon="20.0108">
        <ele>625.96002197266</ele>
        <time>2024-09-27T08:14:38.000Z</time>
      </trkpt>
      <trkpt lat="40.54716" lon="20.01074">
        <ele>625.96002197266</ele>
        <time>2024-09-27T08:14:39.000Z</time>
      </trkpt>
      <trkpt lat="40.54708" lon="20.01068">
        <ele>625.46997070312</ele>
        <time>2024-09-27T08:14:40.000Z</time>
      </trkpt>
      <trkpt lat="40.54695" lon="20.01059">
        <ele>625.46997070312</ele>
        <time>2024-09-27T08:14:41.000Z</time>
      </trkpt>
      <trkpt lat="40.54691" lon="20.01057">
        <ele>624.98999023438</ele>
        <time>2024-09-27T08:14:42.000Z</time>
      </trkpt>
      <trkpt lat="40.54684" lon="20.01051">
        <ele>624.98999023438</ele>
        <time>2024-09-27T08:14:43.000Z</time>
      </trkpt>
      <trkpt lat="40.54672" lon="20.01036">
        <ele>624.98999023438</ele>
        <time>2024-09-27T08:14:44.000Z</time>
      </trkpt>
      <trkpt lat="40.54658" lon="20.01016">
        <ele>624.51000976562</ele>
        <time>2024-09-27T08:14:47.000Z</time>
      </trkpt>
      <trkpt lat="40.54652" lon="20.01008">
        <ele>624.51000976562</ele>
        <time>2024-09-27T08:14:48.000Z</time>
      </trkpt>
      <trkpt lat="40.54646" lon="20.01003">
        <ele>624.03002929688</ele>
        <time>2024-09-27T08:14:49.000Z</time>
      </trkpt>
      <trkpt lat="40.54639" lon="20.00998">
        <ele>624.03002929688</ele>
        <time>2024-09-27T08:14:50.000Z</time>
      </trkpt>
      <trkpt lat="40.54632" lon="20.00995">
        <ele>624.03002929688</ele>
        <time>2024-09-27T08:14:51.000Z</time>
      </trkpt>
      <trkpt lat="40.54625" lon="20.00992">
        <ele>623.54998779297</ele>
        <time>2024-09-27T08:14:52.000Z</time>
      </trkpt>
      <trkpt lat="40.54614" lon="20.00989">
        <ele>623.54998779297</ele>
        <time>2024-09-27T08:14:53.000Z</time>
      </trkpt>
      <trkpt lat="40.54602" lon="20.00988">
        <ele>623.54998779297</ele>
        <time>2024-09-27T08:14:54.000Z</time>
      </trkpt>
      <trkpt lat="40.54586" lon="20.00989">
        <ele>624.03002929688</ele>
        <time>2024-09-27T08:14:56.000Z</time>
      </trkpt>
      <trkpt lat="40.54578" lon="20.00989">
        <ele>624.03002929688</ele>
        <time>2024-09-27T08:14:57.000Z</time>
      </trkpt>
      <trkpt lat="40.54571" lon="20.00987">
        <ele>624.51000976562</ele>
        <time>2024-09-27T08:14:58.000Z</time>
      </trkpt>
      <trkpt lat="40.54562" lon="20.00983">
        <ele>624.51000976562</ele>
        <time>2024-09-27T08:14:59.000Z</time>
      </trkpt>
      <trkpt lat="40.54556" lon="20.00979">
        <ele>624.98999023438</ele>
        <time>2024-09-27T08:15:00.000Z</time>
      </trkpt>
      <trkpt lat="40.54547" lon="20.00974">
        <ele>624.98999023438</ele>
        <time>2024-09-27T08:15:01.000Z</time>
      </trkpt>
      <trkpt lat="40.5454" lon="20.00971">
        <ele>625.46997070312</ele>
        <time>2024-09-27T08:15:02.000Z</time>
      </trkpt>
      <trkpt lat="40.54532" lon="20.00969">
        <ele>625.46997070312</ele>
        <time>2024-09-27T08:15:03.000Z</time>
      </trkpt>
      <trkpt lat="40.54524" lon="20.0097">
        <ele>625.96002197266</ele>
        <time>2024-09-27T08:15:04.000Z</time>
      </trkpt>
      <trkpt lat="40.54516" lon="20.00973">
        <ele>626.44000244141</ele>
        <time>2024-09-27T08:15:05.000Z</time>
      </trkpt>
      <trkpt lat="40.54503" lon="20.0098">
        <ele>626.91998291016</ele>
        <time>2024-09-27T08:15:06.000Z</time>
      </trkpt>
      <trkpt lat="40.54501" lon="20.00981">
        <ele>627.40002441406</ele>
        <time>2024-09-27T08:15:07.000Z</time>
      </trkpt>
      <trkpt lat="40.54494" lon="20.00984">
        <ele>627.40002441406</ele>
        <time>2024-09-27T08:15:08.000Z</time>
      </trkpt>
      <trkpt lat="40.54486" lon="20.00985">
        <ele>627.40002441406</ele>
        <time>2024-09-27T08:15:09.000Z</time>
      </trkpt>
      <trkpt lat="40.54479" lon="20.00983">
        <ele>627.40002441406</ele>
        <time>2024-09-27T08:15:10.000Z</time>
      </trkpt>
      <trkpt lat="40.54472" lon="20.0098">
        <ele>627.40002441406</ele>
        <time>2024-09-27T08:15:11.000Z</time>
      </trkpt>
      <trkpt lat="40.54467" lon="20.00974">
        <ele>626.91998291016</ele>
        <time>2024-09-27T08:15:12.000Z</time>
      </trkpt>
      <trkpt lat="40.54463" lon="20.00967">
        <ele>626.44000244141</ele>
        <time>2024-09-27T08:15:13.000Z</time>
      </trkpt>
      <trkpt lat="40.54454" lon="20.0095">
        <ele>625.46997070312</ele>
        <time>2024-09-27T08:15:15.000Z</time>
      </trkpt>
      <trkpt lat="40.54451" lon="20.00944">
        <ele>624.98999023438</ele>
        <time>2024-09-27T08:15:16.000Z</time>
      </trkpt>
      <trkpt lat="40.54446" lon="20.0094">
        <ele>624.98999023438</ele>
        <time>2024-09-27T08:15:17.000Z</time>
      </trkpt>
      <trkpt lat="40.54441" lon="20.00939">
        <ele>624.51000976562</ele>
        <time>2024-09-27T08:15:18.000Z</time>
      </trkpt>
      <trkpt lat="40.54435" lon="20.0094">
        <ele>624.51000976562</ele>
        <time>2024-09-27T08:15:19.000Z</time>
      </trkpt>
      <trkpt lat="40.54426" lon="20.00943">
        <ele>623.54998779297</ele>
        <time>2024-09-27T08:15:20.000Z</time>
      </trkpt>
      <trkpt lat="40.54422" lon="20.00945">
        <ele>623.54998779297</ele>
        <time>2024-09-27T08:15:21.000Z</time>
      </trkpt>
      <trkpt lat="40.54413" lon="20.00948">
        <ele>622.59002685547</ele>
        <time>2024-09-27T08:15:22.000Z</time>
      </trkpt>
      <trkpt lat="40.54407" lon="20.00951">
        <ele>621.63000488281</ele>
        <time>2024-09-27T08:15:23.000Z</time>
      </trkpt>
      <trkpt lat="40.54395" lon="20.00954">
        <ele>620.66998291016</ele>
        <time>2024-09-27T08:15:24.000Z</time>
      </trkpt>
      <trkpt lat="40.5439" lon="20.00956">
        <ele>619.71002197266</ele>
        <time>2024-09-27T08:15:25.000Z</time>
      </trkpt>
      <trkpt lat="40.54382" lon="20.00958">
        <ele>618.75</ele>
        <time>2024-09-27T08:15:26.000Z</time>
      </trkpt>
      <trkpt lat="40.54375" lon="20.00961">
        <ele>618.26000976562</ele>
        <time>2024-09-27T08:15:27.000Z</time>
      </trkpt>
      <trkpt lat="40.54368" lon="20.00963">
        <ele>617.78002929688</ele>
        <time>2024-09-27T08:15:28.000Z</time>
      </trkpt>
      <trkpt lat="40.54362" lon="20.00962">
        <ele>616.82000732422</ele>
        <time>2024-09-27T08:15:29.000Z</time>
      </trkpt>
      <trkpt lat="40.54356" lon="20.00957">
        <ele>615.85998535156</ele>
        <time>2024-09-27T08:15:30.000Z</time>
      </trkpt>
      <trkpt lat="40.54351" lon="20.00951">
        <ele>614.90002441406</ele>
        <time>2024-09-27T08:15:31.000Z</time>
      </trkpt>
      <trkpt lat="40.54346" lon="20.00941">
        <ele>613.94000244141</ele>
        <time>2024-09-27T08:15:32.000Z</time>
      </trkpt>
      <trkpt lat="40.54343" lon="20.00934">
        <ele>613.94000244141</ele>
        <time>2024-09-27T08:15:33.000Z</time>
      </trkpt>
      <trkpt lat="40.54305" lon="20.00871">
        <ele>614.41998291016</ele>
        <time>2024-09-27T08:15:40.000Z</time>
      </trkpt>
      <trkpt lat="40.543" lon="20.00865">
        <ele>614.90002441406</ele>
        <time>2024-09-27T08:15:41.000Z</time>
      </trkpt>
      <trkpt lat="40.54293" lon="20.0086">
        <ele>615.85998535156</ele>
        <time>2024-09-27T08:15:42.000Z</time>
      </trkpt>
      <trkpt lat="40.54269" lon="20.00846">
        <ele>618.26000976562</ele>
        <time>2024-09-27T08:15:45.000Z</time>
      </trkpt>
      <trkpt lat="40.54256" lon="20.00839">
        <ele>619.22998046875</ele>
        <time>2024-09-27T08:15:46.000Z</time>
      </trkpt>
      <trkpt lat="40.54253" lon="20.00838">
        <ele>619.22998046875</ele>
        <time>2024-09-27T08:15:47.000Z</time>
      </trkpt>
      <trkpt lat="40.54246" lon="20.00833">
        <ele>620.19000244141</ele>
        <time>2024-09-27T08:15:48.000Z</time>
      </trkpt>
      <trkpt lat="40.54241" lon="20.00827">
        <ele>620.66998291016</ele>
        <time>2024-09-27T08:15:49.000Z</time>
      </trkpt>
      <trkpt lat="40.54233" lon="20.0082">
        <ele>621.63000488281</ele>
        <time>2024-09-27T08:15:50.000Z</time>
      </trkpt>
      <trkpt lat="40.54226" lon="20.00814">
        <ele>622.59002685547</ele>
        <time>2024-09-27T08:15:51.000Z</time>
      </trkpt>
      <trkpt lat="40.54221" lon="20.00811">
        <ele>622.59002685547</ele>
        <time>2024-09-27T08:15:52.000Z</time>
      </trkpt>
      <trkpt lat="40.54215" lon="20.0081">
        <ele>623.54998779297</ele>
        <time>2024-09-27T08:15:53.000Z</time>
      </trkpt>
      <trkpt lat="40.54209" lon="20.00811">
        <ele>623.54998779297</ele>
        <time>2024-09-27T08:15:54.000Z</time>
      </trkpt>
      <trkpt lat="40.54204" lon="20.00816">
        <ele>624.03002929688</ele>
        <time>2024-09-27T08:15:55.000Z</time>
      </trkpt>
      <trkpt lat="40.54202" lon="20.00822">
        <ele>624.51000976562</ele>
        <time>2024-09-27T08:15:56.000Z</time>
      </trkpt>
      <trkpt lat="40.54202" lon="20.0083">
        <ele>624.51000976562</ele>
        <time>2024-09-27T08:15:57.000Z</time>
      </trkpt>
      <trkpt lat="40.54204" lon="20.00836">
        <ele>624.51000976562</ele>
        <time>2024-09-27T08:15:58.000Z</time>
      </trkpt>
      <trkpt lat="40.54209" lon="20.00843">
        <ele>624.51000976562</ele>
        <time>2024-09-27T08:15:59.000Z</time>
      </trkpt>
      <trkpt lat="40.5422" lon="20.00851">
        <ele>624.98999023438</ele>
        <time>2024-09-27T08:16:00.000Z</time>
      </trkpt>
      <trkpt lat="40.54225" lon="20.00855">
        <ele>625.46997070312</ele>
        <time>2024-09-27T08:16:01.000Z</time>
      </trkpt>
      <trkpt lat="40.54229" lon="20.0086">
        <ele>625.46997070312</ele>
        <time>2024-09-27T08:16:02.000Z</time>
      </trkpt>
      <trkpt lat="40.54235" lon="20.00866">
        <ele>625.96002197266</ele>
        <time>2024-09-27T08:16:03.000Z</time>
      </trkpt>
      <trkpt lat="40.54238" lon="20.00872">
        <ele>625.96002197266</ele>
        <time>2024-09-27T08:16:04.000Z</time>
      </trkpt>
      <trkpt lat="40.54241" lon="20.00879">
        <ele>625.96002197266</ele>
        <time>2024-09-27T08:16:05.000Z</time>
      </trkpt>
      <trkpt lat="40.54242" lon="20.00885">
        <ele>626.44000244141</ele>
        <time>2024-09-27T08:16:06.000Z</time>
      </trkpt>
      <trkpt lat="40.54237" lon="20.00895">
        <ele>626.44000244141</ele>
        <time>2024-09-27T08:16:08.000Z</time>
      </trkpt>
      <trkpt lat="40.54233" lon="20.00896">
        <ele>626.44000244141</ele>
        <time>2024-09-27T08:16:09.000Z</time>
      </trkpt>
      <trkpt lat="40.54229" lon="20.00896">
        <ele>626.91998291016</ele>
        <time>2024-09-27T08:16:10.000Z</time>
      </trkpt>
      <trkpt lat="40.54223" lon="20.00894">
        <ele>626.91998291016</ele>
        <time>2024-09-27T08:16:11.000Z</time>
      </trkpt>
      <trkpt lat="40.54218" lon="20.0089">
        <ele>626.91998291016</ele>
        <time>2024-09-27T08:16:12.000Z</time>
      </trkpt>
      <trkpt lat="40.54214" lon="20.00884">
        <ele>627.40002441406</ele>
        <time>2024-09-27T08:16:13.000Z</time>
      </trkpt>
      <trkpt lat="40.54206" lon="20.00872">
        <ele>627.88000488281</ele>
        <time>2024-09-27T08:16:14.000Z</time>
      </trkpt>
      <trkpt lat="40.54197" lon="20.00857">
        <ele>629.32000732422</ele>
        <time>2024-09-27T08:16:16.000Z</time>
      </trkpt>
      <trkpt lat="40.54194" lon="20.0085">
        <ele>629.79998779297</ele>
        <time>2024-09-27T08:16:17.000Z</time>
      </trkpt>
      <trkpt lat="40.54191" lon="20.00842">
        <ele>630.28002929688</ele>
        <time>2024-09-27T08:16:18.000Z</time>
      </trkpt>
      <trkpt lat="40.54189" lon="20.00834">
        <ele>630.76000976562</ele>
        <time>2024-09-27T08:16:19.000Z</time>
      </trkpt>
      <trkpt lat="40.54189" lon="20.00826">
        <ele>631.23999023438</ele>
        <time>2024-09-27T08:16:20.000Z</time>
      </trkpt>
      <trkpt lat="40.5419" lon="20.00817">
        <ele>631.71997070312</ele>
        <time>2024-09-27T08:16:21.000Z</time>
      </trkpt>
      <trkpt lat="40.54192" lon="20.00809">
        <ele>632.67999267578</ele>
        <time>2024-09-27T08:16:22.000Z</time>
      </trkpt>
      <trkpt lat="40.54198" lon="20.00796">
        <ele>633.65002441406</ele>
        <time>2024-09-27T08:16:23.000Z</time>
      </trkpt>
      <trkpt lat="40.54201" lon="20.00789">
        <ele>634.13000488281</ele>
        <time>2024-09-27T08:16:24.000Z</time>
      </trkpt>
      <trkpt lat="40.54203" lon="20.00778">
        <ele>635.09002685547</ele>
        <time>2024-09-27T08:16:25.000Z</time>
      </trkpt>
      <trkpt lat="40.54204" lon="20.00768">
        <ele>636.53002929688</ele>
        <time>2024-09-27T08:16:26.000Z</time>
      </trkpt>
      <trkpt lat="40.54202" lon="20.00761">
        <ele>637.01000976562</ele>
        <time>2024-09-27T08:16:27.000Z</time>
      </trkpt>
      <trkpt lat="40.54198" lon="20.00754">
        <ele>637.96997070312</ele>
        <time>2024-09-27T08:16:28.000Z</time>
      </trkpt>
      <trkpt lat="40.54191" lon="20.00746">
        <ele>639.40997314453</ele>
        <time>2024-09-27T08:16:29.000Z</time>
      </trkpt>
      <trkpt lat="40.54185" lon="20.00739">
        <ele>640.38000488281</ele>
        <time>2024-09-27T08:16:30.000Z</time>
      </trkpt>
      <trkpt lat="40.5418" lon="20.00734">
        <ele>640.85998535156</ele>
        <time>2024-09-27T08:16:31.000Z</time>
      </trkpt>
      <trkpt lat="40.54175" lon="20.00727">
        <ele>641.82000732422</ele>
        <time>2024-09-27T08:16:32.000Z</time>
      </trkpt>
      <trkpt lat="40.54172" lon="20.00722">
        <ele>642.29998779297</ele>
        <time>2024-09-27T08:16:33.000Z</time>
      </trkpt>
      <trkpt lat="40.54148" lon="20.00683">
        <ele>645.65997314453</ele>
        <time>2024-09-27T08:16:38.000Z</time>
      </trkpt>
      <trkpt lat="40.54144" lon="20.00677">
        <ele>646.14001464844</ele>
        <time>2024-09-27T08:16:39.000Z</time>
      </trkpt>
      <trkpt lat="40.54124" lon="20.00655">
        <ele>648.54998779297</ele>
        <time>2024-09-27T08:16:42.000Z</time>
      </trkpt>
      <trkpt lat="40.54119" lon="20.00648">
        <ele>649.03002929688</ele>
        <time>2024-09-27T08:16:43.000Z</time>
      </trkpt>
      <trkpt lat="40.54114" lon="20.0064">
        <ele>649.98999023438</ele>
        <time>2024-09-27T08:16:44.000Z</time>
      </trkpt>
      <trkpt lat="40.5411" lon="20.00635">
        <ele>650.46997070312</ele>
        <time>2024-09-27T08:16:45.000Z</time>
      </trkpt>
      <trkpt lat="40.54106" lon="20.00627">
        <ele>651.42999267578</ele>
        <time>2024-09-27T08:16:46.000Z</time>
      </trkpt>
      <trkpt lat="40.54104" lon="20.00619">
        <ele>651.90997314453</ele>
        <time>2024-09-27T08:16:47.000Z</time>
      </trkpt>
      <trkpt lat="40.54105" lon="20.00613">
        <ele>652.39001464844</ele>
        <time>2024-09-27T08:16:48.000Z</time>
      </trkpt>
      <trkpt lat="40.54107" lon="20.00607">
        <ele>652.86999511719</ele>
        <time>2024-09-27T08:16:49.000Z</time>
      </trkpt>
      <trkpt lat="40.54112" lon="20.00602">
        <ele>653.34997558594</ele>
        <time>2024-09-27T08:16:50.000Z</time>
      </trkpt>
      <trkpt lat="40.5412" lon="20.00596">
        <ele>652.39001464844</ele>
        <time>2024-09-27T08:16:51.000Z</time>
      </trkpt>
      <trkpt lat="40.54126" lon="20.00591">
        <ele>651.90997314453</ele>
        <time>2024-09-27T08:16:52.000Z</time>
      </trkpt>
      <trkpt lat="40.54133" lon="20.00583">
        <ele>651.90997314453</ele>
        <time>2024-09-27T08:16:53.000Z</time>
      </trkpt>
      <trkpt lat="40.54138" lon="20.00574">
        <ele>652.39001464844</ele>
        <time>2024-09-27T08:16:54.000Z</time>
      </trkpt>
      <trkpt lat="40.5414" lon="20.00565">
        <ele>652.86999511719</ele>
        <time>2024-09-27T08:16:55.000Z</time>
      </trkpt>
      <trkpt lat="40.54142" lon="20.00556">
        <ele>653.83001708984</ele>
        <time>2024-09-27T08:16:56.000Z</time>
      </trkpt>
      <trkpt lat="40.54144" lon="20.00549">
        <ele>654.30999755859</ele>
        <time>2024-09-27T08:16:57.000Z</time>
      </trkpt>
      <trkpt lat="40.54148" lon="20.00544">
        <ele>654.79998779297</ele>
        <time>2024-09-27T08:16:58.000Z</time>
      </trkpt>
      <trkpt lat="40.54153" lon="20.00538">
        <ele>655.28002929688</ele>
        <time>2024-09-27T08:16:59.000Z</time>
      </trkpt>
      <trkpt lat="40.54166" lon="20.0053">
        <ele>656.23999023438</ele>
        <time>2024-09-27T08:17:01.000Z</time>
      </trkpt>
      <trkpt lat="40.54173" lon="20.00525">
        <ele>656.71997070312</ele>
        <time>2024-09-27T08:17:02.000Z</time>
      </trkpt>
      <trkpt lat="40.5418" lon="20.00517">
        <ele>657.20001220703</ele>
        <time>2024-09-27T08:17:03.000Z</time>
      </trkpt>
      <trkpt lat="40.54185" lon="20.00514">
        <ele>657.67999267578</ele>
        <time>2024-09-27T08:17:04.000Z</time>
      </trkpt>
      <trkpt lat="40.5419" lon="20.00512">
        <ele>657.67999267578</ele>
        <time>2024-09-27T08:17:05.000Z</time>
      </trkpt>
      <trkpt lat="40.54197" lon="20.00511">
        <ele>657.67999267578</ele>
        <time>2024-09-27T08:17:06.000Z</time>
      </trkpt>
      <trkpt lat="40.54202" lon="20.00511">
        <ele>657.67999267578</ele>
        <time>2024-09-27T08:17:07.000Z</time>
      </trkpt>
      <trkpt lat="40.5421" lon="20.00512">
        <ele>656.71997070312</ele>
        <time>2024-09-27T08:17:08.000Z</time>
      </trkpt>
      <trkpt lat="40.54217" lon="20.0051">
        <ele>655.76000976562</ele>
        <time>2024-09-27T08:17:09.000Z</time>
      </trkpt>
      <trkpt lat="40.54224" lon="20.00506">
        <ele>655.76000976562</ele>
        <time>2024-09-27T08:17:10.000Z</time>
      </trkpt>
      <trkpt lat="40.54229" lon="20.00499">
        <ele>655.76000976562</ele>
        <time>2024-09-27T08:17:11.000Z</time>
      </trkpt>
      <trkpt lat="40.54235" lon="20.0049">
        <ele>655.76000976562</ele>
        <time>2024-09-27T08:17:12.000Z</time>
      </trkpt>
      <trkpt lat="40.54239" lon="20.0048">
        <ele>655.76000976562</ele>
        <time>2024-09-27T08:17:13.000Z</time>
      </trkpt>
      <trkpt lat="40.54241" lon="20.0047">
        <ele>655.76000976562</ele>
        <time>2024-09-27T08:17:14.000Z</time>
      </trkpt>
      <trkpt lat="40.54242" lon="20.0046">
        <ele>655.76000976562</ele>
        <time>2024-09-27T08:17:15.000Z</time>
      </trkpt>
      <trkpt lat="40.54241" lon="20.00448">
        <ele>656.23999023438</ele>
        <time>2024-09-27T08:17:16.000Z</time>
      </trkpt>
      <trkpt lat="40.5424" lon="20.00438">
        <ele>656.23999023438</ele>
        <time>2024-09-27T08:17:17.000Z</time>
      </trkpt>
      <trkpt lat="40.54241" lon="20.00428">
        <ele>656.23999023438</ele>
        <time>2024-09-27T08:17:18.000Z</time>
      </trkpt>
      <trkpt lat="40.54242" lon="20.00418">
        <ele>656.71997070312</ele>
        <time>2024-09-27T08:17:19.000Z</time>
      </trkpt>
      <trkpt lat="40.54245" lon="20.0041">
        <ele>656.71997070312</ele>
        <time>2024-09-27T08:17:20.000Z</time>
      </trkpt>
      <trkpt lat="40.54249" lon="20.00401">
        <ele>657.20001220703</ele>
        <time>2024-09-27T08:17:21.000Z</time>
      </trkpt>
      <trkpt lat="40.54253" lon="20.00394">
        <ele>657.20001220703</ele>
        <time>2024-09-27T08:17:22.000Z</time>
      </trkpt>
      <trkpt lat="40.54262" lon="20.00379">
        <ele>657.67999267578</ele>
        <time>2024-09-27T08:17:23.000Z</time>
      </trkpt>
      <trkpt lat="40.54265" lon="20.00374">
        <ele>657.67999267578</ele>
        <time>2024-09-27T08:17:24.000Z</time>
      </trkpt>
      <trkpt lat="40.54268" lon="20.00368">
        <ele>657.67999267578</ele>
        <time>2024-09-27T08:17:25.000Z</time>
      </trkpt>
      <trkpt lat="40.54275" lon="20.00355">
        <ele>658.15997314453</ele>
        <time>2024-09-27T08:17:26.000Z</time>
      </trkpt>
      <trkpt lat="40.54279" lon="20.00347">
        <ele>658.15997314453</ele>
        <time>2024-09-27T08:17:27.000Z</time>
      </trkpt>
      <trkpt lat="40.54306" lon="20.00303">
        <ele>660.08001708984</ele>
        <time>2024-09-27T08:17:31.000Z</time>
      </trkpt>
      <trkpt lat="40.5431" lon="20.00294">
        <ele>661.03997802734</ele>
        <time>2024-09-27T08:17:32.000Z</time>
      </trkpt>
      <trkpt lat="40.54315" lon="20.00279">
        <ele>661.52001953125</ele>
        <time>2024-09-27T08:17:33.000Z</time>
      </trkpt>
      <trkpt lat="40.5432" lon="20.00265">
        <ele>662.01000976562</ele>
        <time>2024-09-27T08:17:34.000Z</time>
      </trkpt>
      <trkpt lat="40.54322" lon="20.00261">
        <ele>662.48999023438</ele>
        <time>2024-09-27T08:17:35.000Z</time>
      </trkpt>
      <trkpt lat="40.54326" lon="20.00252">
        <ele>662.48999023438</ele>
        <time>2024-09-27T08:17:36.000Z</time>
      </trkpt>
      <trkpt lat="40.54333" lon="20.00244">
        <ele>662.96997070312</ele>
        <time>2024-09-27T08:17:37.000Z</time>
      </trkpt>
      <trkpt lat="40.54341" lon="20.00237">
        <ele>663.45001220703</ele>
        <time>2024-09-27T08:17:38.000Z</time>
      </trkpt>
      <trkpt lat="40.54348" lon="20.00229">
        <ele>663.92999267578</ele>
        <time>2024-09-27T08:17:39.000Z</time>
      </trkpt>
      <trkpt lat="40.54353" lon="20.00219">
        <ele>663.92999267578</ele>
        <time>2024-09-27T08:17:40.000Z</time>
      </trkpt>
      <trkpt lat="40.54356" lon="20.00208">
        <ele>664.40997314453</ele>
        <time>2024-09-27T08:17:41.000Z</time>
      </trkpt>
      <trkpt lat="40.54359" lon="20.00197">
        <ele>664.89001464844</ele>
        <time>2024-09-27T08:17:42.000Z</time>
      </trkpt>
      <trkpt lat="40.5436" lon="20.00186">
        <ele>665.36999511719</ele>
        <time>2024-09-27T08:17:43.000Z</time>
      </trkpt>
      <trkpt lat="40.5436" lon="20.00176">
        <ele>665.84997558594</ele>
        <time>2024-09-27T08:17:44.000Z</time>
      </trkpt>
      <trkpt lat="40.54359" lon="20.00168">
        <ele>665.84997558594</ele>
        <time>2024-09-27T08:17:45.000Z</time>
      </trkpt>
      <trkpt lat="40.54356" lon="20.00158">
        <ele>666.33001708984</ele>
        <time>2024-09-27T08:17:46.000Z</time>
      </trkpt>
      <trkpt lat="40.54354" lon="20.00149">
        <ele>666.33001708984</ele>
        <time>2024-09-27T08:17:47.000Z</time>
      </trkpt>
      <trkpt lat="40.54351" lon="20.0014">
        <ele>666.33001708984</ele>
        <time>2024-09-27T08:17:48.000Z</time>
      </trkpt>
      <trkpt lat="40.54349" lon="20.00131">
        <ele>666.80999755859</ele>
        <time>2024-09-27T08:17:49.000Z</time>
      </trkpt>
      <trkpt lat="40.54349" lon="20.00123">
        <ele>666.80999755859</ele>
        <time>2024-09-27T08:17:50.000Z</time>
      </trkpt>
      <trkpt lat="40.54351" lon="20.00114">
        <ele>666.80999755859</ele>
        <time>2024-09-27T08:17:51.000Z</time>
      </trkpt>
      <trkpt lat="40.54355" lon="20.00106">
        <ele>667.28997802734</ele>
        <time>2024-09-27T08:17:52.000Z</time>
      </trkpt>
      <trkpt lat="40.54361" lon="20.00099">
        <ele>667.28997802734</ele>
        <time>2024-09-27T08:17:53.000Z</time>
      </trkpt>
      <trkpt lat="40.54367" lon="20.00095">
        <ele>666.80999755859</ele>
        <time>2024-09-27T08:17:54.000Z</time>
      </trkpt>
      <trkpt lat="40.54373" lon="20.00093">
        <ele>666.80999755859</ele>
        <time>2024-09-27T08:17:55.000Z</time>
      </trkpt>
      <trkpt lat="40.5438" lon="20.00093">
        <ele>666.80999755859</ele>
        <time>2024-09-27T08:17:56.000Z</time>
      </trkpt>
      <trkpt lat="40.54387" lon="20.00097">
        <ele>666.80999755859</ele>
        <time>2024-09-27T08:17:57.000Z</time>
      </trkpt>
      <trkpt lat="40.54394" lon="20.00102">
        <ele>666.80999755859</ele>
        <time>2024-09-27T08:17:58.000Z</time>
      </trkpt>
      <trkpt lat="40.54403" lon="20.00107">
        <ele>666.33001708984</ele>
        <time>2024-09-27T08:17:59.000Z</time>
      </trkpt>
      <trkpt lat="40.54411" lon="20.00111">
        <ele>666.33001708984</ele>
        <time>2024-09-27T08:18:00.000Z</time>
      </trkpt>
      <trkpt lat="40.54421" lon="20.00113">
        <ele>666.33001708984</ele>
        <time>2024-09-27T08:18:01.000Z</time>
      </trkpt>
      <trkpt lat="40.5443" lon="20.00113">
        <ele>665.84997558594</ele>
        <time>2024-09-27T08:18:02.000Z</time>
      </trkpt>
      <trkpt lat="40.54439" lon="20.00112">
        <ele>665.84997558594</ele>
        <time>2024-09-27T08:18:03.000Z</time>
      </trkpt>
      <trkpt lat="40.54446" lon="20.00112">
        <ele>665.84997558594</ele>
        <time>2024-09-27T08:18:04.000Z</time>
      </trkpt>
      <trkpt lat="40.54451" lon="20.00116">
        <ele>665.84997558594</ele>
        <time>2024-09-27T08:18:05.000Z</time>
      </trkpt>
      <trkpt lat="40.54457" lon="20.00121">
        <ele>665.84997558594</ele>
        <time>2024-09-27T08:18:06.000Z</time>
      </trkpt>
      <trkpt lat="40.54467" lon="20.00138">
        <ele>666.33001708984</ele>
        <time>2024-09-27T08:18:08.000Z</time>
      </trkpt>
      <trkpt lat="40.54474" lon="20.00146">
        <ele>666.80999755859</ele>
        <time>2024-09-27T08:18:09.000Z</time>
      </trkpt>
      <trkpt lat="40.5448" lon="20.00149">
        <ele>667.28997802734</ele>
        <time>2024-09-27T08:18:10.000Z</time>
      </trkpt>
      <trkpt lat="40.54487" lon="20.0015">
        <ele>667.28997802734</ele>
        <time>2024-09-27T08:18:11.000Z</time>
      </trkpt>
      <trkpt lat="40.54495" lon="20.00147">
        <ele>667.77001953125</ele>
        <time>2024-09-27T08:18:12.000Z</time>
      </trkpt>
      <trkpt lat="40.54512" lon="20.00138">
        <ele>668.25</ele>
        <time>2024-09-27T08:18:14.000Z</time>
      </trkpt>
      <trkpt lat="40.54519" lon="20.00135">
        <ele>668.25</ele>
        <time>2024-09-27T08:18:15.000Z</time>
      </trkpt>
      <trkpt lat="40.54528" lon="20.00134">
        <ele>668.72998046875</ele>
        <time>2024-09-27T08:18:16.000Z</time>
      </trkpt>
      <trkpt lat="40.5454" lon="20.00136">
        <ele>669.21997070312</ele>
        <time>2024-09-27T08:18:17.000Z</time>
      </trkpt>
      <trkpt lat="40.54545" lon="20.00137">
        <ele>669.21997070312</ele>
        <time>2024-09-27T08:18:18.000Z</time>
      </trkpt>
      <trkpt lat="40.54552" lon="20.00136">
        <ele>669.70001220703</ele>
        <time>2024-09-27T08:18:19.000Z</time>
      </trkpt>
      <trkpt lat="40.54559" lon="20.00132">
        <ele>670.17999267578</ele>
        <time>2024-09-27T08:18:20.000Z</time>
      </trkpt>
      <trkpt lat="40.54569" lon="20.00122">
        <ele>670.65997314453</ele>
        <time>2024-09-27T08:18:21.000Z</time>
      </trkpt>
      <trkpt lat="40.54576" lon="20.00114">
        <ele>671.14001464844</ele>
        <time>2024-09-27T08:18:22.000Z</time>
      </trkpt>
      <trkpt lat="40.54578" lon="20.00112">
        <ele>671.61999511719</ele>
        <time>2024-09-27T08:18:23.000Z</time>
      </trkpt>
      <trkpt lat="40.54584" lon="20.00103">
        <ele>672.09997558594</ele>
        <time>2024-09-27T08:18:24.000Z</time>
      </trkpt>
      <trkpt lat="40.54588" lon="20.00095">
        <ele>672.58001708984</ele>
        <time>2024-09-27T08:18:25.000Z</time>
      </trkpt>
      <trkpt lat="40.54591" lon="20.00087">
        <ele>673.05999755859</ele>
        <time>2024-09-27T08:18:26.000Z</time>
      </trkpt>
      <trkpt lat="40.54593" lon="20.00073">
        <ele>673.53997802734</ele>
        <time>2024-09-27T08:18:27.000Z</time>
      </trkpt>
      <trkpt lat="40.54594" lon="20.00067">
        <ele>674.02001953125</ele>
        <time>2024-09-27T08:18:28.000Z</time>
      </trkpt>
      <trkpt lat="40.54602" lon="20.00024">
        <ele>675.94000244141</ele>
        <time>2024-09-27T08:18:32.000Z</time>
      </trkpt>
      <trkpt lat="40.54603" lon="20.00015">
        <ele>676.41998291016</ele>
        <time>2024-09-27T08:18:33.000Z</time>
      </trkpt>
      <trkpt lat="40.54603" lon="20.00005">
        <ele>676.41998291016</ele>
        <time>2024-09-27T08:18:34.000Z</time>
      </trkpt>
      <trkpt lat="40.54601" lon="19.99995">
        <ele>676.90997314453</ele>
        <time>2024-09-27T08:18:35.000Z</time>
      </trkpt>
      <trkpt lat="40.54597" lon="19.99986">
        <ele>677.39001464844</ele>
        <time>2024-09-27T08:18:36.000Z</time>
      </trkpt>
      <trkpt lat="40.54589" lon="19.99972">
        <ele>677.86999511719</ele>
        <time>2024-09-27T08:18:37.000Z</time>
      </trkpt>
      <trkpt lat="40.54588" lon="19.9997">
        <ele>678.34997558594</ele>
        <time>2024-09-27T08:18:38.000Z</time>
      </trkpt>
      <trkpt lat="40.54585" lon="19.99964">
        <ele>678.34997558594</ele>
        <time>2024-09-27T08:18:39.000Z</time>
      </trkpt>
      <trkpt lat="40.54583" lon="19.99957">
        <ele>678.83001708984</ele>
        <time>2024-09-27T08:18:40.000Z</time>
      </trkpt>
      <trkpt lat="40.54581" lon="19.99948">
        <ele>679.30999755859</ele>
        <time>2024-09-27T08:18:41.000Z</time>
      </trkpt>
      <trkpt lat="40.54581" lon="19.99939">
        <ele>679.78997802734</ele>
        <time>2024-09-27T08:18:42.000Z</time>
      </trkpt>
      <trkpt lat="40.54582" lon="19.99929">
        <ele>680.75</ele>
        <time>2024-09-27T08:18:43.000Z</time>
      </trkpt>
      <trkpt lat="40.54584" lon="19.99906">
        <ele>680.75</ele>
        <time>2024-09-27T08:18:45.000Z</time>
      </trkpt>
      <trkpt lat="40.54588" lon="19.99887">
        <ele>681.22998046875</ele>
        <time>2024-09-27T08:18:46.000Z</time>
      </trkpt>
      <trkpt lat="40.54588" lon="19.99882">
        <ele>681.71002197266</ele>
        <time>2024-09-27T08:18:47.000Z</time>
      </trkpt>
      <trkpt lat="40.5459" lon="19.99869">
        <ele>682.19000244141</ele>
        <time>2024-09-27T08:18:48.000Z</time>
      </trkpt>
      <trkpt lat="40.5459" lon="19.9986">
        <ele>682.66998291016</ele>
        <time>2024-09-27T08:18:49.000Z</time>
      </trkpt>
      <trkpt lat="40.5459" lon="19.99846">
        <ele>683.15002441406</ele>
        <time>2024-09-27T08:18:50.000Z</time>
      </trkpt>
      <trkpt lat="40.5459" lon="19.99833">
        <ele>683.15002441406</ele>
        <time>2024-09-27T08:18:51.000Z</time>
      </trkpt>
      <trkpt lat="40.5459" lon="19.99827">
        <ele>683.63000488281</ele>
        <time>2024-09-27T08:18:52.000Z</time>
      </trkpt>
      <trkpt lat="40.54591" lon="19.99797">
        <ele>684.11999511719</ele>
        <time>2024-09-27T08:18:55.000Z</time>
      </trkpt>
      <trkpt lat="40.54592" lon="19.99782">
        <ele>684.59997558594</ele>
        <time>2024-09-27T08:18:56.000Z</time>
      </trkpt>
      <trkpt lat="40.54592" lon="19.99778">
        <ele>685.08001708984</ele>
        <time>2024-09-27T08:18:57.000Z</time>
      </trkpt>
      <trkpt lat="40.54592" lon="19.9977">
        <ele>685.08001708984</ele>
        <time>2024-09-27T08:18:58.000Z</time>
      </trkpt>
      <trkpt lat="40.5459" lon="19.99764">
        <ele>685.55999755859</ele>
        <time>2024-09-27T08:18:59.000Z</time>
      </trkpt>
      <trkpt lat="40.54586" lon="19.99761">
        <ele>686.03997802734</ele>
        <time>2024-09-27T08:19:00.000Z</time>
      </trkpt>
      <trkpt lat="40.54581" lon="19.9976">
        <ele>686.52001953125</ele>
        <time>2024-09-27T08:19:01.000Z</time>
      </trkpt>
      <trkpt lat="40.54576" lon="19.99762">
        <ele>687</ele>
        <time>2024-09-27T08:19:02.000Z</time>
      </trkpt>
      <trkpt lat="40.5457" lon="19.99765">
        <ele>687.47998046875</ele>
        <time>2024-09-27T08:19:03.000Z</time>
      </trkpt>
      <trkpt lat="40.54563" lon="19.99769">
        <ele>687.96002197266</ele>
        <time>2024-09-27T08:19:04.000Z</time>
      </trkpt>
      <trkpt lat="40.54557" lon="19.99773">
        <ele>688.44000244141</ele>
        <time>2024-09-27T08:19:05.000Z</time>
      </trkpt>
      <trkpt lat="40.54551" lon="19.99779">
        <ele>688.91998291016</ele>
        <time>2024-09-27T08:19:06.000Z</time>
      </trkpt>
      <trkpt lat="40.54544" lon="19.99788">
        <ele>689.40002441406</ele>
        <time>2024-09-27T08:19:07.000Z</time>
      </trkpt>
      <trkpt lat="40.5454" lon="19.99792">
        <ele>689.88000488281</ele>
        <time>2024-09-27T08:19:08.000Z</time>
      </trkpt>
      <trkpt lat="40.54536" lon="19.99799">
        <ele>689.88000488281</ele>
        <time>2024-09-27T08:19:09.000Z</time>
      </trkpt>
      <trkpt lat="40.54533" lon="19.99808">
        <ele>690.35998535156</ele>
        <time>2024-09-27T08:19:10.000Z</time>
      </trkpt>
      <trkpt lat="40.54532" lon="19.99816">
        <ele>690.84002685547</ele>
        <time>2024-09-27T08:19:11.000Z</time>
      </trkpt>
      <trkpt lat="40.54532" lon="19.99825">
        <ele>690.84002685547</ele>
        <time>2024-09-27T08:19:12.000Z</time>
      </trkpt>
      <trkpt lat="40.54533" lon="19.99835">
        <ele>691.33001708984</ele>
        <time>2024-09-27T08:19:13.000Z</time>
      </trkpt>
      <trkpt lat="40.54534" lon="19.99844">
        <ele>691.80999755859</ele>
        <time>2024-09-27T08:19:14.000Z</time>
      </trkpt>
      <trkpt lat="40.54536" lon="19.99861">
        <ele>692.28997802734</ele>
        <time>2024-09-27T08:19:15.000Z</time>
      </trkpt>
      <trkpt lat="40.54537" lon="19.99865">
        <ele>692.28997802734</ele>
        <time>2024-09-27T08:19:16.000Z</time>
      </trkpt>
      <trkpt lat="40.54539" lon="19.99877">
        <ele>692.28997802734</ele>
        <time>2024-09-27T08:19:17.000Z</time>
      </trkpt>
      <trkpt lat="40.54541" lon="19.99888">
        <ele>692.77001953125</ele>
        <time>2024-09-27T08:19:18.000Z</time>
      </trkpt>
      <trkpt lat="40.54545" lon="19.99921">
        <ele>693.72998046875</ele>
        <time>2024-09-27T08:19:21.000Z</time>
      </trkpt>
      <trkpt lat="40.54545" lon="19.9993">
        <ele>693.72998046875</ele>
        <time>2024-09-27T08:19:22.000Z</time>
      </trkpt>
      <trkpt lat="40.54544" lon="19.99939">
        <ele>694.21002197266</ele>
        <time>2024-09-27T08:19:23.000Z</time>
      </trkpt>
      <trkpt lat="40.54543" lon="19.99957">
        <ele>694.69000244141</ele>
        <time>2024-09-27T08:19:24.000Z</time>
      </trkpt>
      <trkpt lat="40.54543" lon="19.99961">
        <ele>694.69000244141</ele>
        <time>2024-09-27T08:19:25.000Z</time>
      </trkpt>
      <trkpt lat="40.54543" lon="19.99978">
        <ele>695.16998291016</ele>
        <time>2024-09-27T08:19:26.000Z</time>
      </trkpt>
      <trkpt lat="40.54543" lon="19.99981">
        <ele>695.65002441406</ele>
        <time>2024-09-27T08:19:27.000Z</time>
      </trkpt>
      <trkpt lat="40.54543" lon="19.99989">
        <ele>696.13000488281</ele>
        <time>2024-09-27T08:19:28.000Z</time>
      </trkpt>
      <trkpt lat="40.54541" lon="19.99996">
        <ele>696.13000488281</ele>
        <time>2024-09-27T08:19:29.000Z</time>
      </trkpt>
      <trkpt lat="40.54538" lon="20.00002">
        <ele>696.60998535156</ele>
        <time>2024-09-27T08:19:30.000Z</time>
      </trkpt>
      <trkpt lat="40.54535" lon="20.00007">
        <ele>696.60998535156</ele>
        <time>2024-09-27T08:19:31.000Z</time>
      </trkpt>
      <trkpt lat="40.5453" lon="20.00009">
        <ele>696.60998535156</ele>
        <time>2024-09-27T08:19:32.000Z</time>
      </trkpt>
      <trkpt lat="40.54524" lon="20.0001">
        <ele>696.60998535156</ele>
        <time>2024-09-27T08:19:33.000Z</time>
      </trkpt>
      <trkpt lat="40.54516" lon="20.00008">
        <ele>697.09002685547</ele>
        <time>2024-09-27T08:19:34.000Z</time>
      </trkpt>
      <trkpt lat="40.54494" lon="19.99998">
        <ele>698.53002929688</ele>
        <time>2024-09-27T08:19:36.000Z</time>
      </trkpt>
      <trkpt lat="40.5449" lon="19.99997">
        <ele>699.02001953125</ele>
        <time>2024-09-27T08:19:37.000Z</time>
      </trkpt>
      <trkpt lat="40.54472" lon="19.99991">
        <ele>700.46002197266</ele>
        <time>2024-09-27T08:19:39.000Z</time>
      </trkpt>
      <trkpt lat="40.54467" lon="19.9999">
        <ele>700.94000244141</ele>
        <time>2024-09-27T08:19:40.000Z</time>
      </trkpt>
      <trkpt lat="40.54461" lon="19.99987">
        <ele>701.41998291016</ele>
        <time>2024-09-27T08:19:41.000Z</time>
      </trkpt>
      <trkpt lat="40.5445" lon="19.99982">
        <ele>702.85998535156</ele>
        <time>2024-09-27T08:19:42.000Z</time>
      </trkpt>
      <trkpt lat="40.54447" lon="19.9998">
        <ele>703.34002685547</ele>
        <time>2024-09-27T08:19:43.000Z</time>
      </trkpt>
      <trkpt lat="40.54441" lon="19.99977">
        <ele>703.82000732422</ele>
        <time>2024-09-27T08:19:44.000Z</time>
      </trkpt>
      <trkpt lat="40.54431" lon="19.99968">
        <ele>704.78002929688</ele>
        <time>2024-09-27T08:19:45.000Z</time>
      </trkpt>
      <trkpt lat="40.54418" lon="19.99955">
        <ele>705.75</ele>
        <time>2024-09-27T08:19:47.000Z</time>
      </trkpt>
      <trkpt lat="40.54414" lon="19.99951">
        <ele>706.22998046875</ele>
        <time>2024-09-27T08:19:48.000Z</time>
      </trkpt>
      <trkpt lat="40.54404" lon="19.99942">
        <ele>707.19000244141</ele>
        <time>2024-09-27T08:19:49.000Z</time>
      </trkpt>
      <trkpt lat="40.54403" lon="19.99941">
        <ele>707.19000244141</ele>
        <time>2024-09-27T08:19:50.000Z</time>
      </trkpt>
      <trkpt lat="40.54381" lon="19.99919">
        <ele>710.07000732422</ele>
        <time>2024-09-27T08:19:53.000Z</time>
      </trkpt>
      <trkpt lat="40.54377" lon="19.99915">
        <ele>710.54998779297</ele>
        <time>2024-09-27T08:19:54.000Z</time>
      </trkpt>
      <trkpt lat="40.54371" lon="19.99909">
        <ele>711.03002929688</ele>
        <time>2024-09-27T08:19:55.000Z</time>
      </trkpt>
      <trkpt lat="40.54365" lon="19.99905">
        <ele>711.98999023438</ele>
        <time>2024-09-27T08:19:56.000Z</time>
      </trkpt>
      <trkpt lat="40.54358" lon="19.99902">
        <ele>712.95001220703</ele>
        <time>2024-09-27T08:19:57.000Z</time>
      </trkpt>
      <trkpt lat="40.5435" lon="19.999">
        <ele>713.44000244141</ele>
        <time>2024-09-27T08:19:58.000Z</time>
      </trkpt>
      <trkpt lat="40.54342" lon="19.99898">
        <ele>714.40002441406</ele>
        <time>2024-09-27T08:19:59.000Z</time>
      </trkpt>
      <trkpt lat="40.54329" lon="19.99896">
        <ele>715.84002685547</ele>
        <time>2024-09-27T08:20:00.000Z</time>
      </trkpt>
      <trkpt lat="40.54323" lon="19.99895">
        <ele>716.79998779297</ele>
        <time>2024-09-27T08:20:01.000Z</time>
      </trkpt>
      <trkpt lat="40.54314" lon="19.99894">
        <ele>717.76000976562</ele>
        <time>2024-09-27T08:20:03.000Z</time>
      </trkpt>
      <trkpt lat="40.54307" lon="19.99894">
        <ele>718.23999023438</ele>
        <time>2024-09-27T08:20:04.000Z</time>
      </trkpt>
      <trkpt lat="40.543" lon="19.99893">
        <ele>718.71997070312</ele>
        <time>2024-09-27T08:20:05.000Z</time>
      </trkpt>
      <trkpt lat="40.54287" lon="19.99892">
        <ele>719.67999267578</ele>
        <time>2024-09-27T08:20:06.000Z</time>
      </trkpt>
      <trkpt lat="40.54281" lon="19.99892">
        <ele>720.15997314453</ele>
        <time>2024-09-27T08:20:07.000Z</time>
      </trkpt>
      <trkpt lat="40.54278" lon="19.99892">
        <ele>720.15997314453</ele>
        <time>2024-09-27T08:20:08.000Z</time>
      </trkpt>
      <trkpt lat="40.54271" lon="19.99892">
        <ele>721.13000488281</ele>
        <time>2024-09-27T08:20:09.000Z</time>
      </trkpt>
      <trkpt lat="40.54263" lon="19.99893">
        <ele>721.60998535156</ele>
        <time>2024-09-27T08:20:10.000Z</time>
      </trkpt>
      <trkpt lat="40.54256" lon="19.99896">
        <ele>722.09002685547</ele>
        <time>2024-09-27T08:20:11.000Z</time>
      </trkpt>
      <trkpt lat="40.5425" lon="19.999">
        <ele>722.57000732422</ele>
        <time>2024-09-27T08:20:12.000Z</time>
      </trkpt>
      <trkpt lat="40.54243" lon="19.99907">
        <ele>723.04998779297</ele>
        <time>2024-09-27T08:20:13.000Z</time>
      </trkpt>
      <trkpt lat="40.54237" lon="19.99915">
        <ele>723.53002929688</ele>
        <time>2024-09-27T08:20:14.000Z</time>
      </trkpt>
      <trkpt lat="40.5422" lon="19.99944">
        <ele>724.96997070312</ele>
        <time>2024-09-27T08:20:17.000Z</time>
      </trkpt>
      <trkpt lat="40.54219" lon="19.99946">
        <ele>724.96997070312</ele>
        <time>2024-09-27T08:20:18.000Z</time>
      </trkpt>
      <trkpt lat="40.54216" lon="19.99954">
        <ele>725.45001220703</ele>
        <time>2024-09-27T08:20:19.000Z</time>
      </trkpt>
      <trkpt lat="40.54215" lon="19.99963">
        <ele>725.45001220703</ele>
        <time>2024-09-27T08:20:20.000Z</time>
      </trkpt>
      <trkpt lat="40.54215" lon="19.99972">
        <ele>725.92999267578</ele>
        <time>2024-09-27T08:20:21.000Z</time>
      </trkpt>
      <trkpt lat="40.54216" lon="19.99981">
        <ele>725.92999267578</ele>
        <time>2024-09-27T08:20:22.000Z</time>
      </trkpt>
      <trkpt lat="40.54219" lon="19.99989">
        <ele>725.92999267578</ele>
        <time>2024-09-27T08:20:23.000Z</time>
      </trkpt>
      <trkpt lat="40.54224" lon="19.99996">
        <ele>725.92999267578</ele>
        <time>2024-09-27T08:20:24.000Z</time>
      </trkpt>
      <trkpt lat="40.54229" lon="20.00001">
        <ele>725.92999267578</ele>
        <time>2024-09-27T08:20:25.000Z</time>
      </trkpt>
      <trkpt lat="40.54237" lon="20.00007">
        <ele>725.92999267578</ele>
        <time>2024-09-27T08:20:26.000Z</time>
      </trkpt>
      <trkpt lat="40.54238" lon="20.00009">
        <ele>725.92999267578</ele>
        <time>2024-09-27T08:20:27.000Z</time>
      </trkpt>
      <trkpt lat="40.54242" lon="20.00014">
        <ele>725.92999267578</ele>
        <time>2024-09-27T08:20:28.000Z</time>
      </trkpt>
      <trkpt lat="40.54245" lon="20.00021">
        <ele>725.92999267578</ele>
        <time>2024-09-27T08:20:29.000Z</time>
      </trkpt>
      <trkpt lat="40.54245" lon="20.00028">
        <ele>726.40997314453</ele>
        <time>2024-09-27T08:20:30.000Z</time>
      </trkpt>
      <trkpt lat="40.54242" lon="20.00034">
        <ele>726.40997314453</ele>
        <time>2024-09-27T08:20:31.000Z</time>
      </trkpt>
      <trkpt lat="40.54238" lon="20.00039">
        <ele>726.40997314453</ele>
        <time>2024-09-27T08:20:32.000Z</time>
      </trkpt>
      <trkpt lat="40.54233" lon="20.00042">
        <ele>726.89001464844</ele>
        <time>2024-09-27T08:20:33.000Z</time>
      </trkpt>
      <trkpt lat="40.54226" lon="20.00043">
        <ele>726.89001464844</ele>
        <time>2024-09-27T08:20:34.000Z</time>
      </trkpt>
      <trkpt lat="40.54217" lon="20.00042">
        <ele>727.36999511719</ele>
        <time>2024-09-27T08:20:35.000Z</time>
      </trkpt>
      <trkpt lat="40.54208" lon="20.0004">
        <ele>728.34002685547</ele>
        <time>2024-09-27T08:20:36.000Z</time>
      </trkpt>
      <trkpt lat="40.54202" lon="20.0004">
        <ele>728.82000732422</ele>
        <time>2024-09-27T08:20:37.000Z</time>
      </trkpt>
      <trkpt lat="40.54196" lon="20.00041">
        <ele>729.78002929688</ele>
        <time>2024-09-27T08:20:38.000Z</time>
      </trkpt>
      <trkpt lat="40.54191" lon="20.00044">
        <ele>730.26000976562</ele>
        <time>2024-09-27T08:20:39.000Z</time>
      </trkpt>
      <trkpt lat="40.54186" lon="20.00052">
        <ele>730.73999023438</ele>
        <time>2024-09-27T08:20:40.000Z</time>
      </trkpt>
      <trkpt lat="40.54181" lon="20.00062">
        <ele>731.21997070312</ele>
        <time>2024-09-27T08:20:41.000Z</time>
      </trkpt>
      <trkpt lat="40.54172" lon="20.00091">
        <ele>732.65997314453</ele>
        <time>2024-09-27T08:20:44.000Z</time>
      </trkpt>
      <trkpt lat="40.54169" lon="20.001">
        <ele>733.14001464844</ele>
        <time>2024-09-27T08:20:45.000Z</time>
      </trkpt>
      <trkpt lat="40.54164" lon="20.00107">
        <ele>734.09997558594</ele>
        <time>2024-09-27T08:20:46.000Z</time>
      </trkpt>
      <trkpt lat="40.5415" lon="20.00121">
        <ele>735.54998779297</ele>
        <time>2024-09-27T08:20:48.000Z</time>
      </trkpt>
      <trkpt lat="40.54147" lon="20.00125">
        <ele>736.03002929688</ele>
        <time>2024-09-27T08:20:49.000Z</time>
      </trkpt>
      <trkpt lat="40.54141" lon="20.00133">
        <ele>736.98999023438</ele>
        <time>2024-09-27T08:20:50.000Z</time>
      </trkpt>
      <trkpt lat="40.54135" lon="20.00144">
        <ele>738.42999267578</ele>
        <time>2024-09-27T08:20:51.000Z</time>
      </trkpt>
      <trkpt lat="40.54132" lon="20.00149">
        <ele>738.90997314453</ele>
        <time>2024-09-27T08:20:52.000Z</time>
      </trkpt>
      <trkpt lat="40.54129" lon="20.00157">
        <ele>739.39001464844</ele>
        <time>2024-09-27T08:20:53.000Z</time>
      </trkpt>
      <trkpt lat="40.54126" lon="20.00167">
        <ele>740.34997558594</ele>
        <time>2024-09-27T08:20:54.000Z</time>
      </trkpt>
      <trkpt lat="40.54122" lon="20.00183">
        <ele>741.78997802734</ele>
        <time>2024-09-27T08:20:55.000Z</time>
      </trkpt>
      <trkpt lat="40.54121" lon="20.00189">
        <ele>742.28002929688</ele>
        <time>2024-09-27T08:20:56.000Z</time>
      </trkpt>
      <trkpt lat="40.54118" lon="20.002">
        <ele>743.23999023438</ele>
        <time>2024-09-27T08:20:57.000Z</time>
      </trkpt>
      <trkpt lat="40.54116" lon="20.00207">
        <ele>743.71997070312</ele>
        <time>2024-09-27T08:20:58.000Z</time>
      </trkpt>
      <trkpt lat="40.54114" lon="20.00224">
        <ele>744.67999267578</ele>
        <time>2024-09-27T08:20:59.000Z</time>
      </trkpt>
      <trkpt lat="40.54114" lon="20.00229">
        <ele>745.15997314453</ele>
        <time>2024-09-27T08:21:00.000Z</time>
      </trkpt>
      <trkpt lat="40.54113" lon="20.00238">
        <ele>745.64001464844</ele>
        <time>2024-09-27T08:21:01.000Z</time>
      </trkpt>
      <trkpt lat="40.54113" lon="20.00258">
        <ele>747.08001708984</ele>
        <time>2024-09-27T08:21:02.000Z</time>
      </trkpt>
      <trkpt lat="40.54113" lon="20.00268">
        <ele>748.03997802734</ele>
        <time>2024-09-27T08:21:03.000Z</time>
      </trkpt>
      <trkpt lat="40.54113" lon="20.0027">
        <ele>748.03997802734</ele>
        <time>2024-09-27T08:21:04.000Z</time>
      </trkpt>
      <trkpt lat="40.54112" lon="20.0028">
        <ele>748.52001953125</ele>
        <time>2024-09-27T08:21:05.000Z</time>
      </trkpt>
      <trkpt lat="40.5411" lon="20.00287">
        <ele>749</ele>
        <time>2024-09-27T08:21:06.000Z</time>
      </trkpt>
      <trkpt lat="40.54106" lon="20.00293">
        <ele>749</ele>
        <time>2024-09-27T08:21:07.000Z</time>
      </trkpt>
      <trkpt lat="40.54102" lon="20.00297">
        <ele>749.48999023438</ele>
        <time>2024-09-27T08:21:08.000Z</time>
      </trkpt>
      <trkpt lat="40.54096" lon="20.00298">
        <ele>749.48999023438</ele>
        <time>2024-09-27T08:21:09.000Z</time>
      </trkpt>
      <trkpt lat="40.5409" lon="20.00297">
        <ele>749.96997070312</ele>
        <time>2024-09-27T08:21:10.000Z</time>
      </trkpt>
      <trkpt lat="40.54082" lon="20.00294">
        <ele>749.96997070312</ele>
        <time>2024-09-27T08:21:11.000Z</time>
      </trkpt>
      <trkpt lat="40.54075" lon="20.0029">
        <ele>750.92999267578</ele>
        <time>2024-09-27T08:21:12.000Z</time>
      </trkpt>
      <trkpt lat="40.54071" lon="20.00289">
        <ele>750.92999267578</ele>
        <time>2024-09-27T08:21:13.000Z</time>
      </trkpt>
      <trkpt lat="40.54066" lon="20.00286">
        <ele>750.92999267578</ele>
        <time>2024-09-27T08:21:14.000Z</time>
      </trkpt>
      <trkpt lat="40.54061" lon="20.00285">
        <ele>750.92999267578</ele>
        <time>2024-09-27T08:21:15.000Z</time>
      </trkpt>
      <trkpt lat="40.54056" lon="20.00287">
        <ele>750.92999267578</ele>
        <time>2024-09-27T08:21:16.000Z</time>
      </trkpt>
      <trkpt lat="40.54051" lon="20.00291">
        <ele>750.92999267578</ele>
        <time>2024-09-27T08:21:17.000Z</time>
      </trkpt>
      <trkpt lat="40.5404" lon="20.00303">
        <ele>750.92999267578</ele>
        <time>2024-09-27T08:21:18.000Z</time>
      </trkpt>
      <trkpt lat="40.54038" lon="20.00305">
        <ele>750.92999267578</ele>
        <time>2024-09-27T08:21:19.000Z</time>
      </trkpt>
      <trkpt lat="40.54033" lon="20.00313">
        <ele>750.92999267578</ele>
        <time>2024-09-27T08:21:20.000Z</time>
      </trkpt>
      <trkpt lat="40.54028" lon="20.00322">
        <ele>751.40997314453</ele>
        <time>2024-09-27T08:21:21.000Z</time>
      </trkpt>
      <trkpt lat="40.54023" lon="20.00327">
        <ele>752.36999511719</ele>
        <time>2024-09-27T08:21:22.000Z</time>
      </trkpt>
      <trkpt lat="40.54016" lon="20.00331">
        <ele>753.33001708984</ele>
        <time>2024-09-27T08:21:23.000Z</time>
      </trkpt>
      <trkpt lat="40.54009" lon="20.00332">
        <ele>753.80999755859</ele>
        <time>2024-09-27T08:21:24.000Z</time>
      </trkpt>
      <trkpt lat="40.54" lon="20.0033">
        <ele>754.77001953125</ele>
        <time>2024-09-27T08:21:25.000Z</time>
      </trkpt>
      <trkpt lat="40.53991" lon="20.00328">
        <ele>755.25</ele>
        <time>2024-09-27T08:21:26.000Z</time>
      </trkpt>
      <trkpt lat="40.53971" lon="20.00327">
        <ele>756.69000244141</ele>
        <time>2024-09-27T08:21:28.000Z</time>
      </trkpt>
      <trkpt lat="40.53967" lon="20.00326">
        <ele>757.65997314453</ele>
        <time>2024-09-27T08:21:29.000Z</time>
      </trkpt>
      <trkpt lat="40.53959" lon="20.00327">
        <ele>758.61999511719</ele>
        <time>2024-09-27T08:21:30.000Z</time>
      </trkpt>
      <trkpt lat="40.53953" lon="20.00327">
        <ele>759.09997558594</ele>
        <time>2024-09-27T08:21:31.000Z</time>
      </trkpt>
      <trkpt lat="40.53945" lon="20.00328">
        <ele>759.58001708984</ele>
        <time>2024-09-27T08:21:32.000Z</time>
      </trkpt>
      <trkpt lat="40.53937" lon="20.00328">
        <ele>760.53997802734</ele>
        <time>2024-09-27T08:21:33.000Z</time>
      </trkpt>
      <trkpt lat="40.53931" lon="20.00327">
        <ele>761.02001953125</ele>
        <time>2024-09-27T08:21:34.000Z</time>
      </trkpt>
      <trkpt lat="40.5392" lon="20.00324">
        <ele>761.97998046875</ele>
        <time>2024-09-27T08:21:35.000Z</time>
      </trkpt>
      <trkpt lat="40.53909" lon="20.00323">
        <ele>762.94000244141</ele>
        <time>2024-09-27T08:21:36.000Z</time>
      </trkpt>
      <trkpt lat="40.53901" lon="20.00322">
        <ele>763.41998291016</ele>
        <time>2024-09-27T08:21:37.000Z</time>
      </trkpt>
      <trkpt lat="40.539" lon="20.00322">
        <ele>763.41998291016</ele>
        <time>2024-09-27T08:21:38.000Z</time>
      </trkpt>
      <trkpt lat="40.53891" lon="20.00323">
        <ele>763.90002441406</ele>
        <time>2024-09-27T08:21:39.000Z</time>
      </trkpt>
      <trkpt lat="40.53883" lon="20.00325">
        <ele>764.86999511719</ele>
        <time>2024-09-27T08:21:40.000Z</time>
      </trkpt>
      <trkpt lat="40.53876" lon="20.00327">
        <ele>765.34997558594</ele>
        <time>2024-09-27T08:21:41.000Z</time>
      </trkpt>
      <trkpt lat="40.53868" lon="20.0033">
        <ele>765.83001708984</ele>
        <time>2024-09-27T08:21:42.000Z</time>
      </trkpt>
      <trkpt lat="40.5386" lon="20.00332">
        <ele>766.78997802734</ele>
        <time>2024-09-27T08:21:43.000Z</time>
      </trkpt>
      <trkpt lat="40.53848" lon="20.00333">
        <ele>767.75</ele>
        <time>2024-09-27T08:21:44.000Z</time>
      </trkpt>
      <trkpt lat="40.53843" lon="20.00334">
        <ele>767.75</ele>
        <time>2024-09-27T08:21:45.000Z</time>
      </trkpt>
      <trkpt lat="40.53834" lon="20.00337">
        <ele>768.71002197266</ele>
        <time>2024-09-27T08:21:46.000Z</time>
      </trkpt>
      <trkpt lat="40.53827" lon="20.00341">
        <ele>769.19000244141</ele>
        <time>2024-09-27T08:21:47.000Z</time>
      </trkpt>
      <trkpt lat="40.5382" lon="20.00346">
        <ele>770.15002441406</ele>
        <time>2024-09-27T08:21:48.000Z</time>
      </trkpt>
      <trkpt lat="40.53815" lon="20.00353">
        <ele>770.63000488281</ele>
        <time>2024-09-27T08:21:49.000Z</time>
      </trkpt>
      <trkpt lat="40.53811" lon="20.00362">
        <ele>771.59997558594</ele>
        <time>2024-09-27T08:21:50.000Z</time>
      </trkpt>
      <trkpt lat="40.53807" lon="20.00376">
        <ele>772.08001708984</ele>
        <time>2024-09-27T08:21:51.000Z</time>
      </trkpt>
      <trkpt lat="40.53805" lon="20.00385">
        <ele>773.03997802734</ele>
        <time>2024-09-27T08:21:52.000Z</time>
      </trkpt>
      <trkpt lat="40.53804" lon="20.00393">
        <ele>773.52001953125</ele>
        <time>2024-09-27T08:21:53.000Z</time>
      </trkpt>
      <trkpt lat="40.53802" lon="20.004">
        <ele>773.52001953125</ele>
        <time>2024-09-27T08:21:54.000Z</time>
      </trkpt>
      <trkpt lat="40.53799" lon="20.00405">
        <ele>774</ele>
        <time>2024-09-27T08:21:55.000Z</time>
      </trkpt>
      <trkpt lat="40.53794" lon="20.00409">
        <ele>774.47998046875</ele>
        <time>2024-09-27T08:21:56.000Z</time>
      </trkpt>
      <trkpt lat="40.53788" lon="20.00412">
        <ele>774.47998046875</ele>
        <time>2024-09-27T08:21:57.000Z</time>
      </trkpt>
      <trkpt lat="40.53781" lon="20.00413">
        <ele>774.96002197266</ele>
        <time>2024-09-27T08:21:58.000Z</time>
      </trkpt>
      <trkpt lat="40.53773" lon="20.00412">
        <ele>775.44000244141</ele>
        <time>2024-09-27T08:21:59.000Z</time>
      </trkpt>
      <trkpt lat="40.53766" lon="20.00411">
        <ele>776.40002441406</ele>
        <time>2024-09-27T08:22:00.000Z</time>
      </trkpt>
      <trkpt lat="40.53758" lon="20.0041">
        <ele>777.35998535156</ele>
        <time>2024-09-27T08:22:01.000Z</time>
      </trkpt>
      <trkpt lat="40.5375" lon="20.00409">
        <ele>778.32000732422</ele>
        <time>2024-09-27T08:22:02.000Z</time>
      </trkpt>
      <trkpt lat="40.53743" lon="20.00407">
        <ele>778.80999755859</ele>
        <time>2024-09-27T08:22:03.000Z</time>
      </trkpt>
      <trkpt lat="40.53736" lon="20.00405">
        <ele>779.77001953125</ele>
        <time>2024-09-27T08:22:04.000Z</time>
      </trkpt>
      <trkpt lat="40.53728" lon="20.00404">
        <ele>780.72998046875</ele>
        <time>2024-09-27T08:22:05.000Z</time>
      </trkpt>
      <trkpt lat="40.53721" lon="20.00406">
        <ele>781.69000244141</ele>
        <time>2024-09-27T08:22:06.000Z</time>
      </trkpt>
      <trkpt lat="40.53708" lon="20.00412">
        <ele>783.13000488281</ele>
        <time>2024-09-27T08:22:07.000Z</time>
      </trkpt>
      <trkpt lat="40.53706" lon="20.00413">
        <ele>783.13000488281</ele>
        <time>2024-09-27T08:22:08.000Z</time>
      </trkpt>
      <trkpt lat="40.537" lon="20.00416">
        <ele>784.09002685547</ele>
        <time>2024-09-27T08:22:09.000Z</time>
      </trkpt>
      <trkpt lat="40.53694" lon="20.00418">
        <ele>785.04998779297</ele>
        <time>2024-09-27T08:22:10.000Z</time>
      </trkpt>
      <trkpt lat="40.53689" lon="20.00418">
        <ele>785.53002929688</ele>
        <time>2024-09-27T08:22:11.000Z</time>
      </trkpt>
      <trkpt lat="40.53683" lon="20.00417">
        <ele>786.02001953125</ele>
        <time>2024-09-27T08:22:12.000Z</time>
      </trkpt>
      <trkpt lat="40.53676" lon="20.00414">
        <ele>786.02001953125</ele>
        <time>2024-09-27T08:22:13.000Z</time>
      </trkpt>
      <trkpt lat="40.53668" lon="20.00411">
        <ele>786.5</ele>
        <time>2024-09-27T08:22:14.000Z</time>
      </trkpt>
      <trkpt lat="40.5366" lon="20.00409">
        <ele>786.5</ele>
        <time>2024-09-27T08:22:15.000Z</time>
      </trkpt>
      <trkpt lat="40.53651" lon="20.00409">
        <ele>786.97998046875</ele>
        <time>2024-09-27T08:22:16.000Z</time>
      </trkpt>
      <trkpt lat="40.53642" lon="20.00411">
        <ele>786.97998046875</ele>
        <time>2024-09-27T08:22:17.000Z</time>
      </trkpt>
      <trkpt lat="40.53634" lon="20.00416">
        <ele>787.46002197266</ele>
        <time>2024-09-27T08:22:18.000Z</time>
      </trkpt>
      <trkpt lat="40.53622" lon="20.00424">
        <ele>787.94000244141</ele>
        <time>2024-09-27T08:22:19.000Z</time>
      </trkpt>
      <trkpt lat="40.53619" lon="20.00426">
        <ele>788.41998291016</ele>
        <time>2024-09-27T08:22:20.000Z</time>
      </trkpt>
      <trkpt lat="40.5361" lon="20.00431">
        <ele>789.38000488281</ele>
        <time>2024-09-27T08:22:21.000Z</time>
      </trkpt>
      <trkpt lat="40.53606" lon="20.00432">
        <ele>789.85998535156</ele>
        <time>2024-09-27T08:22:22.000Z</time>
      </trkpt>
      <trkpt lat="40.53598" lon="20.00435">
        <ele>790.34002685547</ele>
        <time>2024-09-27T08:22:23.000Z</time>
      </trkpt>
      <trkpt lat="40.53592" lon="20.00435">
        <ele>790.82000732422</ele>
        <time>2024-09-27T08:22:24.000Z</time>
      </trkpt>
      <trkpt lat="40.53584" lon="20.00434">
        <ele>790.82000732422</ele>
        <time>2024-09-27T08:22:25.000Z</time>
      </trkpt>
      <trkpt lat="40.53573" lon="20.0043">
        <ele>791.29998779297</ele>
        <time>2024-09-27T08:22:26.000Z</time>
      </trkpt>
      <trkpt lat="40.53561" lon="20.00427">
        <ele>791.78002929688</ele>
        <time>2024-09-27T08:22:28.000Z</time>
      </trkpt>
      <trkpt lat="40.53552" lon="20.00423">
        <ele>791.78002929688</ele>
        <time>2024-09-27T08:22:29.000Z</time>
      </trkpt>
      <trkpt lat="40.53544" lon="20.00417">
        <ele>791.78002929688</ele>
        <time>2024-09-27T08:22:30.000Z</time>
      </trkpt>
      <trkpt lat="40.53538" lon="20.00413">
        <ele>791.78002929688</ele>
        <time>2024-09-27T08:22:31.000Z</time>
      </trkpt>
      <trkpt lat="40.53533" lon="20.00408">
        <ele>791.78002929688</ele>
        <time>2024-09-27T08:22:32.000Z</time>
      </trkpt>
      <trkpt lat="40.53525" lon="20.004">
        <ele>791.78002929688</ele>
        <time>2024-09-27T08:22:33.000Z</time>
      </trkpt>
      <trkpt lat="40.53523" lon="20.00397">
        <ele>791.78002929688</ele>
        <time>2024-09-27T08:22:34.000Z</time>
      </trkpt>
      <trkpt lat="40.53519" lon="20.00392">
        <ele>792.26000976562</ele>
        <time>2024-09-27T08:22:35.000Z</time>
      </trkpt>
      <trkpt lat="40.53516" lon="20.00386">
        <ele>792.26000976562</ele>
        <time>2024-09-27T08:22:36.000Z</time>
      </trkpt>
      <trkpt lat="40.53513" lon="20.0038">
        <ele>792.73999023438</ele>
        <time>2024-09-27T08:22:37.000Z</time>
      </trkpt>
      <trkpt lat="40.53511" lon="20.00372">
        <ele>792.73999023438</ele>
        <time>2024-09-27T08:22:38.000Z</time>
      </trkpt>
      <trkpt lat="40.53511" lon="20.00366">
        <ele>793.21997070312</ele>
        <time>2024-09-27T08:22:39.000Z</time>
      </trkpt>
      <trkpt lat="40.53512" lon="20.0036">
        <ele>793.71002197266</ele>
        <time>2024-09-27T08:22:40.000Z</time>
      </trkpt>
      <trkpt lat="40.53515" lon="20.00354">
        <ele>794.19000244141</ele>
        <time>2024-09-27T08:22:41.000Z</time>
      </trkpt>
      <trkpt lat="40.5352" lon="20.00349">
        <ele>795.15002441406</ele>
        <time>2024-09-27T08:22:42.000Z</time>
      </trkpt>
      <trkpt lat="40.5353" lon="20.00342">
        <ele>796.59002685547</ele>
        <time>2024-09-27T08:22:43.000Z</time>
      </trkpt>
      <trkpt lat="40.53534" lon="20.0034">
        <ele>797.07000732422</ele>
        <time>2024-09-27T08:22:44.000Z</time>
      </trkpt>
      <trkpt lat="40.53542" lon="20.00337">
        <ele>798.03002929688</ele>
        <time>2024-09-27T08:22:45.000Z</time>
      </trkpt>
      <trkpt lat="40.53549" lon="20.00337">
        <ele>798.98999023438</ele>
        <time>2024-09-27T08:22:46.000Z</time>
      </trkpt>
      <trkpt lat="40.53562" lon="20.0034">
        <ele>800.44000244141</ele>
        <time>2024-09-27T08:22:47.000Z</time>
      </trkpt>
      <trkpt lat="40.53569" lon="20.00342">
        <ele>800.91998291016</ele>
        <time>2024-09-27T08:22:48.000Z</time>
      </trkpt>
      <trkpt lat="40.53575" lon="20.00344">
        <ele>801.40002441406</ele>
        <time>2024-09-27T08:22:49.000Z</time>
      </trkpt>
      <trkpt lat="40.53582" lon="20.00347">
        <ele>802.35998535156</ele>
        <time>2024-09-27T08:22:50.000Z</time>
      </trkpt>
      <trkpt lat="40.5359" lon="20.0035">
        <ele>802.84002685547</ele>
        <time>2024-09-27T08:22:51.000Z</time>
      </trkpt>
      <trkpt lat="40.53595" lon="20.00351">
        <ele>802.84002685547</ele>
        <time>2024-09-27T08:22:52.000Z</time>
      </trkpt>
      <trkpt lat="40.53602" lon="20.00352">
        <ele>802.35998535156</ele>
        <time>2024-09-27T08:22:53.000Z</time>
      </trkpt>
      <trkpt lat="40.53609" lon="20.0035">
        <ele>802.35998535156</ele>
        <time>2024-09-27T08:22:54.000Z</time>
      </trkpt>
      <trkpt lat="40.53616" lon="20.00347">
        <ele>802.35998535156</ele>
        <time>2024-09-27T08:22:55.000Z</time>
      </trkpt>
      <trkpt lat="40.53623" lon="20.0034">
        <ele>802.35998535156</ele>
        <time>2024-09-27T08:22:56.000Z</time>
      </trkpt>
      <trkpt lat="40.53643" lon="20.00319">
        <ele>802.84002685547</ele>
        <time>2024-09-27T08:22:59.000Z</time>
      </trkpt>
      <trkpt lat="40.53651" lon="20.00312">
        <ele>802.35998535156</ele>
        <time>2024-09-27T08:23:00.000Z</time>
      </trkpt>
      <trkpt lat="40.53662" lon="20.00305">
        <ele>802.35998535156</ele>
        <time>2024-09-27T08:23:01.000Z</time>
      </trkpt>
      <trkpt lat="40.53669" lon="20.00302">
        <ele>802.84002685547</ele>
        <time>2024-09-27T08:23:02.000Z</time>
      </trkpt>
      <trkpt lat="40.53679" lon="20.00298">
        <ele>802.84002685547</ele>
        <time>2024-09-27T08:23:03.000Z</time>
      </trkpt>
      <trkpt lat="40.53688" lon="20.00294">
        <ele>803.32000732422</ele>
        <time>2024-09-27T08:23:04.000Z</time>
      </trkpt>
      <trkpt lat="40.53692" lon="20.00292">
        <ele>803.32000732422</ele>
        <time>2024-09-27T08:23:05.000Z</time>
      </trkpt>
      <trkpt lat="40.53699" lon="20.00289">
        <ele>803.32000732422</ele>
        <time>2024-09-27T08:23:06.000Z</time>
      </trkpt>
      <trkpt lat="40.53707" lon="20.00283">
        <ele>803.79998779297</ele>
        <time>2024-09-27T08:23:07.000Z</time>
      </trkpt>
      <trkpt lat="40.53713" lon="20.00277">
        <ele>803.79998779297</ele>
        <time>2024-09-27T08:23:08.000Z</time>
      </trkpt>
      <trkpt lat="40.53719" lon="20.0027">
        <ele>804.28002929688</ele>
        <time>2024-09-27T08:23:09.000Z</time>
      </trkpt>
      <trkpt lat="40.53724" lon="20.00261">
        <ele>804.76000976562</ele>
        <time>2024-09-27T08:23:10.000Z</time>
      </trkpt>
      <trkpt lat="40.5373" lon="20.00247">
        <ele>804.28002929688</ele>
        <time>2024-09-27T08:23:11.000Z</time>
      </trkpt>
      <trkpt lat="40.53734" lon="20.00239">
        <ele>804.28002929688</ele>
        <time>2024-09-27T08:23:12.000Z</time>
      </trkpt>
      <trkpt lat="40.53741" lon="20.00226">
        <ele>804.28002929688</ele>
        <time>2024-09-27T08:23:13.000Z</time>
      </trkpt>
      <trkpt lat="40.53779" lon="20.00177">
        <ele>804.76000976562</ele>
        <time>2024-09-27T08:23:18.000Z</time>
      </trkpt>
      <trkpt lat="40.5378" lon="20.00175">
        <ele>804.76000976562</ele>
        <time>2024-09-27T08:23:19.000Z</time>
      </trkpt>
      <trkpt lat="40.53793" lon="20.00162">
        <ele>805.23999023438</ele>
        <time>2024-09-27T08:23:20.000Z</time>
      </trkpt>
      <trkpt lat="40.53796" lon="20.00158">
        <ele>805.23999023438</ele>
        <time>2024-09-27T08:23:21.000Z</time>
      </trkpt>
      <trkpt lat="40.53809" lon="20.00143">
        <ele>805.71997070312</ele>
        <time>2024-09-27T08:23:22.000Z</time>
      </trkpt>
      <trkpt lat="40.53826" lon="20.00124">
        <ele>806.20001220703</ele>
        <time>2024-09-27T08:23:24.000Z</time>
      </trkpt>
      <trkpt lat="40.53827" lon="20.00122">
        <ele>806.20001220703</ele>
        <time>2024-09-27T08:23:25.000Z</time>
      </trkpt>
      <trkpt lat="40.53915" lon="20.00029">
        <ele>806.67999267578</ele>
        <time>2024-09-27T08:23:36.000Z</time>
      </trkpt>
      <trkpt lat="40.5393" lon="20.00012">
        <ele>806.67999267578</ele>
        <time>2024-09-27T08:23:37.000Z</time>
      </trkpt>
      <trkpt lat="40.5395" lon="19.99988">
        <ele>806.67999267578</ele>
        <time>2024-09-27T08:23:40.000Z</time>
      </trkpt>
      <trkpt lat="40.53965" lon="19.99966">
        <ele>807.15997314453</ele>
        <time>2024-09-27T08:23:42.000Z</time>
      </trkpt>
      <trkpt lat="40.5398" lon="19.99944">
        <ele>807.15997314453</ele>
        <time>2024-09-27T08:23:45.000Z</time>
      </trkpt>
      <trkpt lat="40.53984" lon="19.99939">
        <ele>807.15997314453</ele>
        <time>2024-09-27T08:23:46.000Z</time>
      </trkpt>
      <trkpt lat="40.53992" lon="19.99931">
        <ele>807.15997314453</ele>
        <time>2024-09-27T08:23:47.000Z</time>
      </trkpt>
      <trkpt lat="40.54006" lon="19.99919">
        <ele>807.64001464844</ele>
        <time>2024-09-27T08:23:48.000Z</time>
      </trkpt>
      <trkpt lat="40.54008" lon="19.99917">
        <ele>807.64001464844</ele>
        <time>2024-09-27T08:23:49.000Z</time>
      </trkpt>
      <trkpt lat="40.5402" lon="19.99906">
        <ele>806.20001220703</ele>
        <time>2024-09-27T08:23:50.000Z</time>
      </trkpt>
      <trkpt lat="40.54025" lon="19.99902">
        <ele>806.20001220703</ele>
        <time>2024-09-27T08:23:51.000Z</time>
      </trkpt>
      <trkpt lat="40.54034" lon="19.99895">
        <ele>805.71997070312</ele>
        <time>2024-09-27T08:23:52.000Z</time>
      </trkpt>
      <trkpt lat="40.54044" lon="19.99891">
        <ele>805.71997070312</ele>
        <time>2024-09-27T08:23:53.000Z</time>
      </trkpt>
      <trkpt lat="40.54052" lon="19.99889">
        <ele>805.71997070312</ele>
        <time>2024-09-27T08:23:54.000Z</time>
      </trkpt>
      <trkpt lat="40.54062" lon="19.99885">
        <ele>806.20001220703</ele>
        <time>2024-09-27T08:23:55.000Z</time>
      </trkpt>
      <trkpt lat="40.54071" lon="19.99879">
        <ele>806.20001220703</ele>
        <time>2024-09-27T08:23:56.000Z</time>
      </trkpt>
      <trkpt lat="40.5409" lon="19.99864">
        <ele>807.15997314453</ele>
        <time>2024-09-27T08:23:58.000Z</time>
      </trkpt>
      <trkpt lat="40.54093" lon="19.99862">
        <ele>807.64001464844</ele>
        <time>2024-09-27T08:23:59.000Z</time>
      </trkpt>
      <trkpt lat="40.54097" lon="19.99858">
        <ele>807.64001464844</ele>
        <time>2024-09-27T08:24:00.000Z</time>
      </trkpt>
      <trkpt lat="40.54101" lon="19.99853">
        <ele>808.13000488281</ele>
        <time>2024-09-27T08:24:01.000Z</time>
      </trkpt>
      <trkpt lat="40.54105" lon="19.99848">
        <ele>809.09002685547</ele>
        <time>2024-09-27T08:24:02.000Z</time>
      </trkpt>
      <trkpt lat="40.54109" lon="19.99843">
        <ele>809.57000732422</ele>
        <time>2024-09-27T08:24:03.000Z</time>
      </trkpt>
      <trkpt lat="40.54114" lon="19.99837">
        <ele>810.53002929688</ele>
        <time>2024-09-27T08:24:04.000Z</time>
      </trkpt>
      <trkpt lat="40.54119" lon="19.99829">
        <ele>811.01000976562</ele>
        <time>2024-09-27T08:24:05.000Z</time>
      </trkpt>
      <trkpt lat="40.54121" lon="19.99826">
        <ele>811.48999023438</ele>
        <time>2024-09-27T08:24:06.000Z</time>
      </trkpt>
      <trkpt lat="40.54124" lon="19.99819">
        <ele>811.48999023438</ele>
        <time>2024-09-27T08:24:07.000Z</time>
      </trkpt>
      <trkpt lat="40.54127" lon="19.9981">
        <ele>811.96997070312</ele>
        <time>2024-09-27T08:24:08.000Z</time>
      </trkpt>
      <trkpt lat="40.5413" lon="19.99803">
        <ele>811.96997070312</ele>
        <time>2024-09-27T08:24:09.000Z</time>
      </trkpt>
      <trkpt lat="40.54133" lon="19.99793">
        <ele>812.45001220703</ele>
        <time>2024-09-27T08:24:10.000Z</time>
      </trkpt>
      <trkpt lat="40.54134" lon="19.99786">
        <ele>812.45001220703</ele>
        <time>2024-09-27T08:24:11.000Z</time>
      </trkpt>
      <trkpt lat="40.54135" lon="19.99779">
        <ele>812.45001220703</ele>
        <time>2024-09-27T08:24:12.000Z</time>
      </trkpt>
      <trkpt lat="40.54135" lon="19.99772">
        <ele>812.45001220703</ele>
        <time>2024-09-27T08:24:13.000Z</time>
      </trkpt>
      <trkpt lat="40.54135" lon="19.99765">
        <ele>812.45001220703</ele>
        <time>2024-09-27T08:24:14.000Z</time>
      </trkpt>
      <trkpt lat="40.54132" lon="19.99754">
        <ele>812.45001220703</ele>
        <time>2024-09-27T08:24:15.000Z</time>
      </trkpt>
      <trkpt lat="40.54131" lon="19.99747">
        <ele>812.45001220703</ele>
        <time>2024-09-27T08:24:16.000Z</time>
      </trkpt>
      <trkpt lat="40.54129" lon="19.99737">
        <ele>811.96997070312</ele>
        <time>2024-09-27T08:24:17.000Z</time>
      </trkpt>
      <trkpt lat="40.54127" lon="19.99709">
        <ele>812.45001220703</ele>
        <time>2024-09-27T08:24:19.000Z</time>
      </trkpt>
      <trkpt lat="40.54127" lon="19.99708">
        <ele>812.45001220703</ele>
        <time>2024-09-27T08:24:20.000Z</time>
      </trkpt>
      <trkpt lat="40.54127" lon="19.99703">
        <ele>812.92999267578</ele>
        <time>2024-09-27T08:24:26.000Z</time>
      </trkpt>
      <trkpt lat="40.54125" lon="19.99694">
        <ele>812.45001220703</ele>
        <time>2024-09-27T08:24:34.000Z</time>
      </trkpt>
      <trkpt lat="40.54126" lon="19.99681">
        <ele>812.45001220703</ele>
        <time>2024-09-27T08:31:44.000Z</time>
      </trkpt>
      <trkpt lat="40.54126" lon="19.99678">
        <ele>812.45001220703</ele>
        <time>2024-09-27T08:31:45.000Z</time>
      </trkpt>
      <trkpt lat="40.54125" lon="19.99673">
        <ele>812.92999267578</ele>
        <time>2024-09-27T08:31:46.000Z</time>
      </trkpt>
      <trkpt lat="40.54123" lon="19.9966">
        <ele>813.40997314453</ele>
        <time>2024-09-27T08:31:48.000Z</time>
      </trkpt>
      <trkpt lat="40.54122" lon="19.99653">
        <ele>813.89001464844</ele>
        <time>2024-09-27T08:31:49.000Z</time>
      </trkpt>
      <trkpt lat="40.54122" lon="19.99647">
        <ele>814.36999511719</ele>
        <time>2024-09-27T08:31:50.000Z</time>
      </trkpt>
      <trkpt lat="40.54121" lon="19.9964">
        <ele>814.36999511719</ele>
        <time>2024-09-27T08:31:51.000Z</time>
      </trkpt>
      <trkpt lat="40.5412" lon="19.99627">
        <ele>814.84997558594</ele>
        <time>2024-09-27T08:31:53.000Z</time>
      </trkpt>
      <trkpt lat="40.5412" lon="19.9962">
        <ele>814.84997558594</ele>
        <time>2024-09-27T08:31:54.000Z</time>
      </trkpt>
      <trkpt lat="40.54122" lon="19.99607">
        <ele>815.82000732422</ele>
        <time>2024-09-27T08:31:56.000Z</time>
      </trkpt>
      <trkpt lat="40.54122" lon="19.99602">
        <ele>816.29998779297</ele>
        <time>2024-09-27T08:31:57.000Z</time>
      </trkpt>
      <trkpt lat="40.54122" lon="19.99596">
        <ele>816.78002929688</ele>
        <time>2024-09-27T08:31:58.000Z</time>
      </trkpt>
      <trkpt lat="40.5412" lon="19.99569">
        <ele>818.21997070312</ele>
        <time>2024-09-27T08:32:07.000Z</time>
      </trkpt>
      <trkpt lat="40.54115" lon="19.99559">
        <ele>817.73999023438</ele>
        <time>2024-09-27T08:32:10.000Z</time>
      </trkpt>
      <trkpt lat="40.5411" lon="19.99554">
        <ele>817.26000976562</ele>
        <time>2024-09-27T08:32:11.000Z</time>
      </trkpt>
      <trkpt lat="40.54108" lon="19.99552">
        <ele>816.78002929688</ele>
        <time>2024-09-27T08:32:12.000Z</time>
      </trkpt>
      <trkpt lat="40.54104" lon="19.99548">
        <ele>816.29998779297</ele>
        <time>2024-09-27T08:32:13.000Z</time>
      </trkpt>
      <trkpt lat="40.54099" lon="19.99544">
        <ele>815.34002685547</ele>
        <time>2024-09-27T08:32:14.000Z</time>
      </trkpt>
      <trkpt lat="40.54093" lon="19.99541">
        <ele>814.84997558594</ele>
        <time>2024-09-27T08:32:15.000Z</time>
      </trkpt>
      <trkpt lat="40.54088" lon="19.99536">
        <ele>814.36999511719</ele>
        <time>2024-09-27T08:32:16.000Z</time>
      </trkpt>
      <trkpt lat="40.54085" lon="19.99534">
        <ele>813.89001464844</ele>
        <time>2024-09-27T08:32:17.000Z</time>
      </trkpt>
      <trkpt lat="40.54079" lon="19.99528">
        <ele>813.40997314453</ele>
        <time>2024-09-27T08:32:18.000Z</time>
      </trkpt>
      <trkpt lat="40.54077" lon="19.99526">
        <ele>812.92999267578</ele>
        <time>2024-09-27T08:32:19.000Z</time>
      </trkpt>
      <trkpt lat="40.54073" lon="19.99523">
        <ele>812.45001220703</ele>
        <time>2024-09-27T08:32:20.000Z</time>
      </trkpt>
      <trkpt lat="40.5407" lon="19.99521">
        <ele>812.45001220703</ele>
        <time>2024-09-27T08:32:21.000Z</time>
      </trkpt>
      <trkpt lat="40.54064" lon="19.99518">
        <ele>811.48999023438</ele>
        <time>2024-09-27T08:32:22.000Z</time>
      </trkpt>
      <trkpt lat="40.5406" lon="19.99516">
        <ele>811.48999023438</ele>
        <time>2024-09-27T08:32:23.000Z</time>
      </trkpt>
      <trkpt lat="40.54054" lon="19.99513">
        <ele>811.01000976562</ele>
        <time>2024-09-27T08:32:24.000Z</time>
      </trkpt>
      <trkpt lat="40.54051" lon="19.99511">
        <ele>810.53002929688</ele>
        <time>2024-09-27T08:32:25.000Z</time>
      </trkpt>
      <trkpt lat="40.54048" lon="19.9951">
        <ele>810.53002929688</ele>
        <time>2024-09-27T08:32:26.000Z</time>
      </trkpt>
      <trkpt lat="40.54044" lon="19.99508">
        <ele>810.04998779297</ele>
        <time>2024-09-27T08:32:27.000Z</time>
      </trkpt>
      <trkpt lat="40.5404" lon="19.99506">
        <ele>809.57000732422</ele>
        <time>2024-09-27T08:32:28.000Z</time>
      </trkpt>
      <trkpt lat="40.54035" lon="19.99504">
        <ele>809.09002685547</ele>
        <time>2024-09-27T08:32:29.000Z</time>
      </trkpt>
      <trkpt lat="40.5403" lon="19.995">
        <ele>809.09002685547</ele>
        <time>2024-09-27T08:32:30.000Z</time>
      </trkpt>
      <trkpt lat="40.54029" lon="19.995">
        <ele>808.60998535156</ele>
        <time>2024-09-27T08:32:31.000Z</time>
      </trkpt>
      <trkpt lat="40.54021" lon="19.99495">
        <ele>808.60998535156</ele>
        <time>2024-09-27T08:32:32.000Z</time>
      </trkpt>
      <trkpt lat="40.54017" lon="19.99493">
        <ele>808.13000488281</ele>
        <time>2024-09-27T08:32:33.000Z</time>
      </trkpt>
      <trkpt lat="40.54011" lon="19.99489">
        <ele>807.64001464844</ele>
        <time>2024-09-27T08:32:34.000Z</time>
      </trkpt>
      <trkpt lat="40.54009" lon="19.99487">
        <ele>807.64001464844</ele>
        <time>2024-09-27T08:32:35.000Z</time>
      </trkpt>
      <trkpt lat="40.54004" lon="19.99484">
        <ele>806.67999267578</ele>
        <time>2024-09-27T08:32:36.000Z</time>
      </trkpt>
      <trkpt lat="40.53999" lon="19.99482">
        <ele>806.20001220703</ele>
        <time>2024-09-27T08:32:37.000Z</time>
      </trkpt>
      <trkpt lat="40.53992" lon="19.9948">
        <ele>805.23999023438</ele>
        <time>2024-09-27T08:32:38.000Z</time>
      </trkpt>
      <trkpt lat="40.53987" lon="19.99478">
        <ele>804.28002929688</ele>
        <time>2024-09-27T08:32:39.000Z</time>
      </trkpt>
      <trkpt lat="40.53977" lon="19.99476">
        <ele>803.32000732422</ele>
        <time>2024-09-27T08:32:40.000Z</time>
      </trkpt>
      <trkpt lat="40.53973" lon="19.99475">
        <ele>802.84002685547</ele>
        <time>2024-09-27T08:32:41.000Z</time>
      </trkpt>
      <trkpt lat="40.53968" lon="19.99474">
        <ele>802.35998535156</ele>
        <time>2024-09-27T08:32:42.000Z</time>
      </trkpt>
      <trkpt lat="40.53951" lon="19.99472">
        <ele>800.44000244141</ele>
        <time>2024-09-27T08:32:44.000Z</time>
      </trkpt>
      <trkpt lat="40.5394" lon="19.99471">
        <ele>798.98999023438</ele>
        <time>2024-09-27T08:32:45.000Z</time>
      </trkpt>
      <trkpt lat="40.53934" lon="19.9947">
        <ele>798.51000976562</ele>
        <time>2024-09-27T08:32:46.000Z</time>
      </trkpt>
      <trkpt lat="40.53911" lon="19.99468">
        <ele>795.63000488281</ele>
        <time>2024-09-27T08:32:48.000Z</time>
      </trkpt>
      <trkpt lat="40.53901" lon="19.99467">
        <ele>794.19000244141</ele>
        <time>2024-09-27T08:32:49.000Z</time>
      </trkpt>
      <trkpt lat="40.53892" lon="19.99467">
        <ele>792.73999023438</ele>
        <time>2024-09-27T08:32:50.000Z</time>
      </trkpt>
      <trkpt lat="40.53871" lon="19.99467">
        <ele>790.34002685547</ele>
        <time>2024-09-27T08:32:52.000Z</time>
      </trkpt>
      <trkpt lat="40.53862" lon="19.99468">
        <ele>789.38000488281</ele>
        <time>2024-09-27T08:32:53.000Z</time>
      </trkpt>
      <trkpt lat="40.5385" lon="19.9947">
        <ele>787.94000244141</ele>
        <time>2024-09-27T08:32:54.000Z</time>
      </trkpt>
      <trkpt lat="40.53801" lon="19.99482">
        <ele>784.09002685547</ele>
        <time>2024-09-27T08:32:58.000Z</time>
      </trkpt>
      <trkpt lat="40.53793" lon="19.99483">
        <ele>784.09002685547</ele>
        <time>2024-09-27T08:32:59.000Z</time>
      </trkpt>
      <trkpt lat="40.53783" lon="19.99485">
        <ele>783.60998535156</ele>
        <time>2024-09-27T08:33:00.000Z</time>
      </trkpt>
      <trkpt lat="40.53779" lon="19.99485">
        <ele>783.60998535156</ele>
        <time>2024-09-27T08:33:01.000Z</time>
      </trkpt>
      <trkpt lat="40.53768" lon="19.99483">
        <ele>783.13000488281</ele>
        <time>2024-09-27T08:33:02.000Z</time>
      </trkpt>
      <trkpt lat="40.53758" lon="19.99479">
        <ele>782.16998291016</ele>
        <time>2024-09-27T08:33:03.000Z</time>
      </trkpt>
      <trkpt lat="40.53731" lon="19.99462">
        <ele>781.21002197266</ele>
        <time>2024-09-27T08:33:06.000Z</time>
      </trkpt>
      <trkpt lat="40.53724" lon="19.99458">
        <ele>780.25</ele>
        <time>2024-09-27T08:33:07.000Z</time>
      </trkpt>
      <trkpt lat="40.53714" lon="19.99453">
        <ele>778.80999755859</ele>
        <time>2024-09-27T08:33:08.000Z</time>
      </trkpt>
      <trkpt lat="40.53692" lon="19.99446">
        <ele>776.40002441406</ele>
        <time>2024-09-27T08:33:10.000Z</time>
      </trkpt>
      <trkpt lat="40.53679" lon="19.99444">
        <ele>775.44000244141</ele>
        <time>2024-09-27T08:33:11.000Z</time>
      </trkpt>
      <trkpt lat="40.53659" lon="19.99442">
        <ele>774</ele>
        <time>2024-09-27T08:33:13.000Z</time>
      </trkpt>
      <trkpt lat="40.53647" lon="19.9944">
        <ele>773.03997802734</ele>
        <time>2024-09-27T08:33:14.000Z</time>
      </trkpt>
      <trkpt lat="40.53633" lon="19.99439">
        <ele>771.10998535156</ele>
        <time>2024-09-27T08:33:15.000Z</time>
      </trkpt>
      <trkpt lat="40.53601" lon="19.99434">
        <ele>767.75</ele>
        <time>2024-09-27T08:33:18.000Z</time>
      </trkpt>
      <trkpt lat="40.53593" lon="19.99433">
        <ele>766.78997802734</ele>
        <time>2024-09-27T08:33:19.000Z</time>
      </trkpt>
      <trkpt lat="40.53579" lon="19.99432">
        <ele>765.83001708984</ele>
        <time>2024-09-27T08:33:20.000Z</time>
      </trkpt>
      <trkpt lat="40.53559" lon="19.9943">
        <ele>764.39001464844</ele>
        <time>2024-09-27T08:33:22.000Z</time>
      </trkpt>
      <trkpt lat="40.5354" lon="19.9943">
        <ele>762.46002197266</ele>
        <time>2024-09-27T08:33:23.000Z</time>
      </trkpt>
      <trkpt lat="40.53536" lon="19.9943">
        <ele>762.46002197266</ele>
        <time>2024-09-27T08:33:24.000Z</time>
      </trkpt>
      <trkpt lat="40.53505" lon="19.9943">
        <ele>759.58001708984</ele>
        <time>2024-09-27T08:33:26.000Z</time>
      </trkpt>
      <trkpt lat="40.53502" lon="19.9943">
        <ele>759.58001708984</ele>
        <time>2024-09-27T08:33:27.000Z</time>
      </trkpt>
      <trkpt lat="40.53472" lon="19.99434">
        <ele>757.65997314453</ele>
        <time>2024-09-27T08:33:29.000Z</time>
      </trkpt>
      <trkpt lat="40.53464" lon="19.99435">
        <ele>757.17999267578</ele>
        <time>2024-09-27T08:33:30.000Z</time>
      </trkpt>
      <trkpt lat="40.53433" lon="19.99438">
        <ele>755.25</ele>
        <time>2024-09-27T08:33:33.000Z</time>
      </trkpt>
      <trkpt lat="40.53416" lon="19.99439">
        <ele>753.80999755859</ele>
        <time>2024-09-27T08:33:34.000Z</time>
      </trkpt>
      <trkpt lat="40.53404" lon="19.99439">
        <ele>752.36999511719</ele>
        <time>2024-09-27T08:33:35.000Z</time>
      </trkpt>
      <trkpt lat="40.53397" lon="19.99439">
        <ele>751.89001464844</ele>
        <time>2024-09-27T08:33:36.000Z</time>
      </trkpt>
      <trkpt lat="40.5337" lon="19.99439">
        <ele>749.48999023438</ele>
        <time>2024-09-27T08:33:38.000Z</time>
      </trkpt>
      <trkpt lat="40.53367" lon="19.99439">
        <ele>749</ele>
        <time>2024-09-27T08:33:39.000Z</time>
      </trkpt>
      <trkpt lat="40.53338" lon="19.99443">
        <ele>746.59997558594</ele>
        <time>2024-09-27T08:33:41.000Z</time>
      </trkpt>
      <trkpt lat="40.533" lon="19.99447">
        <ele>744.20001220703</ele>
        <time>2024-09-27T08:33:44.000Z</time>
      </trkpt>
      <trkpt lat="40.53264" lon="19.9945">
        <ele>742.28002929688</ele>
        <time>2024-09-27T08:33:48.000Z</time>
      </trkpt>
      <trkpt lat="40.53229" lon="19.99449">
        <ele>739.86999511719</ele>
        <time>2024-09-27T08:33:51.000Z</time>
      </trkpt>
      <trkpt lat="40.53211" lon="19.99451">
        <ele>738.42999267578</ele>
        <time>2024-09-27T08:33:52.000Z</time>
      </trkpt>
      <trkpt lat="40.53194" lon="19.99454">
        <ele>737.46997070312</ele>
        <time>2024-09-27T08:33:54.000Z</time>
      </trkpt>
      <trkpt lat="40.5319" lon="19.99454">
        <ele>737.46997070312</ele>
        <time>2024-09-27T08:33:55.000Z</time>
      </trkpt>
      <trkpt lat="40.5318" lon="19.99454">
        <ele>736.98999023438</ele>
        <time>2024-09-27T08:33:56.000Z</time>
      </trkpt>
      <trkpt lat="40.53172" lon="19.99452">
        <ele>736.03002929688</ele>
        <time>2024-09-27T08:33:57.000Z</time>
      </trkpt>
      <trkpt lat="40.5316" lon="19.99446">
        <ele>734.58001708984</ele>
        <time>2024-09-27T08:33:58.000Z</time>
      </trkpt>
      <trkpt lat="40.53155" lon="19.99444">
        <ele>734.09997558594</ele>
        <time>2024-09-27T08:33:59.000Z</time>
      </trkpt>
      <trkpt lat="40.53143" lon="19.9944">
        <ele>732.65997314453</ele>
        <time>2024-09-27T08:34:00.000Z</time>
      </trkpt>
      <trkpt lat="40.53134" lon="19.99439">
        <ele>732.17999267578</ele>
        <time>2024-09-27T08:34:01.000Z</time>
      </trkpt>
      <trkpt lat="40.53125" lon="19.99439">
        <ele>731.70001220703</ele>
        <time>2024-09-27T08:34:02.000Z</time>
      </trkpt>
      <trkpt lat="40.5311" lon="19.99439">
        <ele>730.26000976562</ele>
        <time>2024-09-27T08:34:03.000Z</time>
      </trkpt>
      <trkpt lat="40.53106" lon="19.99439">
        <ele>729.78002929688</ele>
        <time>2024-09-27T08:34:04.000Z</time>
      </trkpt>
      <trkpt lat="40.53095" lon="19.9944">
        <ele>728.82000732422</ele>
        <time>2024-09-27T08:34:05.000Z</time>
      </trkpt>
      <trkpt lat="40.53083" lon="19.99443">
        <ele>727.85998535156</ele>
        <time>2024-09-27T08:34:06.000Z</time>
      </trkpt>
      <trkpt lat="40.53076" lon="19.99444">
        <ele>726.89001464844</ele>
        <time>2024-09-27T08:34:07.000Z</time>
      </trkpt>
      <trkpt lat="40.53057" lon="19.99444">
        <ele>724.96997070312</ele>
        <time>2024-09-27T08:34:09.000Z</time>
      </trkpt>
      <trkpt lat="40.53042" lon="19.99444">
        <ele>723.53002929688</ele>
        <time>2024-09-27T08:34:10.000Z</time>
      </trkpt>
      <trkpt lat="40.53037" lon="19.99443">
        <ele>723.04998779297</ele>
        <time>2024-09-27T08:34:11.000Z</time>
      </trkpt>
      <trkpt lat="40.52996" lon="19.99433">
        <ele>719.67999267578</ele>
        <time>2024-09-27T08:34:15.000Z</time>
      </trkpt>
      <trkpt lat="40.52986" lon="19.99432">
        <ele>719.20001220703</ele>
        <time>2024-09-27T08:34:16.000Z</time>
      </trkpt>
      <trkpt lat="40.52976" lon="19.99432">
        <ele>718.23999023438</ele>
        <time>2024-09-27T08:34:17.000Z</time>
      </trkpt>
      <trkpt lat="40.52961" lon="19.99433">
        <ele>717.28002929688</ele>
        <time>2024-09-27T08:34:18.000Z</time>
      </trkpt>
      <trkpt lat="40.52955" lon="19.99434">
        <ele>716.79998779297</ele>
        <time>2024-09-27T08:34:19.000Z</time>
      </trkpt>
      <trkpt lat="40.52942" lon="19.99437">
        <ele>715.35998535156</ele>
        <time>2024-09-27T08:34:20.000Z</time>
      </trkpt>
      <trkpt lat="40.52935" lon="19.99437">
        <ele>714.88000488281</ele>
        <time>2024-09-27T08:34:21.000Z</time>
      </trkpt>
      <trkpt lat="40.52925" lon="19.99438">
        <ele>713.91998291016</ele>
        <time>2024-09-27T08:34:22.000Z</time>
      </trkpt>
      <trkpt lat="40.52912" lon="19.99437">
        <ele>712.95001220703</ele>
        <time>2024-09-27T08:34:23.000Z</time>
      </trkpt>
      <trkpt lat="40.52904" lon="19.99438">
        <ele>712.46997070312</ele>
        <time>2024-09-27T08:34:24.000Z</time>
      </trkpt>
      <trkpt lat="40.52884" lon="19.9944">
        <ele>711.03002929688</ele>
        <time>2024-09-27T08:34:25.000Z</time>
      </trkpt>
      <trkpt lat="40.52882" lon="19.99441">
        <ele>711.03002929688</ele>
        <time>2024-09-27T08:34:26.000Z</time>
      </trkpt>
      <trkpt lat="40.5287" lon="19.99441">
        <ele>710.54998779297</ele>
        <time>2024-09-27T08:34:27.000Z</time>
      </trkpt>
      <trkpt lat="40.52838" lon="19.99437">
        <ele>708.63000488281</ele>
        <time>2024-09-27T08:34:29.000Z</time>
      </trkpt>
      <trkpt lat="40.52768" lon="19.99431">
        <ele>705.26000976562</ele>
        <time>2024-09-27T08:34:35.000Z</time>
      </trkpt>
      <trkpt lat="40.52761" lon="19.9943">
        <ele>704.78002929688</ele>
        <time>2024-09-27T08:34:36.000Z</time>
      </trkpt>
      <trkpt lat="40.52747" lon="19.99428">
        <ele>704.78002929688</ele>
        <time>2024-09-27T08:34:37.000Z</time>
      </trkpt>
      <trkpt lat="40.52745" lon="19.99428">
        <ele>704.29998779297</ele>
        <time>2024-09-27T08:34:38.000Z</time>
      </trkpt>
      <trkpt lat="40.52736" lon="19.99424">
        <ele>703.82000732422</ele>
        <time>2024-09-27T08:34:39.000Z</time>
      </trkpt>
      <trkpt lat="40.5273" lon="19.9942">
        <ele>703.34002685547</ele>
        <time>2024-09-27T08:34:40.000Z</time>
      </trkpt>
      <trkpt lat="40.52724" lon="19.99413">
        <ele>702.38000488281</ele>
        <time>2024-09-27T08:34:41.000Z</time>
      </trkpt>
      <trkpt lat="40.52718" lon="19.99405">
        <ele>701.90002441406</ele>
        <time>2024-09-27T08:34:42.000Z</time>
      </trkpt>
      <trkpt lat="40.52713" lon="19.99394">
        <ele>701.41998291016</ele>
        <time>2024-09-27T08:34:43.000Z</time>
      </trkpt>
      <trkpt lat="40.52709" lon="19.99381">
        <ele>700.94000244141</ele>
        <time>2024-09-27T08:34:44.000Z</time>
      </trkpt>
      <trkpt lat="40.52706" lon="19.99373">
        <ele>700.46002197266</ele>
        <time>2024-09-27T08:34:45.000Z</time>
      </trkpt>
      <trkpt lat="40.52701" lon="19.99366">
        <ele>699.97998046875</ele>
        <time>2024-09-27T08:34:46.000Z</time>
      </trkpt>
      <trkpt lat="40.52695" lon="19.99361">
        <ele>699.5</ele>
        <time>2024-09-27T08:34:47.000Z</time>
      </trkpt>
      <trkpt lat="40.52688" lon="19.99359">
        <ele>699.02001953125</ele>
        <time>2024-09-27T08:34:48.000Z</time>
      </trkpt>
      <trkpt lat="40.5268" lon="19.99358">
        <ele>698.04998779297</ele>
        <time>2024-09-27T08:34:49.000Z</time>
      </trkpt>
      <trkpt lat="40.52673" lon="19.99361">
        <ele>697.57000732422</ele>
        <time>2024-09-27T08:34:50.000Z</time>
      </trkpt>
      <trkpt lat="40.52666" lon="19.99365">
        <ele>697.09002685547</ele>
        <time>2024-09-27T08:34:51.000Z</time>
      </trkpt>
      <trkpt lat="40.52658" lon="19.99368">
        <ele>696.60998535156</ele>
        <time>2024-09-27T08:34:52.000Z</time>
      </trkpt>
      <trkpt lat="40.52648" lon="19.9937">
        <ele>696.13000488281</ele>
        <time>2024-09-27T08:34:53.000Z</time>
      </trkpt>
      <trkpt lat="40.52639" lon="19.99369">
        <ele>695.65002441406</ele>
        <time>2024-09-27T08:34:54.000Z</time>
      </trkpt>
      <trkpt lat="40.52631" lon="19.99367">
        <ele>695.16998291016</ele>
        <time>2024-09-27T08:34:55.000Z</time>
      </trkpt>
      <trkpt lat="40.52624" lon="19.99361">
        <ele>694.69000244141</ele>
        <time>2024-09-27T08:34:56.000Z</time>
      </trkpt>
      <trkpt lat="40.52617" lon="19.99353">
        <ele>694.69000244141</ele>
        <time>2024-09-27T08:34:57.000Z</time>
      </trkpt>
      <trkpt lat="40.5261" lon="19.99349">
        <ele>694.21002197266</ele>
        <time>2024-09-27T08:34:58.000Z</time>
      </trkpt>
      <trkpt lat="40.52604" lon="19.99348">
        <ele>693.72998046875</ele>
        <time>2024-09-27T08:34:59.000Z</time>
      </trkpt>
      <trkpt lat="40.52595" lon="19.99349">
        <ele>692.77001953125</ele>
        <time>2024-09-27T08:35:00.000Z</time>
      </trkpt>
      <trkpt lat="40.52563" lon="19.99363">
        <ele>691.33001708984</ele>
        <time>2024-09-27T08:35:03.000Z</time>
      </trkpt>
      <trkpt lat="40.52556" lon="19.99365">
        <ele>690.84002685547</ele>
        <time>2024-09-27T08:35:04.000Z</time>
      </trkpt>
      <trkpt lat="40.52504" lon="19.99372">
        <ele>692.28997802734</ele>
        <time>2024-09-27T08:35:09.000Z</time>
      </trkpt>
      <trkpt lat="40.5249" lon="19.99373">
        <ele>692.77001953125</ele>
        <time>2024-09-27T08:35:10.000Z</time>
      </trkpt>
      <trkpt lat="40.52486" lon="19.99374">
        <ele>692.77001953125</ele>
        <time>2024-09-27T08:35:11.000Z</time>
      </trkpt>
      <trkpt lat="40.52475" lon="19.99377">
        <ele>692.28997802734</ele>
        <time>2024-09-27T08:35:12.000Z</time>
      </trkpt>
      <trkpt lat="40.52434" lon="19.99394">
        <ele>690.84002685547</ele>
        <time>2024-09-27T08:35:15.000Z</time>
      </trkpt>
      <trkpt lat="40.52432" lon="19.99395">
        <ele>690.35998535156</ele>
        <time>2024-09-27T08:35:16.000Z</time>
      </trkpt>
      <trkpt lat="40.52423" lon="19.99396">
        <ele>689.88000488281</ele>
        <time>2024-09-27T08:35:17.000Z</time>
      </trkpt>
      <trkpt lat="40.52414" lon="19.99394">
        <ele>689.88000488281</ele>
        <time>2024-09-27T08:35:18.000Z</time>
      </trkpt>
      <trkpt lat="40.52397" lon="19.99388">
        <ele>690.84002685547</ele>
        <time>2024-09-27T08:35:19.000Z</time>
      </trkpt>
      <trkpt lat="40.52391" lon="19.99386">
        <ele>690.84002685547</ele>
        <time>2024-09-27T08:35:20.000Z</time>
      </trkpt>
      <trkpt lat="40.52378" lon="19.99383">
        <ele>690.35998535156</ele>
        <time>2024-09-27T08:35:21.000Z</time>
      </trkpt>
      <trkpt lat="40.5237" lon="19.99382">
        <ele>689.88000488281</ele>
        <time>2024-09-27T08:35:22.000Z</time>
      </trkpt>
      <trkpt lat="40.52358" lon="19.99382">
        <ele>689.88000488281</ele>
        <time>2024-09-27T08:35:23.000Z</time>
      </trkpt>
      <trkpt lat="40.52344" lon="19.99384">
        <ele>690.35998535156</ele>
        <time>2024-09-27T08:35:24.000Z</time>
      </trkpt>
      <trkpt lat="40.52339" lon="19.99384">
        <ele>690.84002685547</ele>
        <time>2024-09-27T08:35:25.000Z</time>
      </trkpt>
      <trkpt lat="40.5233" lon="19.99387">
        <ele>691.80999755859</ele>
        <time>2024-09-27T08:35:26.000Z</time>
      </trkpt>
      <trkpt lat="40.52324" lon="19.99391">
        <ele>691.80999755859</ele>
        <time>2024-09-27T08:35:27.000Z</time>
      </trkpt>
      <trkpt lat="40.52317" lon="19.99397">
        <ele>692.28997802734</ele>
        <time>2024-09-27T08:35:28.000Z</time>
      </trkpt>
      <trkpt lat="40.52309" lon="19.99402">
        <ele>692.28997802734</ele>
        <time>2024-09-27T08:35:29.000Z</time>
      </trkpt>
      <trkpt lat="40.52301" lon="19.99405">
        <ele>692.28997802734</ele>
        <time>2024-09-27T08:35:30.000Z</time>
      </trkpt>
      <trkpt lat="40.52257" lon="19.9941">
        <ele>692.77001953125</ele>
        <time>2024-09-27T08:35:34.000Z</time>
      </trkpt>
      <trkpt lat="40.52242" lon="19.99413">
        <ele>693.25</ele>
        <time>2024-09-27T08:35:35.000Z</time>
      </trkpt>
      <trkpt lat="40.52231" lon="19.99414">
        <ele>693.25</ele>
        <time>2024-09-27T08:35:36.000Z</time>
      </trkpt>
      <trkpt lat="40.52211" lon="19.99415">
        <ele>693.72998046875</ele>
        <time>2024-09-27T08:35:38.000Z</time>
      </trkpt>
      <trkpt lat="40.52185" lon="19.99418">
        <ele>694.69000244141</ele>
        <time>2024-09-27T08:35:40.000Z</time>
      </trkpt>
      <trkpt lat="40.52177" lon="19.99418">
        <ele>695.16998291016</ele>
        <time>2024-09-27T08:35:41.000Z</time>
      </trkpt>
      <trkpt lat="40.52164" lon="19.99416">
        <ele>695.65002441406</ele>
        <time>2024-09-27T08:35:42.000Z</time>
      </trkpt>
      <trkpt lat="40.52155" lon="19.99415">
        <ele>696.13000488281</ele>
        <time>2024-09-27T08:35:43.000Z</time>
      </trkpt>
      <trkpt lat="40.52143" lon="19.99412">
        <ele>696.60998535156</ele>
        <time>2024-09-27T08:35:44.000Z</time>
      </trkpt>
      <trkpt lat="40.52129" lon="19.99409">
        <ele>697.09002685547</ele>
        <time>2024-09-27T08:35:45.000Z</time>
      </trkpt>
      <trkpt lat="40.5212" lon="19.99407">
        <ele>698.04998779297</ele>
        <time>2024-09-27T08:35:46.000Z</time>
      </trkpt>
      <trkpt lat="40.52106" lon="19.99407">
        <ele>698.53002929688</ele>
        <time>2024-09-27T08:35:47.000Z</time>
      </trkpt>
      <trkpt lat="40.52096" lon="19.99408">
        <ele>699.02001953125</ele>
        <time>2024-09-27T08:35:48.000Z</time>
      </trkpt>
      <trkpt lat="40.52084" lon="19.99408">
        <ele>699.5</ele>
        <time>2024-09-27T08:35:49.000Z</time>
      </trkpt>
      <trkpt lat="40.52074" lon="19.99407">
        <ele>699.97998046875</ele>
        <time>2024-09-27T08:35:50.000Z</time>
      </trkpt>
      <trkpt lat="40.52064" lon="19.99404">
        <ele>699.97998046875</ele>
        <time>2024-09-27T08:35:51.000Z</time>
      </trkpt>
      <trkpt lat="40.52054" lon="19.99398">
        <ele>699.97998046875</ele>
        <time>2024-09-27T08:35:52.000Z</time>
      </trkpt>
      <trkpt lat="40.52042" lon="19.99388">
        <ele>700.46002197266</ele>
        <time>2024-09-27T08:35:53.000Z</time>
      </trkpt>
      <trkpt lat="40.52027" lon="19.99376">
        <ele>700.94000244141</ele>
        <time>2024-09-27T08:35:54.000Z</time>
      </trkpt>
      <trkpt lat="40.51997" lon="19.99351">
        <ele>702.38000488281</ele>
        <time>2024-09-27T08:35:57.000Z</time>
      </trkpt>
      <trkpt lat="40.51983" lon="19.9934">
        <ele>703.34002685547</ele>
        <time>2024-09-27T08:35:59.000Z</time>
      </trkpt>
      <trkpt lat="40.51973" lon="19.99331">
        <ele>703.82000732422</ele>
        <time>2024-09-27T08:36:00.000Z</time>
      </trkpt>
      <trkpt lat="40.51961" lon="19.99318">
        <ele>703.82000732422</ele>
        <time>2024-09-27T08:36:01.000Z</time>
      </trkpt>
      <trkpt lat="40.51956" lon="19.99312">
        <ele>704.29998779297</ele>
        <time>2024-09-27T08:36:02.000Z</time>
      </trkpt>
      <trkpt lat="40.51948" lon="19.99307">
        <ele>704.78002929688</ele>
        <time>2024-09-27T08:36:03.000Z</time>
      </trkpt>
      <trkpt lat="40.51939" lon="19.99304">
        <ele>705.26000976562</ele>
        <time>2024-09-27T08:36:04.000Z</time>
      </trkpt>
      <trkpt lat="40.51928" lon="19.99303">
        <ele>706.22998046875</ele>
        <time>2024-09-27T08:36:05.000Z</time>
      </trkpt>
      <trkpt lat="40.5192" lon="19.99303">
        <ele>706.71002197266</ele>
        <time>2024-09-27T08:36:06.000Z</time>
      </trkpt>
      <trkpt lat="40.51909" lon="19.99299">
        <ele>707.19000244141</ele>
        <time>2024-09-27T08:36:07.000Z</time>
      </trkpt>
      <trkpt lat="40.51901" lon="19.99297">
        <ele>708.15002441406</ele>
        <time>2024-09-27T08:36:08.000Z</time>
      </trkpt>
      <trkpt lat="40.51891" lon="19.99297">
        <ele>708.63000488281</ele>
        <time>2024-09-27T08:36:09.000Z</time>
      </trkpt>
      <trkpt lat="40.51879" lon="19.99297">
        <ele>709.59002685547</ele>
        <time>2024-09-27T08:36:10.000Z</time>
      </trkpt>
      <trkpt lat="40.51873" lon="19.99298">
        <ele>709.59002685547</ele>
        <time>2024-09-27T08:36:11.000Z</time>
      </trkpt>
      <trkpt lat="40.5186" lon="19.99301">
        <ele>710.54998779297</ele>
        <time>2024-09-27T08:36:12.000Z</time>
      </trkpt>
      <trkpt lat="40.51855" lon="19.99301">
        <ele>710.54998779297</ele>
        <time>2024-09-27T08:36:13.000Z</time>
      </trkpt>
      <trkpt lat="40.51847" lon="19.993">
        <ele>711.03002929688</ele>
        <time>2024-09-27T08:36:14.000Z</time>
      </trkpt>
      <trkpt lat="40.5184" lon="19.99295">
        <ele>711.51000976562</ele>
        <time>2024-09-27T08:36:15.000Z</time>
      </trkpt>
      <trkpt lat="40.51817" lon="19.99274">
        <ele>711.51000976562</ele>
        <time>2024-09-27T08:36:17.000Z</time>
      </trkpt>
      <trkpt lat="40.51814" lon="19.9927">
        <ele>711.51000976562</ele>
        <time>2024-09-27T08:36:18.000Z</time>
      </trkpt>
      <trkpt lat="40.51809" lon="19.99264">
        <ele>711.51000976562</ele>
        <time>2024-09-27T08:36:19.000Z</time>
      </trkpt>
      <trkpt lat="40.51803" lon="19.99253">
        <ele>711.51000976562</ele>
        <time>2024-09-27T08:36:20.000Z</time>
      </trkpt>
      <trkpt lat="40.51798" lon="19.9924">
        <ele>711.51000976562</ele>
        <time>2024-09-27T08:36:21.000Z</time>
      </trkpt>
      <trkpt lat="40.51793" lon="19.99231">
        <ele>711.98999023438</ele>
        <time>2024-09-27T08:36:22.000Z</time>
      </trkpt>
      <trkpt lat="40.51789" lon="19.99225">
        <ele>711.98999023438</ele>
        <time>2024-09-27T08:36:23.000Z</time>
      </trkpt>
      <trkpt lat="40.51783" lon="19.9922">
        <ele>711.51000976562</ele>
        <time>2024-09-27T08:36:24.000Z</time>
      </trkpt>
      <trkpt lat="40.51774" lon="19.99215">
        <ele>711.03002929688</ele>
        <time>2024-09-27T08:36:25.000Z</time>
      </trkpt>
      <trkpt lat="40.51746" lon="19.99201">
        <ele>709.10998535156</ele>
        <time>2024-09-27T08:36:27.000Z</time>
      </trkpt>
      <trkpt lat="40.51744" lon="19.992">
        <ele>709.10998535156</ele>
        <time>2024-09-27T08:36:28.000Z</time>
      </trkpt>
      <trkpt lat="40.51731" lon="19.99192">
        <ele>708.63000488281</ele>
        <time>2024-09-27T08:36:29.000Z</time>
      </trkpt>
      <trkpt lat="40.51725" lon="19.99188">
        <ele>709.10998535156</ele>
        <time>2024-09-27T08:36:30.000Z</time>
      </trkpt>
      <trkpt lat="40.51717" lon="19.99185">
        <ele>709.10998535156</ele>
        <time>2024-09-27T08:36:31.000Z</time>
      </trkpt>
      <trkpt lat="40.5171" lon="19.99186">
        <ele>709.10998535156</ele>
        <time>2024-09-27T08:36:32.000Z</time>
      </trkpt>
      <trkpt lat="40.51704" lon="19.99189">
        <ele>709.10998535156</ele>
        <time>2024-09-27T08:36:33.000Z</time>
      </trkpt>
      <trkpt lat="40.51699" lon="19.99194">
        <ele>709.59002685547</ele>
        <time>2024-09-27T08:36:34.000Z</time>
      </trkpt>
      <trkpt lat="40.51695" lon="19.99201">
        <ele>710.07000732422</ele>
        <time>2024-09-27T08:36:35.000Z</time>
      </trkpt>
      <trkpt lat="40.51692" lon="19.99213">
        <ele>711.03002929688</ele>
        <time>2024-09-27T08:36:36.000Z</time>
      </trkpt>
      <trkpt lat="40.5169" lon="19.99218">
        <ele>711.03002929688</ele>
        <time>2024-09-27T08:36:37.000Z</time>
      </trkpt>
      <trkpt lat="40.51686" lon="19.99226">
        <ele>711.51000976562</ele>
        <time>2024-09-27T08:36:38.000Z</time>
      </trkpt>
      <trkpt lat="40.5168" lon="19.99232">
        <ele>712.46997070312</ele>
        <time>2024-09-27T08:36:39.000Z</time>
      </trkpt>
      <trkpt lat="40.51672" lon="19.99237">
        <ele>712.95001220703</ele>
        <time>2024-09-27T08:36:40.000Z</time>
      </trkpt>
      <trkpt lat="40.51657" lon="19.99243">
        <ele>713.91998291016</ele>
        <time>2024-09-27T08:36:41.000Z</time>
      </trkpt>
      <trkpt lat="40.51652" lon="19.99245">
        <ele>713.91998291016</ele>
        <time>2024-09-27T08:36:42.000Z</time>
      </trkpt>
      <trkpt lat="40.51643" lon="19.99248">
        <ele>714.40002441406</ele>
        <time>2024-09-27T08:36:43.000Z</time>
      </trkpt>
      <trkpt lat="40.51635" lon="19.99251">
        <ele>714.88000488281</ele>
        <time>2024-09-27T08:36:44.000Z</time>
      </trkpt>
      <trkpt lat="40.51626" lon="19.99252">
        <ele>715.35998535156</ele>
        <time>2024-09-27T08:36:45.000Z</time>
      </trkpt>
      <trkpt lat="40.51619" lon="19.9925">
        <ele>715.35998535156</ele>
        <time>2024-09-27T08:36:46.000Z</time>
      </trkpt>
      <trkpt lat="40.5161" lon="19.99246">
        <ele>716.32000732422</ele>
        <time>2024-09-27T08:36:47.000Z</time>
      </trkpt>
      <trkpt lat="40.51606" lon="19.99243">
        <ele>716.79998779297</ele>
        <time>2024-09-27T08:36:48.000Z</time>
      </trkpt>
      <trkpt lat="40.51599" lon="19.9924">
        <ele>717.28002929688</ele>
        <time>2024-09-27T08:36:49.000Z</time>
      </trkpt>
      <trkpt lat="40.51593" lon="19.99238">
        <ele>717.76000976562</ele>
        <time>2024-09-27T08:36:50.000Z</time>
      </trkpt>
      <trkpt lat="40.51586" lon="19.99239">
        <ele>718.71997070312</ele>
        <time>2024-09-27T08:36:51.000Z</time>
      </trkpt>
      <trkpt lat="40.51579" lon="19.99242">
        <ele>719.20001220703</ele>
        <time>2024-09-27T08:36:52.000Z</time>
      </trkpt>
      <trkpt lat="40.51573" lon="19.99249">
        <ele>720.15997314453</ele>
        <time>2024-09-27T08:36:53.000Z</time>
      </trkpt>
      <trkpt lat="40.51564" lon="19.99261">
        <ele>719.67999267578</ele>
        <time>2024-09-27T08:36:54.000Z</time>
      </trkpt>
      <trkpt lat="40.5156" lon="19.99266">
        <ele>719.67999267578</ele>
        <time>2024-09-27T08:36:55.000Z</time>
      </trkpt>
      <trkpt lat="40.51554" lon="19.99273">
        <ele>719.20001220703</ele>
        <time>2024-09-27T08:36:56.000Z</time>
      </trkpt>
      <trkpt lat="40.51547" lon="19.99277">
        <ele>719.20001220703</ele>
        <time>2024-09-27T08:36:57.000Z</time>
      </trkpt>
      <trkpt lat="40.51539" lon="19.99278">
        <ele>718.71997070312</ele>
        <time>2024-09-27T08:36:58.000Z</time>
      </trkpt>
      <trkpt lat="40.51529" lon="19.99278">
        <ele>718.23999023438</ele>
        <time>2024-09-27T08:36:59.000Z</time>
      </trkpt>
      <trkpt lat="40.51521" lon="19.99277">
        <ele>717.76000976562</ele>
        <time>2024-09-27T08:37:00.000Z</time>
      </trkpt>
      <trkpt lat="40.51501" lon="19.99274">
        <ele>715.35998535156</ele>
        <time>2024-09-27T08:37:01.000Z</time>
      </trkpt>
      <trkpt lat="40.51495" lon="19.99273">
        <ele>715.35998535156</ele>
        <time>2024-09-27T08:37:02.000Z</time>
      </trkpt>
      <trkpt lat="40.51489" lon="19.99273">
        <ele>714.88000488281</ele>
        <time>2024-09-27T08:37:03.000Z</time>
      </trkpt>
      <trkpt lat="40.51476" lon="19.99275">
        <ele>715.35998535156</ele>
        <time>2024-09-27T08:37:04.000Z</time>
      </trkpt>
      <trkpt lat="40.51426" lon="19.99292">
        <ele>722.09002685547</ele>
        <time>2024-09-27T08:37:09.000Z</time>
      </trkpt>
      <trkpt lat="40.51419" lon="19.99294">
        <ele>722.09002685547</ele>
        <time>2024-09-27T08:37:10.000Z</time>
      </trkpt>
      <trkpt lat="40.51411" lon="19.99294">
        <ele>722.09002685547</ele>
        <time>2024-09-27T08:37:11.000Z</time>
      </trkpt>
      <trkpt lat="40.5139" lon="19.99293">
        <ele>720.65002441406</ele>
        <time>2024-09-27T08:37:13.000Z</time>
      </trkpt>
      <trkpt lat="40.51379" lon="19.99293">
        <ele>721.13000488281</ele>
        <time>2024-09-27T08:37:14.000Z</time>
      </trkpt>
      <trkpt lat="40.51375" lon="19.99293">
        <ele>721.13000488281</ele>
        <time>2024-09-27T08:37:15.000Z</time>
      </trkpt>
      <trkpt lat="40.51369" lon="19.99294">
        <ele>721.13000488281</ele>
        <time>2024-09-27T08:37:16.000Z</time>
      </trkpt>
      <trkpt lat="40.51363" lon="19.99298">
        <ele>721.60998535156</ele>
        <time>2024-09-27T08:37:17.000Z</time>
      </trkpt>
      <trkpt lat="40.51354" lon="19.99305">
        <ele>721.13000488281</ele>
        <time>2024-09-27T08:37:18.000Z</time>
      </trkpt>
      <trkpt lat="40.51351" lon="19.99307">
        <ele>721.13000488281</ele>
        <time>2024-09-27T08:37:19.000Z</time>
      </trkpt>
      <trkpt lat="40.51347" lon="19.9931">
        <ele>721.13000488281</ele>
        <time>2024-09-27T08:37:20.000Z</time>
      </trkpt>
      <trkpt lat="40.51342" lon="19.99312">
        <ele>721.13000488281</ele>
        <time>2024-09-27T08:37:21.000Z</time>
      </trkpt>
      <trkpt lat="40.51336" lon="19.99312">
        <ele>721.13000488281</ele>
        <time>2024-09-27T08:37:22.000Z</time>
      </trkpt>
      <trkpt lat="40.51329" lon="19.9931">
        <ele>720.15997314453</ele>
        <time>2024-09-27T08:37:23.000Z</time>
      </trkpt>
      <trkpt lat="40.51322" lon="19.99307">
        <ele>719.67999267578</ele>
        <time>2024-09-27T08:37:24.000Z</time>
      </trkpt>
      <trkpt lat="40.51314" lon="19.99302">
        <ele>718.71997070312</ele>
        <time>2024-09-27T08:37:25.000Z</time>
      </trkpt>
      <trkpt lat="40.51307" lon="19.99296">
        <ele>718.23999023438</ele>
        <time>2024-09-27T08:37:26.000Z</time>
      </trkpt>
      <trkpt lat="40.51301" lon="19.99288">
        <ele>717.28002929688</ele>
        <time>2024-09-27T08:37:27.000Z</time>
      </trkpt>
      <trkpt lat="40.51296" lon="19.99277">
        <ele>716.32000732422</ele>
        <time>2024-09-27T08:37:28.000Z</time>
      </trkpt>
      <trkpt lat="40.51279" lon="19.99222">
        <ele>713.91998291016</ele>
        <time>2024-09-27T08:37:32.000Z</time>
      </trkpt>
      <trkpt lat="40.51276" lon="19.99213">
        <ele>713.44000244141</ele>
        <time>2024-09-27T08:37:33.000Z</time>
      </trkpt>
      <trkpt lat="40.51275" lon="19.99202">
        <ele>713.91998291016</ele>
        <time>2024-09-27T08:37:34.000Z</time>
      </trkpt>
      <trkpt lat="40.51275" lon="19.99191">
        <ele>714.40002441406</ele>
        <time>2024-09-27T08:37:35.000Z</time>
      </trkpt>
      <trkpt lat="40.51275" lon="19.99181">
        <ele>714.40002441406</ele>
        <time>2024-09-27T08:37:36.000Z</time>
      </trkpt>
      <trkpt lat="40.51274" lon="19.99172">
        <ele>714.88000488281</ele>
        <time>2024-09-27T08:37:37.000Z</time>
      </trkpt>
      <trkpt lat="40.5127" lon="19.99162">
        <ele>715.35998535156</ele>
        <time>2024-09-27T08:37:38.000Z</time>
      </trkpt>
      <trkpt lat="40.5125" lon="19.99126">
        <ele>718.23999023438</ele>
        <time>2024-09-27T08:37:41.000Z</time>
      </trkpt>
      <trkpt lat="40.51249" lon="19.99124">
        <ele>718.23999023438</ele>
        <time>2024-09-27T08:37:42.000Z</time>
      </trkpt>
      <trkpt lat="40.51228" lon="19.99091">
        <ele>720.65002441406</ele>
        <time>2024-09-27T08:37:45.000Z</time>
      </trkpt>
      <trkpt lat="40.51198" lon="19.99039">
        <ele>724.48999023438</ele>
        <time>2024-09-27T08:37:50.000Z</time>
      </trkpt>
      <trkpt lat="40.51193" lon="19.9903">
        <ele>725.45001220703</ele>
        <time>2024-09-27T08:37:51.000Z</time>
      </trkpt>
      <trkpt lat="40.51189" lon="19.9902">
        <ele>725.92999267578</ele>
        <time>2024-09-27T08:37:52.000Z</time>
      </trkpt>
      <trkpt lat="40.51186" lon="19.9901">
        <ele>725.92999267578</ele>
        <time>2024-09-27T08:37:53.000Z</time>
      </trkpt>
      <trkpt lat="40.51181" lon="19.9898">
        <ele>725.45001220703</ele>
        <time>2024-09-27T08:37:55.000Z</time>
      </trkpt>
      <trkpt lat="40.5118" lon="19.98969">
        <ele>724.96997070312</ele>
        <time>2024-09-27T08:37:56.000Z</time>
      </trkpt>
      <trkpt lat="40.51178" lon="19.98948">
        <ele>724.48999023438</ele>
        <time>2024-09-27T08:37:57.000Z</time>
      </trkpt>
      <trkpt lat="40.51178" lon="19.98939">
        <ele>724.01000976562</ele>
        <time>2024-09-27T08:37:58.000Z</time>
      </trkpt>
      <trkpt lat="40.51178" lon="19.98926">
        <ele>724.48999023438</ele>
        <time>2024-09-27T08:37:59.000Z</time>
      </trkpt>
      <trkpt lat="40.5118" lon="19.98911">
        <ele>724.96997070312</ele>
        <time>2024-09-27T08:38:00.000Z</time>
      </trkpt>
      <trkpt lat="40.51182" lon="19.989">
        <ele>725.92999267578</ele>
        <time>2024-09-27T08:38:01.000Z</time>
      </trkpt>
      <trkpt lat="40.51188" lon="19.9888">
        <ele>728.34002685547</ele>
        <time>2024-09-27T08:38:02.000Z</time>
      </trkpt>
      <trkpt lat="40.5119" lon="19.98877">
        <ele>728.82000732422</ele>
        <time>2024-09-27T08:38:03.000Z</time>
      </trkpt>
      <trkpt lat="40.51194" lon="19.98867">
        <ele>729.78002929688</ele>
        <time>2024-09-27T08:38:04.000Z</time>
      </trkpt>
      <trkpt lat="40.51199" lon="19.98859">
        <ele>730.73999023438</ele>
        <time>2024-09-27T08:38:05.000Z</time>
      </trkpt>
      <trkpt lat="40.51205" lon="19.98851">
        <ele>731.21997070312</ele>
        <time>2024-09-27T08:38:06.000Z</time>
      </trkpt>
      <trkpt lat="40.51212" lon="19.98844">
        <ele>732.17999267578</ele>
        <time>2024-09-27T08:38:07.000Z</time>
      </trkpt>
      <trkpt lat="40.51219" lon="19.98837">
        <ele>733.61999511719</ele>
        <time>2024-09-27T08:38:08.000Z</time>
      </trkpt>
      <trkpt lat="40.51224" lon="19.98832">
        <ele>734.58001708984</ele>
        <time>2024-09-27T08:38:09.000Z</time>
      </trkpt>
      <trkpt lat="40.51229" lon="19.98824">
        <ele>735.54998779297</ele>
        <time>2024-09-27T08:38:10.000Z</time>
      </trkpt>
      <trkpt lat="40.51233" lon="19.98817">
        <ele>735.54998779297</ele>
        <time>2024-09-27T08:38:11.000Z</time>
      </trkpt>
      <trkpt lat="40.51237" lon="19.98809">
        <ele>736.03002929688</ele>
        <time>2024-09-27T08:38:12.000Z</time>
      </trkpt>
      <trkpt lat="40.51249" lon="19.98776">
        <ele>736.98999023438</ele>
        <time>2024-09-27T08:38:14.000Z</time>
      </trkpt>
      <trkpt lat="40.5125" lon="19.98772">
        <ele>736.98999023438</ele>
        <time>2024-09-27T08:38:15.000Z</time>
      </trkpt>
      <trkpt lat="40.51252" lon="19.98762">
        <ele>737.46997070312</ele>
        <time>2024-09-27T08:38:16.000Z</time>
      </trkpt>
      <trkpt lat="40.51253" lon="19.98751">
        <ele>738.42999267578</ele>
        <time>2024-09-27T08:38:17.000Z</time>
      </trkpt>
      <trkpt lat="40.51253" lon="19.98738">
        <ele>739.86999511719</ele>
        <time>2024-09-27T08:38:18.000Z</time>
      </trkpt>
      <trkpt lat="40.51252" lon="19.98728">
        <ele>740.34997558594</ele>
        <time>2024-09-27T08:38:19.000Z</time>
      </trkpt>
      <trkpt lat="40.51247" lon="19.98709">
        <ele>741.78997802734</ele>
        <time>2024-09-27T08:38:20.000Z</time>
      </trkpt>
      <trkpt lat="40.51247" lon="19.98706">
        <ele>741.78997802734</ele>
        <time>2024-09-27T08:38:21.000Z</time>
      </trkpt>
      <trkpt lat="40.51245" lon="19.98695">
        <ele>742.76000976562</ele>
        <time>2024-09-27T08:38:22.000Z</time>
      </trkpt>
      <trkpt lat="40.51245" lon="19.98689">
        <ele>743.23999023438</ele>
        <time>2024-09-27T08:38:23.000Z</time>
      </trkpt>
      <trkpt lat="40.51246" lon="19.98679">
        <ele>744.67999267578</ele>
        <time>2024-09-27T08:38:24.000Z</time>
      </trkpt>
      <trkpt lat="40.51248" lon="19.98673">
        <ele>745.64001464844</ele>
        <time>2024-09-27T08:38:25.000Z</time>
      </trkpt>
      <trkpt lat="40.51252" lon="19.98657">
        <ele>747.08001708984</ele>
        <time>2024-09-27T08:38:27.000Z</time>
      </trkpt>
      <trkpt lat="40.51253" lon="19.9865">
        <ele>747.08001708984</ele>
        <time>2024-09-27T08:38:28.000Z</time>
      </trkpt>
      <trkpt lat="40.51255" lon="19.98635">
        <ele>747.55999755859</ele>
        <time>2024-09-27T08:38:29.000Z</time>
      </trkpt>
      <trkpt lat="40.51256" lon="19.98628">
        <ele>748.03997802734</ele>
        <time>2024-09-27T08:38:30.000Z</time>
      </trkpt>
      <trkpt lat="40.51257" lon="19.98624">
        <ele>748.03997802734</ele>
        <time>2024-09-27T08:38:31.000Z</time>
      </trkpt>
      <trkpt lat="40.51249" lon="19.98613">
        <ele>749</ele>
        <time>2024-09-27T08:38:34.000Z</time>
      </trkpt>
      <trkpt lat="40.51246" lon="19.98613">
        <ele>749.48999023438</ele>
        <time>2024-09-27T08:38:35.000Z</time>
      </trkpt>
      <trkpt lat="40.51241" lon="19.98615">
        <ele>750.45001220703</ele>
        <time>2024-09-27T08:38:36.000Z</time>
      </trkpt>
      <trkpt lat="40.51238" lon="19.98619">
        <ele>750.92999267578</ele>
        <time>2024-09-27T08:38:37.000Z</time>
      </trkpt>
      <trkpt lat="40.51235" lon="19.98624">
        <ele>751.40997314453</ele>
        <time>2024-09-27T08:38:38.000Z</time>
      </trkpt>
      <trkpt lat="40.51232" lon="19.98632">
        <ele>751.89001464844</ele>
        <time>2024-09-27T08:38:39.000Z</time>
      </trkpt>
      <trkpt lat="40.51229" lon="19.98638">
        <ele>752.36999511719</ele>
        <time>2024-09-27T08:38:40.000Z</time>
      </trkpt>
      <trkpt lat="40.51224" lon="19.98644">
        <ele>752.84997558594</ele>
        <time>2024-09-27T08:38:41.000Z</time>
      </trkpt>
      <trkpt lat="40.51217" lon="19.9865">
        <ele>752.84997558594</ele>
        <time>2024-09-27T08:38:42.000Z</time>
      </trkpt>
      <trkpt lat="40.51208" lon="19.98656">
        <ele>752.84997558594</ele>
        <time>2024-09-27T08:38:43.000Z</time>
      </trkpt>
      <trkpt lat="40.51193" lon="19.98663">
        <ele>753.80999755859</ele>
        <time>2024-09-27T08:38:44.000Z</time>
      </trkpt>
      <trkpt lat="40.51188" lon="19.98665">
        <ele>753.80999755859</ele>
        <time>2024-09-27T08:38:45.000Z</time>
      </trkpt>
      <trkpt lat="40.51179" lon="19.98671">
        <ele>753.80999755859</ele>
        <time>2024-09-27T08:38:46.000Z</time>
      </trkpt>
      <trkpt lat="40.51172" lon="19.98679">
        <ele>754.28997802734</ele>
        <time>2024-09-27T08:38:47.000Z</time>
      </trkpt>
      <trkpt lat="40.51165" lon="19.9869">
        <ele>754.77001953125</ele>
        <time>2024-09-27T08:38:48.000Z</time>
      </trkpt>
      <trkpt lat="40.5116" lon="19.98699">
        <ele>755.25</ele>
        <time>2024-09-27T08:38:49.000Z</time>
      </trkpt>
      <trkpt lat="40.51154" lon="19.9871">
        <ele>756.21002197266</ele>
        <time>2024-09-27T08:38:50.000Z</time>
      </trkpt>
      <trkpt lat="40.51148" lon="19.98719">
        <ele>757.65997314453</ele>
        <time>2024-09-27T08:38:51.000Z</time>
      </trkpt>
      <trkpt lat="40.51118" lon="19.9875">
        <ele>760.53997802734</ele>
        <time>2024-09-27T08:38:55.000Z</time>
      </trkpt>
      <trkpt lat="40.51096" lon="19.98775">
        <ele>761.02001953125</ele>
        <time>2024-09-27T08:38:58.000Z</time>
      </trkpt>
      <trkpt lat="40.51088" lon="19.98783">
        <ele>761.02001953125</ele>
        <time>2024-09-27T08:38:59.000Z</time>
      </trkpt>
      <trkpt lat="40.5108" lon="19.98789">
        <ele>761.02001953125</ele>
        <time>2024-09-27T08:39:00.000Z</time>
      </trkpt>
      <trkpt lat="40.51068" lon="19.98795">
        <ele>760.53997802734</ele>
        <time>2024-09-27T08:39:01.000Z</time>
      </trkpt>
      <trkpt lat="40.5106" lon="19.98798">
        <ele>760.53997802734</ele>
        <time>2024-09-27T08:39:02.000Z</time>
      </trkpt>
      <trkpt lat="40.51048" lon="19.98805">
        <ele>761.5</ele>
        <time>2024-09-27T08:39:03.000Z</time>
      </trkpt>
      <trkpt lat="40.51041" lon="19.98809">
        <ele>761.5</ele>
        <time>2024-09-27T08:39:04.000Z</time>
      </trkpt>
      <trkpt lat="40.51033" lon="19.98811">
        <ele>762.46002197266</ele>
        <time>2024-09-27T08:39:05.000Z</time>
      </trkpt>
      <trkpt lat="40.5102" lon="19.98813">
        <ele>763.41998291016</ele>
        <time>2024-09-27T08:39:06.000Z</time>
      </trkpt>
      <trkpt lat="40.51014" lon="19.98815">
        <ele>763.90002441406</ele>
        <time>2024-09-27T08:39:07.000Z</time>
      </trkpt>
      <trkpt lat="40.51007" lon="19.98818">
        <ele>764.86999511719</ele>
        <time>2024-09-27T08:39:08.000Z</time>
      </trkpt>
      <trkpt lat="40.51001" lon="19.98823">
        <ele>765.83001708984</ele>
        <time>2024-09-27T08:39:09.000Z</time>
      </trkpt>
      <trkpt lat="40.50996" lon="19.9883">
        <ele>766.78997802734</ele>
        <time>2024-09-27T08:39:10.000Z</time>
      </trkpt>
      <trkpt lat="40.50988" lon="19.98847">
        <ele>768.22998046875</ele>
        <time>2024-09-27T08:39:11.000Z</time>
      </trkpt>
      <trkpt lat="40.50986" lon="19.98851">
        <ele>768.22998046875</ele>
        <time>2024-09-27T08:39:12.000Z</time>
      </trkpt>
      <trkpt lat="40.50982" lon="19.9886">
        <ele>769.19000244141</ele>
        <time>2024-09-27T08:39:13.000Z</time>
      </trkpt>
      <trkpt lat="40.50977" lon="19.98867">
        <ele>769.66998291016</ele>
        <time>2024-09-27T08:39:14.000Z</time>
      </trkpt>
      <trkpt lat="40.50971" lon="19.98872">
        <ele>770.63000488281</ele>
        <time>2024-09-27T08:39:15.000Z</time>
      </trkpt>
      <trkpt lat="40.50959" lon="19.98878">
        <ele>771.59997558594</ele>
        <time>2024-09-27T08:39:16.000Z</time>
      </trkpt>
      <trkpt lat="40.50958" lon="19.98878">
        <ele>771.59997558594</ele>
        <time>2024-09-27T08:39:17.000Z</time>
      </trkpt>
      <trkpt lat="40.50947" lon="19.98885">
        <ele>773.03997802734</ele>
        <time>2024-09-27T08:39:18.000Z</time>
      </trkpt>
      <trkpt lat="40.50942" lon="19.98888">
        <ele>774</ele>
        <time>2024-09-27T08:39:19.000Z</time>
      </trkpt>
      <trkpt lat="40.50934" lon="19.98892">
        <ele>774.47998046875</ele>
        <time>2024-09-27T08:39:20.000Z</time>
      </trkpt>
      <trkpt lat="40.50924" lon="19.98895">
        <ele>775.44000244141</ele>
        <time>2024-09-27T08:39:21.000Z</time>
      </trkpt>
      <trkpt lat="40.50914" lon="19.98897">
        <ele>775.91998291016</ele>
        <time>2024-09-27T08:39:22.000Z</time>
      </trkpt>
      <trkpt lat="40.50906" lon="19.98897">
        <ele>776.40002441406</ele>
        <time>2024-09-27T08:39:23.000Z</time>
      </trkpt>
      <trkpt lat="40.50898" lon="19.98896">
        <ele>776.88000488281</ele>
        <time>2024-09-27T08:39:24.000Z</time>
      </trkpt>
      <trkpt lat="40.50879" lon="19.98888">
        <ele>777.84002685547</ele>
        <time>2024-09-27T08:39:26.000Z</time>
      </trkpt>
      <trkpt lat="40.50872" lon="19.98885">
        <ele>778.80999755859</ele>
        <time>2024-09-27T08:39:27.000Z</time>
      </trkpt>
      <trkpt lat="40.50863" lon="19.98883">
        <ele>779.28997802734</ele>
        <time>2024-09-27T08:39:28.000Z</time>
      </trkpt>
      <trkpt lat="40.50857" lon="19.98879">
        <ele>780.25</ele>
        <time>2024-09-27T08:39:29.000Z</time>
      </trkpt>
      <trkpt lat="40.50852" lon="19.98875">
        <ele>780.72998046875</ele>
        <time>2024-09-27T08:39:30.000Z</time>
      </trkpt>
      <trkpt lat="40.50848" lon="19.98869">
        <ele>781.21002197266</ele>
        <time>2024-09-27T08:39:31.000Z</time>
      </trkpt>
      <trkpt lat="40.50844" lon="19.98863">
        <ele>781.21002197266</ele>
        <time>2024-09-27T08:39:32.000Z</time>
      </trkpt>
      <trkpt lat="40.50841" lon="19.98856">
        <ele>781.69000244141</ele>
        <time>2024-09-27T08:39:33.000Z</time>
      </trkpt>
      <trkpt lat="40.50834" lon="19.98836">
        <ele>782.65002441406</ele>
        <time>2024-09-27T08:39:35.000Z</time>
      </trkpt>
      <trkpt lat="40.50831" lon="19.98832">
        <ele>782.65002441406</ele>
        <time>2024-09-27T08:39:36.000Z</time>
      </trkpt>
      <trkpt lat="40.50827" lon="19.98824">
        <ele>783.60998535156</ele>
        <time>2024-09-27T08:39:37.000Z</time>
      </trkpt>
      <trkpt lat="40.50821" lon="19.98818">
        <ele>784.09002685547</ele>
        <time>2024-09-27T08:39:38.000Z</time>
      </trkpt>
      <trkpt lat="40.50814" lon="19.98812">
        <ele>785.04998779297</ele>
        <time>2024-09-27T08:39:39.000Z</time>
      </trkpt>
      <trkpt lat="40.50807" lon="19.98807">
        <ele>786.02001953125</ele>
        <time>2024-09-27T08:39:40.000Z</time>
      </trkpt>
      <trkpt lat="40.50798" lon="19.98805">
        <ele>786.5</ele>
        <time>2024-09-27T08:39:41.000Z</time>
      </trkpt>
      <trkpt lat="40.50787" lon="19.98804">
        <ele>787.46002197266</ele>
        <time>2024-09-27T08:39:42.000Z</time>
      </trkpt>
      <trkpt lat="40.50768" lon="19.98803">
        <ele>789.38000488281</ele>
        <time>2024-09-27T08:39:44.000Z</time>
      </trkpt>
      <trkpt lat="40.50763" lon="19.98803">
        <ele>789.38000488281</ele>
        <time>2024-09-27T08:39:45.000Z</time>
      </trkpt>
      <trkpt lat="40.50755" lon="19.98804">
        <ele>789.85998535156</ele>
        <time>2024-09-27T08:39:46.000Z</time>
      </trkpt>
      <trkpt lat="40.50747" lon="19.98808">
        <ele>789.85998535156</ele>
        <time>2024-09-27T08:39:47.000Z</time>
      </trkpt>
      <trkpt lat="40.5074" lon="19.98814">
        <ele>790.34002685547</ele>
        <time>2024-09-27T08:39:48.000Z</time>
      </trkpt>
      <trkpt lat="40.50726" lon="19.98833">
        <ele>791.29998779297</ele>
        <time>2024-09-27T08:39:50.000Z</time>
      </trkpt>
      <trkpt lat="40.50722" lon="19.98838">
        <ele>791.78002929688</ele>
        <time>2024-09-27T08:39:51.000Z</time>
      </trkpt>
      <trkpt lat="40.50715" lon="19.98844">
        <ele>791.78002929688</ele>
        <time>2024-09-27T08:39:52.000Z</time>
      </trkpt>
      <trkpt lat="40.50706" lon="19.98849">
        <ele>792.26000976562</ele>
        <time>2024-09-27T08:39:53.000Z</time>
      </trkpt>
      <trkpt lat="40.50698" lon="19.98852">
        <ele>792.73999023438</ele>
        <time>2024-09-27T08:39:54.000Z</time>
      </trkpt>
      <trkpt lat="40.50687" lon="19.98856">
        <ele>792.73999023438</ele>
        <time>2024-09-27T08:39:55.000Z</time>
      </trkpt>
      <trkpt lat="40.50675" lon="19.98858">
        <ele>793.21997070312</ele>
        <time>2024-09-27T08:39:56.000Z</time>
      </trkpt>
      <trkpt lat="40.50631" lon="19.98859">
        <ele>795.15002441406</ele>
        <time>2024-09-27T08:40:00.000Z</time>
      </trkpt>
      <trkpt lat="40.50598" lon="19.98853">
        <ele>798.03002929688</ele>
        <time>2024-09-27T08:40:03.000Z</time>
      </trkpt>
      <trkpt lat="40.50588" lon="19.98849">
        <ele>798.98999023438</ele>
        <time>2024-09-27T08:40:04.000Z</time>
      </trkpt>
      <trkpt lat="40.50575" lon="19.98843">
        <ele>800.44000244141</ele>
        <time>2024-09-27T08:40:05.000Z</time>
      </trkpt>
      <trkpt lat="40.50571" lon="19.98841">
        <ele>800.91998291016</ele>
        <time>2024-09-27T08:40:06.000Z</time>
      </trkpt>
      <trkpt lat="40.50563" lon="19.98838">
        <ele>801.88000488281</ele>
        <time>2024-09-27T08:40:07.000Z</time>
      </trkpt>
      <trkpt lat="40.50556" lon="19.98838">
        <ele>802.84002685547</ele>
        <time>2024-09-27T08:40:08.000Z</time>
      </trkpt>
      <trkpt lat="40.50548" lon="19.98839">
        <ele>803.79998779297</ele>
        <time>2024-09-27T08:40:09.000Z</time>
      </trkpt>
      <trkpt lat="40.50539" lon="19.98841">
        <ele>804.76000976562</ele>
        <time>2024-09-27T08:40:10.000Z</time>
      </trkpt>
      <trkpt lat="40.50531" lon="19.98843">
        <ele>805.23999023438</ele>
        <time>2024-09-27T08:40:11.000Z</time>
      </trkpt>
      <trkpt lat="40.50522" lon="19.98843">
        <ele>806.20001220703</ele>
        <time>2024-09-27T08:40:12.000Z</time>
      </trkpt>
      <trkpt lat="40.50513" lon="19.98843">
        <ele>807.15997314453</ele>
        <time>2024-09-27T08:40:13.000Z</time>
      </trkpt>
      <trkpt lat="40.50505" lon="19.98842">
        <ele>808.13000488281</ele>
        <time>2024-09-27T08:40:14.000Z</time>
      </trkpt>
      <trkpt lat="40.50497" lon="19.98839">
        <ele>809.09002685547</ele>
        <time>2024-09-27T08:40:15.000Z</time>
      </trkpt>
      <trkpt lat="40.50488" lon="19.98835">
        <ele>810.53002929688</ele>
        <time>2024-09-27T08:40:16.000Z</time>
      </trkpt>
      <trkpt lat="40.50482" lon="19.98832">
        <ele>811.01000976562</ele>
        <time>2024-09-27T08:40:17.000Z</time>
      </trkpt>
      <trkpt lat="40.50474" lon="19.98826">
        <ele>811.96997070312</ele>
        <time>2024-09-27T08:40:18.000Z</time>
      </trkpt>
      <trkpt lat="40.50467" lon="19.98819">
        <ele>812.92999267578</ele>
        <time>2024-09-27T08:40:19.000Z</time>
      </trkpt>
      <trkpt lat="40.50453" lon="19.98804">
        <ele>814.84997558594</ele>
        <time>2024-09-27T08:40:21.000Z</time>
      </trkpt>
      <trkpt lat="40.50446" lon="19.98795">
        <ele>815.82000732422</ele>
        <time>2024-09-27T08:40:22.000Z</time>
      </trkpt>
      <trkpt lat="40.50436" lon="19.98779">
        <ele>817.26000976562</ele>
        <time>2024-09-27T08:40:23.000Z</time>
      </trkpt>
      <trkpt lat="40.50433" lon="19.98773">
        <ele>817.73999023438</ele>
        <time>2024-09-27T08:40:24.000Z</time>
      </trkpt>
      <trkpt lat="40.50424" lon="19.98756">
        <ele>819.17999267578</ele>
        <time>2024-09-27T08:40:25.000Z</time>
      </trkpt>
      <trkpt lat="40.50421" lon="19.98751">
        <ele>820.14001464844</ele>
        <time>2024-09-27T08:40:26.000Z</time>
      </trkpt>
      <trkpt lat="40.50403" lon="19.98723">
        <ele>823.51000976562</ele>
        <time>2024-09-27T08:40:29.000Z</time>
      </trkpt>
      <trkpt lat="40.50397" lon="19.98715">
        <ele>824.46997070312</ele>
        <time>2024-09-27T08:40:30.000Z</time>
      </trkpt>
      <trkpt lat="40.50391" lon="19.98708">
        <ele>825.90997314453</ele>
        <time>2024-09-27T08:40:31.000Z</time>
      </trkpt>
      <trkpt lat="40.50384" lon="19.987">
        <ele>827.34997558594</ele>
        <time>2024-09-27T08:40:32.000Z</time>
      </trkpt>
      <trkpt lat="40.50379" lon="19.98691">
        <ele>828.78997802734</ele>
        <time>2024-09-27T08:40:33.000Z</time>
      </trkpt>
      <trkpt lat="40.50374" lon="19.98678">
        <ele>830.23999023438</ele>
        <time>2024-09-27T08:40:34.000Z</time>
      </trkpt>
      <trkpt lat="40.50371" lon="19.98665">
        <ele>831.67999267578</ele>
        <time>2024-09-27T08:40:35.000Z</time>
      </trkpt>
      <trkpt lat="40.50366" lon="19.98648">
        <ele>833.59997558594</ele>
        <time>2024-09-27T08:40:37.000Z</time>
      </trkpt>
      <trkpt lat="40.50355" lon="19.98611">
        <ele>837.45001220703</ele>
        <time>2024-09-27T08:40:40.000Z</time>
      </trkpt>
      <trkpt lat="40.50353" lon="19.98604">
        <ele>838.40997314453</ele>
        <time>2024-09-27T08:40:41.000Z</time>
      </trkpt>
      <trkpt lat="40.50351" lon="19.98598">
        <ele>838.89001464844</ele>
        <time>2024-09-27T08:40:42.000Z</time>
      </trkpt>
      <trkpt lat="40.50347" lon="19.9859">
        <ele>839.84997558594</ele>
        <time>2024-09-27T08:40:43.000Z</time>
      </trkpt>
      <trkpt lat="40.50342" lon="19.98584">
        <ele>840.80999755859</ele>
        <time>2024-09-27T08:40:44.000Z</time>
      </trkpt>
      <trkpt lat="40.50335" lon="19.98579">
        <ele>841.77001953125</ele>
        <time>2024-09-27T08:40:45.000Z</time>
      </trkpt>
      <trkpt lat="40.50327" lon="19.98574">
        <ele>842.72998046875</ele>
        <time>2024-09-27T08:40:46.000Z</time>
      </trkpt>
      <trkpt lat="40.50318" lon="19.98567">
        <ele>843.69000244141</ele>
        <time>2024-09-27T08:40:47.000Z</time>
      </trkpt>
      <trkpt lat="40.5031" lon="19.98561">
        <ele>844.65997314453</ele>
        <time>2024-09-27T08:40:48.000Z</time>
      </trkpt>
      <trkpt lat="40.50302" lon="19.98557">
        <ele>846.09997558594</ele>
        <time>2024-09-27T08:40:49.000Z</time>
      </trkpt>
      <trkpt lat="40.50294" lon="19.98553">
        <ele>847.53997802734</ele>
        <time>2024-09-27T08:40:50.000Z</time>
      </trkpt>
      <trkpt lat="40.50285" lon="19.9855">
        <ele>848.97998046875</ele>
        <time>2024-09-27T08:40:51.000Z</time>
      </trkpt>
      <trkpt lat="40.50276" lon="19.98547">
        <ele>850.41998291016</ele>
        <time>2024-09-27T08:40:52.000Z</time>
      </trkpt>
      <trkpt lat="40.50268" lon="19.98543">
        <ele>851.38000488281</ele>
        <time>2024-09-27T08:40:53.000Z</time>
      </trkpt>
      <trkpt lat="40.5026" lon="19.98537">
        <ele>852.34997558594</ele>
        <time>2024-09-27T08:40:54.000Z</time>
      </trkpt>
      <trkpt lat="40.50252" lon="19.9853">
        <ele>853.78997802734</ele>
        <time>2024-09-27T08:40:55.000Z</time>
      </trkpt>
      <trkpt lat="40.50248" lon="19.98525">
        <ele>854.75</ele>
        <time>2024-09-27T08:40:56.000Z</time>
      </trkpt>
      <trkpt lat="40.50242" lon="19.98516">
        <ele>855.71002197266</ele>
        <time>2024-09-27T08:40:57.000Z</time>
      </trkpt>
      <trkpt lat="40.50238" lon="19.98508">
        <ele>856.66998291016</ele>
        <time>2024-09-27T08:40:58.000Z</time>
      </trkpt>
      <trkpt lat="40.50235" lon="19.98499">
        <ele>857.15002441406</ele>
        <time>2024-09-27T08:40:59.000Z</time>
      </trkpt>
      <trkpt lat="40.50234" lon="19.98489">
        <ele>857.63000488281</ele>
        <time>2024-09-27T08:41:00.000Z</time>
      </trkpt>
      <trkpt lat="40.50233" lon="19.98479">
        <ele>858.10998535156</ele>
        <time>2024-09-27T08:41:01.000Z</time>
      </trkpt>
      <trkpt lat="40.50233" lon="19.98467">
        <ele>859.08001708984</ele>
        <time>2024-09-27T08:41:02.000Z</time>
      </trkpt>
      <trkpt lat="40.50232" lon="19.98453">
        <ele>860.03997802734</ele>
        <time>2024-09-27T08:41:03.000Z</time>
      </trkpt>
      <trkpt lat="40.5023" lon="19.98441">
        <ele>861</ele>
        <time>2024-09-27T08:41:04.000Z</time>
      </trkpt>
      <trkpt lat="40.50229" lon="19.98434">
        <ele>861.47998046875</ele>
        <time>2024-09-27T08:41:05.000Z</time>
      </trkpt>
      <trkpt lat="40.50226" lon="19.98424">
        <ele>862.44000244141</ele>
        <time>2024-09-27T08:41:06.000Z</time>
      </trkpt>
      <trkpt lat="40.50223" lon="19.98413">
        <ele>863.88000488281</ele>
        <time>2024-09-27T08:41:07.000Z</time>
      </trkpt>
      <trkpt lat="40.50217" lon="19.98403">
        <ele>864.84002685547</ele>
        <time>2024-09-27T08:41:08.000Z</time>
      </trkpt>
      <trkpt lat="40.50207" lon="19.98386">
        <ele>866.28997802734</ele>
        <time>2024-09-27T08:41:09.000Z</time>
      </trkpt>
      <trkpt lat="40.50205" lon="19.98383">
        <ele>866.28997802734</ele>
        <time>2024-09-27T08:41:10.000Z</time>
      </trkpt>
      <trkpt lat="40.50193" lon="19.98365">
        <ele>867.72998046875</ele>
        <time>2024-09-27T08:41:12.000Z</time>
      </trkpt>
      <trkpt lat="40.50187" lon="19.98356">
        <ele>868.69000244141</ele>
        <time>2024-09-27T08:41:13.000Z</time>
      </trkpt>
      <trkpt lat="40.50179" lon="19.98348">
        <ele>869.65002441406</ele>
        <time>2024-09-27T08:41:14.000Z</time>
      </trkpt>
      <trkpt lat="40.50171" lon="19.98342">
        <ele>870.60998535156</ele>
        <time>2024-09-27T08:41:15.000Z</time>
      </trkpt>
      <trkpt lat="40.50161" lon="19.98337">
        <ele>871.57000732422</ele>
        <time>2024-09-27T08:41:16.000Z</time>
      </trkpt>
      <trkpt lat="40.50153" lon="19.98332">
        <ele>872.53002929688</ele>
        <time>2024-09-27T08:41:17.000Z</time>
      </trkpt>
      <trkpt lat="40.50147" lon="19.98325">
        <ele>873.5</ele>
        <time>2024-09-27T08:41:18.000Z</time>
      </trkpt>
      <trkpt lat="40.50137" lon="19.98313">
        <ele>874.94000244141</ele>
        <time>2024-09-27T08:41:19.000Z</time>
      </trkpt>
      <trkpt lat="40.50134" lon="19.98311">
        <ele>874.94000244141</ele>
        <time>2024-09-27T08:41:20.000Z</time>
      </trkpt>
      <trkpt lat="40.50127" lon="19.98304">
        <ele>875.41998291016</ele>
        <time>2024-09-27T08:41:21.000Z</time>
      </trkpt>
      <trkpt lat="40.50119" lon="19.98301">
        <ele>875.41998291016</ele>
        <time>2024-09-27T08:41:22.000Z</time>
      </trkpt>
      <trkpt lat="40.50108" lon="19.98298">
        <ele>876.38000488281</ele>
        <time>2024-09-27T08:41:23.000Z</time>
      </trkpt>
      <trkpt lat="40.50102" lon="19.98295">
        <ele>876.85998535156</ele>
        <time>2024-09-27T08:41:24.000Z</time>
      </trkpt>
      <trkpt lat="40.50094" lon="19.98291">
        <ele>877.34002685547</ele>
        <time>2024-09-27T08:41:25.000Z</time>
      </trkpt>
      <trkpt lat="40.50089" lon="19.98286">
        <ele>877.82000732422</ele>
        <time>2024-09-27T08:41:26.000Z</time>
      </trkpt>
      <trkpt lat="40.50086" lon="19.9828">
        <ele>878.29998779297</ele>
        <time>2024-09-27T08:41:27.000Z</time>
      </trkpt>
      <trkpt lat="40.50083" lon="19.98267">
        <ele>878.78002929688</ele>
        <time>2024-09-27T08:41:28.000Z</time>
      </trkpt>
      <trkpt lat="40.50082" lon="19.98261">
        <ele>878.78002929688</ele>
        <time>2024-09-27T08:41:29.000Z</time>
      </trkpt>
      <trkpt lat="40.5008" lon="19.9824">
        <ele>878.78002929688</ele>
        <time>2024-09-27T08:41:30.000Z</time>
      </trkpt>
      <trkpt lat="40.5008" lon="19.98237">
        <ele>879.26000976562</ele>
        <time>2024-09-27T08:41:31.000Z</time>
      </trkpt>
      <trkpt lat="40.50077" lon="19.98221">
        <ele>879.26000976562</ele>
        <time>2024-09-27T08:41:32.000Z</time>
      </trkpt>
      <trkpt lat="40.50075" lon="19.98211">
        <ele>879.26000976562</ele>
        <time>2024-09-27T08:41:33.000Z</time>
      </trkpt>
      <trkpt lat="40.50074" lon="19.98204">
        <ele>879.73999023438</ele>
        <time>2024-09-27T08:41:34.000Z</time>
      </trkpt>
      <trkpt lat="40.50072" lon="19.98188">
        <ele>879.73999023438</ele>
        <time>2024-09-27T08:41:35.000Z</time>
      </trkpt>
      <trkpt lat="40.5007" lon="19.98174">
        <ele>880.21997070312</ele>
        <time>2024-09-27T08:41:37.000Z</time>
      </trkpt>
      <trkpt lat="40.50067" lon="19.98165">
        <ele>880.21997070312</ele>
        <time>2024-09-27T08:41:38.000Z</time>
      </trkpt>
      <trkpt lat="40.50062" lon="19.98157">
        <ele>880.21997070312</ele>
        <time>2024-09-27T08:41:39.000Z</time>
      </trkpt>
      <trkpt lat="40.50055" lon="19.9815">
        <ele>880.21997070312</ele>
        <time>2024-09-27T08:41:40.000Z</time>
      </trkpt>
      <trkpt lat="40.50046" lon="19.98145">
        <ele>880.21997070312</ele>
        <time>2024-09-27T08:41:41.000Z</time>
      </trkpt>
      <trkpt lat="40.5002" lon="19.98138">
        <ele>880.71002197266</ele>
        <time>2024-09-27T08:41:43.000Z</time>
      </trkpt>
      <trkpt lat="40.50015" lon="19.98137">
        <ele>880.71002197266</ele>
        <time>2024-09-27T08:41:44.000Z</time>
      </trkpt>
      <trkpt lat="40.50005" lon="19.98135">
        <ele>880.21997070312</ele>
        <time>2024-09-27T08:41:45.000Z</time>
      </trkpt>
      <trkpt lat="40.49998" lon="19.98131">
        <ele>880.21997070312</ele>
        <time>2024-09-27T08:41:46.000Z</time>
      </trkpt>
      <trkpt lat="40.49992" lon="19.98125">
        <ele>880.21997070312</ele>
        <time>2024-09-27T08:41:47.000Z</time>
      </trkpt>
      <trkpt lat="40.49988" lon="19.98118">
        <ele>880.21997070312</ele>
        <time>2024-09-27T08:41:48.000Z</time>
      </trkpt>
      <trkpt lat="40.49986" lon="19.98109">
        <ele>880.21997070312</ele>
        <time>2024-09-27T08:41:49.000Z</time>
      </trkpt>
      <trkpt lat="40.49982" lon="19.98077">
        <ele>880.71002197266</ele>
        <time>2024-09-27T08:41:51.000Z</time>
      </trkpt>
      <trkpt lat="40.49981" lon="19.98066">
        <ele>880.71002197266</ele>
        <time>2024-09-27T08:41:52.000Z</time>
      </trkpt>
      <trkpt lat="40.49979" lon="19.98045">
        <ele>881.66998291016</ele>
        <time>2024-09-27T08:41:53.000Z</time>
      </trkpt>
      <trkpt lat="40.49978" lon="19.98037">
        <ele>882.15002441406</ele>
        <time>2024-09-27T08:41:54.000Z</time>
      </trkpt>
      <trkpt lat="40.49978" lon="19.98001">
        <ele>883.59002685547</ele>
        <time>2024-09-27T08:41:56.000Z</time>
      </trkpt>
      <trkpt lat="40.49978" lon="19.97997">
        <ele>884.07000732422</ele>
        <time>2024-09-27T08:41:57.000Z</time>
      </trkpt>
      <trkpt lat="40.49981" lon="19.97959">
        <ele>886.95001220703</ele>
        <time>2024-09-27T08:41:59.000Z</time>
      </trkpt>
      <trkpt lat="40.49981" lon="19.97957">
        <ele>887.42999267578</ele>
        <time>2024-09-27T08:42:00.000Z</time>
      </trkpt>
      <trkpt lat="40.49981" lon="19.97946">
        <ele>888.40002441406</ele>
        <time>2024-09-27T08:42:01.000Z</time>
      </trkpt>
      <trkpt lat="40.4998" lon="19.97936">
        <ele>889.35998535156</ele>
        <time>2024-09-27T08:42:02.000Z</time>
      </trkpt>
      <trkpt lat="40.49978" lon="19.97922">
        <ele>890.32000732422</ele>
        <time>2024-09-27T08:42:03.000Z</time>
      </trkpt>
      <trkpt lat="40.49978" lon="19.97913">
        <ele>891.28002929688</ele>
        <time>2024-09-27T08:42:04.000Z</time>
      </trkpt>
      <trkpt lat="40.4998" lon="19.97901">
        <ele>892.71997070312</ele>
        <time>2024-09-27T08:42:05.000Z</time>
      </trkpt>
      <trkpt lat="40.49981" lon="19.9789">
        <ele>893.67999267578</ele>
        <time>2024-09-27T08:42:06.000Z</time>
      </trkpt>
      <trkpt lat="40.49982" lon="19.97881">
        <ele>894.64001464844</ele>
        <time>2024-09-27T08:42:07.000Z</time>
      </trkpt>
      <trkpt lat="40.49984" lon="19.97872">
        <ele>895.60998535156</ele>
        <time>2024-09-27T08:42:08.000Z</time>
      </trkpt>
      <trkpt lat="40.49984" lon="19.97864">
        <ele>896.09002685547</ele>
        <time>2024-09-27T08:42:09.000Z</time>
      </trkpt>
      <trkpt lat="40.49984" lon="19.97853">
        <ele>897.04998779297</ele>
        <time>2024-09-27T08:42:10.000Z</time>
      </trkpt>
      <trkpt lat="40.49982" lon="19.97843">
        <ele>898.48999023438</ele>
        <time>2024-09-27T08:42:11.000Z</time>
      </trkpt>
      <trkpt lat="40.49978" lon="19.97835">
        <ele>898.96997070312</ele>
        <time>2024-09-27T08:42:12.000Z</time>
      </trkpt>
      <trkpt lat="40.49973" lon="19.97821">
        <ele>900.40997314453</ele>
        <time>2024-09-27T08:42:13.000Z</time>
      </trkpt>
      <trkpt lat="40.4997" lon="19.97813">
        <ele>901.36999511719</ele>
        <time>2024-09-27T08:42:14.000Z</time>
      </trkpt>
      <trkpt lat="40.49968" lon="19.97802">
        <ele>901.84997558594</ele>
        <time>2024-09-27T08:42:15.000Z</time>
      </trkpt>
      <trkpt lat="40.49966" lon="19.97791">
        <ele>902.82000732422</ele>
        <time>2024-09-27T08:42:16.000Z</time>
      </trkpt>
      <trkpt lat="40.49965" lon="19.97783">
        <ele>903.29998779297</ele>
        <time>2024-09-27T08:42:17.000Z</time>
      </trkpt>
      <trkpt lat="40.49962" lon="19.97771">
        <ele>904.73999023438</ele>
        <time>2024-09-27T08:42:18.000Z</time>
      </trkpt>
      <trkpt lat="40.49959" lon="19.97763">
        <ele>905.21997070312</ele>
        <time>2024-09-27T08:42:19.000Z</time>
      </trkpt>
      <trkpt lat="40.49954" lon="19.97747">
        <ele>906.17999267578</ele>
        <time>2024-09-27T08:42:20.000Z</time>
      </trkpt>
      <trkpt lat="40.49952" lon="19.97741">
        <ele>906.65997314453</ele>
        <time>2024-09-27T08:42:21.000Z</time>
      </trkpt>
      <trkpt lat="40.4995" lon="19.97729">
        <ele>907.61999511719</ele>
        <time>2024-09-27T08:42:22.000Z</time>
      </trkpt>
      <trkpt lat="40.49949" lon="19.97719">
        <ele>908.09997558594</ele>
        <time>2024-09-27T08:42:23.000Z</time>
      </trkpt>
      <trkpt lat="40.49949" lon="19.97707">
        <ele>908.58001708984</ele>
        <time>2024-09-27T08:42:24.000Z</time>
      </trkpt>
      <trkpt lat="40.49951" lon="19.97694">
        <ele>909.53997802734</ele>
        <time>2024-09-27T08:42:25.000Z</time>
      </trkpt>
      <trkpt lat="40.49957" lon="19.9766">
        <ele>911.95001220703</ele>
        <time>2024-09-27T08:42:28.000Z</time>
      </trkpt>
      <trkpt lat="40.49965" lon="19.97631">
        <ele>913.86999511719</ele>
        <time>2024-09-27T08:42:30.000Z</time>
      </trkpt>
      <trkpt lat="40.49968" lon="19.97616">
        <ele>914.83001708984</ele>
        <time>2024-09-27T08:42:31.000Z</time>
      </trkpt>
      <trkpt lat="40.4997" lon="19.97609">
        <ele>915.30999755859</ele>
        <time>2024-09-27T08:42:32.000Z</time>
      </trkpt>
      <trkpt lat="40.49972" lon="19.97594">
        <ele>915.78997802734</ele>
        <time>2024-09-27T08:42:34.000Z</time>
      </trkpt>
      <trkpt lat="40.49972" lon="19.97586">
        <ele>915.78997802734</ele>
        <time>2024-09-27T08:42:35.000Z</time>
      </trkpt>
      <trkpt lat="40.49971" lon="19.9758">
        <ele>915.78997802734</ele>
        <time>2024-09-27T08:42:36.000Z</time>
      </trkpt>
      <trkpt lat="40.49968" lon="19.97574">
        <ele>915.78997802734</ele>
        <time>2024-09-27T08:42:37.000Z</time>
      </trkpt>
      <trkpt lat="40.49964" lon="19.9757">
        <ele>915.78997802734</ele>
        <time>2024-09-27T08:42:38.000Z</time>
      </trkpt>
      <trkpt lat="40.49958" lon="19.97568">
        <ele>915.78997802734</ele>
        <time>2024-09-27T08:42:39.000Z</time>
      </trkpt>
      <trkpt lat="40.49953" lon="19.97568">
        <ele>916.27001953125</ele>
        <time>2024-09-27T08:42:40.000Z</time>
      </trkpt>
      <trkpt lat="40.49947" lon="19.97571">
        <ele>916.75</ele>
        <time>2024-09-27T08:42:41.000Z</time>
      </trkpt>
      <trkpt lat="40.49942" lon="19.97576">
        <ele>917.23999023438</ele>
        <time>2024-09-27T08:42:42.000Z</time>
      </trkpt>
      <trkpt lat="40.49933" lon="19.97584">
        <ele>917.23999023438</ele>
        <time>2024-09-27T08:42:43.000Z</time>
      </trkpt>
      <trkpt lat="40.49923" lon="19.97591">
        <ele>916.75</ele>
        <time>2024-09-27T08:42:44.000Z</time>
      </trkpt>
      <trkpt lat="40.49915" lon="19.97597">
        <ele>916.75</ele>
        <time>2024-09-27T08:42:45.000Z</time>
      </trkpt>
      <trkpt lat="40.49903" lon="19.9761">
        <ele>916.75</ele>
        <time>2024-09-27T08:42:46.000Z</time>
      </trkpt>
      <trkpt lat="40.49898" lon="19.97614">
        <ele>917.23999023438</ele>
        <time>2024-09-27T08:42:47.000Z</time>
      </trkpt>
      <trkpt lat="40.49838" lon="19.97652">
        <ele>917.71997070312</ele>
        <time>2024-09-27T08:42:52.000Z</time>
      </trkpt>
      <trkpt lat="40.49833" lon="19.97655">
        <ele>917.71997070312</ele>
        <time>2024-09-27T08:42:53.000Z</time>
      </trkpt>
      <trkpt lat="40.49828" lon="19.97658">
        <ele>918.20001220703</ele>
        <time>2024-09-27T08:42:54.000Z</time>
      </trkpt>
      <trkpt lat="40.49817" lon="19.97661">
        <ele>918.20001220703</ele>
        <time>2024-09-27T08:42:55.000Z</time>
      </trkpt>
      <trkpt lat="40.49811" lon="19.97663">
        <ele>918.67999267578</ele>
        <time>2024-09-27T08:42:56.000Z</time>
      </trkpt>
      <trkpt lat="40.49793" lon="19.97665">
        <ele>919.64001464844</ele>
        <time>2024-09-27T08:42:58.000Z</time>
      </trkpt>
      <trkpt lat="40.49788" lon="19.97665">
        <ele>919.64001464844</ele>
        <time>2024-09-27T08:42:59.000Z</time>
      </trkpt>
      <trkpt lat="40.49777" lon="19.97664">
        <ele>920.11999511719</ele>
        <time>2024-09-27T08:43:00.000Z</time>
      </trkpt>
      <trkpt lat="40.49761" lon="19.97663">
        <ele>921.08001708984</ele>
        <time>2024-09-27T08:43:01.000Z</time>
      </trkpt>
      <trkpt lat="40.49756" lon="19.97663">
        <ele>921.08001708984</ele>
        <time>2024-09-27T08:43:02.000Z</time>
      </trkpt>
      <trkpt lat="40.49726" lon="19.97667">
        <ele>922.52001953125</ele>
        <time>2024-09-27T08:43:04.000Z</time>
      </trkpt>
      <trkpt lat="40.4971" lon="19.97668">
        <ele>923.96002197266</ele>
        <time>2024-09-27T08:43:05.000Z</time>
      </trkpt>
      <trkpt lat="40.49687" lon="19.9767">
        <ele>925.40997314453</ele>
        <time>2024-09-27T08:43:07.000Z</time>
      </trkpt>
      <trkpt lat="40.49682" lon="19.9767">
        <ele>925.89001464844</ele>
        <time>2024-09-27T08:43:08.000Z</time>
      </trkpt>
      <trkpt lat="40.49673" lon="19.97669">
        <ele>926.84997558594</ele>
        <time>2024-09-27T08:43:09.000Z</time>
      </trkpt>
      <trkpt lat="40.49664" lon="19.97666">
        <ele>927.33001708984</ele>
        <time>2024-09-27T08:43:10.000Z</time>
      </trkpt>
      <trkpt lat="40.49653" lon="19.97663">
        <ele>927.33001708984</ele>
        <time>2024-09-27T08:43:11.000Z</time>
      </trkpt>
      <trkpt lat="40.49642" lon="19.97661">
        <ele>928.28997802734</ele>
        <time>2024-09-27T08:43:12.000Z</time>
      </trkpt>
      <trkpt lat="40.4963" lon="19.97662">
        <ele>929.25</ele>
        <time>2024-09-27T08:43:13.000Z</time>
      </trkpt>
      <trkpt lat="40.49618" lon="19.97665">
        <ele>930.21002197266</ele>
        <time>2024-09-27T08:43:14.000Z</time>
      </trkpt>
      <trkpt lat="40.49597" lon="19.97672">
        <ele>931.65002441406</ele>
        <time>2024-09-27T08:43:16.000Z</time>
      </trkpt>
      <trkpt lat="40.49586" lon="19.97674">
        <ele>932.14001464844</ele>
        <time>2024-09-27T08:43:17.000Z</time>
      </trkpt>
      <trkpt lat="40.49554" lon="19.97678">
        <ele>934.53997802734</ele>
        <time>2024-09-27T08:43:20.000Z</time>
      </trkpt>
      <trkpt lat="40.49536" lon="19.97683">
        <ele>936.46002197266</ele>
        <time>2024-09-27T08:43:22.000Z</time>
      </trkpt>
      <trkpt lat="40.49529" lon="19.97684">
        <ele>936.94000244141</ele>
        <time>2024-09-27T08:43:23.000Z</time>
      </trkpt>
      <trkpt lat="40.4952" lon="19.97684">
        <ele>938.38000488281</ele>
        <time>2024-09-27T08:43:24.000Z</time>
      </trkpt>
      <trkpt lat="40.49504" lon="19.97682">
        <ele>939.83001708984</ele>
        <time>2024-09-27T08:43:25.000Z</time>
      </trkpt>
      <trkpt lat="40.49502" lon="19.97682">
        <ele>940.30999755859</ele>
        <time>2024-09-27T08:43:26.000Z</time>
      </trkpt>
      <trkpt lat="40.49493" lon="19.97682">
        <ele>940.78997802734</ele>
        <time>2024-09-27T08:43:27.000Z</time>
      </trkpt>
      <trkpt lat="40.49484" lon="19.97684">
        <ele>941.27001953125</ele>
        <time>2024-09-27T08:43:28.000Z</time>
      </trkpt>
      <trkpt lat="40.49474" lon="19.97686">
        <ele>942.22998046875</ele>
        <time>2024-09-27T08:43:29.000Z</time>
      </trkpt>
      <trkpt lat="40.49466" lon="19.97691">
        <ele>942.71002197266</ele>
        <time>2024-09-27T08:43:30.000Z</time>
      </trkpt>
      <trkpt lat="40.49455" lon="19.97699">
        <ele>944.15002441406</ele>
        <time>2024-09-27T08:43:31.000Z</time>
      </trkpt>
      <trkpt lat="40.49453" lon="19.97701">
        <ele>944.15002441406</ele>
        <time>2024-09-27T08:43:32.000Z</time>
      </trkpt>
      <trkpt lat="40.49448" lon="19.97704">
        <ele>944.63000488281</ele>
        <time>2024-09-27T08:43:33.000Z</time>
      </trkpt>
      <trkpt lat="40.49441" lon="19.97709">
        <ele>945.10998535156</ele>
        <time>2024-09-27T08:43:34.000Z</time>
      </trkpt>
      <trkpt lat="40.49438" lon="19.97711">
        <ele>945.59002685547</ele>
        <time>2024-09-27T08:43:35.000Z</time>
      </trkpt>
      <trkpt lat="40.49432" lon="19.97712">
        <ele>945.59002685547</ele>
        <time>2024-09-27T08:43:36.000Z</time>
      </trkpt>
      <trkpt lat="40.49425" lon="19.97712">
        <ele>946.07000732422</ele>
        <time>2024-09-27T08:43:37.000Z</time>
      </trkpt>
      <trkpt lat="40.49416" lon="19.97709">
        <ele>945.59002685547</ele>
        <time>2024-09-27T08:43:38.000Z</time>
      </trkpt>
      <trkpt lat="40.4941" lon="19.97706">
        <ele>945.10998535156</ele>
        <time>2024-09-27T08:43:39.000Z</time>
      </trkpt>
      <trkpt lat="40.49402" lon="19.97701">
        <ele>944.63000488281</ele>
        <time>2024-09-27T08:43:40.000Z</time>
      </trkpt>
      <trkpt lat="40.4939" lon="19.97691">
        <ele>943.19000244141</ele>
        <time>2024-09-27T08:43:41.000Z</time>
      </trkpt>
      <trkpt lat="40.49387" lon="19.97688">
        <ele>943.19000244141</ele>
        <time>2024-09-27T08:43:42.000Z</time>
      </trkpt>
      <trkpt lat="40.49381" lon="19.97681">
        <ele>942.71002197266</ele>
        <time>2024-09-27T08:43:43.000Z</time>
      </trkpt>
      <trkpt lat="40.49374" lon="19.97671">
        <ele>941.75</ele>
        <time>2024-09-27T08:43:44.000Z</time>
      </trkpt>
      <trkpt lat="40.49368" lon="19.97661">
        <ele>941.27001953125</ele>
        <time>2024-09-27T08:43:45.000Z</time>
      </trkpt>
      <trkpt lat="40.49362" lon="19.9765">
        <ele>940.78997802734</ele>
        <time>2024-09-27T08:43:46.000Z</time>
      </trkpt>
      <trkpt lat="40.49357" lon="19.97642">
        <ele>940.30999755859</ele>
        <time>2024-09-27T08:43:47.000Z</time>
      </trkpt>
      <trkpt lat="40.49351" lon="19.97637">
        <ele>940.30999755859</ele>
        <time>2024-09-27T08:43:48.000Z</time>
      </trkpt>
      <trkpt lat="40.49344" lon="19.97634">
        <ele>940.30999755859</ele>
        <time>2024-09-27T08:43:49.000Z</time>
      </trkpt>
      <trkpt lat="40.49335" lon="19.97635">
        <ele>939.83001708984</ele>
        <time>2024-09-27T08:43:50.000Z</time>
      </trkpt>
      <trkpt lat="40.49325" lon="19.97637">
        <ele>939.83001708984</ele>
        <time>2024-09-27T08:43:51.000Z</time>
      </trkpt>
      <trkpt lat="40.49304" lon="19.97636">
        <ele>937.90002441406</ele>
        <time>2024-09-27T08:43:53.000Z</time>
      </trkpt>
      <trkpt lat="40.49286" lon="19.97635">
        <ele>935.97998046875</ele>
        <time>2024-09-27T08:43:54.000Z</time>
      </trkpt>
      <trkpt lat="40.49279" lon="19.97635">
        <ele>935.02001953125</ele>
        <time>2024-09-27T08:43:55.000Z</time>
      </trkpt>
      <trkpt lat="40.4926" lon="19.97632">
        <ele>932.61999511719</ele>
        <time>2024-09-27T08:43:56.000Z</time>
      </trkpt>
      <trkpt lat="40.49221" lon="19.97625">
        <ele>929.72998046875</ele>
        <time>2024-09-27T08:44:00.000Z</time>
      </trkpt>
      <trkpt lat="40.49215" lon="19.97624">
        <ele>929.25</ele>
        <time>2024-09-27T08:44:01.000Z</time>
      </trkpt>
      <trkpt lat="40.49198" lon="19.97619">
        <ele>928.28997802734</ele>
        <time>2024-09-27T08:44:02.000Z</time>
      </trkpt>
      <trkpt lat="40.4918" lon="19.97612">
        <ele>926.84997558594</ele>
        <time>2024-09-27T08:44:04.000Z</time>
      </trkpt>
      <trkpt lat="40.49167" lon="19.97608">
        <ele>925.89001464844</ele>
        <time>2024-09-27T08:44:05.000Z</time>
      </trkpt>
      <trkpt lat="40.49165" lon="19.97608">
        <ele>925.89001464844</ele>
        <time>2024-09-27T08:44:06.000Z</time>
      </trkpt>
      <trkpt lat="40.49128" lon="19.97592">
        <ele>923.47998046875</ele>
        <time>2024-09-27T08:44:10.000Z</time>
      </trkpt>
      <trkpt lat="40.4912" lon="19.97587">
        <ele>923</ele>
        <time>2024-09-27T08:44:11.000Z</time>
      </trkpt>
      <trkpt lat="40.49109" lon="19.97579">
        <ele>922.03997802734</ele>
        <time>2024-09-27T08:44:12.000Z</time>
      </trkpt>
      <trkpt lat="40.49074" lon="19.97553">
        <ele>918.20001220703</ele>
        <time>2024-09-27T08:44:16.000Z</time>
      </trkpt>
      <trkpt lat="40.49073" lon="19.97552">
        <ele>918.20001220703</ele>
        <time>2024-09-27T08:44:17.000Z</time>
      </trkpt>
      <trkpt lat="40.49066" lon="19.97547">
        <ele>917.23999023438</ele>
        <time>2024-09-27T08:44:18.000Z</time>
      </trkpt>
      <trkpt lat="40.49047" lon="19.97533">
        <ele>915.78997802734</ele>
        <time>2024-09-27T08:44:21.000Z</time>
      </trkpt>
      <trkpt lat="40.49042" lon="19.97529">
        <ele>915.78997802734</ele>
        <time>2024-09-27T08:44:22.000Z</time>
      </trkpt>
      <trkpt lat="40.49037" lon="19.97526">
        <ele>915.30999755859</ele>
        <time>2024-09-27T08:44:23.000Z</time>
      </trkpt>
      <trkpt lat="40.49031" lon="19.9752">
        <ele>914.83001708984</ele>
        <time>2024-09-27T08:44:24.000Z</time>
      </trkpt>
      <trkpt lat="40.49026" lon="19.97517">
        <ele>914.83001708984</ele>
        <time>2024-09-27T08:44:25.000Z</time>
      </trkpt>
      <trkpt lat="40.49023" lon="19.97515">
        <ele>914.34997558594</ele>
        <time>2024-09-27T08:44:26.000Z</time>
      </trkpt>
      <trkpt lat="40.49018" lon="19.97512">
        <ele>914.34997558594</ele>
        <time>2024-09-27T08:44:27.000Z</time>
      </trkpt>
      <trkpt lat="40.49011" lon="19.97509">
        <ele>913.86999511719</ele>
        <time>2024-09-27T08:44:28.000Z</time>
      </trkpt>
      <trkpt lat="40.49004" lon="19.97507">
        <ele>913.39001464844</ele>
        <time>2024-09-27T08:44:29.000Z</time>
      </trkpt>
      <trkpt lat="40.48993" lon="19.97502">
        <ele>912.42999267578</ele>
        <time>2024-09-27T08:44:30.000Z</time>
      </trkpt>
      <trkpt lat="40.48982" lon="19.97498">
        <ele>910.98999023438</ele>
        <time>2024-09-27T08:44:32.000Z</time>
      </trkpt>
      <trkpt lat="40.48979" lon="19.97496">
        <ele>910.51000976562</ele>
        <time>2024-09-27T08:44:33.000Z</time>
      </trkpt>
      <trkpt lat="40.48974" lon="19.97493">
        <ele>909.53997802734</ele>
        <time>2024-09-27T08:44:34.000Z</time>
      </trkpt>
      <trkpt lat="40.48969" lon="19.97489">
        <ele>908.58001708984</ele>
        <time>2024-09-27T08:44:35.000Z</time>
      </trkpt>
      <trkpt lat="40.48966" lon="19.97486">
        <ele>908.09997558594</ele>
        <time>2024-09-27T08:44:36.000Z</time>
      </trkpt>
      <trkpt lat="40.48955" lon="19.97492">
        <ele>906.17999267578</ele>
        <time>2024-09-27T08:44:40.000Z</time>
      </trkpt>
      <trkpt lat="40.48955" lon="19.97497">
        <ele>905.21997070312</ele>
        <time>2024-09-27T08:44:41.000Z</time>
      </trkpt>
      <trkpt lat="40.48956" lon="19.97504">
        <ele>904.26000976562</ele>
        <time>2024-09-27T08:44:42.000Z</time>
      </trkpt>
      <trkpt lat="40.48959" lon="19.97512">
        <ele>903.29998779297</ele>
        <time>2024-09-27T08:44:43.000Z</time>
      </trkpt>
      <trkpt lat="40.48963" lon="19.97523">
        <ele>902.33001708984</ele>
        <time>2024-09-27T08:44:44.000Z</time>
      </trkpt>
      <trkpt lat="40.48966" lon="19.97531">
        <ele>901.84997558594</ele>
        <time>2024-09-27T08:44:45.000Z</time>
      </trkpt>
      <trkpt lat="40.48969" lon="19.97549">
        <ele>901.36999511719</ele>
        <time>2024-09-27T08:44:47.000Z</time>
      </trkpt>
      <trkpt lat="40.4897" lon="19.97559">
        <ele>901.36999511719</ele>
        <time>2024-09-27T08:44:48.000Z</time>
      </trkpt>
      <trkpt lat="40.4897" lon="19.97568">
        <ele>901.36999511719</ele>
        <time>2024-09-27T08:44:49.000Z</time>
      </trkpt>
      <trkpt lat="40.48969" lon="19.97576">
        <ele>901.84997558594</ele>
        <time>2024-09-27T08:44:50.000Z</time>
      </trkpt>
      <trkpt lat="40.48967" lon="19.97584">
        <ele>902.33001708984</ele>
        <time>2024-09-27T08:44:51.000Z</time>
      </trkpt>
      <trkpt lat="40.48962" lon="19.9759">
        <ele>902.82000732422</ele>
        <time>2024-09-27T08:44:52.000Z</time>
      </trkpt>
      <trkpt lat="40.48954" lon="19.97595">
        <ele>903.29998779297</ele>
        <time>2024-09-27T08:44:53.000Z</time>
      </trkpt>
      <trkpt lat="40.48945" lon="19.97598">
        <ele>903.78002929688</ele>
        <time>2024-09-27T08:44:54.000Z</time>
      </trkpt>
      <trkpt lat="40.4893" lon="19.97601">
        <ele>904.73999023438</ele>
        <time>2024-09-27T08:44:55.000Z</time>
      </trkpt>
      <trkpt lat="40.48925" lon="19.97602">
        <ele>905.21997070312</ele>
        <time>2024-09-27T08:44:56.000Z</time>
      </trkpt>
      <trkpt lat="40.48872" lon="19.97617">
        <ele>906.65997314453</ele>
        <time>2024-09-27T08:45:00.000Z</time>
      </trkpt>
      <trkpt lat="40.48866" lon="19.97619">
        <ele>906.65997314453</ele>
        <time>2024-09-27T08:45:01.000Z</time>
      </trkpt>
      <trkpt lat="40.48849" lon="19.97625">
        <ele>907.14001464844</ele>
        <time>2024-09-27T08:45:03.000Z</time>
      </trkpt>
      <trkpt lat="40.48845" lon="19.97627">
        <ele>907.14001464844</ele>
        <time>2024-09-27T08:45:04.000Z</time>
      </trkpt>
      <trkpt lat="40.48824" lon="19.97639">
        <ele>908.09997558594</ele>
        <time>2024-09-27T08:45:06.000Z</time>
      </trkpt>
      <trkpt lat="40.48819" lon="19.97642">
        <ele>908.58001708984</ele>
        <time>2024-09-27T08:45:07.000Z</time>
      </trkpt>
      <trkpt lat="40.48813" lon="19.97646">
        <ele>909.05999755859</ele>
        <time>2024-09-27T08:45:08.000Z</time>
      </trkpt>
      <trkpt lat="40.48805" lon="19.97654">
        <ele>910.03002929688</ele>
        <time>2024-09-27T08:45:09.000Z</time>
      </trkpt>
      <trkpt lat="40.48797" lon="19.97661">
        <ele>910.98999023438</ele>
        <time>2024-09-27T08:45:10.000Z</time>
      </trkpt>
      <trkpt lat="40.4879" lon="19.97667">
        <ele>911.95001220703</ele>
        <time>2024-09-27T08:45:11.000Z</time>
      </trkpt>
      <trkpt lat="40.48784" lon="19.97672">
        <ele>912.90997314453</ele>
        <time>2024-09-27T08:45:12.000Z</time>
      </trkpt>
      <trkpt lat="40.48776" lon="19.97675">
        <ele>913.39001464844</ele>
        <time>2024-09-27T08:45:13.000Z</time>
      </trkpt>
      <trkpt lat="40.48768" lon="19.97676">
        <ele>913.86999511719</ele>
        <time>2024-09-27T08:45:14.000Z</time>
      </trkpt>
      <trkpt lat="40.48752" lon="19.97676">
        <ele>914.34997558594</ele>
        <time>2024-09-27T08:45:15.000Z</time>
      </trkpt>
      <trkpt lat="40.4875" lon="19.97676">
        <ele>914.34997558594</ele>
        <time>2024-09-27T08:45:16.000Z</time>
      </trkpt>
      <trkpt lat="40.48741" lon="19.97677">
        <ele>914.83001708984</ele>
        <time>2024-09-27T08:45:17.000Z</time>
      </trkpt>
      <trkpt lat="40.48712" lon="19.97691">
        <ele>914.83001708984</ele>
        <time>2024-09-27T08:45:20.000Z</time>
      </trkpt>
      <trkpt lat="40.487" lon="19.97696">
        <ele>913.86999511719</ele>
        <time>2024-09-27T08:45:22.000Z</time>
      </trkpt>
      <trkpt lat="40.48691" lon="19.97698">
        <ele>913.39001464844</ele>
        <time>2024-09-27T08:45:23.000Z</time>
      </trkpt>
      <trkpt lat="40.48683" lon="19.97696">
        <ele>912.90997314453</ele>
        <time>2024-09-27T08:45:24.000Z</time>
      </trkpt>
      <trkpt lat="40.48675" lon="19.97693">
        <ele>911.95001220703</ele>
        <time>2024-09-27T08:45:25.000Z</time>
      </trkpt>
      <trkpt lat="40.48666" lon="19.97686">
        <ele>911.46997070312</ele>
        <time>2024-09-27T08:45:26.000Z</time>
      </trkpt>
      <trkpt lat="40.48652" lon="19.97676">
        <ele>910.51000976562</ele>
        <time>2024-09-27T08:45:27.000Z</time>
      </trkpt>
      <trkpt lat="40.48646" lon="19.97672">
        <ele>910.51000976562</ele>
        <time>2024-09-27T08:45:28.000Z</time>
      </trkpt>
      <trkpt lat="40.48629" lon="19.97662">
        <ele>910.03002929688</ele>
        <time>2024-09-27T08:45:29.000Z</time>
      </trkpt>
      <trkpt lat="40.48623" lon="19.97658">
        <ele>910.03002929688</ele>
        <time>2024-09-27T08:45:30.000Z</time>
      </trkpt>
      <trkpt lat="40.48618" lon="19.97655">
        <ele>909.53997802734</ele>
        <time>2024-09-27T08:45:31.000Z</time>
      </trkpt>
      <trkpt lat="40.48609" lon="19.97647">
        <ele>909.05999755859</ele>
        <time>2024-09-27T08:45:32.000Z</time>
      </trkpt>
      <trkpt lat="40.48603" lon="19.9764">
        <ele>909.05999755859</ele>
        <time>2024-09-27T08:45:33.000Z</time>
      </trkpt>
      <trkpt lat="40.48598" lon="19.97632">
        <ele>909.05999755859</ele>
        <time>2024-09-27T08:45:34.000Z</time>
      </trkpt>
      <trkpt lat="40.48591" lon="19.9762">
        <ele>908.58001708984</ele>
        <time>2024-09-27T08:45:35.000Z</time>
      </trkpt>
      <trkpt lat="40.48587" lon="19.97614">
        <ele>908.58001708984</ele>
        <time>2024-09-27T08:45:36.000Z</time>
      </trkpt>
      <trkpt lat="40.48582" lon="19.97606">
        <ele>908.58001708984</ele>
        <time>2024-09-27T08:45:37.000Z</time>
      </trkpt>
      <trkpt lat="40.48576" lon="19.97601">
        <ele>908.58001708984</ele>
        <time>2024-09-27T08:45:38.000Z</time>
      </trkpt>
      <trkpt lat="40.48568" lon="19.97599">
        <ele>908.09997558594</ele>
        <time>2024-09-27T08:45:39.000Z</time>
      </trkpt>
      <trkpt lat="40.4856" lon="19.97598">
        <ele>908.09997558594</ele>
        <time>2024-09-27T08:45:40.000Z</time>
      </trkpt>
      <trkpt lat="40.48551" lon="19.976">
        <ele>908.58001708984</ele>
        <time>2024-09-27T08:45:41.000Z</time>
      </trkpt>
      <trkpt lat="40.48508" lon="19.97614">
        <ele>908.09997558594</ele>
        <time>2024-09-27T08:45:45.000Z</time>
      </trkpt>
      <trkpt lat="40.4849" lon="19.9762">
        <ele>908.09997558594</ele>
        <time>2024-09-27T08:45:47.000Z</time>
      </trkpt>
      <trkpt lat="40.4848" lon="19.97623">
        <ele>907.61999511719</ele>
        <time>2024-09-27T08:45:48.000Z</time>
      </trkpt>
      <trkpt lat="40.48469" lon="19.97624">
        <ele>907.61999511719</ele>
        <time>2024-09-27T08:45:49.000Z</time>
      </trkpt>
      <trkpt lat="40.4846" lon="19.97624">
        <ele>907.14001464844</ele>
        <time>2024-09-27T08:45:50.000Z</time>
      </trkpt>
      <trkpt lat="40.4845" lon="19.97621">
        <ele>907.14001464844</ele>
        <time>2024-09-27T08:45:51.000Z</time>
      </trkpt>
      <trkpt lat="40.48442" lon="19.97617">
        <ele>906.65997314453</ele>
        <time>2024-09-27T08:45:52.000Z</time>
      </trkpt>
      <trkpt lat="40.48433" lon="19.97611">
        <ele>906.17999267578</ele>
        <time>2024-09-27T08:45:53.000Z</time>
      </trkpt>
      <trkpt lat="40.48424" lon="19.97603">
        <ele>905.70001220703</ele>
        <time>2024-09-27T08:45:54.000Z</time>
      </trkpt>
      <trkpt lat="40.48407" lon="19.97584">
        <ele>904.26000976562</ele>
        <time>2024-09-27T08:45:56.000Z</time>
      </trkpt>
      <trkpt lat="40.48398" lon="19.97575">
        <ele>903.29998779297</ele>
        <time>2024-09-27T08:45:57.000Z</time>
      </trkpt>
      <trkpt lat="40.48391" lon="19.97569">
        <ele>902.82000732422</ele>
        <time>2024-09-27T08:45:58.000Z</time>
      </trkpt>
      <trkpt lat="40.48383" lon="19.97564">
        <ele>901.84997558594</ele>
        <time>2024-09-27T08:45:59.000Z</time>
      </trkpt>
      <trkpt lat="40.48373" lon="19.9756">
        <ele>900.89001464844</ele>
        <time>2024-09-27T08:46:00.000Z</time>
      </trkpt>
      <trkpt lat="40.48275" lon="19.97529">
        <ele>892.23999023438</ele>
        <time>2024-09-27T08:46:08.000Z</time>
      </trkpt>
      <trkpt lat="40.48271" lon="19.97529">
        <ele>891.76000976562</ele>
        <time>2024-09-27T08:46:09.000Z</time>
      </trkpt>
      <trkpt lat="40.48263" lon="19.97528">
        <ele>890.79998779297</ele>
        <time>2024-09-27T08:46:10.000Z</time>
      </trkpt>
      <trkpt lat="40.48253" lon="19.97529">
        <ele>889.84002685547</ele>
        <time>2024-09-27T08:46:11.000Z</time>
      </trkpt>
      <trkpt lat="40.48243" lon="19.97531">
        <ele>888.40002441406</ele>
        <time>2024-09-27T08:46:12.000Z</time>
      </trkpt>
      <trkpt lat="40.48212" lon="19.9754">
        <ele>884.07000732422</ele>
        <time>2024-09-27T08:46:14.000Z</time>
      </trkpt>
      <trkpt lat="40.48209" lon="19.97541">
        <ele>883.59002685547</ele>
        <time>2024-09-27T08:46:15.000Z</time>
      </trkpt>
      <trkpt lat="40.48178" lon="19.97554">
        <ele>879.26000976562</ele>
        <time>2024-09-27T08:46:17.000Z</time>
      </trkpt>
      <trkpt lat="40.48174" lon="19.97555">
        <ele>878.78002929688</ele>
        <time>2024-09-27T08:46:18.000Z</time>
      </trkpt>
      <trkpt lat="40.48166" lon="19.9756">
        <ele>877.34002685547</ele>
        <time>2024-09-27T08:46:19.000Z</time>
      </trkpt>
      <trkpt lat="40.48157" lon="19.97565">
        <ele>875.90002441406</ele>
        <time>2024-09-27T08:46:20.000Z</time>
      </trkpt>
      <trkpt lat="40.48145" lon="19.97577">
        <ele>873.5</ele>
        <time>2024-09-27T08:46:21.000Z</time>
      </trkpt>
      <trkpt lat="40.48139" lon="19.97581">
        <ele>872.53002929688</ele>
        <time>2024-09-27T08:46:22.000Z</time>
      </trkpt>
      <trkpt lat="40.48126" lon="19.97592">
        <ele>870.60998535156</ele>
        <time>2024-09-27T08:46:23.000Z</time>
      </trkpt>
      <trkpt lat="40.48123" lon="19.97594">
        <ele>869.65002441406</ele>
        <time>2024-09-27T08:46:24.000Z</time>
      </trkpt>
      <trkpt lat="40.48116" lon="19.97602">
        <ele>868.69000244141</ele>
        <time>2024-09-27T08:46:25.000Z</time>
      </trkpt>
      <trkpt lat="40.48109" lon="19.97613">
        <ele>867.25</ele>
        <time>2024-09-27T08:46:26.000Z</time>
      </trkpt>
      <trkpt lat="40.48097" lon="19.9763">
        <ele>864.84002685547</ele>
        <time>2024-09-27T08:46:28.000Z</time>
      </trkpt>
      <trkpt lat="40.48089" lon="19.97638">
        <ele>863.88000488281</ele>
        <time>2024-09-27T08:46:29.000Z</time>
      </trkpt>
      <trkpt lat="40.48082" lon="19.97646">
        <ele>862.91998291016</ele>
        <time>2024-09-27T08:46:30.000Z</time>
      </trkpt>
      <trkpt lat="40.48078" lon="19.97648">
        <ele>862.44000244141</ele>
        <time>2024-09-27T08:46:31.000Z</time>
      </trkpt>
      <trkpt lat="40.48067" lon="19.97656">
        <ele>861</ele>
        <time>2024-09-27T08:46:32.000Z</time>
      </trkpt>
      <trkpt lat="40.48065" lon="19.97657">
        <ele>861</ele>
        <time>2024-09-27T08:46:33.000Z</time>
      </trkpt>
      <trkpt lat="40.48058" lon="19.97661">
        <ele>860.52001953125</ele>
        <time>2024-09-27T08:46:34.000Z</time>
      </trkpt>
      <trkpt lat="40.48041" lon="19.97668">
        <ele>859.55999755859</ele>
        <time>2024-09-27T08:46:36.000Z</time>
      </trkpt>
      <trkpt lat="40.48032" lon="19.97671">
        <ele>859.08001708984</ele>
        <time>2024-09-27T08:46:37.000Z</time>
      </trkpt>
      <trkpt lat="40.47995" lon="19.97688">
        <ele>857.63000488281</ele>
        <time>2024-09-27T08:46:41.000Z</time>
      </trkpt>
      <trkpt lat="40.4799" lon="19.9769">
        <ele>857.63000488281</ele>
        <time>2024-09-27T08:46:42.000Z</time>
      </trkpt>
      <trkpt lat="40.47983" lon="19.97691">
        <ele>857.15002441406</ele>
        <time>2024-09-27T08:46:43.000Z</time>
      </trkpt>
      <trkpt lat="40.47974" lon="19.97692">
        <ele>857.15002441406</ele>
        <time>2024-09-27T08:46:44.000Z</time>
      </trkpt>
      <trkpt lat="40.47963" lon="19.97692">
        <ele>857.15002441406</ele>
        <time>2024-09-27T08:46:45.000Z</time>
      </trkpt>
      <trkpt lat="40.47954" lon="19.97692">
        <ele>857.15002441406</ele>
        <time>2024-09-27T08:46:46.000Z</time>
      </trkpt>
      <trkpt lat="40.47941" lon="19.97691">
        <ele>857.63000488281</ele>
        <time>2024-09-27T08:46:47.000Z</time>
      </trkpt>
      <trkpt lat="40.47905" lon="19.97682">
        <ele>858.59002685547</ele>
        <time>2024-09-27T08:46:49.000Z</time>
      </trkpt>
      <trkpt lat="40.47901" lon="19.97681">
        <ele>859.08001708984</ele>
        <time>2024-09-27T08:46:50.000Z</time>
      </trkpt>
      <trkpt lat="40.47873" lon="19.97668">
        <ele>860.03997802734</ele>
        <time>2024-09-27T08:46:52.000Z</time>
      </trkpt>
      <trkpt lat="40.47858" lon="19.97663">
        <ele>860.52001953125</ele>
        <time>2024-09-27T08:46:53.000Z</time>
      </trkpt>
      <trkpt lat="40.47849" lon="19.97661">
        <ele>860.52001953125</ele>
        <time>2024-09-27T08:46:54.000Z</time>
      </trkpt>
      <trkpt lat="40.47837" lon="19.97659">
        <ele>860.52001953125</ele>
        <time>2024-09-27T08:46:55.000Z</time>
      </trkpt>
      <trkpt lat="40.47824" lon="19.9766">
        <ele>860.52001953125</ele>
        <time>2024-09-27T08:46:56.000Z</time>
      </trkpt>
      <trkpt lat="40.47793" lon="19.97668">
        <ele>860.03997802734</ele>
        <time>2024-09-27T08:46:58.000Z</time>
      </trkpt>
      <trkpt lat="40.47782" lon="19.97673">
        <ele>859.55999755859</ele>
        <time>2024-09-27T08:46:59.000Z</time>
      </trkpt>
      <trkpt lat="40.47774" lon="19.97676">
        <ele>859.08001708984</ele>
        <time>2024-09-27T08:47:00.000Z</time>
      </trkpt>
      <trkpt lat="40.47755" lon="19.97687">
        <ele>858.10998535156</ele>
        <time>2024-09-27T08:47:01.000Z</time>
      </trkpt>
      <trkpt lat="40.47741" lon="19.97695">
        <ele>857.15002441406</ele>
        <time>2024-09-27T08:47:02.000Z</time>
      </trkpt>
      <trkpt lat="40.47736" lon="19.97698">
        <ele>857.15002441406</ele>
        <time>2024-09-27T08:47:03.000Z</time>
      </trkpt>
      <trkpt lat="40.47665" lon="19.97737">
        <ele>850.90002441406</ele>
        <time>2024-09-27T08:47:09.000Z</time>
      </trkpt>
      <trkpt lat="40.47619" lon="19.97755">
        <ele>846.58001708984</ele>
        <time>2024-09-27T08:47:12.000Z</time>
      </trkpt>
      <trkpt lat="40.47616" lon="19.97756">
        <ele>846.58001708984</ele>
        <time>2024-09-27T08:47:13.000Z</time>
      </trkpt>
      <trkpt lat="40.47606" lon="19.97762">
        <ele>845.61999511719</ele>
        <time>2024-09-27T08:47:14.000Z</time>
      </trkpt>
      <trkpt lat="40.47599" lon="19.97769">
        <ele>845.14001464844</ele>
        <time>2024-09-27T08:47:15.000Z</time>
      </trkpt>
      <trkpt lat="40.47592" lon="19.97778">
        <ele>844.17999267578</ele>
        <time>2024-09-27T08:47:16.000Z</time>
      </trkpt>
      <trkpt lat="40.47581" lon="19.97795">
        <ele>842.72998046875</ele>
        <time>2024-09-27T08:47:17.000Z</time>
      </trkpt>
      <trkpt lat="40.47577" lon="19.97803">
        <ele>842.25</ele>
        <time>2024-09-27T08:47:18.000Z</time>
      </trkpt>
      <trkpt lat="40.47571" lon="19.97816">
        <ele>840.80999755859</ele>
        <time>2024-09-27T08:47:19.000Z</time>
      </trkpt>
      <trkpt lat="40.47565" lon="19.97837">
        <ele>839.84997558594</ele>
        <time>2024-09-27T08:47:20.000Z</time>
      </trkpt>
      <trkpt lat="40.47562" lon="19.97852">
        <ele>838.89001464844</ele>
        <time>2024-09-27T08:47:21.000Z</time>
      </trkpt>
      <trkpt lat="40.47556" lon="19.9787">
        <ele>837.92999267578</ele>
        <time>2024-09-27T08:47:22.000Z</time>
      </trkpt>
      <trkpt lat="40.47553" lon="19.97877">
        <ele>837.92999267578</ele>
        <time>2024-09-27T08:47:23.000Z</time>
      </trkpt>
      <trkpt lat="40.47548" lon="19.97887">
        <ele>836.96002197266</ele>
        <time>2024-09-27T08:47:24.000Z</time>
      </trkpt>
      <trkpt lat="40.47542" lon="19.97897">
        <ele>836.47998046875</ele>
        <time>2024-09-27T08:47:25.000Z</time>
      </trkpt>
      <trkpt lat="40.47535" lon="19.97905">
        <ele>835.52001953125</ele>
        <time>2024-09-27T08:47:26.000Z</time>
      </trkpt>
      <trkpt lat="40.47526" lon="19.97914">
        <ele>834.08001708984</ele>
        <time>2024-09-27T08:47:27.000Z</time>
      </trkpt>
      <trkpt lat="40.47445" lon="19.97995">
        <ele>823.98999023438</ele>
        <time>2024-09-27T08:47:36.000Z</time>
      </trkpt>
      <trkpt lat="40.47422" lon="19.98021">
        <ele>822.54998779297</ele>
        <time>2024-09-27T08:47:38.000Z</time>
      </trkpt>
      <trkpt lat="40.47418" lon="19.98026">
        <ele>822.54998779297</ele>
        <time>2024-09-27T08:47:39.000Z</time>
      </trkpt>
      <trkpt lat="40.47409" lon="19.98036">
        <ele>822.54998779297</ele>
        <time>2024-09-27T08:47:40.000Z</time>
      </trkpt>
      <trkpt lat="40.47399" lon="19.98044">
        <ele>822.54998779297</ele>
        <time>2024-09-27T08:47:41.000Z</time>
      </trkpt>
      <trkpt lat="40.47386" lon="19.98053">
        <ele>823.03002929688</ele>
        <time>2024-09-27T08:47:42.000Z</time>
      </trkpt>
      <trkpt lat="40.47379" lon="19.98058">
        <ele>823.03002929688</ele>
        <time>2024-09-27T08:47:43.000Z</time>
      </trkpt>
      <trkpt lat="40.47336" lon="19.98077">
        <ele>825.90997314453</ele>
        <time>2024-09-27T08:47:47.000Z</time>
      </trkpt>
      <trkpt lat="40.47329" lon="19.98081">
        <ele>826.39001464844</ele>
        <time>2024-09-27T08:47:48.000Z</time>
      </trkpt>
      <trkpt lat="40.47299" lon="19.98102">
        <ele>828.78997802734</ele>
        <time>2024-09-27T08:47:52.000Z</time>
      </trkpt>
      <trkpt lat="40.47293" lon="19.98106">
        <ele>829.27001953125</ele>
        <time>2024-09-27T08:47:53.000Z</time>
      </trkpt>
      <trkpt lat="40.47286" lon="19.98112">
        <ele>829.76000976562</ele>
        <time>2024-09-27T08:47:54.000Z</time>
      </trkpt>
      <trkpt lat="40.47281" lon="19.98116">
        <ele>830.23999023438</ele>
        <time>2024-09-27T08:47:55.000Z</time>
      </trkpt>
      <trkpt lat="40.47276" lon="19.98117">
        <ele>830.23999023438</ele>
        <time>2024-09-27T08:47:56.000Z</time>
      </trkpt>
      <trkpt lat="40.4727" lon="19.98119">
        <ele>831.20001220703</ele>
        <time>2024-09-27T08:47:57.000Z</time>
      </trkpt>
      <trkpt lat="40.47265" lon="19.98122">
        <ele>831.67999267578</ele>
        <time>2024-09-27T08:47:58.000Z</time>
      </trkpt>
      <trkpt lat="40.47261" lon="19.98127">
        <ele>832.15997314453</ele>
        <time>2024-09-27T08:47:59.000Z</time>
      </trkpt>
      <trkpt lat="40.47255" lon="19.98134">
        <ele>833.11999511719</ele>
        <time>2024-09-27T08:48:00.000Z</time>
      </trkpt>
      <trkpt lat="40.47243" lon="19.98147">
        <ele>834.55999755859</ele>
        <time>2024-09-27T08:48:02.000Z</time>
      </trkpt>
      <trkpt lat="40.47237" lon="19.98154">
        <ele>835.52001953125</ele>
        <time>2024-09-27T08:48:03.000Z</time>
      </trkpt>
      <trkpt lat="40.47235" lon="19.98156">
        <ele>836</ele>
        <time>2024-09-27T08:48:04.000Z</time>
      </trkpt>
      <trkpt lat="40.47233" lon="19.98159">
        <ele>836.47998046875</ele>
        <time>2024-09-27T08:48:05.000Z</time>
      </trkpt>
      <trkpt lat="40.47221" lon="19.98173">
        <ele>837.92999267578</ele>
        <time>2024-09-27T08:48:13.000Z</time>
      </trkpt>
      <trkpt lat="40.47215" lon="19.9818">
        <ele>838.40997314453</ele>
        <time>2024-09-27T08:48:19.000Z</time>
      </trkpt>
      <trkpt lat="40.4721" lon="19.98186">
        <ele>838.40997314453</ele>
        <time>2024-09-27T08:48:23.000Z</time>
      </trkpt>
      <trkpt lat="40.47207" lon="19.9819">
        <ele>838.40997314453</ele>
        <time>2024-09-27T08:48:24.000Z</time>
      </trkpt>
      <trkpt lat="40.47204" lon="19.98194">
        <ele>838.40997314453</ele>
        <time>2024-09-27T08:48:25.000Z</time>
      </trkpt>
      <trkpt lat="40.472" lon="19.98199">
        <ele>838.40997314453</ele>
        <time>2024-09-27T08:48:26.000Z</time>
      </trkpt>
      <trkpt lat="40.47197" lon="19.98203">
        <ele>837.92999267578</ele>
        <time>2024-09-27T08:48:27.000Z</time>
      </trkpt>
      <trkpt lat="40.47191" lon="19.98211">
        <ele>837.45001220703</ele>
        <time>2024-09-27T08:48:28.000Z</time>
      </trkpt>
      <trkpt lat="40.47188" lon="19.98215">
        <ele>837.92999267578</ele>
        <time>2024-09-27T08:48:29.000Z</time>
      </trkpt>
      <trkpt lat="40.47182" lon="19.98222">
        <ele>837.92999267578</ele>
        <time>2024-09-27T08:48:30.000Z</time>
      </trkpt>
      <trkpt lat="40.47177" lon="19.98229">
        <ele>837.92999267578</ele>
        <time>2024-09-27T08:48:31.000Z</time>
      </trkpt>
      <trkpt lat="40.4717" lon="19.98235">
        <ele>837.45001220703</ele>
        <time>2024-09-27T08:48:32.000Z</time>
      </trkpt>
      <trkpt lat="40.47162" lon="19.98242">
        <ele>837.45001220703</ele>
        <time>2024-09-27T08:48:33.000Z</time>
      </trkpt>
      <trkpt lat="40.47159" lon="19.98244">
        <ele>836.96002197266</ele>
        <time>2024-09-27T08:48:34.000Z</time>
      </trkpt>
      <trkpt lat="40.47153" lon="19.98248">
        <ele>836.96002197266</ele>
        <time>2024-09-27T08:48:35.000Z</time>
      </trkpt>
      <trkpt lat="40.47142" lon="19.98254">
        <ele>836.47998046875</ele>
        <time>2024-09-27T08:48:36.000Z</time>
      </trkpt>
      <trkpt lat="40.47138" lon="19.98256">
        <ele>836.47998046875</ele>
        <time>2024-09-27T08:48:37.000Z</time>
      </trkpt>
      <trkpt lat="40.47132" lon="19.98262">
        <ele>836</ele>
        <time>2024-09-27T08:48:38.000Z</time>
      </trkpt>
      <trkpt lat="40.47127" lon="19.98271">
        <ele>835.52001953125</ele>
        <time>2024-09-27T08:48:39.000Z</time>
      </trkpt>
      <trkpt lat="40.47122" lon="19.98282">
        <ele>835.03997802734</ele>
        <time>2024-09-27T08:48:40.000Z</time>
      </trkpt>
      <trkpt lat="40.47118" lon="19.98295">
        <ele>834.55999755859</ele>
        <time>2024-09-27T08:48:41.000Z</time>
      </trkpt>
      <trkpt lat="40.47115" lon="19.98314">
        <ele>833.59997558594</ele>
        <time>2024-09-27T08:48:42.000Z</time>
      </trkpt>
      <trkpt lat="40.47113" lon="19.98322">
        <ele>833.59997558594</ele>
        <time>2024-09-27T08:48:43.000Z</time>
      </trkpt>
      <trkpt lat="40.4711" lon="19.98335">
        <ele>832.64001464844</ele>
        <time>2024-09-27T08:48:44.000Z</time>
      </trkpt>
      <trkpt lat="40.47106" lon="19.98346">
        <ele>832.15997314453</ele>
        <time>2024-09-27T08:48:45.000Z</time>
      </trkpt>
      <trkpt lat="40.47099" lon="19.98357">
        <ele>832.15997314453</ele>
        <time>2024-09-27T08:48:46.000Z</time>
      </trkpt>
      <trkpt lat="40.47086" lon="19.98375">
        <ele>831.67999267578</ele>
        <time>2024-09-27T08:48:48.000Z</time>
      </trkpt>
      <trkpt lat="40.47083" lon="19.98377">
        <ele>831.67999267578</ele>
        <time>2024-09-27T08:48:49.000Z</time>
      </trkpt>
      <trkpt lat="40.47073" lon="19.98387">
        <ele>831.67999267578</ele>
        <time>2024-09-27T08:48:50.000Z</time>
      </trkpt>
      <trkpt lat="40.47068" lon="19.98391">
        <ele>831.20001220703</ele>
        <time>2024-09-27T08:48:51.000Z</time>
      </trkpt>
      <trkpt lat="40.47061" lon="19.98399">
        <ele>831.20001220703</ele>
        <time>2024-09-27T08:48:52.000Z</time>
      </trkpt>
      <trkpt lat="40.47053" lon="19.9841">
        <ele>831.20001220703</ele>
        <time>2024-09-27T08:48:53.000Z</time>
      </trkpt>
      <trkpt lat="40.47048" lon="19.9842">
        <ele>830.71997070312</ele>
        <time>2024-09-27T08:48:54.000Z</time>
      </trkpt>
      <trkpt lat="40.47038" lon="19.98441">
        <ele>829.76000976562</ele>
        <time>2024-09-27T08:48:55.000Z</time>
      </trkpt>
      <trkpt lat="40.47037" lon="19.98443">
        <ele>829.76000976562</ele>
        <time>2024-09-27T08:48:56.000Z</time>
      </trkpt>
      <trkpt lat="40.47033" lon="19.98454">
        <ele>829.76000976562</ele>
        <time>2024-09-27T08:48:57.000Z</time>
      </trkpt>
      <trkpt lat="40.47031" lon="19.98463">
        <ele>829.27001953125</ele>
        <time>2024-09-27T08:48:58.000Z</time>
      </trkpt>
      <trkpt lat="40.47029" lon="19.98475">
        <ele>829.27001953125</ele>
        <time>2024-09-27T08:48:59.000Z</time>
      </trkpt>
      <trkpt lat="40.47028" lon="19.98481">
        <ele>828.78997802734</ele>
        <time>2024-09-27T08:49:00.000Z</time>
      </trkpt>
      <trkpt lat="40.47029" lon="19.9849">
        <ele>829.27001953125</ele>
        <time>2024-09-27T08:49:01.000Z</time>
      </trkpt>
      <trkpt lat="40.47032" lon="19.98501">
        <ele>828.78997802734</ele>
        <time>2024-09-27T08:49:02.000Z</time>
      </trkpt>
      <trkpt lat="40.47034" lon="19.98509">
        <ele>828.78997802734</ele>
        <time>2024-09-27T08:49:03.000Z</time>
      </trkpt>
      <trkpt lat="40.47037" lon="19.98519">
        <ele>828.30999755859</ele>
        <time>2024-09-27T08:49:04.000Z</time>
      </trkpt>
      <trkpt lat="40.47038" lon="19.98527">
        <ele>828.30999755859</ele>
        <time>2024-09-27T08:49:05.000Z</time>
      </trkpt>
      <trkpt lat="40.47038" lon="19.98535">
        <ele>827.83001708984</ele>
        <time>2024-09-27T08:49:06.000Z</time>
      </trkpt>
      <trkpt lat="40.47036" lon="19.98544">
        <ele>827.34997558594</ele>
        <time>2024-09-27T08:49:07.000Z</time>
      </trkpt>
      <trkpt lat="40.47034" lon="19.98553">
        <ele>826.86999511719</ele>
        <time>2024-09-27T08:49:08.000Z</time>
      </trkpt>
      <trkpt lat="40.47012" lon="19.98606">
        <ele>826.86999511719</ele>
        <time>2024-09-27T08:49:13.000Z</time>
      </trkpt>
      <trkpt lat="40.47008" lon="19.98615">
        <ele>826.86999511719</ele>
        <time>2024-09-27T08:49:14.000Z</time>
      </trkpt>
      <trkpt lat="40.47002" lon="19.98626">
        <ele>826.86999511719</ele>
        <time>2024-09-27T08:49:15.000Z</time>
      </trkpt>
      <trkpt lat="40.46993" lon="19.98636">
        <ele>826.39001464844</ele>
        <time>2024-09-27T08:49:16.000Z</time>
      </trkpt>
      <trkpt lat="40.46981" lon="19.9865">
        <ele>826.39001464844</ele>
        <time>2024-09-27T08:49:17.000Z</time>
      </trkpt>
      <trkpt lat="40.46974" lon="19.98657">
        <ele>826.39001464844</ele>
        <time>2024-09-27T08:49:18.000Z</time>
      </trkpt>
      <trkpt lat="40.46969" lon="19.98663">
        <ele>826.39001464844</ele>
        <time>2024-09-27T08:49:19.000Z</time>
      </trkpt>
      <trkpt lat="40.4696" lon="19.98676">
        <ele>825.90997314453</ele>
        <time>2024-09-27T08:49:20.000Z</time>
      </trkpt>
      <trkpt lat="40.46953" lon="19.98686">
        <ele>825.42999267578</ele>
        <time>2024-09-27T08:49:21.000Z</time>
      </trkpt>
      <trkpt lat="40.46943" lon="19.98699">
        <ele>825.42999267578</ele>
        <time>2024-09-27T08:49:22.000Z</time>
      </trkpt>
      <trkpt lat="40.46935" lon="19.98708">
        <ele>825.42999267578</ele>
        <time>2024-09-27T08:49:23.000Z</time>
      </trkpt>
      <trkpt lat="40.46888" lon="19.98774">
        <ele>822.54998779297</ele>
        <time>2024-09-27T08:49:29.000Z</time>
      </trkpt>
      <trkpt lat="40.46858" lon="19.98818">
        <ele>821.09997558594</ele>
        <time>2024-09-27T08:49:33.000Z</time>
      </trkpt>
      <trkpt lat="40.4685" lon="19.98831">
        <ele>820.61999511719</ele>
        <time>2024-09-27T08:49:34.000Z</time>
      </trkpt>
      <trkpt lat="40.46843" lon="19.98841">
        <ele>820.61999511719</ele>
        <time>2024-09-27T08:49:35.000Z</time>
      </trkpt>
      <trkpt lat="40.46836" lon="19.98853">
        <ele>820.61999511719</ele>
        <time>2024-09-27T08:49:36.000Z</time>
      </trkpt>
      <trkpt lat="40.46829" lon="19.98864">
        <ele>820.14001464844</ele>
        <time>2024-09-27T08:49:37.000Z</time>
      </trkpt>
      <trkpt lat="40.4681" lon="19.98886">
        <ele>820.14001464844</ele>
        <time>2024-09-27T08:49:39.000Z</time>
      </trkpt>
      <trkpt lat="40.46803" lon="19.98895">
        <ele>820.14001464844</ele>
        <time>2024-09-27T08:49:40.000Z</time>
      </trkpt>
      <trkpt lat="40.46782" lon="19.98927">
        <ele>819.65997314453</ele>
        <time>2024-09-27T08:49:42.000Z</time>
      </trkpt>
      <trkpt lat="40.46775" lon="19.98937">
        <ele>819.65997314453</ele>
        <time>2024-09-27T08:49:43.000Z</time>
      </trkpt>
      <trkpt lat="40.46768" lon="19.98947">
        <ele>819.17999267578</ele>
        <time>2024-09-27T08:49:44.000Z</time>
      </trkpt>
      <trkpt lat="40.4669" lon="19.99055">
        <ele>814.84997558594</ele>
        <time>2024-09-27T08:49:53.000Z</time>
      </trkpt>
      <trkpt lat="40.46673" lon="19.99079">
        <ele>813.89001464844</ele>
        <time>2024-09-27T08:49:55.000Z</time>
      </trkpt>
      <trkpt lat="40.46667" lon="19.99088">
        <ele>813.40997314453</ele>
        <time>2024-09-27T08:49:56.000Z</time>
      </trkpt>
      <trkpt lat="40.46661" lon="19.99102">
        <ele>812.92999267578</ele>
        <time>2024-09-27T08:49:57.000Z</time>
      </trkpt>
      <trkpt lat="40.46657" lon="19.99114">
        <ele>812.92999267578</ele>
        <time>2024-09-27T08:49:58.000Z</time>
      </trkpt>
      <trkpt lat="40.46653" lon="19.99132">
        <ele>812.92999267578</ele>
        <time>2024-09-27T08:49:59.000Z</time>
      </trkpt>
      <trkpt lat="40.46648" lon="19.99147">
        <ele>813.40997314453</ele>
        <time>2024-09-27T08:50:00.000Z</time>
      </trkpt>
      <trkpt lat="40.46641" lon="19.9916">
        <ele>813.40997314453</ele>
        <time>2024-09-27T08:50:01.000Z</time>
      </trkpt>
      <trkpt lat="40.46633" lon="19.9917">
        <ele>813.89001464844</ele>
        <time>2024-09-27T08:50:02.000Z</time>
      </trkpt>
      <trkpt lat="40.46623" lon="19.99179">
        <ele>814.84997558594</ele>
        <time>2024-09-27T08:50:03.000Z</time>
      </trkpt>
      <trkpt lat="40.46614" lon="19.99186">
        <ele>815.34002685547</ele>
        <time>2024-09-27T08:50:04.000Z</time>
      </trkpt>
      <trkpt lat="40.46604" lon="19.99195">
        <ele>816.29998779297</ele>
        <time>2024-09-27T08:50:05.000Z</time>
      </trkpt>
      <trkpt lat="40.46596" lon="19.99207">
        <ele>817.26000976562</ele>
        <time>2024-09-27T08:50:06.000Z</time>
      </trkpt>
      <trkpt lat="40.46587" lon="19.99225">
        <ele>818.70001220703</ele>
        <time>2024-09-27T08:50:07.000Z</time>
      </trkpt>
      <trkpt lat="40.46556" lon="19.99299">
        <ele>825.90997314453</ele>
        <time>2024-09-27T08:50:12.000Z</time>
      </trkpt>
      <trkpt lat="40.46553" lon="19.99307">
        <ele>826.39001464844</ele>
        <time>2024-09-27T08:50:13.000Z</time>
      </trkpt>
      <trkpt lat="40.46546" lon="19.99318">
        <ele>827.83001708984</ele>
        <time>2024-09-27T08:50:14.000Z</time>
      </trkpt>
      <trkpt lat="40.46537" lon="19.99327">
        <ele>828.78997802734</ele>
        <time>2024-09-27T08:50:15.000Z</time>
      </trkpt>
      <trkpt lat="40.46527" lon="19.99333">
        <ele>829.76000976562</ele>
        <time>2024-09-27T08:50:16.000Z</time>
      </trkpt>
      <trkpt lat="40.46518" lon="19.99337">
        <ele>830.71997070312</ele>
        <time>2024-09-27T08:50:17.000Z</time>
      </trkpt>
      <trkpt lat="40.465" lon="19.99342">
        <ele>832.64001464844</ele>
        <time>2024-09-27T08:50:18.000Z</time>
      </trkpt>
      <trkpt lat="40.46494" lon="19.99344">
        <ele>833.11999511719</ele>
        <time>2024-09-27T08:50:19.000Z</time>
      </trkpt>
      <trkpt lat="40.46487" lon="19.99347">
        <ele>834.08001708984</ele>
        <time>2024-09-27T08:50:20.000Z</time>
      </trkpt>
      <trkpt lat="40.46477" lon="19.99353">
        <ele>835.52001953125</ele>
        <time>2024-09-27T08:50:21.000Z</time>
      </trkpt>
      <trkpt lat="40.46466" lon="19.99362">
        <ele>836.47998046875</ele>
        <time>2024-09-27T08:50:22.000Z</time>
      </trkpt>
      <trkpt lat="40.46432" lon="19.99395">
        <ele>836.96002197266</ele>
        <time>2024-09-27T08:50:25.000Z</time>
      </trkpt>
      <trkpt lat="40.46424" lon="19.99401">
        <ele>836.96002197266</ele>
        <time>2024-09-27T08:50:26.000Z</time>
      </trkpt>
      <trkpt lat="40.46402" lon="19.9942">
        <ele>838.40997314453</ele>
        <time>2024-09-27T08:50:28.000Z</time>
      </trkpt>
      <trkpt lat="40.46391" lon="19.9943">
        <ele>839.36999511719</ele>
        <time>2024-09-27T08:50:29.000Z</time>
      </trkpt>
      <trkpt lat="40.46384" lon="19.99437">
        <ele>839.84997558594</ele>
        <time>2024-09-27T08:50:30.000Z</time>
      </trkpt>
      <trkpt lat="40.46371" lon="19.99452">
        <ele>840.80999755859</ele>
        <time>2024-09-27T08:50:31.000Z</time>
      </trkpt>
      <trkpt lat="40.46367" lon="19.99457">
        <ele>840.80999755859</ele>
        <time>2024-09-27T08:50:32.000Z</time>
      </trkpt>
      <trkpt lat="40.46362" lon="19.99466">
        <ele>840.80999755859</ele>
        <time>2024-09-27T08:50:33.000Z</time>
      </trkpt>
      <trkpt lat="40.46357" lon="19.99478">
        <ele>841.28997802734</ele>
        <time>2024-09-27T08:50:34.000Z</time>
      </trkpt>
      <trkpt lat="40.46355" lon="19.99491">
        <ele>841.28997802734</ele>
        <time>2024-09-27T08:50:35.000Z</time>
      </trkpt>
      <trkpt lat="40.46353" lon="19.99507">
        <ele>841.77001953125</ele>
        <time>2024-09-27T08:50:36.000Z</time>
      </trkpt>
      <trkpt lat="40.46353" lon="19.99524">
        <ele>841.77001953125</ele>
        <time>2024-09-27T08:50:37.000Z</time>
      </trkpt>
      <trkpt lat="40.46352" lon="19.99542">
        <ele>841.77001953125</ele>
        <time>2024-09-27T08:50:38.000Z</time>
      </trkpt>
      <trkpt lat="40.46349" lon="19.99558">
        <ele>841.77001953125</ele>
        <time>2024-09-27T08:50:39.000Z</time>
      </trkpt>
      <trkpt lat="40.46344" lon="19.99573">
        <ele>841.28997802734</ele>
        <time>2024-09-27T08:50:40.000Z</time>
      </trkpt>
      <trkpt lat="40.46336" lon="19.99589">
        <ele>841.28997802734</ele>
        <time>2024-09-27T08:50:41.000Z</time>
      </trkpt>
      <trkpt lat="40.46321" lon="19.99611">
        <ele>840.80999755859</ele>
        <time>2024-09-27T08:50:42.000Z</time>
      </trkpt>
      <trkpt lat="40.46298" lon="19.99638">
        <ele>840.33001708984</ele>
        <time>2024-09-27T08:50:44.000Z</time>
      </trkpt>
      <trkpt lat="40.46293" lon="19.99645">
        <ele>840.33001708984</ele>
        <time>2024-09-27T08:50:45.000Z</time>
      </trkpt>
      <trkpt lat="40.4628" lon="19.99661">
        <ele>839.84997558594</ele>
        <time>2024-09-27T08:50:46.000Z</time>
      </trkpt>
      <trkpt lat="40.46264" lon="19.99686">
        <ele>838.89001464844</ele>
        <time>2024-09-27T08:50:48.000Z</time>
      </trkpt>
      <trkpt lat="40.46248" lon="19.99711">
        <ele>837.92999267578</ele>
        <time>2024-09-27T08:50:50.000Z</time>
      </trkpt>
      <trkpt lat="40.46238" lon="19.99725">
        <ele>837.45001220703</ele>
        <time>2024-09-27T08:50:51.000Z</time>
      </trkpt>
      <trkpt lat="40.46228" lon="19.99737">
        <ele>837.45001220703</ele>
        <time>2024-09-27T08:50:52.000Z</time>
      </trkpt>
      <trkpt lat="40.46217" lon="19.99747">
        <ele>837.45001220703</ele>
        <time>2024-09-27T08:50:53.000Z</time>
      </trkpt>
      <trkpt lat="40.46207" lon="19.99754">
        <ele>836.96002197266</ele>
        <time>2024-09-27T08:50:54.000Z</time>
      </trkpt>
      <trkpt lat="40.46195" lon="19.99762">
        <ele>836.47998046875</ele>
        <time>2024-09-27T08:50:55.000Z</time>
      </trkpt>
      <trkpt lat="40.46182" lon="19.99767">
        <ele>836</ele>
        <time>2024-09-27T08:50:56.000Z</time>
      </trkpt>
      <trkpt lat="40.46169" lon="19.99772">
        <ele>835.52001953125</ele>
        <time>2024-09-27T08:50:57.000Z</time>
      </trkpt>
      <trkpt lat="40.46156" lon="19.99774">
        <ele>835.03997802734</ele>
        <time>2024-09-27T08:50:58.000Z</time>
      </trkpt>
      <trkpt lat="40.46111" lon="19.99778">
        <ele>832.15997314453</ele>
        <time>2024-09-27T08:51:01.000Z</time>
      </trkpt>
      <trkpt lat="40.46097" lon="19.99781">
        <ele>831.20001220703</ele>
        <time>2024-09-27T08:51:02.000Z</time>
      </trkpt>
      <trkpt lat="40.46063" lon="19.99793">
        <ele>828.78997802734</ele>
        <time>2024-09-27T08:51:04.000Z</time>
      </trkpt>
      <trkpt lat="40.45991" lon="19.99814">
        <ele>828.30999755859</ele>
        <time>2024-09-27T08:51:09.000Z</time>
      </trkpt>
      <trkpt lat="40.45981" lon="19.99819">
        <ele>828.78997802734</ele>
        <time>2024-09-27T08:51:10.000Z</time>
      </trkpt>
      <trkpt lat="40.45971" lon="19.99825">
        <ele>829.27001953125</ele>
        <time>2024-09-27T08:51:11.000Z</time>
      </trkpt>
      <trkpt lat="40.45965" lon="19.99831">
        <ele>830.23999023438</ele>
        <time>2024-09-27T08:51:12.000Z</time>
      </trkpt>
      <trkpt lat="40.45961" lon="19.9984">
        <ele>831.20001220703</ele>
        <time>2024-09-27T08:51:13.000Z</time>
      </trkpt>
      <trkpt lat="40.45958" lon="19.99851">
        <ele>832.15997314453</ele>
        <time>2024-09-27T08:51:14.000Z</time>
      </trkpt>
      <trkpt lat="40.45957" lon="19.99862">
        <ele>833.11999511719</ele>
        <time>2024-09-27T08:51:15.000Z</time>
      </trkpt>
      <trkpt lat="40.45959" lon="19.99874">
        <ele>834.08001708984</ele>
        <time>2024-09-27T08:51:16.000Z</time>
      </trkpt>
      <trkpt lat="40.45963" lon="19.99891">
        <ele>835.03997802734</ele>
        <time>2024-09-27T08:51:17.000Z</time>
      </trkpt>
      <trkpt lat="40.45965" lon="19.99902">
        <ele>835.52001953125</ele>
        <time>2024-09-27T08:51:18.000Z</time>
      </trkpt>
      <trkpt lat="40.45966" lon="19.99915">
        <ele>836.47998046875</ele>
        <time>2024-09-27T08:51:19.000Z</time>
      </trkpt>
      <trkpt lat="40.45965" lon="19.99926">
        <ele>837.45001220703</ele>
        <time>2024-09-27T08:51:20.000Z</time>
      </trkpt>
      <trkpt lat="40.45962" lon="19.99937">
        <ele>838.40997314453</ele>
        <time>2024-09-27T08:51:21.000Z</time>
      </trkpt>
      <trkpt lat="40.45956" lon="19.99947">
        <ele>839.36999511719</ele>
        <time>2024-09-27T08:51:22.000Z</time>
      </trkpt>
      <trkpt lat="40.45949" lon="19.99956">
        <ele>839.84997558594</ele>
        <time>2024-09-27T08:51:23.000Z</time>
      </trkpt>
      <trkpt lat="40.45938" lon="19.99967">
        <ele>841.77001953125</ele>
        <time>2024-09-27T08:51:24.000Z</time>
      </trkpt>
      <trkpt lat="40.45914" lon="19.99987">
        <ele>843.69000244141</ele>
        <time>2024-09-27T08:51:26.000Z</time>
      </trkpt>
      <trkpt lat="40.45904" lon="19.99994">
        <ele>844.65997314453</ele>
        <time>2024-09-27T08:51:27.000Z</time>
      </trkpt>
      <trkpt lat="40.45893" lon="19.99999">
        <ele>845.61999511719</ele>
        <time>2024-09-27T08:51:28.000Z</time>
      </trkpt>
      <trkpt lat="40.4588" lon="20">
        <ele>846.09997558594</ele>
        <time>2024-09-27T08:51:29.000Z</time>
      </trkpt>
      <trkpt lat="40.45868" lon="20">
        <ele>846.58001708984</ele>
        <time>2024-09-27T08:51:30.000Z</time>
      </trkpt>
      <trkpt lat="40.45858" lon="20.00002">
        <ele>847.05999755859</ele>
        <time>2024-09-27T08:51:31.000Z</time>
      </trkpt>
      <trkpt lat="40.45848" lon="20.00005">
        <ele>848.02001953125</ele>
        <time>2024-09-27T08:51:32.000Z</time>
      </trkpt>
      <trkpt lat="40.45839" lon="20.00012">
        <ele>848.97998046875</ele>
        <time>2024-09-27T08:51:33.000Z</time>
      </trkpt>
      <trkpt lat="40.4583" lon="20.00022">
        <ele>849.94000244141</ele>
        <time>2024-09-27T08:51:34.000Z</time>
      </trkpt>
      <trkpt lat="40.45818" lon="20.00036">
        <ele>850.90002441406</ele>
        <time>2024-09-27T08:51:35.000Z</time>
      </trkpt>
      <trkpt lat="40.45811" lon="20.00044">
        <ele>851.38000488281</ele>
        <time>2024-09-27T08:51:36.000Z</time>
      </trkpt>
      <trkpt lat="40.45801" lon="20.00051">
        <ele>851.86999511719</ele>
        <time>2024-09-27T08:51:37.000Z</time>
      </trkpt>
      <trkpt lat="40.45789" lon="20.00055">
        <ele>851.86999511719</ele>
        <time>2024-09-27T08:51:38.000Z</time>
      </trkpt>
      <trkpt lat="40.45778" lon="20.00056">
        <ele>852.34997558594</ele>
        <time>2024-09-27T08:51:39.000Z</time>
      </trkpt>
      <trkpt lat="40.45766" lon="20.00055">
        <ele>852.83001708984</ele>
        <time>2024-09-27T08:51:40.000Z</time>
      </trkpt>
      <trkpt lat="40.4574" lon="20.00049">
        <ele>853.30999755859</ele>
        <time>2024-09-27T08:51:42.000Z</time>
      </trkpt>
      <trkpt lat="40.45724" lon="20.00046">
        <ele>852.83001708984</ele>
        <time>2024-09-27T08:51:43.000Z</time>
      </trkpt>
      <trkpt lat="40.45711" lon="20.00045">
        <ele>852.83001708984</ele>
        <time>2024-09-27T08:51:44.000Z</time>
      </trkpt>
      <trkpt lat="40.45701" lon="20.00045">
        <ele>852.34997558594</ele>
        <time>2024-09-27T08:51:45.000Z</time>
      </trkpt>
      <trkpt lat="40.45637" lon="20.00054">
        <ele>849.46002197266</ele>
        <time>2024-09-27T08:51:49.000Z</time>
      </trkpt>
      <trkpt lat="40.45629" lon="20.00057">
        <ele>848.97998046875</ele>
        <time>2024-09-27T08:51:50.000Z</time>
      </trkpt>
      <trkpt lat="40.45616" lon="20.00062">
        <ele>848.02001953125</ele>
        <time>2024-09-27T08:51:51.000Z</time>
      </trkpt>
      <trkpt lat="40.45601" lon="20.0007">
        <ele>846.58001708984</ele>
        <time>2024-09-27T08:51:52.000Z</time>
      </trkpt>
      <trkpt lat="40.45587" lon="20.00079">
        <ele>845.61999511719</ele>
        <time>2024-09-27T08:51:53.000Z</time>
      </trkpt>
      <trkpt lat="40.45582" lon="20.00082">
        <ele>845.14001464844</ele>
        <time>2024-09-27T08:51:54.000Z</time>
      </trkpt>
      <trkpt lat="40.45572" lon="20.00085">
        <ele>844.65997314453</ele>
        <time>2024-09-27T08:51:55.000Z</time>
      </trkpt>
      <trkpt lat="40.45562" lon="20.00086">
        <ele>843.69000244141</ele>
        <time>2024-09-27T08:51:56.000Z</time>
      </trkpt>
      <trkpt lat="40.45553" lon="20.00084">
        <ele>843.21002197266</ele>
        <time>2024-09-27T08:51:57.000Z</time>
      </trkpt>
      <trkpt lat="40.45544" lon="20.0008">
        <ele>842.25</ele>
        <time>2024-09-27T08:51:58.000Z</time>
      </trkpt>
      <trkpt lat="40.45537" lon="20.00074">
        <ele>841.77001953125</ele>
        <time>2024-09-27T08:51:59.000Z</time>
      </trkpt>
      <trkpt lat="40.45527" lon="20.00063">
        <ele>840.80999755859</ele>
        <time>2024-09-27T08:52:00.000Z</time>
      </trkpt>
      <trkpt lat="40.45516" lon="20.0005">
        <ele>839.36999511719</ele>
        <time>2024-09-27T08:52:01.000Z</time>
      </trkpt>
      <trkpt lat="40.45512" lon="20.00047">
        <ele>838.89001464844</ele>
        <time>2024-09-27T08:52:02.000Z</time>
      </trkpt>
      <trkpt lat="40.45504" lon="20.0004">
        <ele>838.40997314453</ele>
        <time>2024-09-27T08:52:03.000Z</time>
      </trkpt>
      <trkpt lat="40.45495" lon="20.00036">
        <ele>837.92999267578</ele>
        <time>2024-09-27T08:52:04.000Z</time>
      </trkpt>
      <trkpt lat="40.45487" lon="20.00034">
        <ele>837.45001220703</ele>
        <time>2024-09-27T08:52:05.000Z</time>
      </trkpt>
      <trkpt lat="40.45479" lon="20.00034">
        <ele>836.96002197266</ele>
        <time>2024-09-27T08:52:06.000Z</time>
      </trkpt>
      <trkpt lat="40.4547" lon="20.00038">
        <ele>836</ele>
        <time>2024-09-27T08:52:07.000Z</time>
      </trkpt>
      <trkpt lat="40.45461" lon="20.00044">
        <ele>835.03997802734</ele>
        <time>2024-09-27T08:52:08.000Z</time>
      </trkpt>
      <trkpt lat="40.45448" lon="20.00059">
        <ele>833.59997558594</ele>
        <time>2024-09-27T08:52:09.000Z</time>
      </trkpt>
      <trkpt lat="40.45444" lon="20.00064">
        <ele>833.11999511719</ele>
        <time>2024-09-27T08:52:10.000Z</time>
      </trkpt>
      <trkpt lat="40.45434" lon="20.00073">
        <ele>832.15997314453</ele>
        <time>2024-09-27T08:52:11.000Z</time>
      </trkpt>
      <trkpt lat="40.45426" lon="20.00078">
        <ele>832.15997314453</ele>
        <time>2024-09-27T08:52:12.000Z</time>
      </trkpt>
      <trkpt lat="40.45414" lon="20.00083">
        <ele>831.67999267578</ele>
        <time>2024-09-27T08:52:13.000Z</time>
      </trkpt>
      <trkpt lat="40.45361" lon="20.00099">
        <ele>829.76000976562</ele>
        <time>2024-09-27T08:52:17.000Z</time>
      </trkpt>
      <trkpt lat="40.45352" lon="20.00101">
        <ele>829.27001953125</ele>
        <time>2024-09-27T08:52:18.000Z</time>
      </trkpt>
      <trkpt lat="40.45343" lon="20.00103">
        <ele>829.27001953125</ele>
        <time>2024-09-27T08:52:19.000Z</time>
      </trkpt>
      <trkpt lat="40.45333" lon="20.00103">
        <ele>828.78997802734</ele>
        <time>2024-09-27T08:52:20.000Z</time>
      </trkpt>
      <trkpt lat="40.45324" lon="20.00102">
        <ele>828.78997802734</ele>
        <time>2024-09-27T08:52:21.000Z</time>
      </trkpt>
      <trkpt lat="40.45312" lon="20.00098">
        <ele>828.30999755859</ele>
        <time>2024-09-27T08:52:22.000Z</time>
      </trkpt>
      <trkpt lat="40.45308" lon="20.00096">
        <ele>827.83001708984</ele>
        <time>2024-09-27T08:52:23.000Z</time>
      </trkpt>
      <trkpt lat="40.45301" lon="20.00095">
        <ele>827.34997558594</ele>
        <time>2024-09-27T08:52:24.000Z</time>
      </trkpt>
      <trkpt lat="40.45296" lon="20.00095">
        <ele>826.86999511719</ele>
        <time>2024-09-27T08:52:25.000Z</time>
      </trkpt>
      <trkpt lat="40.4529" lon="20.00096">
        <ele>825.90997314453</ele>
        <time>2024-09-27T08:52:26.000Z</time>
      </trkpt>
      <trkpt lat="40.45285" lon="20.00099">
        <ele>825.42999267578</ele>
        <time>2024-09-27T08:52:27.000Z</time>
      </trkpt>
      <trkpt lat="40.45281" lon="20.00104">
        <ele>824.95001220703</ele>
        <time>2024-09-27T08:52:28.000Z</time>
      </trkpt>
      <trkpt lat="40.45278" lon="20.00111">
        <ele>824.46997070312</ele>
        <time>2024-09-27T08:52:29.000Z</time>
      </trkpt>
      <trkpt lat="40.45277" lon="20.00121">
        <ele>824.46997070312</ele>
        <time>2024-09-27T08:52:30.000Z</time>
      </trkpt>
      <trkpt lat="40.45276" lon="20.00147">
        <ele>823.03002929688</ele>
        <time>2024-09-27T08:52:32.000Z</time>
      </trkpt>
      <trkpt lat="40.45275" lon="20.00159">
        <ele>822.54998779297</ele>
        <time>2024-09-27T08:52:33.000Z</time>
      </trkpt>
      <trkpt lat="40.45272" lon="20.00174">
        <ele>821.09997558594</ele>
        <time>2024-09-27T08:52:34.000Z</time>
      </trkpt>
      <trkpt lat="40.4527" lon="20.00182">
        <ele>820.14001464844</ele>
        <time>2024-09-27T08:52:35.000Z</time>
      </trkpt>
      <trkpt lat="40.45268" lon="20.00191">
        <ele>819.17999267578</ele>
        <time>2024-09-27T08:52:36.000Z</time>
      </trkpt>
      <trkpt lat="40.45264" lon="20.002">
        <ele>818.21997070312</ele>
        <time>2024-09-27T08:52:37.000Z</time>
      </trkpt>
      <trkpt lat="40.45258" lon="20.00207">
        <ele>817.26000976562</ele>
        <time>2024-09-27T08:52:38.000Z</time>
      </trkpt>
      <trkpt lat="40.45252" lon="20.00213">
        <ele>815.82000732422</ele>
        <time>2024-09-27T08:52:39.000Z</time>
      </trkpt>
      <trkpt lat="40.45244" lon="20.00216">
        <ele>813.89001464844</ele>
        <time>2024-09-27T08:52:40.000Z</time>
      </trkpt>
      <trkpt lat="40.45233" lon="20.00216">
        <ele>811.48999023438</ele>
        <time>2024-09-27T08:52:41.000Z</time>
      </trkpt>
      <trkpt lat="40.45224" lon="20.00216">
        <ele>809.57000732422</ele>
        <time>2024-09-27T08:52:42.000Z</time>
      </trkpt>
      <trkpt lat="40.45216" lon="20.00216">
        <ele>808.60998535156</ele>
        <time>2024-09-27T08:52:43.000Z</time>
      </trkpt>
      <trkpt lat="40.45204" lon="20.00218">
        <ele>807.64001464844</ele>
        <time>2024-09-27T08:52:44.000Z</time>
      </trkpt>
      <trkpt lat="40.45201" lon="20.00218">
        <ele>807.15997314453</ele>
        <time>2024-09-27T08:52:45.000Z</time>
      </trkpt>
      <trkpt lat="40.45196" lon="20.0022">
        <ele>806.67999267578</ele>
        <time>2024-09-27T08:52:46.000Z</time>
      </trkpt>
      <trkpt lat="40.4519" lon="20.00224">
        <ele>805.71997070312</ele>
        <time>2024-09-27T08:52:47.000Z</time>
      </trkpt>
      <trkpt lat="40.45181" lon="20.00233">
        <ele>803.32000732422</ele>
        <time>2024-09-27T08:52:48.000Z</time>
      </trkpt>
      <trkpt lat="40.45175" lon="20.00238">
        <ele>801.40002441406</ele>
        <time>2024-09-27T08:52:49.000Z</time>
      </trkpt>
      <trkpt lat="40.45168" lon="20.00243">
        <ele>799.95001220703</ele>
        <time>2024-09-27T08:52:50.000Z</time>
      </trkpt>
      <trkpt lat="40.4516" lon="20.00248">
        <ele>798.51000976562</ele>
        <time>2024-09-27T08:52:51.000Z</time>
      </trkpt>
      <trkpt lat="40.45153" lon="20.00251">
        <ele>796.59002685547</ele>
        <time>2024-09-27T08:52:52.000Z</time>
      </trkpt>
      <trkpt lat="40.45135" lon="20.00257">
        <ele>792.73999023438</ele>
        <time>2024-09-27T08:52:54.000Z</time>
      </trkpt>
      <trkpt lat="40.4513" lon="20.00258">
        <ele>792.26000976562</ele>
        <time>2024-09-27T08:52:55.000Z</time>
      </trkpt>
      <trkpt lat="40.45121" lon="20.0026">
        <ele>791.29998779297</ele>
        <time>2024-09-27T08:52:56.000Z</time>
      </trkpt>
      <trkpt lat="40.45091" lon="20.00267">
        <ele>789.85998535156</ele>
        <time>2024-09-27T08:52:58.000Z</time>
      </trkpt>
      <trkpt lat="40.45086" lon="20.00268">
        <ele>789.85998535156</ele>
        <time>2024-09-27T08:52:59.000Z</time>
      </trkpt>
      <trkpt lat="40.45067" lon="20.00275">
        <ele>789.85998535156</ele>
        <time>2024-09-27T08:53:01.000Z</time>
      </trkpt>
      <trkpt lat="40.45054" lon="20.00279">
        <ele>790.34002685547</ele>
        <time>2024-09-27T08:53:02.000Z</time>
      </trkpt>
      <trkpt lat="40.4504" lon="20.00281">
        <ele>790.34002685547</ele>
        <time>2024-09-27T08:53:03.000Z</time>
      </trkpt>
      <trkpt lat="40.45" lon="20.0028">
        <ele>792.26000976562</ele>
        <time>2024-09-27T08:53:06.000Z</time>
      </trkpt>
      <trkpt lat="40.44988" lon="20.0028">
        <ele>793.21997070312</ele>
        <time>2024-09-27T08:53:07.000Z</time>
      </trkpt>
      <trkpt lat="40.44986" lon="20.0028">
        <ele>793.21997070312</ele>
        <time>2024-09-27T08:53:08.000Z</time>
      </trkpt>
      <trkpt lat="40.4498" lon="20.00281">
        <ele>793.71002197266</ele>
        <time>2024-09-27T08:53:09.000Z</time>
      </trkpt>
      <trkpt lat="40.44974" lon="20.00285">
        <ele>794.19000244141</ele>
        <time>2024-09-27T08:53:10.000Z</time>
      </trkpt>
      <trkpt lat="40.4497" lon="20.00289">
        <ele>794.66998291016</ele>
        <time>2024-09-27T08:53:11.000Z</time>
      </trkpt>
      <trkpt lat="40.44965" lon="20.00298">
        <ele>794.66998291016</ele>
        <time>2024-09-27T08:53:12.000Z</time>
      </trkpt>
      <trkpt lat="40.44958" lon="20.00313">
        <ele>794.19000244141</ele>
        <time>2024-09-27T08:53:13.000Z</time>
      </trkpt>
      <trkpt lat="40.44921" lon="20.004">
        <ele>791.29998779297</ele>
        <time>2024-09-27T08:53:20.000Z</time>
      </trkpt>
      <trkpt lat="40.44914" lon="20.00414">
        <ele>790.82000732422</ele>
        <time>2024-09-27T08:53:21.000Z</time>
      </trkpt>
      <trkpt lat="40.44906" lon="20.00425">
        <ele>789.85998535156</ele>
        <time>2024-09-27T08:53:22.000Z</time>
      </trkpt>
      <trkpt lat="40.44833" lon="20.00503">
        <ele>785.53002929688</ele>
        <time>2024-09-27T08:53:31.000Z</time>
      </trkpt>
      <trkpt lat="40.44826" lon="20.0051">
        <ele>785.53002929688</ele>
        <time>2024-09-27T08:53:32.000Z</time>
      </trkpt>
      <trkpt lat="40.44822" lon="20.00514">
        <ele>785.04998779297</ele>
        <time>2024-09-27T08:53:33.000Z</time>
      </trkpt>
      <trkpt lat="40.44816" lon="20.0052">
        <ele>784.57000732422</ele>
        <time>2024-09-27T08:53:34.000Z</time>
      </trkpt>
      <trkpt lat="40.44812" lon="20.00524">
        <ele>784.57000732422</ele>
        <time>2024-09-27T08:53:35.000Z</time>
      </trkpt>
      <trkpt lat="40.44807" lon="20.00528">
        <ele>784.09002685547</ele>
        <time>2024-09-27T08:53:36.000Z</time>
      </trkpt>
      <trkpt lat="40.44789" lon="20.00543">
        <ele>784.09002685547</ele>
        <time>2024-09-27T08:53:45.000Z</time>
      </trkpt>
      <trkpt lat="40.44789" lon="20.00544">
        <ele>784.09002685547</ele>
        <time>2024-09-27T08:54:22.000Z</time>
      </trkpt>
      <trkpt lat="40.44786" lon="20.00544">
        <ele>786.5</ele>
        <time>2024-09-27T09:16:57.000Z</time>
      </trkpt>
      <trkpt lat="40.44785" lon="20.00548">
        <ele>786.5</ele>
        <time>2024-09-27T09:16:58.000Z</time>
      </trkpt>
      <trkpt lat="40.44784" lon="20.0055">
        <ele>786.5</ele>
        <time>2024-09-27T09:16:59.000Z</time>
      </trkpt>
      <trkpt lat="40.44781" lon="20.00555">
        <ele>786.5</ele>
        <time>2024-09-27T09:17:00.000Z</time>
      </trkpt>
      <trkpt lat="40.44777" lon="20.0056">
        <ele>786.02001953125</ele>
        <time>2024-09-27T09:17:01.000Z</time>
      </trkpt>
      <trkpt lat="40.44772" lon="20.00565">
        <ele>785.53002929688</ele>
        <time>2024-09-27T09:17:02.000Z</time>
      </trkpt>
      <trkpt lat="40.44767" lon="20.00569">
        <ele>785.04998779297</ele>
        <time>2024-09-27T09:17:03.000Z</time>
      </trkpt>
      <trkpt lat="40.4475" lon="20.00579">
        <ele>784.09002685547</ele>
        <time>2024-09-27T09:17:06.000Z</time>
      </trkpt>
      <trkpt lat="40.44735" lon="20.00587">
        <ele>782.65002441406</ele>
        <time>2024-09-27T09:17:08.000Z</time>
      </trkpt>
      <trkpt lat="40.44731" lon="20.00589">
        <ele>782.65002441406</ele>
        <time>2024-09-27T09:17:09.000Z</time>
      </trkpt>
      <trkpt lat="40.44724" lon="20.00595">
        <ele>781.69000244141</ele>
        <time>2024-09-27T09:17:10.000Z</time>
      </trkpt>
      <trkpt lat="40.44703" lon="20.00616">
        <ele>779.28997802734</ele>
        <time>2024-09-27T09:17:13.000Z</time>
      </trkpt>
      <trkpt lat="40.44696" lon="20.00622">
        <ele>778.80999755859</ele>
        <time>2024-09-27T09:17:14.000Z</time>
      </trkpt>
      <trkpt lat="40.44688" lon="20.00628">
        <ele>778.32000732422</ele>
        <time>2024-09-27T09:17:15.000Z</time>
      </trkpt>
      <trkpt lat="40.4468" lon="20.00631">
        <ele>777.84002685547</ele>
        <time>2024-09-27T09:17:16.000Z</time>
      </trkpt>
      <trkpt lat="40.4467" lon="20.00634">
        <ele>777.35998535156</ele>
        <time>2024-09-27T09:17:17.000Z</time>
      </trkpt>
      <trkpt lat="40.44637" lon="20.00638">
        <ele>776.88000488281</ele>
        <time>2024-09-27T09:17:20.000Z</time>
      </trkpt>
      <trkpt lat="40.44626" lon="20.00638">
        <ele>776.88000488281</ele>
        <time>2024-09-27T09:17:21.000Z</time>
      </trkpt>
      <trkpt lat="40.44621" lon="20.00638">
        <ele>776.88000488281</ele>
        <time>2024-09-27T09:17:22.000Z</time>
      </trkpt>
      <trkpt lat="40.44614" lon="20.00638">
        <ele>776.88000488281</ele>
        <time>2024-09-27T09:17:23.000Z</time>
      </trkpt>
      <trkpt lat="40.44604" lon="20.0064">
        <ele>776.40002441406</ele>
        <time>2024-09-27T09:17:24.000Z</time>
      </trkpt>
      <trkpt lat="40.44595" lon="20.00641">
        <ele>776.40002441406</ele>
        <time>2024-09-27T09:17:25.000Z</time>
      </trkpt>
      <trkpt lat="40.44588" lon="20.0064">
        <ele>775.91998291016</ele>
        <time>2024-09-27T09:17:26.000Z</time>
      </trkpt>
      <trkpt lat="40.44581" lon="20.00638">
        <ele>776.40002441406</ele>
        <time>2024-09-27T09:17:27.000Z</time>
      </trkpt>
      <trkpt lat="40.44576" lon="20.00633">
        <ele>776.88000488281</ele>
        <time>2024-09-27T09:17:28.000Z</time>
      </trkpt>
      <trkpt lat="40.44571" lon="20.00628">
        <ele>777.35998535156</ele>
        <time>2024-09-27T09:17:29.000Z</time>
      </trkpt>
      <trkpt lat="40.44562" lon="20.0062">
        <ele>777.35998535156</ele>
        <time>2024-09-27T09:17:30.000Z</time>
      </trkpt>
      <trkpt lat="40.44558" lon="20.00616">
        <ele>777.35998535156</ele>
        <time>2024-09-27T09:17:31.000Z</time>
      </trkpt>
      <trkpt lat="40.44551" lon="20.00612">
        <ele>776.88000488281</ele>
        <time>2024-09-27T09:17:32.000Z</time>
      </trkpt>
      <trkpt lat="40.44545" lon="20.00609">
        <ele>776.88000488281</ele>
        <time>2024-09-27T09:17:33.000Z</time>
      </trkpt>
      <trkpt lat="40.44538" lon="20.00608">
        <ele>776.88000488281</ele>
        <time>2024-09-27T09:17:34.000Z</time>
      </trkpt>
      <trkpt lat="40.44532" lon="20.0061">
        <ele>776.40002441406</ele>
        <time>2024-09-27T09:17:35.000Z</time>
      </trkpt>
      <trkpt lat="40.44526" lon="20.00613">
        <ele>775.91998291016</ele>
        <time>2024-09-27T09:17:36.000Z</time>
      </trkpt>
      <trkpt lat="40.44521" lon="20.00619">
        <ele>775.44000244141</ele>
        <time>2024-09-27T09:17:37.000Z</time>
      </trkpt>
      <trkpt lat="40.44517" lon="20.00625">
        <ele>775.44000244141</ele>
        <time>2024-09-27T09:17:38.000Z</time>
      </trkpt>
      <trkpt lat="40.44513" lon="20.00631">
        <ele>774.96002197266</ele>
        <time>2024-09-27T09:17:39.000Z</time>
      </trkpt>
      <trkpt lat="40.44508" lon="20.00637">
        <ele>774.47998046875</ele>
        <time>2024-09-27T09:17:40.000Z</time>
      </trkpt>
      <trkpt lat="40.44502" lon="20.00642">
        <ele>774</ele>
        <time>2024-09-27T09:17:41.000Z</time>
      </trkpt>
      <trkpt lat="40.44497" lon="20.00645">
        <ele>773.52001953125</ele>
        <time>2024-09-27T09:17:42.000Z</time>
      </trkpt>
      <trkpt lat="40.44493" lon="20.00646">
        <ele>773.03997802734</ele>
        <time>2024-09-27T09:17:43.000Z</time>
      </trkpt>
      <trkpt lat="40.44489" lon="20.00646">
        <ele>773.03997802734</ele>
        <time>2024-09-27T09:17:44.000Z</time>
      </trkpt>
      <trkpt lat="40.44484" lon="20.00643">
        <ele>773.03997802734</ele>
        <time>2024-09-27T09:17:45.000Z</time>
      </trkpt>
      <trkpt lat="40.44481" lon="20.00639">
        <ele>773.03997802734</ele>
        <time>2024-09-27T09:17:46.000Z</time>
      </trkpt>
      <trkpt lat="40.44478" lon="20.00632">
        <ele>773.03997802734</ele>
        <time>2024-09-27T09:17:47.000Z</time>
      </trkpt>
      <trkpt lat="40.44474" lon="20.00621">
        <ele>772.55999755859</ele>
        <time>2024-09-27T09:17:48.000Z</time>
      </trkpt>
      <trkpt lat="40.44473" lon="20.00618">
        <ele>772.55999755859</ele>
        <time>2024-09-27T09:17:49.000Z</time>
      </trkpt>
      <trkpt lat="40.4447" lon="20.00611">
        <ele>773.03997802734</ele>
        <time>2024-09-27T09:17:50.000Z</time>
      </trkpt>
      <trkpt lat="40.44467" lon="20.00605">
        <ele>773.03997802734</ele>
        <time>2024-09-27T09:17:51.000Z</time>
      </trkpt>
      <trkpt lat="40.44465" lon="20.00599">
        <ele>773.03997802734</ele>
        <time>2024-09-27T09:17:52.000Z</time>
      </trkpt>
      <trkpt lat="40.44462" lon="20.00596">
        <ele>773.03997802734</ele>
        <time>2024-09-27T09:17:53.000Z</time>
      </trkpt>
      <trkpt lat="40.44456" lon="20.0059">
        <ele>773.52001953125</ele>
        <time>2024-09-27T09:17:54.000Z</time>
      </trkpt>
      <trkpt lat="40.44455" lon="20.0059">
        <ele>773.52001953125</ele>
        <time>2024-09-27T09:17:55.000Z</time>
      </trkpt>
      <trkpt lat="40.4445" lon="20.00587">
        <ele>773.52001953125</ele>
        <time>2024-09-27T09:17:56.000Z</time>
      </trkpt>
      <trkpt lat="40.44443" lon="20.00587">
        <ele>773.52001953125</ele>
        <time>2024-09-27T09:17:57.000Z</time>
      </trkpt>
      <trkpt lat="40.44433" lon="20.00588">
        <ele>774</ele>
        <time>2024-09-27T09:17:58.000Z</time>
      </trkpt>
      <trkpt lat="40.44419" lon="20.00591">
        <ele>774</ele>
        <time>2024-09-27T09:17:59.000Z</time>
      </trkpt>
      <trkpt lat="40.44412" lon="20.00592">
        <ele>774</ele>
        <time>2024-09-27T09:18:00.000Z</time>
      </trkpt>
      <trkpt lat="40.44399" lon="20.00593">
        <ele>773.03997802734</ele>
        <time>2024-09-27T09:18:01.000Z</time>
      </trkpt>
      <trkpt lat="40.44387" lon="20.00593">
        <ele>772.55999755859</ele>
        <time>2024-09-27T09:18:02.000Z</time>
      </trkpt>
      <trkpt lat="40.4436" lon="20.00592">
        <ele>771.10998535156</ele>
        <time>2024-09-27T09:18:04.000Z</time>
      </trkpt>
      <trkpt lat="40.44356" lon="20.00592">
        <ele>770.63000488281</ele>
        <time>2024-09-27T09:18:05.000Z</time>
      </trkpt>
      <trkpt lat="40.44341" lon="20.00593">
        <ele>770.15002441406</ele>
        <time>2024-09-27T09:18:06.000Z</time>
      </trkpt>
      <trkpt lat="40.44336" lon="20.00593">
        <ele>770.15002441406</ele>
        <time>2024-09-27T09:18:07.000Z</time>
      </trkpt>
      <trkpt lat="40.44327" lon="20.00592">
        <ele>770.15002441406</ele>
        <time>2024-09-27T09:18:08.000Z</time>
      </trkpt>
      <trkpt lat="40.44318" lon="20.00587">
        <ele>769.66998291016</ele>
        <time>2024-09-27T09:18:09.000Z</time>
      </trkpt>
      <trkpt lat="40.44307" lon="20.00582">
        <ele>770.15002441406</ele>
        <time>2024-09-27T09:18:10.000Z</time>
      </trkpt>
      <trkpt lat="40.44296" lon="20.0058">
        <ele>770.15002441406</ele>
        <time>2024-09-27T09:18:11.000Z</time>
      </trkpt>
      <trkpt lat="40.44286" lon="20.00581">
        <ele>770.63000488281</ele>
        <time>2024-09-27T09:18:12.000Z</time>
      </trkpt>
      <trkpt lat="40.44272" lon="20.00584">
        <ele>770.63000488281</ele>
        <time>2024-09-27T09:18:13.000Z</time>
      </trkpt>
      <trkpt lat="40.44265" lon="20.00585">
        <ele>771.10998535156</ele>
        <time>2024-09-27T09:18:14.000Z</time>
      </trkpt>
      <trkpt lat="40.44257" lon="20.00585">
        <ele>771.10998535156</ele>
        <time>2024-09-27T09:18:15.000Z</time>
      </trkpt>
      <trkpt lat="40.44203" lon="20.00588">
        <ele>769.19000244141</ele>
        <time>2024-09-27T09:18:21.000Z</time>
      </trkpt>
      <trkpt lat="40.44197" lon="20.00588">
        <ele>768.71002197266</ele>
        <time>2024-09-27T09:18:22.000Z</time>
      </trkpt>
      <trkpt lat="40.44189" lon="20.00586">
        <ele>768.71002197266</ele>
        <time>2024-09-27T09:18:23.000Z</time>
      </trkpt>
      <trkpt lat="40.4417" lon="20.00581">
        <ele>764.86999511719</ele>
        <time>2023-09-28T15:35:30.000Z</time>
      </trkpt>
      <trkpt lat="40.44161" lon="20.00581">
        <ele>764.86999511719</ele>
        <time>2023-09-28T15:35:29.000Z</time>
      </trkpt>
      <trkpt lat="40.44152" lon="20.00583">
        <ele>765.34997558594</ele>
        <time>2023-09-28T15:35:28.000Z</time>
      </trkpt>
      <trkpt lat="40.44142" lon="20.00587">
        <ele>765.83001708984</ele>
        <time>2023-09-28T15:35:27.000Z</time>
      </trkpt>
      <trkpt lat="40.44133" lon="20.0059">
        <ele>765.83001708984</ele>
        <time>2023-09-28T15:35:26.000Z</time>
      </trkpt>
      <trkpt lat="40.44126" lon="20.00594">
        <ele>766.30999755859</ele>
        <time>2023-09-28T15:35:25.000Z</time>
      </trkpt>
      <trkpt lat="40.44102" lon="20.00607">
        <ele>766.30999755859</ele>
        <time>2023-09-28T15:35:23.000Z</time>
      </trkpt>
      <trkpt lat="40.44093" lon="20.00609">
        <ele>765.83001708984</ele>
        <time>2023-09-28T15:35:22.000Z</time>
      </trkpt>
      <trkpt lat="40.44085" lon="20.00609">
        <ele>765.83001708984</ele>
        <time>2023-09-28T15:35:21.000Z</time>
      </trkpt>
      <trkpt lat="40.44076" lon="20.00607">
        <ele>765.34997558594</ele>
        <time>2023-09-28T15:35:20.000Z</time>
      </trkpt>
      <trkpt lat="40.44066" lon="20.00604">
        <ele>765.34997558594</ele>
        <time>2023-09-28T15:35:19.000Z</time>
      </trkpt>
      <trkpt lat="40.44055" lon="20.006">
        <ele>765.34997558594</ele>
        <time>2023-09-28T15:35:18.000Z</time>
      </trkpt>
      <trkpt lat="40.44044" lon="20.00596">
        <ele>764.39001464844</ele>
        <time>2023-09-28T15:35:17.000Z</time>
      </trkpt>
      <trkpt lat="40.44021" lon="20.00588">
        <ele>763.90002441406</ele>
        <time>2023-09-28T15:35:15.000Z</time>
      </trkpt>
      <trkpt lat="40.44017" lon="20.00587">
        <ele>763.90002441406</ele>
        <time>2023-09-28T15:35:14.000Z</time>
      </trkpt>
      <trkpt lat="40.44006" lon="20.00583">
        <ele>763.41998291016</ele>
        <time>2023-09-28T15:35:13.000Z</time>
      </trkpt>
      <trkpt lat="40.44" lon="20.00582">
        <ele>762.94000244141</ele>
        <time>2023-09-28T15:35:12.000Z</time>
      </trkpt>
      <trkpt lat="40.43993" lon="20.00582">
        <ele>762.46002197266</ele>
        <time>2023-09-28T15:35:11.000Z</time>
      </trkpt>
      <trkpt lat="40.4399" lon="20.00585">
        <ele>761.97998046875</ele>
        <time>2023-09-28T15:35:10.000Z</time>
      </trkpt>
      <trkpt lat="40.43987" lon="20.00591">
        <ele>761.97998046875</ele>
        <time>2023-09-28T15:35:09.000Z</time>
      </trkpt>
      <trkpt lat="40.43986" lon="20.00597">
        <ele>761.97998046875</ele>
        <time>2023-09-28T15:35:08.000Z</time>
      </trkpt>
      <trkpt lat="40.43987" lon="20.00604">
        <ele>763.41998291016</ele>
        <time>2023-09-28T15:35:07.000Z</time>
      </trkpt>
      <trkpt lat="40.43991" lon="20.00611">
        <ele>763.41998291016</ele>
        <time>2023-09-28T15:35:06.000Z</time>
      </trkpt>
      <trkpt lat="40.43994" lon="20.00616">
        <ele>763.41998291016</ele>
        <time>2023-09-28T15:35:05.000Z</time>
      </trkpt>
      <trkpt lat="40.44004" lon="20.00627">
        <ele>763.90002441406</ele>
        <time>2023-09-28T15:35:03.000Z</time>
      </trkpt>
      <trkpt lat="40.44016" lon="20.00639">
        <ele>764.86999511719</ele>
        <time>2023-09-28T15:35:02.000Z</time>
      </trkpt>
      <trkpt lat="40.4402" lon="20.00642">
        <ele>764.86999511719</ele>
        <time>2023-09-28T15:35:01.000Z</time>
      </trkpt>
      <trkpt lat="40.44027" lon="20.00648">
        <ele>764.86999511719</ele>
        <time>2023-09-28T15:35:00.000Z</time>
      </trkpt>
      <trkpt lat="40.4404" lon="20.00656">
        <ele>765.34997558594</ele>
        <time>2023-09-28T15:34:59.000Z</time>
      </trkpt>
      <trkpt lat="40.44049" lon="20.00662">
        <ele>765.34997558594</ele>
        <time>2023-09-28T15:34:58.000Z</time>
      </trkpt>
      <trkpt lat="40.44057" lon="20.00666">
        <ele>765.34997558594</ele>
        <time>2023-09-28T15:34:57.000Z</time>
      </trkpt>
      <trkpt lat="40.44063" lon="20.00671">
        <ele>765.34997558594</ele>
        <time>2023-09-28T15:34:56.000Z</time>
      </trkpt>
      <trkpt lat="40.44067" lon="20.00676">
        <ele>765.34997558594</ele>
        <time>2023-09-28T15:34:55.000Z</time>
      </trkpt>
      <trkpt lat="40.44071" lon="20.00686">
        <ele>765.83001708984</ele>
        <time>2023-09-28T15:34:54.000Z</time>
      </trkpt>
      <trkpt lat="40.44074" lon="20.00695">
        <ele>766.30999755859</ele>
        <time>2023-09-28T15:34:53.000Z</time>
      </trkpt>
      <trkpt lat="40.44078" lon="20.00705">
        <ele>766.78997802734</ele>
        <time>2023-09-28T15:34:52.000Z</time>
      </trkpt>
      <trkpt lat="40.44084" lon="20.00713">
        <ele>766.30999755859</ele>
        <time>2023-09-28T15:34:51.000Z</time>
      </trkpt>
      <trkpt lat="40.44089" lon="20.00718">
        <ele>766.30999755859</ele>
        <time>2023-09-28T15:34:50.000Z</time>
      </trkpt>
      <trkpt lat="40.44097" lon="20.00727">
        <ele>765.83001708984</ele>
        <time>2023-09-28T15:34:49.000Z</time>
      </trkpt>
      <trkpt lat="40.44099" lon="20.00731">
        <ele>765.83001708984</ele>
        <time>2023-09-28T15:34:48.000Z</time>
      </trkpt>
      <trkpt lat="40.4411" lon="20.00746">
        <ele>765.34997558594</ele>
        <time>2023-09-28T15:34:47.000Z</time>
      </trkpt>
      <trkpt lat="40.44113" lon="20.00755">
        <ele>764.86999511719</ele>
        <time>2023-09-28T15:34:46.000Z</time>
      </trkpt>
      <trkpt lat="40.44115" lon="20.00765">
        <ele>764.86999511719</ele>
        <time>2023-09-28T15:34:45.000Z</time>
      </trkpt>
      <trkpt lat="40.44116" lon="20.00775">
        <ele>764.39001464844</ele>
        <time>2023-09-28T15:34:44.000Z</time>
      </trkpt>
      <trkpt lat="40.44115" lon="20.00784">
        <ele>763.90002441406</ele>
        <time>2023-09-28T15:34:43.000Z</time>
      </trkpt>
      <trkpt lat="40.44112" lon="20.00792">
        <ele>763.41998291016</ele>
        <time>2023-09-28T15:34:42.000Z</time>
      </trkpt>
      <trkpt lat="40.44108" lon="20.00798">
        <ele>762.94000244141</ele>
        <time>2023-09-28T15:34:41.000Z</time>
      </trkpt>
      <trkpt lat="40.44105" lon="20.00803">
        <ele>762.46002197266</ele>
        <time>2023-09-28T15:34:40.000Z</time>
      </trkpt>
      <trkpt lat="40.44093" lon="20.00816">
        <ele>761.02001953125</ele>
        <time>2023-09-28T15:34:37.000Z</time>
      </trkpt>
      <trkpt lat="40.44085" lon="20.00826">
        <ele>759.58001708984</ele>
        <time>2023-09-28T15:34:36.000Z</time>
      </trkpt>
      <trkpt lat="40.44081" lon="20.0083">
        <ele>759.09997558594</ele>
        <time>2023-09-28T15:34:35.000Z</time>
      </trkpt>
      <trkpt lat="40.44078" lon="20.00836">
        <ele>758.61999511719</ele>
        <time>2023-09-28T15:34:34.000Z</time>
      </trkpt>
      <trkpt lat="40.44074" lon="20.00845">
        <ele>757.65997314453</ele>
        <time>2023-09-28T15:34:33.000Z</time>
      </trkpt>
      <trkpt lat="40.44072" lon="20.0085">
        <ele>756.69000244141</ele>
        <time>2023-09-28T15:34:32.000Z</time>
      </trkpt>
      <trkpt lat="40.44069" lon="20.00856">
        <ele>755.72998046875</ele>
        <time>2023-09-28T15:34:31.000Z</time>
      </trkpt>
      <trkpt lat="40.44068" lon="20.0086">
        <ele>755.25</ele>
        <time>2023-09-28T15:34:30.000Z</time>
      </trkpt>
      <trkpt lat="40.44065" lon="20.00871">
        <ele>753.80999755859</ele>
        <time>2023-09-28T15:34:29.000Z</time>
      </trkpt>
      <trkpt lat="40.44062" lon="20.00879">
        <ele>753.33001708984</ele>
        <time>2023-09-28T15:34:28.000Z</time>
      </trkpt>
      <trkpt lat="40.4406" lon="20.00885">
        <ele>753.33001708984</ele>
        <time>2023-09-28T15:34:27.000Z</time>
      </trkpt>
      <trkpt lat="40.44056" lon="20.00892">
        <ele>752.84997558594</ele>
        <time>2023-09-28T15:34:26.000Z</time>
      </trkpt>
      <trkpt lat="40.44052" lon="20.009">
        <ele>752.36999511719</ele>
        <time>2023-09-28T15:34:25.000Z</time>
      </trkpt>
      <trkpt lat="40.44045" lon="20.00912">
        <ele>751.89001464844</ele>
        <time>2023-09-28T15:34:23.000Z</time>
      </trkpt>
      <trkpt lat="40.44037" lon="20.00925">
        <ele>751.40997314453</ele>
        <time>2023-09-28T15:34:21.000Z</time>
      </trkpt>
      <trkpt lat="40.44035" lon="20.0093">
        <ele>750.92999267578</ele>
        <time>2023-09-28T15:34:20.000Z</time>
      </trkpt>
      <trkpt lat="40.44035" lon="20.00936">
        <ele>749.96997070312</ele>
        <time>2023-09-28T15:34:19.000Z</time>
      </trkpt>
      <trkpt lat="40.44038" lon="20.00941">
        <ele>749.48999023438</ele>
        <time>2023-09-28T15:34:18.000Z</time>
      </trkpt>
      <trkpt lat="40.44041" lon="20.00946">
        <ele>749</ele>
        <time>2023-09-28T15:34:17.000Z</time>
      </trkpt>
      <trkpt lat="40.44047" lon="20.00951">
        <ele>748.52001953125</ele>
        <time>2023-09-28T15:34:16.000Z</time>
      </trkpt>
      <trkpt lat="40.44053" lon="20.00954">
        <ele>748.03997802734</ele>
        <time>2023-09-28T15:34:15.000Z</time>
      </trkpt>
      <trkpt lat="40.44059" lon="20.00956">
        <ele>748.03997802734</ele>
        <time>2023-09-28T15:34:14.000Z</time>
      </trkpt>
      <trkpt lat="40.44066" lon="20.00958">
        <ele>747.55999755859</ele>
        <time>2023-09-28T15:34:13.000Z</time>
      </trkpt>
      <trkpt lat="40.44072" lon="20.00961">
        <ele>747.08001708984</ele>
        <time>2023-09-28T15:34:12.000Z</time>
      </trkpt>
      <trkpt lat="40.44076" lon="20.00965">
        <ele>747.08001708984</ele>
        <time>2023-09-28T15:34:11.000Z</time>
      </trkpt>
      <trkpt lat="40.44079" lon="20.00969">
        <ele>746.59997558594</ele>
        <time>2023-09-28T15:34:10.000Z</time>
      </trkpt>
      <trkpt lat="40.44083" lon="20.00975">
        <ele>746.11999511719</ele>
        <time>2023-09-28T15:34:09.000Z</time>
      </trkpt>
      <trkpt lat="40.44085" lon="20.0098">
        <ele>746.11999511719</ele>
        <time>2023-09-28T15:34:08.000Z</time>
      </trkpt>
      <trkpt lat="40.44087" lon="20.00985">
        <ele>745.64001464844</ele>
        <time>2023-09-28T15:34:07.000Z</time>
      </trkpt>
      <trkpt lat="40.44087" lon="20.0099">
        <ele>745.15997314453</ele>
        <time>2023-09-28T15:34:06.000Z</time>
      </trkpt>
      <trkpt lat="40.44088" lon="20.00996">
        <ele>744.67999267578</ele>
        <time>2023-09-28T15:34:05.000Z</time>
      </trkpt>
      <trkpt lat="40.44088" lon="20.01002">
        <ele>744.67999267578</ele>
        <time>2023-09-28T15:34:04.000Z</time>
      </trkpt>
      <trkpt lat="40.44087" lon="20.01009">
        <ele>743.71997070312</ele>
        <time>2023-09-28T15:34:03.000Z</time>
      </trkpt>
      <trkpt lat="40.44086" lon="20.01016">
        <ele>743.23999023438</ele>
        <time>2023-09-28T15:34:02.000Z</time>
      </trkpt>
      <trkpt lat="40.44085" lon="20.0102">
        <ele>743.23999023438</ele>
        <time>2023-09-28T15:34:01.000Z</time>
      </trkpt>
      <trkpt lat="40.4408" lon="20.01036">
        <ele>741.78997802734</ele>
        <time>2023-09-28T15:33:59.000Z</time>
      </trkpt>
      <trkpt lat="40.44079" lon="20.01041">
        <ele>741.30999755859</ele>
        <time>2023-09-28T15:33:58.000Z</time>
      </trkpt>
      <trkpt lat="40.44077" lon="20.01048">
        <ele>740.83001708984</ele>
        <time>2023-09-28T15:33:57.000Z</time>
      </trkpt>
      <trkpt lat="40.44073" lon="20.01059">
        <ele>740.34997558594</ele>
        <time>2023-09-28T15:33:56.000Z</time>
      </trkpt>
      <trkpt lat="40.4407" lon="20.01068">
        <ele>739.86999511719</ele>
        <time>2023-09-28T15:33:55.000Z</time>
      </trkpt>
      <trkpt lat="40.44058" lon="20.01097">
        <ele>738.42999267578</ele>
        <time>2023-09-28T15:33:52.000Z</time>
      </trkpt>
      <trkpt lat="40.44056" lon="20.01102">
        <ele>737.95001220703</ele>
        <time>2023-09-28T15:33:51.000Z</time>
      </trkpt>
      <trkpt lat="40.4405" lon="20.01115">
        <ele>736.98999023438</ele>
        <time>2023-09-28T15:33:50.000Z</time>
      </trkpt>
      <trkpt lat="40.44043" lon="20.01125">
        <ele>736.51000976562</ele>
        <time>2023-09-28T15:33:49.000Z</time>
      </trkpt>
      <trkpt lat="40.4404" lon="20.0113">
        <ele>736.03002929688</ele>
        <time>2023-09-28T15:33:48.000Z</time>
      </trkpt>
      <trkpt lat="40.44032" lon="20.01141">
        <ele>735.07000732422</ele>
        <time>2023-09-28T15:33:47.000Z</time>
      </trkpt>
      <trkpt lat="40.44025" lon="20.01148">
        <ele>734.09997558594</ele>
        <time>2023-09-28T15:33:46.000Z</time>
      </trkpt>
      <trkpt lat="40.44016" lon="20.01157">
        <ele>733.14001464844</ele>
        <time>2023-09-28T15:33:45.000Z</time>
      </trkpt>
      <trkpt lat="40.44008" lon="20.01165">
        <ele>732.65997314453</ele>
        <time>2023-09-28T15:33:44.000Z</time>
      </trkpt>
      <trkpt lat="40.43999" lon="20.01174">
        <ele>731.21997070312</ele>
        <time>2023-09-28T15:33:43.000Z</time>
      </trkpt>
      <trkpt lat="40.43993" lon="20.0118">
        <ele>730.73999023438</ele>
        <time>2023-09-28T15:33:42.000Z</time>
      </trkpt>
      <trkpt lat="40.43977" lon="20.01199">
        <ele>728.82000732422</ele>
        <time>2023-09-28T15:33:40.000Z</time>
      </trkpt>
      <trkpt lat="40.43969" lon="20.01209">
        <ele>728.34002685547</ele>
        <time>2023-09-28T15:33:39.000Z</time>
      </trkpt>
      <trkpt lat="40.43967" lon="20.01211">
        <ele>728.34002685547</ele>
        <time>2023-09-28T15:33:38.000Z</time>
      </trkpt>
      <trkpt lat="40.43956" lon="20.01222">
        <ele>726.89001464844</ele>
        <time>2023-09-28T15:33:37.000Z</time>
      </trkpt>
      <trkpt lat="40.43946" lon="20.01232">
        <ele>725.92999267578</ele>
        <time>2023-09-28T15:33:36.000Z</time>
      </trkpt>
      <trkpt lat="40.43939" lon="20.01241">
        <ele>724.96997070312</ele>
        <time>2023-09-28T15:33:35.000Z</time>
      </trkpt>
      <trkpt lat="40.43932" lon="20.01252">
        <ele>724.01000976562</ele>
        <time>2023-09-28T15:33:34.000Z</time>
      </trkpt>
      <trkpt lat="40.43917" lon="20.01283">
        <ele>721.13000488281</ele>
        <time>2023-09-28T15:33:31.000Z</time>
      </trkpt>
      <trkpt lat="40.43913" lon="20.01292">
        <ele>720.65002441406</ele>
        <time>2023-09-28T15:33:30.000Z</time>
      </trkpt>
      <trkpt lat="40.43905" lon="20.01309">
        <ele>719.20001220703</ele>
        <time>2023-09-28T15:33:29.000Z</time>
      </trkpt>
      <trkpt lat="40.439" lon="20.01318">
        <ele>718.23999023438</ele>
        <time>2023-09-28T15:33:28.000Z</time>
      </trkpt>
      <trkpt lat="40.43892" lon="20.01331">
        <ele>717.76000976562</ele>
        <time>2023-09-28T15:33:27.000Z</time>
      </trkpt>
      <trkpt lat="40.43877" lon="20.01351">
        <ele>715.84002685547</ele>
        <time>2023-09-28T15:33:25.000Z</time>
      </trkpt>
      <trkpt lat="40.43871" lon="20.01358">
        <ele>715.35998535156</ele>
        <time>2023-09-28T15:33:24.000Z</time>
      </trkpt>
      <trkpt lat="40.43865" lon="20.01366">
        <ele>714.40002441406</ele>
        <time>2023-09-28T15:33:23.000Z</time>
      </trkpt>
      <trkpt lat="40.43861" lon="20.01371">
        <ele>714.40002441406</ele>
        <time>2023-09-28T15:33:22.000Z</time>
      </trkpt>
      <trkpt lat="40.43852" lon="20.01382">
        <ele>712.95001220703</ele>
        <time>2023-09-28T15:33:21.000Z</time>
      </trkpt>
      <trkpt lat="40.43848" lon="20.01388">
        <ele>712.46997070312</ele>
        <time>2023-09-28T15:33:20.000Z</time>
      </trkpt>
      <trkpt lat="40.43841" lon="20.01397">
        <ele>711.51000976562</ele>
        <time>2023-09-28T15:33:19.000Z</time>
      </trkpt>
      <trkpt lat="40.43833" lon="20.01408">
        <ele>710.54998779297</ele>
        <time>2023-09-28T15:33:18.000Z</time>
      </trkpt>
      <trkpt lat="40.43821" lon="20.01427">
        <ele>709.59002685547</ele>
        <time>2023-09-28T15:33:16.000Z</time>
      </trkpt>
      <trkpt lat="40.43817" lon="20.01436">
        <ele>709.59002685547</ele>
        <time>2023-09-28T15:33:15.000Z</time>
      </trkpt>
      <trkpt lat="40.43814" lon="20.01444">
        <ele>709.10998535156</ele>
        <time>2023-09-28T15:33:14.000Z</time>
      </trkpt>
      <trkpt lat="40.43812" lon="20.01452">
        <ele>707.19000244141</ele>
        <time>2023-09-28T15:33:13.000Z</time>
      </trkpt>
      <trkpt lat="40.43812" lon="20.01459">
        <ele>706.22998046875</ele>
        <time>2023-09-28T15:33:12.000Z</time>
      </trkpt>
      <trkpt lat="40.43813" lon="20.01466">
        <ele>705.26000976562</ele>
        <time>2023-09-28T15:33:11.000Z</time>
      </trkpt>
      <trkpt lat="40.43816" lon="20.01472">
        <ele>705.26000976562</ele>
        <time>2023-09-28T15:33:10.000Z</time>
      </trkpt>
      <trkpt lat="40.43819" lon="20.01478">
        <ele>704.78002929688</ele>
        <time>2023-09-28T15:33:09.000Z</time>
      </trkpt>
      <trkpt lat="40.4382" lon="20.0148">
        <ele>704.78002929688</ele>
        <time>2023-09-28T15:33:08.000Z</time>
      </trkpt>
      <trkpt lat="40.43828" lon="20.01497">
        <ele>704.78002929688</ele>
        <time>2023-09-28T15:33:06.000Z</time>
      </trkpt>
      <trkpt lat="40.43833" lon="20.01505">
        <ele>704.29998779297</ele>
        <time>2023-09-28T15:33:05.000Z</time>
      </trkpt>
      <trkpt lat="40.43838" lon="20.01514">
        <ele>703.82000732422</ele>
        <time>2023-09-28T15:33:04.000Z</time>
      </trkpt>
      <trkpt lat="40.43844" lon="20.01521">
        <ele>703.34002685547</ele>
        <time>2023-09-28T15:33:03.000Z</time>
      </trkpt>
      <trkpt lat="40.43849" lon="20.01529">
        <ele>702.38000488281</ele>
        <time>2023-09-28T15:33:02.000Z</time>
      </trkpt>
      <trkpt lat="40.43853" lon="20.01537">
        <ele>701.41998291016</ele>
        <time>2023-09-28T15:33:01.000Z</time>
      </trkpt>
      <trkpt lat="40.43855" lon="20.01547">
        <ele>701.41998291016</ele>
        <time>2023-09-28T15:33:00.000Z</time>
      </trkpt>
      <trkpt lat="40.43855" lon="20.01556">
        <ele>700.94000244141</ele>
        <time>2023-09-28T15:32:59.000Z</time>
      </trkpt>
      <trkpt lat="40.43855" lon="20.01564">
        <ele>700.46002197266</ele>
        <time>2023-09-28T15:32:58.000Z</time>
      </trkpt>
      <trkpt lat="40.43853" lon="20.01595">
        <ele>698.53002929688</ele>
        <time>2023-09-28T15:32:56.000Z</time>
      </trkpt>
      <trkpt lat="40.43853" lon="20.01605">
        <ele>698.04998779297</ele>
        <time>2023-09-28T15:32:55.000Z</time>
      </trkpt>
      <trkpt lat="40.43853" lon="20.01614">
        <ele>697.57000732422</ele>
        <time>2023-09-28T15:32:54.000Z</time>
      </trkpt>
      <trkpt lat="40.43854" lon="20.01631">
        <ele>696.60998535156</ele>
        <time>2023-09-28T15:32:53.000Z</time>
      </trkpt>
      <trkpt lat="40.43855" lon="20.01641">
        <ele>696.13000488281</ele>
        <time>2023-09-28T15:32:52.000Z</time>
      </trkpt>
      <trkpt lat="40.43854" lon="20.01651">
        <ele>695.65002441406</ele>
        <time>2023-09-28T15:32:51.000Z</time>
      </trkpt>
      <trkpt lat="40.43851" lon="20.0166">
        <ele>694.69000244141</ele>
        <time>2023-09-28T15:32:50.000Z</time>
      </trkpt>
      <trkpt lat="40.43847" lon="20.01669">
        <ele>693.72998046875</ele>
        <time>2023-09-28T15:32:49.000Z</time>
      </trkpt>
      <trkpt lat="40.43842" lon="20.01678">
        <ele>692.77001953125</ele>
        <time>2023-09-28T15:32:48.000Z</time>
      </trkpt>
      <trkpt lat="40.43839" lon="20.01683">
        <ele>692.28997802734</ele>
        <time>2023-09-28T15:32:47.000Z</time>
      </trkpt>
      <trkpt lat="40.43835" lon="20.01692">
        <ele>690.84002685547</ele>
        <time>2023-09-28T15:32:46.000Z</time>
      </trkpt>
      <trkpt lat="40.43833" lon="20.017">
        <ele>689.88000488281</ele>
        <time>2023-09-28T15:32:45.000Z</time>
      </trkpt>
      <trkpt lat="40.43833" lon="20.01709">
        <ele>689.40002441406</ele>
        <time>2023-09-28T15:32:44.000Z</time>
      </trkpt>
      <trkpt lat="40.43835" lon="20.01717">
        <ele>688.44000244141</ele>
        <time>2023-09-28T15:32:43.000Z</time>
      </trkpt>
      <trkpt lat="40.43839" lon="20.01725">
        <ele>687.47998046875</ele>
        <time>2023-09-28T15:32:42.000Z</time>
      </trkpt>
      <trkpt lat="40.43843" lon="20.01732">
        <ele>686.52001953125</ele>
        <time>2023-09-28T15:32:41.000Z</time>
      </trkpt>
      <trkpt lat="40.43847" lon="20.0174">
        <ele>685.55999755859</ele>
        <time>2023-09-28T15:32:40.000Z</time>
      </trkpt>
      <trkpt lat="40.43853" lon="20.01747">
        <ele>685.08001708984</ele>
        <time>2023-09-28T15:32:39.000Z</time>
      </trkpt>
      <trkpt lat="40.43859" lon="20.01752">
        <ele>684.59997558594</ele>
        <time>2023-09-28T15:32:38.000Z</time>
      </trkpt>
      <trkpt lat="40.43866" lon="20.01759">
        <ele>684.11999511719</ele>
        <time>2023-09-28T15:32:37.000Z</time>
      </trkpt>
      <trkpt lat="40.43872" lon="20.01764">
        <ele>684.11999511719</ele>
        <time>2023-09-28T15:32:36.000Z</time>
      </trkpt>
      <trkpt lat="40.43879" lon="20.01773">
        <ele>683.15002441406</ele>
        <time>2023-09-28T15:32:35.000Z</time>
      </trkpt>
      <trkpt lat="40.43885" lon="20.01783">
        <ele>682.19000244141</ele>
        <time>2023-09-28T15:32:34.000Z</time>
      </trkpt>
      <trkpt lat="40.43888" lon="20.01791">
        <ele>682.19000244141</ele>
        <time>2023-09-28T15:32:33.000Z</time>
      </trkpt>
      <trkpt lat="40.4389" lon="20.01801">
        <ele>681.71002197266</ele>
        <time>2023-09-28T15:32:32.000Z</time>
      </trkpt>
      <trkpt lat="40.43892" lon="20.01809">
        <ele>681.22998046875</ele>
        <time>2023-09-28T15:32:31.000Z</time>
      </trkpt>
      <trkpt lat="40.43896" lon="20.01817">
        <ele>681.71002197266</ele>
        <time>2023-09-28T15:32:30.000Z</time>
      </trkpt>
      <trkpt lat="40.439" lon="20.01823">
        <ele>681.71002197266</ele>
        <time>2023-09-28T15:32:29.000Z</time>
      </trkpt>
      <trkpt lat="40.43904" lon="20.0183">
        <ele>681.22998046875</ele>
        <time>2023-09-28T15:32:28.000Z</time>
      </trkpt>
      <trkpt lat="40.43906" lon="20.01838">
        <ele>681.22998046875</ele>
        <time>2023-09-28T15:32:27.000Z</time>
      </trkpt>
      <trkpt lat="40.43907" lon="20.01844">
        <ele>681.22998046875</ele>
        <time>2023-09-28T15:32:26.000Z</time>
      </trkpt>
      <trkpt lat="40.43907" lon="20.01845">
        <ele>681.22998046875</ele>
        <time>2023-09-28T15:32:25.000Z</time>
      </trkpt>
      <trkpt lat="40.43894" lon="20.01851">
        <ele>678.83001708984</ele>
        <time>2023-09-28T15:32:21.000Z</time>
      </trkpt>
      <trkpt lat="40.43891" lon="20.01848">
        <ele>678.34997558594</ele>
        <time>2023-09-28T15:32:20.000Z</time>
      </trkpt>
      <trkpt lat="40.43886" lon="20.0184">
        <ele>677.39001464844</ele>
        <time>2023-09-28T15:32:19.000Z</time>
      </trkpt>
      <trkpt lat="40.43881" lon="20.01833">
        <ele>676.41998291016</ele>
        <time>2023-09-28T15:32:18.000Z</time>
      </trkpt>
      <trkpt lat="40.43876" lon="20.01828">
        <ele>675.46002197266</ele>
        <time>2023-09-28T15:32:17.000Z</time>
      </trkpt>
      <trkpt lat="40.4387" lon="20.01823">
        <ele>674.97998046875</ele>
        <time>2023-09-28T15:32:16.000Z</time>
      </trkpt>
      <trkpt lat="40.43865" lon="20.01819">
        <ele>674.5</ele>
        <time>2023-09-28T15:32:15.000Z</time>
      </trkpt>
      <trkpt lat="40.4386" lon="20.01817">
        <ele>674.02001953125</ele>
        <time>2023-09-28T15:32:14.000Z</time>
      </trkpt>
      <trkpt lat="40.43855" lon="20.01816">
        <ele>673.53997802734</ele>
        <time>2023-09-28T15:32:13.000Z</time>
      </trkpt>
      <trkpt lat="40.4385" lon="20.01818">
        <ele>673.05999755859</ele>
        <time>2023-09-28T15:32:12.000Z</time>
      </trkpt>
      <trkpt lat="40.43846" lon="20.01821">
        <ele>672.58001708984</ele>
        <time>2023-09-28T15:32:11.000Z</time>
      </trkpt>
      <trkpt lat="40.43839" lon="20.01826">
        <ele>672.09997558594</ele>
        <time>2023-09-28T15:32:10.000Z</time>
      </trkpt>
      <trkpt lat="40.43837" lon="20.01828">
        <ele>672.09997558594</ele>
        <time>2023-09-28T15:32:09.000Z</time>
      </trkpt>
      <trkpt lat="40.43824" lon="20.01841">
        <ele>671.61999511719</ele>
        <time>2023-09-28T15:32:08.000Z</time>
      </trkpt>
      <trkpt lat="40.43818" lon="20.01848">
        <ele>671.61999511719</ele>
        <time>2023-09-28T15:32:07.000Z</time>
      </trkpt>
      <trkpt lat="40.43813" lon="20.01858">
        <ele>671.14001464844</ele>
        <time>2023-09-28T15:32:06.000Z</time>
      </trkpt>
      <trkpt lat="40.4381" lon="20.01867">
        <ele>670.65997314453</ele>
        <time>2023-09-28T15:32:05.000Z</time>
      </trkpt>
      <trkpt lat="40.43807" lon="20.01876">
        <ele>670.17999267578</ele>
        <time>2023-09-28T15:32:04.000Z</time>
      </trkpt>
      <trkpt lat="40.43804" lon="20.01891">
        <ele>669.70001220703</ele>
        <time>2023-09-28T15:32:03.000Z</time>
      </trkpt>
      <trkpt lat="40.43803" lon="20.01894">
        <ele>669.70001220703</ele>
        <time>2023-09-28T15:32:02.000Z</time>
      </trkpt>
      <trkpt lat="40.43797" lon="20.01922">
        <ele>669.70001220703</ele>
        <time>2023-09-28T15:32:00.000Z</time>
      </trkpt>
      <trkpt lat="40.43793" lon="20.01944">
        <ele>669.70001220703</ele>
        <time>2023-09-28T15:31:58.000Z</time>
      </trkpt>
      <trkpt lat="40.4379" lon="20.01969">
        <ele>670.17999267578</ele>
        <time>2023-09-28T15:31:57.000Z</time>
      </trkpt>
      <trkpt lat="40.43788" lon="20.01981">
        <ele>670.17999267578</ele>
        <time>2023-09-28T15:31:56.000Z</time>
      </trkpt>
      <trkpt lat="40.43788" lon="20.01986">
        <ele>669.70001220703</ele>
        <time>2023-09-28T15:31:55.000Z</time>
      </trkpt>
      <trkpt lat="40.43786" lon="20.0201">
        <ele>669.70001220703</ele>
        <time>2023-09-28T15:31:54.000Z</time>
      </trkpt>
      <trkpt lat="40.43785" lon="20.02022">
        <ele>669.70001220703</ele>
        <time>2023-09-28T15:31:53.000Z</time>
      </trkpt>
      <trkpt lat="40.43784" lon="20.02031">
        <ele>669.70001220703</ele>
        <time>2023-09-28T15:31:52.000Z</time>
      </trkpt>
      <trkpt lat="40.43784" lon="20.02043">
        <ele>669.21997070312</ele>
        <time>2023-09-28T15:31:51.000Z</time>
      </trkpt>
      <trkpt lat="40.43785" lon="20.02053">
        <ele>668.72998046875</ele>
        <time>2023-09-28T15:31:50.000Z</time>
      </trkpt>
      <trkpt lat="40.43787" lon="20.02061">
        <ele>668.72998046875</ele>
        <time>2023-09-28T15:31:49.000Z</time>
      </trkpt>
      <trkpt lat="40.4379" lon="20.02069">
        <ele>667.77001953125</ele>
        <time>2023-09-28T15:31:48.000Z</time>
      </trkpt>
      <trkpt lat="40.43794" lon="20.02077">
        <ele>667.28997802734</ele>
        <time>2023-09-28T15:31:47.000Z</time>
      </trkpt>
      <trkpt lat="40.43797" lon="20.02082">
        <ele>666.80999755859</ele>
        <time>2023-09-28T15:31:46.000Z</time>
      </trkpt>
      <trkpt lat="40.43798" lon="20.02088">
        <ele>665.84997558594</ele>
        <time>2023-09-28T15:31:45.000Z</time>
      </trkpt>
      <trkpt lat="40.43797" lon="20.02096">
        <ele>665.36999511719</ele>
        <time>2023-09-28T15:31:44.000Z</time>
      </trkpt>
      <trkpt lat="40.43795" lon="20.02106">
        <ele>664.40997314453</ele>
        <time>2023-09-28T15:31:43.000Z</time>
      </trkpt>
      <trkpt lat="40.43787" lon="20.0213">
        <ele>662.48999023438</ele>
        <time>2023-09-28T15:31:40.000Z</time>
      </trkpt>
      <trkpt lat="40.43784" lon="20.0214">
        <ele>662.01000976562</ele>
        <time>2023-09-28T15:31:39.000Z</time>
      </trkpt>
      <trkpt lat="40.43783" lon="20.02148">
        <ele>661.03997802734</ele>
        <time>2023-09-28T15:31:38.000Z</time>
      </trkpt>
      <trkpt lat="40.43783" lon="20.02158">
        <ele>660.55999755859</ele>
        <time>2023-09-28T15:31:37.000Z</time>
      </trkpt>
      <trkpt lat="40.43784" lon="20.02169">
        <ele>660.08001708984</ele>
        <time>2023-09-28T15:31:36.000Z</time>
      </trkpt>
      <trkpt lat="40.43786" lon="20.02181">
        <ele>659.11999511719</ele>
        <time>2023-09-28T15:31:35.000Z</time>
      </trkpt>
      <trkpt lat="40.43789" lon="20.02191">
        <ele>659.11999511719</ele>
        <time>2023-09-28T15:31:34.000Z</time>
      </trkpt>
      <trkpt lat="40.43792" lon="20.02202">
        <ele>658.64001464844</ele>
        <time>2023-09-28T15:31:33.000Z</time>
      </trkpt>
      <trkpt lat="40.43798" lon="20.02212">
        <ele>658.64001464844</ele>
        <time>2023-09-28T15:31:32.000Z</time>
      </trkpt>
      <trkpt lat="40.43804" lon="20.0222">
        <ele>657.67999267578</ele>
        <time>2023-09-28T15:31:31.000Z</time>
      </trkpt>
      <trkpt lat="40.43809" lon="20.02225">
        <ele>657.67999267578</ele>
        <time>2023-09-28T15:31:30.000Z</time>
      </trkpt>
      <trkpt lat="40.43813" lon="20.02229">
        <ele>657.20001220703</ele>
        <time>2023-09-28T15:31:29.000Z</time>
      </trkpt>
      <trkpt lat="40.43816" lon="20.02235">
        <ele>656.23999023438</ele>
        <time>2023-09-28T15:31:28.000Z</time>
      </trkpt>
      <trkpt lat="40.43818" lon="20.0224">
        <ele>655.76000976562</ele>
        <time>2023-09-28T15:31:27.000Z</time>
      </trkpt>
      <trkpt lat="40.43819" lon="20.02247">
        <ele>655.28002929688</ele>
        <time>2023-09-28T15:31:26.000Z</time>
      </trkpt>
      <trkpt lat="40.43817" lon="20.02253">
        <ele>654.30999755859</ele>
        <time>2023-09-28T15:31:25.000Z</time>
      </trkpt>
      <trkpt lat="40.43814" lon="20.02258">
        <ele>653.83001708984</ele>
        <time>2023-09-28T15:31:24.000Z</time>
      </trkpt>
      <trkpt lat="40.4381" lon="20.02262">
        <ele>652.86999511719</ele>
        <time>2023-09-28T15:31:23.000Z</time>
      </trkpt>
      <trkpt lat="40.43806" lon="20.02265">
        <ele>652.86999511719</ele>
        <time>2023-09-28T15:31:22.000Z</time>
      </trkpt>
      <trkpt lat="40.43801" lon="20.02266">
        <ele>652.39001464844</ele>
        <time>2023-09-28T15:31:21.000Z</time>
      </trkpt>
      <trkpt lat="40.43797" lon="20.02266">
        <ele>651.90997314453</ele>
        <time>2023-09-28T15:31:20.000Z</time>
      </trkpt>
      <trkpt lat="40.43787" lon="20.02267">
        <ele>651.42999267578</ele>
        <time>2023-09-28T15:31:19.000Z</time>
      </trkpt>
      <trkpt lat="40.43779" lon="20.02267">
        <ele>650.95001220703</ele>
        <time>2023-09-28T15:31:18.000Z</time>
      </trkpt>
      <trkpt lat="40.43773" lon="20.02266">
        <ele>650.95001220703</ele>
        <time>2023-09-28T15:31:17.000Z</time>
      </trkpt>
      <trkpt lat="40.43764" lon="20.02265">
        <ele>650.46997070312</ele>
        <time>2023-09-28T15:31:16.000Z</time>
      </trkpt>
      <trkpt lat="40.4376" lon="20.02264">
        <ele>649.98999023438</ele>
        <time>2023-09-28T15:31:15.000Z</time>
      </trkpt>
      <trkpt lat="40.43754" lon="20.02262">
        <ele>649.51000976562</ele>
        <time>2023-09-28T15:31:14.000Z</time>
      </trkpt>
      <trkpt lat="40.4375" lon="20.02259">
        <ele>649.03002929688</ele>
        <time>2023-09-28T15:31:13.000Z</time>
      </trkpt>
      <trkpt lat="40.43747" lon="20.02254">
        <ele>648.54998779297</ele>
        <time>2023-09-28T15:31:12.000Z</time>
      </trkpt>
      <trkpt lat="40.43746" lon="20.02248">
        <ele>648.07000732422</ele>
        <time>2023-09-28T15:31:11.000Z</time>
      </trkpt>
      <trkpt lat="40.43746" lon="20.02241">
        <ele>647.59002685547</ele>
        <time>2023-09-28T15:31:10.000Z</time>
      </trkpt>
      <trkpt lat="40.43746" lon="20.02239">
        <ele>647.59002685547</ele>
        <time>2023-09-28T15:31:09.000Z</time>
      </trkpt>
      <trkpt lat="40.43747" lon="20.02228">
        <ele>646.14001464844</ele>
        <time>2023-09-28T15:31:08.000Z</time>
      </trkpt>
      <trkpt lat="40.43746" lon="20.02223">
        <ele>646.14001464844</ele>
        <time>2023-09-28T15:31:07.000Z</time>
      </trkpt>
      <trkpt lat="40.43733" lon="20.02226">
        <ele>644.21997070312</ele>
        <time>2023-09-28T15:31:02.000Z</time>
      </trkpt>
      <trkpt lat="40.43732" lon="20.02232">
        <ele>643.26000976562</ele>
        <time>2023-09-28T15:31:01.000Z</time>
      </trkpt>
      <trkpt lat="40.43732" lon="20.02236">
        <ele>643.26000976562</ele>
        <time>2023-09-28T15:31:00.000Z</time>
      </trkpt>
      <trkpt lat="40.43732" lon="20.02246">
        <ele>642.29998779297</ele>
        <time>2023-09-28T15:30:59.000Z</time>
      </trkpt>
      <trkpt lat="40.43731" lon="20.02256">
        <ele>641.82000732422</ele>
        <time>2023-09-28T15:30:58.000Z</time>
      </trkpt>
      <trkpt lat="40.4373" lon="20.02262">
        <ele>641.82000732422</ele>
        <time>2023-09-28T15:30:57.000Z</time>
      </trkpt>
      <trkpt lat="40.43729" lon="20.02273">
        <ele>641.34002685547</ele>
        <time>2023-09-28T15:30:56.000Z</time>
      </trkpt>
      <trkpt lat="40.4373" lon="20.02282">
        <ele>640.85998535156</ele>
        <time>2023-09-28T15:30:55.000Z</time>
      </trkpt>
      <trkpt lat="40.43731" lon="20.02289">
        <ele>640.38000488281</ele>
        <time>2023-09-28T15:30:54.000Z</time>
      </trkpt>
      <trkpt lat="40.43733" lon="20.02293">
        <ele>639.40997314453</ele>
        <time>2023-09-28T15:30:53.000Z</time>
      </trkpt>
      <trkpt lat="40.43737" lon="20.02296">
        <ele>639.40997314453</ele>
        <time>2023-09-28T15:30:52.000Z</time>
      </trkpt>
      <trkpt lat="40.43741" lon="20.02298">
        <ele>639.40997314453</ele>
        <time>2023-09-28T15:30:51.000Z</time>
      </trkpt>
      <trkpt lat="40.43746" lon="20.02299">
        <ele>638.92999267578</ele>
        <time>2023-09-28T15:30:50.000Z</time>
      </trkpt>
      <trkpt lat="40.43753" lon="20.023">
        <ele>638.45001220703</ele>
        <time>2023-09-28T15:30:49.000Z</time>
      </trkpt>
      <trkpt lat="40.4376" lon="20.02299">
        <ele>637.96997070312</ele>
        <time>2023-09-28T15:30:48.000Z</time>
      </trkpt>
      <trkpt lat="40.43766" lon="20.02299">
        <ele>637.48999023438</ele>
        <time>2023-09-28T15:30:47.000Z</time>
      </trkpt>
      <trkpt lat="40.43774" lon="20.02299">
        <ele>637.48999023438</ele>
        <time>2023-09-28T15:30:46.000Z</time>
      </trkpt>
      <trkpt lat="40.43779" lon="20.023">
        <ele>637.01000976562</ele>
        <time>2023-09-28T15:30:45.000Z</time>
      </trkpt>
      <trkpt lat="40.43786" lon="20.02302">
        <ele>637.01000976562</ele>
        <time>2023-09-28T15:30:44.000Z</time>
      </trkpt>
      <trkpt lat="40.43793" lon="20.02306">
        <ele>636.53002929688</ele>
        <time>2023-09-28T15:30:43.000Z</time>
      </trkpt>
      <trkpt lat="40.43797" lon="20.02308">
        <ele>636.04998779297</ele>
        <time>2023-09-28T15:30:42.000Z</time>
      </trkpt>
      <trkpt lat="40.43804" lon="20.02312">
        <ele>636.04998779297</ele>
        <time>2023-09-28T15:30:41.000Z</time>
      </trkpt>
      <trkpt lat="40.43808" lon="20.02315">
        <ele>635.57000732422</ele>
        <time>2023-09-28T15:30:40.000Z</time>
      </trkpt>
      <trkpt lat="40.43814" lon="20.02318">
        <ele>635.09002685547</ele>
        <time>2023-09-28T15:30:39.000Z</time>
      </trkpt>
      <trkpt lat="40.43819" lon="20.0232">
        <ele>634.60998535156</ele>
        <time>2023-09-28T15:30:38.000Z</time>
      </trkpt>
      <trkpt lat="40.43827" lon="20.02322">
        <ele>633.65002441406</ele>
        <time>2023-09-28T15:30:37.000Z</time>
      </trkpt>
      <trkpt lat="40.43833" lon="20.02324">
        <ele>633.16998291016</ele>
        <time>2023-09-28T15:30:36.000Z</time>
      </trkpt>
      <trkpt lat="40.43838" lon="20.02325">
        <ele>632.67999267578</ele>
        <time>2023-09-28T15:30:35.000Z</time>
      </trkpt>
      <trkpt lat="40.43844" lon="20.02323">
        <ele>632.20001220703</ele>
        <time>2023-09-28T15:30:34.000Z</time>
      </trkpt>
      <trkpt lat="40.43848" lon="20.02322">
        <ele>631.71997070312</ele>
        <time>2023-09-28T15:30:33.000Z</time>
      </trkpt>
      <trkpt lat="40.43853" lon="20.02318">
        <ele>631.23999023438</ele>
        <time>2023-09-28T15:30:32.000Z</time>
      </trkpt>
      <trkpt lat="40.43857" lon="20.02315">
        <ele>630.76000976562</ele>
        <time>2023-09-28T15:30:31.000Z</time>
      </trkpt>
      <trkpt lat="40.43862" lon="20.02312">
        <ele>630.28002929688</ele>
        <time>2023-09-28T15:30:30.000Z</time>
      </trkpt>
      <trkpt lat="40.43869" lon="20.02307">
        <ele>629.32000732422</ele>
        <time>2023-09-28T15:30:29.000Z</time>
      </trkpt>
      <trkpt lat="40.43872" lon="20.02304">
        <ele>629.32000732422</ele>
        <time>2023-09-28T15:30:28.000Z</time>
      </trkpt>
      <trkpt lat="40.43878" lon="20.02296">
        <ele>627.88000488281</ele>
        <time>2023-09-28T15:30:27.000Z</time>
      </trkpt>
      <trkpt lat="40.43881" lon="20.02292">
        <ele>627.88000488281</ele>
        <time>2023-09-28T15:30:26.000Z</time>
      </trkpt>
      <trkpt lat="40.43884" lon="20.02289">
        <ele>627.40002441406</ele>
        <time>2023-09-28T15:30:25.000Z</time>
      </trkpt>
      <trkpt lat="40.4389" lon="20.0228">
        <ele>626.91998291016</ele>
        <time>2023-09-28T15:30:23.000Z</time>
      </trkpt>
      <trkpt lat="40.43891" lon="20.02276">
        <ele>626.44000244141</ele>
        <time>2023-09-28T15:30:22.000Z</time>
      </trkpt>
      <trkpt lat="40.43894" lon="20.02269">
        <ele>625.96002197266</ele>
        <time>2023-09-28T15:30:21.000Z</time>
      </trkpt>
      <trkpt lat="40.43895" lon="20.02264">
        <ele>625.46997070312</ele>
        <time>2023-09-28T15:30:20.000Z</time>
      </trkpt>
      <trkpt lat="40.43897" lon="20.02259">
        <ele>624.98999023438</ele>
        <time>2023-09-28T15:30:19.000Z</time>
      </trkpt>
      <trkpt lat="40.43901" lon="20.02255">
        <ele>624.51000976562</ele>
        <time>2023-09-28T15:30:18.000Z</time>
      </trkpt>
      <trkpt lat="40.43908" lon="20.02273">
        <ele>621.15002441406</ele>
        <time>2023-09-28T15:30:12.000Z</time>
      </trkpt>
      <trkpt lat="40.43908" lon="20.02275">
        <ele>621.15002441406</ele>
        <time>2023-09-28T15:30:11.000Z</time>
      </trkpt>
      <trkpt lat="40.43904" lon="20.02288">
        <ele>619.71002197266</ele>
        <time>2023-09-28T15:30:10.000Z</time>
      </trkpt>
      <trkpt lat="40.43901" lon="20.02298">
        <ele>618.75</ele>
        <time>2023-09-28T15:30:09.000Z</time>
      </trkpt>
      <trkpt lat="40.439" lon="20.02304">
        <ele>618.26000976562</ele>
        <time>2023-09-28T15:30:08.000Z</time>
      </trkpt>
      <trkpt lat="40.439" lon="20.02315">
        <ele>617.29998779297</ele>
        <time>2023-09-28T15:30:07.000Z</time>
      </trkpt>
      <trkpt lat="40.43901" lon="20.02323">
        <ele>616.82000732422</ele>
        <time>2023-09-28T15:30:06.000Z</time>
      </trkpt>
      <trkpt lat="40.43902" lon="20.02332">
        <ele>616.34002685547</ele>
        <time>2023-09-28T15:30:05.000Z</time>
      </trkpt>
      <trkpt lat="40.43903" lon="20.02339">
        <ele>615.38000488281</ele>
        <time>2023-09-28T15:30:04.000Z</time>
      </trkpt>
      <trkpt lat="40.43903" lon="20.02345">
        <ele>614.90002441406</ele>
        <time>2023-09-28T15:30:03.000Z</time>
      </trkpt>
      <trkpt lat="40.43902" lon="20.02351">
        <ele>613.94000244141</ele>
        <time>2023-09-28T15:30:02.000Z</time>
      </trkpt>
      <trkpt lat="40.439" lon="20.02357">
        <ele>612.97998046875</ele>
        <time>2023-09-28T15:30:01.000Z</time>
      </trkpt>
      <trkpt lat="40.43897" lon="20.02363">
        <ele>612.5</ele>
        <time>2023-09-28T15:30:00.000Z</time>
      </trkpt>
      <trkpt lat="40.43893" lon="20.02371">
        <ele>612.02001953125</ele>
        <time>2023-09-28T15:29:59.000Z</time>
      </trkpt>
      <trkpt lat="40.43888" lon="20.02378">
        <ele>611.05999755859</ele>
        <time>2023-09-28T15:29:58.000Z</time>
      </trkpt>
      <trkpt lat="40.43885" lon="20.02386">
        <ele>610.09002685547</ele>
        <time>2023-09-28T15:29:57.000Z</time>
      </trkpt>
      <trkpt lat="40.43881" lon="20.02395">
        <ele>609.13000488281</ele>
        <time>2023-09-28T15:29:56.000Z</time>
      </trkpt>
      <trkpt lat="40.43879" lon="20.02402">
        <ele>609.13000488281</ele>
        <time>2023-09-28T15:29:55.000Z</time>
      </trkpt>
      <trkpt lat="40.43879" lon="20.02411">
        <ele>608.16998291016</ele>
        <time>2023-09-28T15:29:54.000Z</time>
      </trkpt>
      <trkpt lat="40.4388" lon="20.02419">
        <ele>607.69000244141</ele>
        <time>2023-09-28T15:29:53.000Z</time>
      </trkpt>
      <trkpt lat="40.43881" lon="20.02428">
        <ele>607.21002197266</ele>
        <time>2023-09-28T15:29:52.000Z</time>
      </trkpt>
      <trkpt lat="40.43884" lon="20.02437">
        <ele>607.21002197266</ele>
        <time>2023-09-28T15:29:51.000Z</time>
      </trkpt>
      <trkpt lat="40.43888" lon="20.02444">
        <ele>606.25</ele>
        <time>2023-09-28T15:29:50.000Z</time>
      </trkpt>
      <trkpt lat="40.43891" lon="20.0245">
        <ele>605.77001953125</ele>
        <time>2023-09-28T15:29:49.000Z</time>
      </trkpt>
      <trkpt lat="40.43898" lon="20.02462">
        <ele>604.80999755859</ele>
        <time>2023-09-28T15:29:48.000Z</time>
      </trkpt>
      <trkpt lat="40.43903" lon="20.02468">
        <ele>604.33001708984</ele>
        <time>2023-09-28T15:29:47.000Z</time>
      </trkpt>
      <trkpt lat="40.43909" lon="20.02475">
        <ele>603.84997558594</ele>
        <time>2023-09-28T15:29:46.000Z</time>
      </trkpt>
      <trkpt lat="40.43914" lon="20.02481">
        <ele>602.88000488281</ele>
        <time>2023-09-28T15:29:45.000Z</time>
      </trkpt>
      <trkpt lat="40.43918" lon="20.02488">
        <ele>602.40002441406</ele>
        <time>2023-09-28T15:29:44.000Z</time>
      </trkpt>
      <trkpt lat="40.43922" lon="20.02497">
        <ele>601.44000244141</ele>
        <time>2023-09-28T15:29:43.000Z</time>
      </trkpt>
      <trkpt lat="40.43925" lon="20.02505">
        <ele>600.96002197266</ele>
        <time>2023-09-28T15:29:42.000Z</time>
      </trkpt>
      <trkpt lat="40.43926" lon="20.0251">
        <ele>600.47998046875</ele>
        <time>2023-09-28T15:29:41.000Z</time>
      </trkpt>
      <trkpt lat="40.43928" lon="20.02522">
        <ele>599.52001953125</ele>
        <time>2023-09-28T15:29:40.000Z</time>
      </trkpt>
      <trkpt lat="40.43927" lon="20.02529">
        <ele>599.03997802734</ele>
        <time>2023-09-28T15:29:39.000Z</time>
      </trkpt>
      <trkpt lat="40.43924" lon="20.02539">
        <ele>598.55999755859</ele>
        <time>2023-09-28T15:29:38.000Z</time>
      </trkpt>
      <trkpt lat="40.43919" lon="20.02547">
        <ele>597.59997558594</ele>
        <time>2023-09-28T15:29:37.000Z</time>
      </trkpt>
      <trkpt lat="40.43916" lon="20.02552">
        <ele>597.59997558594</ele>
        <time>2023-09-28T15:29:36.000Z</time>
      </trkpt>
      <trkpt lat="40.4391" lon="20.02561">
        <ele>597.11999511719</ele>
        <time>2023-09-28T15:29:35.000Z</time>
      </trkpt>
      <trkpt lat="40.43908" lon="20.02567">
        <ele>597.59997558594</ele>
        <time>2023-09-28T15:29:34.000Z</time>
      </trkpt>
      <trkpt lat="40.43907" lon="20.02573">
        <ele>597.11999511719</ele>
        <time>2023-09-28T15:29:33.000Z</time>
      </trkpt>
      <trkpt lat="40.43909" lon="20.02579">
        <ele>597.11999511719</ele>
        <time>2023-09-28T15:29:32.000Z</time>
      </trkpt>
      <trkpt lat="40.43913" lon="20.02582">
        <ele>597.11999511719</ele>
        <time>2023-09-28T15:29:31.000Z</time>
      </trkpt>
      <trkpt lat="40.43917" lon="20.02582">
        <ele>597.11999511719</ele>
        <time>2023-09-28T15:29:30.000Z</time>
      </trkpt>
      <trkpt lat="40.43922" lon="20.0258">
        <ele>596.64001464844</ele>
        <time>2023-09-28T15:29:29.000Z</time>
      </trkpt>
      <trkpt lat="40.43925" lon="20.02574">
        <ele>596.15002441406</ele>
        <time>2023-09-28T15:29:28.000Z</time>
      </trkpt>
      <trkpt lat="40.43927" lon="20.02569">
        <ele>595.66998291016</ele>
        <time>2023-09-28T15:29:27.000Z</time>
      </trkpt>
      <trkpt lat="40.43928" lon="20.02563">
        <ele>595.66998291016</ele>
        <time>2023-09-28T15:29:26.000Z</time>
      </trkpt>
      <trkpt lat="40.43929" lon="20.02556">
        <ele>595.19000244141</ele>
        <time>2023-09-28T15:29:25.000Z</time>
      </trkpt>
      <trkpt lat="40.43932" lon="20.02545">
        <ele>595.19000244141</ele>
        <time>2023-09-28T15:29:24.000Z</time>
      </trkpt>
      <trkpt lat="40.43933" lon="20.02542">
        <ele>594.71002197266</ele>
        <time>2023-09-28T15:29:23.000Z</time>
      </trkpt>
      <trkpt lat="40.43945" lon="20.02548">
        <ele>592.30999755859</ele>
        <time>2023-09-28T15:29:18.000Z</time>
      </trkpt>
      <trkpt lat="40.43946" lon="20.02554">
        <ele>591.83001708984</ele>
        <time>2023-09-28T15:29:17.000Z</time>
      </trkpt>
      <trkpt lat="40.43945" lon="20.02561">
        <ele>591.34997558594</ele>
        <time>2023-09-28T15:29:16.000Z</time>
      </trkpt>
      <trkpt lat="40.43944" lon="20.02571">
        <ele>590.39001464844</ele>
        <time>2023-09-28T15:29:15.000Z</time>
      </trkpt>
      <trkpt lat="40.43943" lon="20.02579">
        <ele>589.42999267578</ele>
        <time>2023-09-28T15:29:14.000Z</time>
      </trkpt>
      <trkpt lat="40.43942" lon="20.02584">
        <ele>588.46002197266</ele>
        <time>2023-09-28T15:29:13.000Z</time>
      </trkpt>
      <trkpt lat="40.43942" lon="20.02593">
        <ele>587.5</ele>
        <time>2023-09-28T15:29:12.000Z</time>
      </trkpt>
      <trkpt lat="40.43941" lon="20.026">
        <ele>587.02001953125</ele>
        <time>2023-09-28T15:29:11.000Z</time>
      </trkpt>
      <trkpt lat="40.43939" lon="20.02605">
        <ele>586.05999755859</ele>
        <time>2023-09-28T15:29:10.000Z</time>
      </trkpt>
      <trkpt lat="40.43936" lon="20.02611">
        <ele>585.58001708984</ele>
        <time>2023-09-28T15:29:09.000Z</time>
      </trkpt>
      <trkpt lat="40.43932" lon="20.02616">
        <ele>584.61999511719</ele>
        <time>2023-09-28T15:29:08.000Z</time>
      </trkpt>
      <trkpt lat="40.43927" lon="20.02621">
        <ele>583.65997314453</ele>
        <time>2023-09-28T15:29:07.000Z</time>
      </trkpt>
      <trkpt lat="40.43917" lon="20.02629">
        <ele>582.21997070312</ele>
        <time>2023-09-28T15:29:05.000Z</time>
      </trkpt>
      <trkpt lat="40.43912" lon="20.02634">
        <ele>581.25</ele>
        <time>2023-09-28T15:29:04.000Z</time>
      </trkpt>
      <trkpt lat="40.43908" lon="20.02638">
        <ele>580.77001953125</ele>
        <time>2023-09-28T15:29:03.000Z</time>
      </trkpt>
      <trkpt lat="40.43905" lon="20.02642">
        <ele>580.28997802734</ele>
        <time>2023-09-28T15:29:02.000Z</time>
      </trkpt>
      <trkpt lat="40.439" lon="20.02646">
        <ele>579.33001708984</ele>
        <time>2023-09-28T15:29:01.000Z</time>
      </trkpt>
      <trkpt lat="40.43896" lon="20.0265">
        <ele>578.84997558594</ele>
        <time>2023-09-28T15:29:00.000Z</time>
      </trkpt>
      <trkpt lat="40.43892" lon="20.02655">
        <ele>577.89001464844</ele>
        <time>2023-09-28T15:28:59.000Z</time>
      </trkpt>
      <trkpt lat="40.43889" lon="20.02659">
        <ele>577.40997314453</ele>
        <time>2023-09-28T15:28:58.000Z</time>
      </trkpt>
      <trkpt lat="40.43882" lon="20.02666">
        <ele>576.45001220703</ele>
        <time>2023-09-28T15:28:57.000Z</time>
      </trkpt>
      <trkpt lat="40.43879" lon="20.02671">
        <ele>575.96997070312</ele>
        <time>2023-09-28T15:28:56.000Z</time>
      </trkpt>
      <trkpt lat="40.43876" lon="20.02675">
        <ele>575.48999023438</ele>
        <time>2023-09-28T15:28:55.000Z</time>
      </trkpt>
      <trkpt lat="40.43872" lon="20.02681">
        <ele>575.01000976562</ele>
        <time>2023-09-28T15:28:54.000Z</time>
      </trkpt>
      <trkpt lat="40.43869" lon="20.02685">
        <ele>574.53002929688</ele>
        <time>2023-09-28T15:28:53.000Z</time>
      </trkpt>
      <trkpt lat="40.43865" lon="20.0269">
        <ele>574.03997802734</ele>
        <time>2023-09-28T15:28:52.000Z</time>
      </trkpt>
      <trkpt lat="40.4386" lon="20.02693">
        <ele>573.08001708984</ele>
        <time>2023-09-28T15:28:51.000Z</time>
      </trkpt>
      <trkpt lat="40.43855" lon="20.02695">
        <ele>572.59997558594</ele>
        <time>2023-09-28T15:28:50.000Z</time>
      </trkpt>
      <trkpt lat="40.43849" lon="20.02696">
        <ele>572.11999511719</ele>
        <time>2023-09-28T15:28:49.000Z</time>
      </trkpt>
      <trkpt lat="40.43844" lon="20.02697">
        <ele>571.15997314453</ele>
        <time>2023-09-28T15:28:48.000Z</time>
      </trkpt>
      <trkpt lat="40.43838" lon="20.02699">
        <ele>570.67999267578</ele>
        <time>2023-09-28T15:28:47.000Z</time>
      </trkpt>
      <trkpt lat="40.43833" lon="20.02703">
        <ele>570.20001220703</ele>
        <time>2023-09-28T15:28:46.000Z</time>
      </trkpt>
      <trkpt lat="40.43829" lon="20.02708">
        <ele>569.71997070312</ele>
        <time>2023-09-28T15:28:45.000Z</time>
      </trkpt>
      <trkpt lat="40.43827" lon="20.02712">
        <ele>569.23999023438</ele>
        <time>2023-09-28T15:28:44.000Z</time>
      </trkpt>
      <trkpt lat="40.43823" lon="20.02721">
        <ele>568.28002929688</ele>
        <time>2023-09-28T15:28:43.000Z</time>
      </trkpt>
      <trkpt lat="40.4382" lon="20.02727">
        <ele>567.32000732422</ele>
        <time>2023-09-28T15:28:42.000Z</time>
      </trkpt>
      <trkpt lat="40.43817" lon="20.02736">
        <ele>566.83001708984</ele>
        <time>2023-09-28T15:28:41.000Z</time>
      </trkpt>
      <trkpt lat="40.43814" lon="20.02741">
        <ele>566.34997558594</ele>
        <time>2023-09-28T15:28:40.000Z</time>
      </trkpt>
      <trkpt lat="40.4381" lon="20.02749">
        <ele>565.39001464844</ele>
        <time>2023-09-28T15:28:39.000Z</time>
      </trkpt>
      <trkpt lat="40.43807" lon="20.02755">
        <ele>564.42999267578</ele>
        <time>2023-09-28T15:28:38.000Z</time>
      </trkpt>
      <trkpt lat="40.43805" lon="20.02762">
        <ele>563.95001220703</ele>
        <time>2023-09-28T15:28:37.000Z</time>
      </trkpt>
      <trkpt lat="40.43802" lon="20.02769">
        <ele>562.98999023438</ele>
        <time>2023-09-28T15:28:36.000Z</time>
      </trkpt>
      <trkpt lat="40.43801" lon="20.02776">
        <ele>562.03002929688</ele>
        <time>2023-09-28T15:28:35.000Z</time>
      </trkpt>
      <trkpt lat="40.43802" lon="20.02783">
        <ele>561.54998779297</ele>
        <time>2023-09-28T15:28:34.000Z</time>
      </trkpt>
      <trkpt lat="40.43806" lon="20.02793">
        <ele>561.07000732422</ele>
        <time>2023-09-28T15:28:33.000Z</time>
      </trkpt>
      <trkpt lat="40.4381" lon="20.02802">
        <ele>560.59002685547</ele>
        <time>2023-09-28T15:28:32.000Z</time>
      </trkpt>
      <trkpt lat="40.43815" lon="20.02812">
        <ele>560.10998535156</ele>
        <time>2023-09-28T15:28:31.000Z</time>
      </trkpt>
      <trkpt lat="40.43823" lon="20.02828">
        <ele>560.10998535156</ele>
        <time>2023-09-28T15:28:30.000Z</time>
      </trkpt>
      <trkpt lat="40.43826" lon="20.02838">
        <ele>560.10998535156</ele>
        <time>2023-09-28T15:28:29.000Z</time>
      </trkpt>
      <trkpt lat="40.4383" lon="20.02852">
        <ele>560.59002685547</ele>
        <time>2023-09-28T15:28:28.000Z</time>
      </trkpt>
      <trkpt lat="40.43831" lon="20.02859">
        <ele>560.59002685547</ele>
        <time>2023-09-28T15:28:27.000Z</time>
      </trkpt>
      <trkpt lat="40.43832" lon="20.02878">
        <ele>561.07000732422</ele>
        <time>2023-09-28T15:28:26.000Z</time>
      </trkpt>
      <trkpt lat="40.43833" lon="20.02884">
        <ele>561.54998779297</ele>
        <time>2023-09-28T15:28:25.000Z</time>
      </trkpt>
      <trkpt lat="40.43832" lon="20.02905">
        <ele>561.07000732422</ele>
        <time>2023-09-28T15:28:23.000Z</time>
      </trkpt>
      <trkpt lat="40.43833" lon="20.02937">
        <ele>560.10998535156</ele>
        <time>2023-09-28T15:28:21.000Z</time>
      </trkpt>
      <trkpt lat="40.43833" lon="20.02949">
        <ele>559.61999511719</ele>
        <time>2023-09-28T15:28:20.000Z</time>
      </trkpt>
      <trkpt lat="40.43833" lon="20.02969">
        <ele>559.14001464844</ele>
        <time>2023-09-28T15:28:18.000Z</time>
      </trkpt>
      <trkpt lat="40.43832" lon="20.02988">
        <ele>558.65997314453</ele>
        <time>2023-09-28T15:28:17.000Z</time>
      </trkpt>
      <trkpt lat="40.43831" lon="20.03">
        <ele>558.65997314453</ele>
        <time>2023-09-28T15:28:16.000Z</time>
      </trkpt>
      <trkpt lat="40.43829" lon="20.03012">
        <ele>558.65997314453</ele>
        <time>2023-09-28T15:28:15.000Z</time>
      </trkpt>
      <trkpt lat="40.43826" lon="20.03025">
        <ele>558.65997314453</ele>
        <time>2023-09-28T15:28:14.000Z</time>
      </trkpt>
      <trkpt lat="40.43823" lon="20.03034">
        <ele>558.65997314453</ele>
        <time>2023-09-28T15:28:13.000Z</time>
      </trkpt>
      <trkpt lat="40.43794" lon="20.03103">
        <ele>560.10998535156</ele>
        <time>2023-09-28T15:28:08.000Z</time>
      </trkpt>
      <trkpt lat="40.4379" lon="20.03111">
        <ele>560.10998535156</ele>
        <time>2023-09-28T15:28:07.000Z</time>
      </trkpt>
      <trkpt lat="40.43787" lon="20.0312">
        <ele>560.59002685547</ele>
        <time>2023-09-28T15:28:06.000Z</time>
      </trkpt>
      <trkpt lat="40.43781" lon="20.03139">
        <ele>561.07000732422</ele>
        <time>2023-09-28T15:28:05.000Z</time>
      </trkpt>
      <trkpt lat="40.43779" lon="20.03147">
        <ele>561.54998779297</ele>
        <time>2023-09-28T15:28:04.000Z</time>
      </trkpt>
      <trkpt lat="40.43777" lon="20.03159">
        <ele>562.51000976562</ele>
        <time>2023-09-28T15:28:03.000Z</time>
      </trkpt>
      <trkpt lat="40.43775" lon="20.03169">
        <ele>562.98999023438</ele>
        <time>2023-09-28T15:28:02.000Z</time>
      </trkpt>
      <trkpt lat="40.43775" lon="20.0318">
        <ele>563.46997070312</ele>
        <time>2023-09-28T15:28:01.000Z</time>
      </trkpt>
      <trkpt lat="40.43775" lon="20.03189">
        <ele>563.46997070312</ele>
        <time>2023-09-28T15:28:00.000Z</time>
      </trkpt>
      <trkpt lat="40.43775" lon="20.03201">
        <ele>564.42999267578</ele>
        <time>2023-09-28T15:27:59.000Z</time>
      </trkpt>
      <trkpt lat="40.43775" lon="20.03213">
        <ele>564.90997314453</ele>
        <time>2023-09-28T15:27:58.000Z</time>
      </trkpt>
      <trkpt lat="40.43775" lon="20.03225">
        <ele>565.39001464844</ele>
        <time>2023-09-28T15:27:57.000Z</time>
      </trkpt>
      <trkpt lat="40.43775" lon="20.03237">
        <ele>566.34997558594</ele>
        <time>2023-09-28T15:27:56.000Z</time>
      </trkpt>
      <trkpt lat="40.43776" lon="20.0325">
        <ele>566.83001708984</ele>
        <time>2023-09-28T15:27:55.000Z</time>
      </trkpt>
      <trkpt lat="40.43776" lon="20.03255">
        <ele>567.32000732422</ele>
        <time>2023-09-28T15:27:54.000Z</time>
      </trkpt>
      <trkpt lat="40.43777" lon="20.03271">
        <ele>568.76000976562</ele>
        <time>2023-09-28T15:27:53.000Z</time>
      </trkpt>
      <trkpt lat="40.43777" lon="20.03276">
        <ele>568.76000976562</ele>
        <time>2023-09-28T15:27:52.000Z</time>
      </trkpt>
      <trkpt lat="40.43779" lon="20.0329">
        <ele>569.71997070312</ele>
        <time>2023-09-28T15:27:51.000Z</time>
      </trkpt>
      <trkpt lat="40.43779" lon="20.03302">
        <ele>571.15997314453</ele>
        <time>2023-09-28T15:27:50.000Z</time>
      </trkpt>
      <trkpt lat="40.43781" lon="20.03315">
        <ele>572.11999511719</ele>
        <time>2023-09-28T15:27:49.000Z</time>
      </trkpt>
      <trkpt lat="40.43782" lon="20.03327">
        <ele>573.08001708984</ele>
        <time>2023-09-28T15:27:48.000Z</time>
      </trkpt>
      <trkpt lat="40.43785" lon="20.03335">
        <ele>573.08001708984</ele>
        <time>2023-09-28T15:27:47.000Z</time>
      </trkpt>
      <trkpt lat="40.43788" lon="20.03342">
        <ele>574.03997802734</ele>
        <time>2023-09-28T15:27:46.000Z</time>
      </trkpt>
      <trkpt lat="40.43793" lon="20.03349">
        <ele>574.53002929688</ele>
        <time>2023-09-28T15:27:45.000Z</time>
      </trkpt>
      <trkpt lat="40.43797" lon="20.03355">
        <ele>575.48999023438</ele>
        <time>2023-09-28T15:27:44.000Z</time>
      </trkpt>
      <trkpt lat="40.43802" lon="20.03359">
        <ele>575.96997070312</ele>
        <time>2023-09-28T15:27:43.000Z</time>
      </trkpt>
      <trkpt lat="40.4381" lon="20.03366">
        <ele>576.45001220703</ele>
        <time>2023-09-28T15:27:42.000Z</time>
      </trkpt>
      <trkpt lat="40.43814" lon="20.0337">
        <ele>577.40997314453</ele>
        <time>2023-09-28T15:27:41.000Z</time>
      </trkpt>
      <trkpt lat="40.43821" lon="20.03379">
        <ele>578.36999511719</ele>
        <time>2023-09-28T15:27:40.000Z</time>
      </trkpt>
      <trkpt lat="40.43827" lon="20.03388">
        <ele>579.33001708984</ele>
        <time>2023-09-28T15:27:39.000Z</time>
      </trkpt>
      <trkpt lat="40.43831" lon="20.03396">
        <ele>579.80999755859</ele>
        <time>2023-09-28T15:27:38.000Z</time>
      </trkpt>
      <trkpt lat="40.43835" lon="20.03405">
        <ele>580.28997802734</ele>
        <time>2023-09-28T15:27:37.000Z</time>
      </trkpt>
      <trkpt lat="40.43838" lon="20.03409">
        <ele>580.77001953125</ele>
        <time>2023-09-28T15:27:36.000Z</time>
      </trkpt>
      <trkpt lat="40.43843" lon="20.03416">
        <ele>581.25</ele>
        <time>2023-09-28T15:27:35.000Z</time>
      </trkpt>
      <trkpt lat="40.43849" lon="20.03422">
        <ele>581.72998046875</ele>
        <time>2023-09-28T15:27:34.000Z</time>
      </trkpt>
      <trkpt lat="40.43852" lon="20.03426">
        <ele>582.21997070312</ele>
        <time>2023-09-28T15:27:33.000Z</time>
      </trkpt>
      <trkpt lat="40.43861" lon="20.03435">
        <ele>583.65997314453</ele>
        <time>2023-09-28T15:27:32.000Z</time>
      </trkpt>
      <trkpt lat="40.43865" lon="20.03441">
        <ele>584.14001464844</ele>
        <time>2023-09-28T15:27:31.000Z</time>
      </trkpt>
      <trkpt lat="40.4387" lon="20.0345">
        <ele>584.61999511719</ele>
        <time>2023-09-28T15:27:30.000Z</time>
      </trkpt>
      <trkpt lat="40.43871" lon="20.03454">
        <ele>584.61999511719</ele>
        <time>2023-09-28T15:27:29.000Z</time>
      </trkpt>
      <trkpt lat="40.43883" lon="20.03485">
        <ele>587.02001953125</ele>
        <time>2023-09-28T15:27:27.000Z</time>
      </trkpt>
      <trkpt lat="40.43889" lon="20.03497">
        <ele>588.46002197266</ele>
        <time>2023-09-28T15:27:26.000Z</time>
      </trkpt>
      <trkpt lat="40.43895" lon="20.03505">
        <ele>589.42999267578</ele>
        <time>2023-09-28T15:27:25.000Z</time>
      </trkpt>
      <trkpt lat="40.43907" lon="20.0352">
        <ele>590.39001464844</ele>
        <time>2023-09-28T15:27:23.000Z</time>
      </trkpt>
      <trkpt lat="40.43912" lon="20.03527">
        <ele>591.34997558594</ele>
        <time>2023-09-28T15:27:22.000Z</time>
      </trkpt>
      <trkpt lat="40.43917" lon="20.03534">
        <ele>591.83001708984</ele>
        <time>2023-09-28T15:27:21.000Z</time>
      </trkpt>
      <trkpt lat="40.43919" lon="20.03539">
        <ele>592.30999755859</ele>
        <time>2023-09-28T15:27:20.000Z</time>
      </trkpt>
      <trkpt lat="40.43923" lon="20.03547">
        <ele>592.78997802734</ele>
        <time>2023-09-28T15:27:19.000Z</time>
      </trkpt>
      <trkpt lat="40.43927" lon="20.03553">
        <ele>593.27001953125</ele>
        <time>2023-09-28T15:27:18.000Z</time>
      </trkpt>
      <trkpt lat="40.43932" lon="20.03559">
        <ele>594.22998046875</ele>
        <time>2023-09-28T15:27:17.000Z</time>
      </trkpt>
      <trkpt lat="40.43936" lon="20.03563">
        <ele>594.71002197266</ele>
        <time>2023-09-28T15:27:16.000Z</time>
      </trkpt>
      <trkpt lat="40.43939" lon="20.03567">
        <ele>594.71002197266</ele>
        <time>2023-09-28T15:27:15.000Z</time>
      </trkpt>
      <trkpt lat="40.43948" lon="20.03579">
        <ele>595.66998291016</ele>
        <time>2023-09-28T15:27:12.000Z</time>
      </trkpt>
      <trkpt lat="40.43952" lon="20.03583">
        <ele>595.66998291016</ele>
        <time>2023-09-28T15:27:11.000Z</time>
      </trkpt>
      <trkpt lat="40.43955" lon="20.03586">
        <ele>596.15002441406</ele>
        <time>2023-09-28T15:27:10.000Z</time>
      </trkpt>
      <trkpt lat="40.43956" lon="20.03589">
        <ele>596.64001464844</ele>
        <time>2023-09-28T15:27:09.000Z</time>
      </trkpt>
      <trkpt lat="40.4395" lon="20.03607">
        <ele>596.64001464844</ele>
        <time>2023-09-28T15:27:03.000Z</time>
      </trkpt>
      <trkpt lat="40.43945" lon="20.03607">
        <ele>596.64001464844</ele>
        <time>2023-09-28T15:27:02.000Z</time>
      </trkpt>
      <trkpt lat="40.43941" lon="20.03607">
        <ele>596.64001464844</ele>
        <time>2023-09-28T15:27:01.000Z</time>
      </trkpt>
      <trkpt lat="40.43932" lon="20.03605">
        <ele>596.64001464844</ele>
        <time>2023-09-28T15:27:00.000Z</time>
      </trkpt>
      <trkpt lat="40.43925" lon="20.03602">
        <ele>596.64001464844</ele>
        <time>2023-09-28T15:26:59.000Z</time>
      </trkpt>
      <trkpt lat="40.43916" lon="20.03598">
        <ele>596.15002441406</ele>
        <time>2023-09-28T15:26:58.000Z</time>
      </trkpt>
      <trkpt lat="40.43911" lon="20.03596">
        <ele>595.66998291016</ele>
        <time>2023-09-28T15:26:57.000Z</time>
      </trkpt>
      <trkpt lat="40.43895" lon="20.03589">
        <ele>595.19000244141</ele>
        <time>2023-09-28T15:26:56.000Z</time>
      </trkpt>
      <trkpt lat="40.43879" lon="20.03583">
        <ele>594.71002197266</ele>
        <time>2023-09-28T15:26:54.000Z</time>
      </trkpt>
      <trkpt lat="40.43871" lon="20.03581">
        <ele>594.22998046875</ele>
        <time>2023-09-28T15:26:53.000Z</time>
      </trkpt>
      <trkpt lat="40.43866" lon="20.03579">
        <ele>594.22998046875</ele>
        <time>2023-09-28T15:26:52.000Z</time>
      </trkpt>
      <trkpt lat="40.43859" lon="20.03578">
        <ele>593.27001953125</ele>
        <time>2023-09-28T15:26:51.000Z</time>
      </trkpt>
      <trkpt lat="40.43852" lon="20.03579">
        <ele>592.30999755859</ele>
        <time>2023-09-28T15:26:50.000Z</time>
      </trkpt>
      <trkpt lat="40.43845" lon="20.03581">
        <ele>591.83001708984</ele>
        <time>2023-09-28T15:26:49.000Z</time>
      </trkpt>
      <trkpt lat="40.43839" lon="20.03584">
        <ele>590.86999511719</ele>
        <time>2023-09-28T15:26:48.000Z</time>
      </trkpt>
      <trkpt lat="40.43832" lon="20.03589">
        <ele>590.86999511719</ele>
        <time>2023-09-28T15:26:47.000Z</time>
      </trkpt>
      <trkpt lat="40.43824" lon="20.03594">
        <ele>590.39001464844</ele>
        <time>2023-09-28T15:26:46.000Z</time>
      </trkpt>
      <trkpt lat="40.43817" lon="20.03599">
        <ele>589.42999267578</ele>
        <time>2023-09-28T15:26:45.000Z</time>
      </trkpt>
      <trkpt lat="40.43811" lon="20.03603">
        <ele>588.95001220703</ele>
        <time>2023-09-28T15:26:44.000Z</time>
      </trkpt>
      <trkpt lat="40.43806" lon="20.03606">
        <ele>588.95001220703</ele>
        <time>2023-09-28T15:26:43.000Z</time>
      </trkpt>
      <trkpt lat="40.43795" lon="20.03613">
        <ele>587.5</ele>
        <time>2023-09-28T15:26:41.000Z</time>
      </trkpt>
      <trkpt lat="40.43793" lon="20.03614">
        <ele>587.02001953125</ele>
        <time>2023-09-28T15:26:40.000Z</time>
      </trkpt>
      <trkpt lat="40.43786" lon="20.03618">
        <ele>586.53997802734</ele>
        <time>2023-09-28T15:26:39.000Z</time>
      </trkpt>
      <trkpt lat="40.43783" lon="20.0362">
        <ele>586.53997802734</ele>
        <time>2023-09-28T15:26:38.000Z</time>
      </trkpt>
      <trkpt lat="40.43775" lon="20.03624">
        <ele>585.58001708984</ele>
        <time>2023-09-28T15:26:37.000Z</time>
      </trkpt>
      <trkpt lat="40.4377" lon="20.03627">
        <ele>585.09997558594</ele>
        <time>2023-09-28T15:26:36.000Z</time>
      </trkpt>
      <trkpt lat="40.43764" lon="20.03632">
        <ele>584.61999511719</ele>
        <time>2023-09-28T15:26:35.000Z</time>
      </trkpt>
      <trkpt lat="40.43755" lon="20.03641">
        <ele>584.14001464844</ele>
        <time>2023-09-28T15:26:34.000Z</time>
      </trkpt>
      <trkpt lat="40.43749" lon="20.03647">
        <ele>583.65997314453</ele>
        <time>2023-09-28T15:26:33.000Z</time>
      </trkpt>
      <trkpt lat="40.43736" lon="20.03659">
        <ele>582.70001220703</ele>
        <time>2023-09-28T15:26:32.000Z</time>
      </trkpt>
      <trkpt lat="40.43734" lon="20.0366">
        <ele>582.70001220703</ele>
        <time>2023-09-28T15:26:31.000Z</time>
      </trkpt>
      <trkpt lat="40.43708" lon="20.03686">
        <ele>581.25</ele>
        <time>2023-09-28T15:26:29.000Z</time>
      </trkpt>
      <trkpt lat="40.43693" lon="20.037">
        <ele>580.77001953125</ele>
        <time>2023-09-28T15:26:28.000Z</time>
      </trkpt>
      <trkpt lat="40.43689" lon="20.03703">
        <ele>580.77001953125</ele>
        <time>2023-09-28T15:26:27.000Z</time>
      </trkpt>
      <trkpt lat="40.43677" lon="20.03713">
        <ele>579.80999755859</ele>
        <time>2023-09-28T15:26:26.000Z</time>
      </trkpt>
      <trkpt lat="40.4367" lon="20.0372">
        <ele>579.33001708984</ele>
        <time>2023-09-28T15:26:25.000Z</time>
      </trkpt>
      <trkpt lat="40.43665" lon="20.03728">
        <ele>579.33001708984</ele>
        <time>2023-09-28T15:26:24.000Z</time>
      </trkpt>
      <trkpt lat="40.43656" lon="20.03745">
        <ele>578.36999511719</ele>
        <time>2023-09-28T15:26:22.000Z</time>
      </trkpt>
      <trkpt lat="40.43649" lon="20.03757">
        <ele>578.36999511719</ele>
        <time>2023-09-28T15:26:21.000Z</time>
      </trkpt>
      <trkpt lat="40.43643" lon="20.0377">
        <ele>577.89001464844</ele>
        <time>2023-09-28T15:26:20.000Z</time>
      </trkpt>
      <trkpt lat="40.43633" lon="20.03794">
        <ele>577.40997314453</ele>
        <time>2023-09-28T15:26:18.000Z</time>
      </trkpt>
      <trkpt lat="40.43629" lon="20.03805">
        <ele>577.40997314453</ele>
        <time>2023-09-28T15:26:17.000Z</time>
      </trkpt>
      <trkpt lat="40.43623" lon="20.03817">
        <ele>577.40997314453</ele>
        <time>2023-09-28T15:26:16.000Z</time>
      </trkpt>
      <trkpt lat="40.43618" lon="20.03825">
        <ele>576.92999267578</ele>
        <time>2023-09-28T15:26:15.000Z</time>
      </trkpt>
      <trkpt lat="40.43612" lon="20.03831">
        <ele>576.92999267578</ele>
        <time>2023-09-28T15:26:14.000Z</time>
      </trkpt>
      <trkpt lat="40.43609" lon="20.03833">
        <ele>576.92999267578</ele>
        <time>2023-09-28T15:26:13.000Z</time>
      </trkpt>
      <trkpt lat="40.43596" lon="20.03841">
        <ele>576.45001220703</ele>
        <time>2023-09-28T15:26:12.000Z</time>
      </trkpt>
      <trkpt lat="40.43588" lon="20.03845">
        <ele>576.45001220703</ele>
        <time>2023-09-28T15:26:11.000Z</time>
      </trkpt>
      <trkpt lat="40.43581" lon="20.03847">
        <ele>575.96997070312</ele>
        <time>2023-09-28T15:26:10.000Z</time>
      </trkpt>
      <trkpt lat="40.43574" lon="20.03847">
        <ele>575.48999023438</ele>
        <time>2023-09-28T15:26:09.000Z</time>
      </trkpt>
      <trkpt lat="40.43567" lon="20.03844">
        <ele>575.01000976562</ele>
        <time>2023-09-28T15:26:08.000Z</time>
      </trkpt>
      <trkpt lat="40.43561" lon="20.03838">
        <ele>574.53002929688</ele>
        <time>2023-09-28T15:26:07.000Z</time>
      </trkpt>
      <trkpt lat="40.43555" lon="20.03831">
        <ele>574.03997802734</ele>
        <time>2023-09-28T15:26:06.000Z</time>
      </trkpt>
      <trkpt lat="40.43549" lon="20.03822">
        <ele>573.08001708984</ele>
        <time>2023-09-28T15:26:05.000Z</time>
      </trkpt>
      <trkpt lat="40.43543" lon="20.03814">
        <ele>573.08001708984</ele>
        <time>2023-09-28T15:26:04.000Z</time>
      </trkpt>
      <trkpt lat="40.43536" lon="20.03809">
        <ele>572.59997558594</ele>
        <time>2023-09-28T15:26:03.000Z</time>
      </trkpt>
      <trkpt lat="40.43529" lon="20.03806">
        <ele>572.59997558594</ele>
        <time>2023-09-28T15:26:02.000Z</time>
      </trkpt>
      <trkpt lat="40.43522" lon="20.03806">
        <ele>572.11999511719</ele>
        <time>2023-09-28T15:26:01.000Z</time>
      </trkpt>
      <trkpt lat="40.43514" lon="20.0381">
        <ele>572.11999511719</ele>
        <time>2023-09-28T15:26:00.000Z</time>
      </trkpt>
      <trkpt lat="40.43507" lon="20.03816">
        <ele>572.11999511719</ele>
        <time>2023-09-28T15:25:59.000Z</time>
      </trkpt>
      <trkpt lat="40.43502" lon="20.03821">
        <ele>571.64001464844</ele>
        <time>2023-09-28T15:25:58.000Z</time>
      </trkpt>
      <trkpt lat="40.43497" lon="20.03824">
        <ele>571.15997314453</ele>
        <time>2023-09-28T15:25:57.000Z</time>
      </trkpt>
      <trkpt lat="40.43492" lon="20.03826">
        <ele>571.15997314453</ele>
        <time>2023-09-28T15:25:56.000Z</time>
      </trkpt>
      <trkpt lat="40.43485" lon="20.03825">
        <ele>570.67999267578</ele>
        <time>2023-09-28T15:25:55.000Z</time>
      </trkpt>
      <trkpt lat="40.43479" lon="20.03825">
        <ele>570.67999267578</ele>
        <time>2023-09-28T15:25:54.000Z</time>
      </trkpt>
      <trkpt lat="40.43473" lon="20.03827">
        <ele>570.67999267578</ele>
        <time>2023-09-28T15:25:53.000Z</time>
      </trkpt>
      <trkpt lat="40.43468" lon="20.03831">
        <ele>570.67999267578</ele>
        <time>2023-09-28T15:25:52.000Z</time>
      </trkpt>
      <trkpt lat="40.43462" lon="20.03837">
        <ele>570.67999267578</ele>
        <time>2023-09-28T15:25:51.000Z</time>
      </trkpt>
      <trkpt lat="40.43459" lon="20.03843">
        <ele>570.67999267578</ele>
        <time>2023-09-28T15:25:50.000Z</time>
      </trkpt>
      <trkpt lat="40.43455" lon="20.03852">
        <ele>570.67999267578</ele>
        <time>2023-09-28T15:25:49.000Z</time>
      </trkpt>
      <trkpt lat="40.43453" lon="20.0386">
        <ele>570.67999267578</ele>
        <time>2023-09-28T15:25:48.000Z</time>
      </trkpt>
      <trkpt lat="40.43452" lon="20.03872">
        <ele>570.67999267578</ele>
        <time>2023-09-28T15:25:47.000Z</time>
      </trkpt>
      <trkpt lat="40.4345" lon="20.03881">
        <ele>570.67999267578</ele>
        <time>2023-09-28T15:25:46.000Z</time>
      </trkpt>
      <trkpt lat="40.43449" lon="20.0389">
        <ele>570.67999267578</ele>
        <time>2023-09-28T15:25:45.000Z</time>
      </trkpt>
      <trkpt lat="40.43446" lon="20.03896">
        <ele>570.67999267578</ele>
        <time>2023-09-28T15:25:44.000Z</time>
      </trkpt>
      <trkpt lat="40.4344" lon="20.03909">
        <ele>571.15997314453</ele>
        <time>2023-09-28T15:25:43.000Z</time>
      </trkpt>
      <trkpt lat="40.43437" lon="20.03918">
        <ele>571.15997314453</ele>
        <time>2023-09-28T15:25:42.000Z</time>
      </trkpt>
      <trkpt lat="40.43431" lon="20.03929">
        <ele>571.15997314453</ele>
        <time>2023-09-28T15:25:41.000Z</time>
      </trkpt>
      <trkpt lat="40.43426" lon="20.03937">
        <ele>571.15997314453</ele>
        <time>2023-09-28T15:25:40.000Z</time>
      </trkpt>
      <trkpt lat="40.4342" lon="20.03942">
        <ele>571.15997314453</ele>
        <time>2023-09-28T15:25:39.000Z</time>
      </trkpt>
      <trkpt lat="40.43414" lon="20.03946">
        <ele>571.64001464844</ele>
        <time>2023-09-28T15:25:38.000Z</time>
      </trkpt>
      <trkpt lat="40.43406" lon="20.03949">
        <ele>571.64001464844</ele>
        <time>2023-09-28T15:25:37.000Z</time>
      </trkpt>
      <trkpt lat="40.43399" lon="20.03949">
        <ele>571.64001464844</ele>
        <time>2023-09-28T15:25:36.000Z</time>
      </trkpt>
      <trkpt lat="40.43388" lon="20.03949">
        <ele>572.11999511719</ele>
        <time>2023-09-28T15:25:35.000Z</time>
      </trkpt>
      <trkpt lat="40.4338" lon="20.03949">
        <ele>572.11999511719</ele>
        <time>2023-09-28T15:25:34.000Z</time>
      </trkpt>
      <trkpt lat="40.43374" lon="20.03951">
        <ele>572.59997558594</ele>
        <time>2023-09-28T15:25:33.000Z</time>
      </trkpt>
      <trkpt lat="40.43367" lon="20.03956">
        <ele>572.59997558594</ele>
        <time>2023-09-28T15:25:32.000Z</time>
      </trkpt>
      <trkpt lat="40.4336" lon="20.03963">
        <ele>572.59997558594</ele>
        <time>2023-09-28T15:25:31.000Z</time>
      </trkpt>
      <trkpt lat="40.43357" lon="20.03967">
        <ele>572.59997558594</ele>
        <time>2023-09-28T15:25:30.000Z</time>
      </trkpt>
      <trkpt lat="40.43348" lon="20.03981">
        <ele>572.59997558594</ele>
        <time>2023-09-28T15:25:29.000Z</time>
      </trkpt>
      <trkpt lat="40.43333" lon="20.04007">
        <ele>573.08001708984</ele>
        <time>2023-09-28T15:25:27.000Z</time>
      </trkpt>
      <trkpt lat="40.43327" lon="20.04017">
        <ele>573.08001708984</ele>
        <time>2023-09-28T15:25:26.000Z</time>
      </trkpt>
      <trkpt lat="40.43322" lon="20.04028">
        <ele>573.08001708984</ele>
        <time>2023-09-28T15:25:25.000Z</time>
      </trkpt>
      <trkpt lat="40.43318" lon="20.04038">
        <ele>573.08001708984</ele>
        <time>2023-09-28T15:25:24.000Z</time>
      </trkpt>
      <trkpt lat="40.43314" lon="20.04049">
        <ele>573.08001708984</ele>
        <time>2023-09-28T15:25:23.000Z</time>
      </trkpt>
      <trkpt lat="40.43311" lon="20.0406">
        <ele>572.59997558594</ele>
        <time>2023-09-28T15:25:22.000Z</time>
      </trkpt>
      <trkpt lat="40.43307" lon="20.04068">
        <ele>572.59997558594</ele>
        <time>2023-09-28T15:25:21.000Z</time>
      </trkpt>
      <trkpt lat="40.433" lon="20.04074">
        <ele>572.11999511719</ele>
        <time>2023-09-28T15:25:20.000Z</time>
      </trkpt>
      <trkpt lat="40.43292" lon="20.04079">
        <ele>572.11999511719</ele>
        <time>2023-09-28T15:25:19.000Z</time>
      </trkpt>
      <trkpt lat="40.43284" lon="20.04081">
        <ele>571.15997314453</ele>
        <time>2023-09-28T15:25:18.000Z</time>
      </trkpt>
      <trkpt lat="40.43279" lon="20.04083">
        <ele>570.67999267578</ele>
        <time>2023-09-28T15:25:17.000Z</time>
      </trkpt>
      <trkpt lat="40.43266" lon="20.04086">
        <ele>570.20001220703</ele>
        <time>2023-09-28T15:25:16.000Z</time>
      </trkpt>
      <trkpt lat="40.43258" lon="20.04088">
        <ele>569.71997070312</ele>
        <time>2023-09-28T15:25:15.000Z</time>
      </trkpt>
      <trkpt lat="40.4325" lon="20.04092">
        <ele>569.23999023438</ele>
        <time>2023-09-28T15:25:14.000Z</time>
      </trkpt>
      <trkpt lat="40.43246" lon="20.04095">
        <ele>569.23999023438</ele>
        <time>2023-09-28T15:25:13.000Z</time>
      </trkpt>
      <trkpt lat="40.43236" lon="20.04102">
        <ele>568.76000976562</ele>
        <time>2023-09-28T15:25:12.000Z</time>
      </trkpt>
      <trkpt lat="40.4323" lon="20.04105">
        <ele>568.28002929688</ele>
        <time>2023-09-28T15:25:11.000Z</time>
      </trkpt>
      <trkpt lat="40.43224" lon="20.04107">
        <ele>568.28002929688</ele>
        <time>2023-09-28T15:25:10.000Z</time>
      </trkpt>
      <trkpt lat="40.43218" lon="20.04105">
        <ele>567.79998779297</ele>
        <time>2023-09-28T15:25:09.000Z</time>
      </trkpt>
      <trkpt lat="40.43214" lon="20.04101">
        <ele>567.32000732422</ele>
        <time>2023-09-28T15:25:08.000Z</time>
      </trkpt>
      <trkpt lat="40.4321" lon="20.04095">
        <ele>567.32000732422</ele>
        <time>2023-09-28T15:25:07.000Z</time>
      </trkpt>
      <trkpt lat="40.43208" lon="20.04087">
        <ele>566.34997558594</ele>
        <time>2023-09-28T15:25:06.000Z</time>
      </trkpt>
      <trkpt lat="40.43208" lon="20.04077">
        <ele>565.86999511719</ele>
        <time>2023-09-28T15:25:05.000Z</time>
      </trkpt>
      <trkpt lat="40.43209" lon="20.04069">
        <ele>564.90997314453</ele>
        <time>2023-09-28T15:25:04.000Z</time>
      </trkpt>
      <trkpt lat="40.43209" lon="20.0406">
        <ele>563.95001220703</ele>
        <time>2023-09-28T15:25:03.000Z</time>
      </trkpt>
      <trkpt lat="40.43209" lon="20.04054">
        <ele>563.46997070312</ele>
        <time>2023-09-28T15:25:02.000Z</time>
      </trkpt>
      <trkpt lat="40.43207" lon="20.04044">
        <ele>562.98999023438</ele>
        <time>2023-09-28T15:25:01.000Z</time>
      </trkpt>
      <trkpt lat="40.43205" lon="20.04038">
        <ele>562.51000976562</ele>
        <time>2023-09-28T15:25:00.000Z</time>
      </trkpt>
      <trkpt lat="40.43202" lon="20.0403">
        <ele>561.54998779297</ele>
        <time>2023-09-28T15:24:59.000Z</time>
      </trkpt>
      <trkpt lat="40.43199" lon="20.04023">
        <ele>561.07000732422</ele>
        <time>2023-09-28T15:24:58.000Z</time>
      </trkpt>
      <trkpt lat="40.43197" lon="20.04018">
        <ele>560.59002685547</ele>
        <time>2023-09-28T15:24:57.000Z</time>
      </trkpt>
      <trkpt lat="40.43194" lon="20.04011">
        <ele>559.61999511719</ele>
        <time>2023-09-28T15:24:56.000Z</time>
      </trkpt>
      <trkpt lat="40.43191" lon="20.04006">
        <ele>558.65997314453</ele>
        <time>2023-09-28T15:24:55.000Z</time>
      </trkpt>
      <trkpt lat="40.43187" lon="20.04001">
        <ele>558.17999267578</ele>
        <time>2023-09-28T15:24:54.000Z</time>
      </trkpt>
      <trkpt lat="40.43182" lon="20.03997">
        <ele>556.73999023438</ele>
        <time>2023-09-28T15:24:53.000Z</time>
      </trkpt>
      <trkpt lat="40.43176" lon="20.03993">
        <ele>556.26000976562</ele>
        <time>2023-09-28T15:24:52.000Z</time>
      </trkpt>
      <trkpt lat="40.4317" lon="20.03992">
        <ele>555.78002929688</ele>
        <time>2023-09-28T15:24:51.000Z</time>
      </trkpt>
      <trkpt lat="40.43161" lon="20.03992">
        <ele>555.29998779297</ele>
        <time>2023-09-28T15:24:50.000Z</time>
      </trkpt>
      <trkpt lat="40.43154" lon="20.03993">
        <ele>554.82000732422</ele>
        <time>2023-09-28T15:24:49.000Z</time>
      </trkpt>
      <trkpt lat="40.43143" lon="20.03997">
        <ele>554.82000732422</ele>
        <time>2023-09-28T15:24:48.000Z</time>
      </trkpt>
      <trkpt lat="40.43134" lon="20.04002">
        <ele>554.34002685547</ele>
        <time>2023-09-28T15:24:47.000Z</time>
      </trkpt>
      <trkpt lat="40.43127" lon="20.04006">
        <ele>553.85998535156</ele>
        <time>2023-09-28T15:24:46.000Z</time>
      </trkpt>
      <trkpt lat="40.43119" lon="20.04011">
        <ele>553.38000488281</ele>
        <time>2023-09-28T15:24:45.000Z</time>
      </trkpt>
      <trkpt lat="40.43108" lon="20.04019">
        <ele>552.40997314453</ele>
        <time>2023-09-28T15:24:44.000Z</time>
      </trkpt>
      <trkpt lat="40.43103" lon="20.04023">
        <ele>551.92999267578</ele>
        <time>2023-09-28T15:24:43.000Z</time>
      </trkpt>
      <trkpt lat="40.43095" lon="20.0403">
        <ele>550.96997070312</ele>
        <time>2023-09-28T15:24:42.000Z</time>
      </trkpt>
      <trkpt lat="40.43086" lon="20.0404">
        <ele>550.01000976562</ele>
        <time>2023-09-28T15:24:40.000Z</time>
      </trkpt>
      <trkpt lat="40.43076" lon="20.04051">
        <ele>548.57000732422</ele>
        <time>2023-09-28T15:24:39.000Z</time>
      </trkpt>
      <trkpt lat="40.43069" lon="20.04057">
        <ele>548.09002685547</ele>
        <time>2023-09-28T15:24:38.000Z</time>
      </trkpt>
      <trkpt lat="40.43066" lon="20.04059">
        <ele>547.60998535156</ele>
        <time>2023-09-28T15:24:37.000Z</time>
      </trkpt>
      <trkpt lat="40.43052" lon="20.04068">
        <ele>546.65002441406</ele>
        <time>2023-09-28T15:24:36.000Z</time>
      </trkpt>
      <trkpt lat="40.43038" lon="20.04077">
        <ele>546.16998291016</ele>
        <time>2023-09-28T15:24:34.000Z</time>
      </trkpt>
      <trkpt lat="40.43023" lon="20.04086">
        <ele>545.69000244141</ele>
        <time>2023-09-28T15:24:33.000Z</time>
      </trkpt>
      <trkpt lat="40.43004" lon="20.04097">
        <ele>545.20001220703</ele>
        <time>2023-09-28T15:24:31.000Z</time>
      </trkpt>
      <trkpt lat="40.42996" lon="20.04102">
        <ele>545.20001220703</ele>
        <time>2023-09-28T15:24:30.000Z</time>
      </trkpt>
      <trkpt lat="40.42984" lon="20.04111">
        <ele>544.71997070312</ele>
        <time>2023-09-28T15:24:29.000Z</time>
      </trkpt>
      <trkpt lat="40.42976" lon="20.04117">
        <ele>544.71997070312</ele>
        <time>2023-09-28T15:24:28.000Z</time>
      </trkpt>
      <trkpt lat="40.42969" lon="20.04124">
        <ele>544.71997070312</ele>
        <time>2023-09-28T15:24:27.000Z</time>
      </trkpt>
      <trkpt lat="40.42964" lon="20.04129">
        <ele>544.71997070312</ele>
        <time>2023-09-28T15:24:26.000Z</time>
      </trkpt>
      <trkpt lat="40.42957" lon="20.04137">
        <ele>544.71997070312</ele>
        <time>2023-09-28T15:24:25.000Z</time>
      </trkpt>
      <trkpt lat="40.42949" lon="20.04146">
        <ele>544.71997070312</ele>
        <time>2023-09-28T15:24:24.000Z</time>
      </trkpt>
      <trkpt lat="40.42944" lon="20.04154">
        <ele>544.71997070312</ele>
        <time>2023-09-28T15:24:23.000Z</time>
      </trkpt>
      <trkpt lat="40.4294" lon="20.0416">
        <ele>544.71997070312</ele>
        <time>2023-09-28T15:24:22.000Z</time>
      </trkpt>
      <trkpt lat="40.42938" lon="20.04163">
        <ele>544.71997070312</ele>
        <time>2023-09-28T15:24:21.000Z</time>
      </trkpt>
      <trkpt lat="40.42926" lon="20.04188">
        <ele>545.20001220703</ele>
        <time>2023-09-28T15:24:19.000Z</time>
      </trkpt>
      <trkpt lat="40.42925" lon="20.04191">
        <ele>544.71997070312</ele>
        <time>2023-09-28T15:24:18.000Z</time>
      </trkpt>
      <trkpt lat="40.42916" lon="20.04214">
        <ele>545.69000244141</ele>
        <time>2023-09-28T15:24:16.000Z</time>
      </trkpt>
      <trkpt lat="40.4291" lon="20.04226">
        <ele>546.16998291016</ele>
        <time>2023-09-28T15:24:15.000Z</time>
      </trkpt>
      <trkpt lat="40.42907" lon="20.04231">
        <ele>546.16998291016</ele>
        <time>2023-09-28T15:24:14.000Z</time>
      </trkpt>
      <trkpt lat="40.42903" lon="20.04238">
        <ele>546.16998291016</ele>
        <time>2023-09-28T15:24:13.000Z</time>
      </trkpt>
      <trkpt lat="40.42899" lon="20.04244">
        <ele>545.69000244141</ele>
        <time>2023-09-28T15:24:12.000Z</time>
      </trkpt>
      <trkpt lat="40.42896" lon="20.04249">
        <ele>545.20001220703</ele>
        <time>2023-09-28T15:24:11.000Z</time>
      </trkpt>
      <trkpt lat="40.42893" lon="20.04252">
        <ele>544.71997070312</ele>
        <time>2023-09-28T15:24:10.000Z</time>
      </trkpt>
      <trkpt lat="40.42888" lon="20.04258">
        <ele>544.71997070312</ele>
        <time>2023-09-28T15:24:09.000Z</time>
      </trkpt>
      <trkpt lat="40.42881" lon="20.04265">
        <ele>544.23999023438</ele>
        <time>2023-09-28T15:24:08.000Z</time>
      </trkpt>
      <trkpt lat="40.42874" lon="20.04269">
        <ele>543.76000976562</ele>
        <time>2023-09-28T15:24:07.000Z</time>
      </trkpt>
      <trkpt lat="40.42866" lon="20.04272">
        <ele>543.28002929688</ele>
        <time>2023-09-28T15:24:06.000Z</time>
      </trkpt>
      <trkpt lat="40.42858" lon="20.04273">
        <ele>542.32000732422</ele>
        <time>2023-09-28T15:24:05.000Z</time>
      </trkpt>
      <trkpt lat="40.42852" lon="20.04273">
        <ele>541.84002685547</ele>
        <time>2023-09-28T15:24:04.000Z</time>
      </trkpt>
      <trkpt lat="40.42849" lon="20.04273">
        <ele>541.35998535156</ele>
        <time>2023-09-28T15:24:03.000Z</time>
      </trkpt>
      <trkpt lat="40.42838" lon="20.04272">
        <ele>540.40002441406</ele>
        <time>2023-09-28T15:24:02.000Z</time>
      </trkpt>
      <trkpt lat="40.42825" lon="20.0427">
        <ele>538.47998046875</ele>
        <time>2023-09-28T15:24:00.000Z</time>
      </trkpt>
      <trkpt lat="40.42816" lon="20.04272">
        <ele>537.51000976562</ele>
        <time>2023-09-28T15:23:59.000Z</time>
      </trkpt>
      <trkpt lat="40.42808" lon="20.04275">
        <ele>537.03002929688</ele>
        <time>2023-09-28T15:23:58.000Z</time>
      </trkpt>
      <trkpt lat="40.42801" lon="20.04279">
        <ele>536.07000732422</ele>
        <time>2023-09-28T15:23:57.000Z</time>
      </trkpt>
      <trkpt lat="40.42794" lon="20.04282">
        <ele>535.59002685547</ele>
        <time>2023-09-28T15:23:56.000Z</time>
      </trkpt>
      <trkpt lat="40.42788" lon="20.04284">
        <ele>535.10998535156</ele>
        <time>2023-09-28T15:23:55.000Z</time>
      </trkpt>
      <trkpt lat="40.42779" lon="20.04288">
        <ele>534.15002441406</ele>
        <time>2023-09-28T15:23:54.000Z</time>
      </trkpt>
      <trkpt lat="40.42763" lon="20.04297">
        <ele>533.19000244141</ele>
        <time>2023-09-28T15:23:52.000Z</time>
      </trkpt>
      <trkpt lat="40.42756" lon="20.04301">
        <ele>532.71002197266</ele>
        <time>2023-09-28T15:23:51.000Z</time>
      </trkpt>
      <trkpt lat="40.42749" lon="20.04306">
        <ele>531.75</ele>
        <time>2023-09-28T15:23:50.000Z</time>
      </trkpt>
      <trkpt lat="40.42743" lon="20.04309">
        <ele>531.27001953125</ele>
        <time>2023-09-28T15:23:49.000Z</time>
      </trkpt>
      <trkpt lat="40.42737" lon="20.04312">
        <ele>530.78997802734</ele>
        <time>2023-09-28T15:23:48.000Z</time>
      </trkpt>
      <trkpt lat="40.42733" lon="20.04317">
        <ele>530.29998779297</ele>
        <time>2023-09-28T15:23:47.000Z</time>
      </trkpt>
      <trkpt lat="40.4273" lon="20.04323">
        <ele>529.82000732422</ele>
        <time>2023-09-28T15:23:46.000Z</time>
      </trkpt>
      <trkpt lat="40.42729" lon="20.04331">
        <ele>528.85998535156</ele>
        <time>2023-09-28T15:23:45.000Z</time>
      </trkpt>
      <trkpt lat="40.4273" lon="20.0434">
        <ele>528.38000488281</ele>
        <time>2023-09-28T15:23:44.000Z</time>
      </trkpt>
      <trkpt lat="40.42731" lon="20.04353">
        <ele>528.38000488281</ele>
        <time>2023-09-28T15:23:43.000Z</time>
      </trkpt>
      <trkpt lat="40.42731" lon="20.04362">
        <ele>527.90002441406</ele>
        <time>2023-09-28T15:23:42.000Z</time>
      </trkpt>
      <trkpt lat="40.42731" lon="20.04378">
        <ele>527.90002441406</ele>
        <time>2023-09-28T15:23:41.000Z</time>
      </trkpt>
      <trkpt lat="40.42731" lon="20.04385">
        <ele>527.90002441406</ele>
        <time>2023-09-28T15:23:40.000Z</time>
      </trkpt>
      <trkpt lat="40.42732" lon="20.04396">
        <ele>528.38000488281</ele>
        <time>2023-09-28T15:23:39.000Z</time>
      </trkpt>
      <trkpt lat="40.42734" lon="20.04417">
        <ele>528.85998535156</ele>
        <time>2023-09-28T15:23:38.000Z</time>
      </trkpt>
      <trkpt lat="40.42735" lon="20.04419">
        <ele>528.85998535156</ele>
        <time>2023-09-28T15:23:37.000Z</time>
      </trkpt>
      <trkpt lat="40.42738" lon="20.04439">
        <ele>529.82000732422</ele>
        <time>2023-09-28T15:23:36.000Z</time>
      </trkpt>
      <trkpt lat="40.42739" lon="20.04449">
        <ele>530.29998779297</ele>
        <time>2023-09-28T15:23:35.000Z</time>
      </trkpt>
      <trkpt lat="40.42739" lon="20.04457">
        <ele>530.29998779297</ele>
        <time>2023-09-28T15:23:34.000Z</time>
      </trkpt>
      <trkpt lat="40.42737" lon="20.04464">
        <ele>530.78997802734</ele>
        <time>2023-09-28T15:23:33.000Z</time>
      </trkpt>
      <trkpt lat="40.42734" lon="20.04469">
        <ele>531.27001953125</ele>
        <time>2023-09-28T15:23:32.000Z</time>
      </trkpt>
      <trkpt lat="40.4273" lon="20.04473">
        <ele>531.75</ele>
        <time>2023-09-28T15:23:31.000Z</time>
      </trkpt>
      <trkpt lat="40.42725" lon="20.04476">
        <ele>532.71002197266</ele>
        <time>2023-09-28T15:23:30.000Z</time>
      </trkpt>
      <trkpt lat="40.42721" lon="20.04477">
        <ele>533.19000244141</ele>
        <time>2023-09-28T15:23:29.000Z</time>
      </trkpt>
      <trkpt lat="40.42713" lon="20.0448">
        <ele>534.15002441406</ele>
        <time>2023-09-28T15:23:28.000Z</time>
      </trkpt>
      <trkpt lat="40.42707" lon="20.0448">
        <ele>534.15002441406</ele>
        <time>2023-09-28T15:23:27.000Z</time>
      </trkpt>
      <trkpt lat="40.42696" lon="20.04482">
        <ele>535.10998535156</ele>
        <time>2023-09-28T15:23:26.000Z</time>
      </trkpt>
      <trkpt lat="40.42688" lon="20.04485">
        <ele>535.59002685547</ele>
        <time>2023-09-28T15:23:25.000Z</time>
      </trkpt>
      <trkpt lat="40.42679" lon="20.0449">
        <ele>536.54998779297</ele>
        <time>2023-09-28T15:23:24.000Z</time>
      </trkpt>
      <trkpt lat="40.42672" lon="20.04496">
        <ele>537.03002929688</ele>
        <time>2023-09-28T15:23:23.000Z</time>
      </trkpt>
      <trkpt lat="40.42665" lon="20.04503">
        <ele>537.51000976562</ele>
        <time>2023-09-28T15:23:22.000Z</time>
      </trkpt>
      <trkpt lat="40.42658" lon="20.04509">
        <ele>537.98999023438</ele>
        <time>2023-09-28T15:23:21.000Z</time>
      </trkpt>
      <trkpt lat="40.42655" lon="20.04513">
        <ele>538.47998046875</ele>
        <time>2023-09-28T15:23:20.000Z</time>
      </trkpt>
      <trkpt lat="40.42649" lon="20.04521">
        <ele>539.44000244141</ele>
        <time>2023-09-28T15:23:19.000Z</time>
      </trkpt>
      <trkpt lat="40.42646" lon="20.04525">
        <ele>539.91998291016</ele>
        <time>2023-09-28T15:23:18.000Z</time>
      </trkpt>
      <trkpt lat="40.42641" lon="20.04531">
        <ele>540.40002441406</ele>
        <time>2023-09-28T15:23:17.000Z</time>
      </trkpt>
      <trkpt lat="40.42627" lon="20.04548">
        <ele>541.84002685547</ele>
        <time>2023-09-28T15:23:15.000Z</time>
      </trkpt>
      <trkpt lat="40.42624" lon="20.04555">
        <ele>541.84002685547</ele>
        <time>2023-09-28T15:23:14.000Z</time>
      </trkpt>
      <trkpt lat="40.4262" lon="20.04561">
        <ele>542.32000732422</ele>
        <time>2023-09-28T15:23:13.000Z</time>
      </trkpt>
      <trkpt lat="40.42614" lon="20.04573">
        <ele>543.28002929688</ele>
        <time>2023-09-28T15:23:12.000Z</time>
      </trkpt>
      <trkpt lat="40.42611" lon="20.04581">
        <ele>543.76000976562</ele>
        <time>2023-09-28T15:23:11.000Z</time>
      </trkpt>
      <trkpt lat="40.42605" lon="20.04592">
        <ele>544.23999023438</ele>
        <time>2023-09-28T15:23:10.000Z</time>
      </trkpt>
      <trkpt lat="40.426" lon="20.04599">
        <ele>545.20001220703</ele>
        <time>2023-09-28T15:23:09.000Z</time>
      </trkpt>
      <trkpt lat="40.42596" lon="20.04605">
        <ele>545.20001220703</ele>
        <time>2023-09-28T15:23:08.000Z</time>
      </trkpt>
      <trkpt lat="40.42591" lon="20.04612">
        <ele>546.16998291016</ele>
        <time>2023-09-28T15:23:07.000Z</time>
      </trkpt>
      <trkpt lat="40.42585" lon="20.04618">
        <ele>547.13000488281</ele>
        <time>2023-09-28T15:23:06.000Z</time>
      </trkpt>
      <trkpt lat="40.42579" lon="20.04623">
        <ele>547.60998535156</ele>
        <time>2023-09-28T15:23:05.000Z</time>
      </trkpt>
      <trkpt lat="40.42573" lon="20.04628">
        <ele>548.09002685547</ele>
        <time>2023-09-28T15:23:04.000Z</time>
      </trkpt>
      <trkpt lat="40.42567" lon="20.04634">
        <ele>548.57000732422</ele>
        <time>2023-09-28T15:23:03.000Z</time>
      </trkpt>
      <trkpt lat="40.42564" lon="20.04639">
        <ele>548.57000732422</ele>
        <time>2023-09-28T15:23:02.000Z</time>
      </trkpt>
      <trkpt lat="40.4256" lon="20.04646">
        <ele>548.57000732422</ele>
        <time>2023-09-28T15:23:01.000Z</time>
      </trkpt>
      <trkpt lat="40.42558" lon="20.04652">
        <ele>549.04998779297</ele>
        <time>2023-09-28T15:23:00.000Z</time>
      </trkpt>
      <trkpt lat="40.42559" lon="20.04662">
        <ele>548.57000732422</ele>
        <time>2023-09-28T15:22:58.000Z</time>
      </trkpt>
      <trkpt lat="40.42562" lon="20.04666">
        <ele>548.57000732422</ele>
        <time>2023-09-28T15:22:57.000Z</time>
      </trkpt>
      <trkpt lat="40.42568" lon="20.04669">
        <ele>549.04998779297</ele>
        <time>2023-09-28T15:22:56.000Z</time>
      </trkpt>
      <trkpt lat="40.42575" lon="20.04673">
        <ele>549.04998779297</ele>
        <time>2023-09-28T15:22:55.000Z</time>
      </trkpt>
      <trkpt lat="40.4258" lon="20.04675">
        <ele>549.53002929688</ele>
        <time>2023-09-28T15:22:54.000Z</time>
      </trkpt>
      <trkpt lat="40.42587" lon="20.04678">
        <ele>549.53002929688</ele>
        <time>2023-09-28T15:22:53.000Z</time>
      </trkpt>
      <trkpt lat="40.42597" lon="20.0468">
        <ele>549.53002929688</ele>
        <time>2023-09-28T15:22:52.000Z</time>
      </trkpt>
      <trkpt lat="40.42605" lon="20.0468">
        <ele>549.53002929688</ele>
        <time>2023-09-28T15:22:51.000Z</time>
      </trkpt>
      <trkpt lat="40.42614" lon="20.04677">
        <ele>549.53002929688</ele>
        <time>2023-09-28T15:22:50.000Z</time>
      </trkpt>
      <trkpt lat="40.42616" lon="20.04677">
        <ele>550.01000976562</ele>
        <time>2023-09-28T15:22:49.000Z</time>
      </trkpt>
      <trkpt lat="40.4263" lon="20.04669">
        <ele>550.48999023438</ele>
        <time>2023-09-28T15:22:48.000Z</time>
      </trkpt>
      <trkpt lat="40.42635" lon="20.04666">
        <ele>550.48999023438</ele>
        <time>2023-09-28T15:22:47.000Z</time>
      </trkpt>
      <trkpt lat="40.42643" lon="20.04659">
        <ele>550.96997070312</ele>
        <time>2023-09-28T15:22:46.000Z</time>
      </trkpt>
      <trkpt lat="40.42649" lon="20.04655">
        <ele>551.45001220703</ele>
        <time>2023-09-28T15:22:45.000Z</time>
      </trkpt>
      <trkpt lat="40.42654" lon="20.04651">
        <ele>551.92999267578</ele>
        <time>2023-09-28T15:22:44.000Z</time>
      </trkpt>
      <trkpt lat="40.42659" lon="20.04652">
        <ele>552.40997314453</ele>
        <time>2023-09-28T15:22:43.000Z</time>
      </trkpt>
      <trkpt lat="40.42664" lon="20.04655">
        <ele>553.38000488281</ele>
        <time>2023-09-28T15:22:42.000Z</time>
      </trkpt>
      <trkpt lat="40.42667" lon="20.0466">
        <ele>553.85998535156</ele>
        <time>2023-09-28T15:22:41.000Z</time>
      </trkpt>
      <trkpt lat="40.42668" lon="20.04665">
        <ele>554.34002685547</ele>
        <time>2023-09-28T15:22:40.000Z</time>
      </trkpt>
      <trkpt lat="40.42668" lon="20.04672">
        <ele>554.82000732422</ele>
        <time>2023-09-28T15:22:39.000Z</time>
      </trkpt>
      <trkpt lat="40.42665" lon="20.04677">
        <ele>555.29998779297</ele>
        <time>2023-09-28T15:22:38.000Z</time>
      </trkpt>
      <trkpt lat="40.42662" lon="20.04684">
        <ele>556.26000976562</ele>
        <time>2023-09-28T15:22:37.000Z</time>
      </trkpt>
      <trkpt lat="40.42659" lon="20.04689">
        <ele>556.73999023438</ele>
        <time>2023-09-28T15:22:36.000Z</time>
      </trkpt>
      <trkpt lat="40.42654" lon="20.04701">
        <ele>558.17999267578</ele>
        <time>2023-09-28T15:22:35.000Z</time>
      </trkpt>
      <trkpt lat="40.42651" lon="20.04708">
        <ele>558.65997314453</ele>
        <time>2023-09-28T15:22:34.000Z</time>
      </trkpt>
      <trkpt lat="40.42648" lon="20.04715">
        <ele>558.17999267578</ele>
        <time>2023-09-28T15:22:33.000Z</time>
      </trkpt>
      <trkpt lat="40.42646" lon="20.04724">
        <ele>558.65997314453</ele>
        <time>2023-09-28T15:22:32.000Z</time>
      </trkpt>
      <trkpt lat="40.42644" lon="20.04731">
        <ele>559.14001464844</ele>
        <time>2023-09-28T15:22:31.000Z</time>
      </trkpt>
      <trkpt lat="40.42641" lon="20.0474">
        <ele>560.10998535156</ele>
        <time>2023-09-28T15:22:30.000Z</time>
      </trkpt>
      <trkpt lat="40.42639" lon="20.04745">
        <ele>560.59002685547</ele>
        <time>2023-09-28T15:22:29.000Z</time>
      </trkpt>
      <trkpt lat="40.42633" lon="20.0476">
        <ele>562.03002929688</ele>
        <time>2023-09-28T15:22:28.000Z</time>
      </trkpt>
      <trkpt lat="40.42631" lon="20.04766">
        <ele>562.98999023438</ele>
        <time>2023-09-28T15:22:27.000Z</time>
      </trkpt>
      <trkpt lat="40.42628" lon="20.04775">
        <ele>563.46997070312</ele>
        <time>2023-09-28T15:22:26.000Z</time>
      </trkpt>
      <trkpt lat="40.42627" lon="20.04781">
        <ele>563.95001220703</ele>
        <time>2023-09-28T15:22:25.000Z</time>
      </trkpt>
      <trkpt lat="40.42627" lon="20.04785">
        <ele>564.42999267578</ele>
        <time>2023-09-28T15:22:24.000Z</time>
      </trkpt>
      <trkpt lat="40.42633" lon="20.04794">
        <ele>564.90997314453</ele>
        <time>2023-09-28T15:22:22.000Z</time>
      </trkpt>
      <trkpt lat="40.42636" lon="20.04795">
        <ele>565.39001464844</ele>
        <time>2023-09-28T15:22:21.000Z</time>
      </trkpt>
      <trkpt lat="40.42643" lon="20.04796">
        <ele>565.86999511719</ele>
        <time>2023-09-28T15:22:20.000Z</time>
      </trkpt>
      <trkpt lat="40.42661" lon="20.04799">
        <ele>567.32000732422</ele>
        <time>2023-09-28T15:22:18.000Z</time>
      </trkpt>
      <trkpt lat="40.42664" lon="20.048">
        <ele>567.32000732422</ele>
        <time>2023-09-28T15:22:17.000Z</time>
      </trkpt>
      <trkpt lat="40.42677" lon="20.04805">
        <ele>568.28002929688</ele>
        <time>2023-09-28T15:22:16.000Z</time>
      </trkpt>
      <trkpt lat="40.42683" lon="20.04808">
        <ele>568.76000976562</ele>
        <time>2023-09-28T15:22:15.000Z</time>
      </trkpt>
      <trkpt lat="40.42688" lon="20.04813">
        <ele>569.23999023438</ele>
        <time>2023-09-28T15:22:14.000Z</time>
      </trkpt>
      <trkpt lat="40.4269" lon="20.04818">
        <ele>569.71997070312</ele>
        <time>2023-09-28T15:22:13.000Z</time>
      </trkpt>
      <trkpt lat="40.42691" lon="20.04827">
        <ele>571.15997314453</ele>
        <time>2023-09-28T15:22:11.000Z</time>
      </trkpt>
      <trkpt lat="40.42688" lon="20.04832">
        <ele>571.15997314453</ele>
        <time>2023-09-28T15:22:10.000Z</time>
      </trkpt>
      <trkpt lat="40.42685" lon="20.04835">
        <ele>571.15997314453</ele>
        <time>2023-09-28T15:22:09.000Z</time>
      </trkpt>
      <trkpt lat="40.42678" lon="20.04842">
        <ele>571.64001464844</ele>
        <time>2023-09-28T15:22:08.000Z</time>
      </trkpt>
      <trkpt lat="40.42672" lon="20.0485">
        <ele>572.59997558594</ele>
        <time>2023-09-28T15:22:07.000Z</time>
      </trkpt>
      <trkpt lat="40.42665" lon="20.04859">
        <ele>573.08001708984</ele>
        <time>2023-09-28T15:22:06.000Z</time>
      </trkpt>
      <trkpt lat="40.42659" lon="20.04869">
        <ele>573.55999755859</ele>
        <time>2023-09-28T15:22:05.000Z</time>
      </trkpt>
      <trkpt lat="40.42657" lon="20.04873">
        <ele>573.55999755859</ele>
        <time>2023-09-28T15:22:04.000Z</time>
      </trkpt>
      <trkpt lat="40.42651" lon="20.04886">
        <ele>574.53002929688</ele>
        <time>2023-09-28T15:22:03.000Z</time>
      </trkpt>
      <trkpt lat="40.42644" lon="20.04898">
        <ele>575.48999023438</ele>
        <time>2023-09-28T15:22:02.000Z</time>
      </trkpt>
      <trkpt lat="40.42641" lon="20.04907">
        <ele>575.96997070312</ele>
        <time>2023-09-28T15:22:01.000Z</time>
      </trkpt>
      <trkpt lat="40.42639" lon="20.04914">
        <ele>576.45001220703</ele>
        <time>2023-09-28T15:22:00.000Z</time>
      </trkpt>
      <trkpt lat="40.42638" lon="20.0492">
        <ele>576.92999267578</ele>
        <time>2023-09-28T15:21:59.000Z</time>
      </trkpt>
      <trkpt lat="40.4264" lon="20.04927">
        <ele>577.40997314453</ele>
        <time>2023-09-28T15:21:58.000Z</time>
      </trkpt>
      <trkpt lat="40.42643" lon="20.04932">
        <ele>575.48999023438</ele>
        <time>2023-09-28T15:21:57.000Z</time>
      </trkpt>
      <trkpt lat="40.42649" lon="20.04935">
        <ele>575.48999023438</ele>
        <time>2023-09-28T15:21:56.000Z</time>
      </trkpt>
      <trkpt lat="40.42656" lon="20.04937">
        <ele>575.48999023438</ele>
        <time>2023-09-28T15:21:55.000Z</time>
      </trkpt>
      <trkpt lat="40.42664" lon="20.04937">
        <ele>575.48999023438</ele>
        <time>2023-09-28T15:21:54.000Z</time>
      </trkpt>
      <trkpt lat="40.42674" lon="20.04935">
        <ele>575.96997070312</ele>
        <time>2023-09-28T15:21:53.000Z</time>
      </trkpt>
      <trkpt lat="40.42682" lon="20.04931">
        <ele>575.96997070312</ele>
        <time>2023-09-28T15:21:52.000Z</time>
      </trkpt>
      <trkpt lat="40.42691" lon="20.04929">
        <ele>576.45001220703</ele>
        <time>2023-09-28T15:21:51.000Z</time>
      </trkpt>
      <trkpt lat="40.42699" lon="20.04927">
        <ele>576.45001220703</ele>
        <time>2023-09-28T15:21:50.000Z</time>
      </trkpt>
      <trkpt lat="40.42706" lon="20.04927">
        <ele>576.92999267578</ele>
        <time>2023-09-28T15:21:49.000Z</time>
      </trkpt>
      <trkpt lat="40.42714" lon="20.04929">
        <ele>577.40997314453</ele>
        <time>2023-09-28T15:21:48.000Z</time>
      </trkpt>
      <trkpt lat="40.42723" lon="20.04933">
        <ele>577.40997314453</ele>
        <time>2023-09-28T15:21:47.000Z</time>
      </trkpt>
      <trkpt lat="40.42729" lon="20.04935">
        <ele>577.89001464844</ele>
        <time>2023-09-28T15:21:46.000Z</time>
      </trkpt>
      <trkpt lat="40.42742" lon="20.0494">
        <ele>578.36999511719</ele>
        <time>2023-09-28T15:21:45.000Z</time>
      </trkpt>
      <trkpt lat="40.42752" lon="20.04941">
        <ele>578.36999511719</ele>
        <time>2023-09-28T15:21:44.000Z</time>
      </trkpt>
      <trkpt lat="40.42762" lon="20.0494">
        <ele>578.84997558594</ele>
        <time>2023-09-28T15:21:43.000Z</time>
      </trkpt>
      <trkpt lat="40.42768" lon="20.04939">
        <ele>579.33001708984</ele>
        <time>2023-09-28T15:21:42.000Z</time>
      </trkpt>
      <trkpt lat="40.42778" lon="20.04937">
        <ele>579.80999755859</ele>
        <time>2023-09-28T15:21:41.000Z</time>
      </trkpt>
      <trkpt lat="40.42787" lon="20.04936">
        <ele>580.28997802734</ele>
        <time>2023-09-28T15:21:40.000Z</time>
      </trkpt>
      <trkpt lat="40.42794" lon="20.04937">
        <ele>580.77001953125</ele>
        <time>2023-09-28T15:21:39.000Z</time>
      </trkpt>
      <trkpt lat="40.428" lon="20.04939">
        <ele>581.25</ele>
        <time>2023-09-28T15:21:38.000Z</time>
      </trkpt>
      <trkpt lat="40.42804" lon="20.04944">
        <ele>581.72998046875</ele>
        <time>2023-09-28T15:21:37.000Z</time>
      </trkpt>
      <trkpt lat="40.42807" lon="20.0495">
        <ele>582.70001220703</ele>
        <time>2023-09-28T15:21:36.000Z</time>
      </trkpt>
      <trkpt lat="40.4281" lon="20.04957">
        <ele>583.65997314453</ele>
        <time>2023-09-28T15:21:35.000Z</time>
      </trkpt>
      <trkpt lat="40.42811" lon="20.04965">
        <ele>584.14001464844</ele>
        <time>2023-09-28T15:21:34.000Z</time>
      </trkpt>
      <trkpt lat="40.42812" lon="20.04975">
        <ele>585.09997558594</ele>
        <time>2023-09-28T15:21:33.000Z</time>
      </trkpt>
      <trkpt lat="40.42812" lon="20.04982">
        <ele>585.58001708984</ele>
        <time>2023-09-28T15:21:32.000Z</time>
      </trkpt>
      <trkpt lat="40.42813" lon="20.04994">
        <ele>586.53997802734</ele>
        <time>2023-09-28T15:21:31.000Z</time>
      </trkpt>
      <trkpt lat="40.42813" lon="20.05002">
        <ele>587.5</ele>
        <time>2023-09-28T15:21:30.000Z</time>
      </trkpt>
      <trkpt lat="40.42815" lon="20.05021">
        <ele>589.42999267578</ele>
        <time>2023-09-28T15:21:28.000Z</time>
      </trkpt>
      <trkpt lat="40.42816" lon="20.0503">
        <ele>590.39001464844</ele>
        <time>2023-09-28T15:21:27.000Z</time>
      </trkpt>
      <trkpt lat="40.42816" lon="20.05039">
        <ele>590.86999511719</ele>
        <time>2023-09-28T15:21:26.000Z</time>
      </trkpt>
      <trkpt lat="40.42816" lon="20.05043">
        <ele>591.34997558594</ele>
        <time>2023-09-28T15:21:25.000Z</time>
      </trkpt>
      <trkpt lat="40.42817" lon="20.05054">
        <ele>592.30999755859</ele>
        <time>2023-09-28T15:21:24.000Z</time>
      </trkpt>
      <trkpt lat="40.42819" lon="20.05062">
        <ele>592.78997802734</ele>
        <time>2023-09-28T15:21:23.000Z</time>
      </trkpt>
      <trkpt lat="40.42823" lon="20.05071">
        <ele>593.27001953125</ele>
        <time>2023-09-28T15:21:22.000Z</time>
      </trkpt>
      <trkpt lat="40.42828" lon="20.05078">
        <ele>593.75</ele>
        <time>2023-09-28T15:21:21.000Z</time>
      </trkpt>
      <trkpt lat="40.42833" lon="20.05083">
        <ele>594.22998046875</ele>
        <time>2023-09-28T15:21:20.000Z</time>
      </trkpt>
      <trkpt lat="40.4284" lon="20.05089">
        <ele>595.19000244141</ele>
        <time>2023-09-28T15:21:19.000Z</time>
      </trkpt>
      <trkpt lat="40.42845" lon="20.05095">
        <ele>596.15002441406</ele>
        <time>2023-09-28T15:21:18.000Z</time>
      </trkpt>
      <trkpt lat="40.42849" lon="20.05102">
        <ele>596.64001464844</ele>
        <time>2023-09-28T15:21:17.000Z</time>
      </trkpt>
      <trkpt lat="40.4285" lon="20.05109">
        <ele>597.11999511719</ele>
        <time>2023-09-28T15:21:16.000Z</time>
      </trkpt>
      <trkpt lat="40.42851" lon="20.05117">
        <ele>597.59997558594</ele>
        <time>2023-09-28T15:21:15.000Z</time>
      </trkpt>
      <trkpt lat="40.4285" lon="20.05125">
        <ele>598.55999755859</ele>
        <time>2023-09-28T15:21:14.000Z</time>
      </trkpt>
      <trkpt lat="40.42848" lon="20.05134">
        <ele>599.03997802734</ele>
        <time>2023-09-28T15:21:13.000Z</time>
      </trkpt>
      <trkpt lat="40.42843" lon="20.05142">
        <ele>600</ele>
        <time>2023-09-28T15:21:12.000Z</time>
      </trkpt>
      <trkpt lat="40.42837" lon="20.05149">
        <ele>600.96002197266</ele>
        <time>2023-09-28T15:21:11.000Z</time>
      </trkpt>
      <trkpt lat="40.4283" lon="20.05155">
        <ele>601.44000244141</ele>
        <time>2023-09-28T15:21:10.000Z</time>
      </trkpt>
      <trkpt lat="40.42824" lon="20.05161">
        <ele>601.91998291016</ele>
        <time>2023-09-28T15:21:09.000Z</time>
      </trkpt>
      <trkpt lat="40.42816" lon="20.05167">
        <ele>602.88000488281</ele>
        <time>2023-09-28T15:21:08.000Z</time>
      </trkpt>
      <trkpt lat="40.4281" lon="20.05173">
        <ele>603.35998535156</ele>
        <time>2023-09-28T15:21:07.000Z</time>
      </trkpt>
      <trkpt lat="40.42802" lon="20.05181">
        <ele>604.33001708984</ele>
        <time>2023-09-28T15:21:06.000Z</time>
      </trkpt>
      <trkpt lat="40.42796" lon="20.05187">
        <ele>605.28997802734</ele>
        <time>2023-09-28T15:21:05.000Z</time>
      </trkpt>
      <trkpt lat="40.42786" lon="20.05196">
        <ele>606.25</ele>
        <time>2023-09-28T15:21:04.000Z</time>
      </trkpt>
      <trkpt lat="40.4278" lon="20.05202">
        <ele>607.21002197266</ele>
        <time>2023-09-28T15:21:03.000Z</time>
      </trkpt>
      <trkpt lat="40.42772" lon="20.05208">
        <ele>607.69000244141</ele>
        <time>2023-09-28T15:21:02.000Z</time>
      </trkpt>
      <trkpt lat="40.42767" lon="20.05212">
        <ele>608.16998291016</ele>
        <time>2023-09-28T15:21:01.000Z</time>
      </trkpt>
      <trkpt lat="40.42757" lon="20.05219">
        <ele>608.65002441406</ele>
        <time>2023-09-28T15:21:00.000Z</time>
      </trkpt>
      <trkpt lat="40.4275" lon="20.05225">
        <ele>609.60998535156</ele>
        <time>2023-09-28T15:20:59.000Z</time>
      </trkpt>
      <trkpt lat="40.42743" lon="20.05232">
        <ele>610.09002685547</ele>
        <time>2023-09-28T15:20:58.000Z</time>
      </trkpt>
      <trkpt lat="40.4274" lon="20.05235">
        <ele>610.09002685547</ele>
        <time>2023-09-28T15:20:57.000Z</time>
      </trkpt>
      <trkpt lat="40.42729" lon="20.05247">
        <ele>611.05999755859</ele>
        <time>2023-09-28T15:20:56.000Z</time>
      </trkpt>
      <trkpt lat="40.42723" lon="20.05253">
        <ele>611.53997802734</ele>
        <time>2023-09-28T15:20:55.000Z</time>
      </trkpt>
      <trkpt lat="40.42715" lon="20.05261">
        <ele>612.02001953125</ele>
        <time>2023-09-28T15:20:54.000Z</time>
      </trkpt>
      <trkpt lat="40.42709" lon="20.05265">
        <ele>612.02001953125</ele>
        <time>2023-09-28T15:20:53.000Z</time>
      </trkpt>
      <trkpt lat="40.42699" lon="20.05271">
        <ele>612.97998046875</ele>
        <time>2023-09-28T15:20:52.000Z</time>
      </trkpt>
      <trkpt lat="40.42697" lon="20.05273">
        <ele>612.97998046875</ele>
        <time>2023-09-28T15:20:51.000Z</time>
      </trkpt>
      <trkpt lat="40.42684" lon="20.05282">
        <ele>612.97998046875</ele>
        <time>2023-09-28T15:20:50.000Z</time>
      </trkpt>
      <trkpt lat="40.42676" lon="20.05288">
        <ele>612.97998046875</ele>
        <time>2023-09-28T15:20:49.000Z</time>
      </trkpt>
      <trkpt lat="40.42669" lon="20.05292">
        <ele>612.97998046875</ele>
        <time>2023-09-28T15:20:48.000Z</time>
      </trkpt>
      <trkpt lat="40.42661" lon="20.05298">
        <ele>613.46002197266</ele>
        <time>2023-09-28T15:20:47.000Z</time>
      </trkpt>
      <trkpt lat="40.42654" lon="20.05303">
        <ele>613.46002197266</ele>
        <time>2023-09-28T15:20:46.000Z</time>
      </trkpt>
      <trkpt lat="40.42647" lon="20.05307">
        <ele>612.97998046875</ele>
        <time>2023-09-28T15:20:45.000Z</time>
      </trkpt>
      <trkpt lat="40.4264" lon="20.0531">
        <ele>612.5</ele>
        <time>2023-09-28T15:20:44.000Z</time>
      </trkpt>
      <trkpt lat="40.42629" lon="20.05314">
        <ele>612.5</ele>
        <time>2023-09-28T15:20:43.000Z</time>
      </trkpt>
      <trkpt lat="40.42618" lon="20.05316">
        <ele>612.5</ele>
        <time>2023-09-28T15:20:42.000Z</time>
      </trkpt>
      <trkpt lat="40.42608" lon="20.05319">
        <ele>612.5</ele>
        <time>2023-09-28T15:20:41.000Z</time>
      </trkpt>
      <trkpt lat="40.42607" lon="20.0532">
        <ele>612.5</ele>
        <time>2023-09-28T15:20:40.000Z</time>
      </trkpt>
      <trkpt lat="40.42594" lon="20.05325">
        <ele>612.97998046875</ele>
        <time>2023-09-28T15:20:39.000Z</time>
      </trkpt>
      <trkpt lat="40.42585" lon="20.05329">
        <ele>612.97998046875</ele>
        <time>2023-09-28T15:20:38.000Z</time>
      </trkpt>
      <trkpt lat="40.42574" lon="20.05333">
        <ele>612.5</ele>
        <time>2023-09-28T15:20:37.000Z</time>
      </trkpt>
      <trkpt lat="40.42568" lon="20.05336">
        <ele>612.5</ele>
        <time>2023-09-28T15:20:36.000Z</time>
      </trkpt>
      <trkpt lat="40.42561" lon="20.0534">
        <ele>612.5</ele>
        <time>2023-09-28T15:20:35.000Z</time>
      </trkpt>
      <trkpt lat="40.42553" lon="20.05345">
        <ele>612.02001953125</ele>
        <time>2023-09-28T15:20:34.000Z</time>
      </trkpt>
      <trkpt lat="40.42548" lon="20.05348">
        <ele>611.53997802734</ele>
        <time>2023-09-28T15:20:33.000Z</time>
      </trkpt>
      <trkpt lat="40.42543" lon="20.05352">
        <ele>611.05999755859</ele>
        <time>2023-09-28T15:20:32.000Z</time>
      </trkpt>
      <trkpt lat="40.42539" lon="20.05356">
        <ele>611.05999755859</ele>
        <time>2023-09-28T15:20:31.000Z</time>
      </trkpt>
      <trkpt lat="40.42537" lon="20.0536">
        <ele>611.05999755859</ele>
        <time>2023-09-28T15:20:30.000Z</time>
      </trkpt>
      <trkpt lat="40.42535" lon="20.05366">
        <ele>611.05999755859</ele>
        <time>2023-09-28T15:20:29.000Z</time>
      </trkpt>
      <trkpt lat="40.42534" lon="20.05373">
        <ele>611.05999755859</ele>
        <time>2023-09-28T15:20:28.000Z</time>
      </trkpt>
      <trkpt lat="40.42536" lon="20.0538">
        <ele>611.05999755859</ele>
        <time>2023-09-28T15:20:27.000Z</time>
      </trkpt>
      <trkpt lat="40.42538" lon="20.05385">
        <ele>611.05999755859</ele>
        <time>2023-09-28T15:20:26.000Z</time>
      </trkpt>
      <trkpt lat="40.42541" lon="20.05389">
        <ele>611.05999755859</ele>
        <time>2023-09-28T15:20:25.000Z</time>
      </trkpt>
      <trkpt lat="40.42547" lon="20.05392">
        <ele>611.53997802734</ele>
        <time>2023-09-28T15:20:24.000Z</time>
      </trkpt>
      <trkpt lat="40.42551" lon="20.05394">
        <ele>611.53997802734</ele>
        <time>2023-09-28T15:20:23.000Z</time>
      </trkpt>
      <trkpt lat="40.42562" lon="20.05396">
        <ele>612.02001953125</ele>
        <time>2023-09-28T15:20:22.000Z</time>
      </trkpt>
      <trkpt lat="40.42569" lon="20.05398">
        <ele>612.02001953125</ele>
        <time>2023-09-28T15:20:21.000Z</time>
      </trkpt>
      <trkpt lat="40.42581" lon="20.05402">
        <ele>612.02001953125</ele>
        <time>2023-09-28T15:20:20.000Z</time>
      </trkpt>
      <trkpt lat="40.42588" lon="20.05406">
        <ele>612.02001953125</ele>
        <time>2023-09-28T15:20:19.000Z</time>
      </trkpt>
      <trkpt lat="40.42597" lon="20.05412">
        <ele>612.02001953125</ele>
        <time>2023-09-28T15:20:18.000Z</time>
      </trkpt>
      <trkpt lat="40.42606" lon="20.05418">
        <ele>612.5</ele>
        <time>2023-09-28T15:20:17.000Z</time>
      </trkpt>
      <trkpt lat="40.42613" lon="20.05423">
        <ele>612.5</ele>
        <time>2023-09-28T15:20:16.000Z</time>
      </trkpt>
      <trkpt lat="40.42623" lon="20.05426">
        <ele>612.02001953125</ele>
        <time>2023-09-28T15:20:15.000Z</time>
      </trkpt>
      <trkpt lat="40.42632" lon="20.05428">
        <ele>611.53997802734</ele>
        <time>2023-09-28T15:20:14.000Z</time>
      </trkpt>
      <trkpt lat="40.42637" lon="20.05427">
        <ele>611.53997802734</ele>
        <time>2023-09-28T15:20:13.000Z</time>
      </trkpt>
      <trkpt lat="40.42647" lon="20.05426">
        <ele>611.53997802734</ele>
        <time>2023-09-28T15:20:12.000Z</time>
      </trkpt>
      <trkpt lat="40.42654" lon="20.05426">
        <ele>611.53997802734</ele>
        <time>2023-09-28T15:20:11.000Z</time>
      </trkpt>
      <trkpt lat="40.42663" lon="20.05427">
        <ele>611.53997802734</ele>
        <time>2023-09-28T15:20:10.000Z</time>
      </trkpt>
      <trkpt lat="40.42671" lon="20.05428">
        <ele>611.05999755859</ele>
        <time>2023-09-28T15:20:09.000Z</time>
      </trkpt>
      <trkpt lat="40.42675" lon="20.05429">
        <ele>611.05999755859</ele>
        <time>2023-09-28T15:20:08.000Z</time>
      </trkpt>
      <trkpt lat="40.42689" lon="20.05433">
        <ele>610.57000732422</ele>
        <time>2023-09-28T15:20:07.000Z</time>
      </trkpt>
      <trkpt lat="40.42697" lon="20.05437">
        <ele>610.57000732422</ele>
        <time>2023-09-28T15:20:06.000Z</time>
      </trkpt>
      <trkpt lat="40.42701" lon="20.0544">
        <ele>610.57000732422</ele>
        <time>2023-09-28T15:20:05.000Z</time>
      </trkpt>
      <trkpt lat="40.42711" lon="20.05449">
        <ele>610.09002685547</ele>
        <time>2023-09-28T15:20:04.000Z</time>
      </trkpt>
      <trkpt lat="40.42718" lon="20.05453">
        <ele>610.09002685547</ele>
        <time>2023-09-28T15:20:03.000Z</time>
      </trkpt>
      <trkpt lat="40.42725" lon="20.05456">
        <ele>610.09002685547</ele>
        <time>2023-09-28T15:20:02.000Z</time>
      </trkpt>
      <trkpt lat="40.42732" lon="20.05455">
        <ele>610.57000732422</ele>
        <time>2023-09-28T15:20:01.000Z</time>
      </trkpt>
      <trkpt lat="40.42738" lon="20.05452">
        <ele>610.57000732422</ele>
        <time>2023-09-28T15:20:00.000Z</time>
      </trkpt>
      <trkpt lat="40.42746" lon="20.05446">
        <ele>611.05999755859</ele>
        <time>2023-09-28T15:19:59.000Z</time>
      </trkpt>
      <trkpt lat="40.42753" lon="20.05442">
        <ele>611.53997802734</ele>
        <time>2023-09-28T15:19:58.000Z</time>
      </trkpt>
      <trkpt lat="40.4276" lon="20.05441">
        <ele>612.02001953125</ele>
        <time>2023-09-28T15:19:57.000Z</time>
      </trkpt>
      <trkpt lat="40.42765" lon="20.05442">
        <ele>612.02001953125</ele>
        <time>2023-09-28T15:19:56.000Z</time>
      </trkpt>
      <trkpt lat="40.42771" lon="20.05445">
        <ele>612.5</ele>
        <time>2023-09-28T15:19:55.000Z</time>
      </trkpt>
      <trkpt lat="40.42775" lon="20.05451">
        <ele>612.97998046875</ele>
        <time>2023-09-28T15:19:54.000Z</time>
      </trkpt>
      <trkpt lat="40.42778" lon="20.05456">
        <ele>612.97998046875</ele>
        <time>2023-09-28T15:19:53.000Z</time>
      </trkpt>
      <trkpt lat="40.42783" lon="20.05467">
        <ele>613.46002197266</ele>
        <time>2023-09-28T15:19:52.000Z</time>
      </trkpt>
      <trkpt lat="40.42787" lon="20.05474">
        <ele>613.46002197266</ele>
        <time>2023-09-28T15:19:51.000Z</time>
      </trkpt>
      <trkpt lat="40.42792" lon="20.05478">
        <ele>613.46002197266</ele>
        <time>2023-09-28T15:19:50.000Z</time>
      </trkpt>
      <trkpt lat="40.42799" lon="20.05479">
        <ele>613.46002197266</ele>
        <time>2023-09-28T15:19:49.000Z</time>
      </trkpt>
      <trkpt lat="40.42807" lon="20.05479">
        <ele>613.46002197266</ele>
        <time>2023-09-28T15:19:48.000Z</time>
      </trkpt>
      <trkpt lat="40.42815" lon="20.05475">
        <ele>613.46002197266</ele>
        <time>2023-09-28T15:19:47.000Z</time>
      </trkpt>
      <trkpt lat="40.42822" lon="20.05469">
        <ele>613.46002197266</ele>
        <time>2023-09-28T15:19:46.000Z</time>
      </trkpt>
      <trkpt lat="40.42827" lon="20.05462">
        <ele>613.94000244141</ele>
        <time>2023-09-28T15:19:45.000Z</time>
      </trkpt>
      <trkpt lat="40.42838" lon="20.05442">
        <ele>614.41998291016</ele>
        <time>2023-09-28T15:19:43.000Z</time>
      </trkpt>
      <trkpt lat="40.42845" lon="20.05433">
        <ele>614.41998291016</ele>
        <time>2023-09-28T15:19:42.000Z</time>
      </trkpt>
      <trkpt lat="40.42854" lon="20.05424">
        <ele>614.41998291016</ele>
        <time>2023-09-28T15:19:41.000Z</time>
      </trkpt>
      <trkpt lat="40.4286" lon="20.05419">
        <ele>614.90002441406</ele>
        <time>2023-09-28T15:19:40.000Z</time>
      </trkpt>
      <trkpt lat="40.42869" lon="20.05413">
        <ele>615.38000488281</ele>
        <time>2023-09-28T15:19:39.000Z</time>
      </trkpt>
      <trkpt lat="40.42876" lon="20.05409">
        <ele>615.38000488281</ele>
        <time>2023-09-28T15:19:38.000Z</time>
      </trkpt>
      <trkpt lat="40.42884" lon="20.05406">
        <ele>615.85998535156</ele>
        <time>2023-09-28T15:19:37.000Z</time>
      </trkpt>
      <trkpt lat="40.42894" lon="20.05403">
        <ele>616.34002685547</ele>
        <time>2023-09-28T15:19:36.000Z</time>
      </trkpt>
      <trkpt lat="40.42902" lon="20.05403">
        <ele>616.82000732422</ele>
        <time>2023-09-28T15:19:35.000Z</time>
      </trkpt>
      <trkpt lat="40.4291" lon="20.05403">
        <ele>616.82000732422</ele>
        <time>2023-09-28T15:19:34.000Z</time>
      </trkpt>
      <trkpt lat="40.42916" lon="20.05405">
        <ele>617.29998779297</ele>
        <time>2023-09-28T15:19:33.000Z</time>
      </trkpt>
      <trkpt lat="40.42923" lon="20.05408">
        <ele>617.78002929688</ele>
        <time>2023-09-28T15:19:32.000Z</time>
      </trkpt>
      <trkpt lat="40.42929" lon="20.05412">
        <ele>617.78002929688</ele>
        <time>2023-09-28T15:19:31.000Z</time>
      </trkpt>
      <trkpt lat="40.42933" lon="20.05417">
        <ele>617.78002929688</ele>
        <time>2023-09-28T15:19:30.000Z</time>
      </trkpt>
      <trkpt lat="40.42937" lon="20.05423">
        <ele>617.78002929688</ele>
        <time>2023-09-28T15:19:29.000Z</time>
      </trkpt>
      <trkpt lat="40.42942" lon="20.05433">
        <ele>618.26000976562</ele>
        <time>2023-09-28T15:19:28.000Z</time>
      </trkpt>
      <trkpt lat="40.42945" lon="20.05442">
        <ele>618.75</ele>
        <time>2023-09-28T15:19:27.000Z</time>
      </trkpt>
      <trkpt lat="40.42947" lon="20.05448">
        <ele>619.22998046875</ele>
        <time>2023-09-28T15:19:26.000Z</time>
      </trkpt>
      <trkpt lat="40.42951" lon="20.05461">
        <ele>619.71002197266</ele>
        <time>2023-09-28T15:19:25.000Z</time>
      </trkpt>
      <trkpt lat="40.42955" lon="20.05472">
        <ele>619.71002197266</ele>
        <time>2023-09-28T15:19:24.000Z</time>
      </trkpt>
      <trkpt lat="40.42958" lon="20.05479">
        <ele>620.19000244141</ele>
        <time>2023-09-28T15:19:23.000Z</time>
      </trkpt>
      <trkpt lat="40.42963" lon="20.05489">
        <ele>620.19000244141</ele>
        <time>2023-09-28T15:19:22.000Z</time>
      </trkpt>
      <trkpt lat="40.42966" lon="20.05496">
        <ele>620.66998291016</ele>
        <time>2023-09-28T15:19:21.000Z</time>
      </trkpt>
      <trkpt lat="40.42968" lon="20.05506">
        <ele>620.66998291016</ele>
        <time>2023-09-28T15:19:20.000Z</time>
      </trkpt>
      <trkpt lat="40.42968" lon="20.05517">
        <ele>621.63000488281</ele>
        <time>2023-09-28T15:19:19.000Z</time>
      </trkpt>
      <trkpt lat="40.42968" lon="20.05527">
        <ele>622.59002685547</ele>
        <time>2023-09-28T15:19:18.000Z</time>
      </trkpt>
      <trkpt lat="40.42967" lon="20.05537">
        <ele>623.07000732422</ele>
        <time>2023-09-28T15:19:17.000Z</time>
      </trkpt>
      <trkpt lat="40.42967" lon="20.05548">
        <ele>623.54998779297</ele>
        <time>2023-09-28T15:19:16.000Z</time>
      </trkpt>
      <trkpt lat="40.42968" lon="20.05557">
        <ele>623.54998779297</ele>
        <time>2023-09-28T15:19:15.000Z</time>
      </trkpt>
      <trkpt lat="40.42971" lon="20.05565">
        <ele>624.03002929688</ele>
        <time>2023-09-28T15:19:14.000Z</time>
      </trkpt>
      <trkpt lat="40.42973" lon="20.05571">
        <ele>623.54998779297</ele>
        <time>2023-09-28T15:19:13.000Z</time>
      </trkpt>
      <trkpt lat="40.42979" lon="20.05577">
        <ele>624.03002929688</ele>
        <time>2023-09-28T15:19:12.000Z</time>
      </trkpt>
      <trkpt lat="40.42984" lon="20.05581">
        <ele>624.03002929688</ele>
        <time>2023-09-28T15:19:11.000Z</time>
      </trkpt>
      <trkpt lat="40.42992" lon="20.05584">
        <ele>624.51000976562</ele>
        <time>2023-09-28T15:19:10.000Z</time>
      </trkpt>
      <trkpt lat="40.43" lon="20.05587">
        <ele>624.51000976562</ele>
        <time>2023-09-28T15:19:09.000Z</time>
      </trkpt>
      <trkpt lat="40.43009" lon="20.05588">
        <ele>624.98999023438</ele>
        <time>2023-09-28T15:19:08.000Z</time>
      </trkpt>
      <trkpt lat="40.43019" lon="20.05588">
        <ele>625.46997070312</ele>
        <time>2023-09-28T15:19:07.000Z</time>
      </trkpt>
      <trkpt lat="40.43025" lon="20.05587">
        <ele>625.46997070312</ele>
        <time>2023-09-28T15:19:06.000Z</time>
      </trkpt>
      <trkpt lat="40.43032" lon="20.05586">
        <ele>625.46997070312</ele>
        <time>2023-09-28T15:19:05.000Z</time>
      </trkpt>
      <trkpt lat="40.43061" lon="20.0558">
        <ele>624.98999023438</ele>
        <time>2023-09-28T15:19:03.000Z</time>
      </trkpt>
      <trkpt lat="40.43071" lon="20.05578">
        <ele>624.98999023438</ele>
        <time>2023-09-28T15:19:02.000Z</time>
      </trkpt>
      <trkpt lat="40.43086" lon="20.05579">
        <ele>624.51000976562</ele>
        <time>2023-09-28T15:19:01.000Z</time>
      </trkpt>
      <trkpt lat="40.43093" lon="20.0558">
        <ele>624.51000976562</ele>
        <time>2023-09-28T15:19:00.000Z</time>
      </trkpt>
      <trkpt lat="40.43113" lon="20.05585">
        <ele>623.54998779297</ele>
        <time>2023-09-28T15:18:58.000Z</time>
      </trkpt>
      <trkpt lat="40.43126" lon="20.05588">
        <ele>623.07000732422</ele>
        <time>2023-09-28T15:18:57.000Z</time>
      </trkpt>
      <trkpt lat="40.43132" lon="20.05589">
        <ele>623.07000732422</ele>
        <time>2023-09-28T15:18:56.000Z</time>
      </trkpt>
      <trkpt lat="40.43145" lon="20.05593">
        <ele>622.59002685547</ele>
        <time>2023-09-28T15:18:55.000Z</time>
      </trkpt>
      <trkpt lat="40.43164" lon="20.05599">
        <ele>622.10998535156</ele>
        <time>2023-09-28T15:18:54.000Z</time>
      </trkpt>
      <trkpt lat="40.43184" lon="20.05607">
        <ele>622.10998535156</ele>
        <time>2023-09-28T15:18:52.000Z</time>
      </trkpt>
      <trkpt lat="40.43191" lon="20.0561">
        <ele>621.63000488281</ele>
        <time>2023-09-28T15:18:51.000Z</time>
      </trkpt>
      <trkpt lat="40.4321" lon="20.05619">
        <ele>622.59002685547</ele>
        <time>2023-09-28T15:18:50.000Z</time>
      </trkpt>
      <trkpt lat="40.43218" lon="20.05623">
        <ele>622.59002685547</ele>
        <time>2023-09-28T15:18:49.000Z</time>
      </trkpt>
      <trkpt lat="40.43229" lon="20.05628">
        <ele>623.54998779297</ele>
        <time>2023-09-28T15:18:48.000Z</time>
      </trkpt>
      <trkpt lat="40.43238" lon="20.05634">
        <ele>624.03002929688</ele>
        <time>2023-09-28T15:18:47.000Z</time>
      </trkpt>
      <trkpt lat="40.43246" lon="20.0564">
        <ele>624.98999023438</ele>
        <time>2023-09-28T15:18:46.000Z</time>
      </trkpt>
      <trkpt lat="40.43253" lon="20.05646">
        <ele>625.96002197266</ele>
        <time>2023-09-28T15:18:45.000Z</time>
      </trkpt>
      <trkpt lat="40.43259" lon="20.05652">
        <ele>626.91998291016</ele>
        <time>2023-09-28T15:18:44.000Z</time>
      </trkpt>
      <trkpt lat="40.43266" lon="20.05657">
        <ele>627.40002441406</ele>
        <time>2023-09-28T15:18:43.000Z</time>
      </trkpt>
      <trkpt lat="40.43272" lon="20.05662">
        <ele>627.88000488281</ele>
        <time>2023-09-28T15:18:42.000Z</time>
      </trkpt>
      <trkpt lat="40.4328" lon="20.05668">
        <ele>628.84002685547</ele>
        <time>2023-09-28T15:18:41.000Z</time>
      </trkpt>
      <trkpt lat="40.43289" lon="20.05675">
        <ele>629.32000732422</ele>
        <time>2023-09-28T15:18:40.000Z</time>
      </trkpt>
      <trkpt lat="40.43304" lon="20.05687">
        <ele>630.76000976562</ele>
        <time>2023-09-28T15:18:38.000Z</time>
      </trkpt>
      <trkpt lat="40.4331" lon="20.05693">
        <ele>631.71997070312</ele>
        <time>2023-09-28T15:18:37.000Z</time>
      </trkpt>
      <trkpt lat="40.43316" lon="20.05699">
        <ele>632.20001220703</ele>
        <time>2023-09-28T15:18:36.000Z</time>
      </trkpt>
      <trkpt lat="40.43321" lon="20.05705">
        <ele>633.16998291016</ele>
        <time>2023-09-28T15:18:35.000Z</time>
      </trkpt>
      <trkpt lat="40.43327" lon="20.05712">
        <ele>634.13000488281</ele>
        <time>2023-09-28T15:18:34.000Z</time>
      </trkpt>
      <trkpt lat="40.43334" lon="20.0572">
        <ele>635.09002685547</ele>
        <time>2023-09-28T15:18:33.000Z</time>
      </trkpt>
      <trkpt lat="40.4334" lon="20.05727">
        <ele>635.57000732422</ele>
        <time>2023-09-28T15:18:32.000Z</time>
      </trkpt>
      <trkpt lat="40.4335" lon="20.05736">
        <ele>636.53002929688</ele>
        <time>2023-09-28T15:18:31.000Z</time>
      </trkpt>
      <trkpt lat="40.43359" lon="20.05744">
        <ele>637.01000976562</ele>
        <time>2023-09-28T15:18:30.000Z</time>
      </trkpt>
      <trkpt lat="40.43368" lon="20.0575">
        <ele>637.48999023438</ele>
        <time>2023-09-28T15:18:29.000Z</time>
      </trkpt>
      <trkpt lat="40.43374" lon="20.05756">
        <ele>637.96997070312</ele>
        <time>2023-09-28T15:18:28.000Z</time>
      </trkpt>
      <trkpt lat="40.43381" lon="20.05763">
        <ele>638.45001220703</ele>
        <time>2023-09-28T15:18:27.000Z</time>
      </trkpt>
      <trkpt lat="40.43388" lon="20.05772">
        <ele>638.92999267578</ele>
        <time>2023-09-28T15:18:26.000Z</time>
      </trkpt>
      <trkpt lat="40.4339" lon="20.05774">
        <ele>638.92999267578</ele>
        <time>2023-09-28T15:18:25.000Z</time>
      </trkpt>
      <trkpt lat="40.434" lon="20.05789">
        <ele>639.89001464844</ele>
        <time>2023-09-28T15:18:24.000Z</time>
      </trkpt>
      <trkpt lat="40.43403" lon="20.05794">
        <ele>639.89001464844</ele>
        <time>2023-09-28T15:18:23.000Z</time>
      </trkpt>
      <trkpt lat="40.4341" lon="20.05807">
        <ele>640.38000488281</ele>
        <time>2023-09-28T15:18:22.000Z</time>
      </trkpt>
      <trkpt lat="40.43414" lon="20.05815">
        <ele>640.85998535156</ele>
        <time>2023-09-28T15:18:21.000Z</time>
      </trkpt>
      <trkpt lat="40.43418" lon="20.05825">
        <ele>641.82000732422</ele>
        <time>2023-09-28T15:18:20.000Z</time>
      </trkpt>
      <trkpt lat="40.4342" lon="20.05829">
        <ele>641.82000732422</ele>
        <time>2023-09-28T15:18:19.000Z</time>
      </trkpt>
      <trkpt lat="40.43425" lon="20.05841">
        <ele>642.78002929688</ele>
        <time>2023-09-28T15:18:18.000Z</time>
      </trkpt>
      <trkpt lat="40.43427" lon="20.05847">
        <ele>643.26000976562</ele>
        <time>2023-09-28T15:18:17.000Z</time>
      </trkpt>
      <trkpt lat="40.43431" lon="20.05851">
        <ele>643.26000976562</ele>
        <time>2023-09-28T15:18:16.000Z</time>
      </trkpt>
      <trkpt lat="40.43432" lon="20.05853">
        <ele>643.73999023438</ele>
        <time>2023-09-28T15:18:15.000Z</time>
      </trkpt>
      <trkpt lat="40.43439" lon="20.05855">
        <ele>644.21997070312</ele>
        <time>2023-09-28T15:18:14.000Z</time>
      </trkpt>
      <trkpt lat="40.43443" lon="20.05854">
        <ele>644.21997070312</ele>
        <time>2023-09-28T15:18:13.000Z</time>
      </trkpt>
      <trkpt lat="40.43447" lon="20.05851">
        <ele>644.70001220703</ele>
        <time>2023-09-28T15:18:12.000Z</time>
      </trkpt>
      <trkpt lat="40.4345" lon="20.05848">
        <ele>644.70001220703</ele>
        <time>2023-09-28T15:18:11.000Z</time>
      </trkpt>
      <trkpt lat="40.43455" lon="20.05843">
        <ele>645.17999267578</ele>
        <time>2023-09-28T15:18:10.000Z</time>
      </trkpt>
      <trkpt lat="40.43463" lon="20.05834">
        <ele>645.65997314453</ele>
        <time>2023-09-28T15:18:09.000Z</time>
      </trkpt>
      <trkpt lat="40.43468" lon="20.0583">
        <ele>646.14001464844</ele>
        <time>2023-09-28T15:18:08.000Z</time>
      </trkpt>
      <trkpt lat="40.43472" lon="20.05828">
        <ele>646.61999511719</ele>
        <time>2023-09-28T15:18:07.000Z</time>
      </trkpt>
      <trkpt lat="40.43477" lon="20.05828">
        <ele>647.09997558594</ele>
        <time>2023-09-28T15:18:06.000Z</time>
      </trkpt>
      <trkpt lat="40.43482" lon="20.05828">
        <ele>647.09997558594</ele>
        <time>2023-09-28T15:18:05.000Z</time>
      </trkpt>
      <trkpt lat="40.43487" lon="20.0583">
        <ele>648.07000732422</ele>
        <time>2023-09-28T15:18:04.000Z</time>
      </trkpt>
      <trkpt lat="40.43492" lon="20.05832">
        <ele>648.54998779297</ele>
        <time>2023-09-28T15:18:03.000Z</time>
      </trkpt>
      <trkpt lat="40.43497" lon="20.05836">
        <ele>649.51000976562</ele>
        <time>2023-09-28T15:18:02.000Z</time>
      </trkpt>
      <trkpt lat="40.43503" lon="20.05841">
        <ele>650.46997070312</ele>
        <time>2023-09-28T15:18:01.000Z</time>
      </trkpt>
      <trkpt lat="40.43508" lon="20.05847">
        <ele>650.95001220703</ele>
        <time>2023-09-28T15:18:00.000Z</time>
      </trkpt>
      <trkpt lat="40.43515" lon="20.05854">
        <ele>651.90997314453</ele>
        <time>2023-09-28T15:17:59.000Z</time>
      </trkpt>
      <trkpt lat="40.43523" lon="20.05859">
        <ele>652.86999511719</ele>
        <time>2023-09-28T15:17:58.000Z</time>
      </trkpt>
      <trkpt lat="40.43528" lon="20.05862">
        <ele>653.34997558594</ele>
        <time>2023-09-28T15:17:57.000Z</time>
      </trkpt>
      <trkpt lat="40.43537" lon="20.05867">
        <ele>653.83001708984</ele>
        <time>2023-09-28T15:17:56.000Z</time>
      </trkpt>
      <trkpt lat="40.43545" lon="20.05871">
        <ele>654.79998779297</ele>
        <time>2023-09-28T15:17:55.000Z</time>
      </trkpt>
      <trkpt lat="40.43551" lon="20.05876">
        <ele>655.28002929688</ele>
        <time>2023-09-28T15:17:54.000Z</time>
      </trkpt>
      <trkpt lat="40.43556" lon="20.05882">
        <ele>656.23999023438</ele>
        <time>2023-09-28T15:17:53.000Z</time>
      </trkpt>
      <trkpt lat="40.4356" lon="20.0589">
        <ele>657.20001220703</ele>
        <time>2023-09-28T15:17:52.000Z</time>
      </trkpt>
      <trkpt lat="40.43564" lon="20.05898">
        <ele>657.67999267578</ele>
        <time>2023-09-28T15:17:51.000Z</time>
      </trkpt>
      <trkpt lat="40.43566" lon="20.05905">
        <ele>658.64001464844</ele>
        <time>2023-09-28T15:17:50.000Z</time>
      </trkpt>
      <trkpt lat="40.4357" lon="20.05916">
        <ele>659.59997558594</ele>
        <time>2023-09-28T15:17:49.000Z</time>
      </trkpt>
      <trkpt lat="40.43574" lon="20.05927">
        <ele>660.55999755859</ele>
        <time>2023-09-28T15:17:48.000Z</time>
      </trkpt>
      <trkpt lat="40.43578" lon="20.0594">
        <ele>661.52001953125</ele>
        <time>2023-09-28T15:17:47.000Z</time>
      </trkpt>
      <trkpt lat="40.43581" lon="20.05948">
        <ele>662.48999023438</ele>
        <time>2023-09-28T15:17:46.000Z</time>
      </trkpt>
      <trkpt lat="40.43584" lon="20.05958">
        <ele>663.45001220703</ele>
        <time>2023-09-28T15:17:45.000Z</time>
      </trkpt>
      <trkpt lat="40.43588" lon="20.05967">
        <ele>664.89001464844</ele>
        <time>2023-09-28T15:17:44.000Z</time>
      </trkpt>
      <trkpt lat="40.43591" lon="20.05976">
        <ele>665.84997558594</ele>
        <time>2023-09-28T15:17:43.000Z</time>
      </trkpt>
      <trkpt lat="40.43595" lon="20.05984">
        <ele>666.33001708984</ele>
        <time>2023-09-28T15:17:42.000Z</time>
      </trkpt>
      <trkpt lat="40.436" lon="20.05991">
        <ele>666.80999755859</ele>
        <time>2023-09-28T15:17:41.000Z</time>
      </trkpt>
      <trkpt lat="40.43605" lon="20.05995">
        <ele>666.80999755859</ele>
        <time>2023-09-28T15:17:40.000Z</time>
      </trkpt>
      <trkpt lat="40.43611" lon="20.05998">
        <ele>667.28997802734</ele>
        <time>2023-09-28T15:17:39.000Z</time>
      </trkpt>
      <trkpt lat="40.43617" lon="20.05999">
        <ele>667.77001953125</ele>
        <time>2023-09-28T15:17:38.000Z</time>
      </trkpt>
      <trkpt lat="40.43625" lon="20.05998">
        <ele>668.25</ele>
        <time>2023-09-28T15:17:37.000Z</time>
      </trkpt>
      <trkpt lat="40.43632" lon="20.05994">
        <ele>668.72998046875</ele>
        <time>2023-09-28T15:17:36.000Z</time>
      </trkpt>
      <trkpt lat="40.43641" lon="20.05989">
        <ele>669.70001220703</ele>
        <time>2023-09-28T15:17:35.000Z</time>
      </trkpt>
      <trkpt lat="40.43649" lon="20.05983">
        <ele>670.65997314453</ele>
        <time>2023-09-28T15:17:34.000Z</time>
      </trkpt>
      <trkpt lat="40.43654" lon="20.0598">
        <ele>671.14001464844</ele>
        <time>2023-09-28T15:17:33.000Z</time>
      </trkpt>
      <trkpt lat="40.43665" lon="20.05974">
        <ele>672.09997558594</ele>
        <time>2023-09-28T15:17:32.000Z</time>
      </trkpt>
      <trkpt lat="40.43672" lon="20.05971">
        <ele>672.58001708984</ele>
        <time>2023-09-28T15:17:31.000Z</time>
      </trkpt>
      <trkpt lat="40.43679" lon="20.0597">
        <ele>673.53997802734</ele>
        <time>2023-09-28T15:17:30.000Z</time>
      </trkpt>
      <trkpt lat="40.43686" lon="20.05971">
        <ele>674.5</ele>
        <time>2023-09-28T15:17:29.000Z</time>
      </trkpt>
      <trkpt lat="40.43694" lon="20.05974">
        <ele>675.46002197266</ele>
        <time>2023-09-28T15:17:28.000Z</time>
      </trkpt>
      <trkpt lat="40.43701" lon="20.05978">
        <ele>676.90997314453</ele>
        <time>2023-09-28T15:17:27.000Z</time>
      </trkpt>
      <trkpt lat="40.43706" lon="20.05981">
        <ele>677.39001464844</ele>
        <time>2023-09-28T15:17:26.000Z</time>
      </trkpt>
      <trkpt lat="40.43716" lon="20.05987">
        <ele>678.34997558594</ele>
        <time>2023-09-28T15:17:25.000Z</time>
      </trkpt>
      <trkpt lat="40.43723" lon="20.05991">
        <ele>679.30999755859</ele>
        <time>2023-09-28T15:17:24.000Z</time>
      </trkpt>
      <trkpt lat="40.43729" lon="20.05993">
        <ele>679.78997802734</ele>
        <time>2023-09-28T15:17:23.000Z</time>
      </trkpt>
      <trkpt lat="40.43736" lon="20.05994">
        <ele>680.27001953125</ele>
        <time>2023-09-28T15:17:22.000Z</time>
      </trkpt>
      <trkpt lat="40.43744" lon="20.05993">
        <ele>680.75</ele>
        <time>2023-09-28T15:17:21.000Z</time>
      </trkpt>
      <trkpt lat="40.43751" lon="20.0599">
        <ele>681.22998046875</ele>
        <time>2023-09-28T15:17:20.000Z</time>
      </trkpt>
      <trkpt lat="40.43754" lon="20.05989">
        <ele>681.22998046875</ele>
        <time>2023-09-28T15:17:19.000Z</time>
      </trkpt>
      <trkpt lat="40.43768" lon="20.05982">
        <ele>680.75</ele>
        <time>2023-09-28T15:17:18.000Z</time>
      </trkpt>
      <trkpt lat="40.43776" lon="20.05977">
        <ele>680.27001953125</ele>
        <time>2023-09-28T15:17:17.000Z</time>
      </trkpt>
      <trkpt lat="40.43784" lon="20.05969">
        <ele>679.78997802734</ele>
        <time>2023-09-28T15:17:16.000Z</time>
      </trkpt>
      <trkpt lat="40.4379" lon="20.05962">
        <ele>679.30999755859</ele>
        <time>2023-09-28T15:17:15.000Z</time>
      </trkpt>
      <trkpt lat="40.43797" lon="20.05954">
        <ele>678.83001708984</ele>
        <time>2023-09-28T15:17:14.000Z</time>
      </trkpt>
      <trkpt lat="40.43804" lon="20.05948">
        <ele>678.34997558594</ele>
        <time>2023-09-28T15:17:13.000Z</time>
      </trkpt>
      <trkpt lat="40.4381" lon="20.05943">
        <ele>678.34997558594</ele>
        <time>2023-09-28T15:17:12.000Z</time>
      </trkpt>
      <trkpt lat="40.43816" lon="20.05941">
        <ele>677.86999511719</ele>
        <time>2023-09-28T15:17:11.000Z</time>
      </trkpt>
      <trkpt lat="40.43822" lon="20.0594">
        <ele>677.86999511719</ele>
        <time>2023-09-28T15:17:10.000Z</time>
      </trkpt>
      <trkpt lat="40.43828" lon="20.05942">
        <ele>677.39001464844</ele>
        <time>2023-09-28T15:17:09.000Z</time>
      </trkpt>
      <trkpt lat="40.43833" lon="20.05947">
        <ele>677.39001464844</ele>
        <time>2023-09-28T15:17:08.000Z</time>
      </trkpt>
      <trkpt lat="40.43836" lon="20.05954">
        <ele>677.39001464844</ele>
        <time>2023-09-28T15:17:07.000Z</time>
      </trkpt>
      <trkpt lat="40.43837" lon="20.05963">
        <ele>677.39001464844</ele>
        <time>2023-09-28T15:17:06.000Z</time>
      </trkpt>
      <trkpt lat="40.43836" lon="20.05971">
        <ele>676.90997314453</ele>
        <time>2023-09-28T15:17:05.000Z</time>
      </trkpt>
      <trkpt lat="40.43832" lon="20.05979">
        <ele>676.90997314453</ele>
        <time>2023-09-28T15:17:04.000Z</time>
      </trkpt>
      <trkpt lat="40.43826" lon="20.05987">
        <ele>676.41998291016</ele>
        <time>2023-09-28T15:17:03.000Z</time>
      </trkpt>
      <trkpt lat="40.43819" lon="20.05993">
        <ele>676.41998291016</ele>
        <time>2023-09-28T15:17:02.000Z</time>
      </trkpt>
      <trkpt lat="40.43812" lon="20.06">
        <ele>675.94000244141</ele>
        <time>2023-09-28T15:17:01.000Z</time>
      </trkpt>
      <trkpt lat="40.43806" lon="20.06007">
        <ele>675.94000244141</ele>
        <time>2023-09-28T15:17:00.000Z</time>
      </trkpt>
      <trkpt lat="40.43801" lon="20.06015">
        <ele>675.46002197266</ele>
        <time>2023-09-28T15:16:59.000Z</time>
      </trkpt>
      <trkpt lat="40.43797" lon="20.06022">
        <ele>675.46002197266</ele>
        <time>2023-09-28T15:16:58.000Z</time>
      </trkpt>
      <trkpt lat="40.43792" lon="20.06034">
        <ele>674.97998046875</ele>
        <time>2023-09-28T15:16:57.000Z</time>
      </trkpt>
      <trkpt lat="40.43789" lon="20.06045">
        <ele>674.5</ele>
        <time>2023-09-28T15:16:56.000Z</time>
      </trkpt>
      <trkpt lat="40.43788" lon="20.06055">
        <ele>674.5</ele>
        <time>2023-09-28T15:16:55.000Z</time>
      </trkpt>
      <trkpt lat="40.43788" lon="20.0607">
        <ele>674.5</ele>
        <time>2023-09-28T15:16:54.000Z</time>
      </trkpt>
      <trkpt lat="40.43789" lon="20.0608">
        <ele>674.5</ele>
        <time>2023-09-28T15:16:53.000Z</time>
      </trkpt>
      <trkpt lat="40.43791" lon="20.06092">
        <ele>674.5</ele>
        <time>2023-09-28T15:16:52.000Z</time>
      </trkpt>
      <trkpt lat="40.43794" lon="20.06106">
        <ele>674.02001953125</ele>
        <time>2023-09-28T15:16:51.000Z</time>
      </trkpt>
      <trkpt lat="40.43795" lon="20.06118">
        <ele>673.53997802734</ele>
        <time>2023-09-28T15:16:50.000Z</time>
      </trkpt>
      <trkpt lat="40.43794" lon="20.06125">
        <ele>673.05999755859</ele>
        <time>2023-09-28T15:16:49.000Z</time>
      </trkpt>
      <trkpt lat="40.43793" lon="20.06132">
        <ele>673.05999755859</ele>
        <time>2023-09-28T15:16:48.000Z</time>
      </trkpt>
      <trkpt lat="40.43791" lon="20.06151">
        <ele>672.09997558594</ele>
        <time>2023-09-28T15:16:47.000Z</time>
      </trkpt>
      <trkpt lat="40.4379" lon="20.06162">
        <ele>671.61999511719</ele>
        <time>2023-09-28T15:16:46.000Z</time>
      </trkpt>
      <trkpt lat="40.4379" lon="20.06174">
        <ele>670.65997314453</ele>
        <time>2023-09-28T15:16:45.000Z</time>
      </trkpt>
      <trkpt lat="40.43792" lon="20.06183">
        <ele>670.17999267578</ele>
        <time>2023-09-28T15:16:44.000Z</time>
      </trkpt>
      <trkpt lat="40.43795" lon="20.06193">
        <ele>669.70001220703</ele>
        <time>2023-09-28T15:16:43.000Z</time>
      </trkpt>
      <trkpt lat="40.438" lon="20.06202">
        <ele>669.21997070312</ele>
        <time>2023-09-28T15:16:42.000Z</time>
      </trkpt>
      <trkpt lat="40.43808" lon="20.06212">
        <ele>668.72998046875</ele>
        <time>2023-09-28T15:16:41.000Z</time>
      </trkpt>
      <trkpt lat="40.43815" lon="20.06219">
        <ele>668.25</ele>
        <time>2023-09-28T15:16:40.000Z</time>
      </trkpt>
      <trkpt lat="40.43825" lon="20.06228">
        <ele>667.77001953125</ele>
        <time>2023-09-28T15:16:39.000Z</time>
      </trkpt>
      <trkpt lat="40.43832" lon="20.06235">
        <ele>667.28997802734</ele>
        <time>2023-09-28T15:16:38.000Z</time>
      </trkpt>
      <trkpt lat="40.43839" lon="20.06243">
        <ele>666.80999755859</ele>
        <time>2023-09-28T15:16:37.000Z</time>
      </trkpt>
      <trkpt lat="40.43843" lon="20.06252">
        <ele>666.33001708984</ele>
        <time>2023-09-28T15:16:36.000Z</time>
      </trkpt>
      <trkpt lat="40.43847" lon="20.06262">
        <ele>665.84997558594</ele>
        <time>2023-09-28T15:16:35.000Z</time>
      </trkpt>
      <trkpt lat="40.43851" lon="20.06273">
        <ele>665.36999511719</ele>
        <time>2023-09-28T15:16:34.000Z</time>
      </trkpt>
      <trkpt lat="40.43855" lon="20.06285">
        <ele>664.89001464844</ele>
        <time>2023-09-28T15:16:33.000Z</time>
      </trkpt>
      <trkpt lat="40.43859" lon="20.06295">
        <ele>664.40997314453</ele>
        <time>2023-09-28T15:16:32.000Z</time>
      </trkpt>
      <trkpt lat="40.43863" lon="20.06311">
        <ele>663.92999267578</ele>
        <time>2023-09-28T15:16:31.000Z</time>
      </trkpt>
      <trkpt lat="40.43865" lon="20.06318">
        <ele>663.45001220703</ele>
        <time>2023-09-28T15:16:30.000Z</time>
      </trkpt>
      <trkpt lat="40.43875" lon="20.06366">
        <ele>660.08001708984</ele>
        <time>2023-09-28T15:16:27.000Z</time>
      </trkpt>
      <trkpt lat="40.43877" lon="20.06378">
        <ele>659.11999511719</ele>
        <time>2023-09-28T15:16:26.000Z</time>
      </trkpt>
      <trkpt lat="40.43879" lon="20.0639">
        <ele>658.15997314453</ele>
        <time>2023-09-28T15:16:25.000Z</time>
      </trkpt>
      <trkpt lat="40.43881" lon="20.06401">
        <ele>657.20001220703</ele>
        <time>2023-09-28T15:16:24.000Z</time>
      </trkpt>
      <trkpt lat="40.43883" lon="20.06411">
        <ele>656.23999023438</ele>
        <time>2023-09-28T15:16:23.000Z</time>
      </trkpt>
      <trkpt lat="40.43884" lon="20.06422">
        <ele>655.76000976562</ele>
        <time>2023-09-28T15:16:22.000Z</time>
      </trkpt>
      <trkpt lat="40.43884" lon="20.06432">
        <ele>654.79998779297</ele>
        <time>2023-09-28T15:16:21.000Z</time>
      </trkpt>
      <trkpt lat="40.43884" lon="20.06439">
        <ele>654.30999755859</ele>
        <time>2023-09-28T15:16:20.000Z</time>
      </trkpt>
      <trkpt lat="40.43881" lon="20.06466">
        <ele>652.39001464844</ele>
        <time>2023-09-28T15:16:18.000Z</time>
      </trkpt>
      <trkpt lat="40.43879" lon="20.06483">
        <ele>651.90997314453</ele>
        <time>2023-09-28T15:16:17.000Z</time>
      </trkpt>
      <trkpt lat="40.43878" lon="20.06508">
        <ele>650.46997070312</ele>
        <time>2023-09-28T15:16:15.000Z</time>
      </trkpt>
      <trkpt lat="40.43879" lon="20.06525">
        <ele>649.51000976562</ele>
        <time>2023-09-28T15:16:14.000Z</time>
      </trkpt>
      <trkpt lat="40.43879" lon="20.06531">
        <ele>649.03002929688</ele>
        <time>2023-09-28T15:16:13.000Z</time>
      </trkpt>
      <trkpt lat="40.43881" lon="20.06541">
        <ele>648.54998779297</ele>
        <time>2023-09-28T15:16:12.000Z</time>
      </trkpt>
      <trkpt lat="40.43884" lon="20.06559">
        <ele>647.09997558594</ele>
        <time>2023-09-28T15:16:11.000Z</time>
      </trkpt>
      <trkpt lat="40.43885" lon="20.0657">
        <ele>646.14001464844</ele>
        <time>2023-09-28T15:16:10.000Z</time>
      </trkpt>
      <trkpt lat="40.43887" lon="20.06584">
        <ele>644.70001220703</ele>
        <time>2023-09-28T15:16:09.000Z</time>
      </trkpt>
      <trkpt lat="40.43889" lon="20.06593">
        <ele>644.21997070312</ele>
        <time>2023-09-28T15:16:08.000Z</time>
      </trkpt>
      <trkpt lat="40.43893" lon="20.06602">
        <ele>643.26000976562</ele>
        <time>2023-09-28T15:16:07.000Z</time>
      </trkpt>
      <trkpt lat="40.43898" lon="20.06609">
        <ele>642.78002929688</ele>
        <time>2023-09-28T15:16:06.000Z</time>
      </trkpt>
      <trkpt lat="40.43905" lon="20.06617">
        <ele>641.82000732422</ele>
        <time>2023-09-28T15:16:05.000Z</time>
      </trkpt>
      <trkpt lat="40.43912" lon="20.06625">
        <ele>640.85998535156</ele>
        <time>2023-09-28T15:16:04.000Z</time>
      </trkpt>
      <trkpt lat="40.43914" lon="20.06627">
        <ele>640.85998535156</ele>
        <time>2023-09-28T15:16:03.000Z</time>
      </trkpt>
      <trkpt lat="40.43924" lon="20.06635">
        <ele>639.89001464844</ele>
        <time>2023-09-28T15:16:02.000Z</time>
      </trkpt>
      <trkpt lat="40.43931" lon="20.06641">
        <ele>638.92999267578</ele>
        <time>2023-09-28T15:16:01.000Z</time>
      </trkpt>
      <trkpt lat="40.43937" lon="20.06647">
        <ele>637.96997070312</ele>
        <time>2023-09-28T15:16:00.000Z</time>
      </trkpt>
      <trkpt lat="40.43941" lon="20.06653">
        <ele>637.48999023438</ele>
        <time>2023-09-28T15:15:59.000Z</time>
      </trkpt>
      <trkpt lat="40.43943" lon="20.06659">
        <ele>637.01000976562</ele>
        <time>2023-09-28T15:15:58.000Z</time>
      </trkpt>
      <trkpt lat="40.43944" lon="20.06667">
        <ele>636.53002929688</ele>
        <time>2023-09-28T15:15:57.000Z</time>
      </trkpt>
      <trkpt lat="40.43943" lon="20.06674">
        <ele>636.04998779297</ele>
        <time>2023-09-28T15:15:56.000Z</time>
      </trkpt>
      <trkpt lat="40.43941" lon="20.06681">
        <ele>635.57000732422</ele>
        <time>2023-09-28T15:15:55.000Z</time>
      </trkpt>
      <trkpt lat="40.43939" lon="20.0669">
        <ele>635.09002685547</ele>
        <time>2023-09-28T15:15:54.000Z</time>
      </trkpt>
      <trkpt lat="40.43933" lon="20.06707">
        <ele>633.65002441406</ele>
        <time>2023-09-28T15:15:53.000Z</time>
      </trkpt>
      <trkpt lat="40.43931" lon="20.06713">
        <ele>633.16998291016</ele>
        <time>2023-09-28T15:15:52.000Z</time>
      </trkpt>
      <trkpt lat="40.43926" lon="20.06727">
        <ele>632.20001220703</ele>
        <time>2023-09-28T15:15:51.000Z</time>
      </trkpt>
      <trkpt lat="40.43924" lon="20.06734">
        <ele>631.71997070312</ele>
        <time>2023-09-28T15:15:50.000Z</time>
      </trkpt>
      <trkpt lat="40.43917" lon="20.06752">
        <ele>630.28002929688</ele>
        <time>2023-09-28T15:15:49.000Z</time>
      </trkpt>
      <trkpt lat="40.43914" lon="20.06759">
        <ele>629.79998779297</ele>
        <time>2023-09-28T15:15:48.000Z</time>
      </trkpt>
      <trkpt lat="40.43909" lon="20.06771">
        <ele>628.84002685547</ele>
        <time>2023-09-28T15:15:47.000Z</time>
      </trkpt>
      <trkpt lat="40.43906" lon="20.06779">
        <ele>628.35998535156</ele>
        <time>2023-09-28T15:15:46.000Z</time>
      </trkpt>
      <trkpt lat="40.43905" lon="20.06788">
        <ele>627.40002441406</ele>
        <time>2023-09-28T15:15:45.000Z</time>
      </trkpt>
      <trkpt lat="40.43906" lon="20.06798">
        <ele>626.44000244141</ele>
        <time>2023-09-28T15:15:44.000Z</time>
      </trkpt>
      <trkpt lat="40.43908" lon="20.06808">
        <ele>625.46997070312</ele>
        <time>2023-09-28T15:15:43.000Z</time>
      </trkpt>
      <trkpt lat="40.43911" lon="20.06814">
        <ele>624.98999023438</ele>
        <time>2023-09-28T15:15:42.000Z</time>
      </trkpt>
      <trkpt lat="40.43917" lon="20.06823">
        <ele>624.03002929688</ele>
        <time>2023-09-28T15:15:41.000Z</time>
      </trkpt>
      <trkpt lat="40.43922" lon="20.06829">
        <ele>623.54998779297</ele>
        <time>2023-09-28T15:15:40.000Z</time>
      </trkpt>
      <trkpt lat="40.43929" lon="20.06835">
        <ele>622.59002685547</ele>
        <time>2023-09-28T15:15:39.000Z</time>
      </trkpt>
      <trkpt lat="40.43933" lon="20.06839">
        <ele>622.10998535156</ele>
        <time>2023-09-28T15:15:38.000Z</time>
      </trkpt>
      <trkpt lat="40.43943" lon="20.06846">
        <ele>621.15002441406</ele>
        <time>2023-09-28T15:15:37.000Z</time>
      </trkpt>
      <trkpt lat="40.43948" lon="20.06849">
        <ele>620.66998291016</ele>
        <time>2023-09-28T15:15:36.000Z</time>
      </trkpt>
      <trkpt lat="40.43954" lon="20.06855">
        <ele>620.19000244141</ele>
        <time>2023-09-28T15:15:35.000Z</time>
      </trkpt>
      <trkpt lat="40.43957" lon="20.06859">
        <ele>619.71002197266</ele>
        <time>2023-09-28T15:15:34.000Z</time>
      </trkpt>
      <trkpt lat="40.4396" lon="20.06863">
        <ele>618.75</ele>
        <time>2023-09-28T15:15:33.000Z</time>
      </trkpt>
      <trkpt lat="40.43962" lon="20.06869">
        <ele>618.26000976562</ele>
        <time>2023-09-28T15:15:32.000Z</time>
      </trkpt>
      <trkpt lat="40.43962" lon="20.06874">
        <ele>617.78002929688</ele>
        <time>2023-09-28T15:15:31.000Z</time>
      </trkpt>
      <trkpt lat="40.43961" lon="20.06879">
        <ele>616.82000732422</ele>
        <time>2023-09-28T15:15:30.000Z</time>
      </trkpt>
      <trkpt lat="40.43957" lon="20.06885">
        <ele>616.34002685547</ele>
        <time>2023-09-28T15:15:29.000Z</time>
      </trkpt>
      <trkpt lat="40.43952" lon="20.06891">
        <ele>615.38000488281</ele>
        <time>2023-09-28T15:15:28.000Z</time>
      </trkpt>
      <trkpt lat="40.43948" lon="20.06895">
        <ele>614.90002441406</ele>
        <time>2023-09-28T15:15:27.000Z</time>
      </trkpt>
      <trkpt lat="40.43943" lon="20.06899">
        <ele>614.41998291016</ele>
        <time>2023-09-28T15:15:26.000Z</time>
      </trkpt>
      <trkpt lat="40.4393" lon="20.06911">
        <ele>612.97998046875</ele>
        <time>2023-09-28T15:15:25.000Z</time>
      </trkpt>
      <trkpt lat="40.43921" lon="20.06917">
        <ele>612.5</ele>
        <time>2023-09-28T15:15:24.000Z</time>
      </trkpt>
      <trkpt lat="40.43913" lon="20.06921">
        <ele>611.53997802734</ele>
        <time>2023-09-28T15:15:23.000Z</time>
      </trkpt>
      <trkpt lat="40.439" lon="20.06928">
        <ele>610.57000732422</ele>
        <time>2023-09-28T15:15:21.000Z</time>
      </trkpt>
      <trkpt lat="40.43886" lon="20.06936">
        <ele>609.13000488281</ele>
        <time>2023-09-28T15:15:20.000Z</time>
      </trkpt>
      <trkpt lat="40.43881" lon="20.06938">
        <ele>608.65002441406</ele>
        <time>2023-09-28T15:15:19.000Z</time>
      </trkpt>
      <trkpt lat="40.43869" lon="20.06945">
        <ele>607.69000244141</ele>
        <time>2023-09-28T15:15:18.000Z</time>
      </trkpt>
      <trkpt lat="40.43863" lon="20.06948">
        <ele>607.21002197266</ele>
        <time>2023-09-28T15:15:17.000Z</time>
      </trkpt>
      <trkpt lat="40.43853" lon="20.06953">
        <ele>606.72998046875</ele>
        <time>2023-09-28T15:15:16.000Z</time>
      </trkpt>
      <trkpt lat="40.43846" lon="20.06956">
        <ele>606.25</ele>
        <time>2023-09-28T15:15:15.000Z</time>
      </trkpt>
      <trkpt lat="40.43839" lon="20.06958">
        <ele>605.77001953125</ele>
        <time>2023-09-28T15:15:14.000Z</time>
      </trkpt>
      <trkpt lat="40.43833" lon="20.06963">
        <ele>605.28997802734</ele>
        <time>2023-09-28T15:15:13.000Z</time>
      </trkpt>
      <trkpt lat="40.43827" lon="20.06971">
        <ele>604.33001708984</ele>
        <time>2023-09-28T15:15:12.000Z</time>
      </trkpt>
      <trkpt lat="40.43823" lon="20.0698">
        <ele>603.84997558594</ele>
        <time>2023-09-28T15:15:11.000Z</time>
      </trkpt>
      <trkpt lat="40.4382" lon="20.06988">
        <ele>603.35998535156</ele>
        <time>2023-09-28T15:15:10.000Z</time>
      </trkpt>
      <trkpt lat="40.43817" lon="20.06996">
        <ele>602.88000488281</ele>
        <time>2023-09-28T15:15:09.000Z</time>
      </trkpt>
      <trkpt lat="40.43816" lon="20.07005">
        <ele>602.40002441406</ele>
        <time>2023-09-28T15:15:08.000Z</time>
      </trkpt>
      <trkpt lat="40.43816" lon="20.07013">
        <ele>601.91998291016</ele>
        <time>2023-09-28T15:15:07.000Z</time>
      </trkpt>
      <trkpt lat="40.43818" lon="20.0702">
        <ele>601.44000244141</ele>
        <time>2023-09-28T15:15:06.000Z</time>
      </trkpt>
      <trkpt lat="40.43821" lon="20.07026">
        <ele>600.96002197266</ele>
        <time>2023-09-28T15:15:05.000Z</time>
      </trkpt>
      <trkpt lat="40.43827" lon="20.07031">
        <ele>600.47998046875</ele>
        <time>2023-09-28T15:15:04.000Z</time>
      </trkpt>
      <trkpt lat="40.43832" lon="20.07034">
        <ele>599.52001953125</ele>
        <time>2023-09-28T15:15:03.000Z</time>
      </trkpt>
      <trkpt lat="40.43839" lon="20.07038">
        <ele>599.03997802734</ele>
        <time>2023-09-28T15:15:02.000Z</time>
      </trkpt>
      <trkpt lat="40.43845" lon="20.07043">
        <ele>598.55999755859</ele>
        <time>2023-09-28T15:15:01.000Z</time>
      </trkpt>
      <trkpt lat="40.43848" lon="20.0705">
        <ele>598.55999755859</ele>
        <time>2023-09-28T15:15:00.000Z</time>
      </trkpt>
      <trkpt lat="40.4385" lon="20.07057">
        <ele>598.08001708984</ele>
        <time>2023-09-28T15:14:59.000Z</time>
      </trkpt>
      <trkpt lat="40.4385" lon="20.07064">
        <ele>598.08001708984</ele>
        <time>2023-09-28T15:14:58.000Z</time>
      </trkpt>
      <trkpt lat="40.43848" lon="20.07072">
        <ele>597.59997558594</ele>
        <time>2023-09-28T15:14:57.000Z</time>
      </trkpt>
      <trkpt lat="40.43844" lon="20.07082">
        <ele>597.11999511719</ele>
        <time>2023-09-28T15:14:56.000Z</time>
      </trkpt>
      <trkpt lat="40.4384" lon="20.0709">
        <ele>597.11999511719</ele>
        <time>2023-09-28T15:14:55.000Z</time>
      </trkpt>
      <trkpt lat="40.43837" lon="20.07098">
        <ele>596.15002441406</ele>
        <time>2023-09-28T15:14:54.000Z</time>
      </trkpt>
      <trkpt lat="40.43834" lon="20.07106">
        <ele>595.66998291016</ele>
        <time>2023-09-28T15:14:53.000Z</time>
      </trkpt>
      <trkpt lat="40.43834" lon="20.07112">
        <ele>595.19000244141</ele>
        <time>2023-09-28T15:14:52.000Z</time>
      </trkpt>
      <trkpt lat="40.43834" lon="20.07118">
        <ele>594.71002197266</ele>
        <time>2023-09-28T15:14:51.000Z</time>
      </trkpt>
      <trkpt lat="40.43837" lon="20.07122">
        <ele>594.22998046875</ele>
        <time>2023-09-28T15:14:50.000Z</time>
      </trkpt>
      <trkpt lat="40.43841" lon="20.07126">
        <ele>593.75</ele>
        <time>2023-09-28T15:14:49.000Z</time>
      </trkpt>
      <trkpt lat="40.43846" lon="20.07129">
        <ele>593.27001953125</ele>
        <time>2023-09-28T15:14:48.000Z</time>
      </trkpt>
      <trkpt lat="40.43854" lon="20.07132">
        <ele>592.78997802734</ele>
        <time>2023-09-28T15:14:47.000Z</time>
      </trkpt>
      <trkpt lat="40.43862" lon="20.07133">
        <ele>591.83001708984</ele>
        <time>2023-09-28T15:14:46.000Z</time>
      </trkpt>
      <trkpt lat="40.43868" lon="20.07134">
        <ele>591.34997558594</ele>
        <time>2023-09-28T15:14:45.000Z</time>
      </trkpt>
      <trkpt lat="40.43874" lon="20.07137">
        <ele>590.86999511719</ele>
        <time>2023-09-28T15:14:44.000Z</time>
      </trkpt>
      <trkpt lat="40.43879" lon="20.07142">
        <ele>590.39001464844</ele>
        <time>2023-09-28T15:14:43.000Z</time>
      </trkpt>
      <trkpt lat="40.43883" lon="20.07148">
        <ele>589.90997314453</ele>
        <time>2023-09-28T15:14:42.000Z</time>
      </trkpt>
      <trkpt lat="40.43885" lon="20.07155">
        <ele>589.90997314453</ele>
        <time>2023-09-28T15:14:41.000Z</time>
      </trkpt>
      <trkpt lat="40.43887" lon="20.07163">
        <ele>589.90997314453</ele>
        <time>2023-09-28T15:14:40.000Z</time>
      </trkpt>
      <trkpt lat="40.43887" lon="20.07171">
        <ele>589.42999267578</ele>
        <time>2023-09-28T15:14:39.000Z</time>
      </trkpt>
      <trkpt lat="40.43886" lon="20.07179">
        <ele>588.95001220703</ele>
        <time>2023-09-28T15:14:38.000Z</time>
      </trkpt>
      <trkpt lat="40.43883" lon="20.07187">
        <ele>588.46002197266</ele>
        <time>2023-09-28T15:14:37.000Z</time>
      </trkpt>
      <trkpt lat="40.4388" lon="20.07196">
        <ele>587.97998046875</ele>
        <time>2023-09-28T15:14:36.000Z</time>
      </trkpt>
      <trkpt lat="40.43877" lon="20.07202">
        <ele>587.5</ele>
        <time>2023-09-28T15:14:35.000Z</time>
      </trkpt>
      <trkpt lat="40.43872" lon="20.07208">
        <ele>587.5</ele>
        <time>2023-09-28T15:14:34.000Z</time>
      </trkpt>
      <trkpt lat="40.4387" lon="20.07211">
        <ele>587.5</ele>
        <time>2023-09-28T15:14:33.000Z</time>
      </trkpt>
      <trkpt lat="40.43862" lon="20.07221">
        <ele>587.02001953125</ele>
        <time>2023-09-28T15:14:32.000Z</time>
      </trkpt>
      <trkpt lat="40.43855" lon="20.0723">
        <ele>586.05999755859</ele>
        <time>2023-09-28T15:14:31.000Z</time>
      </trkpt>
      <trkpt lat="40.43848" lon="20.0724">
        <ele>585.09997558594</ele>
        <time>2023-09-28T15:14:30.000Z</time>
      </trkpt>
      <trkpt lat="40.43844" lon="20.07246">
        <ele>584.61999511719</ele>
        <time>2023-09-28T15:14:29.000Z</time>
      </trkpt>
      <trkpt lat="40.4384" lon="20.07252">
        <ele>584.14001464844</ele>
        <time>2023-09-28T15:14:28.000Z</time>
      </trkpt>
      <trkpt lat="40.4383" lon="20.07267">
        <ele>582.70001220703</ele>
        <time>2023-09-28T15:14:27.000Z</time>
      </trkpt>
      <trkpt lat="40.43824" lon="20.07274">
        <ele>581.72998046875</ele>
        <time>2023-09-28T15:14:26.000Z</time>
      </trkpt>
      <trkpt lat="40.43818" lon="20.0728">
        <ele>581.25</ele>
        <time>2023-09-28T15:14:25.000Z</time>
      </trkpt>
      <trkpt lat="40.43809" lon="20.07286">
        <ele>580.77001953125</ele>
        <time>2023-09-28T15:14:24.000Z</time>
      </trkpt>
      <trkpt lat="40.43803" lon="20.07289">
        <ele>580.28997802734</ele>
        <time>2023-09-28T15:14:23.000Z</time>
      </trkpt>
      <trkpt lat="40.4378" lon="20.07303">
        <ele>578.84997558594</ele>
        <time>2023-09-28T15:14:21.000Z</time>
      </trkpt>
      <trkpt lat="40.43773" lon="20.07309">
        <ele>578.36999511719</ele>
        <time>2023-09-28T15:14:20.000Z</time>
      </trkpt>
      <trkpt lat="40.43766" lon="20.07317">
        <ele>577.89001464844</ele>
        <time>2023-09-28T15:14:19.000Z</time>
      </trkpt>
      <trkpt lat="40.4376" lon="20.07325">
        <ele>577.40997314453</ele>
        <time>2023-09-28T15:14:18.000Z</time>
      </trkpt>
      <trkpt lat="40.43753" lon="20.07332">
        <ele>576.92999267578</ele>
        <time>2023-09-28T15:14:17.000Z</time>
      </trkpt>
      <trkpt lat="40.43745" lon="20.07338">
        <ele>575.96997070312</ele>
        <time>2023-09-28T15:14:16.000Z</time>
      </trkpt>
      <trkpt lat="40.43735" lon="20.07343">
        <ele>575.48999023438</ele>
        <time>2023-09-28T15:14:15.000Z</time>
      </trkpt>
      <trkpt lat="40.43727" lon="20.07347">
        <ele>575.01000976562</ele>
        <time>2023-09-28T15:14:14.000Z</time>
      </trkpt>
      <trkpt lat="40.43718" lon="20.07352">
        <ele>574.03997802734</ele>
        <time>2023-09-28T15:14:13.000Z</time>
      </trkpt>
      <trkpt lat="40.43713" lon="20.07355">
        <ele>573.55999755859</ele>
        <time>2023-09-28T15:14:12.000Z</time>
      </trkpt>
      <trkpt lat="40.43706" lon="20.0736">
        <ele>572.59997558594</ele>
        <time>2023-09-28T15:14:11.000Z</time>
      </trkpt>
      <trkpt lat="40.43693" lon="20.07368">
        <ele>571.64001464844</ele>
        <time>2023-09-28T15:14:10.000Z</time>
      </trkpt>
      <trkpt lat="40.43687" lon="20.07371">
        <ele>571.15997314453</ele>
        <time>2023-09-28T15:14:09.000Z</time>
      </trkpt>
      <trkpt lat="40.43681" lon="20.07376">
        <ele>570.67999267578</ele>
        <time>2023-09-28T15:14:08.000Z</time>
      </trkpt>
      <trkpt lat="40.43676" lon="20.07382">
        <ele>569.71997070312</ele>
        <time>2023-09-28T15:14:07.000Z</time>
      </trkpt>
      <trkpt lat="40.43673" lon="20.0739">
        <ele>569.23999023438</ele>
        <time>2023-09-28T15:14:06.000Z</time>
      </trkpt>
      <trkpt lat="40.4367" lon="20.07399">
        <ele>568.28002929688</ele>
        <time>2023-09-28T15:14:05.000Z</time>
      </trkpt>
      <trkpt lat="40.43669" lon="20.0741">
        <ele>567.79998779297</ele>
        <time>2023-09-28T15:14:04.000Z</time>
      </trkpt>
      <trkpt lat="40.43669" lon="20.07419">
        <ele>566.83001708984</ele>
        <time>2023-09-28T15:14:03.000Z</time>
      </trkpt>
      <trkpt lat="40.4367" lon="20.07429">
        <ele>566.34997558594</ele>
        <time>2023-09-28T15:14:02.000Z</time>
      </trkpt>
      <trkpt lat="40.43671" lon="20.07439">
        <ele>566.34997558594</ele>
        <time>2023-09-28T15:14:01.000Z</time>
      </trkpt>
      <trkpt lat="40.43671" lon="20.07447">
        <ele>565.39001464844</ele>
        <time>2023-09-28T15:14:00.000Z</time>
      </trkpt>
      <trkpt lat="40.4367" lon="20.07455">
        <ele>565.39001464844</ele>
        <time>2023-09-28T15:13:59.000Z</time>
      </trkpt>
      <trkpt lat="40.43666" lon="20.07463">
        <ele>564.90997314453</ele>
        <time>2023-09-28T15:13:58.000Z</time>
      </trkpt>
      <trkpt lat="40.43659" lon="20.07472">
        <ele>564.42999267578</ele>
        <time>2023-09-28T15:13:57.000Z</time>
      </trkpt>
      <trkpt lat="40.43652" lon="20.07478">
        <ele>563.95001220703</ele>
        <time>2023-09-28T15:13:56.000Z</time>
      </trkpt>
      <trkpt lat="40.43644" lon="20.07484">
        <ele>563.95001220703</ele>
        <time>2023-09-28T15:13:55.000Z</time>
      </trkpt>
      <trkpt lat="40.43638" lon="20.07487">
        <ele>563.46997070312</ele>
        <time>2023-09-28T15:13:54.000Z</time>
      </trkpt>
      <trkpt lat="40.4363" lon="20.07491">
        <ele>562.51000976562</ele>
        <time>2023-09-28T15:13:53.000Z</time>
      </trkpt>
      <trkpt lat="40.43624" lon="20.07496">
        <ele>562.03002929688</ele>
        <time>2023-09-28T15:13:52.000Z</time>
      </trkpt>
      <trkpt lat="40.43617" lon="20.07504">
        <ele>561.54998779297</ele>
        <time>2023-09-28T15:13:51.000Z</time>
      </trkpt>
      <trkpt lat="40.43612" lon="20.07513">
        <ele>560.59002685547</ele>
        <time>2023-09-28T15:13:50.000Z</time>
      </trkpt>
      <trkpt lat="40.43605" lon="20.07524">
        <ele>560.10998535156</ele>
        <time>2023-09-28T15:13:49.000Z</time>
      </trkpt>
      <trkpt lat="40.436" lon="20.07532">
        <ele>559.61999511719</ele>
        <time>2023-09-28T15:13:48.000Z</time>
      </trkpt>
      <trkpt lat="40.43593" lon="20.0754">
        <ele>558.65997314453</ele>
        <time>2023-09-28T15:13:47.000Z</time>
      </trkpt>
      <trkpt lat="40.43586" lon="20.07546">
        <ele>558.17999267578</ele>
        <time>2023-09-28T15:13:46.000Z</time>
      </trkpt>
      <trkpt lat="40.4358" lon="20.0755">
        <ele>557.70001220703</ele>
        <time>2023-09-28T15:13:45.000Z</time>
      </trkpt>
      <trkpt lat="40.43574" lon="20.07555">
        <ele>556.73999023438</ele>
        <time>2023-09-28T15:13:44.000Z</time>
      </trkpt>
      <trkpt lat="40.43569" lon="20.07562">
        <ele>555.78002929688</ele>
        <time>2023-09-28T15:13:43.000Z</time>
      </trkpt>
      <trkpt lat="40.43566" lon="20.07567">
        <ele>555.29998779297</ele>
        <time>2023-09-28T15:13:42.000Z</time>
      </trkpt>
      <trkpt lat="40.43561" lon="20.07578">
        <ele>554.34002685547</ele>
        <time>2023-09-28T15:13:41.000Z</time>
      </trkpt>
      <trkpt lat="40.43557" lon="20.07588">
        <ele>554.34002685547</ele>
        <time>2023-09-28T15:13:40.000Z</time>
      </trkpt>
      <trkpt lat="40.43553" lon="20.076">
        <ele>553.85998535156</ele>
        <time>2023-09-28T15:13:39.000Z</time>
      </trkpt>
      <trkpt lat="40.43552" lon="20.07603">
        <ele>553.85998535156</ele>
        <time>2023-09-28T15:13:38.000Z</time>
      </trkpt>
      <trkpt lat="40.43545" lon="20.0762">
        <ele>551.92999267578</ele>
        <time>2023-09-28T15:13:37.000Z</time>
      </trkpt>
      <trkpt lat="40.43542" lon="20.07628">
        <ele>550.96997070312</ele>
        <time>2023-09-28T15:13:36.000Z</time>
      </trkpt>
      <trkpt lat="40.43541" lon="20.07636">
        <ele>550.01000976562</ele>
        <time>2023-09-28T15:13:35.000Z</time>
      </trkpt>
      <trkpt lat="40.43541" lon="20.07645">
        <ele>549.53002929688</ele>
        <time>2023-09-28T15:13:34.000Z</time>
      </trkpt>
      <trkpt lat="40.43543" lon="20.07655">
        <ele>548.57000732422</ele>
        <time>2023-09-28T15:13:33.000Z</time>
      </trkpt>
      <trkpt lat="40.43545" lon="20.07663">
        <ele>548.09002685547</ele>
        <time>2023-09-28T15:13:32.000Z</time>
      </trkpt>
      <trkpt lat="40.43547" lon="20.07671">
        <ele>547.60998535156</ele>
        <time>2023-09-28T15:13:31.000Z</time>
      </trkpt>
      <trkpt lat="40.43546" lon="20.07677">
        <ele>547.60998535156</ele>
        <time>2023-09-28T15:13:30.000Z</time>
      </trkpt>
      <trkpt lat="40.43544" lon="20.07682">
        <ele>547.13000488281</ele>
        <time>2023-09-28T15:13:29.000Z</time>
      </trkpt>
      <trkpt lat="40.4354" lon="20.07685">
        <ele>546.65002441406</ele>
        <time>2023-09-28T15:13:28.000Z</time>
      </trkpt>
      <trkpt lat="40.43536" lon="20.07686">
        <ele>546.65002441406</ele>
        <time>2023-09-28T15:13:27.000Z</time>
      </trkpt>
      <trkpt lat="40.43529" lon="20.07684">
        <ele>546.16998291016</ele>
        <time>2023-09-28T15:13:26.000Z</time>
      </trkpt>
      <trkpt lat="40.4352" lon="20.07681">
        <ele>545.69000244141</ele>
        <time>2023-09-28T15:13:25.000Z</time>
      </trkpt>
      <trkpt lat="40.43513" lon="20.07679">
        <ele>545.20001220703</ele>
        <time>2023-09-28T15:13:24.000Z</time>
      </trkpt>
      <trkpt lat="40.43506" lon="20.07679">
        <ele>544.71997070312</ele>
        <time>2023-09-28T15:13:23.000Z</time>
      </trkpt>
      <trkpt lat="40.43499" lon="20.07682">
        <ele>544.71997070312</ele>
        <time>2023-09-28T15:13:22.000Z</time>
      </trkpt>
      <trkpt lat="40.43493" lon="20.07687">
        <ele>544.71997070312</ele>
        <time>2023-09-28T15:13:21.000Z</time>
      </trkpt>
      <trkpt lat="40.43488" lon="20.07694">
        <ele>544.23999023438</ele>
        <time>2023-09-28T15:13:20.000Z</time>
      </trkpt>
      <trkpt lat="40.43484" lon="20.07701">
        <ele>544.23999023438</ele>
        <time>2023-09-28T15:13:19.000Z</time>
      </trkpt>
      <trkpt lat="40.43478" lon="20.07711">
        <ele>543.28002929688</ele>
        <time>2023-09-28T15:13:18.000Z</time>
      </trkpt>
      <trkpt lat="40.43472" lon="20.07724">
        <ele>541.84002685547</ele>
        <time>2023-09-28T15:13:17.000Z</time>
      </trkpt>
      <trkpt lat="40.4346" lon="20.07743">
        <ele>540.40002441406</ele>
        <time>2023-09-28T15:13:15.000Z</time>
      </trkpt>
      <trkpt lat="40.43456" lon="20.07753">
        <ele>539.44000244141</ele>
        <time>2023-09-28T15:13:14.000Z</time>
      </trkpt>
      <trkpt lat="40.43453" lon="20.07763">
        <ele>538.96002197266</ele>
        <time>2023-09-28T15:13:13.000Z</time>
      </trkpt>
      <trkpt lat="40.43453" lon="20.07775">
        <ele>538.96002197266</ele>
        <time>2023-09-28T15:13:12.000Z</time>
      </trkpt>
      <trkpt lat="40.43453" lon="20.07777">
        <ele>538.96002197266</ele>
        <time>2023-09-28T15:13:11.000Z</time>
      </trkpt>
      <trkpt lat="40.43454" lon="20.07796">
        <ele>537.98999023438</ele>
        <time>2023-09-28T15:13:10.000Z</time>
      </trkpt>
      <trkpt lat="40.43455" lon="20.07804">
        <ele>537.51000976562</ele>
        <time>2023-09-28T15:13:09.000Z</time>
      </trkpt>
      <trkpt lat="40.43455" lon="20.07813">
        <ele>537.03002929688</ele>
        <time>2023-09-28T15:13:08.000Z</time>
      </trkpt>
      <trkpt lat="40.43456" lon="20.0782">
        <ele>536.54998779297</ele>
        <time>2023-09-28T15:13:07.000Z</time>
      </trkpt>
      <trkpt lat="40.43455" lon="20.07826">
        <ele>536.07000732422</ele>
        <time>2023-09-28T15:13:06.000Z</time>
      </trkpt>
      <trkpt lat="40.43453" lon="20.07831">
        <ele>536.07000732422</ele>
        <time>2023-09-28T15:13:05.000Z</time>
      </trkpt>
      <trkpt lat="40.43449" lon="20.07835">
        <ele>535.59002685547</ele>
        <time>2023-09-28T15:13:04.000Z</time>
      </trkpt>
      <trkpt lat="40.43445" lon="20.07837">
        <ele>535.59002685547</ele>
        <time>2023-09-28T15:13:03.000Z</time>
      </trkpt>
      <trkpt lat="40.43435" lon="20.07842">
        <ele>535.10998535156</ele>
        <time>2023-09-28T15:13:02.000Z</time>
      </trkpt>
      <trkpt lat="40.43428" lon="20.07846">
        <ele>534.63000488281</ele>
        <time>2023-09-28T15:13:01.000Z</time>
      </trkpt>
      <trkpt lat="40.4342" lon="20.07852">
        <ele>533.66998291016</ele>
        <time>2023-09-28T15:13:00.000Z</time>
      </trkpt>
      <trkpt lat="40.43413" lon="20.0786">
        <ele>533.19000244141</ele>
        <time>2023-09-28T15:12:59.000Z</time>
      </trkpt>
      <trkpt lat="40.43406" lon="20.0787">
        <ele>532.22998046875</ele>
        <time>2023-09-28T15:12:58.000Z</time>
      </trkpt>
      <trkpt lat="40.43402" lon="20.07879">
        <ele>531.75</ele>
        <time>2023-09-28T15:12:57.000Z</time>
      </trkpt>
      <trkpt lat="40.43398" lon="20.07888">
        <ele>530.78997802734</ele>
        <time>2023-09-28T15:12:56.000Z</time>
      </trkpt>
      <trkpt lat="40.43395" lon="20.07898">
        <ele>530.29998779297</ele>
        <time>2023-09-28T15:12:55.000Z</time>
      </trkpt>
      <trkpt lat="40.43392" lon="20.0791">
        <ele>529.34002685547</ele>
        <time>2023-09-28T15:12:54.000Z</time>
      </trkpt>
      <trkpt lat="40.43389" lon="20.0792">
        <ele>528.38000488281</ele>
        <time>2023-09-28T15:12:53.000Z</time>
      </trkpt>
      <trkpt lat="40.43384" lon="20.0793">
        <ele>527.41998291016</ele>
        <time>2023-09-28T15:12:52.000Z</time>
      </trkpt>
      <trkpt lat="40.43379" lon="20.07937">
        <ele>526.94000244141</ele>
        <time>2023-09-28T15:12:51.000Z</time>
      </trkpt>
      <trkpt lat="40.43373" lon="20.07945">
        <ele>525.97998046875</ele>
        <time>2023-09-28T15:12:50.000Z</time>
      </trkpt>
      <trkpt lat="40.43368" lon="20.07954">
        <ele>525.5</ele>
        <time>2023-09-28T15:12:49.000Z</time>
      </trkpt>
      <trkpt lat="40.43366" lon="20.07963">
        <ele>524.53997802734</ele>
        <time>2023-09-28T15:12:48.000Z</time>
      </trkpt>
      <trkpt lat="40.43366" lon="20.07972">
        <ele>524.05999755859</ele>
        <time>2023-09-28T15:12:47.000Z</time>
      </trkpt>
      <trkpt lat="40.43369" lon="20.07981">
        <ele>523.58001708984</ele>
        <time>2023-09-28T15:12:46.000Z</time>
      </trkpt>
      <trkpt lat="40.43372" lon="20.07989">
        <ele>522.60998535156</ele>
        <time>2023-09-28T15:12:45.000Z</time>
      </trkpt>
      <trkpt lat="40.43377" lon="20.07997">
        <ele>522.60998535156</ele>
        <time>2023-09-28T15:12:44.000Z</time>
      </trkpt>
      <trkpt lat="40.43385" lon="20.08007">
        <ele>522.13000488281</ele>
        <time>2023-09-28T15:12:43.000Z</time>
      </trkpt>
      <trkpt lat="40.43389" lon="20.08014">
        <ele>521.65002441406</ele>
        <time>2023-09-28T15:12:42.000Z</time>
      </trkpt>
      <trkpt lat="40.43396" lon="20.08025">
        <ele>521.16998291016</ele>
        <time>2023-09-28T15:12:41.000Z</time>
      </trkpt>
      <trkpt lat="40.43401" lon="20.08032">
        <ele>520.69000244141</ele>
        <time>2023-09-28T15:12:40.000Z</time>
      </trkpt>
      <trkpt lat="40.43405" lon="20.08041">
        <ele>520.69000244141</ele>
        <time>2023-09-28T15:12:39.000Z</time>
      </trkpt>
      <trkpt lat="40.43408" lon="20.08049">
        <ele>520.21002197266</ele>
        <time>2023-09-28T15:12:38.000Z</time>
      </trkpt>
      <trkpt lat="40.43409" lon="20.08055">
        <ele>520.21002197266</ele>
        <time>2023-09-28T15:12:37.000Z</time>
      </trkpt>
      <trkpt lat="40.43408" lon="20.08061">
        <ele>520.21002197266</ele>
        <time>2023-09-28T15:12:36.000Z</time>
      </trkpt>
      <trkpt lat="40.43404" lon="20.08067">
        <ele>520.21002197266</ele>
        <time>2023-09-28T15:12:35.000Z</time>
      </trkpt>
      <trkpt lat="40.43399" lon="20.08073">
        <ele>519.72998046875</ele>
        <time>2023-09-28T15:12:34.000Z</time>
      </trkpt>
      <trkpt lat="40.43385" lon="20.08086">
        <ele>518.28997802734</ele>
        <time>2023-09-28T15:12:32.000Z</time>
      </trkpt>
      <trkpt lat="40.43375" lon="20.08092">
        <ele>517.33001708984</ele>
        <time>2023-09-28T15:12:31.000Z</time>
      </trkpt>
      <trkpt lat="40.43366" lon="20.08096">
        <ele>516.36999511719</ele>
        <time>2023-09-28T15:12:30.000Z</time>
      </trkpt>
      <trkpt lat="40.43357" lon="20.08098">
        <ele>515.40002441406</ele>
        <time>2023-09-28T15:12:29.000Z</time>
      </trkpt>
      <trkpt lat="40.43354" lon="20.08098">
        <ele>514.91998291016</ele>
        <time>2023-09-28T15:12:28.000Z</time>
      </trkpt>
      <trkpt lat="40.43332" lon="20.08099">
        <ele>513</ele>
        <time>2023-09-28T15:12:26.000Z</time>
      </trkpt>
      <trkpt lat="40.43322" lon="20.081">
        <ele>512.03997802734</ele>
        <time>2023-09-28T15:12:25.000Z</time>
      </trkpt>
      <trkpt lat="40.43316" lon="20.08101">
        <ele>511.07998657227</ele>
        <time>2023-09-28T15:12:24.000Z</time>
      </trkpt>
      <trkpt lat="40.4331" lon="20.08103">
        <ele>511.07998657227</ele>
        <time>2023-09-28T15:12:23.000Z</time>
      </trkpt>
      <trkpt lat="40.43304" lon="20.08107">
        <ele>510.60000610352</ele>
        <time>2023-09-28T15:12:22.000Z</time>
      </trkpt>
      <trkpt lat="40.433" lon="20.08114">
        <ele>509.64001464844</ele>
        <time>2023-09-28T15:12:21.000Z</time>
      </trkpt>
      <trkpt lat="40.43296" lon="20.08122">
        <ele>508.67001342773</ele>
        <time>2023-09-28T15:12:20.000Z</time>
      </trkpt>
      <trkpt lat="40.43293" lon="20.08132">
        <ele>508.19000244141</ele>
        <time>2023-09-28T15:12:19.000Z</time>
      </trkpt>
      <trkpt lat="40.43289" lon="20.08146">
        <ele>506.75</ele>
        <time>2023-09-28T15:12:18.000Z</time>
      </trkpt>
      <trkpt lat="40.43286" lon="20.08155">
        <ele>506.26998901367</ele>
        <time>2023-09-28T15:12:17.000Z</time>
      </trkpt>
      <trkpt lat="40.43281" lon="20.08165">
        <ele>505.30999755859</ele>
        <time>2023-09-28T15:12:16.000Z</time>
      </trkpt>
      <trkpt lat="40.43276" lon="20.08173">
        <ele>504.82998657227</ele>
        <time>2023-09-28T15:12:15.000Z</time>
      </trkpt>
      <trkpt lat="40.43269" lon="20.08181">
        <ele>504.82998657227</ele>
        <time>2023-09-28T15:12:14.000Z</time>
      </trkpt>
      <trkpt lat="40.43262" lon="20.08188">
        <ele>504.35000610352</ele>
        <time>2023-09-28T15:12:13.000Z</time>
      </trkpt>
      <trkpt lat="40.43255" lon="20.08194">
        <ele>504.35000610352</ele>
        <time>2023-09-28T15:12:12.000Z</time>
      </trkpt>
      <trkpt lat="40.43249" lon="20.08201">
        <ele>504.35000610352</ele>
        <time>2023-09-28T15:12:11.000Z</time>
      </trkpt>
      <trkpt lat="40.43244" lon="20.08209">
        <ele>503.86999511719</ele>
        <time>2023-09-28T15:12:10.000Z</time>
      </trkpt>
      <trkpt lat="40.43241" lon="20.08215">
        <ele>503.39001464844</ele>
        <time>2023-09-28T15:12:09.000Z</time>
      </trkpt>
      <trkpt lat="40.43237" lon="20.08224">
        <ele>502.91000366211</ele>
        <time>2023-09-28T15:12:08.000Z</time>
      </trkpt>
      <trkpt lat="40.43234" lon="20.08235">
        <ele>502.91000366211</ele>
        <time>2023-09-28T15:12:07.000Z</time>
      </trkpt>
      <trkpt lat="40.43229" lon="20.08248">
        <ele>502.42999267578</ele>
        <time>2023-09-28T15:12:06.000Z</time>
      </trkpt>
      <trkpt lat="40.43224" lon="20.0826">
        <ele>502.42999267578</ele>
        <time>2023-09-28T15:12:05.000Z</time>
      </trkpt>
      <trkpt lat="40.43219" lon="20.08271">
        <ele>500.98001098633</ele>
        <time>2023-09-28T15:12:04.000Z</time>
      </trkpt>
      <trkpt lat="40.43213" lon="20.08282">
        <ele>500.01998901367</ele>
        <time>2023-09-28T15:12:03.000Z</time>
      </trkpt>
      <trkpt lat="40.43202" lon="20.08302">
        <ele>497.14001464844</ele>
        <time>2023-09-28T15:12:01.000Z</time>
      </trkpt>
      <trkpt lat="40.43195" lon="20.08316">
        <ele>495.2200012207</ele>
        <time>2023-09-28T15:12:00.000Z</time>
      </trkpt>
      <trkpt lat="40.4319" lon="20.08325">
        <ele>494.26000976562</ele>
        <time>2023-09-28T15:11:59.000Z</time>
      </trkpt>
      <trkpt lat="40.43184" lon="20.08333">
        <ele>493.76998901367</ele>
        <time>2023-09-28T15:11:58.000Z</time>
      </trkpt>
      <trkpt lat="40.43177" lon="20.08338">
        <ele>492.80999755859</ele>
        <time>2023-09-28T15:11:57.000Z</time>
      </trkpt>
      <trkpt lat="40.4317" lon="20.0834">
        <ele>492.80999755859</ele>
        <time>2023-09-28T15:11:56.000Z</time>
      </trkpt>
      <trkpt lat="40.43164" lon="20.0834">
        <ele>492.32998657227</ele>
        <time>2023-09-28T15:11:55.000Z</time>
      </trkpt>
      <trkpt lat="40.43157" lon="20.08338">
        <ele>491.85000610352</ele>
        <time>2023-09-28T15:11:54.000Z</time>
      </trkpt>
      <trkpt lat="40.4315" lon="20.08339">
        <ele>491.85000610352</ele>
        <time>2023-09-28T15:11:53.000Z</time>
      </trkpt>
      <trkpt lat="40.43144" lon="20.08342">
        <ele>491.36999511719</ele>
        <time>2023-09-28T15:11:52.000Z</time>
      </trkpt>
      <trkpt lat="40.43138" lon="20.08347">
        <ele>490.89001464844</ele>
        <time>2023-09-28T15:11:51.000Z</time>
      </trkpt>
      <trkpt lat="40.43131" lon="20.08355">
        <ele>490.41000366211</ele>
        <time>2023-09-28T15:11:50.000Z</time>
      </trkpt>
      <trkpt lat="40.43123" lon="20.08366">
        <ele>489.45001220703</ele>
        <time>2023-09-28T15:11:49.000Z</time>
      </trkpt>
      <trkpt lat="40.43117" lon="20.08376">
        <ele>488.48999023438</ele>
        <time>2023-09-28T15:11:48.000Z</time>
      </trkpt>
      <trkpt lat="40.43112" lon="20.08388">
        <ele>487.5299987793</ele>
        <time>2023-09-28T15:11:47.000Z</time>
      </trkpt>
      <trkpt lat="40.4311" lon="20.08396">
        <ele>487.04998779297</ele>
        <time>2023-09-28T15:11:46.000Z</time>
      </trkpt>
      <trkpt lat="40.43107" lon="20.08414">
        <ele>486.07998657227</ele>
        <time>2023-09-28T15:11:45.000Z</time>
      </trkpt>
      <trkpt lat="40.43103" lon="20.08429">
        <ele>485.11999511719</ele>
        <time>2023-09-28T15:11:44.000Z</time>
      </trkpt>
      <trkpt lat="40.43101" lon="20.08437">
        <ele>484.64001464844</ele>
        <time>2023-09-28T15:11:43.000Z</time>
      </trkpt>
      <trkpt lat="40.43097" lon="20.08447">
        <ele>484.16000366211</ele>
        <time>2023-09-28T15:11:42.000Z</time>
      </trkpt>
      <trkpt lat="40.43091" lon="20.08464">
        <ele>483.67999267578</ele>
        <time>2023-09-28T15:11:41.000Z</time>
      </trkpt>
      <trkpt lat="40.43084" lon="20.08485">
        <ele>482.23999023438</ele>
        <time>2023-09-28T15:11:40.000Z</time>
      </trkpt>
      <trkpt lat="40.4308" lon="20.08497">
        <ele>481.76000976562</ele>
        <time>2023-09-28T15:11:39.000Z</time>
      </trkpt>
      <trkpt lat="40.43075" lon="20.08507">
        <ele>480.79998779297</ele>
        <time>2023-09-28T15:11:38.000Z</time>
      </trkpt>
      <trkpt lat="40.4307" lon="20.08518">
        <ele>480.32000732422</ele>
        <time>2023-09-28T15:11:37.000Z</time>
      </trkpt>
      <trkpt lat="40.43066" lon="20.08523">
        <ele>479.83999633789</ele>
        <time>2023-09-28T15:11:36.000Z</time>
      </trkpt>
      <trkpt lat="40.43059" lon="20.08538">
        <ele>478.86999511719</ele>
        <time>2023-09-28T15:11:35.000Z</time>
      </trkpt>
      <trkpt lat="40.43047" lon="20.08561">
        <ele>476.95001220703</ele>
        <time>2023-09-28T15:11:33.000Z</time>
      </trkpt>
      <trkpt lat="40.43041" lon="20.0857">
        <ele>475.98999023438</ele>
        <time>2023-09-28T15:11:32.000Z</time>
      </trkpt>
      <trkpt lat="40.43038" lon="20.08578">
        <ele>475.0299987793</ele>
        <time>2023-09-28T15:11:31.000Z</time>
      </trkpt>
      <trkpt lat="40.43036" lon="20.08587">
        <ele>474.54998779297</ele>
        <time>2023-09-28T15:11:30.000Z</time>
      </trkpt>
      <trkpt lat="40.43035" lon="20.08597">
        <ele>474.07000732422</ele>
        <time>2023-09-28T15:11:29.000Z</time>
      </trkpt>
      <trkpt lat="40.43036" lon="20.08608">
        <ele>474.07000732422</ele>
        <time>2023-09-28T15:11:28.000Z</time>
      </trkpt>
      <trkpt lat="40.43037" lon="20.08618">
        <ele>473.58999633789</ele>
        <time>2023-09-28T15:11:27.000Z</time>
      </trkpt>
      <trkpt lat="40.43039" lon="20.08628">
        <ele>473.10998535156</ele>
        <time>2023-09-28T15:11:26.000Z</time>
      </trkpt>
      <trkpt lat="40.43039" lon="20.08639">
        <ele>472.14001464844</ele>
        <time>2023-09-28T15:11:25.000Z</time>
      </trkpt>
      <trkpt lat="40.43039" lon="20.08649">
        <ele>471.66000366211</ele>
        <time>2023-09-28T15:11:24.000Z</time>
      </trkpt>
      <trkpt lat="40.43037" lon="20.08657">
        <ele>471.17999267578</ele>
        <time>2023-09-28T15:11:23.000Z</time>
      </trkpt>
      <trkpt lat="40.43033" lon="20.08666">
        <ele>470.70001220703</ele>
        <time>2023-09-28T15:11:22.000Z</time>
      </trkpt>
      <trkpt lat="40.43029" lon="20.08673">
        <ele>470.2200012207</ele>
        <time>2023-09-28T15:11:21.000Z</time>
      </trkpt>
      <trkpt lat="40.43023" lon="20.0868">
        <ele>469.26000976562</ele>
        <time>2023-09-28T15:11:20.000Z</time>
      </trkpt>
      <trkpt lat="40.43015" lon="20.08684">
        <ele>468.7799987793</ele>
        <time>2023-09-28T15:11:19.000Z</time>
      </trkpt>
      <trkpt lat="40.43008" lon="20.08687">
        <ele>468.29998779297</ele>
        <time>2023-09-28T15:11:18.000Z</time>
      </trkpt>
      <trkpt lat="40.43" lon="20.0869">
        <ele>467.82000732422</ele>
        <time>2023-09-28T15:11:17.000Z</time>
      </trkpt>
      <trkpt lat="40.42992" lon="20.08691">
        <ele>467.33999633789</ele>
        <time>2023-09-28T15:11:16.000Z</time>
      </trkpt>
      <trkpt lat="40.42985" lon="20.08692">
        <ele>466.85998535156</ele>
        <time>2023-09-28T15:11:15.000Z</time>
      </trkpt>
      <trkpt lat="40.42974" lon="20.08693">
        <ele>465.89999389648</ele>
        <time>2023-09-28T15:11:14.000Z</time>
      </trkpt>
      <trkpt lat="40.42964" lon="20.08695">
        <ele>465.42001342773</ele>
        <time>2023-09-28T15:11:13.000Z</time>
      </trkpt>
      <trkpt lat="40.42957" lon="20.08697">
        <ele>464.92999267578</ele>
        <time>2023-09-28T15:11:12.000Z</time>
      </trkpt>
      <trkpt lat="40.4295" lon="20.08701">
        <ele>463.9700012207</ele>
        <time>2023-09-28T15:11:11.000Z</time>
      </trkpt>
      <trkpt lat="40.42942" lon="20.08707">
        <ele>463.48999023438</ele>
        <time>2023-09-28T15:11:10.000Z</time>
      </trkpt>
      <trkpt lat="40.42939" lon="20.0871">
        <ele>463.48999023438</ele>
        <time>2023-09-28T15:11:09.000Z</time>
      </trkpt>
      <trkpt lat="40.42929" lon="20.08723">
        <ele>462.5299987793</ele>
        <time>2023-09-28T15:11:08.000Z</time>
      </trkpt>
      <trkpt lat="40.42919" lon="20.08734">
        <ele>461.57000732422</ele>
        <time>2023-09-28T15:11:07.000Z</time>
      </trkpt>
      <trkpt lat="40.42918" lon="20.08735">
        <ele>461.57000732422</ele>
        <time>2023-09-28T15:11:06.000Z</time>
      </trkpt>
      <trkpt lat="40.42904" lon="20.08754">
        <ele>460.13000488281</ele>
        <time>2023-09-28T15:11:05.000Z</time>
      </trkpt>
      <trkpt lat="40.42898" lon="20.08763">
        <ele>459.17001342773</ele>
        <time>2023-09-28T15:11:04.000Z</time>
      </trkpt>
      <trkpt lat="40.42892" lon="20.08769">
        <ele>457.7200012207</ele>
        <time>2023-09-28T15:11:03.000Z</time>
      </trkpt>
      <trkpt lat="40.42873" lon="20.08788">
        <ele>455.79998779297</ele>
        <time>2023-09-28T15:11:01.000Z</time>
      </trkpt>
      <trkpt lat="40.42865" lon="20.08798">
        <ele>454.83999633789</ele>
        <time>2023-09-28T15:11:00.000Z</time>
      </trkpt>
      <trkpt lat="40.4286" lon="20.08806">
        <ele>454.35998535156</ele>
        <time>2023-09-28T15:10:59.000Z</time>
      </trkpt>
      <trkpt lat="40.42845" lon="20.08832">
        <ele>452.44000244141</ele>
        <time>2023-09-28T15:10:57.000Z</time>
      </trkpt>
      <trkpt lat="40.42839" lon="20.0884">
        <ele>451.95999145508</ele>
        <time>2023-09-28T15:10:56.000Z</time>
      </trkpt>
      <trkpt lat="40.42836" lon="20.08843">
        <ele>451.95999145508</ele>
        <time>2023-09-28T15:10:55.000Z</time>
      </trkpt>
      <trkpt lat="40.42823" lon="20.08857">
        <ele>451</ele>
        <time>2023-09-28T15:10:54.000Z</time>
      </trkpt>
      <trkpt lat="40.42819" lon="20.08864">
        <ele>451</ele>
        <time>2023-09-28T15:10:53.000Z</time>
      </trkpt>
      <trkpt lat="40.42809" lon="20.08877">
        <ele>450.51998901367</ele>
        <time>2023-09-28T15:10:52.000Z</time>
      </trkpt>
      <trkpt lat="40.42804" lon="20.08884">
        <ele>450.0299987793</ele>
        <time>2023-09-28T15:10:51.000Z</time>
      </trkpt>
      <trkpt lat="40.42799" lon="20.0889">
        <ele>449.54998779297</ele>
        <time>2023-09-28T15:10:50.000Z</time>
      </trkpt>
      <trkpt lat="40.42782" lon="20.08909">
        <ele>448.10998535156</ele>
        <time>2023-09-28T15:10:48.000Z</time>
      </trkpt>
      <trkpt lat="40.42777" lon="20.08916">
        <ele>448.10998535156</ele>
        <time>2023-09-28T15:10:47.000Z</time>
      </trkpt>
      <trkpt lat="40.42772" lon="20.08924">
        <ele>448.10998535156</ele>
        <time>2023-09-28T15:10:46.000Z</time>
      </trkpt>
      <trkpt lat="40.42768" lon="20.08933">
        <ele>447.14999389648</ele>
        <time>2023-09-28T15:10:45.000Z</time>
      </trkpt>
      <trkpt lat="40.42766" lon="20.08938">
        <ele>446.67001342773</ele>
        <time>2023-09-28T15:10:44.000Z</time>
      </trkpt>
      <trkpt lat="40.42763" lon="20.08945">
        <ele>446.67001342773</ele>
        <time>2023-09-28T15:10:43.000Z</time>
      </trkpt>
      <trkpt lat="40.42759" lon="20.08958">
        <ele>445.70999145508</ele>
        <time>2023-09-28T15:10:42.000Z</time>
      </trkpt>
      <trkpt lat="40.42757" lon="20.08968">
        <ele>444.75</ele>
        <time>2023-09-28T15:10:41.000Z</time>
      </trkpt>
      <trkpt lat="40.42756" lon="20.08977">
        <ele>444.26998901367</ele>
        <time>2023-09-28T15:10:40.000Z</time>
      </trkpt>
      <trkpt lat="40.42757" lon="20.08986">
        <ele>443.79000854492</ele>
        <time>2023-09-28T15:10:39.000Z</time>
      </trkpt>
      <trkpt lat="40.4276" lon="20.08998">
        <ele>442.82000732422</ele>
        <time>2023-09-28T15:10:38.000Z</time>
      </trkpt>
      <trkpt lat="40.42762" lon="20.09008">
        <ele>442.33999633789</ele>
        <time>2023-09-28T15:10:37.000Z</time>
      </trkpt>
      <trkpt lat="40.42766" lon="20.0902">
        <ele>441.38000488281</ele>
        <time>2023-09-28T15:10:36.000Z</time>
      </trkpt>
      <trkpt lat="40.42768" lon="20.09023">
        <ele>441.38000488281</ele>
        <time>2023-09-28T15:10:35.000Z</time>
      </trkpt>
      <trkpt lat="40.42774" lon="20.09036">
        <ele>440.42001342773</ele>
        <time>2023-09-28T15:10:34.000Z</time>
      </trkpt>
      <trkpt lat="40.42776" lon="20.09041">
        <ele>440.42001342773</ele>
        <time>2023-09-28T15:10:33.000Z</time>
      </trkpt>
      <trkpt lat="40.42778" lon="20.09047">
        <ele>439.94000244141</ele>
        <time>2023-09-28T15:10:32.000Z</time>
      </trkpt>
      <trkpt lat="40.42782" lon="20.09059">
        <ele>438.98001098633</ele>
        <time>2023-09-28T15:10:31.000Z</time>
      </trkpt>
      <trkpt lat="40.42784" lon="20.09065">
        <ele>438.98001098633</ele>
        <time>2023-09-28T15:10:30.000Z</time>
      </trkpt>
      <trkpt lat="40.42784" lon="20.09069">
        <ele>438.5</ele>
        <time>2023-09-28T15:10:29.000Z</time>
      </trkpt>
      <trkpt lat="40.42784" lon="20.09071">
        <ele>438.5</ele>
        <time>2023-09-28T15:10:28.000Z</time>
      </trkpt>
      <trkpt lat="40.42781" lon="20.09081">
        <ele>438.01998901367</ele>
        <time>2023-09-28T15:10:27.000Z</time>
      </trkpt>
      <trkpt lat="40.42778" lon="20.09086">
        <ele>437.54000854492</ele>
        <time>2023-09-28T15:10:26.000Z</time>
      </trkpt>
      <trkpt lat="40.42777" lon="20.09087">
        <ele>437.54000854492</ele>
        <time>2023-09-28T15:10:25.000Z</time>
      </trkpt>
      <trkpt lat="40.42771" lon="20.09094">
        <ele>437.05999755859</ele>
        <time>2023-09-28T15:10:24.000Z</time>
      </trkpt>
      <trkpt lat="40.42766" lon="20.091">
        <ele>436.57998657227</ele>
        <time>2023-09-28T15:10:23.000Z</time>
      </trkpt>
      <trkpt lat="40.42763" lon="20.09107">
        <ele>436.10000610352</ele>
        <time>2023-09-28T15:10:22.000Z</time>
      </trkpt>
      <trkpt lat="40.42762" lon="20.09113">
        <ele>435.60998535156</ele>
        <time>2023-09-28T15:10:21.000Z</time>
      </trkpt>
      <trkpt lat="40.42761" lon="20.09119">
        <ele>435.13000488281</ele>
        <time>2023-09-28T15:10:20.000Z</time>
      </trkpt>
      <trkpt lat="40.42759" lon="20.09129">
        <ele>434.64999389648</ele>
        <time>2023-09-28T15:10:19.000Z</time>
      </trkpt>
      <trkpt lat="40.42757" lon="20.09139">
        <ele>433.69000244141</ele>
        <time>2023-09-28T15:10:18.000Z</time>
      </trkpt>
      <trkpt lat="40.42755" lon="20.09147">
        <ele>433.69000244141</ele>
        <time>2023-09-28T15:10:17.000Z</time>
      </trkpt>
      <trkpt lat="40.42754" lon="20.09156">
        <ele>433.20999145508</ele>
        <time>2023-09-28T15:10:16.000Z</time>
      </trkpt>
      <trkpt lat="40.42753" lon="20.09162">
        <ele>432.73001098633</ele>
        <time>2023-09-28T15:10:15.000Z</time>
      </trkpt>
      <trkpt lat="40.42752" lon="20.09167">
        <ele>432.73001098633</ele>
        <time>2023-09-28T15:10:14.000Z</time>
      </trkpt>
      <trkpt lat="40.42752" lon="20.09174">
        <ele>431.76998901367</ele>
        <time>2023-09-28T15:10:13.000Z</time>
      </trkpt>
      <trkpt lat="40.42753" lon="20.09181">
        <ele>431.76998901367</ele>
        <time>2023-09-28T15:10:12.000Z</time>
      </trkpt>
      <trkpt lat="40.42755" lon="20.09187">
        <ele>431.29000854492</ele>
        <time>2023-09-28T15:10:11.000Z</time>
      </trkpt>
      <trkpt lat="40.42758" lon="20.09196">
        <ele>430.80999755859</ele>
        <time>2023-09-28T15:10:10.000Z</time>
      </trkpt>
      <trkpt lat="40.4276" lon="20.09202">
        <ele>430.32998657227</ele>
        <time>2023-09-28T15:10:09.000Z</time>
      </trkpt>
      <trkpt lat="40.42762" lon="20.09208">
        <ele>429.85000610352</ele>
        <time>2023-09-28T15:10:08.000Z</time>
      </trkpt>
      <trkpt lat="40.42764" lon="20.09212">
        <ele>429.36999511719</ele>
        <time>2023-09-28T15:10:07.000Z</time>
      </trkpt>
      <trkpt lat="40.42764" lon="20.09232">
        <ele>428.89001464844</ele>
        <time>2023-09-28T15:10:03.000Z</time>
      </trkpt>
      <trkpt lat="40.42762" lon="20.09236">
        <ele>428.89001464844</ele>
        <time>2023-09-28T15:10:02.000Z</time>
      </trkpt>
      <trkpt lat="40.42761" lon="20.09238">
        <ele>428.89001464844</ele>
        <time>2023-09-28T15:10:01.000Z</time>
      </trkpt>
      <trkpt lat="40.42755" lon="20.09246">
        <ele>428.39999389648</ele>
        <time>2023-09-28T15:10:00.000Z</time>
      </trkpt>
      <trkpt lat="40.42753" lon="20.09248">
        <ele>427.92001342773</ele>
        <time>2023-09-28T15:09:59.000Z</time>
      </trkpt>
      <trkpt lat="40.42748" lon="20.09257">
        <ele>427.44000244141</ele>
        <time>2023-09-28T15:09:58.000Z</time>
      </trkpt>
      <trkpt lat="40.42744" lon="20.09264">
        <ele>426.95999145508</ele>
        <time>2023-09-28T15:09:57.000Z</time>
      </trkpt>
      <trkpt lat="40.42742" lon="20.0927">
        <ele>426.48001098633</ele>
        <time>2023-09-28T15:09:56.000Z</time>
      </trkpt>
      <trkpt lat="40.4274" lon="20.09277">
        <ele>426</ele>
        <time>2023-09-28T15:09:55.000Z</time>
      </trkpt>
      <trkpt lat="40.42737" lon="20.09283">
        <ele>426</ele>
        <time>2023-09-28T15:09:54.000Z</time>
      </trkpt>
      <trkpt lat="40.42736" lon="20.09288">
        <ele>425.51998901367</ele>
        <time>2023-09-28T15:09:53.000Z</time>
      </trkpt>
      <trkpt lat="40.42735" lon="20.09294">
        <ele>425.04000854492</ele>
        <time>2023-09-28T15:09:52.000Z</time>
      </trkpt>
      <trkpt lat="40.42735" lon="20.09297">
        <ele>425.04000854492</ele>
        <time>2023-09-28T15:09:51.000Z</time>
      </trkpt>
      <trkpt lat="40.42734" lon="20.09305">
        <ele>424.55999755859</ele>
        <time>2023-09-28T15:09:50.000Z</time>
      </trkpt>
      <trkpt lat="40.42734" lon="20.09311">
        <ele>424.07998657227</ele>
        <time>2023-09-28T15:09:49.000Z</time>
      </trkpt>
      <trkpt lat="40.42733" lon="20.09321">
        <ele>423.60000610352</ele>
        <time>2023-09-28T15:09:48.000Z</time>
      </trkpt>
      <trkpt lat="40.42732" lon="20.09323">
        <ele>423.60000610352</ele>
        <time>2023-09-28T15:09:47.000Z</time>
      </trkpt>
      <trkpt lat="40.42731" lon="20.09329">
        <ele>424.55999755859</ele>
        <time>2023-09-28T15:09:04.000Z</time>
      </trkpt>
      <trkpt lat="40.42731" lon="20.09338">
        <ele>424.07998657227</ele>
        <time>2023-09-28T15:08:56.000Z</time>
      </trkpt>
      <trkpt lat="40.4273" lon="20.09348">
        <ele>423.60000610352</ele>
        <time>2023-09-28T15:08:55.000Z</time>
      </trkpt>
      <trkpt lat="40.4273" lon="20.09355">
        <ele>423.11999511719</ele>
        <time>2023-09-28T15:08:54.000Z</time>
      </trkpt>
      <trkpt lat="40.42731" lon="20.09362">
        <ele>422.64001464844</ele>
        <time>2023-09-28T15:08:53.000Z</time>
      </trkpt>
      <trkpt lat="40.42732" lon="20.09371">
        <ele>422.16000366211</ele>
        <time>2023-09-28T15:08:52.000Z</time>
      </trkpt>
      <trkpt lat="40.42733" lon="20.09378">
        <ele>421.67999267578</ele>
        <time>2023-09-28T15:08:51.000Z</time>
      </trkpt>
      <trkpt lat="40.42733" lon="20.09386">
        <ele>421.19000244141</ele>
        <time>2023-09-28T15:08:50.000Z</time>
      </trkpt>
      <trkpt lat="40.42733" lon="20.09395">
        <ele>420.70999145508</ele>
        <time>2023-09-28T15:08:49.000Z</time>
      </trkpt>
      <trkpt lat="40.42731" lon="20.09403">
        <ele>420.23001098633</ele>
        <time>2023-09-28T15:08:48.000Z</time>
      </trkpt>
      <trkpt lat="40.42727" lon="20.09411">
        <ele>419.75</ele>
        <time>2023-09-28T15:08:47.000Z</time>
      </trkpt>
      <trkpt lat="40.42725" lon="20.09416">
        <ele>419.75</ele>
        <time>2023-09-28T15:08:46.000Z</time>
      </trkpt>
      <trkpt lat="40.42718" lon="20.09427">
        <ele>419.26998901367</ele>
        <time>2023-09-28T15:08:45.000Z</time>
      </trkpt>
      <trkpt lat="40.42712" lon="20.09437">
        <ele>418.30999755859</ele>
        <time>2023-09-28T15:08:44.000Z</time>
      </trkpt>
      <trkpt lat="40.42708" lon="20.09444">
        <ele>417.82998657227</ele>
        <time>2023-09-28T15:08:43.000Z</time>
      </trkpt>
      <trkpt lat="40.42705" lon="20.09454">
        <ele>417.35000610352</ele>
        <time>2023-09-28T15:08:42.000Z</time>
      </trkpt>
      <trkpt lat="40.42702" lon="20.09463">
        <ele>416.86999511719</ele>
        <time>2023-09-28T15:08:41.000Z</time>
      </trkpt>
      <trkpt lat="40.42694" lon="20.0949">
        <ele>415.91000366211</ele>
        <time>2023-09-28T15:08:39.000Z</time>
      </trkpt>
      <trkpt lat="40.42689" lon="20.09502">
        <ele>415.42999267578</ele>
        <time>2023-09-28T15:08:38.000Z</time>
      </trkpt>
      <trkpt lat="40.42679" lon="20.09521">
        <ele>414.95001220703</ele>
        <time>2023-09-28T15:08:36.000Z</time>
      </trkpt>
      <trkpt lat="40.42676" lon="20.09525">
        <ele>414.95001220703</ele>
        <time>2023-09-28T15:08:35.000Z</time>
      </trkpt>
      <trkpt lat="40.4267" lon="20.09536">
        <ele>413.98001098633</ele>
        <time>2023-09-28T15:08:34.000Z</time>
      </trkpt>
      <trkpt lat="40.42666" lon="20.09541">
        <ele>413.98001098633</ele>
        <time>2023-09-28T15:08:33.000Z</time>
      </trkpt>
      <trkpt lat="40.4266" lon="20.0955">
        <ele>413.01998901367</ele>
        <time>2023-09-28T15:08:32.000Z</time>
      </trkpt>
      <trkpt lat="40.42658" lon="20.09555">
        <ele>413.01998901367</ele>
        <time>2023-09-28T15:08:31.000Z</time>
      </trkpt>
      <trkpt lat="40.42655" lon="20.09561">
        <ele>412.05999755859</ele>
        <time>2023-09-28T15:08:30.000Z</time>
      </trkpt>
      <trkpt lat="40.42654" lon="20.09567">
        <ele>411.57998657227</ele>
        <time>2023-09-28T15:08:29.000Z</time>
      </trkpt>
      <trkpt lat="40.42653" lon="20.09569">
        <ele>411.57998657227</ele>
        <time>2023-09-28T15:08:28.000Z</time>
      </trkpt>
      <trkpt lat="40.42649" lon="20.09585">
        <ele>410.61999511719</ele>
        <time>2023-09-28T15:08:27.000Z</time>
      </trkpt>
      <trkpt lat="40.42648" lon="20.0959">
        <ele>410.14001464844</ele>
        <time>2023-09-28T15:08:26.000Z</time>
      </trkpt>
      <trkpt lat="40.42646" lon="20.09602">
        <ele>409.66000366211</ele>
        <time>2023-09-28T15:08:25.000Z</time>
      </trkpt>
      <trkpt lat="40.42644" lon="20.09609">
        <ele>409.66000366211</ele>
        <time>2023-09-28T15:08:24.000Z</time>
      </trkpt>
      <trkpt lat="40.42643" lon="20.09616">
        <ele>409.66000366211</ele>
        <time>2023-09-28T15:08:23.000Z</time>
      </trkpt>
      <trkpt lat="40.42642" lon="20.09621">
        <ele>409.17999267578</ele>
        <time>2023-09-28T15:08:22.000Z</time>
      </trkpt>
      <trkpt lat="40.42642" lon="20.09624">
        <ele>409.17999267578</ele>
        <time>2023-09-28T15:08:21.000Z</time>
      </trkpt>
      <trkpt lat="40.4264" lon="20.09632">
        <ele>408.70001220703</ele>
        <time>2023-09-28T15:08:20.000Z</time>
      </trkpt>
      <trkpt lat="40.42639" lon="20.09636">
        <ele>408.2200012207</ele>
        <time>2023-09-28T15:08:19.000Z</time>
      </trkpt>
      <trkpt lat="40.42638" lon="20.09638">
        <ele>408.2200012207</ele>
        <time>2023-09-28T15:08:18.000Z</time>
      </trkpt>
      <trkpt lat="40.4263" lon="20.09659">
        <ele>406.76998901367</ele>
        <time>2023-09-28T15:08:11.000Z</time>
      </trkpt>
      <trkpt lat="40.42622" lon="20.09674">
        <ele>407.26000976562</ele>
        <time>2023-09-28T15:08:03.000Z</time>
      </trkpt>
      <trkpt lat="40.4262" lon="20.09674">
        <ele>404.36999511719</ele>
        <time>2023-09-28T14:57:54.000Z</time>
      </trkpt>
      <trkpt lat="40.4262" lon="20.09674">
        <ele>404.36999511719</ele>
        <time>2023-09-28T14:57:27.000Z</time>
      </trkpt>
      <trkpt lat="40.42618" lon="20.0969">
        <ele>404.36999511719</ele>
        <time>2023-09-28T14:57:07.000Z</time>
      </trkpt>
      <trkpt lat="40.42618" lon="20.09695">
        <ele>404.85000610352</ele>
        <time>2023-09-28T14:57:01.000Z</time>
      </trkpt>
      <trkpt lat="40.42617" lon="20.09706">
        <ele>404.36999511719</ele>
        <time>2023-09-28T14:57:00.000Z</time>
      </trkpt>
      <trkpt lat="40.42616" lon="20.09716">
        <ele>403.89001464844</ele>
        <time>2023-09-28T14:56:59.000Z</time>
      </trkpt>
      <trkpt lat="40.42614" lon="20.09726">
        <ele>403.41000366211</ele>
        <time>2023-09-28T14:56:58.000Z</time>
      </trkpt>
      <trkpt lat="40.42611" lon="20.09742">
        <ele>402.92999267578</ele>
        <time>2023-09-28T14:56:57.000Z</time>
      </trkpt>
      <trkpt lat="40.42609" lon="20.09749">
        <ele>402.45001220703</ele>
        <time>2023-09-28T14:56:56.000Z</time>
      </trkpt>
      <trkpt lat="40.42604" lon="20.09764">
        <ele>401.48999023438</ele>
        <time>2023-09-28T14:56:55.000Z</time>
      </trkpt>
      <trkpt lat="40.42591" lon="20.09822">
        <ele>398.60000610352</ele>
        <time>2023-09-28T14:56:51.000Z</time>
      </trkpt>
      <trkpt lat="40.42589" lon="20.09834">
        <ele>397.64001464844</ele>
        <time>2023-09-28T14:56:50.000Z</time>
      </trkpt>
      <trkpt lat="40.4259" lon="20.09843">
        <ele>397.64001464844</ele>
        <time>2023-09-28T14:56:49.000Z</time>
      </trkpt>
      <trkpt lat="40.42592" lon="20.09861">
        <ele>396.67999267578</ele>
        <time>2023-09-28T14:56:48.000Z</time>
      </trkpt>
      <trkpt lat="40.42592" lon="20.0987">
        <ele>396.20001220703</ele>
        <time>2023-09-28T14:56:47.000Z</time>
      </trkpt>
      <trkpt lat="40.42593" lon="20.09893">
        <ele>395.23999023438</ele>
        <time>2023-09-28T14:56:46.000Z</time>
      </trkpt>
      <trkpt lat="40.42592" lon="20.09911">
        <ele>394.2799987793</ele>
        <time>2023-09-28T14:56:45.000Z</time>
      </trkpt>
      <trkpt lat="40.42592" lon="20.09926">
        <ele>393.79998779297</ele>
        <time>2023-09-28T14:56:44.000Z</time>
      </trkpt>
      <trkpt lat="40.42593" lon="20.09944">
        <ele>393.32000732422</ele>
        <time>2023-09-28T14:56:43.000Z</time>
      </trkpt>
      <trkpt lat="40.42593" lon="20.09964">
        <ele>391.86999511719</ele>
        <time>2023-09-28T14:56:42.000Z</time>
      </trkpt>
      <trkpt lat="40.42593" lon="20.0998">
        <ele>391.39001464844</ele>
        <time>2023-09-28T14:56:41.000Z</time>
      </trkpt>
      <trkpt lat="40.42592" lon="20.09997">
        <ele>390.42999267578</ele>
        <time>2023-09-28T14:56:40.000Z</time>
      </trkpt>
      <trkpt lat="40.42591" lon="20.10013">
        <ele>389.95001220703</ele>
        <time>2023-09-28T14:56:39.000Z</time>
      </trkpt>
      <trkpt lat="40.42591" lon="20.10018">
        <ele>389.4700012207</ele>
        <time>2023-09-28T14:56:38.000Z</time>
      </trkpt>
      <trkpt lat="40.42592" lon="20.1005">
        <ele>387.54998779297</ele>
        <time>2023-09-28T14:56:37.000Z</time>
      </trkpt>
      <trkpt lat="40.42592" lon="20.10068">
        <ele>386.58999633789</ele>
        <time>2023-09-28T14:56:36.000Z</time>
      </trkpt>
      <trkpt lat="40.4259" lon="20.10084">
        <ele>385.63000488281</ele>
        <time>2023-09-28T14:56:35.000Z</time>
      </trkpt>
      <trkpt lat="40.42588" lon="20.10105">
        <ele>384.66000366211</ele>
        <time>2023-09-28T14:56:34.000Z</time>
      </trkpt>
      <trkpt lat="40.42587" lon="20.10118">
        <ele>383.70001220703</ele>
        <time>2023-09-28T14:56:33.000Z</time>
      </trkpt>
      <trkpt lat="40.42586" lon="20.1014">
        <ele>382.73999023438</ele>
        <time>2023-09-28T14:56:32.000Z</time>
      </trkpt>
      <trkpt lat="40.42584" lon="20.10154">
        <ele>381.7799987793</ele>
        <time>2023-09-28T14:56:31.000Z</time>
      </trkpt>
      <trkpt lat="40.4258" lon="20.10172">
        <ele>381.29998779297</ele>
        <time>2023-09-28T14:56:30.000Z</time>
      </trkpt>
      <trkpt lat="40.42577" lon="20.10186">
        <ele>380.33999633789</ele>
        <time>2023-09-28T14:56:29.000Z</time>
      </trkpt>
      <trkpt lat="40.42577" lon="20.102">
        <ele>379.38000488281</ele>
        <time>2023-09-28T14:56:28.000Z</time>
      </trkpt>
      <trkpt lat="40.42577" lon="20.10214">
        <ele>378.89999389648</ele>
        <time>2023-09-28T14:56:27.000Z</time>
      </trkpt>
      <trkpt lat="40.42581" lon="20.10227">
        <ele>377.94000244141</ele>
        <time>2023-09-28T14:56:26.000Z</time>
      </trkpt>
      <trkpt lat="40.42586" lon="20.10241">
        <ele>377.45001220703</ele>
        <time>2023-09-28T14:56:25.000Z</time>
      </trkpt>
      <trkpt lat="40.42592" lon="20.10251">
        <ele>376.9700012207</ele>
        <time>2023-09-28T14:56:24.000Z</time>
      </trkpt>
      <trkpt lat="40.426" lon="20.10261">
        <ele>376.01000976562</ele>
        <time>2023-09-28T14:56:23.000Z</time>
      </trkpt>
      <trkpt lat="40.42607" lon="20.10269">
        <ele>375.5299987793</ele>
        <time>2023-09-28T14:56:22.000Z</time>
      </trkpt>
      <trkpt lat="40.42615" lon="20.10277">
        <ele>375.04998779297</ele>
        <time>2023-09-28T14:56:21.000Z</time>
      </trkpt>
      <trkpt lat="40.42632" lon="20.10293">
        <ele>373.60998535156</ele>
        <time>2023-09-28T14:56:19.000Z</time>
      </trkpt>
      <trkpt lat="40.42636" lon="20.10297">
        <ele>373.60998535156</ele>
        <time>2023-09-28T14:56:18.000Z</time>
      </trkpt>
      <trkpt lat="40.42641" lon="20.10303">
        <ele>373.13000488281</ele>
        <time>2023-09-28T14:56:17.000Z</time>
      </trkpt>
      <trkpt lat="40.42646" lon="20.10307">
        <ele>373.13000488281</ele>
        <time>2023-09-28T14:56:16.000Z</time>
      </trkpt>
      <trkpt lat="40.4265" lon="20.1031">
        <ele>372.64999389648</ele>
        <time>2023-09-28T14:56:15.000Z</time>
      </trkpt>
      <trkpt lat="40.42656" lon="20.10312">
        <ele>372.17001342773</ele>
        <time>2023-09-28T14:56:14.000Z</time>
      </trkpt>
      <trkpt lat="40.42659" lon="20.10313">
        <ele>371.69000244141</ele>
        <time>2023-09-28T14:56:13.000Z</time>
      </trkpt>
      <trkpt lat="40.42665" lon="20.10315">
        <ele>371.69000244141</ele>
        <time>2023-09-28T14:56:12.000Z</time>
      </trkpt>
      <trkpt lat="40.4267" lon="20.10316">
        <ele>371.20999145508</ele>
        <time>2023-09-28T14:56:11.000Z</time>
      </trkpt>
      <trkpt lat="40.42677" lon="20.10318">
        <ele>370.73001098633</ele>
        <time>2023-09-28T14:56:10.000Z</time>
      </trkpt>
      <trkpt lat="40.42682" lon="20.1032">
        <ele>370.73001098633</ele>
        <time>2023-09-28T14:56:09.000Z</time>
      </trkpt>
      <trkpt lat="40.42686" lon="20.10323">
        <ele>370.23999023438</ele>
        <time>2023-09-28T14:56:08.000Z</time>
      </trkpt>
      <trkpt lat="40.42688" lon="20.10325">
        <ele>370.23999023438</ele>
        <time>2023-09-28T14:56:07.000Z</time>
      </trkpt>
      <trkpt lat="40.4269" lon="20.10332">
        <ele>369.76000976562</ele>
        <time>2023-09-28T14:56:06.000Z</time>
      </trkpt>
      <trkpt lat="40.4269" lon="20.10339">
        <ele>369.2799987793</ele>
        <time>2023-09-28T14:56:05.000Z</time>
      </trkpt>
      <trkpt lat="40.42687" lon="20.10347">
        <ele>368.79998779297</ele>
        <time>2023-09-28T14:56:04.000Z</time>
      </trkpt>
      <trkpt lat="40.42673" lon="20.10385">
        <ele>366.39999389648</ele>
        <time>2023-09-28T14:56:01.000Z</time>
      </trkpt>
      <trkpt lat="40.42666" lon="20.10404">
        <ele>365.44000244141</ele>
        <time>2023-09-28T14:56:00.000Z</time>
      </trkpt>
      <trkpt lat="40.42654" lon="20.10433">
        <ele>363.51998901367</ele>
        <time>2023-09-28T14:55:58.000Z</time>
      </trkpt>
      <trkpt lat="40.4265" lon="20.10447">
        <ele>363.04000854492</ele>
        <time>2023-09-28T14:55:57.000Z</time>
      </trkpt>
      <trkpt lat="40.42647" lon="20.10461">
        <ele>362.07000732422</ele>
        <time>2023-09-28T14:55:56.000Z</time>
      </trkpt>
      <trkpt lat="40.42647" lon="20.10474">
        <ele>361.58999633789</ele>
        <time>2023-09-28T14:55:55.000Z</time>
      </trkpt>
      <trkpt lat="40.42647" lon="20.10486">
        <ele>361.10998535156</ele>
        <time>2023-09-28T14:55:54.000Z</time>
      </trkpt>
      <trkpt lat="40.42649" lon="20.10497">
        <ele>360.63000488281</ele>
        <time>2023-09-28T14:55:53.000Z</time>
      </trkpt>
      <trkpt lat="40.42653" lon="20.10506">
        <ele>360.14999389648</ele>
        <time>2023-09-28T14:55:52.000Z</time>
      </trkpt>
      <trkpt lat="40.42657" lon="20.10515">
        <ele>359.67001342773</ele>
        <time>2023-09-28T14:55:51.000Z</time>
      </trkpt>
      <trkpt lat="40.42662" lon="20.10521">
        <ele>358.70999145508</ele>
        <time>2023-09-28T14:55:50.000Z</time>
      </trkpt>
      <trkpt lat="40.42668" lon="20.10527">
        <ele>358.70999145508</ele>
        <time>2023-09-28T14:55:49.000Z</time>
      </trkpt>
      <trkpt lat="40.42674" lon="20.10529">
        <ele>358.23001098633</ele>
        <time>2023-09-28T14:55:48.000Z</time>
      </trkpt>
      <trkpt lat="40.42681" lon="20.1053">
        <ele>357.75</ele>
        <time>2023-09-28T14:55:47.000Z</time>
      </trkpt>
      <trkpt lat="40.42686" lon="20.10529">
        <ele>357.26998901367</ele>
        <time>2023-09-28T14:55:46.000Z</time>
      </trkpt>
      <trkpt lat="40.42695" lon="20.10528">
        <ele>356.30999755859</ele>
        <time>2023-09-28T14:55:45.000Z</time>
      </trkpt>
      <trkpt lat="40.427" lon="20.1053">
        <ele>355.82998657227</ele>
        <time>2023-09-28T14:55:44.000Z</time>
      </trkpt>
      <trkpt lat="40.42704" lon="20.10534">
        <ele>355.33999633789</ele>
        <time>2023-09-28T14:55:43.000Z</time>
      </trkpt>
      <trkpt lat="40.42706" lon="20.10541">
        <ele>355.33999633789</ele>
        <time>2023-09-28T14:55:42.000Z</time>
      </trkpt>
      <trkpt lat="40.42707" lon="20.1055">
        <ele>355.33999633789</ele>
        <time>2023-09-28T14:55:41.000Z</time>
      </trkpt>
      <trkpt lat="40.42705" lon="20.10558">
        <ele>355.33999633789</ele>
        <time>2023-09-28T14:55:40.000Z</time>
      </trkpt>
      <trkpt lat="40.42703" lon="20.10565">
        <ele>355.33999633789</ele>
        <time>2023-09-28T14:55:39.000Z</time>
      </trkpt>
      <trkpt lat="40.42699" lon="20.10571">
        <ele>355.33999633789</ele>
        <time>2023-09-28T14:55:38.000Z</time>
      </trkpt>
      <trkpt lat="40.42695" lon="20.10575">
        <ele>354.85998535156</ele>
        <time>2023-09-28T14:55:37.000Z</time>
      </trkpt>
      <trkpt lat="40.42692" lon="20.10577">
        <ele>354.38000488281</ele>
        <time>2023-09-28T14:55:36.000Z</time>
      </trkpt>
      <trkpt lat="40.42685" lon="20.10581">
        <ele>353.89999389648</ele>
        <time>2023-09-28T14:55:35.000Z</time>
      </trkpt>
      <trkpt lat="40.42678" lon="20.10585">
        <ele>353.42001342773</ele>
        <time>2023-09-28T14:55:34.000Z</time>
      </trkpt>
      <trkpt lat="40.4267" lon="20.10591">
        <ele>352.94000244141</ele>
        <time>2023-09-28T14:55:33.000Z</time>
      </trkpt>
      <trkpt lat="40.42664" lon="20.10597">
        <ele>352.45999145508</ele>
        <time>2023-09-28T14:55:32.000Z</time>
      </trkpt>
      <trkpt lat="40.42656" lon="20.10607">
        <ele>351.98001098633</ele>
        <time>2023-09-28T14:55:31.000Z</time>
      </trkpt>
      <trkpt lat="40.42649" lon="20.10617">
        <ele>351.01998901367</ele>
        <time>2023-09-28T14:55:30.000Z</time>
      </trkpt>
      <trkpt lat="40.42645" lon="20.10627">
        <ele>350.05999755859</ele>
        <time>2023-09-28T14:55:29.000Z</time>
      </trkpt>
      <trkpt lat="40.42642" lon="20.10638">
        <ele>349.57998657227</ele>
        <time>2023-09-28T14:55:28.000Z</time>
      </trkpt>
      <trkpt lat="40.4264" lon="20.10653">
        <ele>348.61999511719</ele>
        <time>2023-09-28T14:55:27.000Z</time>
      </trkpt>
      <trkpt lat="40.42638" lon="20.1067">
        <ele>347.17001342773</ele>
        <time>2023-09-28T14:55:26.000Z</time>
      </trkpt>
      <trkpt lat="40.42637" lon="20.10687">
        <ele>346.20999145508</ele>
        <time>2023-09-28T14:55:25.000Z</time>
      </trkpt>
      <trkpt lat="40.42638" lon="20.10699">
        <ele>345.73001098633</ele>
        <time>2023-09-28T14:55:24.000Z</time>
      </trkpt>
      <trkpt lat="40.42641" lon="20.10712">
        <ele>345.25</ele>
        <time>2023-09-28T14:55:23.000Z</time>
      </trkpt>
      <trkpt lat="40.42646" lon="20.10723">
        <ele>344.76998901367</ele>
        <time>2023-09-28T14:55:22.000Z</time>
      </trkpt>
      <trkpt lat="40.42652" lon="20.10736">
        <ele>343.80999755859</ele>
        <time>2023-09-28T14:55:21.000Z</time>
      </trkpt>
      <trkpt lat="40.42655" lon="20.10744">
        <ele>342.85000610352</ele>
        <time>2023-09-28T14:55:20.000Z</time>
      </trkpt>
      <trkpt lat="40.4266" lon="20.10756">
        <ele>341.89001464844</ele>
        <time>2023-09-28T14:55:19.000Z</time>
      </trkpt>
      <trkpt lat="40.42662" lon="20.10766">
        <ele>341.89001464844</ele>
        <time>2023-09-28T14:55:18.000Z</time>
      </trkpt>
      <trkpt lat="40.42663" lon="20.10778">
        <ele>340.92001342773</ele>
        <time>2023-09-28T14:55:17.000Z</time>
      </trkpt>
      <trkpt lat="40.42662" lon="20.10792">
        <ele>340.44000244141</ele>
        <time>2023-09-28T14:55:16.000Z</time>
      </trkpt>
      <trkpt lat="40.42659" lon="20.10816">
        <ele>339</ele>
        <time>2023-09-28T14:55:14.000Z</time>
      </trkpt>
      <trkpt lat="40.42657" lon="20.1084">
        <ele>338.51998901367</ele>
        <time>2023-09-28T14:55:13.000Z</time>
      </trkpt>
      <trkpt lat="40.42655" lon="20.10859">
        <ele>337.07998657227</ele>
        <time>2023-09-28T14:55:12.000Z</time>
      </trkpt>
      <trkpt lat="40.42653" lon="20.1087">
        <ele>336.60000610352</ele>
        <time>2023-09-28T14:55:11.000Z</time>
      </trkpt>
      <trkpt lat="40.42649" lon="20.10888">
        <ele>336.11999511719</ele>
        <time>2023-09-28T14:55:10.000Z</time>
      </trkpt>
      <trkpt lat="40.42646" lon="20.10904">
        <ele>335.16000366211</ele>
        <time>2023-09-28T14:55:09.000Z</time>
      </trkpt>
      <trkpt lat="40.42637" lon="20.10958">
        <ele>332.75</ele>
        <time>2023-09-28T14:55:07.000Z</time>
      </trkpt>
      <trkpt lat="40.42633" lon="20.10972">
        <ele>331.30999755859</ele>
        <time>2023-09-28T14:55:06.000Z</time>
      </trkpt>
      <trkpt lat="40.42629" lon="20.10984">
        <ele>330.82998657227</ele>
        <time>2023-09-28T14:55:05.000Z</time>
      </trkpt>
      <trkpt lat="40.42621" lon="20.11004">
        <ele>329.39001464844</ele>
        <time>2023-09-28T14:55:04.000Z</time>
      </trkpt>
      <trkpt lat="40.42617" lon="20.11015">
        <ele>328.42999267578</ele>
        <time>2023-09-28T14:55:03.000Z</time>
      </trkpt>
      <trkpt lat="40.42611" lon="20.11031">
        <ele>327.4700012207</ele>
        <time>2023-09-28T14:55:02.000Z</time>
      </trkpt>
      <trkpt lat="40.42602" lon="20.11048">
        <ele>326.5</ele>
        <time>2023-09-28T14:55:01.000Z</time>
      </trkpt>
      <trkpt lat="40.42595" lon="20.11062">
        <ele>325.54000854492</ele>
        <time>2023-09-28T14:55:00.000Z</time>
      </trkpt>
      <trkpt lat="40.42589" lon="20.11076">
        <ele>325.05999755859</ele>
        <time>2023-09-28T14:54:59.000Z</time>
      </trkpt>
      <trkpt lat="40.42585" lon="20.11084">
        <ele>324.57998657227</ele>
        <time>2023-09-28T14:54:58.000Z</time>
      </trkpt>
      <trkpt lat="40.42575" lon="20.11102">
        <ele>323.14001464844</ele>
        <time>2023-09-28T14:54:57.000Z</time>
      </trkpt>
      <trkpt lat="40.4257" lon="20.11113">
        <ele>322.66000366211</ele>
        <time>2023-09-28T14:54:56.000Z</time>
      </trkpt>
      <trkpt lat="40.42566" lon="20.11124">
        <ele>322.17999267578</ele>
        <time>2023-09-28T14:54:55.000Z</time>
      </trkpt>
      <trkpt lat="40.42563" lon="20.11135">
        <ele>321.70001220703</ele>
        <time>2023-09-28T14:54:54.000Z</time>
      </trkpt>
      <trkpt lat="40.42561" lon="20.11147">
        <ele>321.2200012207</ele>
        <time>2023-09-28T14:54:53.000Z</time>
      </trkpt>
      <trkpt lat="40.42561" lon="20.11157">
        <ele>320.73999023438</ele>
        <time>2023-09-28T14:54:52.000Z</time>
      </trkpt>
      <trkpt lat="40.42562" lon="20.11171">
        <ele>319.7799987793</ele>
        <time>2023-09-28T14:54:51.000Z</time>
      </trkpt>
      <trkpt lat="40.42564" lon="20.11182">
        <ele>319.7799987793</ele>
        <time>2023-09-28T14:54:50.000Z</time>
      </trkpt>
      <trkpt lat="40.42566" lon="20.11194">
        <ele>319.29998779297</ele>
        <time>2023-09-28T14:54:49.000Z</time>
      </trkpt>
      <trkpt lat="40.42565" lon="20.11204">
        <ele>318.32998657227</ele>
        <time>2023-09-28T14:54:48.000Z</time>
      </trkpt>
      <trkpt lat="40.42564" lon="20.11209">
        <ele>318.32998657227</ele>
        <time>2023-09-28T14:54:47.000Z</time>
      </trkpt>
      <trkpt lat="40.42561" lon="20.11219">
        <ele>317.85000610352</ele>
        <time>2023-09-28T14:54:46.000Z</time>
      </trkpt>
      <trkpt lat="40.42555" lon="20.11234">
        <ele>316.89001464844</ele>
        <time>2023-09-28T14:54:45.000Z</time>
      </trkpt>
      <trkpt lat="40.4255" lon="20.11242">
        <ele>316.41000366211</ele>
        <time>2023-09-28T14:54:44.000Z</time>
      </trkpt>
      <trkpt lat="40.42543" lon="20.11252">
        <ele>315.45001220703</ele>
        <time>2023-09-28T14:54:43.000Z</time>
      </trkpt>
      <trkpt lat="40.42533" lon="20.11262">
        <ele>314.9700012207</ele>
        <time>2023-09-28T14:54:42.000Z</time>
      </trkpt>
      <trkpt lat="40.42526" lon="20.1127">
        <ele>314.48999023438</ele>
        <time>2023-09-28T14:54:41.000Z</time>
      </trkpt>
      <trkpt lat="40.42519" lon="20.11279">
        <ele>314.01000976562</ele>
        <time>2023-09-28T14:54:40.000Z</time>
      </trkpt>
      <trkpt lat="40.42514" lon="20.11288">
        <ele>313.04998779297</ele>
        <time>2023-09-28T14:54:39.000Z</time>
      </trkpt>
      <trkpt lat="40.42494" lon="20.11334">
        <ele>310.16000366211</ele>
        <time>2023-09-28T14:54:36.000Z</time>
      </trkpt>
      <trkpt lat="40.42483" lon="20.11363">
        <ele>307.76000976562</ele>
        <time>2023-09-28T14:54:34.000Z</time>
      </trkpt>
      <trkpt lat="40.42475" lon="20.11384">
        <ele>306.32000732422</ele>
        <time>2023-09-28T14:54:33.000Z</time>
      </trkpt>
      <trkpt lat="40.42473" lon="20.11388">
        <ele>305.83999633789</ele>
        <time>2023-09-28T14:54:32.000Z</time>
      </trkpt>
      <trkpt lat="40.42463" lon="20.11406">
        <ele>304.88000488281</ele>
        <time>2023-09-28T14:54:31.000Z</time>
      </trkpt>
      <trkpt lat="40.42458" lon="20.11416">
        <ele>304.88000488281</ele>
        <time>2023-09-28T14:54:30.000Z</time>
      </trkpt>
      <trkpt lat="40.4245" lon="20.11431">
        <ele>302.95001220703</ele>
        <time>2023-09-28T14:54:29.000Z</time>
      </trkpt>
      <trkpt lat="40.42444" lon="20.11444">
        <ele>301.51000976562</ele>
        <time>2023-09-28T14:54:28.000Z</time>
      </trkpt>
      <trkpt lat="40.4244" lon="20.11454">
        <ele>300.54998779297</ele>
        <time>2023-09-28T14:54:27.000Z</time>
      </trkpt>
      <trkpt lat="40.42439" lon="20.1146">
        <ele>300.54998779297</ele>
        <time>2023-09-28T14:54:26.000Z</time>
      </trkpt>
      <trkpt lat="40.42429" lon="20.11489">
        <ele>299.58999633789</ele>
        <time>2023-09-28T14:54:25.000Z</time>
      </trkpt>
      <trkpt lat="40.42422" lon="20.11507">
        <ele>299.10998535156</ele>
        <time>2023-09-28T14:54:24.000Z</time>
      </trkpt>
      <trkpt lat="40.42416" lon="20.11519">
        <ele>298.14999389648</ele>
        <time>2023-09-28T14:54:23.000Z</time>
      </trkpt>
      <trkpt lat="40.42408" lon="20.11535">
        <ele>296.70001220703</ele>
        <time>2023-09-28T14:54:22.000Z</time>
      </trkpt>
      <trkpt lat="40.42399" lon="20.11546">
        <ele>296.2200012207</ele>
        <time>2023-09-28T14:54:21.000Z</time>
      </trkpt>
      <trkpt lat="40.4239" lon="20.11555">
        <ele>295.26000976562</ele>
        <time>2023-09-28T14:54:20.000Z</time>
      </trkpt>
      <trkpt lat="40.42384" lon="20.11559">
        <ele>294.7799987793</ele>
        <time>2023-09-28T14:54:19.000Z</time>
      </trkpt>
      <trkpt lat="40.42375" lon="20.11565">
        <ele>294.29998779297</ele>
        <time>2023-09-28T14:54:18.000Z</time>
      </trkpt>
      <trkpt lat="40.42364" lon="20.11572">
        <ele>293.82000732422</ele>
        <time>2023-09-28T14:54:17.000Z</time>
      </trkpt>
      <trkpt lat="40.42352" lon="20.11578">
        <ele>293.33999633789</ele>
        <time>2023-09-28T14:54:16.000Z</time>
      </trkpt>
      <trkpt lat="40.42307" lon="20.116">
        <ele>291.89999389648</ele>
        <time>2023-09-28T14:54:13.000Z</time>
      </trkpt>
      <trkpt lat="40.42284" lon="20.11613">
        <ele>291.42001342773</ele>
        <time>2023-09-28T14:54:11.000Z</time>
      </trkpt>
      <trkpt lat="40.42277" lon="20.11617">
        <ele>291.42001342773</ele>
        <time>2023-09-28T14:54:10.000Z</time>
      </trkpt>
      <trkpt lat="40.42219" lon="20.11644">
        <ele>289.9700012207</ele>
        <time>2023-09-28T14:54:05.000Z</time>
      </trkpt>
      <trkpt lat="40.42215" lon="20.11647">
        <ele>289.9700012207</ele>
        <time>2023-09-28T14:54:04.000Z</time>
      </trkpt>
      <trkpt lat="40.42191" lon="20.1166">
        <ele>289.01000976562</ele>
        <time>2023-09-28T14:54:02.000Z</time>
      </trkpt>
      <trkpt lat="40.42181" lon="20.11665">
        <ele>289.01000976562</ele>
        <time>2023-09-28T14:54:01.000Z</time>
      </trkpt>
      <trkpt lat="40.42166" lon="20.11674">
        <ele>288.5299987793</ele>
        <time>2023-09-28T14:53:59.000Z</time>
      </trkpt>
      <trkpt lat="40.42156" lon="20.11679">
        <ele>288.5299987793</ele>
        <time>2023-09-28T14:53:58.000Z</time>
      </trkpt>
      <trkpt lat="40.42147" lon="20.11685">
        <ele>288.04998779297</ele>
        <time>2023-09-28T14:53:56.000Z</time>
      </trkpt>
      <trkpt lat="40.42132" lon="20.11694">
        <ele>287.57000732422</ele>
        <time>2023-09-28T14:53:55.000Z</time>
      </trkpt>
      <trkpt lat="40.42123" lon="20.11698">
        <ele>287.57000732422</ele>
        <time>2023-09-28T14:53:54.000Z</time>
      </trkpt>
      <trkpt lat="40.42054" lon="20.11736">
        <ele>286.60998535156</ele>
        <time>2023-09-28T14:53:49.000Z</time>
      </trkpt>
      <trkpt lat="40.42037" lon="20.11745">
        <ele>286.13000488281</ele>
        <time>2023-09-28T14:53:48.000Z</time>
      </trkpt>
      <trkpt lat="40.42022" lon="20.11753">
        <ele>286.13000488281</ele>
        <time>2023-09-28T14:53:47.000Z</time>
      </trkpt>
      <trkpt lat="40.41947" lon="20.11795">
        <ele>286.13000488281</ele>
        <time>2023-09-28T14:53:42.000Z</time>
      </trkpt>
      <trkpt lat="40.41943" lon="20.11797">
        <ele>286.13000488281</ele>
        <time>2023-09-28T14:53:41.000Z</time>
      </trkpt>
      <trkpt lat="40.41907" lon="20.11817">
        <ele>286.60998535156</ele>
        <time>2023-09-28T14:53:39.000Z</time>
      </trkpt>
      <trkpt lat="40.41859" lon="20.11844">
        <ele>286.13000488281</ele>
        <time>2023-09-28T14:53:36.000Z</time>
      </trkpt>
      <trkpt lat="40.41792" lon="20.11879">
        <ele>284.69000244141</ele>
        <time>2023-09-28T14:53:32.000Z</time>
      </trkpt>
      <trkpt lat="40.41684" lon="20.11938">
        <ele>282.76998901367</ele>
        <time>2023-09-28T14:53:25.000Z</time>
      </trkpt>
      <trkpt lat="40.41673" lon="20.11946">
        <ele>281.79998779297</ele>
        <time>2023-09-28T14:53:24.000Z</time>
      </trkpt>
      <trkpt lat="40.41662" lon="20.11956">
        <ele>281.79998779297</ele>
        <time>2023-09-28T14:53:23.000Z</time>
      </trkpt>
      <trkpt lat="40.41653" lon="20.11966">
        <ele>281.32000732422</ele>
        <time>2023-09-28T14:53:22.000Z</time>
      </trkpt>
      <trkpt lat="40.41633" lon="20.11993">
        <ele>281.32000732422</ele>
        <time>2023-09-28T14:53:20.000Z</time>
      </trkpt>
      <trkpt lat="40.41558" lon="20.12093">
        <ele>279.88000488281</ele>
        <time>2023-09-28T14:53:13.000Z</time>
      </trkpt>
      <trkpt lat="40.41551" lon="20.12106">
        <ele>280.35998535156</ele>
        <time>2023-09-28T14:53:12.000Z</time>
      </trkpt>
      <trkpt lat="40.41545" lon="20.1212">
        <ele>280.35998535156</ele>
        <time>2023-09-28T14:53:11.000Z</time>
      </trkpt>
      <trkpt lat="40.41538" lon="20.12144">
        <ele>280.83999633789</ele>
        <time>2023-09-28T14:53:09.000Z</time>
      </trkpt>
      <trkpt lat="40.41534" lon="20.12155">
        <ele>280.83999633789</ele>
        <time>2023-09-28T14:53:08.000Z</time>
      </trkpt>
      <trkpt lat="40.41515" lon="20.12216">
        <ele>280.83999633789</ele>
        <time>2023-09-28T14:53:04.000Z</time>
      </trkpt>
      <trkpt lat="40.41502" lon="20.12263">
        <ele>281.79998779297</ele>
        <time>2023-09-28T14:53:01.000Z</time>
      </trkpt>
      <trkpt lat="40.415" lon="20.12271">
        <ele>281.32000732422</ele>
        <time>2023-09-28T14:53:00.000Z</time>
      </trkpt>
      <trkpt lat="40.41497" lon="20.12281">
        <ele>280.83999633789</ele>
        <time>2023-09-28T14:52:59.000Z</time>
      </trkpt>
      <trkpt lat="40.41493" lon="20.12295">
        <ele>280.83999633789</ele>
        <time>2023-09-28T14:52:57.000Z</time>
      </trkpt>
      <trkpt lat="40.41486" lon="20.12314">
        <ele>280.83999633789</ele>
        <time>2023-09-28T14:52:56.000Z</time>
      </trkpt>
      <trkpt lat="40.41481" lon="20.12326">
        <ele>279.39999389648</ele>
        <time>2023-09-28T14:52:55.000Z</time>
      </trkpt>
      <trkpt lat="40.41477" lon="20.12334">
        <ele>278.92001342773</ele>
        <time>2023-09-28T14:52:54.000Z</time>
      </trkpt>
      <trkpt lat="40.41475" lon="20.12336">
        <ele>278.92001342773</ele>
        <time>2023-09-28T14:52:53.000Z</time>
      </trkpt>
      <trkpt lat="40.41465" lon="20.12351">
        <ele>278.92001342773</ele>
        <time>2023-09-28T14:52:52.000Z</time>
      </trkpt>
      <trkpt lat="40.41458" lon="20.1236">
        <ele>278.92001342773</ele>
        <time>2023-09-28T14:52:51.000Z</time>
      </trkpt>
      <trkpt lat="40.41453" lon="20.12366">
        <ele>278.92001342773</ele>
        <time>2023-09-28T14:52:50.000Z</time>
      </trkpt>
      <trkpt lat="40.4138" lon="20.12432">
        <ele>277.95999145508</ele>
        <time>2023-09-28T14:52:41.000Z</time>
      </trkpt>
      <trkpt lat="40.4135" lon="20.12457">
        <ele>277.95999145508</ele>
        <time>2023-09-28T14:52:39.000Z</time>
      </trkpt>
      <trkpt lat="40.41275" lon="20.12523">
        <ele>276.51998901367</ele>
        <time>2023-09-28T14:52:33.000Z</time>
      </trkpt>
      <trkpt lat="40.41147" lon="20.12637">
        <ele>275.07000732422</ele>
        <time>2023-09-28T14:52:27.000Z</time>
      </trkpt>
      <trkpt lat="40.40907" lon="20.12852">
        <ele>272.19000244141</ele>
        <time>2023-09-28T14:52:16.000Z</time>
      </trkpt>
      <trkpt lat="40.40766" lon="20.12977">
        <ele>270.75</ele>
        <time>2023-09-28T14:52:10.000Z</time>
      </trkpt>
      <trkpt lat="40.40747" lon="20.12989">
        <ele>270.26998901367</ele>
        <time>2023-09-28T14:52:09.000Z</time>
      </trkpt>
      <trkpt lat="40.4074" lon="20.12992">
        <ele>270.26998901367</ele>
        <time>2023-09-28T14:52:08.000Z</time>
      </trkpt>
      <trkpt lat="40.40663" lon="20.1302">
        <ele>268.82998657227</ele>
        <time>2023-09-28T14:52:05.000Z</time>
      </trkpt>
      <trkpt lat="40.40383" lon="20.13123">
        <ele>266.89999389648</ele>
        <time>2023-09-28T14:51:55.000Z</time>
      </trkpt>
      <trkpt lat="40.40238" lon="20.13179">
        <ele>265.45999145508</ele>
        <time>2023-09-28T14:51:50.000Z</time>
      </trkpt>
      <trkpt lat="40.40218" lon="20.1319">
        <ele>264.98001098633</ele>
        <time>2023-09-28T14:51:49.000Z</time>
      </trkpt>
      <trkpt lat="40.40201" lon="20.13203">
        <ele>264.98001098633</ele>
        <time>2023-09-28T14:51:48.000Z</time>
      </trkpt>
      <trkpt lat="40.40188" lon="20.13215">
        <ele>265.45999145508</ele>
        <time>2023-09-28T14:51:47.000Z</time>
      </trkpt>
      <trkpt lat="40.39969" lon="20.13418">
        <ele>262.10000610352</ele>
        <time>2023-09-28T14:51:37.000Z</time>
      </trkpt>
      <trkpt lat="40.39765" lon="20.13585">
        <ele>257.76998901367</ele>
        <time>2023-09-28T14:51:28.000Z</time>
      </trkpt>
      <trkpt lat="40.39543" lon="20.13746">
        <ele>259.20999145508</ele>
        <time>2023-09-28T14:51:19.000Z</time>
      </trkpt>
      <trkpt lat="40.3937" lon="20.13871">
        <ele>258.25</ele>
        <time>2023-09-28T14:51:11.000Z</time>
      </trkpt>
      <trkpt lat="40.39131" lon="20.14024">
        <ele>256.32998657227</ele>
        <time>2023-09-28T14:51:01.000Z</time>
      </trkpt>
      <trkpt lat="40.38805" lon="20.14232">
        <ele>254.41000366211</ele>
        <time>2023-09-28T14:50:49.000Z</time>
      </trkpt>
      <trkpt lat="40.38661" lon="20.14323">
        <ele>253.44000244141</ele>
        <time>2023-09-28T14:50:43.000Z</time>
      </trkpt>
      <trkpt lat="40.38645" lon="20.14336">
        <ele>252.96000671387</ele>
        <time>2023-09-28T14:50:42.000Z</time>
      </trkpt>
      <trkpt lat="40.38504" lon="20.14484">
        <ele>252.47999572754</ele>
        <time>2023-09-28T14:50:34.000Z</time>
      </trkpt>
      <trkpt lat="40.38348" lon="20.14649">
        <ele>251.52000427246</ele>
        <time>2023-09-28T14:50:26.000Z</time>
      </trkpt>
      <trkpt lat="40.38232" lon="20.1481">
        <ele>249.11999511719</ele>
        <time>2023-09-28T14:50:19.000Z</time>
      </trkpt>
      <trkpt lat="40.38155" lon="20.14915">
        <ele>249.11999511719</ele>
        <time>2023-09-28T14:50:14.000Z</time>
      </trkpt>
      <trkpt lat="40.38143" lon="20.14925">
        <ele>249.11999511719</ele>
        <time>2023-09-28T14:50:13.000Z</time>
      </trkpt>
      <trkpt lat="40.3813" lon="20.1493">
        <ele>249.11999511719</ele>
        <time>2023-09-28T14:50:12.000Z</time>
      </trkpt>
      <trkpt lat="40.38118" lon="20.1493">
        <ele>249.11999511719</ele>
        <time>2023-09-28T14:50:11.000Z</time>
      </trkpt>
      <trkpt lat="40.38099" lon="20.1493">
        <ele>248.16000366211</ele>
        <time>2023-09-28T14:50:10.000Z</time>
      </trkpt>
      <trkpt lat="40.38081" lon="20.14933">
        <ele>247.19999694824</ele>
        <time>2023-09-28T14:50:09.000Z</time>
      </trkpt>
      <trkpt lat="40.3807" lon="20.14937">
        <ele>247.19999694824</ele>
        <time>2023-09-28T14:50:08.000Z</time>
      </trkpt>
      <trkpt lat="40.37963" lon="20.14998">
        <ele>248.63999938965</ele>
        <time>2023-09-28T14:50:03.000Z</time>
      </trkpt>
      <trkpt lat="40.37908" lon="20.15046">
        <ele>245.75</ele>
        <time>2023-09-28T14:50:00.000Z</time>
      </trkpt>
      <trkpt lat="40.37892" lon="20.15056">
        <ele>244.78999328613</ele>
        <time>2023-09-28T14:49:59.000Z</time>
      </trkpt>
      <trkpt lat="40.37877" lon="20.15064">
        <ele>243.83000183105</ele>
        <time>2023-09-28T14:49:58.000Z</time>
      </trkpt>
      <trkpt lat="40.37608" lon="20.15203">
        <ele>240.4700012207</ele>
        <time>2023-09-28T14:49:47.000Z</time>
      </trkpt>
      <trkpt lat="40.37415" lon="20.15305">
        <ele>241.42999267578</ele>
        <time>2023-09-28T14:49:38.000Z</time>
      </trkpt>
      <trkpt lat="40.37252" lon="20.15392">
        <ele>243.83000183105</ele>
        <time>2023-09-28T14:49:30.000Z</time>
      </trkpt>
      <trkpt lat="40.37116" lon="20.15465">
        <ele>241.91000366211</ele>
        <time>2023-09-28T14:49:22.000Z</time>
      </trkpt>
      <trkpt lat="40.37095" lon="20.15475">
        <ele>241.42999267578</ele>
        <time>2023-09-28T14:49:21.000Z</time>
      </trkpt>
      <trkpt lat="40.37083" lon="20.15479">
        <ele>240.94999694824</ele>
        <time>2023-09-28T14:49:20.000Z</time>
      </trkpt>
      <trkpt lat="40.37072" lon="20.15482">
        <ele>240.4700012207</ele>
        <time>2023-09-28T14:49:19.000Z</time>
      </trkpt>
      <trkpt lat="40.37058" lon="20.15484">
        <ele>239.99000549316</ele>
        <time>2023-09-28T14:49:18.000Z</time>
      </trkpt>
      <trkpt lat="40.37051" lon="20.15484">
        <ele>239.99000549316</ele>
        <time>2023-09-28T14:49:17.000Z</time>
      </trkpt>
      <trkpt lat="40.37039" lon="20.15484">
        <ele>239.50999450684</ele>
        <time>2023-09-28T14:49:16.000Z</time>
      </trkpt>
      <trkpt lat="40.37031" lon="20.15484">
        <ele>239.02000427246</ele>
        <time>2023-09-28T14:49:15.000Z</time>
      </trkpt>
      <trkpt lat="40.37007" lon="20.15487">
        <ele>238.53999328613</ele>
        <time>2023-09-28T14:49:12.000Z</time>
      </trkpt>
      <trkpt lat="40.36988" lon="20.1549">
        <ele>238.05999755859</ele>
        <time>2023-09-28T14:49:11.000Z</time>
      </trkpt>
      <trkpt lat="40.36976" lon="20.15494">
        <ele>238.05999755859</ele>
        <time>2023-09-28T14:49:10.000Z</time>
      </trkpt>
      <trkpt lat="40.36967" lon="20.15498">
        <ele>237.58000183105</ele>
        <time>2023-09-28T14:49:09.000Z</time>
      </trkpt>
      <trkpt lat="40.36894" lon="20.15534">
        <ele>235.66000366211</ele>
        <time>2023-09-28T14:49:05.000Z</time>
      </trkpt>
      <trkpt lat="40.36644" lon="20.15641">
        <ele>231.33000183105</ele>
        <time>2023-09-28T14:48:55.000Z</time>
      </trkpt>
      <trkpt lat="40.36422" lon="20.15735">
        <ele>228.92999267578</ele>
        <time>2023-09-28T14:48:46.000Z</time>
      </trkpt>
      <trkpt lat="40.36243" lon="20.1581">
        <ele>227.49000549316</ele>
        <time>2023-09-28T14:48:38.000Z</time>
      </trkpt>
      <trkpt lat="40.36117" lon="20.15867">
        <ele>226.5299987793</ele>
        <time>2023-09-28T14:48:32.000Z</time>
      </trkpt>
      <trkpt lat="40.36104" lon="20.15877">
        <ele>226.5299987793</ele>
        <time>2023-09-28T14:48:31.000Z</time>
      </trkpt>
      <trkpt lat="40.36099" lon="20.15882">
        <ele>227.00999450684</ele>
        <time>2023-09-28T14:48:30.000Z</time>
      </trkpt>
      <trkpt lat="40.36084" lon="20.15902">
        <ele>226.05000305176</ele>
        <time>2023-09-28T14:48:29.000Z</time>
      </trkpt>
      <trkpt lat="40.36072" lon="20.15911">
        <ele>226.5299987793</ele>
        <time>2023-09-28T14:48:28.000Z</time>
      </trkpt>
      <trkpt lat="40.36059" lon="20.15916">
        <ele>227.49000549316</ele>
        <time>2023-09-28T14:48:27.000Z</time>
      </trkpt>
      <trkpt lat="40.36052" lon="20.15917">
        <ele>227.49000549316</ele>
        <time>2023-09-28T14:48:26.000Z</time>
      </trkpt>
      <trkpt lat="40.36025" lon="20.1592">
        <ele>227.49000549316</ele>
        <time>2023-09-28T14:48:25.000Z</time>
      </trkpt>
      <trkpt lat="40.36015" lon="20.15921">
        <ele>227.00999450684</ele>
        <time>2023-09-28T14:48:24.000Z</time>
      </trkpt>
      <trkpt lat="40.35933" lon="20.15924">
        <ele>226.05000305176</ele>
        <time>2023-09-28T14:48:20.000Z</time>
      </trkpt>
      <trkpt lat="40.359" lon="20.1593">
        <ele>226.5299987793</ele>
        <time>2023-09-28T14:48:19.000Z</time>
      </trkpt>
      <trkpt lat="40.35896" lon="20.15931">
        <ele>226.5299987793</ele>
        <time>2023-09-28T14:48:18.000Z</time>
      </trkpt>
      <trkpt lat="40.35862" lon="20.1594">
        <ele>225.08999633789</ele>
        <time>2023-09-28T14:48:17.000Z</time>
      </trkpt>
      <trkpt lat="40.35842" lon="20.15943">
        <ele>223.63999938965</ele>
        <time>2023-09-28T14:48:16.000Z</time>
      </trkpt>
      <trkpt lat="40.35831" lon="20.15942">
        <ele>223.16000366211</ele>
        <time>2023-09-28T14:48:15.000Z</time>
      </trkpt>
      <trkpt lat="40.35807" lon="20.1594">
        <ele>222.67999267578</ele>
        <time>2023-09-28T14:48:14.000Z</time>
      </trkpt>
      <trkpt lat="40.35793" lon="20.15941">
        <ele>222.67999267578</ele>
        <time>2023-09-28T14:48:13.000Z</time>
      </trkpt>
      <trkpt lat="40.35777" lon="20.15948">
        <ele>222.67999267578</ele>
        <time>2023-09-28T14:48:12.000Z</time>
      </trkpt>
      <trkpt lat="40.3576" lon="20.1596">
        <ele>223.16000366211</ele>
        <time>2023-09-28T14:48:11.000Z</time>
      </trkpt>
      <trkpt lat="40.35705" lon="20.16006">
        <ele>223.63999938965</ele>
        <time>2023-09-28T14:48:08.000Z</time>
      </trkpt>
      <trkpt lat="40.35687" lon="20.16017">
        <ele>223.63999938965</ele>
        <time>2023-09-28T14:48:07.000Z</time>
      </trkpt>
      <trkpt lat="40.35606" lon="20.1606">
        <ele>222.19999694824</ele>
        <time>2023-09-28T14:48:03.000Z</time>
      </trkpt>
      <trkpt lat="40.3541" lon="20.16165">
        <ele>223.16000366211</ele>
        <time>2023-09-28T14:47:54.000Z</time>
      </trkpt>
      <trkpt lat="40.35388" lon="20.16177">
        <ele>223.16000366211</ele>
        <time>2023-09-28T14:47:53.000Z</time>
      </trkpt>
      <trkpt lat="40.35351" lon="20.162">
        <ele>222.67999267578</ele>
        <time>2023-09-28T14:47:51.000Z</time>
      </trkpt>
      <trkpt lat="40.35263" lon="20.16257">
        <ele>221.7200012207</ele>
        <time>2023-09-28T14:47:46.000Z</time>
      </trkpt>
      <trkpt lat="40.35251" lon="20.16268">
        <ele>221.7200012207</ele>
        <time>2023-09-28T14:47:45.000Z</time>
      </trkpt>
      <trkpt lat="40.35244" lon="20.16277">
        <ele>221.24000549316</ele>
        <time>2023-09-28T14:47:44.000Z</time>
      </trkpt>
      <trkpt lat="40.35235" lon="20.1629">
        <ele>221.24000549316</ele>
        <time>2023-09-28T14:47:43.000Z</time>
      </trkpt>
      <trkpt lat="40.35227" lon="20.16298">
        <ele>220.75999450684</ele>
        <time>2023-09-28T14:47:42.000Z</time>
      </trkpt>
      <trkpt lat="40.35218" lon="20.16303">
        <ele>220.2799987793</ele>
        <time>2023-09-28T14:47:41.000Z</time>
      </trkpt>
      <trkpt lat="40.35208" lon="20.16302">
        <ele>219.80000305176</ele>
        <time>2023-09-28T14:47:40.000Z</time>
      </trkpt>
      <trkpt lat="40.35198" lon="20.16298">
        <ele>219.32000732422</ele>
        <time>2023-09-28T14:47:39.000Z</time>
      </trkpt>
      <trkpt lat="40.35191" lon="20.16294">
        <ele>218.83999633789</ele>
        <time>2023-09-28T14:47:38.000Z</time>
      </trkpt>
      <trkpt lat="40.35163" lon="20.16276">
        <ele>218.83999633789</ele>
        <time>2023-09-28T14:47:36.000Z</time>
      </trkpt>
      <trkpt lat="40.35144" lon="20.16265">
        <ele>218.83999633789</ele>
        <time>2023-09-28T14:47:35.000Z</time>
      </trkpt>
      <trkpt lat="40.3513" lon="20.1626">
        <ele>218.36000061035</ele>
        <time>2023-09-28T14:47:34.000Z</time>
      </trkpt>
      <trkpt lat="40.35115" lon="20.16259">
        <ele>218.36000061035</ele>
        <time>2023-09-28T14:47:33.000Z</time>
      </trkpt>
      <trkpt lat="40.35102" lon="20.16261">
        <ele>218.36000061035</ele>
        <time>2023-09-28T14:47:32.000Z</time>
      </trkpt>
      <trkpt lat="40.35091" lon="20.16267">
        <ele>218.83999633789</ele>
        <time>2023-09-28T14:47:31.000Z</time>
      </trkpt>
      <trkpt lat="40.35079" lon="20.16278">
        <ele>218.36000061035</ele>
        <time>2023-09-28T14:47:30.000Z</time>
      </trkpt>
      <trkpt lat="40.35066" lon="20.16295">
        <ele>218.83999633789</ele>
        <time>2023-09-28T14:47:29.000Z</time>
      </trkpt>
      <trkpt lat="40.35058" lon="20.16308">
        <ele>218.83999633789</ele>
        <time>2023-09-28T14:47:28.000Z</time>
      </trkpt>
      <trkpt lat="40.35046" lon="20.16331">
        <ele>218.36000061035</ele>
        <time>2023-09-28T14:47:27.000Z</time>
      </trkpt>
      <trkpt lat="40.35039" lon="20.1635">
        <ele>217.39999389648</ele>
        <time>2023-09-28T14:47:26.000Z</time>
      </trkpt>
      <trkpt lat="40.35035" lon="20.1637">
        <ele>216.42999267578</ele>
        <time>2023-09-28T14:47:25.000Z</time>
      </trkpt>
      <trkpt lat="40.35035" lon="20.16386">
        <ele>215.94999694824</ele>
        <time>2023-09-28T14:47:24.000Z</time>
      </trkpt>
      <trkpt lat="40.35035" lon="20.16396">
        <ele>215.94999694824</ele>
        <time>2023-09-28T14:47:23.000Z</time>
      </trkpt>
      <trkpt lat="40.35042" lon="20.16469">
        <ele>215.4700012207</ele>
        <time>2023-09-28T14:47:21.000Z</time>
      </trkpt>
      <trkpt lat="40.35044" lon="20.16493">
        <ele>215.4700012207</ele>
        <time>2023-09-28T14:47:20.000Z</time>
      </trkpt>
      <trkpt lat="40.35043" lon="20.16519">
        <ele>215.4700012207</ele>
        <time>2023-09-28T14:47:19.000Z</time>
      </trkpt>
      <trkpt lat="40.35039" lon="20.16544">
        <ele>215.94999694824</ele>
        <time>2023-09-28T14:47:18.000Z</time>
      </trkpt>
      <trkpt lat="40.35035" lon="20.16565">
        <ele>215.94999694824</ele>
        <time>2023-09-28T14:47:17.000Z</time>
      </trkpt>
      <trkpt lat="40.35029" lon="20.16583">
        <ele>215.94999694824</ele>
        <time>2023-09-28T14:47:16.000Z</time>
      </trkpt>
      <trkpt lat="40.3502" lon="20.16597">
        <ele>215.94999694824</ele>
        <time>2023-09-28T14:47:15.000Z</time>
      </trkpt>
      <trkpt lat="40.35009" lon="20.16609">
        <ele>216.42999267578</ele>
        <time>2023-09-28T14:47:14.000Z</time>
      </trkpt>
      <trkpt lat="40.34997" lon="20.16618">
        <ele>215.94999694824</ele>
        <time>2023-09-28T14:47:13.000Z</time>
      </trkpt>
      <trkpt lat="40.34982" lon="20.16624">
        <ele>215.4700012207</ele>
        <time>2023-09-28T14:47:12.000Z</time>
      </trkpt>
      <trkpt lat="40.34967" lon="20.16627">
        <ele>214.50999450684</ele>
        <time>2023-09-28T14:47:11.000Z</time>
      </trkpt>
      <trkpt lat="40.34949" lon="20.16629">
        <ele>213.55000305176</ele>
        <time>2023-09-28T14:47:10.000Z</time>
      </trkpt>
      <trkpt lat="40.34937" lon="20.16629">
        <ele>213.55000305176</ele>
        <time>2023-09-28T14:47:09.000Z</time>
      </trkpt>
      <trkpt lat="40.34912" lon="20.16627">
        <ele>212.11000061035</ele>
        <time>2023-09-28T14:47:08.000Z</time>
      </trkpt>
      <trkpt lat="40.34894" lon="20.16628">
        <ele>211.63000488281</ele>
        <time>2023-09-28T14:47:07.000Z</time>
      </trkpt>
      <trkpt lat="40.34886" lon="20.16629">
        <ele>211.63000488281</ele>
        <time>2023-09-28T14:47:06.000Z</time>
      </trkpt>
      <trkpt lat="40.34787" lon="20.16654">
        <ele>210.19000244141</ele>
        <time>2023-09-28T14:47:02.000Z</time>
      </trkpt>
      <trkpt lat="40.3474" lon="20.16677">
        <ele>210.19000244141</ele>
        <time>2023-09-28T14:47:00.000Z</time>
      </trkpt>
      <trkpt lat="40.34508" lon="20.16807">
        <ele>209.69999694824</ele>
        <time>2023-09-28T14:46:49.000Z</time>
      </trkpt>
      <trkpt lat="40.34342" lon="20.16899">
        <ele>206.33999633789</ele>
        <time>2023-09-28T14:46:41.000Z</time>
      </trkpt>
      <trkpt lat="40.34324" lon="20.16911">
        <ele>206.82000732422</ele>
        <time>2023-09-28T14:46:40.000Z</time>
      </trkpt>
      <trkpt lat="40.34309" lon="20.16921">
        <ele>207.30000305176</ele>
        <time>2023-09-28T14:46:39.000Z</time>
      </trkpt>
      <trkpt lat="40.34252" lon="20.16976">
        <ele>213.07000732422</ele>
        <time>2023-09-28T14:46:36.000Z</time>
      </trkpt>
      <trkpt lat="40.34237" lon="20.16988">
        <ele>214.50999450684</ele>
        <time>2023-09-28T14:46:35.000Z</time>
      </trkpt>
      <trkpt lat="40.34219" lon="20.17">
        <ele>215.4700012207</ele>
        <time>2023-09-28T14:46:34.000Z</time>
      </trkpt>
      <trkpt lat="40.342" lon="20.17009">
        <ele>215.4700012207</ele>
        <time>2023-09-28T14:46:33.000Z</time>
      </trkpt>
      <trkpt lat="40.34183" lon="20.17013">
        <ele>214.99000549316</ele>
        <time>2023-09-28T14:46:32.000Z</time>
      </trkpt>
      <trkpt lat="40.34169" lon="20.17015">
        <ele>214.0299987793</ele>
        <time>2023-09-28T14:46:31.000Z</time>
      </trkpt>
      <trkpt lat="40.34149" lon="20.17014">
        <ele>213.07000732422</ele>
        <time>2023-09-28T14:46:30.000Z</time>
      </trkpt>
      <trkpt lat="40.34131" lon="20.17016">
        <ele>212.11000061035</ele>
        <time>2023-09-28T14:46:29.000Z</time>
      </trkpt>
      <trkpt lat="40.34124" lon="20.17018">
        <ele>211.63000488281</ele>
        <time>2023-09-28T14:46:28.000Z</time>
      </trkpt>
      <trkpt lat="40.34034" lon="20.17049">
        <ele>208.74000549316</ele>
        <time>2023-09-28T14:46:24.000Z</time>
      </trkpt>
      <trkpt lat="40.33952" lon="20.17086">
        <ele>207.7799987793</ele>
        <time>2023-09-28T14:46:20.000Z</time>
      </trkpt>
      <trkpt lat="40.33934" lon="20.17099">
        <ele>206.82000732422</ele>
        <time>2023-09-28T14:46:19.000Z</time>
      </trkpt>
      <trkpt lat="40.33921" lon="20.17111">
        <ele>206.33999633789</ele>
        <time>2023-09-28T14:46:18.000Z</time>
      </trkpt>
      <trkpt lat="40.33911" lon="20.17123">
        <ele>205.38000488281</ele>
        <time>2023-09-28T14:46:17.000Z</time>
      </trkpt>
      <trkpt lat="40.33867" lon="20.17189">
        <ele>201.05000305176</ele>
        <time>2023-09-28T14:46:13.000Z</time>
      </trkpt>
      <trkpt lat="40.33771" lon="20.17342">
        <ele>197.69000244141</ele>
        <time>2023-09-28T14:46:06.000Z</time>
      </trkpt>
      <trkpt lat="40.33767" lon="20.17351">
        <ele>197.69000244141</ele>
        <time>2023-09-28T14:46:05.000Z</time>
      </trkpt>
      <trkpt lat="40.33741" lon="20.1741">
        <ele>196.72999572754</ele>
        <time>2023-09-28T14:46:03.000Z</time>
      </trkpt>
      <trkpt lat="40.33729" lon="20.17427">
        <ele>196.25</ele>
        <time>2023-09-28T14:46:02.000Z</time>
      </trkpt>
      <trkpt lat="40.33716" lon="20.17439">
        <ele>196.25</ele>
        <time>2023-09-28T14:46:01.000Z</time>
      </trkpt>
      <trkpt lat="40.33703" lon="20.17447">
        <ele>196.25</ele>
        <time>2023-09-28T14:46:00.000Z</time>
      </trkpt>
      <trkpt lat="40.33685" lon="20.17455">
        <ele>196.72999572754</ele>
        <time>2023-09-28T14:45:59.000Z</time>
      </trkpt>
      <trkpt lat="40.33668" lon="20.1746">
        <ele>196.25</ele>
        <time>2023-09-28T14:45:58.000Z</time>
      </trkpt>
      <trkpt lat="40.3365" lon="20.17461">
        <ele>196.25</ele>
        <time>2023-09-28T14:45:57.000Z</time>
      </trkpt>
      <trkpt lat="40.33646" lon="20.17461">
        <ele>196.25</ele>
        <time>2023-09-28T14:45:56.000Z</time>
      </trkpt>
      <trkpt lat="40.33602" lon="20.17458">
        <ele>195.2799987793</ele>
        <time>2023-09-28T14:45:54.000Z</time>
      </trkpt>
      <trkpt lat="40.33568" lon="20.17459">
        <ele>194.80000305176</ele>
        <time>2023-09-28T14:45:53.000Z</time>
      </trkpt>
      <trkpt lat="40.33545" lon="20.17462">
        <ele>194.80000305176</ele>
        <time>2023-09-28T14:45:52.000Z</time>
      </trkpt>
      <trkpt lat="40.33532" lon="20.17466">
        <ele>194.80000305176</ele>
        <time>2023-09-28T14:45:51.000Z</time>
      </trkpt>
      <trkpt lat="40.33467" lon="20.1749">
        <ele>194.80000305176</ele>
        <time>2023-09-28T14:45:48.000Z</time>
      </trkpt>
      <trkpt lat="40.33363" lon="20.17527">
        <ele>195.2799987793</ele>
        <time>2023-09-28T14:45:43.000Z</time>
      </trkpt>
      <trkpt lat="40.33348" lon="20.17532">
        <ele>195.2799987793</ele>
        <time>2023-09-28T14:45:42.000Z</time>
      </trkpt>
      <trkpt lat="40.33333" lon="20.17534">
        <ele>194.80000305176</ele>
        <time>2023-09-28T14:45:41.000Z</time>
      </trkpt>
      <trkpt lat="40.33318" lon="20.17533">
        <ele>194.80000305176</ele>
        <time>2023-09-28T14:45:40.000Z</time>
      </trkpt>
      <trkpt lat="40.33213" lon="20.17511">
        <ele>196.25</ele>
        <time>2023-09-28T14:45:35.000Z</time>
      </trkpt>
      <trkpt lat="40.33193" lon="20.1751">
        <ele>196.25</ele>
        <time>2023-09-28T14:45:34.000Z</time>
      </trkpt>
      <trkpt lat="40.33175" lon="20.17513">
        <ele>196.72999572754</ele>
        <time>2023-09-28T14:45:33.000Z</time>
      </trkpt>
      <trkpt lat="40.33123" lon="20.17527">
        <ele>196.72999572754</ele>
        <time>2023-09-28T14:45:30.000Z</time>
      </trkpt>
      <trkpt lat="40.33112" lon="20.17534">
        <ele>196.72999572754</ele>
        <time>2023-09-28T14:45:29.000Z</time>
      </trkpt>
      <trkpt lat="40.33103" lon="20.17545">
        <ele>196.72999572754</ele>
        <time>2023-09-28T14:45:28.000Z</time>
      </trkpt>
      <trkpt lat="40.33095" lon="20.17561">
        <ele>196.25</ele>
        <time>2023-09-28T14:45:27.000Z</time>
      </trkpt>
      <trkpt lat="40.33088" lon="20.1758">
        <ele>196.25</ele>
        <time>2023-09-28T14:45:26.000Z</time>
      </trkpt>
      <trkpt lat="40.33086" lon="20.17588">
        <ele>195.77000427246</ele>
        <time>2023-09-28T14:45:25.000Z</time>
      </trkpt>
      <trkpt lat="40.33078" lon="20.17621">
        <ele>195.2799987793</ele>
        <time>2023-09-28T14:45:24.000Z</time>
      </trkpt>
      <trkpt lat="40.33071" lon="20.17644">
        <ele>194.80000305176</ele>
        <time>2023-09-28T14:45:23.000Z</time>
      </trkpt>
      <trkpt lat="40.33063" lon="20.17663">
        <ele>194.80000305176</ele>
        <time>2023-09-28T14:45:22.000Z</time>
      </trkpt>
      <trkpt lat="40.33057" lon="20.17673">
        <ele>194.80000305176</ele>
        <time>2023-09-28T14:45:21.000Z</time>
      </trkpt>
      <trkpt lat="40.33042" lon="20.17697">
        <ele>194.32000732422</ele>
        <time>2023-09-28T14:45:20.000Z</time>
      </trkpt>
      <trkpt lat="40.33036" lon="20.17706">
        <ele>194.32000732422</ele>
        <time>2023-09-28T14:45:19.000Z</time>
      </trkpt>
      <trkpt lat="40.32991" lon="20.17796">
        <ele>193.36000061035</ele>
        <time>2023-09-28T14:45:15.000Z</time>
      </trkpt>
      <trkpt lat="40.32981" lon="20.17821">
        <ele>193.36000061035</ele>
        <time>2023-09-28T14:45:14.000Z</time>
      </trkpt>
      <trkpt lat="40.32957" lon="20.17899">
        <ele>192.88000488281</ele>
        <time>2023-09-28T14:45:10.000Z</time>
      </trkpt>
      <trkpt lat="40.32948" lon="20.17936">
        <ele>192.88000488281</ele>
        <time>2023-09-28T14:45:09.000Z</time>
      </trkpt>
      <trkpt lat="40.32943" lon="20.17955">
        <ele>192.39999389648</ele>
        <time>2023-09-28T14:45:08.000Z</time>
      </trkpt>
      <trkpt lat="40.32934" lon="20.17969">
        <ele>192.39999389648</ele>
        <time>2023-09-28T14:45:07.000Z</time>
      </trkpt>
      <trkpt lat="40.32924" lon="20.17977">
        <ele>192.88000488281</ele>
        <time>2023-09-28T14:45:06.000Z</time>
      </trkpt>
      <trkpt lat="40.32871" lon="20.18008">
        <ele>195.77000427246</ele>
        <time>2023-09-28T14:45:03.000Z</time>
      </trkpt>
      <trkpt lat="40.32857" lon="20.18013">
        <ele>195.77000427246</ele>
        <time>2023-09-28T14:45:02.000Z</time>
      </trkpt>
      <trkpt lat="40.32842" lon="20.18012">
        <ele>194.80000305176</ele>
        <time>2023-09-28T14:45:01.000Z</time>
      </trkpt>
      <trkpt lat="40.32827" lon="20.18007">
        <ele>194.32000732422</ele>
        <time>2023-09-28T14:45:00.000Z</time>
      </trkpt>
      <trkpt lat="40.32808" lon="20.18004">
        <ele>193.83999633789</ele>
        <time>2023-09-28T14:44:59.000Z</time>
      </trkpt>
      <trkpt lat="40.32792" lon="20.18006">
        <ele>193.83999633789</ele>
        <time>2023-09-28T14:44:58.000Z</time>
      </trkpt>
      <trkpt lat="40.32772" lon="20.18011">
        <ele>193.83999633789</ele>
        <time>2023-09-28T14:44:57.000Z</time>
      </trkpt>
      <trkpt lat="40.32748" lon="20.18016">
        <ele>193.36000061035</ele>
        <time>2023-09-28T14:44:56.000Z</time>
      </trkpt>
      <trkpt lat="40.32733" lon="20.18022">
        <ele>193.36000061035</ele>
        <time>2023-09-28T14:44:55.000Z</time>
      </trkpt>
      <trkpt lat="40.3272" lon="20.18031">
        <ele>193.83999633789</ele>
        <time>2023-09-28T14:44:54.000Z</time>
      </trkpt>
      <trkpt lat="40.32708" lon="20.18044">
        <ele>193.83999633789</ele>
        <time>2023-09-28T14:44:53.000Z</time>
      </trkpt>
      <trkpt lat="40.32699" lon="20.1806">
        <ele>193.83999633789</ele>
        <time>2023-09-28T14:44:52.000Z</time>
      </trkpt>
      <trkpt lat="40.32693" lon="20.18078">
        <ele>193.36000061035</ele>
        <time>2023-09-28T14:44:51.000Z</time>
      </trkpt>
      <trkpt lat="40.32691" lon="20.18083">
        <ele>193.36000061035</ele>
        <time>2023-09-28T14:44:50.000Z</time>
      </trkpt>
      <trkpt lat="40.32682" lon="20.18125">
        <ele>193.36000061035</ele>
        <time>2023-09-28T14:44:49.000Z</time>
      </trkpt>
      <trkpt lat="40.32664" lon="20.18182">
        <ele>193.36000061035</ele>
        <time>2023-09-28T14:44:47.000Z</time>
      </trkpt>
      <trkpt lat="40.32661" lon="20.18192">
        <ele>193.36000061035</ele>
        <time>2023-09-28T14:44:46.000Z</time>
      </trkpt>
      <trkpt lat="40.32641" lon="20.18261">
        <ele>190.96000671387</ele>
        <time>2023-09-28T14:44:44.000Z</time>
      </trkpt>
      <trkpt lat="40.32633" lon="20.18279">
        <ele>190</ele>
        <time>2023-09-28T14:44:43.000Z</time>
      </trkpt>
      <trkpt lat="40.32623" lon="20.18295">
        <ele>190</ele>
        <time>2023-09-28T14:44:42.000Z</time>
      </trkpt>
      <trkpt lat="40.32594" lon="20.18329">
        <ele>189.03999328613</ele>
        <time>2023-09-28T14:44:39.000Z</time>
      </trkpt>
      <trkpt lat="40.32545" lon="20.1838">
        <ele>189.03999328613</ele>
        <time>2023-09-28T14:44:35.000Z</time>
      </trkpt>
      <trkpt lat="40.32537" lon="20.18392">
        <ele>189.03999328613</ele>
        <time>2023-09-28T14:44:34.000Z</time>
      </trkpt>
      <trkpt lat="40.32532" lon="20.18403">
        <ele>188.55999755859</ele>
        <time>2023-09-28T14:44:33.000Z</time>
      </trkpt>
      <trkpt lat="40.32508" lon="20.18472">
        <ele>187.58999633789</ele>
        <time>2023-09-28T14:44:29.000Z</time>
      </trkpt>
      <trkpt lat="40.325" lon="20.1849">
        <ele>187.58999633789</ele>
        <time>2023-09-28T14:44:28.000Z</time>
      </trkpt>
      <trkpt lat="40.32491" lon="20.18505">
        <ele>188.08000183105</ele>
        <time>2023-09-28T14:44:27.000Z</time>
      </trkpt>
      <trkpt lat="40.32485" lon="20.18511">
        <ele>188.55999755859</ele>
        <time>2023-09-28T14:44:26.000Z</time>
      </trkpt>
      <trkpt lat="40.32457" lon="20.18539">
        <ele>189.03999328613</ele>
        <time>2023-09-28T14:44:24.000Z</time>
      </trkpt>
      <trkpt lat="40.32378" lon="20.18611">
        <ele>190</ele>
        <time>2023-09-28T14:44:18.000Z</time>
      </trkpt>
      <trkpt lat="40.32369" lon="20.18622">
        <ele>189.52000427246</ele>
        <time>2023-09-28T14:44:17.000Z</time>
      </trkpt>
      <trkpt lat="40.32361" lon="20.18636">
        <ele>188.55999755859</ele>
        <time>2023-09-28T14:44:16.000Z</time>
      </trkpt>
      <trkpt lat="40.32355" lon="20.18653">
        <ele>188.08000183105</ele>
        <time>2023-09-28T14:44:15.000Z</time>
      </trkpt>
      <trkpt lat="40.32352" lon="20.18664">
        <ele>188.08000183105</ele>
        <time>2023-09-28T14:44:14.000Z</time>
      </trkpt>
      <trkpt lat="40.32345" lon="20.18694">
        <ele>188.08000183105</ele>
        <time>2023-09-28T14:44:13.000Z</time>
      </trkpt>
      <trkpt lat="40.32339" lon="20.18711">
        <ele>187.58999633789</ele>
        <time>2023-09-28T14:44:12.000Z</time>
      </trkpt>
      <trkpt lat="40.32331" lon="20.18724">
        <ele>187.58999633789</ele>
        <time>2023-09-28T14:44:11.000Z</time>
      </trkpt>
      <trkpt lat="40.32319" lon="20.18734">
        <ele>187.58999633789</ele>
        <time>2023-09-28T14:44:10.000Z</time>
      </trkpt>
      <trkpt lat="40.32305" lon="20.1874">
        <ele>187.58999633789</ele>
        <time>2023-09-28T14:44:09.000Z</time>
      </trkpt>
      <trkpt lat="40.32299" lon="20.18741">
        <ele>188.08000183105</ele>
        <time>2023-09-28T14:44:08.000Z</time>
      </trkpt>
      <trkpt lat="40.32232" lon="20.18759">
        <ele>187.11000061035</ele>
        <time>2023-09-28T14:44:05.000Z</time>
      </trkpt>
      <trkpt lat="40.32221" lon="20.18764">
        <ele>186.14999389648</ele>
        <time>2023-09-28T14:44:04.000Z</time>
      </trkpt>
      <trkpt lat="40.3221" lon="20.18774">
        <ele>185.66999816895</ele>
        <time>2023-09-28T14:44:03.000Z</time>
      </trkpt>
      <trkpt lat="40.32201" lon="20.18786">
        <ele>186.14999389648</ele>
        <time>2023-09-28T14:44:02.000Z</time>
      </trkpt>
      <trkpt lat="40.32193" lon="20.18799">
        <ele>186.14999389648</ele>
        <time>2023-09-28T14:44:01.000Z</time>
      </trkpt>
      <trkpt lat="40.32165" lon="20.18849">
        <ele>184.22999572754</ele>
        <time>2023-09-28T14:43:59.000Z</time>
      </trkpt>
      <trkpt lat="40.32153" lon="20.18864">
        <ele>182.78999328613</ele>
        <time>2023-09-28T14:43:58.000Z</time>
      </trkpt>
      <trkpt lat="40.3214" lon="20.18875">
        <ele>182.30999755859</ele>
        <time>2023-09-28T14:43:57.000Z</time>
      </trkpt>
      <trkpt lat="40.32124" lon="20.18883">
        <ele>182.30999755859</ele>
        <time>2023-09-28T14:43:56.000Z</time>
      </trkpt>
      <trkpt lat="40.32115" lon="20.18887">
        <ele>182.30999755859</ele>
        <time>2023-09-28T14:43:55.000Z</time>
      </trkpt>
      <trkpt lat="40.32055" lon="20.18907">
        <ele>184.22999572754</ele>
        <time>2023-09-28T14:43:52.000Z</time>
      </trkpt>
      <trkpt lat="40.32042" lon="20.18915">
        <ele>184.22999572754</ele>
        <time>2023-09-28T14:43:51.000Z</time>
      </trkpt>
      <trkpt lat="40.32032" lon="20.18927">
        <ele>183.75</ele>
        <time>2023-09-28T14:43:50.000Z</time>
      </trkpt>
      <trkpt lat="40.32025" lon="20.18938">
        <ele>183.75</ele>
        <time>2023-09-28T14:43:49.000Z</time>
      </trkpt>
      <trkpt lat="40.32014" lon="20.1896">
        <ele>182.78999328613</ele>
        <time>2023-09-28T14:43:48.000Z</time>
      </trkpt>
      <trkpt lat="40.32002" lon="20.18976">
        <ele>183.27000427246</ele>
        <time>2023-09-28T14:43:47.000Z</time>
      </trkpt>
      <trkpt lat="40.31986" lon="20.18988">
        <ele>183.27000427246</ele>
        <time>2023-09-28T14:43:46.000Z</time>
      </trkpt>
      <trkpt lat="40.31969" lon="20.18997">
        <ele>183.27000427246</ele>
        <time>2023-09-28T14:43:45.000Z</time>
      </trkpt>
      <trkpt lat="40.31964" lon="20.18999">
        <ele>183.75</ele>
        <time>2023-09-28T14:43:44.000Z</time>
      </trkpt>
      <trkpt lat="40.31943" lon="20.19006">
        <ele>183.75</ele>
        <time>2023-09-28T14:43:43.000Z</time>
      </trkpt>
      <trkpt lat="40.31928" lon="20.1901">
        <ele>183.27000427246</ele>
        <time>2023-09-28T14:43:42.000Z</time>
      </trkpt>
      <trkpt lat="40.31918" lon="20.19015">
        <ele>182.78999328613</ele>
        <time>2023-09-28T14:43:41.000Z</time>
      </trkpt>
      <trkpt lat="40.31912" lon="20.19023">
        <ele>182.78999328613</ele>
        <time>2023-09-28T14:43:40.000Z</time>
      </trkpt>
      <trkpt lat="40.31908" lon="20.19039">
        <ele>182.30999755859</ele>
        <time>2023-09-28T14:43:39.000Z</time>
      </trkpt>
      <trkpt lat="40.31907" lon="20.19056">
        <ele>181.83000183105</ele>
        <time>2023-09-28T14:43:38.000Z</time>
      </trkpt>
      <trkpt lat="40.31908" lon="20.19067">
        <ele>181.35000610352</ele>
        <time>2023-09-28T14:43:37.000Z</time>
      </trkpt>
      <trkpt lat="40.3191" lon="20.19082">
        <ele>180.86999511719</ele>
        <time>2023-09-28T14:43:36.000Z</time>
      </trkpt>
      <trkpt lat="40.31913" lon="20.19107">
        <ele>179.89999389648</ele>
        <time>2023-09-28T14:43:35.000Z</time>
      </trkpt>
      <trkpt lat="40.3191" lon="20.19121">
        <ele>179.89999389648</ele>
        <time>2023-09-28T14:43:34.000Z</time>
      </trkpt>
      <trkpt lat="40.31903" lon="20.1913">
        <ele>179.89999389648</ele>
        <time>2023-09-28T14:43:33.000Z</time>
      </trkpt>
      <trkpt lat="40.31893" lon="20.19134">
        <ele>179.89999389648</ele>
        <time>2023-09-28T14:43:32.000Z</time>
      </trkpt>
      <trkpt lat="40.31881" lon="20.19132">
        <ele>179.89999389648</ele>
        <time>2023-09-28T14:43:31.000Z</time>
      </trkpt>
      <trkpt lat="40.31869" lon="20.19129">
        <ele>180.38000488281</ele>
        <time>2023-09-28T14:43:30.000Z</time>
      </trkpt>
      <trkpt lat="40.31857" lon="20.1913">
        <ele>180.86999511719</ele>
        <time>2023-09-28T14:43:29.000Z</time>
      </trkpt>
      <trkpt lat="40.31844" lon="20.19137">
        <ele>181.35000610352</ele>
        <time>2023-09-28T14:43:28.000Z</time>
      </trkpt>
      <trkpt lat="40.31832" lon="20.19146">
        <ele>181.35000610352</ele>
        <time>2023-09-28T14:43:27.000Z</time>
      </trkpt>
      <trkpt lat="40.31817" lon="20.19156">
        <ele>180.86999511719</ele>
        <time>2023-09-28T14:43:26.000Z</time>
      </trkpt>
      <trkpt lat="40.318" lon="20.19163">
        <ele>180.86999511719</ele>
        <time>2023-09-28T14:43:25.000Z</time>
      </trkpt>
      <trkpt lat="40.31795" lon="20.19164">
        <ele>180.86999511719</ele>
        <time>2023-09-28T14:43:24.000Z</time>
      </trkpt>
      <trkpt lat="40.31724" lon="20.19178">
        <ele>180.86999511719</ele>
        <time>2023-09-28T14:43:21.000Z</time>
      </trkpt>
      <trkpt lat="40.31711" lon="20.19178">
        <ele>181.35000610352</ele>
        <time>2023-09-28T14:43:20.000Z</time>
      </trkpt>
      <trkpt lat="40.31702" lon="20.19178">
        <ele>181.35000610352</ele>
        <time>2023-09-28T14:43:19.000Z</time>
      </trkpt>
      <trkpt lat="40.31669" lon="20.19174">
        <ele>181.35000610352</ele>
        <time>2023-09-28T14:43:18.000Z</time>
      </trkpt>
      <trkpt lat="40.31652" lon="20.19174">
        <ele>180.86999511719</ele>
        <time>2023-09-28T14:43:17.000Z</time>
      </trkpt>
      <trkpt lat="40.31638" lon="20.19178">
        <ele>180.38000488281</ele>
        <time>2023-09-28T14:43:16.000Z</time>
      </trkpt>
      <trkpt lat="40.31626" lon="20.19184">
        <ele>180.38000488281</ele>
        <time>2023-09-28T14:43:15.000Z</time>
      </trkpt>
      <trkpt lat="40.31614" lon="20.19188">
        <ele>179.89999389648</ele>
        <time>2023-09-28T14:43:14.000Z</time>
      </trkpt>
      <trkpt lat="40.31603" lon="20.19187">
        <ele>179.41999816895</ele>
        <time>2023-09-28T14:43:13.000Z</time>
      </trkpt>
      <trkpt lat="40.31592" lon="20.1918">
        <ele>178.94000244141</ele>
        <time>2023-09-28T14:43:12.000Z</time>
      </trkpt>
      <trkpt lat="40.31581" lon="20.19169">
        <ele>178.94000244141</ele>
        <time>2023-09-28T14:43:11.000Z</time>
      </trkpt>
      <trkpt lat="40.3157" lon="20.19158">
        <ele>178.46000671387</ele>
        <time>2023-09-28T14:43:10.000Z</time>
      </trkpt>
      <trkpt lat="40.31562" lon="20.19145">
        <ele>177.97999572754</ele>
        <time>2023-09-28T14:43:09.000Z</time>
      </trkpt>
      <trkpt lat="40.31556" lon="20.19131">
        <ele>177.5</ele>
        <time>2023-09-28T14:43:08.000Z</time>
      </trkpt>
      <trkpt lat="40.31552" lon="20.19115">
        <ele>177.5</ele>
        <time>2023-09-28T14:43:07.000Z</time>
      </trkpt>
      <trkpt lat="40.31547" lon="20.19103">
        <ele>177.5</ele>
        <time>2023-09-28T14:43:06.000Z</time>
      </trkpt>
      <trkpt lat="40.3154" lon="20.19094">
        <ele>177.02000427246</ele>
        <time>2023-09-28T14:43:05.000Z</time>
      </trkpt>
      <trkpt lat="40.31531" lon="20.19089">
        <ele>176.53999328613</ele>
        <time>2023-09-28T14:43:04.000Z</time>
      </trkpt>
      <trkpt lat="40.31518" lon="20.19088">
        <ele>176.05999755859</ele>
        <time>2023-09-28T14:43:03.000Z</time>
      </trkpt>
      <trkpt lat="40.31503" lon="20.19092">
        <ele>176.53999328613</ele>
        <time>2023-09-28T14:43:02.000Z</time>
      </trkpt>
      <trkpt lat="40.31495" lon="20.19095">
        <ele>176.53999328613</ele>
        <time>2023-09-28T14:43:01.000Z</time>
      </trkpt>
      <trkpt lat="40.31465" lon="20.19109">
        <ele>176.05999755859</ele>
        <time>2023-09-28T14:42:59.000Z</time>
      </trkpt>
      <trkpt lat="40.31434" lon="20.19121">
        <ele>175.58000183105</ele>
        <time>2023-09-28T14:42:58.000Z</time>
      </trkpt>
      <trkpt lat="40.31418" lon="20.19128">
        <ele>175.58000183105</ele>
        <time>2023-09-28T14:42:57.000Z</time>
      </trkpt>
      <trkpt lat="40.31405" lon="20.19135">
        <ele>175.58000183105</ele>
        <time>2023-09-28T14:42:56.000Z</time>
      </trkpt>
      <trkpt lat="40.31397" lon="20.19141">
        <ele>175.58000183105</ele>
        <time>2023-09-28T14:42:55.000Z</time>
      </trkpt>
      <trkpt lat="40.31387" lon="20.19151">
        <ele>175.58000183105</ele>
        <time>2023-09-28T14:42:54.000Z</time>
      </trkpt>
      <trkpt lat="40.3138" lon="20.19161">
        <ele>175.58000183105</ele>
        <time>2023-09-28T14:42:53.000Z</time>
      </trkpt>
      <trkpt lat="40.31376" lon="20.19168">
        <ele>175.58000183105</ele>
        <time>2023-09-28T14:42:52.000Z</time>
      </trkpt>
      <trkpt lat="40.3137" lon="20.1918">
        <ele>175.10000610352</ele>
        <time>2023-09-28T14:42:51.000Z</time>
      </trkpt>
      <trkpt lat="40.31369" lon="20.19182">
        <ele>175.10000610352</ele>
        <time>2023-09-28T14:42:50.000Z</time>
      </trkpt>
      <trkpt lat="40.31365" lon="20.19192">
        <ele>175.10000610352</ele>
        <time>2023-09-28T14:42:49.000Z</time>
      </trkpt>
      <trkpt lat="40.31363" lon="20.19196">
        <ele>174.61999511719</ele>
        <time>2023-09-28T14:42:48.000Z</time>
      </trkpt>
      <trkpt lat="40.31362" lon="20.19199">
        <ele>174.61999511719</ele>
        <time>2023-09-28T14:42:47.000Z</time>
      </trkpt>
      <trkpt lat="40.31357" lon="20.19208">
        <ele>174.13999938965</ele>
        <time>2023-09-28T14:42:46.000Z</time>
      </trkpt>
      <trkpt lat="40.3135" lon="20.1922">
        <ele>173.16999816895</ele>
        <time>2023-09-28T14:42:44.000Z</time>
      </trkpt>
      <trkpt lat="40.31348" lon="20.19226">
        <ele>173.16999816895</ele>
        <time>2023-09-28T14:42:43.000Z</time>
      </trkpt>
      <trkpt lat="40.31347" lon="20.19232">
        <ele>173.16999816895</ele>
        <time>2023-09-28T14:42:42.000Z</time>
      </trkpt>
      <trkpt lat="40.31347" lon="20.19237">
        <ele>173.16999816895</ele>
        <time>2023-09-28T14:42:41.000Z</time>
      </trkpt>
      <trkpt lat="40.31346" lon="20.19242">
        <ele>173.16999816895</ele>
        <time>2023-09-28T14:42:40.000Z</time>
      </trkpt>
      <trkpt lat="40.31345" lon="20.19247">
        <ele>173.16999816895</ele>
        <time>2023-09-28T14:42:39.000Z</time>
      </trkpt>
      <trkpt lat="40.31343" lon="20.19253">
        <ele>173.16999816895</ele>
        <time>2023-09-28T14:42:38.000Z</time>
      </trkpt>
      <trkpt lat="40.31342" lon="20.19256">
        <ele>173.16999816895</ele>
        <time>2023-09-28T14:42:37.000Z</time>
      </trkpt>
      <trkpt lat="40.31321" lon="20.19315">
        <ele>173.16999816895</ele>
        <time>2023-09-28T14:42:31.000Z</time>
      </trkpt>
      <trkpt lat="40.31283" lon="20.19415">
        <ele>174.61999511719</ele>
        <time>2023-09-28T14:42:23.000Z</time>
      </trkpt>
      <trkpt lat="40.31275" lon="20.19432">
        <ele>174.61999511719</ele>
        <time>2023-09-28T14:42:22.000Z</time>
      </trkpt>
      <trkpt lat="40.31195" lon="20.19561">
        <ele>174.61999511719</ele>
        <time>2023-09-28T14:42:14.000Z</time>
      </trkpt>
      <trkpt lat="40.31186" lon="20.19576">
        <ele>174.61999511719</ele>
        <time>2023-09-28T14:42:13.000Z</time>
      </trkpt>
      <trkpt lat="40.3118" lon="20.19589">
        <ele>174.61999511719</ele>
        <time>2023-09-28T14:42:12.000Z</time>
      </trkpt>
      <trkpt lat="40.31151" lon="20.19664">
        <ele>173.66000366211</ele>
        <time>2023-09-28T14:42:08.000Z</time>
      </trkpt>
      <trkpt lat="40.31111" lon="20.19787">
        <ele>173.66000366211</ele>
        <time>2023-09-28T14:42:02.000Z</time>
      </trkpt>
      <trkpt lat="40.31031" lon="20.20023">
        <ele>175.10000610352</ele>
        <time>2023-09-28T14:41:52.000Z</time>
      </trkpt>
      <trkpt lat="40.30937" lon="20.20295">
        <ele>175.58000183105</ele>
        <time>2023-09-28T14:41:42.000Z</time>
      </trkpt>
      <trkpt lat="40.30859" lon="20.20519">
        <ele>177.5</ele>
        <time>2023-09-28T14:41:32.000Z</time>
      </trkpt>
      <trkpt lat="40.30804" lon="20.20681">
        <ele>177.5</ele>
        <time>2023-09-28T14:41:24.000Z</time>
      </trkpt>
      <trkpt lat="40.30711" lon="20.20955">
        <ele>180.86999511719</ele>
        <time>2023-09-28T14:41:15.000Z</time>
      </trkpt>
      <trkpt lat="40.30582" lon="20.2134">
        <ele>181.83000183105</ele>
        <time>2023-09-28T14:41:02.000Z</time>
      </trkpt>
      <trkpt lat="40.30493" lon="20.2158">
        <ele>179.41999816895</ele>
        <time>2023-09-28T14:40:55.000Z</time>
      </trkpt>
      <trkpt lat="40.30389" lon="20.21751">
        <ele>181.35000610352</ele>
        <time>2023-09-28T14:40:48.000Z</time>
      </trkpt>
      <trkpt lat="40.30198" lon="20.21999">
        <ele>182.30999755859</ele>
        <time>2023-09-28T14:40:36.000Z</time>
      </trkpt>
      <trkpt lat="40.30058" lon="20.22179">
        <ele>182.78999328613</ele>
        <time>2023-09-28T14:40:28.000Z</time>
      </trkpt>
      <trkpt lat="40.2982" lon="20.22485">
        <ele>184.22999572754</ele>
        <time>2023-09-28T14:40:14.000Z</time>
      </trkpt>
      <trkpt lat="40.29601" lon="20.22768">
        <ele>185.66999816895</ele>
        <time>2023-09-28T14:40:01.000Z</time>
      </trkpt>
      <trkpt lat="40.29431" lon="20.22984">
        <ele>187.58999633789</ele>
        <time>2023-09-28T14:39:51.000Z</time>
      </trkpt>
      <trkpt lat="40.29333" lon="20.23087">
        <ele>189.52000427246</ele>
        <time>2023-09-28T14:39:45.000Z</time>
      </trkpt>
      <trkpt lat="40.29321" lon="20.23103">
        <ele>189.03999328613</ele>
        <time>2023-09-28T14:39:44.000Z</time>
      </trkpt>
      <trkpt lat="40.29312" lon="20.23122">
        <ele>189.03999328613</ele>
        <time>2023-09-28T14:39:43.000Z</time>
      </trkpt>
      <trkpt lat="40.29286" lon="20.23185">
        <ele>188.08000183105</ele>
        <time>2023-09-28T14:39:40.000Z</time>
      </trkpt>
      <trkpt lat="40.29281" lon="20.23195">
        <ele>188.08000183105</ele>
        <time>2023-09-28T14:39:39.000Z</time>
      </trkpt>
      <trkpt lat="40.29266" lon="20.23218">
        <ele>189.52000427246</ele>
        <time>2023-09-28T14:39:38.000Z</time>
      </trkpt>
      <trkpt lat="40.29211" lon="20.23295">
        <ele>191.91999816895</ele>
        <time>2023-09-28T14:39:34.000Z</time>
      </trkpt>
      <trkpt lat="40.292" lon="20.23314">
        <ele>192.39999389648</ele>
        <time>2023-09-28T14:39:33.000Z</time>
      </trkpt>
      <trkpt lat="40.29192" lon="20.23334">
        <ele>192.39999389648</ele>
        <time>2023-09-28T14:39:32.000Z</time>
      </trkpt>
      <trkpt lat="40.29187" lon="20.23356">
        <ele>192.39999389648</ele>
        <time>2023-09-28T14:39:31.000Z</time>
      </trkpt>
      <trkpt lat="40.29183" lon="20.2338">
        <ele>192.88000488281</ele>
        <time>2023-09-28T14:39:30.000Z</time>
      </trkpt>
      <trkpt lat="40.29183" lon="20.23402">
        <ele>192.88000488281</ele>
        <time>2023-09-28T14:39:29.000Z</time>
      </trkpt>
      <trkpt lat="40.29183" lon="20.23409">
        <ele>192.88000488281</ele>
        <time>2023-09-28T14:39:28.000Z</time>
      </trkpt>
      <trkpt lat="40.29192" lon="20.23518">
        <ele>193.83999633789</ele>
        <time>2023-09-28T14:39:24.000Z</time>
      </trkpt>
      <trkpt lat="40.29191" lon="20.23537">
        <ele>193.83999633789</ele>
        <time>2023-09-28T14:39:23.000Z</time>
      </trkpt>
      <trkpt lat="40.29188" lon="20.23557">
        <ele>193.83999633789</ele>
        <time>2023-09-28T14:39:22.000Z</time>
      </trkpt>
      <trkpt lat="40.29181" lon="20.23575">
        <ele>193.83999633789</ele>
        <time>2023-09-28T14:39:21.000Z</time>
      </trkpt>
      <trkpt lat="40.29171" lon="20.23593">
        <ele>194.32000732422</ele>
        <time>2023-09-28T14:39:20.000Z</time>
      </trkpt>
      <trkpt lat="40.29091" lon="20.23704">
        <ele>194.80000305176</ele>
        <time>2023-09-28T14:39:14.000Z</time>
      </trkpt>
      <trkpt lat="40.2908" lon="20.23723">
        <ele>195.2799987793</ele>
        <time>2023-09-28T14:39:13.000Z</time>
      </trkpt>
      <trkpt lat="40.29073" lon="20.23739">
        <ele>195.2799987793</ele>
        <time>2023-09-28T14:39:12.000Z</time>
      </trkpt>
      <trkpt lat="40.29065" lon="20.23762">
        <ele>195.2799987793</ele>
        <time>2023-09-28T14:39:11.000Z</time>
      </trkpt>
      <trkpt lat="40.2906" lon="20.23778">
        <ele>195.77000427246</ele>
        <time>2023-09-28T14:39:10.000Z</time>
      </trkpt>
      <trkpt lat="40.29043" lon="20.23856">
        <ele>196.25</ele>
        <time>2023-09-28T14:39:06.000Z</time>
      </trkpt>
      <trkpt lat="40.29013" lon="20.2402">
        <ele>194.80000305176</ele>
        <time>2023-09-28T14:38:58.000Z</time>
      </trkpt>
      <trkpt lat="40.2898" lon="20.24188">
        <ele>197.21000671387</ele>
        <time>2023-09-28T14:38:51.000Z</time>
      </trkpt>
      <trkpt lat="40.28938" lon="20.24369">
        <ele>197.21000671387</ele>
        <time>2023-09-28T14:38:44.000Z</time>
      </trkpt>
      <trkpt lat="40.28882" lon="20.24596">
        <ele>197.21000671387</ele>
        <time>2023-09-28T14:38:34.000Z</time>
      </trkpt>
      <trkpt lat="40.28827" lon="20.2482">
        <ele>200.08999633789</ele>
        <time>2023-09-28T14:38:24.000Z</time>
      </trkpt>
      <trkpt lat="40.28785" lon="20.24994">
        <ele>199.61000061035</ele>
        <time>2023-09-28T14:38:16.000Z</time>
      </trkpt>
      <trkpt lat="40.28723" lon="20.25263">
        <ele>198.64999389648</ele>
        <time>2023-09-28T14:38:07.000Z</time>
      </trkpt>
      <trkpt lat="40.28656" lon="20.25557">
        <ele>197.69000244141</ele>
        <time>2023-09-28T14:37:56.000Z</time>
      </trkpt>
      <trkpt lat="40.28609" lon="20.25767">
        <ele>198.16999816895</ele>
        <time>2023-09-28T14:37:49.000Z</time>
      </trkpt>
      <trkpt lat="40.28537" lon="20.26041">
        <ele>200.57000732422</ele>
        <time>2023-09-28T14:37:37.000Z</time>
      </trkpt>
      <trkpt lat="40.28478" lon="20.26261">
        <ele>199.13000488281</ele>
        <time>2023-09-28T14:37:27.000Z</time>
      </trkpt>
      <trkpt lat="40.28417" lon="20.26484">
        <ele>201.05000305176</ele>
        <time>2023-09-28T14:37:17.000Z</time>
      </trkpt>
      <trkpt lat="40.28379" lon="20.26625">
        <ele>207.7799987793</ele>
        <time>2023-09-28T14:37:10.000Z</time>
      </trkpt>
      <trkpt lat="40.28376" lon="20.26641">
        <ele>207.7799987793</ele>
        <time>2023-09-28T14:37:09.000Z</time>
      </trkpt>
      <trkpt lat="40.28376" lon="20.26655">
        <ele>208.25999450684</ele>
        <time>2023-09-28T14:37:08.000Z</time>
      </trkpt>
      <trkpt lat="40.28378" lon="20.26668">
        <ele>208.25999450684</ele>
        <time>2023-09-28T14:37:07.000Z</time>
      </trkpt>
      <trkpt lat="40.28381" lon="20.26681">
        <ele>208.74000549316</ele>
        <time>2023-09-28T14:37:06.000Z</time>
      </trkpt>
      <trkpt lat="40.28387" lon="20.26693">
        <ele>208.74000549316</ele>
        <time>2023-09-28T14:37:05.000Z</time>
      </trkpt>
      <trkpt lat="40.28391" lon="20.26701">
        <ele>208.74000549316</ele>
        <time>2023-09-28T14:37:04.000Z</time>
      </trkpt>
      <trkpt lat="40.2842" lon="20.2675">
        <ele>209.69999694824</ele>
        <time>2023-09-28T14:37:00.000Z</time>
      </trkpt>
      <trkpt lat="40.28427" lon="20.2676">
        <ele>209.69999694824</ele>
        <time>2023-09-28T14:36:59.000Z</time>
      </trkpt>
      <trkpt lat="40.28435" lon="20.26769">
        <ele>209.69999694824</ele>
        <time>2023-09-28T14:36:58.000Z</time>
      </trkpt>
      <trkpt lat="40.28439" lon="20.26773">
        <ele>209.69999694824</ele>
        <time>2023-09-28T14:36:57.000Z</time>
      </trkpt>
      <trkpt lat="40.28451" lon="20.26782">
        <ele>209.2200012207</ele>
        <time>2023-09-28T14:36:56.000Z</time>
      </trkpt>
      <trkpt lat="40.28457" lon="20.26788">
        <ele>209.2200012207</ele>
        <time>2023-09-28T14:36:55.000Z</time>
      </trkpt>
      <trkpt lat="40.2846" lon="20.26795">
        <ele>208.74000549316</ele>
        <time>2023-09-28T14:36:54.000Z</time>
      </trkpt>
      <trkpt lat="40.28461" lon="20.26804">
        <ele>208.74000549316</ele>
        <time>2023-09-28T14:36:53.000Z</time>
      </trkpt>
      <trkpt lat="40.28459" lon="20.26812">
        <ele>208.74000549316</ele>
        <time>2023-09-28T14:36:52.000Z</time>
      </trkpt>
      <trkpt lat="40.28455" lon="20.26821">
        <ele>208.74000549316</ele>
        <time>2023-09-28T14:36:51.000Z</time>
      </trkpt>
      <trkpt lat="40.28454" lon="20.26824">
        <ele>209.2200012207</ele>
        <time>2023-09-28T14:36:50.000Z</time>
      </trkpt>
      <trkpt lat="40.28439" lon="20.26846">
        <ele>210.66999816895</ele>
        <time>2023-09-28T14:36:48.000Z</time>
      </trkpt>
      <trkpt lat="40.28427" lon="20.26861">
        <ele>212.58999633789</ele>
        <time>2023-09-28T14:36:46.000Z</time>
      </trkpt>
      <trkpt lat="40.28416" lon="20.26873">
        <ele>213.55000305176</ele>
        <time>2023-09-28T14:36:45.000Z</time>
      </trkpt>
      <trkpt lat="40.28373" lon="20.26908">
        <ele>217.88000488281</ele>
        <time>2023-09-28T14:36:40.000Z</time>
      </trkpt>
      <trkpt lat="40.28369" lon="20.2691">
        <ele>218.36000061035</ele>
        <time>2023-09-28T14:36:39.000Z</time>
      </trkpt>
      <trkpt lat="40.28352" lon="20.26919">
        <ele>219.32000732422</ele>
        <time>2023-09-28T14:36:38.000Z</time>
      </trkpt>
      <trkpt lat="40.28343" lon="20.26925">
        <ele>219.32000732422</ele>
        <time>2023-09-28T14:36:37.000Z</time>
      </trkpt>
      <trkpt lat="40.28335" lon="20.26932">
        <ele>219.80000305176</ele>
        <time>2023-09-28T14:36:36.000Z</time>
      </trkpt>
      <trkpt lat="40.28329" lon="20.26941">
        <ele>219.80000305176</ele>
        <time>2023-09-28T14:36:35.000Z</time>
      </trkpt>
      <trkpt lat="40.28327" lon="20.26944">
        <ele>219.80000305176</ele>
        <time>2023-09-28T14:36:34.000Z</time>
      </trkpt>
      <trkpt lat="40.28308" lon="20.26976">
        <ele>220.75999450684</ele>
        <time>2023-09-28T14:36:32.000Z</time>
      </trkpt>
      <trkpt lat="40.28284" lon="20.27013">
        <ele>223.63999938965</ele>
        <time>2023-09-28T14:36:29.000Z</time>
      </trkpt>
      <trkpt lat="40.28279" lon="20.27024">
        <ele>224.11999511719</ele>
        <time>2023-09-28T14:36:28.000Z</time>
      </trkpt>
      <trkpt lat="40.28276" lon="20.27035">
        <ele>224.61000061035</ele>
        <time>2023-09-28T14:36:27.000Z</time>
      </trkpt>
      <trkpt lat="40.28275" lon="20.27046">
        <ele>224.61000061035</ele>
        <time>2023-09-28T14:36:26.000Z</time>
      </trkpt>
      <trkpt lat="40.28276" lon="20.27057">
        <ele>224.61000061035</ele>
        <time>2023-09-28T14:36:25.000Z</time>
      </trkpt>
      <trkpt lat="40.28277" lon="20.27067">
        <ele>224.61000061035</ele>
        <time>2023-09-28T14:36:24.000Z</time>
      </trkpt>
      <trkpt lat="40.28282" lon="20.27088">
        <ele>223.63999938965</ele>
        <time>2023-09-28T14:36:22.000Z</time>
      </trkpt>
      <trkpt lat="40.28288" lon="20.27114">
        <ele>222.67999267578</ele>
        <time>2023-09-28T14:36:20.000Z</time>
      </trkpt>
      <trkpt lat="40.28302" lon="20.27175">
        <ele>220.75999450684</ele>
        <time>2023-09-28T14:36:16.000Z</time>
      </trkpt>
      <trkpt lat="40.28305" lon="20.27188">
        <ele>220.75999450684</ele>
        <time>2023-09-28T14:36:15.000Z</time>
      </trkpt>
      <trkpt lat="40.2831" lon="20.27199">
        <ele>220.2799987793</ele>
        <time>2023-09-28T14:36:14.000Z</time>
      </trkpt>
      <trkpt lat="40.28313" lon="20.27204">
        <ele>219.80000305176</ele>
        <time>2023-09-28T14:36:13.000Z</time>
      </trkpt>
      <trkpt lat="40.28323" lon="20.27217">
        <ele>219.32000732422</ele>
        <time>2023-09-28T14:36:12.000Z</time>
      </trkpt>
      <trkpt lat="40.2833" lon="20.27228">
        <ele>218.83999633789</ele>
        <time>2023-09-28T14:36:11.000Z</time>
      </trkpt>
      <trkpt lat="40.28334" lon="20.27238">
        <ele>218.83999633789</ele>
        <time>2023-09-28T14:36:10.000Z</time>
      </trkpt>
      <trkpt lat="40.28336" lon="20.27248">
        <ele>218.83999633789</ele>
        <time>2023-09-28T14:36:09.000Z</time>
      </trkpt>
      <trkpt lat="40.28336" lon="20.27257">
        <ele>218.83999633789</ele>
        <time>2023-09-28T14:36:08.000Z</time>
      </trkpt>
      <trkpt lat="40.28334" lon="20.27266">
        <ele>218.83999633789</ele>
        <time>2023-09-28T14:36:07.000Z</time>
      </trkpt>
      <trkpt lat="40.2833" lon="20.27274">
        <ele>219.32000732422</ele>
        <time>2023-09-28T14:36:06.000Z</time>
      </trkpt>
      <trkpt lat="40.28325" lon="20.2728">
        <ele>219.80000305176</ele>
        <time>2023-09-28T14:36:05.000Z</time>
      </trkpt>
      <trkpt lat="40.28318" lon="20.27285">
        <ele>219.80000305176</ele>
        <time>2023-09-28T14:36:04.000Z</time>
      </trkpt>
      <trkpt lat="40.28311" lon="20.27288">
        <ele>220.2799987793</ele>
        <time>2023-09-28T14:36:03.000Z</time>
      </trkpt>
      <trkpt lat="40.28303" lon="20.2729">
        <ele>220.75999450684</ele>
        <time>2023-09-28T14:36:02.000Z</time>
      </trkpt>
      <trkpt lat="40.28295" lon="20.27293">
        <ele>220.75999450684</ele>
        <time>2023-09-28T14:36:01.000Z</time>
      </trkpt>
      <trkpt lat="40.28288" lon="20.27298">
        <ele>221.24000549316</ele>
        <time>2023-09-28T14:36:00.000Z</time>
      </trkpt>
      <trkpt lat="40.28281" lon="20.27304">
        <ele>221.7200012207</ele>
        <time>2023-09-28T14:35:59.000Z</time>
      </trkpt>
      <trkpt lat="40.28274" lon="20.27312">
        <ele>221.7200012207</ele>
        <time>2023-09-28T14:35:58.000Z</time>
      </trkpt>
      <trkpt lat="40.28269" lon="20.27317">
        <ele>222.19999694824</ele>
        <time>2023-09-28T14:35:57.000Z</time>
      </trkpt>
      <trkpt lat="40.28258" lon="20.27329">
        <ele>222.19999694824</ele>
        <time>2023-09-28T14:35:56.000Z</time>
      </trkpt>
      <trkpt lat="40.28251" lon="20.27335">
        <ele>222.67999267578</ele>
        <time>2023-09-28T14:35:55.000Z</time>
      </trkpt>
      <trkpt lat="40.28242" lon="20.27341">
        <ele>222.67999267578</ele>
        <time>2023-09-28T14:35:54.000Z</time>
      </trkpt>
      <trkpt lat="40.2823" lon="20.27347">
        <ele>223.16000366211</ele>
        <time>2023-09-28T14:35:53.000Z</time>
      </trkpt>
      <trkpt lat="40.28221" lon="20.27351">
        <ele>223.16000366211</ele>
        <time>2023-09-28T14:35:52.000Z</time>
      </trkpt>
      <trkpt lat="40.28212" lon="20.27352">
        <ele>223.63999938965</ele>
        <time>2023-09-28T14:35:51.000Z</time>
      </trkpt>
      <trkpt lat="40.28207" lon="20.27353">
        <ele>224.11999511719</ele>
        <time>2023-09-28T14:35:50.000Z</time>
      </trkpt>
      <trkpt lat="40.28178" lon="20.27352">
        <ele>225.57000732422</ele>
        <time>2023-09-28T14:35:47.000Z</time>
      </trkpt>
      <trkpt lat="40.28128" lon="20.27349">
        <ele>227.49000549316</ele>
        <time>2023-09-28T14:35:42.000Z</time>
      </trkpt>
      <trkpt lat="40.28104" lon="20.27347">
        <ele>228.92999267578</ele>
        <time>2023-09-28T14:35:39.000Z</time>
      </trkpt>
      <trkpt lat="40.28096" lon="20.27347">
        <ele>228.92999267578</ele>
        <time>2023-09-28T14:35:38.000Z</time>
      </trkpt>
      <trkpt lat="40.28093" lon="20.27348">
        <ele>229.41000366211</ele>
        <time>2023-09-28T14:35:37.000Z</time>
      </trkpt>
      <trkpt lat="40.28083" lon="20.27349">
        <ele>229.41000366211</ele>
        <time>2023-09-28T14:35:36.000Z</time>
      </trkpt>
      <trkpt lat="40.28074" lon="20.27351">
        <ele>229.88999938965</ele>
        <time>2023-09-28T14:35:35.000Z</time>
      </trkpt>
      <trkpt lat="40.28067" lon="20.27353">
        <ele>229.88999938965</ele>
        <time>2023-09-28T14:35:34.000Z</time>
      </trkpt>
      <trkpt lat="40.28065" lon="20.27354">
        <ele>229.41000366211</ele>
        <time>2023-09-28T14:35:33.000Z</time>
      </trkpt>
      <trkpt lat="40.28055" lon="20.27362">
        <ele>229.41000366211</ele>
        <time>2023-09-28T14:35:30.000Z</time>
      </trkpt>
      <trkpt lat="40.28057" lon="20.27352">
        <ele>228.92999267578</ele>
        <time>2023-09-28T14:35:22.000Z</time>
      </trkpt>
      <trkpt lat="40.28065" lon="20.27346">
        <ele>227.00999450684</ele>
        <time>2023-09-28T14:34:40.000Z</time>
      </trkpt>
      <trkpt lat="40.28065" lon="20.27346">
        <ele>227.00999450684</ele>
        <time>2023-09-28T14:34:13.000Z</time>
      </trkpt>
      <trkpt lat="40.28065" lon="20.27347">
        <ele>226.5299987793</ele>
        <time>2023-09-28T14:34:03.000Z</time>
      </trkpt>
      <trkpt lat="40.28069" lon="20.27347">
        <ele>226.5299987793</ele>
        <time>2023-09-28T14:33:54.000Z</time>
      </trkpt>
      <trkpt lat="40.28069" lon="20.27344">
        <ele>226.5299987793</ele>
        <time>2023-09-28T14:33:52.000Z</time>
      </trkpt>
      <trkpt lat="40.28068" lon="20.27335">
        <ele>226.5299987793</ele>
        <time>2023-09-28T14:33:46.000Z</time>
      </trkpt>
      <trkpt lat="40.28067" lon="20.27332">
        <ele>226.5299987793</ele>
        <time>2023-09-28T14:33:42.000Z</time>
      </trkpt>
      <trkpt lat="40.28067" lon="20.27333">
        <ele>226.5299987793</ele>
        <time>2023-09-28T14:33:32.000Z</time>
      </trkpt>
      <trkpt lat="40.28067" lon="20.27332">
        <ele>226.5299987793</ele>
        <time>2023-09-28T14:33:20.000Z</time>
      </trkpt>
      <trkpt lat="40.28067" lon="20.27332">
        <ele>226.5299987793</ele>
        <time>2023-09-28T14:33:09.000Z</time>
      </trkpt>
      <trkpt lat="40.28067" lon="20.27332">
        <ele>226.5299987793</ele>
        <time>2023-09-28T14:32:57.000Z</time>
      </trkpt>
      <trkpt lat="40.28067" lon="20.27332">
        <ele>226.5299987793</ele>
        <time>2023-09-28T14:32:43.000Z</time>
      </trkpt>
      <trkpt lat="40.28067" lon="20.27332">
        <ele>226.5299987793</ele>
        <time>2023-09-28T14:32:29.000Z</time>
      </trkpt>
      <trkpt lat="40.28067" lon="20.27333">
        <ele>226.5299987793</ele>
        <time>2023-09-28T14:32:18.000Z</time>
      </trkpt>
      <trkpt lat="40.28067" lon="20.27332">
        <ele>226.5299987793</ele>
        <time>2023-09-28T14:32:07.000Z</time>
      </trkpt>
      <trkpt lat="40.28067" lon="20.27333">
        <ele>226.5299987793</ele>
        <time>2023-09-28T14:31:54.000Z</time>
      </trkpt>
      <trkpt lat="40.28067" lon="20.27333">
        <ele>226.5299987793</ele>
        <time>2023-09-28T14:31:40.000Z</time>
      </trkpt>
      <trkpt lat="40.28067" lon="20.27333">
        <ele>226.5299987793</ele>
        <time>2023-09-28T14:31:28.000Z</time>
      </trkpt>
      <trkpt lat="40.28067" lon="20.27333">
        <ele>226.5299987793</ele>
        <time>2023-09-28T14:31:12.000Z</time>
      </trkpt>
      <trkpt lat="40.28067" lon="20.27333">
        <ele>226.5299987793</ele>
        <time>2023-09-28T14:30:58.000Z</time>
      </trkpt>
      <trkpt lat="40.28067" lon="20.27333">
        <ele>226.5299987793</ele>
        <time>2023-09-28T14:30:41.000Z</time>
      </trkpt>
      <trkpt lat="40.28067" lon="20.27333">
        <ele>226.5299987793</ele>
        <time>2023-09-28T14:30:28.000Z</time>
      </trkpt>
      <trkpt lat="40.28067" lon="20.27333">
        <ele>226.5299987793</ele>
        <time>2023-09-28T14:30:14.000Z</time>
      </trkpt>
      <trkpt lat="40.28067" lon="20.27333">
        <ele>226.5299987793</ele>
        <time>2023-09-28T14:30:01.000Z</time>
      </trkpt>
      <trkpt lat="40.28067" lon="20.27333">
        <ele>226.5299987793</ele>
        <time>2023-09-28T14:29:46.000Z</time>
      </trkpt>
      <trkpt lat="40.28067" lon="20.27333">
        <ele>226.5299987793</ele>
        <time>2023-09-28T14:29:32.000Z</time>
      </trkpt>
      <trkpt lat="40.28067" lon="20.27333">
        <ele>226.5299987793</ele>
        <time>2023-09-28T14:29:18.000Z</time>
      </trkpt>
      <trkpt lat="40.28066" lon="20.27333">
        <ele>226.5299987793</ele>
        <time>2023-09-28T14:29:04.000Z</time>
      </trkpt>
      <trkpt lat="40.28067" lon="20.27332">
        <ele>226.5299987793</ele>
        <time>2023-09-28T14:28:50.000Z</time>
      </trkpt>
      <trkpt lat="40.28067" lon="20.27331">
        <ele>226.5299987793</ele>
        <time>2023-09-28T14:28:37.000Z</time>
      </trkpt>
      <trkpt lat="40.28066" lon="20.27331">
        <ele>226.5299987793</ele>
        <time>2023-09-28T14:28:23.000Z</time>
      </trkpt>
      <trkpt lat="40.28066" lon="20.27331">
        <ele>226.5299987793</ele>
        <time>2023-09-28T14:28:08.000Z</time>
      </trkpt>
      <trkpt lat="40.28066" lon="20.27331">
        <ele>226.5299987793</ele>
        <time>2023-09-28T14:27:54.000Z</time>
      </trkpt>
      <trkpt lat="40.28066" lon="20.27331">
        <ele>226.5299987793</ele>
        <time>2023-09-28T14:27:41.000Z</time>
      </trkpt>
      <trkpt lat="40.28066" lon="20.27331">
        <ele>226.5299987793</ele>
        <time>2023-09-28T14:27:26.000Z</time>
      </trkpt>
      <trkpt lat="40.28066" lon="20.27331">
        <ele>227.00999450684</ele>
        <time>2023-09-28T14:27:13.000Z</time>
      </trkpt>
      <trkpt lat="40.28066" lon="20.27331">
        <ele>227.00999450684</ele>
        <time>2023-09-28T14:27:00.000Z</time>
      </trkpt>
      <trkpt lat="40.28066" lon="20.27331">
        <ele>227.00999450684</ele>
        <time>2023-09-28T14:26:39.000Z</time>
      </trkpt>
      <trkpt lat="40.28066" lon="20.27331">
        <ele>227.00999450684</ele>
        <time>2023-09-28T14:26:24.000Z</time>
      </trkpt>
      <trkpt lat="40.28066" lon="20.2733">
        <ele>227.00999450684</ele>
        <time>2023-09-28T14:26:11.000Z</time>
      </trkpt>
      <trkpt lat="40.28066" lon="20.27331">
        <ele>227.00999450684</ele>
        <time>2023-09-28T14:25:59.000Z</time>
      </trkpt>
      <trkpt lat="40.28066" lon="20.27331">
        <ele>227.00999450684</ele>
        <time>2023-09-28T14:25:46.000Z</time>
      </trkpt>
      <trkpt lat="40.28067" lon="20.27331">
        <ele>227.49000549316</ele>
        <time>2023-09-28T14:25:33.000Z</time>
      </trkpt>
      <trkpt lat="40.28067" lon="20.27331">
        <ele>227.49000549316</ele>
        <time>2023-09-28T14:25:21.000Z</time>
      </trkpt>
      <trkpt lat="40.28067" lon="20.27331">
        <ele>227.49000549316</ele>
        <time>2023-09-28T14:25:07.000Z</time>
      </trkpt>
      <trkpt lat="40.28066" lon="20.27331">
        <ele>227.49000549316</ele>
        <time>2023-09-28T14:24:56.000Z</time>
      </trkpt>
      <trkpt lat="40.28066" lon="20.27331">
        <ele>227.49000549316</ele>
        <time>2023-09-28T14:24:39.000Z</time>
      </trkpt>
      <trkpt lat="40.28066" lon="20.27331">
        <ele>227.49000549316</ele>
        <time>2023-09-28T14:24:27.000Z</time>
      </trkpt>
      <trkpt lat="40.28066" lon="20.27331">
        <ele>227.49000549316</ele>
        <time>2023-09-28T14:24:14.000Z</time>
      </trkpt>
      <trkpt lat="40.28065" lon="20.27331">
        <ele>227.49000549316</ele>
        <time>2023-09-28T14:24:03.000Z</time>
      </trkpt>
      <trkpt lat="40.28065" lon="20.27331">
        <ele>227.49000549316</ele>
        <time>2023-09-28T14:23:50.000Z</time>
      </trkpt>
      <trkpt lat="40.28065" lon="20.27331">
        <ele>227.9700012207</ele>
        <time>2023-09-28T14:23:37.000Z</time>
      </trkpt>
      <trkpt lat="40.28065" lon="20.27331">
        <ele>227.9700012207</ele>
        <time>2023-09-28T14:23:23.000Z</time>
      </trkpt>
      <trkpt lat="40.28065" lon="20.27331">
        <ele>227.49000549316</ele>
        <time>2023-09-28T14:23:09.000Z</time>
      </trkpt>
      <trkpt lat="40.28065" lon="20.27331">
        <ele>227.9700012207</ele>
        <time>2023-09-28T14:22:55.000Z</time>
      </trkpt>
      <trkpt lat="40.28065" lon="20.27331">
        <ele>227.9700012207</ele>
        <time>2023-09-28T14:22:44.000Z</time>
      </trkpt>
      <trkpt lat="40.28065" lon="20.27331">
        <ele>227.9700012207</ele>
        <time>2023-09-28T14:22:30.000Z</time>
      </trkpt>
      <trkpt lat="40.28065" lon="20.27332">
        <ele>227.9700012207</ele>
        <time>2023-09-28T14:22:19.000Z</time>
      </trkpt>
      <trkpt lat="40.28065" lon="20.27332">
        <ele>227.9700012207</ele>
        <time>2023-09-28T14:22:07.000Z</time>
      </trkpt>
      <trkpt lat="40.28065" lon="20.27332">
        <ele>228.44999694824</ele>
        <time>2023-09-28T14:21:53.000Z</time>
      </trkpt>
      <trkpt lat="40.28065" lon="20.27332">
        <ele>228.44999694824</ele>
        <time>2023-09-28T14:21:39.000Z</time>
      </trkpt>
      <trkpt lat="40.28065" lon="20.27333">
        <ele>228.44999694824</ele>
        <time>2023-09-28T14:21:25.000Z</time>
      </trkpt>
      <trkpt lat="40.28065" lon="20.27332">
        <ele>228.44999694824</ele>
        <time>2023-09-28T14:21:14.000Z</time>
      </trkpt>
      <trkpt lat="40.28065" lon="20.27333">
        <ele>228.44999694824</ele>
        <time>2023-09-28T14:21:02.000Z</time>
      </trkpt>
      <trkpt lat="40.28065" lon="20.27333">
        <ele>228.92999267578</ele>
        <time>2023-09-28T14:20:49.000Z</time>
      </trkpt>
      <trkpt lat="40.28066" lon="20.27332">
        <ele>228.92999267578</ele>
        <time>2023-09-28T14:20:35.000Z</time>
      </trkpt>
      <trkpt lat="40.28066" lon="20.27332">
        <ele>228.92999267578</ele>
        <time>2023-09-28T14:20:24.000Z</time>
      </trkpt>
      <trkpt lat="40.28066" lon="20.27332">
        <ele>228.92999267578</ele>
        <time>2023-09-28T14:20:10.000Z</time>
      </trkpt>
      <trkpt lat="40.28066" lon="20.27332">
        <ele>228.92999267578</ele>
        <time>2023-09-28T14:19:59.000Z</time>
      </trkpt>
      <trkpt lat="40.28066" lon="20.27332">
        <ele>228.92999267578</ele>
        <time>2023-09-28T14:19:48.000Z</time>
      </trkpt>
      <trkpt lat="40.28066" lon="20.27332">
        <ele>228.92999267578</ele>
        <time>2023-09-28T14:19:35.000Z</time>
      </trkpt>
      <trkpt lat="40.28066" lon="20.27333">
        <ele>228.92999267578</ele>
        <time>2023-09-28T14:19:22.000Z</time>
      </trkpt>
      <trkpt lat="40.28066" lon="20.27333">
        <ele>228.92999267578</ele>
        <time>2023-09-28T14:19:09.000Z</time>
      </trkpt>
      <trkpt lat="40.28066" lon="20.27333">
        <ele>228.92999267578</ele>
        <time>2023-09-28T14:18:58.000Z</time>
      </trkpt>
      <trkpt lat="40.28067" lon="20.27336">
        <ele>231.80999755859</ele>
        <time>2023-09-28T14:18:22.000Z</time>
      </trkpt>
      <trkpt lat="40.28033" lon="20.27358">
        <ele>322.17999267578</ele>
        <time>2023-09-28T14:17:51.000Z</time>
      </trkpt>
      <trkpt lat="40.28067" lon="20.27334">
        <ele>230.85000610352</ele>
        <time>2023-09-28T13:52:26.000Z</time>
      </trkpt>
      <trkpt lat="40.28067" lon="20.27334">
        <ele>230.36999511719</ele>
        <time>2023-09-28T13:48:54.000Z</time>
      </trkpt>
      <trkpt lat="40.28066" lon="20.27335">
        <ele>230.85000610352</ele>
        <time>2023-09-28T13:45:09.000Z</time>
      </trkpt>
      <trkpt lat="40.28066" lon="20.27339">
        <ele>230.36999511719</ele>
        <time>2023-09-28T13:44:50.000Z</time>
      </trkpt>
      <trkpt lat="40.28067" lon="20.27346">
        <ele>229.88999938965</ele>
        <time>2023-09-28T13:44:41.000Z</time>
      </trkpt>
      <trkpt lat="40.28067" lon="20.27346">
        <ele>230.36999511719</ele>
        <time>2023-09-28T13:44:19.000Z</time>
      </trkpt>
      <trkpt lat="40.28067" lon="20.27346">
        <ele>230.36999511719</ele>
        <time>2023-09-28T13:43:20.000Z</time>
      </trkpt>
      <trkpt lat="40.28078" lon="20.27344">
        <ele>229.88999938965</ele>
        <time>2023-09-28T13:43:14.000Z</time>
      </trkpt>
      <trkpt lat="40.28076" lon="20.27341">
        <ele>229.88999938965</ele>
        <time>2023-09-28T13:42:49.000Z</time>
      </trkpt>
      <trkpt lat="40.28076" lon="20.27353">
        <ele>229.88999938965</ele>
        <time>2023-09-28T13:42:44.000Z</time>
      </trkpt>
      <trkpt lat="40.28071" lon="20.27356">
        <ele>229.88999938965</ele>
        <time>2023-09-28T13:42:43.000Z</time>
      </trkpt>
      <trkpt lat="40.28068" lon="20.27357">
        <ele>230.36999511719</ele>
        <time>2023-09-28T13:42:42.000Z</time>
      </trkpt>
      <trkpt lat="40.2803" lon="20.27375">
        <ele>229.88999938965</ele>
        <time>2023-09-28T13:42:38.000Z</time>
      </trkpt>
      <trkpt lat="40.27926" lon="20.27416">
        <ele>229.41000366211</ele>
        <time>2023-09-28T13:42:29.000Z</time>
      </trkpt>
      <trkpt lat="40.27897" lon="20.27422">
        <ele>227.9700012207</ele>
        <time>2023-09-28T13:42:27.000Z</time>
      </trkpt>
      <trkpt lat="40.27886" lon="20.27423">
        <ele>227.49000549316</ele>
        <time>2023-09-28T13:42:26.000Z</time>
      </trkpt>
      <trkpt lat="40.27879" lon="20.27422">
        <ele>227.00999450684</ele>
        <time>2023-09-28T13:42:25.000Z</time>
      </trkpt>
      <trkpt lat="40.27864" lon="20.27421">
        <ele>225.57000732422</ele>
        <time>2023-09-28T13:42:23.000Z</time>
      </trkpt>
      <trkpt lat="40.27764" lon="20.27418">
        <ele>220.75999450684</ele>
        <time>2023-09-28T13:42:16.000Z</time>
      </trkpt>
      <trkpt lat="40.27737" lon="20.27417">
        <ele>220.2799987793</ele>
        <time>2023-09-28T13:42:14.000Z</time>
      </trkpt>
      <trkpt lat="40.27722" lon="20.27419">
        <ele>219.80000305176</ele>
        <time>2023-09-28T13:42:13.000Z</time>
      </trkpt>
      <trkpt lat="40.2765" lon="20.27436">
        <ele>217.88000488281</ele>
        <time>2023-09-28T13:42:08.000Z</time>
      </trkpt>
      <trkpt lat="40.27488" lon="20.27475">
        <ele>217.39999389648</ele>
        <time>2023-09-28T13:42:00.000Z</time>
      </trkpt>
      <trkpt lat="40.27361" lon="20.27506">
        <ele>215.94999694824</ele>
        <time>2023-09-28T13:41:52.000Z</time>
      </trkpt>
      <trkpt lat="40.27346" lon="20.27511">
        <ele>215.4700012207</ele>
        <time>2023-09-28T13:41:51.000Z</time>
      </trkpt>
      <trkpt lat="40.27333" lon="20.27518">
        <ele>214.99000549316</ele>
        <time>2023-09-28T13:41:50.000Z</time>
      </trkpt>
      <trkpt lat="40.27328" lon="20.27522">
        <ele>214.99000549316</ele>
        <time>2023-09-28T13:41:49.000Z</time>
      </trkpt>
      <trkpt lat="40.27289" lon="20.27558">
        <ele>213.55000305176</ele>
        <time>2023-09-28T13:41:46.000Z</time>
      </trkpt>
      <trkpt lat="40.27277" lon="20.27574">
        <ele>212.58999633789</ele>
        <time>2023-09-28T13:41:45.000Z</time>
      </trkpt>
      <trkpt lat="40.27269" lon="20.27588">
        <ele>212.11000061035</ele>
        <time>2023-09-28T13:41:44.000Z</time>
      </trkpt>
      <trkpt lat="40.27267" lon="20.27591">
        <ele>211.63000488281</ele>
        <time>2023-09-28T13:41:43.000Z</time>
      </trkpt>
      <trkpt lat="40.27243" lon="20.27645">
        <ele>210.19000244141</ele>
        <time>2023-09-28T13:41:40.000Z</time>
      </trkpt>
      <trkpt lat="40.27174" lon="20.27806">
        <ele>207.7799987793</ele>
        <time>2023-09-28T13:41:33.000Z</time>
      </trkpt>
      <trkpt lat="40.27168" lon="20.27825">
        <ele>207.7799987793</ele>
        <time>2023-09-28T13:41:32.000Z</time>
      </trkpt>
      <trkpt lat="40.27165" lon="20.27845">
        <ele>208.74000549316</ele>
        <time>2023-09-28T13:41:31.000Z</time>
      </trkpt>
      <trkpt lat="40.27165" lon="20.27868">
        <ele>209.2200012207</ele>
        <time>2023-09-28T13:41:30.000Z</time>
      </trkpt>
      <trkpt lat="40.27165" lon="20.27881">
        <ele>210.19000244141</ele>
        <time>2023-09-28T13:41:29.000Z</time>
      </trkpt>
      <trkpt lat="40.27172" lon="20.2795">
        <ele>212.58999633789</ele>
        <time>2023-09-28T13:41:26.000Z</time>
      </trkpt>
      <trkpt lat="40.27175" lon="20.2798">
        <ele>213.55000305176</ele>
        <time>2023-09-28T13:41:24.000Z</time>
      </trkpt>
      <trkpt lat="40.27177" lon="20.27997">
        <ele>214.0299987793</ele>
        <time>2023-09-28T13:41:23.000Z</time>
      </trkpt>
      <trkpt lat="40.27178" lon="20.28007">
        <ele>214.0299987793</ele>
        <time>2023-09-28T13:41:22.000Z</time>
      </trkpt>
      <trkpt lat="40.27181" lon="20.28015">
        <ele>214.0299987793</ele>
        <time>2023-09-28T13:41:21.000Z</time>
      </trkpt>
      <trkpt lat="40.27185" lon="20.2802">
        <ele>214.50999450684</ele>
        <time>2023-09-28T13:41:20.000Z</time>
      </trkpt>
      <trkpt lat="40.2719" lon="20.28024">
        <ele>214.50999450684</ele>
        <time>2023-09-28T13:41:19.000Z</time>
      </trkpt>
      <trkpt lat="40.27204" lon="20.28032">
        <ele>214.99000549316</ele>
        <time>2023-09-28T13:41:17.000Z</time>
      </trkpt>
      <trkpt lat="40.27207" lon="20.28034">
        <ele>214.99000549316</ele>
        <time>2023-09-28T13:41:16.000Z</time>
      </trkpt>
      <trkpt lat="40.27268" lon="20.28057">
        <ele>217.39999389648</ele>
        <time>2023-09-28T13:41:10.000Z</time>
      </trkpt>
      <trkpt lat="40.27275" lon="20.28059">
        <ele>217.88000488281</ele>
        <time>2023-09-28T13:41:09.000Z</time>
      </trkpt>
      <trkpt lat="40.27287" lon="20.28061">
        <ele>218.36000061035</ele>
        <time>2023-09-28T13:41:08.000Z</time>
      </trkpt>
      <trkpt lat="40.27301" lon="20.28064">
        <ele>218.36000061035</ele>
        <time>2023-09-28T13:41:07.000Z</time>
      </trkpt>
      <trkpt lat="40.27315" lon="20.28065">
        <ele>218.36000061035</ele>
        <time>2023-09-28T13:41:06.000Z</time>
      </trkpt>
      <trkpt lat="40.27326" lon="20.28065">
        <ele>217.88000488281</ele>
        <time>2023-09-28T13:41:05.000Z</time>
      </trkpt>
      <trkpt lat="40.27356" lon="20.28061">
        <ele>215.94999694824</ele>
        <time>2023-09-28T13:41:02.000Z</time>
      </trkpt>
      <trkpt lat="40.27376" lon="20.28058">
        <ele>214.0299987793</ele>
        <time>2023-09-28T13:41:00.000Z</time>
      </trkpt>
      <trkpt lat="40.27394" lon="20.28055">
        <ele>212.58999633789</ele>
        <time>2023-09-28T13:40:59.000Z</time>
      </trkpt>
      <trkpt lat="40.27408" lon="20.28054">
        <ele>211.63000488281</ele>
        <time>2023-09-28T13:40:58.000Z</time>
      </trkpt>
      <trkpt lat="40.2744" lon="20.28053">
        <ele>211.14999389648</ele>
        <time>2023-09-28T13:40:56.000Z</time>
      </trkpt>
      <trkpt lat="40.27451" lon="20.28055">
        <ele>211.14999389648</ele>
        <time>2023-09-28T13:40:55.000Z</time>
      </trkpt>
      <trkpt lat="40.27462" lon="20.28057">
        <ele>211.63000488281</ele>
        <time>2023-09-28T13:40:54.000Z</time>
      </trkpt>
      <trkpt lat="40.27477" lon="20.28061">
        <ele>212.11000061035</ele>
        <time>2023-09-28T13:40:53.000Z</time>
      </trkpt>
      <trkpt lat="40.27491" lon="20.28066">
        <ele>212.11000061035</ele>
        <time>2023-09-28T13:40:52.000Z</time>
      </trkpt>
      <trkpt lat="40.27503" lon="20.28069">
        <ele>212.11000061035</ele>
        <time>2023-09-28T13:40:51.000Z</time>
      </trkpt>
      <trkpt lat="40.27544" lon="20.28082">
        <ele>213.07000732422</ele>
        <time>2023-09-28T13:40:48.000Z</time>
      </trkpt>
      <trkpt lat="40.2757" lon="20.28094">
        <ele>213.55000305176</ele>
        <time>2023-09-28T13:40:46.000Z</time>
      </trkpt>
      <trkpt lat="40.27576" lon="20.28098">
        <ele>213.55000305176</ele>
        <time>2023-09-28T13:40:45.000Z</time>
      </trkpt>
      <trkpt lat="40.27613" lon="20.28125">
        <ele>214.0299987793</ele>
        <time>2023-09-28T13:40:43.000Z</time>
      </trkpt>
      <trkpt lat="40.27644" lon="20.28155">
        <ele>215.4700012207</ele>
        <time>2023-09-28T13:40:40.000Z</time>
      </trkpt>
      <trkpt lat="40.27652" lon="20.28167">
        <ele>216.42999267578</ele>
        <time>2023-09-28T13:40:39.000Z</time>
      </trkpt>
      <trkpt lat="40.27654" lon="20.28169">
        <ele>216.42999267578</ele>
        <time>2023-09-28T13:40:38.000Z</time>
      </trkpt>
      <trkpt lat="40.27665" lon="20.28193">
        <ele>216.91000366211</ele>
        <time>2023-09-28T13:40:37.000Z</time>
      </trkpt>
      <trkpt lat="40.27677" lon="20.28214">
        <ele>217.39999389648</ele>
        <time>2023-09-28T13:40:35.000Z</time>
      </trkpt>
      <trkpt lat="40.27687" lon="20.28232">
        <ele>217.88000488281</ele>
        <time>2023-09-28T13:40:34.000Z</time>
      </trkpt>
      <trkpt lat="40.27696" lon="20.28246">
        <ele>217.88000488281</ele>
        <time>2023-09-28T13:40:33.000Z</time>
      </trkpt>
      <trkpt lat="40.27707" lon="20.28261">
        <ele>218.36000061035</ele>
        <time>2023-09-28T13:40:32.000Z</time>
      </trkpt>
      <trkpt lat="40.27715" lon="20.28273">
        <ele>218.36000061035</ele>
        <time>2023-09-28T13:40:31.000Z</time>
      </trkpt>
      <trkpt lat="40.2772" lon="20.28277">
        <ele>218.83999633789</ele>
        <time>2023-09-28T13:40:30.000Z</time>
      </trkpt>
      <trkpt lat="40.27749" lon="20.28312">
        <ele>218.83999633789</ele>
        <time>2023-09-28T13:40:28.000Z</time>
      </trkpt>
      <trkpt lat="40.27758" lon="20.28326">
        <ele>218.83999633789</ele>
        <time>2023-09-28T13:40:27.000Z</time>
      </trkpt>
      <trkpt lat="40.27768" lon="20.28343">
        <ele>218.83999633789</ele>
        <time>2023-09-28T13:40:26.000Z</time>
      </trkpt>
      <trkpt lat="40.2777" lon="20.28348">
        <ele>218.83999633789</ele>
        <time>2023-09-28T13:40:25.000Z</time>
      </trkpt>
      <trkpt lat="40.27788" lon="20.28387">
        <ele>220.2799987793</ele>
        <time>2023-09-28T13:40:23.000Z</time>
      </trkpt>
      <trkpt lat="40.27797" lon="20.28401">
        <ele>220.2799987793</ele>
        <time>2023-09-28T13:40:22.000Z</time>
      </trkpt>
      <trkpt lat="40.27805" lon="20.28412">
        <ele>220.75999450684</ele>
        <time>2023-09-28T13:40:21.000Z</time>
      </trkpt>
      <trkpt lat="40.27813" lon="20.28422">
        <ele>220.75999450684</ele>
        <time>2023-09-28T13:40:20.000Z</time>
      </trkpt>
      <trkpt lat="40.27822" lon="20.28431">
        <ele>221.24000549316</ele>
        <time>2023-09-28T13:40:19.000Z</time>
      </trkpt>
      <trkpt lat="40.27831" lon="20.28441">
        <ele>221.7200012207</ele>
        <time>2023-09-28T13:40:18.000Z</time>
      </trkpt>
      <trkpt lat="40.27862" lon="20.28478">
        <ele>223.16000366211</ele>
        <time>2023-09-28T13:40:15.000Z</time>
      </trkpt>
      <trkpt lat="40.27868" lon="20.28485">
        <ele>223.16000366211</ele>
        <time>2023-09-28T13:40:14.000Z</time>
      </trkpt>
      <trkpt lat="40.27876" lon="20.28497">
        <ele>223.63999938965</ele>
        <time>2023-09-28T13:40:13.000Z</time>
      </trkpt>
      <trkpt lat="40.27886" lon="20.28515">
        <ele>224.61000061035</ele>
        <time>2023-09-28T13:40:11.000Z</time>
      </trkpt>
      <trkpt lat="40.27898" lon="20.28537">
        <ele>225.57000732422</ele>
        <time>2023-09-28T13:40:10.000Z</time>
      </trkpt>
      <trkpt lat="40.27904" lon="20.28547">
        <ele>226.05000305176</ele>
        <time>2023-09-28T13:40:09.000Z</time>
      </trkpt>
      <trkpt lat="40.2791" lon="20.28554">
        <ele>226.5299987793</ele>
        <time>2023-09-28T13:40:08.000Z</time>
      </trkpt>
      <trkpt lat="40.27917" lon="20.28562">
        <ele>227.00999450684</ele>
        <time>2023-09-28T13:40:07.000Z</time>
      </trkpt>
      <trkpt lat="40.27928" lon="20.28572">
        <ele>227.9700012207</ele>
        <time>2023-09-28T13:40:06.000Z</time>
      </trkpt>
      <trkpt lat="40.27938" lon="20.2858">
        <ele>228.92999267578</ele>
        <time>2023-09-28T13:40:05.000Z</time>
      </trkpt>
      <trkpt lat="40.27942" lon="20.28583">
        <ele>229.41000366211</ele>
        <time>2023-09-28T13:40:04.000Z</time>
      </trkpt>
      <trkpt lat="40.27968" lon="20.28601">
        <ele>229.88999938965</ele>
        <time>2023-09-28T13:40:02.000Z</time>
      </trkpt>
      <trkpt lat="40.27973" lon="20.28604">
        <ele>229.88999938965</ele>
        <time>2023-09-28T13:40:01.000Z</time>
      </trkpt>
      <trkpt lat="40.27998" lon="20.28618">
        <ele>229.88999938965</ele>
        <time>2023-09-28T13:39:59.000Z</time>
      </trkpt>
      <trkpt lat="40.28007" lon="20.28625">
        <ele>229.88999938965</ele>
        <time>2023-09-28T13:39:58.000Z</time>
      </trkpt>
      <trkpt lat="40.28014" lon="20.28632">
        <ele>229.41000366211</ele>
        <time>2023-09-28T13:39:57.000Z</time>
      </trkpt>
      <trkpt lat="40.28019" lon="20.28641">
        <ele>229.41000366211</ele>
        <time>2023-09-28T13:39:56.000Z</time>
      </trkpt>
      <trkpt lat="40.28023" lon="20.28654">
        <ele>229.88999938965</ele>
        <time>2023-09-28T13:39:55.000Z</time>
      </trkpt>
      <trkpt lat="40.28026" lon="20.28666">
        <ele>229.88999938965</ele>
        <time>2023-09-28T13:39:54.000Z</time>
      </trkpt>
      <trkpt lat="40.28029" lon="20.28677">
        <ele>229.88999938965</ele>
        <time>2023-09-28T13:39:53.000Z</time>
      </trkpt>
      <trkpt lat="40.28034" lon="20.28687">
        <ele>230.36999511719</ele>
        <time>2023-09-28T13:39:52.000Z</time>
      </trkpt>
      <trkpt lat="40.28039" lon="20.28697">
        <ele>230.36999511719</ele>
        <time>2023-09-28T13:39:51.000Z</time>
      </trkpt>
      <trkpt lat="40.28043" lon="20.28705">
        <ele>230.85000610352</ele>
        <time>2023-09-28T13:39:50.000Z</time>
      </trkpt>
      <trkpt lat="40.28045" lon="20.28713">
        <ele>230.85000610352</ele>
        <time>2023-09-28T13:39:49.000Z</time>
      </trkpt>
      <trkpt lat="40.28046" lon="20.28723">
        <ele>230.85000610352</ele>
        <time>2023-09-28T13:39:48.000Z</time>
      </trkpt>
      <trkpt lat="40.28045" lon="20.28734">
        <ele>231.33000183105</ele>
        <time>2023-09-28T13:39:47.000Z</time>
      </trkpt>
      <trkpt lat="40.28043" lon="20.28744">
        <ele>231.33000183105</ele>
        <time>2023-09-28T13:39:46.000Z</time>
      </trkpt>
      <trkpt lat="40.28042" lon="20.28755">
        <ele>231.80999755859</ele>
        <time>2023-09-28T13:39:45.000Z</time>
      </trkpt>
      <trkpt lat="40.28039" lon="20.28774">
        <ele>232.7799987793</ele>
        <time>2023-09-28T13:39:44.000Z</time>
      </trkpt>
      <trkpt lat="40.28038" lon="20.28785">
        <ele>232.7799987793</ele>
        <time>2023-09-28T13:39:43.000Z</time>
      </trkpt>
      <trkpt lat="40.28032" lon="20.28861">
        <ele>235.17999267578</ele>
        <time>2023-09-28T13:39:38.000Z</time>
      </trkpt>
      <trkpt lat="40.28029" lon="20.28888">
        <ele>235.17999267578</ele>
        <time>2023-09-28T13:39:37.000Z</time>
      </trkpt>
      <trkpt lat="40.28027" lon="20.28911">
        <ele>235.66000366211</ele>
        <time>2023-09-28T13:39:36.000Z</time>
      </trkpt>
      <trkpt lat="40.28024" lon="20.28926">
        <ele>236.13999938965</ele>
        <time>2023-09-28T13:39:35.000Z</time>
      </trkpt>
      <trkpt lat="40.28019" lon="20.28939">
        <ele>236.61999511719</ele>
        <time>2023-09-28T13:39:34.000Z</time>
      </trkpt>
      <trkpt lat="40.28014" lon="20.28948">
        <ele>237.10000610352</ele>
        <time>2023-09-28T13:39:33.000Z</time>
      </trkpt>
      <trkpt lat="40.28006" lon="20.28961">
        <ele>238.05999755859</ele>
        <time>2023-09-28T13:39:32.000Z</time>
      </trkpt>
      <trkpt lat="40.28001" lon="20.28971">
        <ele>239.02000427246</ele>
        <time>2023-09-28T13:39:31.000Z</time>
      </trkpt>
      <trkpt lat="40.27997" lon="20.2898">
        <ele>239.50999450684</ele>
        <time>2023-09-28T13:39:30.000Z</time>
      </trkpt>
      <trkpt lat="40.27996" lon="20.28988">
        <ele>240.4700012207</ele>
        <time>2023-09-28T13:39:29.000Z</time>
      </trkpt>
      <trkpt lat="40.27997" lon="20.28998">
        <ele>241.42999267578</ele>
        <time>2023-09-28T13:39:28.000Z</time>
      </trkpt>
      <trkpt lat="40.27999" lon="20.29007">
        <ele>242.38999938965</ele>
        <time>2023-09-28T13:39:27.000Z</time>
      </trkpt>
      <trkpt lat="40.28003" lon="20.29016">
        <ele>243.35000610352</ele>
        <time>2023-09-28T13:39:26.000Z</time>
      </trkpt>
      <trkpt lat="40.28008" lon="20.29022">
        <ele>243.83000183105</ele>
        <time>2023-09-28T13:39:25.000Z</time>
      </trkpt>
      <trkpt lat="40.28014" lon="20.29026">
        <ele>244.78999328613</ele>
        <time>2023-09-28T13:39:24.000Z</time>
      </trkpt>
      <trkpt lat="40.28019" lon="20.29029">
        <ele>244.78999328613</ele>
        <time>2023-09-28T13:39:23.000Z</time>
      </trkpt>
      <trkpt lat="40.28026" lon="20.29031">
        <ele>245.27000427246</ele>
        <time>2023-09-28T13:39:22.000Z</time>
      </trkpt>
      <trkpt lat="40.28061" lon="20.29043">
        <ele>246.7200012207</ele>
        <time>2023-09-28T13:39:18.000Z</time>
      </trkpt>
      <trkpt lat="40.28081" lon="20.29051">
        <ele>247.67999267578</ele>
        <time>2023-09-28T13:39:16.000Z</time>
      </trkpt>
      <trkpt lat="40.28105" lon="20.2906">
        <ele>249.11999511719</ele>
        <time>2023-09-28T13:39:14.000Z</time>
      </trkpt>
      <trkpt lat="40.28124" lon="20.29065">
        <ele>250.08000183105</ele>
        <time>2023-09-28T13:39:12.000Z</time>
      </trkpt>
      <trkpt lat="40.28133" lon="20.29069">
        <ele>251.03999328613</ele>
        <time>2023-09-28T13:39:11.000Z</time>
      </trkpt>
      <trkpt lat="40.28141" lon="20.29073">
        <ele>251.03999328613</ele>
        <time>2023-09-28T13:39:10.000Z</time>
      </trkpt>
      <trkpt lat="40.28148" lon="20.29079">
        <ele>251.52000427246</ele>
        <time>2023-09-28T13:39:09.000Z</time>
      </trkpt>
      <trkpt lat="40.28154" lon="20.29087">
        <ele>251.52000427246</ele>
        <time>2023-09-28T13:39:08.000Z</time>
      </trkpt>
      <trkpt lat="40.28158" lon="20.29097">
        <ele>252</ele>
        <time>2023-09-28T13:39:07.000Z</time>
      </trkpt>
      <trkpt lat="40.28161" lon="20.29104">
        <ele>252</ele>
        <time>2023-09-28T13:39:06.000Z</time>
      </trkpt>
      <trkpt lat="40.28164" lon="20.29111">
        <ele>252</ele>
        <time>2023-09-28T13:39:05.000Z</time>
      </trkpt>
      <trkpt lat="40.28177" lon="20.29151">
        <ele>252.96000671387</ele>
        <time>2023-09-28T13:39:03.000Z</time>
      </trkpt>
      <trkpt lat="40.28181" lon="20.29162">
        <ele>253.44000244141</ele>
        <time>2023-09-28T13:39:02.000Z</time>
      </trkpt>
      <trkpt lat="40.28186" lon="20.29175">
        <ele>253.92999267578</ele>
        <time>2023-09-28T13:39:01.000Z</time>
      </trkpt>
      <trkpt lat="40.28192" lon="20.29189">
        <ele>254.41000366211</ele>
        <time>2023-09-28T13:39:00.000Z</time>
      </trkpt>
      <trkpt lat="40.28248" lon="20.29316">
        <ele>256.32998657227</ele>
        <time>2023-09-28T13:38:53.000Z</time>
      </trkpt>
      <trkpt lat="40.28291" lon="20.29429">
        <ele>259.20999145508</ele>
        <time>2023-09-28T13:38:47.000Z</time>
      </trkpt>
      <trkpt lat="40.28301" lon="20.29455">
        <ele>259.69000244141</ele>
        <time>2023-09-28T13:38:45.000Z</time>
      </trkpt>
      <trkpt lat="40.28319" lon="20.29501">
        <ele>261.14001464844</ele>
        <time>2023-09-28T13:38:43.000Z</time>
      </trkpt>
      <trkpt lat="40.28324" lon="20.29518">
        <ele>261.14001464844</ele>
        <time>2023-09-28T13:38:42.000Z</time>
      </trkpt>
      <trkpt lat="40.28327" lon="20.29529">
        <ele>261.61999511719</ele>
        <time>2023-09-28T13:38:41.000Z</time>
      </trkpt>
      <trkpt lat="40.28331" lon="20.2956">
        <ele>262.57998657227</ele>
        <time>2023-09-28T13:38:39.000Z</time>
      </trkpt>
      <trkpt lat="40.28332" lon="20.29567">
        <ele>263.05999755859</ele>
        <time>2023-09-28T13:38:38.000Z</time>
      </trkpt>
      <trkpt lat="40.28335" lon="20.29601">
        <ele>263.54000854492</ele>
        <time>2023-09-28T13:38:36.000Z</time>
      </trkpt>
      <trkpt lat="40.28337" lon="20.29613">
        <ele>264.5</ele>
        <time>2023-09-28T13:38:35.000Z</time>
      </trkpt>
      <trkpt lat="40.2834" lon="20.29623">
        <ele>264.5</ele>
        <time>2023-09-28T13:38:34.000Z</time>
      </trkpt>
      <trkpt lat="40.28341" lon="20.29628">
        <ele>264.98001098633</ele>
        <time>2023-09-28T13:38:33.000Z</time>
      </trkpt>
      <trkpt lat="40.28347" lon="20.29642">
        <ele>265.45999145508</ele>
        <time>2023-09-28T13:38:32.000Z</time>
      </trkpt>
      <trkpt lat="40.28354" lon="20.29658">
        <ele>265.94000244141</ele>
        <time>2023-09-28T13:38:30.000Z</time>
      </trkpt>
      <trkpt lat="40.28363" lon="20.29679">
        <ele>265.94000244141</ele>
        <time>2023-09-28T13:38:29.000Z</time>
      </trkpt>
      <trkpt lat="40.28369" lon="20.29693">
        <ele>265.94000244141</ele>
        <time>2023-09-28T13:38:28.000Z</time>
      </trkpt>
      <trkpt lat="40.28373" lon="20.29701">
        <ele>266.42001342773</ele>
        <time>2023-09-28T13:38:27.000Z</time>
      </trkpt>
      <trkpt lat="40.2838" lon="20.29717">
        <ele>266.42001342773</ele>
        <time>2023-09-28T13:38:26.000Z</time>
      </trkpt>
      <trkpt lat="40.28423" lon="20.29791">
        <ele>267.85998535156</ele>
        <time>2023-09-28T13:38:21.000Z</time>
      </trkpt>
      <trkpt lat="40.28454" lon="20.29842">
        <ele>268.82998657227</ele>
        <time>2023-09-28T13:38:18.000Z</time>
      </trkpt>
      <trkpt lat="40.28464" lon="20.29857">
        <ele>269.30999755859</ele>
        <time>2023-09-28T13:38:17.000Z</time>
      </trkpt>
      <trkpt lat="40.28472" lon="20.29869">
        <ele>269.79000854492</ele>
        <time>2023-09-28T13:38:16.000Z</time>
      </trkpt>
      <trkpt lat="40.28479" lon="20.29877">
        <ele>269.79000854492</ele>
        <time>2023-09-28T13:38:15.000Z</time>
      </trkpt>
      <trkpt lat="40.28495" lon="20.29895">
        <ele>270.26998901367</ele>
        <time>2023-09-28T13:38:13.000Z</time>
      </trkpt>
      <trkpt lat="40.28509" lon="20.29912">
        <ele>270.75</ele>
        <time>2023-09-28T13:38:12.000Z</time>
      </trkpt>
      <trkpt lat="40.28515" lon="20.29921">
        <ele>271.23001098633</ele>
        <time>2023-09-28T13:38:11.000Z</time>
      </trkpt>
      <trkpt lat="40.28521" lon="20.29931">
        <ele>271.70999145508</ele>
        <time>2023-09-28T13:38:10.000Z</time>
      </trkpt>
      <trkpt lat="40.28525" lon="20.29939">
        <ele>271.70999145508</ele>
        <time>2023-09-28T13:38:09.000Z</time>
      </trkpt>
      <trkpt lat="40.2853" lon="20.29951">
        <ele>272.67001342773</ele>
        <time>2023-09-28T13:38:08.000Z</time>
      </trkpt>
      <trkpt lat="40.28534" lon="20.29962">
        <ele>272.67001342773</ele>
        <time>2023-09-28T13:38:07.000Z</time>
      </trkpt>
      <trkpt lat="40.28538" lon="20.29973">
        <ele>273.14999389648</ele>
        <time>2023-09-28T13:38:06.000Z</time>
      </trkpt>
      <trkpt lat="40.28543" lon="20.29984">
        <ele>273.63000488281</ele>
        <time>2023-09-28T13:38:05.000Z</time>
      </trkpt>
      <trkpt lat="40.28548" lon="20.29992">
        <ele>273.63000488281</ele>
        <time>2023-09-28T13:38:04.000Z</time>
      </trkpt>
      <trkpt lat="40.28557" lon="20.30005">
        <ele>273.63000488281</ele>
        <time>2023-09-28T13:38:02.000Z</time>
      </trkpt>
      <trkpt lat="40.28565" lon="20.30014">
        <ele>273.63000488281</ele>
        <time>2023-09-28T13:38:01.000Z</time>
      </trkpt>
      <trkpt lat="40.28569" lon="20.30018">
        <ele>273.63000488281</ele>
        <time>2023-09-28T13:38:00.000Z</time>
      </trkpt>
      <trkpt lat="40.28575" lon="20.30024">
        <ele>273.63000488281</ele>
        <time>2023-09-28T13:37:59.000Z</time>
      </trkpt>
      <trkpt lat="40.28584" lon="20.30032">
        <ele>273.63000488281</ele>
        <time>2023-09-28T13:37:58.000Z</time>
      </trkpt>
      <trkpt lat="40.28604" lon="20.30048">
        <ele>274.58999633789</ele>
        <time>2023-09-28T13:37:55.000Z</time>
      </trkpt>
      <trkpt lat="40.28612" lon="20.30054">
        <ele>275.07000732422</ele>
        <time>2023-09-28T13:37:54.000Z</time>
      </trkpt>
      <trkpt lat="40.28624" lon="20.30065">
        <ele>276.04000854492</ele>
        <time>2023-09-28T13:37:53.000Z</time>
      </trkpt>
      <trkpt lat="40.28638" lon="20.3008">
        <ele>276.51998901367</ele>
        <time>2023-09-28T13:37:51.000Z</time>
      </trkpt>
      <trkpt lat="40.28655" lon="20.30101">
        <ele>277</ele>
        <time>2023-09-28T13:37:50.000Z</time>
      </trkpt>
      <trkpt lat="40.28657" lon="20.30103">
        <ele>277</ele>
        <time>2023-09-28T13:37:49.000Z</time>
      </trkpt>
      <trkpt lat="40.28703" lon="20.30149">
        <ele>278.44000244141</ele>
        <time>2023-09-28T13:37:45.000Z</time>
      </trkpt>
      <trkpt lat="40.28715" lon="20.30162">
        <ele>278.92001342773</ele>
        <time>2023-09-28T13:37:44.000Z</time>
      </trkpt>
      <trkpt lat="40.28751" lon="20.30201">
        <ele>280.83999633789</ele>
        <time>2023-09-28T13:37:40.000Z</time>
      </trkpt>
      <trkpt lat="40.28763" lon="20.30215">
        <ele>280.83999633789</ele>
        <time>2023-09-28T13:37:39.000Z</time>
      </trkpt>
      <trkpt lat="40.28768" lon="20.30221">
        <ele>280.83999633789</ele>
        <time>2023-09-28T13:37:38.000Z</time>
      </trkpt>
      <trkpt lat="40.28786" lon="20.30239">
        <ele>282.2799987793</ele>
        <time>2023-09-28T13:37:36.000Z</time>
      </trkpt>
      <trkpt lat="40.28804" lon="20.30258">
        <ele>283.25</ele>
        <time>2023-09-28T13:37:35.000Z</time>
      </trkpt>
      <trkpt lat="40.28821" lon="20.30277">
        <ele>284.20999145508</ele>
        <time>2023-09-28T13:37:33.000Z</time>
      </trkpt>
      <trkpt lat="40.28827" lon="20.30284">
        <ele>284.69000244141</ele>
        <time>2023-09-28T13:37:32.000Z</time>
      </trkpt>
      <trkpt lat="40.28838" lon="20.30295">
        <ele>285.64999389648</ele>
        <time>2023-09-28T13:37:31.000Z</time>
      </trkpt>
      <trkpt lat="40.28849" lon="20.30306">
        <ele>285.64999389648</ele>
        <time>2023-09-28T13:37:30.000Z</time>
      </trkpt>
      <trkpt lat="40.28859" lon="20.30316">
        <ele>286.13000488281</ele>
        <time>2023-09-28T13:37:29.000Z</time>
      </trkpt>
      <trkpt lat="40.28867" lon="20.30325">
        <ele>286.60998535156</ele>
        <time>2023-09-28T13:37:28.000Z</time>
      </trkpt>
      <trkpt lat="40.28877" lon="20.30334">
        <ele>287.08999633789</ele>
        <time>2023-09-28T13:37:27.000Z</time>
      </trkpt>
      <trkpt lat="40.28888" lon="20.30344">
        <ele>287.57000732422</ele>
        <time>2023-09-28T13:37:26.000Z</time>
      </trkpt>
      <trkpt lat="40.28897" lon="20.30353">
        <ele>288.04998779297</ele>
        <time>2023-09-28T13:37:25.000Z</time>
      </trkpt>
      <trkpt lat="40.28913" lon="20.30369">
        <ele>288.5299987793</ele>
        <time>2023-09-28T13:37:24.000Z</time>
      </trkpt>
      <trkpt lat="40.2892" lon="20.30376">
        <ele>289.01000976562</ele>
        <time>2023-09-28T13:37:23.000Z</time>
      </trkpt>
      <trkpt lat="40.2893" lon="20.30389">
        <ele>289.48999023438</ele>
        <time>2023-09-28T13:37:22.000Z</time>
      </trkpt>
      <trkpt lat="40.28939" lon="20.30401">
        <ele>289.01000976562</ele>
        <time>2023-09-28T13:37:21.000Z</time>
      </trkpt>
      <trkpt lat="40.28948" lon="20.3041">
        <ele>289.01000976562</ele>
        <time>2023-09-28T13:37:20.000Z</time>
      </trkpt>
      <trkpt lat="40.28958" lon="20.30419">
        <ele>289.48999023438</ele>
        <time>2023-09-28T13:37:19.000Z</time>
      </trkpt>
      <trkpt lat="40.28967" lon="20.30425">
        <ele>289.48999023438</ele>
        <time>2023-09-28T13:37:18.000Z</time>
      </trkpt>
      <trkpt lat="40.28977" lon="20.30432">
        <ele>289.48999023438</ele>
        <time>2023-09-28T13:37:17.000Z</time>
      </trkpt>
      <trkpt lat="40.2899" lon="20.30441">
        <ele>289.48999023438</ele>
        <time>2023-09-28T13:37:16.000Z</time>
      </trkpt>
      <trkpt lat="40.29005" lon="20.30452">
        <ele>289.48999023438</ele>
        <time>2023-09-28T13:37:15.000Z</time>
      </trkpt>
      <trkpt lat="40.29018" lon="20.30464">
        <ele>289.48999023438</ele>
        <time>2023-09-28T13:37:14.000Z</time>
      </trkpt>
      <trkpt lat="40.2903" lon="20.30474">
        <ele>289.48999023438</ele>
        <time>2023-09-28T13:37:13.000Z</time>
      </trkpt>
      <trkpt lat="40.29033" lon="20.30477">
        <ele>289.48999023438</ele>
        <time>2023-09-28T13:37:12.000Z</time>
      </trkpt>
      <trkpt lat="40.29079" lon="20.30508">
        <ele>291.89999389648</ele>
        <time>2023-09-28T13:37:08.000Z</time>
      </trkpt>
      <trkpt lat="40.29087" lon="20.30515">
        <ele>292.38000488281</ele>
        <time>2023-09-28T13:37:07.000Z</time>
      </trkpt>
      <trkpt lat="40.29092" lon="20.30522">
        <ele>293.33999633789</ele>
        <time>2023-09-28T13:37:06.000Z</time>
      </trkpt>
      <trkpt lat="40.29097" lon="20.3053">
        <ele>294.29998779297</ele>
        <time>2023-09-28T13:37:05.000Z</time>
      </trkpt>
      <trkpt lat="40.29101" lon="20.3054">
        <ele>295.26000976562</ele>
        <time>2023-09-28T13:37:04.000Z</time>
      </trkpt>
      <trkpt lat="40.29102" lon="20.30544">
        <ele>295.73999023438</ele>
        <time>2023-09-28T13:37:03.000Z</time>
      </trkpt>
      <trkpt lat="40.29108" lon="20.30561">
        <ele>296.70001220703</ele>
        <time>2023-09-28T13:37:01.000Z</time>
      </trkpt>
      <trkpt lat="40.29116" lon="20.30582">
        <ele>297.17999267578</ele>
        <time>2023-09-28T13:37:00.000Z</time>
      </trkpt>
      <trkpt lat="40.29123" lon="20.30596">
        <ele>297.67001342773</ele>
        <time>2023-09-28T13:36:59.000Z</time>
      </trkpt>
      <trkpt lat="40.29129" lon="20.30605">
        <ele>298.14999389648</ele>
        <time>2023-09-28T13:36:58.000Z</time>
      </trkpt>
      <trkpt lat="40.29136" lon="20.30614">
        <ele>298.63000488281</ele>
        <time>2023-09-28T13:36:57.000Z</time>
      </trkpt>
      <trkpt lat="40.29144" lon="20.3062">
        <ele>298.63000488281</ele>
        <time>2023-09-28T13:36:56.000Z</time>
      </trkpt>
      <trkpt lat="40.2915" lon="20.30624">
        <ele>298.63000488281</ele>
        <time>2023-09-28T13:36:55.000Z</time>
      </trkpt>
      <trkpt lat="40.29154" lon="20.30627">
        <ele>299.10998535156</ele>
        <time>2023-09-28T13:36:54.000Z</time>
      </trkpt>
      <trkpt lat="40.29179" lon="20.30637">
        <ele>298.63000488281</ele>
        <time>2023-09-28T13:36:52.000Z</time>
      </trkpt>
      <trkpt lat="40.29185" lon="20.3064">
        <ele>298.63000488281</ele>
        <time>2023-09-28T13:36:51.000Z</time>
      </trkpt>
      <trkpt lat="40.29201" lon="20.3065">
        <ele>298.14999389648</ele>
        <time>2023-09-28T13:36:50.000Z</time>
      </trkpt>
      <trkpt lat="40.29209" lon="20.30654">
        <ele>298.14999389648</ele>
        <time>2023-09-28T13:36:49.000Z</time>
      </trkpt>
      <trkpt lat="40.29216" lon="20.30657">
        <ele>298.14999389648</ele>
        <time>2023-09-28T13:36:48.000Z</time>
      </trkpt>
      <trkpt lat="40.29286" lon="20.30679">
        <ele>295.73999023438</ele>
        <time>2023-09-28T13:36:42.000Z</time>
      </trkpt>
      <trkpt lat="40.29294" lon="20.30683">
        <ele>295.73999023438</ele>
        <time>2023-09-28T13:36:41.000Z</time>
      </trkpt>
      <trkpt lat="40.29304" lon="20.30687">
        <ele>295.26000976562</ele>
        <time>2023-09-28T13:36:40.000Z</time>
      </trkpt>
      <trkpt lat="40.29312" lon="20.30689">
        <ele>294.7799987793</ele>
        <time>2023-09-28T13:36:39.000Z</time>
      </trkpt>
      <trkpt lat="40.29321" lon="20.30691">
        <ele>294.7799987793</ele>
        <time>2023-09-28T13:36:38.000Z</time>
      </trkpt>
      <trkpt lat="40.29329" lon="20.30689">
        <ele>294.7799987793</ele>
        <time>2023-09-28T13:36:37.000Z</time>
      </trkpt>
      <trkpt lat="40.29339" lon="20.30687">
        <ele>294.7799987793</ele>
        <time>2023-09-28T13:36:36.000Z</time>
      </trkpt>
      <trkpt lat="40.29347" lon="20.30686">
        <ele>294.7799987793</ele>
        <time>2023-09-28T13:36:35.000Z</time>
      </trkpt>
      <trkpt lat="40.29354" lon="20.30687">
        <ele>294.7799987793</ele>
        <time>2023-09-28T13:36:34.000Z</time>
      </trkpt>
      <trkpt lat="40.29363" lon="20.30689">
        <ele>295.26000976562</ele>
        <time>2023-09-28T13:36:33.000Z</time>
      </trkpt>
      <trkpt lat="40.2937" lon="20.30693">
        <ele>295.73999023438</ele>
        <time>2023-09-28T13:36:32.000Z</time>
      </trkpt>
      <trkpt lat="40.29377" lon="20.30697">
        <ele>296.2200012207</ele>
        <time>2023-09-28T13:36:31.000Z</time>
      </trkpt>
      <trkpt lat="40.2938" lon="20.307">
        <ele>296.70001220703</ele>
        <time>2023-09-28T13:36:30.000Z</time>
      </trkpt>
      <trkpt lat="40.29388" lon="20.30707">
        <ele>297.67001342773</ele>
        <time>2023-09-28T13:36:29.000Z</time>
      </trkpt>
      <trkpt lat="40.29391" lon="20.3071">
        <ele>298.14999389648</ele>
        <time>2023-09-28T13:36:28.000Z</time>
      </trkpt>
      <trkpt lat="40.29402" lon="20.30718">
        <ele>299.10998535156</ele>
        <time>2023-09-28T13:36:27.000Z</time>
      </trkpt>
      <trkpt lat="40.29411" lon="20.30724">
        <ele>299.58999633789</ele>
        <time>2023-09-28T13:36:26.000Z</time>
      </trkpt>
      <trkpt lat="40.29418" lon="20.30731">
        <ele>300.07000732422</ele>
        <time>2023-09-28T13:36:25.000Z</time>
      </trkpt>
      <trkpt lat="40.29423" lon="20.30737">
        <ele>300.54998779297</ele>
        <time>2023-09-28T13:36:24.000Z</time>
      </trkpt>
      <trkpt lat="40.29431" lon="20.30746">
        <ele>301.51000976562</ele>
        <time>2023-09-28T13:36:23.000Z</time>
      </trkpt>
      <trkpt lat="40.29438" lon="20.30754">
        <ele>301.98999023438</ele>
        <time>2023-09-28T13:36:22.000Z</time>
      </trkpt>
      <trkpt lat="40.29444" lon="20.30759">
        <ele>302.95001220703</ele>
        <time>2023-09-28T13:36:21.000Z</time>
      </trkpt>
      <trkpt lat="40.29451" lon="20.30764">
        <ele>303.91000366211</ele>
        <time>2023-09-28T13:36:20.000Z</time>
      </trkpt>
      <trkpt lat="40.29457" lon="20.3077">
        <ele>304.39001464844</ele>
        <time>2023-09-28T13:36:19.000Z</time>
      </trkpt>
      <trkpt lat="40.29463" lon="20.30777">
        <ele>305.35998535156</ele>
        <time>2023-09-28T13:36:18.000Z</time>
      </trkpt>
      <trkpt lat="40.29468" lon="20.30784">
        <ele>305.83999633789</ele>
        <time>2023-09-28T13:36:17.000Z</time>
      </trkpt>
      <trkpt lat="40.29473" lon="20.30792">
        <ele>306.79998779297</ele>
        <time>2023-09-28T13:36:16.000Z</time>
      </trkpt>
      <trkpt lat="40.29477" lon="20.30799">
        <ele>307.2799987793</ele>
        <time>2023-09-28T13:36:15.000Z</time>
      </trkpt>
      <trkpt lat="40.2948" lon="20.30808">
        <ele>308.23999023438</ele>
        <time>2023-09-28T13:36:14.000Z</time>
      </trkpt>
      <trkpt lat="40.29483" lon="20.30819">
        <ele>308.7200012207</ele>
        <time>2023-09-28T13:36:13.000Z</time>
      </trkpt>
      <trkpt lat="40.29484" lon="20.30828">
        <ele>309.67999267578</ele>
        <time>2023-09-28T13:36:12.000Z</time>
      </trkpt>
      <trkpt lat="40.29486" lon="20.30841">
        <ele>310.16000366211</ele>
        <time>2023-09-28T13:36:11.000Z</time>
      </trkpt>
      <trkpt lat="40.29487" lon="20.30851">
        <ele>310.64001464844</ele>
        <time>2023-09-28T13:36:10.000Z</time>
      </trkpt>
      <trkpt lat="40.2949" lon="20.30859">
        <ele>311.11999511719</ele>
        <time>2023-09-28T13:36:09.000Z</time>
      </trkpt>
      <trkpt lat="40.29495" lon="20.30865">
        <ele>311.60000610352</ele>
        <time>2023-09-28T13:36:08.000Z</time>
      </trkpt>
      <trkpt lat="40.295" lon="20.30869">
        <ele>312.08999633789</ele>
        <time>2023-09-28T13:36:07.000Z</time>
      </trkpt>
      <trkpt lat="40.29508" lon="20.30873">
        <ele>312.08999633789</ele>
        <time>2023-09-28T13:36:06.000Z</time>
      </trkpt>
      <trkpt lat="40.2951" lon="20.30874">
        <ele>311.60000610352</ele>
        <time>2023-09-28T13:36:05.000Z</time>
      </trkpt>
      <trkpt lat="40.29523" lon="20.30879">
        <ele>311.60000610352</ele>
        <time>2023-09-28T13:36:04.000Z</time>
      </trkpt>
      <trkpt lat="40.2956" lon="20.30893">
        <ele>311.11999511719</ele>
        <time>2023-09-28T13:36:01.000Z</time>
      </trkpt>
      <trkpt lat="40.2957" lon="20.30898">
        <ele>311.11999511719</ele>
        <time>2023-09-28T13:36:00.000Z</time>
      </trkpt>
      <trkpt lat="40.29581" lon="20.30904">
        <ele>311.11999511719</ele>
        <time>2023-09-28T13:35:59.000Z</time>
      </trkpt>
      <trkpt lat="40.29599" lon="20.30915">
        <ele>311.11999511719</ele>
        <time>2023-09-28T13:35:57.000Z</time>
      </trkpt>
      <trkpt lat="40.29626" lon="20.3093">
        <ele>311.60000610352</ele>
        <time>2023-09-28T13:35:55.000Z</time>
      </trkpt>
      <trkpt lat="40.29654" lon="20.30949">
        <ele>311.60000610352</ele>
        <time>2023-09-28T13:35:52.000Z</time>
      </trkpt>
      <trkpt lat="40.2972" lon="20.30986">
        <ele>313.5299987793</ele>
        <time>2023-09-28T13:35:46.000Z</time>
      </trkpt>
      <trkpt lat="40.29739" lon="20.30998">
        <ele>314.48999023438</ele>
        <time>2023-09-28T13:35:45.000Z</time>
      </trkpt>
      <trkpt lat="40.29746" lon="20.31004">
        <ele>314.48999023438</ele>
        <time>2023-09-28T13:35:44.000Z</time>
      </trkpt>
      <trkpt lat="40.2977" lon="20.31021">
        <ele>314.9700012207</ele>
        <time>2023-09-28T13:35:42.000Z</time>
      </trkpt>
      <trkpt lat="40.29772" lon="20.31023">
        <ele>314.9700012207</ele>
        <time>2023-09-28T13:35:41.000Z</time>
      </trkpt>
      <trkpt lat="40.29786" lon="20.3103">
        <ele>314.48999023438</ele>
        <time>2023-09-28T13:35:40.000Z</time>
      </trkpt>
      <trkpt lat="40.298" lon="20.31036">
        <ele>314.01000976562</ele>
        <time>2023-09-28T13:35:39.000Z</time>
      </trkpt>
      <trkpt lat="40.29804" lon="20.31037">
        <ele>314.01000976562</ele>
        <time>2023-09-28T13:35:38.000Z</time>
      </trkpt>
      <trkpt lat="40.29823" lon="20.31044">
        <ele>313.04998779297</ele>
        <time>2023-09-28T13:35:37.000Z</time>
      </trkpt>
      <trkpt lat="40.29833" lon="20.31048">
        <ele>312.57000732422</ele>
        <time>2023-09-28T13:35:36.000Z</time>
      </trkpt>
      <trkpt lat="40.2984" lon="20.31054">
        <ele>312.57000732422</ele>
        <time>2023-09-28T13:35:35.000Z</time>
      </trkpt>
      <trkpt lat="40.29848" lon="20.31062">
        <ele>312.08999633789</ele>
        <time>2023-09-28T13:35:34.000Z</time>
      </trkpt>
      <trkpt lat="40.29851" lon="20.31066">
        <ele>312.08999633789</ele>
        <time>2023-09-28T13:35:33.000Z</time>
      </trkpt>
      <trkpt lat="40.29864" lon="20.31081">
        <ele>312.08999633789</ele>
        <time>2023-09-28T13:35:32.000Z</time>
      </trkpt>
      <trkpt lat="40.29875" lon="20.31092">
        <ele>312.57000732422</ele>
        <time>2023-09-28T13:35:31.000Z</time>
      </trkpt>
      <trkpt lat="40.29884" lon="20.31098">
        <ele>312.57000732422</ele>
        <time>2023-09-28T13:35:30.000Z</time>
      </trkpt>
      <trkpt lat="40.29893" lon="20.31105">
        <ele>313.04998779297</ele>
        <time>2023-09-28T13:35:29.000Z</time>
      </trkpt>
      <trkpt lat="40.29899" lon="20.31108">
        <ele>313.04998779297</ele>
        <time>2023-09-28T13:35:28.000Z</time>
      </trkpt>
      <trkpt lat="40.29932" lon="20.31123">
        <ele>315.45001220703</ele>
        <time>2023-09-28T13:35:26.000Z</time>
      </trkpt>
      <trkpt lat="40.29941" lon="20.31126">
        <ele>315.92999267578</ele>
        <time>2023-09-28T13:35:25.000Z</time>
      </trkpt>
      <trkpt lat="40.29971" lon="20.31133">
        <ele>317.85000610352</ele>
        <time>2023-09-28T13:35:22.000Z</time>
      </trkpt>
      <trkpt lat="40.29986" lon="20.31135">
        <ele>318.32998657227</ele>
        <time>2023-09-28T13:35:21.000Z</time>
      </trkpt>
      <trkpt lat="40.29997" lon="20.31138">
        <ele>318.80999755859</ele>
        <time>2023-09-28T13:35:20.000Z</time>
      </trkpt>
      <trkpt lat="40.30006" lon="20.31142">
        <ele>319.29998779297</ele>
        <time>2023-09-28T13:35:19.000Z</time>
      </trkpt>
      <trkpt lat="40.30016" lon="20.31148">
        <ele>319.29998779297</ele>
        <time>2023-09-28T13:35:18.000Z</time>
      </trkpt>
      <trkpt lat="40.30034" lon="20.31163">
        <ele>318.80999755859</ele>
        <time>2023-09-28T13:35:16.000Z</time>
      </trkpt>
      <trkpt lat="40.30043" lon="20.3117">
        <ele>318.80999755859</ele>
        <time>2023-09-28T13:35:15.000Z</time>
      </trkpt>
      <trkpt lat="40.30049" lon="20.31174">
        <ele>318.80999755859</ele>
        <time>2023-09-28T13:35:14.000Z</time>
      </trkpt>
      <trkpt lat="40.30062" lon="20.31181">
        <ele>319.29998779297</ele>
        <time>2023-09-28T13:35:13.000Z</time>
      </trkpt>
      <trkpt lat="40.30077" lon="20.31189">
        <ele>319.29998779297</ele>
        <time>2023-09-28T13:35:12.000Z</time>
      </trkpt>
      <trkpt lat="40.30086" lon="20.31194">
        <ele>319.29998779297</ele>
        <time>2023-09-28T13:35:11.000Z</time>
      </trkpt>
      <trkpt lat="40.30097" lon="20.31199">
        <ele>319.29998779297</ele>
        <time>2023-09-28T13:35:10.000Z</time>
      </trkpt>
      <trkpt lat="40.30107" lon="20.31201">
        <ele>318.80999755859</ele>
        <time>2023-09-28T13:35:09.000Z</time>
      </trkpt>
      <trkpt lat="40.30117" lon="20.31201">
        <ele>318.80999755859</ele>
        <time>2023-09-28T13:35:08.000Z</time>
      </trkpt>
      <trkpt lat="40.30126" lon="20.31199">
        <ele>318.32998657227</ele>
        <time>2023-09-28T13:35:07.000Z</time>
      </trkpt>
      <trkpt lat="40.30134" lon="20.31194">
        <ele>317.85000610352</ele>
        <time>2023-09-28T13:35:06.000Z</time>
      </trkpt>
      <trkpt lat="40.30144" lon="20.31189">
        <ele>316.89001464844</ele>
        <time>2023-09-28T13:35:05.000Z</time>
      </trkpt>
      <trkpt lat="40.30154" lon="20.31186">
        <ele>316.89001464844</ele>
        <time>2023-09-28T13:35:04.000Z</time>
      </trkpt>
      <trkpt lat="40.30165" lon="20.31185">
        <ele>316.89001464844</ele>
        <time>2023-09-28T13:35:03.000Z</time>
      </trkpt>
      <trkpt lat="40.30175" lon="20.31187">
        <ele>316.89001464844</ele>
        <time>2023-09-28T13:35:02.000Z</time>
      </trkpt>
      <trkpt lat="40.30183" lon="20.31189">
        <ele>316.89001464844</ele>
        <time>2023-09-28T13:35:01.000Z</time>
      </trkpt>
      <trkpt lat="40.30204" lon="20.31195">
        <ele>317.36999511719</ele>
        <time>2023-09-28T13:34:59.000Z</time>
      </trkpt>
      <trkpt lat="40.30241" lon="20.31206">
        <ele>318.80999755859</ele>
        <time>2023-09-28T13:34:57.000Z</time>
      </trkpt>
      <trkpt lat="40.30275" lon="20.31221">
        <ele>319.7799987793</ele>
        <time>2023-09-28T13:34:54.000Z</time>
      </trkpt>
      <trkpt lat="40.30286" lon="20.31226">
        <ele>320.26000976562</ele>
        <time>2023-09-28T13:34:53.000Z</time>
      </trkpt>
      <trkpt lat="40.30302" lon="20.31234">
        <ele>320.73999023438</ele>
        <time>2023-09-28T13:34:52.000Z</time>
      </trkpt>
      <trkpt lat="40.30307" lon="20.31236">
        <ele>320.73999023438</ele>
        <time>2023-09-28T13:34:51.000Z</time>
      </trkpt>
      <trkpt lat="40.30319" lon="20.31242">
        <ele>321.2200012207</ele>
        <time>2023-09-28T13:34:50.000Z</time>
      </trkpt>
      <trkpt lat="40.30363" lon="20.31267">
        <ele>322.17999267578</ele>
        <time>2023-09-28T13:34:47.000Z</time>
      </trkpt>
      <trkpt lat="40.30377" lon="20.31272">
        <ele>322.66000366211</ele>
        <time>2023-09-28T13:34:46.000Z</time>
      </trkpt>
      <trkpt lat="40.30402" lon="20.31278">
        <ele>322.66000366211</ele>
        <time>2023-09-28T13:34:44.000Z</time>
      </trkpt>
      <trkpt lat="40.30411" lon="20.31281">
        <ele>322.66000366211</ele>
        <time>2023-09-28T13:34:43.000Z</time>
      </trkpt>
      <trkpt lat="40.30434" lon="20.3129">
        <ele>323.14001464844</ele>
        <time>2023-09-28T13:34:41.000Z</time>
      </trkpt>
      <trkpt lat="40.30442" lon="20.31293">
        <ele>323.61999511719</ele>
        <time>2023-09-28T13:34:40.000Z</time>
      </trkpt>
      <trkpt lat="40.30451" lon="20.31296">
        <ele>324.10000610352</ele>
        <time>2023-09-28T13:34:39.000Z</time>
      </trkpt>
      <trkpt lat="40.30482" lon="20.31306">
        <ele>324.57998657227</ele>
        <time>2023-09-28T13:34:36.000Z</time>
      </trkpt>
      <trkpt lat="40.30494" lon="20.31309">
        <ele>325.05999755859</ele>
        <time>2023-09-28T13:34:35.000Z</time>
      </trkpt>
      <trkpt lat="40.30509" lon="20.31311">
        <ele>325.54000854492</ele>
        <time>2023-09-28T13:34:34.000Z</time>
      </trkpt>
      <trkpt lat="40.30514" lon="20.31312">
        <ele>325.54000854492</ele>
        <time>2023-09-28T13:34:33.000Z</time>
      </trkpt>
      <trkpt lat="40.3053" lon="20.31316">
        <ele>326.5</ele>
        <time>2023-09-28T13:34:32.000Z</time>
      </trkpt>
      <trkpt lat="40.30555" lon="20.31325">
        <ele>327.95001220703</ele>
        <time>2023-09-28T13:34:30.000Z</time>
      </trkpt>
      <trkpt lat="40.3057" lon="20.31332">
        <ele>328.91000366211</ele>
        <time>2023-09-28T13:34:29.000Z</time>
      </trkpt>
      <trkpt lat="40.3058" lon="20.31336">
        <ele>329.39001464844</ele>
        <time>2023-09-28T13:34:28.000Z</time>
      </trkpt>
      <trkpt lat="40.3062" lon="20.31353">
        <ele>330.82998657227</ele>
        <time>2023-09-28T13:34:25.000Z</time>
      </trkpt>
      <trkpt lat="40.30632" lon="20.3136">
        <ele>331.79000854492</ele>
        <time>2023-09-28T13:34:24.000Z</time>
      </trkpt>
      <trkpt lat="40.30639" lon="20.31366">
        <ele>331.79000854492</ele>
        <time>2023-09-28T13:34:23.000Z</time>
      </trkpt>
      <trkpt lat="40.30655" lon="20.3138">
        <ele>332.26998901367</ele>
        <time>2023-09-28T13:34:22.000Z</time>
      </trkpt>
      <trkpt lat="40.30665" lon="20.31392">
        <ele>332.75</ele>
        <time>2023-09-28T13:34:21.000Z</time>
      </trkpt>
      <trkpt lat="40.30667" lon="20.31394">
        <ele>332.75</ele>
        <time>2023-09-28T13:34:20.000Z</time>
      </trkpt>
      <trkpt lat="40.3068" lon="20.31412">
        <ele>332.75</ele>
        <time>2023-09-28T13:34:19.000Z</time>
      </trkpt>
      <trkpt lat="40.30693" lon="20.3143">
        <ele>332.75</ele>
        <time>2023-09-28T13:34:18.000Z</time>
      </trkpt>
      <trkpt lat="40.30696" lon="20.31434">
        <ele>332.75</ele>
        <time>2023-09-28T13:34:17.000Z</time>
      </trkpt>
      <trkpt lat="40.30712" lon="20.31457">
        <ele>333.23001098633</ele>
        <time>2023-09-28T13:34:16.000Z</time>
      </trkpt>
      <trkpt lat="40.3072" lon="20.31471">
        <ele>333.70999145508</ele>
        <time>2023-09-28T13:34:15.000Z</time>
      </trkpt>
      <trkpt lat="40.30724" lon="20.31482">
        <ele>334.20001220703</ele>
        <time>2023-09-28T13:34:14.000Z</time>
      </trkpt>
      <trkpt lat="40.30732" lon="20.31503">
        <ele>334.67999267578</ele>
        <time>2023-09-28T13:34:13.000Z</time>
      </trkpt>
      <trkpt lat="40.30739" lon="20.31518">
        <ele>335.64001464844</ele>
        <time>2023-09-28T13:34:12.000Z</time>
      </trkpt>
      <trkpt lat="40.30746" lon="20.31531">
        <ele>336.11999511719</ele>
        <time>2023-09-28T13:34:11.000Z</time>
      </trkpt>
      <trkpt lat="40.30751" lon="20.31538">
        <ele>336.60000610352</ele>
        <time>2023-09-28T13:34:10.000Z</time>
      </trkpt>
      <trkpt lat="40.30757" lon="20.31547">
        <ele>336.60000610352</ele>
        <time>2023-09-28T13:34:09.000Z</time>
      </trkpt>
      <trkpt lat="40.30771" lon="20.31564">
        <ele>337.55999755859</ele>
        <time>2023-09-28T13:34:08.000Z</time>
      </trkpt>
      <trkpt lat="40.30782" lon="20.31576">
        <ele>338.04000854492</ele>
        <time>2023-09-28T13:34:07.000Z</time>
      </trkpt>
      <trkpt lat="40.3079" lon="20.31586">
        <ele>338.51998901367</ele>
        <time>2023-09-28T13:34:06.000Z</time>
      </trkpt>
      <trkpt lat="40.30808" lon="20.31609">
        <ele>339.95999145508</ele>
        <time>2023-09-28T13:34:04.000Z</time>
      </trkpt>
      <trkpt lat="40.30815" lon="20.31616">
        <ele>340.44000244141</ele>
        <time>2023-09-28T13:34:03.000Z</time>
      </trkpt>
      <trkpt lat="40.30817" lon="20.31618">
        <ele>340.44000244141</ele>
        <time>2023-09-28T13:34:02.000Z</time>
      </trkpt>
      <trkpt lat="40.30859" lon="20.31666">
        <ele>342.85000610352</ele>
        <time>2023-09-28T13:33:58.000Z</time>
      </trkpt>
      <trkpt lat="40.3087" lon="20.31676">
        <ele>343.32998657227</ele>
        <time>2023-09-28T13:33:57.000Z</time>
      </trkpt>
      <trkpt lat="40.30877" lon="20.31683">
        <ele>343.80999755859</ele>
        <time>2023-09-28T13:33:56.000Z</time>
      </trkpt>
      <trkpt lat="40.30886" lon="20.31693">
        <ele>344.76998901367</ele>
        <time>2023-09-28T13:33:55.000Z</time>
      </trkpt>
      <trkpt lat="40.30893" lon="20.317">
        <ele>345.25</ele>
        <time>2023-09-28T13:33:54.000Z</time>
      </trkpt>
      <trkpt lat="40.30897" lon="20.31703">
        <ele>345.25</ele>
        <time>2023-09-28T13:33:53.000Z</time>
      </trkpt>
      <trkpt lat="40.30912" lon="20.31711">
        <ele>344.76998901367</ele>
        <time>2023-09-28T13:33:52.000Z</time>
      </trkpt>
      <trkpt lat="40.30921" lon="20.31719">
        <ele>345.25</ele>
        <time>2023-09-28T13:33:51.000Z</time>
      </trkpt>
      <trkpt lat="40.30925" lon="20.31722">
        <ele>345.25</ele>
        <time>2023-09-28T13:33:50.000Z</time>
      </trkpt>
      <trkpt lat="40.30942" lon="20.3174">
        <ele>345.73001098633</ele>
        <time>2023-09-28T13:33:49.000Z</time>
      </trkpt>
      <trkpt lat="40.3095" lon="20.31748">
        <ele>345.73001098633</ele>
        <time>2023-09-28T13:33:48.000Z</time>
      </trkpt>
      <trkpt lat="40.30962" lon="20.31759">
        <ele>345.73001098633</ele>
        <time>2023-09-28T13:33:47.000Z</time>
      </trkpt>
      <trkpt lat="40.30972" lon="20.31766">
        <ele>345.73001098633</ele>
        <time>2023-09-28T13:33:46.000Z</time>
      </trkpt>
      <trkpt lat="40.3098" lon="20.3177">
        <ele>346.20999145508</ele>
        <time>2023-09-28T13:33:45.000Z</time>
      </trkpt>
      <trkpt lat="40.30987" lon="20.3177">
        <ele>346.69000244141</ele>
        <time>2023-09-28T13:33:44.000Z</time>
      </trkpt>
      <trkpt lat="40.30994" lon="20.31769">
        <ele>346.69000244141</ele>
        <time>2023-09-28T13:33:43.000Z</time>
      </trkpt>
      <trkpt lat="40.31" lon="20.31764">
        <ele>347.17001342773</ele>
        <time>2023-09-28T13:33:42.000Z</time>
      </trkpt>
      <trkpt lat="40.31005" lon="20.31758">
        <ele>347.64999389648</ele>
        <time>2023-09-28T13:33:41.000Z</time>
      </trkpt>
      <trkpt lat="40.31009" lon="20.31752">
        <ele>347.64999389648</ele>
        <time>2023-09-28T13:33:40.000Z</time>
      </trkpt>
      <trkpt lat="40.31022" lon="20.31732">
        <ele>348.13000488281</ele>
        <time>2023-09-28T13:33:38.000Z</time>
      </trkpt>
      <trkpt lat="40.31027" lon="20.31726">
        <ele>348.61999511719</ele>
        <time>2023-09-28T13:33:37.000Z</time>
      </trkpt>
      <trkpt lat="40.31033" lon="20.31723">
        <ele>349.10000610352</ele>
        <time>2023-09-28T13:33:36.000Z</time>
      </trkpt>
      <trkpt lat="40.31039" lon="20.31722">
        <ele>349.10000610352</ele>
        <time>2023-09-28T13:33:35.000Z</time>
      </trkpt>
      <trkpt lat="40.31047" lon="20.31723">
        <ele>349.10000610352</ele>
        <time>2023-09-28T13:33:34.000Z</time>
      </trkpt>
      <trkpt lat="40.31054" lon="20.31726">
        <ele>349.57998657227</ele>
        <time>2023-09-28T13:33:33.000Z</time>
      </trkpt>
      <trkpt lat="40.31061" lon="20.3173">
        <ele>349.57998657227</ele>
        <time>2023-09-28T13:33:32.000Z</time>
      </trkpt>
      <trkpt lat="40.31068" lon="20.31735">
        <ele>350.05999755859</ele>
        <time>2023-09-28T13:33:31.000Z</time>
      </trkpt>
      <trkpt lat="40.31072" lon="20.31738">
        <ele>350.05999755859</ele>
        <time>2023-09-28T13:33:30.000Z</time>
      </trkpt>
      <trkpt lat="40.31123" lon="20.31781">
        <ele>350.54000854492</ele>
        <time>2023-09-28T13:33:25.000Z</time>
      </trkpt>
      <trkpt lat="40.31128" lon="20.31785">
        <ele>351.01998901367</ele>
        <time>2023-09-28T13:33:24.000Z</time>
      </trkpt>
      <trkpt lat="40.31141" lon="20.31792">
        <ele>351.5</ele>
        <time>2023-09-28T13:33:23.000Z</time>
      </trkpt>
      <trkpt lat="40.31151" lon="20.31798">
        <ele>351.5</ele>
        <time>2023-09-28T13:33:22.000Z</time>
      </trkpt>
      <trkpt lat="40.31169" lon="20.31807">
        <ele>351.98001098633</ele>
        <time>2023-09-28T13:33:21.000Z</time>
      </trkpt>
      <trkpt lat="40.3118" lon="20.31813">
        <ele>352.45999145508</ele>
        <time>2023-09-28T13:33:20.000Z</time>
      </trkpt>
      <trkpt lat="40.31234" lon="20.31843">
        <ele>357.26998901367</ele>
        <time>2023-09-28T13:33:15.000Z</time>
      </trkpt>
      <trkpt lat="40.31243" lon="20.31849">
        <ele>357.75</ele>
        <time>2023-09-28T13:33:14.000Z</time>
      </trkpt>
      <trkpt lat="40.3125" lon="20.31857">
        <ele>358.23001098633</ele>
        <time>2023-09-28T13:33:13.000Z</time>
      </trkpt>
      <trkpt lat="40.31252" lon="20.3186">
        <ele>358.70999145508</ele>
        <time>2023-09-28T13:33:12.000Z</time>
      </trkpt>
      <trkpt lat="40.31264" lon="20.31879">
        <ele>360.63000488281</ele>
        <time>2023-09-28T13:33:11.000Z</time>
      </trkpt>
      <trkpt lat="40.3127" lon="20.31888">
        <ele>361.58999633789</ele>
        <time>2023-09-28T13:33:10.000Z</time>
      </trkpt>
      <trkpt lat="40.31274" lon="20.31893">
        <ele>362.07000732422</ele>
        <time>2023-09-28T13:33:09.000Z</time>
      </trkpt>
      <trkpt lat="40.31293" lon="20.31913">
        <ele>363.04000854492</ele>
        <time>2023-09-28T13:33:07.000Z</time>
      </trkpt>
      <trkpt lat="40.31299" lon="20.31921">
        <ele>363.51998901367</ele>
        <time>2023-09-28T13:33:06.000Z</time>
      </trkpt>
      <trkpt lat="40.31304" lon="20.31933">
        <ele>363.51998901367</ele>
        <time>2023-09-28T13:33:05.000Z</time>
      </trkpt>
      <trkpt lat="40.31307" lon="20.31944">
        <ele>364</ele>
        <time>2023-09-28T13:33:04.000Z</time>
      </trkpt>
      <trkpt lat="40.31312" lon="20.31953">
        <ele>364</ele>
        <time>2023-09-28T13:33:03.000Z</time>
      </trkpt>
      <trkpt lat="40.31317" lon="20.31959">
        <ele>364.48001098633</ele>
        <time>2023-09-28T13:33:02.000Z</time>
      </trkpt>
      <trkpt lat="40.31325" lon="20.31968">
        <ele>364.48001098633</ele>
        <time>2023-09-28T13:33:01.000Z</time>
      </trkpt>
      <trkpt lat="40.31333" lon="20.31978">
        <ele>364.95999145508</ele>
        <time>2023-09-28T13:33:00.000Z</time>
      </trkpt>
      <trkpt lat="40.3134" lon="20.3199">
        <ele>365.44000244141</ele>
        <time>2023-09-28T13:32:59.000Z</time>
      </trkpt>
      <trkpt lat="40.31345" lon="20.32">
        <ele>365.44000244141</ele>
        <time>2023-09-28T13:32:58.000Z</time>
      </trkpt>
      <trkpt lat="40.31357" lon="20.32028">
        <ele>365.92001342773</ele>
        <time>2023-09-28T13:32:56.000Z</time>
      </trkpt>
      <trkpt lat="40.31362" lon="20.32036">
        <ele>365.92001342773</ele>
        <time>2023-09-28T13:32:55.000Z</time>
      </trkpt>
      <trkpt lat="40.31368" lon="20.32043">
        <ele>366.39999389648</ele>
        <time>2023-09-28T13:32:54.000Z</time>
      </trkpt>
      <trkpt lat="40.31376" lon="20.32049">
        <ele>366.88000488281</ele>
        <time>2023-09-28T13:32:53.000Z</time>
      </trkpt>
      <trkpt lat="40.31382" lon="20.32051">
        <ele>367.35998535156</ele>
        <time>2023-09-28T13:32:52.000Z</time>
      </trkpt>
      <trkpt lat="40.31429" lon="20.32067">
        <ele>369.76000976562</ele>
        <time>2023-09-28T13:32:48.000Z</time>
      </trkpt>
      <trkpt lat="40.31476" lon="20.3208">
        <ele>373.13000488281</ele>
        <time>2023-09-28T13:32:44.000Z</time>
      </trkpt>
      <trkpt lat="40.31489" lon="20.32083">
        <ele>373.60998535156</ele>
        <time>2023-09-28T13:32:43.000Z</time>
      </trkpt>
      <trkpt lat="40.31581" lon="20.32098">
        <ele>373.60998535156</ele>
        <time>2023-09-28T13:32:34.000Z</time>
      </trkpt>
      <trkpt lat="40.31607" lon="20.32107">
        <ele>374.57000732422</ele>
        <time>2023-09-28T13:32:32.000Z</time>
      </trkpt>
      <trkpt lat="40.31609" lon="20.32108">
        <ele>374.57000732422</ele>
        <time>2023-09-28T13:32:31.000Z</time>
      </trkpt>
      <trkpt lat="40.31623" lon="20.32115">
        <ele>374.57000732422</ele>
        <time>2023-09-28T13:32:30.000Z</time>
      </trkpt>
      <trkpt lat="40.31659" lon="20.32138">
        <ele>375.04998779297</ele>
        <time>2023-09-28T13:32:27.000Z</time>
      </trkpt>
      <trkpt lat="40.3167" lon="20.32143">
        <ele>375.5299987793</ele>
        <time>2023-09-28T13:32:26.000Z</time>
      </trkpt>
      <trkpt lat="40.31676" lon="20.32145">
        <ele>375.5299987793</ele>
        <time>2023-09-28T13:32:25.000Z</time>
      </trkpt>
      <trkpt lat="40.31689" lon="20.32148">
        <ele>375.5299987793</ele>
        <time>2023-09-28T13:32:24.000Z</time>
      </trkpt>
      <trkpt lat="40.317" lon="20.32151">
        <ele>376.01000976562</ele>
        <time>2023-09-28T13:32:23.000Z</time>
      </trkpt>
      <trkpt lat="40.3171" lon="20.32155">
        <ele>376.01000976562</ele>
        <time>2023-09-28T13:32:22.000Z</time>
      </trkpt>
      <trkpt lat="40.31719" lon="20.32161">
        <ele>376.01000976562</ele>
        <time>2023-09-28T13:32:21.000Z</time>
      </trkpt>
      <trkpt lat="40.31727" lon="20.32169">
        <ele>376.48999023438</ele>
        <time>2023-09-28T13:32:20.000Z</time>
      </trkpt>
      <trkpt lat="40.3173" lon="20.32174">
        <ele>376.9700012207</ele>
        <time>2023-09-28T13:32:19.000Z</time>
      </trkpt>
      <trkpt lat="40.31738" lon="20.32188">
        <ele>376.9700012207</ele>
        <time>2023-09-28T13:32:18.000Z</time>
      </trkpt>
      <trkpt lat="40.31742" lon="20.32196">
        <ele>377.45001220703</ele>
        <time>2023-09-28T13:32:17.000Z</time>
      </trkpt>
      <trkpt lat="40.31752" lon="20.32215">
        <ele>377.45001220703</ele>
        <time>2023-09-28T13:32:16.000Z</time>
      </trkpt>
      <trkpt lat="40.31759" lon="20.32225">
        <ele>377.94000244141</ele>
        <time>2023-09-28T13:32:15.000Z</time>
      </trkpt>
      <trkpt lat="40.31766" lon="20.32233">
        <ele>377.94000244141</ele>
        <time>2023-09-28T13:32:14.000Z</time>
      </trkpt>
      <trkpt lat="40.31769" lon="20.32235">
        <ele>378.42001342773</ele>
        <time>2023-09-28T13:32:13.000Z</time>
      </trkpt>
      <trkpt lat="40.31783" lon="20.32246">
        <ele>378.89999389648</ele>
        <time>2023-09-28T13:32:12.000Z</time>
      </trkpt>
      <trkpt lat="40.31793" lon="20.32255">
        <ele>378.89999389648</ele>
        <time>2023-09-28T13:32:11.000Z</time>
      </trkpt>
      <trkpt lat="40.31798" lon="20.32261">
        <ele>379.38000488281</ele>
        <time>2023-09-28T13:32:10.000Z</time>
      </trkpt>
      <trkpt lat="40.31807" lon="20.32272">
        <ele>379.38000488281</ele>
        <time>2023-09-28T13:32:09.000Z</time>
      </trkpt>
      <trkpt lat="40.31808" lon="20.32275">
        <ele>379.38000488281</ele>
        <time>2023-09-28T13:32:08.000Z</time>
      </trkpt>
      <trkpt lat="40.31826" lon="20.32301">
        <ele>379.85998535156</ele>
        <time>2023-09-28T13:32:06.000Z</time>
      </trkpt>
      <trkpt lat="40.31859" lon="20.32342">
        <ele>380.82000732422</ele>
        <time>2023-09-28T13:32:02.000Z</time>
      </trkpt>
      <trkpt lat="40.31866" lon="20.32349">
        <ele>380.33999633789</ele>
        <time>2023-09-28T13:32:01.000Z</time>
      </trkpt>
      <trkpt lat="40.31871" lon="20.32353">
        <ele>380.33999633789</ele>
        <time>2023-09-28T13:32:00.000Z</time>
      </trkpt>
      <trkpt lat="40.31905" lon="20.32377">
        <ele>381.29998779297</ele>
        <time>2023-09-28T13:31:57.000Z</time>
      </trkpt>
      <trkpt lat="40.31915" lon="20.32383">
        <ele>381.29998779297</ele>
        <time>2023-09-28T13:31:56.000Z</time>
      </trkpt>
      <trkpt lat="40.31924" lon="20.32387">
        <ele>381.7799987793</ele>
        <time>2023-09-28T13:31:55.000Z</time>
      </trkpt>
      <trkpt lat="40.31929" lon="20.32388">
        <ele>381.7799987793</ele>
        <time>2023-09-28T13:31:54.000Z</time>
      </trkpt>
      <trkpt lat="40.31939" lon="20.32391">
        <ele>381.7799987793</ele>
        <time>2023-09-28T13:31:53.000Z</time>
      </trkpt>
      <trkpt lat="40.31945" lon="20.32394">
        <ele>382.26000976562</ele>
        <time>2023-09-28T13:31:52.000Z</time>
      </trkpt>
      <trkpt lat="40.3195" lon="20.324">
        <ele>382.26000976562</ele>
        <time>2023-09-28T13:31:51.000Z</time>
      </trkpt>
      <trkpt lat="40.31953" lon="20.32403">
        <ele>382.26000976562</ele>
        <time>2023-09-28T13:31:50.000Z</time>
      </trkpt>
      <trkpt lat="40.31966" lon="20.32423">
        <ele>382.73999023438</ele>
        <time>2023-09-28T13:31:48.000Z</time>
      </trkpt>
      <trkpt lat="40.31975" lon="20.32436">
        <ele>383.2200012207</ele>
        <time>2023-09-28T13:31:47.000Z</time>
      </trkpt>
      <trkpt lat="40.31982" lon="20.32446">
        <ele>384.17999267578</ele>
        <time>2023-09-28T13:31:46.000Z</time>
      </trkpt>
      <trkpt lat="40.31989" lon="20.32453">
        <ele>385.14999389648</ele>
        <time>2023-09-28T13:31:45.000Z</time>
      </trkpt>
      <trkpt lat="40.31997" lon="20.3246">
        <ele>385.63000488281</ele>
        <time>2023-09-28T13:31:44.000Z</time>
      </trkpt>
      <trkpt lat="40.32004" lon="20.32465">
        <ele>386.58999633789</ele>
        <time>2023-09-28T13:31:43.000Z</time>
      </trkpt>
      <trkpt lat="40.32018" lon="20.32472">
        <ele>387.54998779297</ele>
        <time>2023-09-28T13:31:41.000Z</time>
      </trkpt>
      <trkpt lat="40.32039" lon="20.32482">
        <ele>389.95001220703</ele>
        <time>2023-09-28T13:31:39.000Z</time>
      </trkpt>
      <trkpt lat="40.32049" lon="20.32487">
        <ele>391.39001464844</ele>
        <time>2023-09-28T13:31:38.000Z</time>
      </trkpt>
      <trkpt lat="40.32057" lon="20.32491">
        <ele>392.35998535156</ele>
        <time>2023-09-28T13:31:37.000Z</time>
      </trkpt>
      <trkpt lat="40.32058" lon="20.32492">
        <ele>392.35998535156</ele>
        <time>2023-09-28T13:31:36.000Z</time>
      </trkpt>
      <trkpt lat="40.32078" lon="20.325">
        <ele>394.2799987793</ele>
        <time>2023-09-28T13:31:34.000Z</time>
      </trkpt>
      <trkpt lat="40.32081" lon="20.32502">
        <ele>394.2799987793</ele>
        <time>2023-09-28T13:31:33.000Z</time>
      </trkpt>
      <trkpt lat="40.32088" lon="20.32506">
        <ele>394.76000976562</ele>
        <time>2023-09-28T13:31:32.000Z</time>
      </trkpt>
      <trkpt lat="40.32099" lon="20.32512">
        <ele>396.20001220703</ele>
        <time>2023-09-28T13:31:31.000Z</time>
      </trkpt>
      <trkpt lat="40.32106" lon="20.32518">
        <ele>396.67999267578</ele>
        <time>2023-09-28T13:31:30.000Z</time>
      </trkpt>
      <trkpt lat="40.32112" lon="20.32523">
        <ele>397.64001464844</ele>
        <time>2023-09-28T13:31:29.000Z</time>
      </trkpt>
      <trkpt lat="40.32119" lon="20.32531">
        <ele>398.60000610352</ele>
        <time>2023-09-28T13:31:28.000Z</time>
      </trkpt>
      <trkpt lat="40.32125" lon="20.32539">
        <ele>399.57000732422</ele>
        <time>2023-09-28T13:31:27.000Z</time>
      </trkpt>
      <trkpt lat="40.32128" lon="20.32546">
        <ele>401.01000976562</ele>
        <time>2023-09-28T13:31:26.000Z</time>
      </trkpt>
      <trkpt lat="40.32133" lon="20.32554">
        <ele>401.9700012207</ele>
        <time>2023-09-28T13:31:25.000Z</time>
      </trkpt>
      <trkpt lat="40.3214" lon="20.32568">
        <ele>403.41000366211</ele>
        <time>2023-09-28T13:31:24.000Z</time>
      </trkpt>
      <trkpt lat="40.32147" lon="20.32581">
        <ele>404.36999511719</ele>
        <time>2023-09-28T13:31:23.000Z</time>
      </trkpt>
      <trkpt lat="40.32151" lon="20.32589">
        <ele>404.85000610352</ele>
        <time>2023-09-28T13:31:22.000Z</time>
      </trkpt>
      <trkpt lat="40.3217" lon="20.32625">
        <ele>407.73999023438</ele>
        <time>2023-09-28T13:31:19.000Z</time>
      </trkpt>
      <trkpt lat="40.32176" lon="20.32633">
        <ele>408.2200012207</ele>
        <time>2023-09-28T13:31:18.000Z</time>
      </trkpt>
      <trkpt lat="40.32183" lon="20.32639">
        <ele>409.17999267578</ele>
        <time>2023-09-28T13:31:17.000Z</time>
      </trkpt>
      <trkpt lat="40.3219" lon="20.32644">
        <ele>409.66000366211</ele>
        <time>2023-09-28T13:31:16.000Z</time>
      </trkpt>
      <trkpt lat="40.32197" lon="20.32646">
        <ele>410.14001464844</ele>
        <time>2023-09-28T13:31:15.000Z</time>
      </trkpt>
      <trkpt lat="40.32202" lon="20.32647">
        <ele>410.61999511719</ele>
        <time>2023-09-28T13:31:14.000Z</time>
      </trkpt>
      <trkpt lat="40.32219" lon="20.32648">
        <ele>410.14001464844</ele>
        <time>2023-09-28T13:31:13.000Z</time>
      </trkpt>
      <trkpt lat="40.32229" lon="20.32649">
        <ele>410.14001464844</ele>
        <time>2023-09-28T13:31:12.000Z</time>
      </trkpt>
      <trkpt lat="40.32244" lon="20.32653">
        <ele>410.14001464844</ele>
        <time>2023-09-28T13:31:11.000Z</time>
      </trkpt>
      <trkpt lat="40.32258" lon="20.32659">
        <ele>410.61999511719</ele>
        <time>2023-09-28T13:31:10.000Z</time>
      </trkpt>
      <trkpt lat="40.32262" lon="20.32662">
        <ele>410.61999511719</ele>
        <time>2023-09-28T13:31:09.000Z</time>
      </trkpt>
      <trkpt lat="40.32279" lon="20.32674">
        <ele>412.05999755859</ele>
        <time>2023-09-28T13:31:08.000Z</time>
      </trkpt>
      <trkpt lat="40.32291" lon="20.3268">
        <ele>413.01998901367</ele>
        <time>2023-09-28T13:31:07.000Z</time>
      </trkpt>
      <trkpt lat="40.32298" lon="20.32682">
        <ele>413.5</ele>
        <time>2023-09-28T13:31:06.000Z</time>
      </trkpt>
      <trkpt lat="40.32338" lon="20.32694">
        <ele>416.39001464844</ele>
        <time>2023-09-28T13:31:03.000Z</time>
      </trkpt>
      <trkpt lat="40.32374" lon="20.32702">
        <ele>416.86999511719</ele>
        <time>2023-09-28T13:31:00.000Z</time>
      </trkpt>
      <trkpt lat="40.32391" lon="20.32707">
        <ele>417.35000610352</ele>
        <time>2023-09-28T13:30:58.000Z</time>
      </trkpt>
      <trkpt lat="40.32399" lon="20.32708">
        <ele>417.35000610352</ele>
        <time>2023-09-28T13:30:57.000Z</time>
      </trkpt>
      <trkpt lat="40.32406" lon="20.32706">
        <ele>417.82998657227</ele>
        <time>2023-09-28T13:30:56.000Z</time>
      </trkpt>
      <trkpt lat="40.32414" lon="20.32701">
        <ele>417.82998657227</ele>
        <time>2023-09-28T13:30:55.000Z</time>
      </trkpt>
      <trkpt lat="40.32419" lon="20.32695">
        <ele>417.82998657227</ele>
        <time>2023-09-28T13:30:54.000Z</time>
      </trkpt>
      <trkpt lat="40.32426" lon="20.3269">
        <ele>418.30999755859</ele>
        <time>2023-09-28T13:30:53.000Z</time>
      </trkpt>
      <trkpt lat="40.32433" lon="20.32688">
        <ele>418.79000854492</ele>
        <time>2023-09-28T13:30:52.000Z</time>
      </trkpt>
      <trkpt lat="40.32441" lon="20.3269">
        <ele>419.26998901367</ele>
        <time>2023-09-28T13:30:51.000Z</time>
      </trkpt>
      <trkpt lat="40.32444" lon="20.32691">
        <ele>419.26998901367</ele>
        <time>2023-09-28T13:30:50.000Z</time>
      </trkpt>
      <trkpt lat="40.32455" lon="20.32698">
        <ele>419.75</ele>
        <time>2023-09-28T13:30:49.000Z</time>
      </trkpt>
      <trkpt lat="40.32465" lon="20.32704">
        <ele>419.75</ele>
        <time>2023-09-28T13:30:48.000Z</time>
      </trkpt>
      <trkpt lat="40.32471" lon="20.32708">
        <ele>419.75</ele>
        <time>2023-09-28T13:30:47.000Z</time>
      </trkpt>
      <trkpt lat="40.32475" lon="20.32711">
        <ele>419.75</ele>
        <time>2023-09-28T13:30:46.000Z</time>
      </trkpt>
      <trkpt lat="40.32492" lon="20.32725">
        <ele>420.23001098633</ele>
        <time>2023-09-28T13:30:44.000Z</time>
      </trkpt>
      <trkpt lat="40.32499" lon="20.32729">
        <ele>420.23001098633</ele>
        <time>2023-09-28T13:30:43.000Z</time>
      </trkpt>
      <trkpt lat="40.32506" lon="20.32732">
        <ele>420.23001098633</ele>
        <time>2023-09-28T13:30:42.000Z</time>
      </trkpt>
      <trkpt lat="40.32518" lon="20.32738">
        <ele>420.70999145508</ele>
        <time>2023-09-28T13:30:41.000Z</time>
      </trkpt>
      <trkpt lat="40.3252" lon="20.32739">
        <ele>420.70999145508</ele>
        <time>2023-09-28T13:30:40.000Z</time>
      </trkpt>
      <trkpt lat="40.32538" lon="20.32743">
        <ele>421.19000244141</ele>
        <time>2023-09-28T13:30:39.000Z</time>
      </trkpt>
      <trkpt lat="40.32546" lon="20.32746">
        <ele>421.67999267578</ele>
        <time>2023-09-28T13:30:38.000Z</time>
      </trkpt>
      <trkpt lat="40.32559" lon="20.32751">
        <ele>421.67999267578</ele>
        <time>2023-09-28T13:30:37.000Z</time>
      </trkpt>
      <trkpt lat="40.32562" lon="20.32752">
        <ele>422.16000366211</ele>
        <time>2023-09-28T13:30:36.000Z</time>
      </trkpt>
      <trkpt lat="40.3257" lon="20.32756">
        <ele>422.16000366211</ele>
        <time>2023-09-28T13:30:35.000Z</time>
      </trkpt>
      <trkpt lat="40.32578" lon="20.32761">
        <ele>422.16000366211</ele>
        <time>2023-09-28T13:30:34.000Z</time>
      </trkpt>
      <trkpt lat="40.32593" lon="20.32771">
        <ele>422.16000366211</ele>
        <time>2023-09-28T13:30:33.000Z</time>
      </trkpt>
      <trkpt lat="40.32595" lon="20.32772">
        <ele>422.16000366211</ele>
        <time>2023-09-28T13:30:32.000Z</time>
      </trkpt>
      <trkpt lat="40.32666" lon="20.32828">
        <ele>423.11999511719</ele>
        <time>2023-09-28T13:30:25.000Z</time>
      </trkpt>
      <trkpt lat="40.32754" lon="20.32911">
        <ele>425.51998901367</ele>
        <time>2023-09-28T13:30:18.000Z</time>
      </trkpt>
      <trkpt lat="40.32768" lon="20.32925">
        <ele>426</ele>
        <time>2023-09-28T13:30:17.000Z</time>
      </trkpt>
      <trkpt lat="40.32782" lon="20.32939">
        <ele>426.48001098633</ele>
        <time>2023-09-28T13:30:16.000Z</time>
      </trkpt>
      <trkpt lat="40.32792" lon="20.32947">
        <ele>426.95999145508</ele>
        <time>2023-09-28T13:30:15.000Z</time>
      </trkpt>
      <trkpt lat="40.32807" lon="20.32957">
        <ele>428.89001464844</ele>
        <time>2023-09-28T13:30:13.000Z</time>
      </trkpt>
      <trkpt lat="40.32815" lon="20.32964">
        <ele>429.85000610352</ele>
        <time>2023-09-28T13:30:12.000Z</time>
      </trkpt>
      <trkpt lat="40.32821" lon="20.32972">
        <ele>430.32998657227</ele>
        <time>2023-09-28T13:30:11.000Z</time>
      </trkpt>
      <trkpt lat="40.32826" lon="20.32982">
        <ele>430.80999755859</ele>
        <time>2023-09-28T13:30:10.000Z</time>
      </trkpt>
      <trkpt lat="40.3283" lon="20.32993">
        <ele>431.76998901367</ele>
        <time>2023-09-28T13:30:09.000Z</time>
      </trkpt>
      <trkpt lat="40.32831" lon="20.32995">
        <ele>431.76998901367</ele>
        <time>2023-09-28T13:30:08.000Z</time>
      </trkpt>
      <trkpt lat="40.32836" lon="20.33015">
        <ele>433.20999145508</ele>
        <time>2023-09-28T13:30:07.000Z</time>
      </trkpt>
      <trkpt lat="40.3284" lon="20.33024">
        <ele>434.17001342773</ele>
        <time>2023-09-28T13:30:06.000Z</time>
      </trkpt>
      <trkpt lat="40.32845" lon="20.3303">
        <ele>434.64999389648</ele>
        <time>2023-09-28T13:30:05.000Z</time>
      </trkpt>
      <trkpt lat="40.32851" lon="20.33035">
        <ele>435.13000488281</ele>
        <time>2023-09-28T13:30:04.000Z</time>
      </trkpt>
      <trkpt lat="40.32859" lon="20.33041">
        <ele>435.60998535156</ele>
        <time>2023-09-28T13:30:03.000Z</time>
      </trkpt>
      <trkpt lat="40.32867" lon="20.33048">
        <ele>436.10000610352</ele>
        <time>2023-09-28T13:30:02.000Z</time>
      </trkpt>
      <trkpt lat="40.32874" lon="20.33056">
        <ele>436.57998657227</ele>
        <time>2023-09-28T13:30:01.000Z</time>
      </trkpt>
      <trkpt lat="40.3288" lon="20.33065">
        <ele>437.54000854492</ele>
        <time>2023-09-28T13:30:00.000Z</time>
      </trkpt>
      <trkpt lat="40.32883" lon="20.3307">
        <ele>437.54000854492</ele>
        <time>2023-09-28T13:29:59.000Z</time>
      </trkpt>
      <trkpt lat="40.32896" lon="20.33085">
        <ele>438.98001098633</ele>
        <time>2023-09-28T13:29:58.000Z</time>
      </trkpt>
      <trkpt lat="40.32899" lon="20.33089">
        <ele>438.98001098633</ele>
        <time>2023-09-28T13:29:57.000Z</time>
      </trkpt>
      <trkpt lat="40.32908" lon="20.33104">
        <ele>439.94000244141</ele>
        <time>2023-09-28T13:29:56.000Z</time>
      </trkpt>
      <trkpt lat="40.32915" lon="20.33111">
        <ele>440.89999389648</ele>
        <time>2023-09-28T13:29:55.000Z</time>
      </trkpt>
      <trkpt lat="40.32923" lon="20.33117">
        <ele>441.38000488281</ele>
        <time>2023-09-28T13:29:54.000Z</time>
      </trkpt>
      <trkpt lat="40.32933" lon="20.33122">
        <ele>441.85998535156</ele>
        <time>2023-09-28T13:29:53.000Z</time>
      </trkpt>
      <trkpt lat="40.3294" lon="20.33127">
        <ele>441.85998535156</ele>
        <time>2023-09-28T13:29:52.000Z</time>
      </trkpt>
      <trkpt lat="40.32951" lon="20.33135">
        <ele>442.33999633789</ele>
        <time>2023-09-28T13:29:51.000Z</time>
      </trkpt>
      <trkpt lat="40.32959" lon="20.3314">
        <ele>442.82000732422</ele>
        <time>2023-09-28T13:29:50.000Z</time>
      </trkpt>
      <trkpt lat="40.32968" lon="20.33142">
        <ele>443.30999755859</ele>
        <time>2023-09-28T13:29:49.000Z</time>
      </trkpt>
      <trkpt lat="40.32975" lon="20.33143">
        <ele>443.30999755859</ele>
        <time>2023-09-28T13:29:48.000Z</time>
      </trkpt>
      <trkpt lat="40.32981" lon="20.33143">
        <ele>443.30999755859</ele>
        <time>2023-09-28T13:29:47.000Z</time>
      </trkpt>
      <trkpt lat="40.32992" lon="20.33142">
        <ele>443.30999755859</ele>
        <time>2023-09-28T13:29:46.000Z</time>
      </trkpt>
      <trkpt lat="40.32997" lon="20.33143">
        <ele>443.79000854492</ele>
        <time>2023-09-28T13:29:45.000Z</time>
      </trkpt>
      <trkpt lat="40.33002" lon="20.33147">
        <ele>443.79000854492</ele>
        <time>2023-09-28T13:29:44.000Z</time>
      </trkpt>
      <trkpt lat="40.33003" lon="20.33152">
        <ele>444.26998901367</ele>
        <time>2023-09-28T13:29:43.000Z</time>
      </trkpt>
      <trkpt lat="40.33003" lon="20.33158">
        <ele>443.79000854492</ele>
        <time>2023-09-28T13:29:42.000Z</time>
      </trkpt>
      <trkpt lat="40.32999" lon="20.33162">
        <ele>444.26998901367</ele>
        <time>2023-09-28T13:29:41.000Z</time>
      </trkpt>
      <trkpt lat="40.32994" lon="20.33164">
        <ele>445.23001098633</ele>
        <time>2023-09-28T13:29:40.000Z</time>
      </trkpt>
      <trkpt lat="40.32987" lon="20.33165">
        <ele>445.23001098633</ele>
        <time>2023-09-28T13:29:39.000Z</time>
      </trkpt>
      <trkpt lat="40.3298" lon="20.33164">
        <ele>445.70999145508</ele>
        <time>2023-09-28T13:29:38.000Z</time>
      </trkpt>
      <trkpt lat="40.32975" lon="20.33162">
        <ele>445.70999145508</ele>
        <time>2023-09-28T13:29:37.000Z</time>
      </trkpt>
      <trkpt lat="40.32964" lon="20.33158">
        <ele>446.67001342773</ele>
        <time>2023-09-28T13:29:36.000Z</time>
      </trkpt>
      <trkpt lat="40.32955" lon="20.33156">
        <ele>447.63000488281</ele>
        <time>2023-09-28T13:29:35.000Z</time>
      </trkpt>
      <trkpt lat="40.32948" lon="20.33156">
        <ele>448.10998535156</ele>
        <time>2023-09-28T13:29:34.000Z</time>
      </trkpt>
      <trkpt lat="40.32942" lon="20.33158">
        <ele>449.07000732422</ele>
        <time>2023-09-28T13:29:33.000Z</time>
      </trkpt>
      <trkpt lat="40.32936" lon="20.33162">
        <ele>449.54998779297</ele>
        <time>2023-09-28T13:29:32.000Z</time>
      </trkpt>
      <trkpt lat="40.32931" lon="20.33167">
        <ele>450.0299987793</ele>
        <time>2023-09-28T13:29:31.000Z</time>
      </trkpt>
      <trkpt lat="40.32929" lon="20.33173">
        <ele>450.51998901367</ele>
        <time>2023-09-28T13:29:30.000Z</time>
      </trkpt>
      <trkpt lat="40.3293" lon="20.33181">
        <ele>451.48001098633</ele>
        <time>2023-09-28T13:29:29.000Z</time>
      </trkpt>
      <trkpt lat="40.32931" lon="20.3319">
        <ele>451.95999145508</ele>
        <time>2023-09-28T13:29:28.000Z</time>
      </trkpt>
      <trkpt lat="40.32932" lon="20.332">
        <ele>452.92001342773</ele>
        <time>2023-09-28T13:29:27.000Z</time>
      </trkpt>
      <trkpt lat="40.32934" lon="20.33209">
        <ele>453.88000488281</ele>
        <time>2023-09-28T13:29:26.000Z</time>
      </trkpt>
      <trkpt lat="40.32938" lon="20.33221">
        <ele>454.83999633789</ele>
        <time>2023-09-28T13:29:25.000Z</time>
      </trkpt>
      <trkpt lat="40.32941" lon="20.33229">
        <ele>455.32000732422</ele>
        <time>2023-09-28T13:29:24.000Z</time>
      </trkpt>
      <trkpt lat="40.32945" lon="20.33237">
        <ele>456.2799987793</ele>
        <time>2023-09-28T13:29:23.000Z</time>
      </trkpt>
      <trkpt lat="40.32949" lon="20.33243">
        <ele>456.76000976562</ele>
        <time>2023-09-28T13:29:22.000Z</time>
      </trkpt>
      <trkpt lat="40.32957" lon="20.33254">
        <ele>458.20999145508</ele>
        <time>2023-09-28T13:29:21.000Z</time>
      </trkpt>
      <trkpt lat="40.32964" lon="20.33261">
        <ele>459.17001342773</ele>
        <time>2023-09-28T13:29:20.000Z</time>
      </trkpt>
      <trkpt lat="40.32971" lon="20.33266">
        <ele>459.64999389648</ele>
        <time>2023-09-28T13:29:19.000Z</time>
      </trkpt>
      <trkpt lat="40.32982" lon="20.33272">
        <ele>461.57000732422</ele>
        <time>2023-09-28T13:29:18.000Z</time>
      </trkpt>
      <trkpt lat="40.32993" lon="20.33279">
        <ele>462.5299987793</ele>
        <time>2023-09-28T13:29:17.000Z</time>
      </trkpt>
      <trkpt lat="40.32998" lon="20.33284">
        <ele>463.48999023438</ele>
        <time>2023-09-28T13:29:16.000Z</time>
      </trkpt>
      <trkpt lat="40.33009" lon="20.33294">
        <ele>464.92999267578</ele>
        <time>2023-09-28T13:29:15.000Z</time>
      </trkpt>
      <trkpt lat="40.3302" lon="20.33302">
        <ele>465.42001342773</ele>
        <time>2023-09-28T13:29:14.000Z</time>
      </trkpt>
      <trkpt lat="40.33029" lon="20.33307">
        <ele>466.38000488281</ele>
        <time>2023-09-28T13:29:13.000Z</time>
      </trkpt>
      <trkpt lat="40.3304" lon="20.33315">
        <ele>467.82000732422</ele>
        <time>2023-09-28T13:29:12.000Z</time>
      </trkpt>
      <trkpt lat="40.33077" lon="20.3335">
        <ele>471.17999267578</ele>
        <time>2023-09-28T13:29:08.000Z</time>
      </trkpt>
      <trkpt lat="40.33086" lon="20.33359">
        <ele>472.14001464844</ele>
        <time>2023-09-28T13:29:07.000Z</time>
      </trkpt>
      <trkpt lat="40.33092" lon="20.33369">
        <ele>473.10998535156</ele>
        <time>2023-09-28T13:29:06.000Z</time>
      </trkpt>
      <trkpt lat="40.33097" lon="20.3338">
        <ele>473.58999633789</ele>
        <time>2023-09-28T13:29:05.000Z</time>
      </trkpt>
      <trkpt lat="40.33105" lon="20.33403">
        <ele>475.0299987793</ele>
        <time>2023-09-28T13:29:03.000Z</time>
      </trkpt>
      <trkpt lat="40.3311" lon="20.33412">
        <ele>475.51000976562</ele>
        <time>2023-09-28T13:29:02.000Z</time>
      </trkpt>
      <trkpt lat="40.33122" lon="20.33432">
        <ele>477.42999267578</ele>
        <time>2023-09-28T13:29:00.000Z</time>
      </trkpt>
      <trkpt lat="40.33127" lon="20.33441">
        <ele>478.39001464844</ele>
        <time>2023-09-28T13:28:59.000Z</time>
      </trkpt>
      <trkpt lat="40.33137" lon="20.33454">
        <ele>478.86999511719</ele>
        <time>2023-09-28T13:28:58.000Z</time>
      </trkpt>
      <trkpt lat="40.33146" lon="20.33467">
        <ele>478.86999511719</ele>
        <time>2023-09-28T13:28:57.000Z</time>
      </trkpt>
      <trkpt lat="40.33156" lon="20.33483">
        <ele>478.86999511719</ele>
        <time>2023-09-28T13:28:56.000Z</time>
      </trkpt>
      <trkpt lat="40.33165" lon="20.33494">
        <ele>478.39001464844</ele>
        <time>2023-09-28T13:28:55.000Z</time>
      </trkpt>
      <trkpt lat="40.33172" lon="20.33502">
        <ele>477.91000366211</ele>
        <time>2023-09-28T13:28:54.000Z</time>
      </trkpt>
      <trkpt lat="40.33178" lon="20.33513">
        <ele>478.39001464844</ele>
        <time>2023-09-28T13:28:53.000Z</time>
      </trkpt>
      <trkpt lat="40.33183" lon="20.33524">
        <ele>478.39001464844</ele>
        <time>2023-09-28T13:28:52.000Z</time>
      </trkpt>
      <trkpt lat="40.33188" lon="20.33539">
        <ele>478.86999511719</ele>
        <time>2023-09-28T13:28:51.000Z</time>
      </trkpt>
      <trkpt lat="40.33194" lon="20.33553">
        <ele>478.86999511719</ele>
        <time>2023-09-28T13:28:50.000Z</time>
      </trkpt>
      <trkpt lat="40.33195" lon="20.33556">
        <ele>479.35000610352</ele>
        <time>2023-09-28T13:28:49.000Z</time>
      </trkpt>
      <trkpt lat="40.33201" lon="20.33572">
        <ele>479.83999633789</ele>
        <time>2023-09-28T13:28:48.000Z</time>
      </trkpt>
      <trkpt lat="40.3321" lon="20.33593">
        <ele>481.2799987793</ele>
        <time>2023-09-28T13:28:47.000Z</time>
      </trkpt>
      <trkpt lat="40.33212" lon="20.33598">
        <ele>481.2799987793</ele>
        <time>2023-09-28T13:28:46.000Z</time>
      </trkpt>
      <trkpt lat="40.33216" lon="20.33608">
        <ele>481.2799987793</ele>
        <time>2023-09-28T13:28:45.000Z</time>
      </trkpt>
      <trkpt lat="40.33223" lon="20.33631">
        <ele>481.2799987793</ele>
        <time>2023-09-28T13:28:44.000Z</time>
      </trkpt>
      <trkpt lat="40.33227" lon="20.33643">
        <ele>481.2799987793</ele>
        <time>2023-09-28T13:28:43.000Z</time>
      </trkpt>
      <trkpt lat="40.33232" lon="20.33655">
        <ele>481.2799987793</ele>
        <time>2023-09-28T13:28:42.000Z</time>
      </trkpt>
      <trkpt lat="40.33236" lon="20.33665">
        <ele>481.2799987793</ele>
        <time>2023-09-28T13:28:41.000Z</time>
      </trkpt>
      <trkpt lat="40.33237" lon="20.33671">
        <ele>481.76000976562</ele>
        <time>2023-09-28T13:28:40.000Z</time>
      </trkpt>
      <trkpt lat="40.33243" lon="20.33698">
        <ele>481.76000976562</ele>
        <time>2023-09-28T13:28:38.000Z</time>
      </trkpt>
      <trkpt lat="40.33249" lon="20.33721">
        <ele>482.23999023438</ele>
        <time>2023-09-28T13:28:36.000Z</time>
      </trkpt>
      <trkpt lat="40.33251" lon="20.3373">
        <ele>482.23999023438</ele>
        <time>2023-09-28T13:28:35.000Z</time>
      </trkpt>
      <trkpt lat="40.3326" lon="20.33766">
        <ele>481.76000976562</ele>
        <time>2023-09-28T13:28:31.000Z</time>
      </trkpt>
      <trkpt lat="40.33263" lon="20.33774">
        <ele>481.76000976562</ele>
        <time>2023-09-28T13:28:30.000Z</time>
      </trkpt>
      <trkpt lat="40.33267" lon="20.33783">
        <ele>482.23999023438</ele>
        <time>2023-09-28T13:28:29.000Z</time>
      </trkpt>
      <trkpt lat="40.33269" lon="20.33787">
        <ele>482.23999023438</ele>
        <time>2023-09-28T13:28:28.000Z</time>
      </trkpt>
      <trkpt lat="40.33272" lon="20.33794">
        <ele>482.23999023438</ele>
        <time>2023-09-28T13:28:27.000Z</time>
      </trkpt>
      <trkpt lat="40.33278" lon="20.33811">
        <ele>482.23999023438</ele>
        <time>2023-09-28T13:28:26.000Z</time>
      </trkpt>
      <trkpt lat="40.3328" lon="20.33817">
        <ele>481.76000976562</ele>
        <time>2023-09-28T13:28:25.000Z</time>
      </trkpt>
      <trkpt lat="40.33284" lon="20.33826">
        <ele>481.76000976562</ele>
        <time>2023-09-28T13:28:24.000Z</time>
      </trkpt>
      <trkpt lat="40.33287" lon="20.33835">
        <ele>481.76000976562</ele>
        <time>2023-09-28T13:28:23.000Z</time>
      </trkpt>
      <trkpt lat="40.33287" lon="20.33837">
        <ele>481.76000976562</ele>
        <time>2023-09-28T13:28:22.000Z</time>
      </trkpt>
      <trkpt lat="40.33288" lon="20.33844">
        <ele>481.2799987793</ele>
        <time>2023-09-28T13:28:21.000Z</time>
      </trkpt>
      <trkpt lat="40.3329" lon="20.33852">
        <ele>481.2799987793</ele>
        <time>2023-09-28T13:28:20.000Z</time>
      </trkpt>
      <trkpt lat="40.33292" lon="20.33865">
        <ele>481.2799987793</ele>
        <time>2023-09-28T13:28:19.000Z</time>
      </trkpt>
      <trkpt lat="40.33293" lon="20.33871">
        <ele>481.2799987793</ele>
        <time>2023-09-28T13:28:18.000Z</time>
      </trkpt>
      <trkpt lat="40.33298" lon="20.33883">
        <ele>480.79998779297</ele>
        <time>2023-09-28T13:28:16.000Z</time>
      </trkpt>
      <trkpt lat="40.33302" lon="20.3389">
        <ele>480.79998779297</ele>
        <time>2023-09-28T13:28:15.000Z</time>
      </trkpt>
      <trkpt lat="40.33308" lon="20.33897">
        <ele>481.2799987793</ele>
        <time>2023-09-28T13:28:14.000Z</time>
      </trkpt>
      <trkpt lat="40.33309" lon="20.33899">
        <ele>481.2799987793</ele>
        <time>2023-09-28T13:28:13.000Z</time>
      </trkpt>
      <trkpt lat="40.33353" lon="20.33933">
        <ele>482.23999023438</ele>
        <time>2023-09-28T13:28:08.000Z</time>
      </trkpt>
      <trkpt lat="40.33359" lon="20.33938">
        <ele>482.7200012207</ele>
        <time>2023-09-28T13:28:07.000Z</time>
      </trkpt>
      <trkpt lat="40.33363" lon="20.33945">
        <ele>483.20001220703</ele>
        <time>2023-09-28T13:28:06.000Z</time>
      </trkpt>
      <trkpt lat="40.33367" lon="20.33952">
        <ele>483.67999267578</ele>
        <time>2023-09-28T13:28:05.000Z</time>
      </trkpt>
      <trkpt lat="40.33368" lon="20.33959">
        <ele>484.64001464844</ele>
        <time>2023-09-28T13:28:04.000Z</time>
      </trkpt>
      <trkpt lat="40.33366" lon="20.33968">
        <ele>485.11999511719</ele>
        <time>2023-09-28T13:28:03.000Z</time>
      </trkpt>
      <trkpt lat="40.33362" lon="20.33975">
        <ele>486.07998657227</ele>
        <time>2023-09-28T13:28:02.000Z</time>
      </trkpt>
      <trkpt lat="40.33356" lon="20.3398">
        <ele>486.55999755859</ele>
        <time>2023-09-28T13:28:01.000Z</time>
      </trkpt>
      <trkpt lat="40.33349" lon="20.33983">
        <ele>487.5299987793</ele>
        <time>2023-09-28T13:28:00.000Z</time>
      </trkpt>
      <trkpt lat="40.3334" lon="20.33985">
        <ele>488.48999023438</ele>
        <time>2023-09-28T13:27:59.000Z</time>
      </trkpt>
      <trkpt lat="40.33338" lon="20.33985">
        <ele>488.48999023438</ele>
        <time>2023-09-28T13:27:58.000Z</time>
      </trkpt>
      <trkpt lat="40.33325" lon="20.33986">
        <ele>489.92999267578</ele>
        <time>2023-09-28T13:27:57.000Z</time>
      </trkpt>
      <trkpt lat="40.33316" lon="20.33988">
        <ele>491.36999511719</ele>
        <time>2023-09-28T13:27:56.000Z</time>
      </trkpt>
      <trkpt lat="40.3331" lon="20.33989">
        <ele>491.85000610352</ele>
        <time>2023-09-28T13:27:55.000Z</time>
      </trkpt>
      <trkpt lat="40.33306" lon="20.33993">
        <ele>492.80999755859</ele>
        <time>2023-09-28T13:27:54.000Z</time>
      </trkpt>
      <trkpt lat="40.33303" lon="20.33997">
        <ele>493.29000854492</ele>
        <time>2023-09-28T13:27:53.000Z</time>
      </trkpt>
      <trkpt lat="40.33302" lon="20.34003">
        <ele>494.26000976562</ele>
        <time>2023-09-28T13:27:52.000Z</time>
      </trkpt>
      <trkpt lat="40.33304" lon="20.34007">
        <ele>495.70001220703</ele>
        <time>2023-09-28T13:27:51.000Z</time>
      </trkpt>
      <trkpt lat="40.33308" lon="20.34012">
        <ele>496.66000366211</ele>
        <time>2023-09-28T13:27:50.000Z</time>
      </trkpt>
      <trkpt lat="40.33312" lon="20.34014">
        <ele>497.14001464844</ele>
        <time>2023-09-28T13:27:49.000Z</time>
      </trkpt>
      <trkpt lat="40.33332" lon="20.34023">
        <ele>499.05999755859</ele>
        <time>2023-09-28T13:27:47.000Z</time>
      </trkpt>
      <trkpt lat="40.33343" lon="20.34029">
        <ele>500.01998901367</ele>
        <time>2023-09-28T13:27:46.000Z</time>
      </trkpt>
      <trkpt lat="40.33352" lon="20.34037">
        <ele>501.95001220703</ele>
        <time>2023-09-28T13:27:45.000Z</time>
      </trkpt>
      <trkpt lat="40.33357" lon="20.34042">
        <ele>502.91000366211</ele>
        <time>2023-09-28T13:27:44.000Z</time>
      </trkpt>
      <trkpt lat="40.3337" lon="20.34056">
        <ele>505.30999755859</ele>
        <time>2023-09-28T13:27:43.000Z</time>
      </trkpt>
      <trkpt lat="40.33379" lon="20.34065">
        <ele>506.75</ele>
        <time>2023-09-28T13:27:42.000Z</time>
      </trkpt>
      <trkpt lat="40.33387" lon="20.34073">
        <ele>508.67001342773</ele>
        <time>2023-09-28T13:27:41.000Z</time>
      </trkpt>
      <trkpt lat="40.33401" lon="20.34085">
        <ele>510.60000610352</ele>
        <time>2023-09-28T13:27:39.000Z</time>
      </trkpt>
      <trkpt lat="40.33407" lon="20.34091">
        <ele>511.55999755859</ele>
        <time>2023-09-28T13:27:38.000Z</time>
      </trkpt>
      <trkpt lat="40.33418" lon="20.341">
        <ele>513</ele>
        <time>2023-09-28T13:27:37.000Z</time>
      </trkpt>
      <trkpt lat="40.33427" lon="20.34105">
        <ele>514.44000244141</ele>
        <time>2023-09-28T13:27:36.000Z</time>
      </trkpt>
      <trkpt lat="40.33436" lon="20.34109">
        <ele>515.40002441406</ele>
        <time>2023-09-28T13:27:35.000Z</time>
      </trkpt>
      <trkpt lat="40.33445" lon="20.34112">
        <ele>516.36999511719</ele>
        <time>2023-09-28T13:27:34.000Z</time>
      </trkpt>
      <trkpt lat="40.33451" lon="20.34114">
        <ele>516.84997558594</ele>
        <time>2023-09-28T13:27:33.000Z</time>
      </trkpt>
      <trkpt lat="40.33457" lon="20.34118">
        <ele>517.33001708984</ele>
        <time>2023-09-28T13:27:32.000Z</time>
      </trkpt>
      <trkpt lat="40.33471" lon="20.34126">
        <ele>518.77001953125</ele>
        <time>2023-09-28T13:27:31.000Z</time>
      </trkpt>
      <trkpt lat="40.33478" lon="20.3413">
        <ele>519.72998046875</ele>
        <time>2023-09-28T13:27:30.000Z</time>
      </trkpt>
      <trkpt lat="40.33492" lon="20.34138">
        <ele>521.16998291016</ele>
        <time>2023-09-28T13:27:29.000Z</time>
      </trkpt>
      <trkpt lat="40.33507" lon="20.34146">
        <ele>522.13000488281</ele>
        <time>2023-09-28T13:27:27.000Z</time>
      </trkpt>
      <trkpt lat="40.33514" lon="20.34147">
        <ele>522.13000488281</ele>
        <time>2023-09-28T13:27:26.000Z</time>
      </trkpt>
      <trkpt lat="40.33518" lon="20.34147">
        <ele>522.13000488281</ele>
        <time>2023-09-28T13:27:25.000Z</time>
      </trkpt>
      <trkpt lat="40.3353" lon="20.34145">
        <ele>522.60998535156</ele>
        <time>2023-09-28T13:27:24.000Z</time>
      </trkpt>
      <trkpt lat="40.33536" lon="20.34145">
        <ele>522.60998535156</ele>
        <time>2023-09-28T13:27:23.000Z</time>
      </trkpt>
      <trkpt lat="40.33549" lon="20.34147">
        <ele>522.13000488281</ele>
        <time>2023-09-28T13:27:22.000Z</time>
      </trkpt>
      <trkpt lat="40.33559" lon="20.34149">
        <ele>522.13000488281</ele>
        <time>2023-09-28T13:27:21.000Z</time>
      </trkpt>
      <trkpt lat="40.33563" lon="20.3415">
        <ele>522.13000488281</ele>
        <time>2023-09-28T13:27:20.000Z</time>
      </trkpt>
      <trkpt lat="40.3358" lon="20.34154">
        <ele>523.09002685547</ele>
        <time>2023-09-28T13:27:19.000Z</time>
      </trkpt>
      <trkpt lat="40.33592" lon="20.34157">
        <ele>523.58001708984</ele>
        <time>2023-09-28T13:27:18.000Z</time>
      </trkpt>
      <trkpt lat="40.33601" lon="20.34161">
        <ele>524.05999755859</ele>
        <time>2023-09-28T13:27:17.000Z</time>
      </trkpt>
      <trkpt lat="40.33609" lon="20.34165">
        <ele>524.53997802734</ele>
        <time>2023-09-28T13:27:16.000Z</time>
      </trkpt>
      <trkpt lat="40.33619" lon="20.34173">
        <ele>525.02001953125</ele>
        <time>2023-09-28T13:27:15.000Z</time>
      </trkpt>
      <trkpt lat="40.33639" lon="20.34188">
        <ele>525.5</ele>
        <time>2023-09-28T13:27:13.000Z</time>
      </trkpt>
      <trkpt lat="40.33651" lon="20.34195">
        <ele>526.46002197266</ele>
        <time>2023-09-28T13:27:11.000Z</time>
      </trkpt>
      <trkpt lat="40.33684" lon="20.3421">
        <ele>529.82000732422</ele>
        <time>2023-09-28T13:27:08.000Z</time>
      </trkpt>
      <trkpt lat="40.33689" lon="20.34214">
        <ele>531.27001953125</ele>
        <time>2023-09-28T13:27:07.000Z</time>
      </trkpt>
      <trkpt lat="40.33692" lon="20.34221">
        <ele>532.22998046875</ele>
        <time>2023-09-28T13:27:06.000Z</time>
      </trkpt>
      <trkpt lat="40.33693" lon="20.34226">
        <ele>533.19000244141</ele>
        <time>2023-09-28T13:27:05.000Z</time>
      </trkpt>
      <trkpt lat="40.33696" lon="20.34238">
        <ele>533.66998291016</ele>
        <time>2023-09-28T13:27:04.000Z</time>
      </trkpt>
      <trkpt lat="40.33698" lon="20.34248">
        <ele>534.63000488281</ele>
        <time>2023-09-28T13:27:03.000Z</time>
      </trkpt>
      <trkpt lat="40.33702" lon="20.34255">
        <ele>535.10998535156</ele>
        <time>2023-09-28T13:27:02.000Z</time>
      </trkpt>
      <trkpt lat="40.33708" lon="20.3426">
        <ele>536.07000732422</ele>
        <time>2023-09-28T13:27:01.000Z</time>
      </trkpt>
      <trkpt lat="40.33714" lon="20.34263">
        <ele>537.03002929688</ele>
        <time>2023-09-28T13:27:00.000Z</time>
      </trkpt>
      <trkpt lat="40.33723" lon="20.34264">
        <ele>537.98999023438</ele>
        <time>2023-09-28T13:26:59.000Z</time>
      </trkpt>
      <trkpt lat="40.33731" lon="20.34264">
        <ele>538.96002197266</ele>
        <time>2023-09-28T13:26:58.000Z</time>
      </trkpt>
      <trkpt lat="40.3374" lon="20.34262">
        <ele>539.44000244141</ele>
        <time>2023-09-28T13:26:57.000Z</time>
      </trkpt>
      <trkpt lat="40.3377" lon="20.34252">
        <ele>542.32000732422</ele>
        <time>2023-09-28T13:26:54.000Z</time>
      </trkpt>
      <trkpt lat="40.33775" lon="20.34251">
        <ele>542.79998779297</ele>
        <time>2023-09-28T13:26:53.000Z</time>
      </trkpt>
      <trkpt lat="40.33805" lon="20.34247">
        <ele>544.71997070312</ele>
        <time>2023-09-28T13:26:50.000Z</time>
      </trkpt>
      <trkpt lat="40.33815" lon="20.34246">
        <ele>544.71997070312</ele>
        <time>2023-09-28T13:26:49.000Z</time>
      </trkpt>
      <trkpt lat="40.3382" lon="20.34248">
        <ele>545.20001220703</ele>
        <time>2023-09-28T13:26:48.000Z</time>
      </trkpt>
      <trkpt lat="40.33824" lon="20.34252">
        <ele>545.20001220703</ele>
        <time>2023-09-28T13:26:47.000Z</time>
      </trkpt>
      <trkpt lat="40.33826" lon="20.34258">
        <ele>546.16998291016</ele>
        <time>2023-09-28T13:26:46.000Z</time>
      </trkpt>
      <trkpt lat="40.33826" lon="20.34264">
        <ele>546.65002441406</ele>
        <time>2023-09-28T13:26:45.000Z</time>
      </trkpt>
      <trkpt lat="40.33822" lon="20.34268">
        <ele>547.13000488281</ele>
        <time>2023-09-28T13:26:44.000Z</time>
      </trkpt>
      <trkpt lat="40.33816" lon="20.3427">
        <ele>547.60998535156</ele>
        <time>2023-09-28T13:26:43.000Z</time>
      </trkpt>
      <trkpt lat="40.33809" lon="20.3427">
        <ele>548.09002685547</ele>
        <time>2023-09-28T13:26:42.000Z</time>
      </trkpt>
      <trkpt lat="40.33801" lon="20.34268">
        <ele>548.57000732422</ele>
        <time>2023-09-28T13:26:41.000Z</time>
      </trkpt>
      <trkpt lat="40.33793" lon="20.34267">
        <ele>549.04998779297</ele>
        <time>2023-09-28T13:26:40.000Z</time>
      </trkpt>
      <trkpt lat="40.33784" lon="20.3427">
        <ele>549.53002929688</ele>
        <time>2023-09-28T13:26:39.000Z</time>
      </trkpt>
      <trkpt lat="40.33775" lon="20.34275">
        <ele>550.01000976562</ele>
        <time>2023-09-28T13:26:38.000Z</time>
      </trkpt>
      <trkpt lat="40.33772" lon="20.34277">
        <ele>550.01000976562</ele>
        <time>2023-09-28T13:26:37.000Z</time>
      </trkpt>
      <trkpt lat="40.33735" lon="20.34304">
        <ele>553.85998535156</ele>
        <time>2023-09-28T13:26:33.000Z</time>
      </trkpt>
      <trkpt lat="40.3373" lon="20.34308">
        <ele>554.82000732422</ele>
        <time>2023-09-28T13:26:32.000Z</time>
      </trkpt>
      <trkpt lat="40.33727" lon="20.34313">
        <ele>555.29998779297</ele>
        <time>2023-09-28T13:26:31.000Z</time>
      </trkpt>
      <trkpt lat="40.33734" lon="20.34324">
        <ele>558.17999267578</ele>
        <time>2023-09-28T13:26:27.000Z</time>
      </trkpt>
      <trkpt lat="40.33739" lon="20.34321">
        <ele>559.14001464844</ele>
        <time>2023-09-28T13:26:26.000Z</time>
      </trkpt>
      <trkpt lat="40.33744" lon="20.34317">
        <ele>559.61999511719</ele>
        <time>2023-09-28T13:26:25.000Z</time>
      </trkpt>
      <trkpt lat="40.33751" lon="20.3431">
        <ele>560.59002685547</ele>
        <time>2023-09-28T13:26:24.000Z</time>
      </trkpt>
      <trkpt lat="40.3376" lon="20.34303">
        <ele>561.54998779297</ele>
        <time>2023-09-28T13:26:23.000Z</time>
      </trkpt>
      <trkpt lat="40.33768" lon="20.34298">
        <ele>562.03002929688</ele>
        <time>2023-09-28T13:26:22.000Z</time>
      </trkpt>
      <trkpt lat="40.33776" lon="20.34295">
        <ele>562.03002929688</ele>
        <time>2023-09-28T13:26:21.000Z</time>
      </trkpt>
      <trkpt lat="40.33784" lon="20.34294">
        <ele>562.03002929688</ele>
        <time>2023-09-28T13:26:20.000Z</time>
      </trkpt>
      <trkpt lat="40.33793" lon="20.34295">
        <ele>562.51000976562</ele>
        <time>2023-09-28T13:26:19.000Z</time>
      </trkpt>
      <trkpt lat="40.338" lon="20.34299">
        <ele>562.98999023438</ele>
        <time>2023-09-28T13:26:18.000Z</time>
      </trkpt>
      <trkpt lat="40.33807" lon="20.34305">
        <ele>563.46997070312</ele>
        <time>2023-09-28T13:26:17.000Z</time>
      </trkpt>
      <trkpt lat="40.33812" lon="20.34314">
        <ele>564.42999267578</ele>
        <time>2023-09-28T13:26:16.000Z</time>
      </trkpt>
      <trkpt lat="40.33815" lon="20.34322">
        <ele>565.39001464844</ele>
        <time>2023-09-28T13:26:15.000Z</time>
      </trkpt>
      <trkpt lat="40.3382" lon="20.34335">
        <ele>566.83001708984</ele>
        <time>2023-09-28T13:26:14.000Z</time>
      </trkpt>
      <trkpt lat="40.33825" lon="20.34346">
        <ele>567.32000732422</ele>
        <time>2023-09-28T13:26:13.000Z</time>
      </trkpt>
      <trkpt lat="40.33832" lon="20.34355">
        <ele>568.28002929688</ele>
        <time>2023-09-28T13:26:12.000Z</time>
      </trkpt>
      <trkpt lat="40.33836" lon="20.34359">
        <ele>568.76000976562</ele>
        <time>2023-09-28T13:26:11.000Z</time>
      </trkpt>
      <trkpt lat="40.3384" lon="20.34364">
        <ele>569.23999023438</ele>
        <time>2023-09-28T13:26:10.000Z</time>
      </trkpt>
      <trkpt lat="40.33855" lon="20.34378">
        <ele>570.67999267578</ele>
        <time>2023-09-28T13:26:09.000Z</time>
      </trkpt>
      <trkpt lat="40.33871" lon="20.34396">
        <ele>572.11999511719</ele>
        <time>2023-09-28T13:26:07.000Z</time>
      </trkpt>
      <trkpt lat="40.33883" lon="20.34407">
        <ele>573.08001708984</ele>
        <time>2023-09-28T13:26:06.000Z</time>
      </trkpt>
      <trkpt lat="40.3389" lon="20.34415">
        <ele>573.55999755859</ele>
        <time>2023-09-28T13:26:05.000Z</time>
      </trkpt>
      <trkpt lat="40.33898" lon="20.34426">
        <ele>575.01000976562</ele>
        <time>2023-09-28T13:26:04.000Z</time>
      </trkpt>
      <trkpt lat="40.33901" lon="20.3443">
        <ele>575.01000976562</ele>
        <time>2023-09-28T13:26:03.000Z</time>
      </trkpt>
      <trkpt lat="40.33921" lon="20.34463">
        <ele>578.36999511719</ele>
        <time>2023-09-28T13:26:00.000Z</time>
      </trkpt>
      <trkpt lat="40.3393" lon="20.34479">
        <ele>579.80999755859</ele>
        <time>2023-09-28T13:25:59.000Z</time>
      </trkpt>
      <trkpt lat="40.33933" lon="20.34487">
        <ele>580.77001953125</ele>
        <time>2023-09-28T13:25:58.000Z</time>
      </trkpt>
      <trkpt lat="40.33935" lon="20.34495">
        <ele>580.77001953125</ele>
        <time>2023-09-28T13:25:57.000Z</time>
      </trkpt>
      <trkpt lat="40.33934" lon="20.345">
        <ele>581.25</ele>
        <time>2023-09-28T13:25:56.000Z</time>
      </trkpt>
      <trkpt lat="40.33931" lon="20.34506">
        <ele>580.77001953125</ele>
        <time>2023-09-28T13:25:55.000Z</time>
      </trkpt>
      <trkpt lat="40.33926" lon="20.3451">
        <ele>581.72998046875</ele>
        <time>2023-09-28T13:25:54.000Z</time>
      </trkpt>
      <trkpt lat="40.33921" lon="20.34512">
        <ele>582.70001220703</ele>
        <time>2023-09-28T13:25:53.000Z</time>
      </trkpt>
      <trkpt lat="40.33915" lon="20.34511">
        <ele>583.65997314453</ele>
        <time>2023-09-28T13:25:52.000Z</time>
      </trkpt>
      <trkpt lat="40.33909" lon="20.34507">
        <ele>584.14001464844</ele>
        <time>2023-09-28T13:25:51.000Z</time>
      </trkpt>
      <trkpt lat="40.33904" lon="20.34501">
        <ele>584.14001464844</ele>
        <time>2023-09-28T13:25:50.000Z</time>
      </trkpt>
      <trkpt lat="40.33901" lon="20.34497">
        <ele>584.61999511719</ele>
        <time>2023-09-28T13:25:49.000Z</time>
      </trkpt>
      <trkpt lat="40.33893" lon="20.34486">
        <ele>585.58001708984</ele>
        <time>2023-09-28T13:25:48.000Z</time>
      </trkpt>
      <trkpt lat="40.33888" lon="20.34479">
        <ele>586.05999755859</ele>
        <time>2023-09-28T13:25:47.000Z</time>
      </trkpt>
      <trkpt lat="40.33877" lon="20.34465">
        <ele>587.5</ele>
        <time>2023-09-28T13:25:46.000Z</time>
      </trkpt>
      <trkpt lat="40.33869" lon="20.34458">
        <ele>588.46002197266</ele>
        <time>2023-09-28T13:25:45.000Z</time>
      </trkpt>
      <trkpt lat="40.33861" lon="20.34452">
        <ele>588.95001220703</ele>
        <time>2023-09-28T13:25:44.000Z</time>
      </trkpt>
      <trkpt lat="40.33852" lon="20.34449">
        <ele>589.42999267578</ele>
        <time>2023-09-28T13:25:43.000Z</time>
      </trkpt>
      <trkpt lat="40.3385" lon="20.34448">
        <ele>589.42999267578</ele>
        <time>2023-09-28T13:25:42.000Z</time>
      </trkpt>
      <trkpt lat="40.33788" lon="20.34442">
        <ele>588.95001220703</ele>
        <time>2023-09-28T13:25:37.000Z</time>
      </trkpt>
      <trkpt lat="40.33766" lon="20.34437">
        <ele>589.90997314453</ele>
        <time>2023-09-28T13:25:35.000Z</time>
      </trkpt>
      <trkpt lat="40.33757" lon="20.34434">
        <ele>590.39001464844</ele>
        <time>2023-09-28T13:25:34.000Z</time>
      </trkpt>
      <trkpt lat="40.33749" lon="20.3443">
        <ele>590.39001464844</ele>
        <time>2023-09-28T13:25:33.000Z</time>
      </trkpt>
      <trkpt lat="40.33737" lon="20.34422">
        <ele>591.34997558594</ele>
        <time>2023-09-28T13:25:32.000Z</time>
      </trkpt>
      <trkpt lat="40.33728" lon="20.34419">
        <ele>591.83001708984</ele>
        <time>2023-09-28T13:25:31.000Z</time>
      </trkpt>
      <trkpt lat="40.33722" lon="20.34417">
        <ele>592.78997802734</ele>
        <time>2023-09-28T13:25:30.000Z</time>
      </trkpt>
      <trkpt lat="40.33714" lon="20.34417">
        <ele>593.27001953125</ele>
        <time>2023-09-28T13:25:29.000Z</time>
      </trkpt>
      <trkpt lat="40.33712" lon="20.34417">
        <ele>593.27001953125</ele>
        <time>2023-09-28T13:25:28.000Z</time>
      </trkpt>
      <trkpt lat="40.33698" lon="20.34419">
        <ele>594.71002197266</ele>
        <time>2023-09-28T13:25:27.000Z</time>
      </trkpt>
      <trkpt lat="40.33692" lon="20.34421">
        <ele>595.19000244141</ele>
        <time>2023-09-28T13:25:26.000Z</time>
      </trkpt>
      <trkpt lat="40.33686" lon="20.34425">
        <ele>596.15002441406</ele>
        <time>2023-09-28T13:25:25.000Z</time>
      </trkpt>
      <trkpt lat="40.33684" lon="20.3443">
        <ele>596.64001464844</ele>
        <time>2023-09-28T13:25:24.000Z</time>
      </trkpt>
      <trkpt lat="40.33683" lon="20.34436">
        <ele>597.59997558594</ele>
        <time>2023-09-28T13:25:23.000Z</time>
      </trkpt>
      <trkpt lat="40.33685" lon="20.34441">
        <ele>598.55999755859</ele>
        <time>2023-09-28T13:25:22.000Z</time>
      </trkpt>
      <trkpt lat="40.3369" lon="20.34446">
        <ele>599.52001953125</ele>
        <time>2023-09-28T13:25:21.000Z</time>
      </trkpt>
      <trkpt lat="40.33695" lon="20.34447">
        <ele>599.52001953125</ele>
        <time>2023-09-28T13:25:20.000Z</time>
      </trkpt>
      <trkpt lat="40.33702" lon="20.34446">
        <ele>600</ele>
        <time>2023-09-28T13:25:19.000Z</time>
      </trkpt>
      <trkpt lat="40.33708" lon="20.34443">
        <ele>600.47998046875</ele>
        <time>2023-09-28T13:25:18.000Z</time>
      </trkpt>
      <trkpt lat="40.33715" lon="20.34441">
        <ele>600.47998046875</ele>
        <time>2023-09-28T13:25:17.000Z</time>
      </trkpt>
      <trkpt lat="40.33722" lon="20.34439">
        <ele>600.96002197266</ele>
        <time>2023-09-28T13:25:16.000Z</time>
      </trkpt>
      <trkpt lat="40.33728" lon="20.34441">
        <ele>600.96002197266</ele>
        <time>2023-09-28T13:25:15.000Z</time>
      </trkpt>
      <trkpt lat="40.33735" lon="20.34445">
        <ele>601.44000244141</ele>
        <time>2023-09-28T13:25:14.000Z</time>
      </trkpt>
      <trkpt lat="40.33755" lon="20.34464">
        <ele>602.88000488281</ele>
        <time>2023-09-28T13:25:11.000Z</time>
      </trkpt>
      <trkpt lat="40.33763" lon="20.3447">
        <ele>603.35998535156</ele>
        <time>2023-09-28T13:25:10.000Z</time>
      </trkpt>
      <trkpt lat="40.33767" lon="20.34475">
        <ele>603.84997558594</ele>
        <time>2023-09-28T13:25:09.000Z</time>
      </trkpt>
      <trkpt lat="40.33786" lon="20.34489">
        <ele>605.77001953125</ele>
        <time>2023-09-28T13:25:07.000Z</time>
      </trkpt>
      <trkpt lat="40.33794" lon="20.34496">
        <ele>607.21002197266</ele>
        <time>2023-09-28T13:25:06.000Z</time>
      </trkpt>
      <trkpt lat="40.33802" lon="20.34503">
        <ele>608.16998291016</ele>
        <time>2023-09-28T13:25:05.000Z</time>
      </trkpt>
      <trkpt lat="40.33807" lon="20.34511">
        <ele>609.13000488281</ele>
        <time>2023-09-28T13:25:04.000Z</time>
      </trkpt>
      <trkpt lat="40.33812" lon="20.3452">
        <ele>609.60998535156</ele>
        <time>2023-09-28T13:25:03.000Z</time>
      </trkpt>
      <trkpt lat="40.33814" lon="20.34527">
        <ele>610.09002685547</ele>
        <time>2023-09-28T13:25:02.000Z</time>
      </trkpt>
      <trkpt lat="40.33818" lon="20.34538">
        <ele>611.05999755859</ele>
        <time>2023-09-28T13:25:01.000Z</time>
      </trkpt>
      <trkpt lat="40.33822" lon="20.34547">
        <ele>611.53997802734</ele>
        <time>2023-09-28T13:25:00.000Z</time>
      </trkpt>
      <trkpt lat="40.33823" lon="20.3455">
        <ele>612.02001953125</ele>
        <time>2023-09-28T13:24:59.000Z</time>
      </trkpt>
      <trkpt lat="40.33834" lon="20.34568">
        <ele>614.41998291016</ele>
        <time>2023-09-28T13:24:58.000Z</time>
      </trkpt>
      <trkpt lat="40.33844" lon="20.34589">
        <ele>616.34002685547</ele>
        <time>2023-09-28T13:24:56.000Z</time>
      </trkpt>
      <trkpt lat="40.3385" lon="20.34598">
        <ele>616.82000732422</ele>
        <time>2023-09-28T13:24:55.000Z</time>
      </trkpt>
      <trkpt lat="40.33855" lon="20.34604">
        <ele>617.78002929688</ele>
        <time>2023-09-28T13:24:54.000Z</time>
      </trkpt>
      <trkpt lat="40.33862" lon="20.34608">
        <ele>618.75</ele>
        <time>2023-09-28T13:24:53.000Z</time>
      </trkpt>
      <trkpt lat="40.33869" lon="20.34609">
        <ele>619.71002197266</ele>
        <time>2023-09-28T13:24:52.000Z</time>
      </trkpt>
      <trkpt lat="40.33876" lon="20.34609">
        <ele>619.71002197266</ele>
        <time>2023-09-28T13:24:51.000Z</time>
      </trkpt>
      <trkpt lat="40.33883" lon="20.34611">
        <ele>620.19000244141</ele>
        <time>2023-09-28T13:24:50.000Z</time>
      </trkpt>
      <trkpt lat="40.3389" lon="20.34613">
        <ele>620.66998291016</ele>
        <time>2023-09-28T13:24:49.000Z</time>
      </trkpt>
      <trkpt lat="40.33897" lon="20.34617">
        <ele>621.15002441406</ele>
        <time>2023-09-28T13:24:48.000Z</time>
      </trkpt>
      <trkpt lat="40.3391" lon="20.34622">
        <ele>622.59002685547</ele>
        <time>2023-09-28T13:24:47.000Z</time>
      </trkpt>
      <trkpt lat="40.33918" lon="20.34625">
        <ele>623.07000732422</ele>
        <time>2023-09-28T13:24:46.000Z</time>
      </trkpt>
      <trkpt lat="40.33925" lon="20.34628">
        <ele>623.54998779297</ele>
        <time>2023-09-28T13:24:45.000Z</time>
      </trkpt>
      <trkpt lat="40.33931" lon="20.34631">
        <ele>624.03002929688</ele>
        <time>2023-09-28T13:24:44.000Z</time>
      </trkpt>
      <trkpt lat="40.33935" lon="20.34635">
        <ele>624.51000976562</ele>
        <time>2023-09-28T13:24:43.000Z</time>
      </trkpt>
      <trkpt lat="40.33937" lon="20.34639">
        <ele>624.98999023438</ele>
        <time>2023-09-28T13:24:42.000Z</time>
      </trkpt>
      <trkpt lat="40.33938" lon="20.34645">
        <ele>624.98999023438</ele>
        <time>2023-09-28T13:24:41.000Z</time>
      </trkpt>
      <trkpt lat="40.33937" lon="20.3465">
        <ele>625.46997070312</ele>
        <time>2023-09-28T13:24:40.000Z</time>
      </trkpt>
      <trkpt lat="40.33933" lon="20.34656">
        <ele>626.44000244141</ele>
        <time>2023-09-28T13:24:39.000Z</time>
      </trkpt>
      <trkpt lat="40.33928" lon="20.34658">
        <ele>626.91998291016</ele>
        <time>2023-09-28T13:24:38.000Z</time>
      </trkpt>
      <trkpt lat="40.33923" lon="20.34658">
        <ele>626.91998291016</ele>
        <time>2023-09-28T13:24:37.000Z</time>
      </trkpt>
      <trkpt lat="40.33916" lon="20.34656">
        <ele>627.40002441406</ele>
        <time>2023-09-28T13:24:36.000Z</time>
      </trkpt>
      <trkpt lat="40.33904" lon="20.34652">
        <ele>627.40002441406</ele>
        <time>2023-09-28T13:24:35.000Z</time>
      </trkpt>
      <trkpt lat="40.33895" lon="20.3465">
        <ele>628.35998535156</ele>
        <time>2023-09-28T13:24:34.000Z</time>
      </trkpt>
      <trkpt lat="40.33884" lon="20.3465">
        <ele>628.35998535156</ele>
        <time>2023-09-28T13:24:33.000Z</time>
      </trkpt>
      <trkpt lat="40.33873" lon="20.34651">
        <ele>628.84002685547</ele>
        <time>2023-09-28T13:24:32.000Z</time>
      </trkpt>
      <trkpt lat="40.33864" lon="20.34654">
        <ele>629.32000732422</ele>
        <time>2023-09-28T13:24:31.000Z</time>
      </trkpt>
      <trkpt lat="40.33862" lon="20.34654">
        <ele>629.79998779297</ele>
        <time>2023-09-28T13:24:30.000Z</time>
      </trkpt>
      <trkpt lat="40.33844" lon="20.34661">
        <ele>630.28002929688</ele>
        <time>2023-09-28T13:24:29.000Z</time>
      </trkpt>
      <trkpt lat="40.33835" lon="20.34663">
        <ele>630.76000976562</ele>
        <time>2023-09-28T13:24:28.000Z</time>
      </trkpt>
      <trkpt lat="40.33827" lon="20.34661">
        <ele>631.23999023438</ele>
        <time>2023-09-28T13:24:27.000Z</time>
      </trkpt>
      <trkpt lat="40.33818" lon="20.34657">
        <ele>631.23999023438</ele>
        <time>2023-09-28T13:24:26.000Z</time>
      </trkpt>
      <trkpt lat="40.33809" lon="20.34651">
        <ele>631.71997070312</ele>
        <time>2023-09-28T13:24:25.000Z</time>
      </trkpt>
      <trkpt lat="40.33798" lon="20.34646">
        <ele>631.71997070312</ele>
        <time>2023-09-28T13:24:24.000Z</time>
      </trkpt>
      <trkpt lat="40.33788" lon="20.34642">
        <ele>632.20001220703</ele>
        <time>2023-09-28T13:24:23.000Z</time>
      </trkpt>
      <trkpt lat="40.33779" lon="20.3464">
        <ele>632.20001220703</ele>
        <time>2023-09-28T13:24:22.000Z</time>
      </trkpt>
      <trkpt lat="40.33771" lon="20.34639">
        <ele>632.67999267578</ele>
        <time>2023-09-28T13:24:21.000Z</time>
      </trkpt>
      <trkpt lat="40.33747" lon="20.34637">
        <ele>633.65002441406</ele>
        <time>2023-09-28T13:24:19.000Z</time>
      </trkpt>
      <trkpt lat="40.33739" lon="20.34637">
        <ele>633.65002441406</ele>
        <time>2023-09-28T13:24:18.000Z</time>
      </trkpt>
      <trkpt lat="40.33734" lon="20.34638">
        <ele>634.13000488281</ele>
        <time>2023-09-28T13:24:17.000Z</time>
      </trkpt>
      <trkpt lat="40.33731" lon="20.3464">
        <ele>634.13000488281</ele>
        <time>2023-09-28T13:24:16.000Z</time>
      </trkpt>
      <trkpt lat="40.33729" lon="20.34647">
        <ele>635.09002685547</ele>
        <time>2023-09-28T13:24:15.000Z</time>
      </trkpt>
      <trkpt lat="40.3373" lon="20.34651">
        <ele>636.04998779297</ele>
        <time>2023-09-28T13:24:14.000Z</time>
      </trkpt>
      <trkpt lat="40.33734" lon="20.34656">
        <ele>636.53002929688</ele>
        <time>2023-09-28T13:24:13.000Z</time>
      </trkpt>
      <trkpt lat="40.33739" lon="20.34657">
        <ele>637.01000976562</ele>
        <time>2023-09-28T13:24:12.000Z</time>
      </trkpt>
      <trkpt lat="40.33745" lon="20.34658">
        <ele>637.48999023438</ele>
        <time>2023-09-28T13:24:11.000Z</time>
      </trkpt>
      <trkpt lat="40.33758" lon="20.3466">
        <ele>638.45001220703</ele>
        <time>2023-09-28T13:24:10.000Z</time>
      </trkpt>
      <trkpt lat="40.33767" lon="20.34663">
        <ele>638.45001220703</ele>
        <time>2023-09-28T13:24:09.000Z</time>
      </trkpt>
      <trkpt lat="40.3377" lon="20.34664">
        <ele>638.45001220703</ele>
        <time>2023-09-28T13:24:08.000Z</time>
      </trkpt>
      <trkpt lat="40.33786" lon="20.34673">
        <ele>639.89001464844</ele>
        <time>2023-09-28T13:24:07.000Z</time>
      </trkpt>
      <trkpt lat="40.33789" lon="20.34674">
        <ele>640.38000488281</ele>
        <time>2023-09-28T13:24:06.000Z</time>
      </trkpt>
      <trkpt lat="40.33802" lon="20.3468">
        <ele>641.34002685547</ele>
        <time>2023-09-28T13:24:05.000Z</time>
      </trkpt>
      <trkpt lat="40.33806" lon="20.34683">
        <ele>641.82000732422</ele>
        <time>2023-09-28T13:24:04.000Z</time>
      </trkpt>
      <trkpt lat="40.33809" lon="20.34689">
        <ele>641.82000732422</ele>
        <time>2023-09-28T13:24:03.000Z</time>
      </trkpt>
      <trkpt lat="40.3381" lon="20.34695">
        <ele>642.78002929688</ele>
        <time>2023-09-28T13:24:02.000Z</time>
      </trkpt>
      <trkpt lat="40.33808" lon="20.347">
        <ele>643.73999023438</ele>
        <time>2023-09-28T13:24:01.000Z</time>
      </trkpt>
      <trkpt lat="40.33805" lon="20.34703">
        <ele>644.70001220703</ele>
        <time>2023-09-28T13:24:00.000Z</time>
      </trkpt>
      <trkpt lat="40.33799" lon="20.34702">
        <ele>645.65997314453</ele>
        <time>2023-09-28T13:23:59.000Z</time>
      </trkpt>
      <trkpt lat="40.33793" lon="20.34699">
        <ele>646.61999511719</ele>
        <time>2023-09-28T13:23:58.000Z</time>
      </trkpt>
      <trkpt lat="40.33785" lon="20.34697">
        <ele>647.59002685547</ele>
        <time>2023-09-28T13:23:57.000Z</time>
      </trkpt>
      <trkpt lat="40.33778" lon="20.34695">
        <ele>648.07000732422</ele>
        <time>2023-09-28T13:23:56.000Z</time>
      </trkpt>
      <trkpt lat="40.33766" lon="20.34695">
        <ele>649.51000976562</ele>
        <time>2023-09-28T13:23:55.000Z</time>
      </trkpt>
      <trkpt lat="40.33761" lon="20.34695">
        <ele>650.46997070312</ele>
        <time>2023-09-28T13:23:54.000Z</time>
      </trkpt>
      <trkpt lat="40.33747" lon="20.34698">
        <ele>651.90997314453</ele>
        <time>2023-09-28T13:23:53.000Z</time>
      </trkpt>
      <trkpt lat="40.33738" lon="20.34699">
        <ele>653.83001708984</ele>
        <time>2023-09-28T13:23:52.000Z</time>
      </trkpt>
      <trkpt lat="40.3373" lon="20.34699">
        <ele>654.79998779297</ele>
        <time>2023-09-28T13:23:51.000Z</time>
      </trkpt>
      <trkpt lat="40.33722" lon="20.34698">
        <ele>655.76000976562</ele>
        <time>2023-09-28T13:23:50.000Z</time>
      </trkpt>
      <trkpt lat="40.33715" lon="20.34693">
        <ele>656.71997070312</ele>
        <time>2023-09-28T13:23:49.000Z</time>
      </trkpt>
      <trkpt lat="40.33709" lon="20.34687">
        <ele>657.67999267578</ele>
        <time>2023-09-28T13:23:48.000Z</time>
      </trkpt>
      <trkpt lat="40.33704" lon="20.34681">
        <ele>658.64001464844</ele>
        <time>2023-09-28T13:23:47.000Z</time>
      </trkpt>
      <trkpt lat="40.33697" lon="20.34676">
        <ele>659.59997558594</ele>
        <time>2023-09-28T13:23:46.000Z</time>
      </trkpt>
      <trkpt lat="40.33691" lon="20.34674">
        <ele>660.08001708984</ele>
        <time>2023-09-28T13:23:45.000Z</time>
      </trkpt>
      <trkpt lat="40.33683" lon="20.34673">
        <ele>660.55999755859</ele>
        <time>2023-09-28T13:23:44.000Z</time>
      </trkpt>
      <trkpt lat="40.33673" lon="20.34673">
        <ele>661.52001953125</ele>
        <time>2023-09-28T13:23:43.000Z</time>
      </trkpt>
      <trkpt lat="40.33666" lon="20.3467">
        <ele>661.52001953125</ele>
        <time>2023-09-28T13:23:42.000Z</time>
      </trkpt>
      <trkpt lat="40.3366" lon="20.34665">
        <ele>662.96997070312</ele>
        <time>2023-09-28T13:23:41.000Z</time>
      </trkpt>
      <trkpt lat="40.33655" lon="20.3466">
        <ele>663.92999267578</ele>
        <time>2023-09-28T13:23:40.000Z</time>
      </trkpt>
      <trkpt lat="40.3365" lon="20.34652">
        <ele>664.89001464844</ele>
        <time>2023-09-28T13:23:39.000Z</time>
      </trkpt>
      <trkpt lat="40.33646" lon="20.34642">
        <ele>666.33001708984</ele>
        <time>2023-09-28T13:23:38.000Z</time>
      </trkpt>
      <trkpt lat="40.33643" lon="20.34634">
        <ele>667.28997802734</ele>
        <time>2023-09-28T13:23:37.000Z</time>
      </trkpt>
      <trkpt lat="40.33642" lon="20.34628">
        <ele>667.77001953125</ele>
        <time>2023-09-28T13:23:36.000Z</time>
      </trkpt>
      <trkpt lat="40.33638" lon="20.34612">
        <ele>669.70001220703</ele>
        <time>2023-09-28T13:23:35.000Z</time>
      </trkpt>
      <trkpt lat="40.33635" lon="20.34596">
        <ele>670.65997314453</ele>
        <time>2023-09-28T13:23:34.000Z</time>
      </trkpt>
      <trkpt lat="40.33632" lon="20.34584">
        <ele>672.09997558594</ele>
        <time>2023-09-28T13:23:33.000Z</time>
      </trkpt>
      <trkpt lat="40.3363" lon="20.34574">
        <ele>672.58001708984</ele>
        <time>2023-09-28T13:23:32.000Z</time>
      </trkpt>
      <trkpt lat="40.33626" lon="20.34566">
        <ele>673.05999755859</ele>
        <time>2023-09-28T13:23:31.000Z</time>
      </trkpt>
      <trkpt lat="40.33622" lon="20.34559">
        <ele>674.02001953125</ele>
        <time>2023-09-28T13:23:30.000Z</time>
      </trkpt>
      <trkpt lat="40.33616" lon="20.34555">
        <ele>674.5</ele>
        <time>2023-09-28T13:23:29.000Z</time>
      </trkpt>
      <trkpt lat="40.33609" lon="20.34553">
        <ele>674.97998046875</ele>
        <time>2023-09-28T13:23:28.000Z</time>
      </trkpt>
      <trkpt lat="40.33602" lon="20.34552">
        <ele>675.94000244141</ele>
        <time>2023-09-28T13:23:27.000Z</time>
      </trkpt>
      <trkpt lat="40.33594" lon="20.34555">
        <ele>676.90997314453</ele>
        <time>2023-09-28T13:23:26.000Z</time>
      </trkpt>
      <trkpt lat="40.33591" lon="20.34557">
        <ele>677.39001464844</ele>
        <time>2023-09-28T13:23:25.000Z</time>
      </trkpt>
      <trkpt lat="40.33574" lon="20.34567">
        <ele>679.78997802734</ele>
        <time>2023-09-28T13:23:23.000Z</time>
      </trkpt>
      <trkpt lat="40.33564" lon="20.34574">
        <ele>680.75</ele>
        <time>2023-09-28T13:23:22.000Z</time>
      </trkpt>
      <trkpt lat="40.33555" lon="20.34579">
        <ele>681.71002197266</ele>
        <time>2023-09-28T13:23:21.000Z</time>
      </trkpt>
      <trkpt lat="40.3355" lon="20.3458">
        <ele>682.19000244141</ele>
        <time>2023-09-28T13:23:20.000Z</time>
      </trkpt>
      <trkpt lat="40.33538" lon="20.34584">
        <ele>683.63000488281</ele>
        <time>2023-09-28T13:23:19.000Z</time>
      </trkpt>
      <trkpt lat="40.33518" lon="20.34589">
        <ele>685.08001708984</ele>
        <time>2023-09-28T13:23:17.000Z</time>
      </trkpt>
      <trkpt lat="40.33514" lon="20.34589">
        <ele>685.55999755859</ele>
        <time>2023-09-28T13:23:16.000Z</time>
      </trkpt>
      <trkpt lat="40.33497" lon="20.34592">
        <ele>687</ele>
        <time>2023-09-28T13:23:15.000Z</time>
      </trkpt>
      <trkpt lat="40.33489" lon="20.34595">
        <ele>687.47998046875</ele>
        <time>2023-09-28T13:23:14.000Z</time>
      </trkpt>
      <trkpt lat="40.33481" lon="20.34601">
        <ele>688.44000244141</ele>
        <time>2023-09-28T13:23:13.000Z</time>
      </trkpt>
      <trkpt lat="40.33468" lon="20.34612">
        <ele>689.40002441406</ele>
        <time>2023-09-28T13:23:11.000Z</time>
      </trkpt>
      <trkpt lat="40.33459" lon="20.34621">
        <ele>690.84002685547</ele>
        <time>2023-09-28T13:23:10.000Z</time>
      </trkpt>
      <trkpt lat="40.33452" lon="20.34629">
        <ele>691.80999755859</ele>
        <time>2023-09-28T13:23:09.000Z</time>
      </trkpt>
      <trkpt lat="40.33448" lon="20.34636">
        <ele>692.77001953125</ele>
        <time>2023-09-28T13:23:08.000Z</time>
      </trkpt>
      <trkpt lat="40.33446" lon="20.34642">
        <ele>693.72998046875</ele>
        <time>2023-09-28T13:23:07.000Z</time>
      </trkpt>
      <trkpt lat="40.33446" lon="20.34649">
        <ele>694.21002197266</ele>
        <time>2023-09-28T13:23:06.000Z</time>
      </trkpt>
      <trkpt lat="40.33449" lon="20.34654">
        <ele>695.16998291016</ele>
        <time>2023-09-28T13:23:05.000Z</time>
      </trkpt>
      <trkpt lat="40.33453" lon="20.34658">
        <ele>696.60998535156</ele>
        <time>2023-09-28T13:23:04.000Z</time>
      </trkpt>
      <trkpt lat="40.33458" lon="20.34659">
        <ele>697.57000732422</ele>
        <time>2023-09-28T13:23:03.000Z</time>
      </trkpt>
      <trkpt lat="40.33467" lon="20.34658">
        <ele>698.04998779297</ele>
        <time>2023-09-28T13:23:02.000Z</time>
      </trkpt>
      <trkpt lat="40.33468" lon="20.34658">
        <ele>698.04998779297</ele>
        <time>2023-09-28T13:23:01.000Z</time>
      </trkpt>
      <trkpt lat="40.33482" lon="20.34655">
        <ele>699.5</ele>
        <time>2023-09-28T13:23:00.000Z</time>
      </trkpt>
      <trkpt lat="40.3349" lon="20.34654">
        <ele>699.97998046875</ele>
        <time>2023-09-28T13:22:59.000Z</time>
      </trkpt>
      <trkpt lat="40.33498" lon="20.34655">
        <ele>700.46002197266</ele>
        <time>2023-09-28T13:22:58.000Z</time>
      </trkpt>
      <trkpt lat="40.33501" lon="20.34656">
        <ele>700.46002197266</ele>
        <time>2023-09-28T13:22:57.000Z</time>
      </trkpt>
      <trkpt lat="40.33514" lon="20.34661">
        <ele>700.94000244141</ele>
        <time>2023-09-28T13:22:56.000Z</time>
      </trkpt>
      <trkpt lat="40.33521" lon="20.34663">
        <ele>700.94000244141</ele>
        <time>2023-09-28T13:22:55.000Z</time>
      </trkpt>
      <trkpt lat="40.33525" lon="20.34665">
        <ele>701.41998291016</ele>
        <time>2023-09-28T13:22:54.000Z</time>
      </trkpt>
      <trkpt lat="40.33562" lon="20.3467">
        <ele>701.41998291016</ele>
        <time>2023-09-28T13:22:51.000Z</time>
      </trkpt>
      <trkpt lat="40.33571" lon="20.34671">
        <ele>701.41998291016</ele>
        <time>2023-09-28T13:22:50.000Z</time>
      </trkpt>
      <trkpt lat="40.33574" lon="20.34671">
        <ele>701.41998291016</ele>
        <time>2023-09-28T13:22:49.000Z</time>
      </trkpt>
      <trkpt lat="40.33586" lon="20.3467">
        <ele>701.41998291016</ele>
        <time>2023-09-28T13:22:48.000Z</time>
      </trkpt>
      <trkpt lat="40.33592" lon="20.34671">
        <ele>701.90002441406</ele>
        <time>2023-09-28T13:22:47.000Z</time>
      </trkpt>
      <trkpt lat="40.33597" lon="20.34674">
        <ele>701.90002441406</ele>
        <time>2023-09-28T13:22:46.000Z</time>
      </trkpt>
      <trkpt lat="40.33601" lon="20.34678">
        <ele>701.90002441406</ele>
        <time>2023-09-28T13:22:45.000Z</time>
      </trkpt>
      <trkpt lat="40.33602" lon="20.34682">
        <ele>702.38000488281</ele>
        <time>2023-09-28T13:22:44.000Z</time>
      </trkpt>
      <trkpt lat="40.33602" lon="20.34689">
        <ele>702.38000488281</ele>
        <time>2023-09-28T13:22:43.000Z</time>
      </trkpt>
      <trkpt lat="40.336" lon="20.34694">
        <ele>703.34002685547</ele>
        <time>2023-09-28T13:22:42.000Z</time>
      </trkpt>
      <trkpt lat="40.33597" lon="20.34697">
        <ele>703.82000732422</ele>
        <time>2023-09-28T13:22:41.000Z</time>
      </trkpt>
      <trkpt lat="40.33592" lon="20.34698">
        <ele>704.29998779297</ele>
        <time>2023-09-28T13:22:40.000Z</time>
      </trkpt>
      <trkpt lat="40.33587" lon="20.34698">
        <ele>704.29998779297</ele>
        <time>2023-09-28T13:22:39.000Z</time>
      </trkpt>
      <trkpt lat="40.33578" lon="20.34695">
        <ele>704.78002929688</ele>
        <time>2023-09-28T13:22:38.000Z</time>
      </trkpt>
      <trkpt lat="40.33572" lon="20.34694">
        <ele>705.75</ele>
        <time>2023-09-28T13:22:37.000Z</time>
      </trkpt>
      <trkpt lat="40.33568" lon="20.34694">
        <ele>705.75</ele>
        <time>2023-09-28T13:22:36.000Z</time>
      </trkpt>
      <trkpt lat="40.33542" lon="20.34696">
        <ele>707.19000244141</ele>
        <time>2023-09-28T13:22:34.000Z</time>
      </trkpt>
      <trkpt lat="40.3353" lon="20.34698">
        <ele>708.15002441406</ele>
        <time>2023-09-28T13:22:33.000Z</time>
      </trkpt>
      <trkpt lat="40.33519" lon="20.34702">
        <ele>709.10998535156</ele>
        <time>2023-09-28T13:22:32.000Z</time>
      </trkpt>
      <trkpt lat="40.3351" lon="20.34707">
        <ele>710.07000732422</ele>
        <time>2023-09-28T13:22:31.000Z</time>
      </trkpt>
      <trkpt lat="40.33489" lon="20.3472">
        <ele>712.46997070312</ele>
        <time>2023-09-28T13:22:29.000Z</time>
      </trkpt>
      <trkpt lat="40.33468" lon="20.34732">
        <ele>714.40002441406</ele>
        <time>2023-09-28T13:22:27.000Z</time>
      </trkpt>
      <trkpt lat="40.33458" lon="20.34739">
        <ele>715.84002685547</ele>
        <time>2023-09-28T13:22:26.000Z</time>
      </trkpt>
      <trkpt lat="40.33425" lon="20.34768">
        <ele>718.23999023438</ele>
        <time>2023-09-28T13:22:22.000Z</time>
      </trkpt>
      <trkpt lat="40.33418" lon="20.34772">
        <ele>719.20001220703</ele>
        <time>2023-09-28T13:22:21.000Z</time>
      </trkpt>
      <trkpt lat="40.3341" lon="20.34774">
        <ele>718.71997070312</ele>
        <time>2023-09-28T13:22:20.000Z</time>
      </trkpt>
      <trkpt lat="40.33404" lon="20.34771">
        <ele>718.71997070312</ele>
        <time>2023-09-28T13:22:19.000Z</time>
      </trkpt>
      <trkpt lat="40.33398" lon="20.34766">
        <ele>719.20001220703</ele>
        <time>2023-09-28T13:22:18.000Z</time>
      </trkpt>
      <trkpt lat="40.33393" lon="20.34757">
        <ele>720.15997314453</ele>
        <time>2023-09-28T13:22:17.000Z</time>
      </trkpt>
      <trkpt lat="40.33384" lon="20.34734">
        <ele>722.57000732422</ele>
        <time>2023-09-28T13:22:15.000Z</time>
      </trkpt>
      <trkpt lat="40.33382" lon="20.34729">
        <ele>722.57000732422</ele>
        <time>2023-09-28T13:22:14.000Z</time>
      </trkpt>
      <trkpt lat="40.33372" lon="20.3471">
        <ele>724.96997070312</ele>
        <time>2023-09-28T13:22:13.000Z</time>
      </trkpt>
      <trkpt lat="40.33367" lon="20.34701">
        <ele>725.92999267578</ele>
        <time>2023-09-28T13:22:12.000Z</time>
      </trkpt>
      <trkpt lat="40.33363" lon="20.34691">
        <ele>726.89001464844</ele>
        <time>2023-09-28T13:22:11.000Z</time>
      </trkpt>
      <trkpt lat="40.33357" lon="20.34676">
        <ele>728.34002685547</ele>
        <time>2023-09-28T13:22:10.000Z</time>
      </trkpt>
      <trkpt lat="40.33355" lon="20.34669">
        <ele>729.29998779297</ele>
        <time>2023-09-28T13:22:09.000Z</time>
      </trkpt>
      <trkpt lat="40.33351" lon="20.34659">
        <ele>730.26000976562</ele>
        <time>2023-09-28T13:22:08.000Z</time>
      </trkpt>
      <trkpt lat="40.33349" lon="20.34649">
        <ele>731.21997070312</ele>
        <time>2023-09-28T13:22:07.000Z</time>
      </trkpt>
      <trkpt lat="40.33346" lon="20.34636">
        <ele>732.65997314453</ele>
        <time>2023-09-28T13:22:06.000Z</time>
      </trkpt>
      <trkpt lat="40.33345" lon="20.34629">
        <ele>733.14001464844</ele>
        <time>2023-09-28T13:22:05.000Z</time>
      </trkpt>
      <trkpt lat="40.33343" lon="20.34619">
        <ele>734.09997558594</ele>
        <time>2023-09-28T13:22:04.000Z</time>
      </trkpt>
      <trkpt lat="40.3334" lon="20.34589">
        <ele>736.51000976562</ele>
        <time>2023-09-28T13:22:02.000Z</time>
      </trkpt>
      <trkpt lat="40.33339" lon="20.34569">
        <ele>738.42999267578</ele>
        <time>2023-09-28T13:22:01.000Z</time>
      </trkpt>
      <trkpt lat="40.33338" lon="20.34559">
        <ele>739.39001464844</ele>
        <time>2023-09-28T13:22:00.000Z</time>
      </trkpt>
      <trkpt lat="40.33336" lon="20.34551">
        <ele>739.86999511719</ele>
        <time>2023-09-28T13:21:59.000Z</time>
      </trkpt>
      <trkpt lat="40.33332" lon="20.34541">
        <ele>741.30999755859</ele>
        <time>2023-09-28T13:21:58.000Z</time>
      </trkpt>
      <trkpt lat="40.33328" lon="20.34535">
        <ele>741.30999755859</ele>
        <time>2023-09-28T13:21:57.000Z</time>
      </trkpt>
      <trkpt lat="40.33323" lon="20.3453">
        <ele>741.78997802734</ele>
        <time>2023-09-28T13:21:56.000Z</time>
      </trkpt>
      <trkpt lat="40.33316" lon="20.34526">
        <ele>742.28002929688</ele>
        <time>2023-09-28T13:21:55.000Z</time>
      </trkpt>
      <trkpt lat="40.33308" lon="20.34525">
        <ele>742.76000976562</ele>
        <time>2023-09-28T13:21:54.000Z</time>
      </trkpt>
      <trkpt lat="40.33306" lon="20.34525">
        <ele>742.76000976562</ele>
        <time>2023-09-28T13:21:53.000Z</time>
      </trkpt>
      <trkpt lat="40.33294" lon="20.34527">
        <ele>743.23999023438</ele>
        <time>2023-09-28T13:21:52.000Z</time>
      </trkpt>
      <trkpt lat="40.33257" lon="20.34533">
        <ele>745.15997314453</ele>
        <time>2023-09-28T13:21:49.000Z</time>
      </trkpt>
      <trkpt lat="40.33246" lon="20.34534">
        <ele>745.64001464844</ele>
        <time>2023-09-28T13:21:48.000Z</time>
      </trkpt>
      <trkpt lat="40.3324" lon="20.34533">
        <ele>746.11999511719</ele>
        <time>2023-09-28T13:21:47.000Z</time>
      </trkpt>
      <trkpt lat="40.33228" lon="20.34532">
        <ele>746.59997558594</ele>
        <time>2023-09-28T13:21:46.000Z</time>
      </trkpt>
      <trkpt lat="40.33217" lon="20.34531">
        <ele>746.59997558594</ele>
        <time>2023-09-28T13:21:45.000Z</time>
      </trkpt>
      <trkpt lat="40.33206" lon="20.34532">
        <ele>747.55999755859</ele>
        <time>2023-09-28T13:21:44.000Z</time>
      </trkpt>
      <trkpt lat="40.33199" lon="20.34534">
        <ele>747.55999755859</ele>
        <time>2023-09-28T13:21:43.000Z</time>
      </trkpt>
      <trkpt lat="40.33194" lon="20.34539">
        <ele>748.03997802734</ele>
        <time>2023-09-28T13:21:42.000Z</time>
      </trkpt>
      <trkpt lat="40.3319" lon="20.34545">
        <ele>748.52001953125</ele>
        <time>2023-09-28T13:21:41.000Z</time>
      </trkpt>
      <trkpt lat="40.3319" lon="20.34553">
        <ele>748.52001953125</ele>
        <time>2023-09-28T13:21:40.000Z</time>
      </trkpt>
      <trkpt lat="40.33191" lon="20.34562">
        <ele>749</ele>
        <time>2023-09-28T13:21:39.000Z</time>
      </trkpt>
      <trkpt lat="40.33192" lon="20.34572">
        <ele>749.48999023438</ele>
        <time>2023-09-28T13:21:38.000Z</time>
      </trkpt>
      <trkpt lat="40.33193" lon="20.34581">
        <ele>749.96997070312</ele>
        <time>2023-09-28T13:21:37.000Z</time>
      </trkpt>
      <trkpt lat="40.33192" lon="20.34591">
        <ele>750.45001220703</ele>
        <time>2023-09-28T13:21:36.000Z</time>
      </trkpt>
      <trkpt lat="40.33189" lon="20.34602">
        <ele>751.40997314453</ele>
        <time>2023-09-28T13:21:35.000Z</time>
      </trkpt>
      <trkpt lat="40.33185" lon="20.34612">
        <ele>752.36999511719</ele>
        <time>2023-09-28T13:21:34.000Z</time>
      </trkpt>
      <trkpt lat="40.33181" lon="20.34619">
        <ele>752.84997558594</ele>
        <time>2023-09-28T13:21:33.000Z</time>
      </trkpt>
      <trkpt lat="40.33178" lon="20.34629">
        <ele>753.80999755859</ele>
        <time>2023-09-28T13:21:32.000Z</time>
      </trkpt>
      <trkpt lat="40.33177" lon="20.34635">
        <ele>754.77001953125</ele>
        <time>2023-09-28T13:21:31.000Z</time>
      </trkpt>
      <trkpt lat="40.33176" lon="20.34647">
        <ele>755.72998046875</ele>
        <time>2023-09-28T13:21:30.000Z</time>
      </trkpt>
      <trkpt lat="40.33174" lon="20.34658">
        <ele>756.69000244141</ele>
        <time>2023-09-28T13:21:29.000Z</time>
      </trkpt>
      <trkpt lat="40.3317" lon="20.34669">
        <ele>757.17999267578</ele>
        <time>2023-09-28T13:21:28.000Z</time>
      </trkpt>
      <trkpt lat="40.33168" lon="20.34673">
        <ele>757.17999267578</ele>
        <time>2023-09-28T13:21:27.000Z</time>
      </trkpt>
      <trkpt lat="40.33158" lon="20.34689">
        <ele>758.14001464844</ele>
        <time>2023-09-28T13:21:26.000Z</time>
      </trkpt>
      <trkpt lat="40.33151" lon="20.34699">
        <ele>758.61999511719</ele>
        <time>2023-09-28T13:21:25.000Z</time>
      </trkpt>
      <trkpt lat="40.33146" lon="20.3471">
        <ele>760.05999755859</ele>
        <time>2023-09-28T13:21:24.000Z</time>
      </trkpt>
      <trkpt lat="40.33142" lon="20.34721">
        <ele>761.5</ele>
        <time>2023-09-28T13:21:23.000Z</time>
      </trkpt>
      <trkpt lat="40.33141" lon="20.34723">
        <ele>761.5</ele>
        <time>2023-09-28T13:21:22.000Z</time>
      </trkpt>
      <trkpt lat="40.33137" lon="20.34733">
        <ele>762.94000244141</ele>
        <time>2023-09-28T13:21:21.000Z</time>
      </trkpt>
      <trkpt lat="40.3313" lon="20.34746">
        <ele>765.34997558594</ele>
        <time>2023-09-28T13:21:20.000Z</time>
      </trkpt>
      <trkpt lat="40.33128" lon="20.34753">
        <ele>766.30999755859</ele>
        <time>2023-09-28T13:21:19.000Z</time>
      </trkpt>
      <trkpt lat="40.33128" lon="20.3476">
        <ele>766.78997802734</ele>
        <time>2023-09-28T13:21:18.000Z</time>
      </trkpt>
      <trkpt lat="40.33131" lon="20.34766">
        <ele>767.75</ele>
        <time>2023-09-28T13:21:17.000Z</time>
      </trkpt>
      <trkpt lat="40.33135" lon="20.34771">
        <ele>768.71002197266</ele>
        <time>2023-09-28T13:21:16.000Z</time>
      </trkpt>
      <trkpt lat="40.33141" lon="20.34775">
        <ele>769.19000244141</ele>
        <time>2023-09-28T13:21:15.000Z</time>
      </trkpt>
      <trkpt lat="40.3315" lon="20.34778">
        <ele>770.15002441406</ele>
        <time>2023-09-28T13:21:14.000Z</time>
      </trkpt>
      <trkpt lat="40.33159" lon="20.34783">
        <ele>771.10998535156</ele>
        <time>2023-09-28T13:21:13.000Z</time>
      </trkpt>
      <trkpt lat="40.33165" lon="20.34787">
        <ele>771.59997558594</ele>
        <time>2023-09-28T13:21:12.000Z</time>
      </trkpt>
      <trkpt lat="40.33179" lon="20.34796">
        <ele>773.52001953125</ele>
        <time>2023-09-28T13:21:11.000Z</time>
      </trkpt>
      <trkpt lat="40.33185" lon="20.34802">
        <ele>774</ele>
        <time>2023-09-28T13:21:10.000Z</time>
      </trkpt>
      <trkpt lat="40.33193" lon="20.3481">
        <ele>774.96002197266</ele>
        <time>2023-09-28T13:21:09.000Z</time>
      </trkpt>
      <trkpt lat="40.33197" lon="20.34814">
        <ele>775.44000244141</ele>
        <time>2023-09-28T13:21:08.000Z</time>
      </trkpt>
      <trkpt lat="40.33218" lon="20.34832">
        <ele>777.84002685547</ele>
        <time>2023-09-28T13:21:06.000Z</time>
      </trkpt>
      <trkpt lat="40.33224" lon="20.34839">
        <ele>778.80999755859</ele>
        <time>2023-09-28T13:21:05.000Z</time>
      </trkpt>
      <trkpt lat="40.33227" lon="20.34844">
        <ele>779.28997802734</ele>
        <time>2023-09-28T13:21:04.000Z</time>
      </trkpt>
      <trkpt lat="40.33235" lon="20.34857">
        <ele>780.72998046875</ele>
        <time>2023-09-28T13:21:03.000Z</time>
      </trkpt>
      <trkpt lat="40.33244" lon="20.3487">
        <ele>781.69000244141</ele>
        <time>2023-09-28T13:21:02.000Z</time>
      </trkpt>
      <trkpt lat="40.33251" lon="20.34881">
        <ele>782.16998291016</ele>
        <time>2023-09-28T13:21:01.000Z</time>
      </trkpt>
      <trkpt lat="40.33253" lon="20.34886">
        <ele>782.65002441406</ele>
        <time>2023-09-28T13:21:00.000Z</time>
      </trkpt>
      <trkpt lat="40.33261" lon="20.34908">
        <ele>783.60998535156</ele>
        <time>2023-09-28T13:20:59.000Z</time>
      </trkpt>
      <trkpt lat="40.33266" lon="20.34917">
        <ele>784.09002685547</ele>
        <time>2023-09-28T13:20:58.000Z</time>
      </trkpt>
      <trkpt lat="40.33272" lon="20.34926">
        <ele>784.57000732422</ele>
        <time>2023-09-28T13:20:57.000Z</time>
      </trkpt>
      <trkpt lat="40.33284" lon="20.34942">
        <ele>785.04998779297</ele>
        <time>2023-09-28T13:20:55.000Z</time>
      </trkpt>
      <trkpt lat="40.3329" lon="20.34953">
        <ele>785.53002929688</ele>
        <time>2023-09-28T13:20:54.000Z</time>
      </trkpt>
      <trkpt lat="40.33295" lon="20.34963">
        <ele>785.53002929688</ele>
        <time>2023-09-28T13:20:53.000Z</time>
      </trkpt>
      <trkpt lat="40.33298" lon="20.34975">
        <ele>785.04998779297</ele>
        <time>2023-09-28T13:20:52.000Z</time>
      </trkpt>
      <trkpt lat="40.33299" lon="20.34979">
        <ele>785.04998779297</ele>
        <time>2023-09-28T13:20:51.000Z</time>
      </trkpt>
      <trkpt lat="40.33303" lon="20.34999">
        <ele>784.09002685547</ele>
        <time>2023-09-28T13:20:50.000Z</time>
      </trkpt>
      <trkpt lat="40.33306" lon="20.35013">
        <ele>783.60998535156</ele>
        <time>2023-09-28T13:20:49.000Z</time>
      </trkpt>
      <trkpt lat="40.3331" lon="20.35027">
        <ele>783.13000488281</ele>
        <time>2023-09-28T13:20:48.000Z</time>
      </trkpt>
      <trkpt lat="40.33313" lon="20.35038">
        <ele>782.65002441406</ele>
        <time>2023-09-28T13:20:47.000Z</time>
      </trkpt>
      <trkpt lat="40.33313" lon="20.35047">
        <ele>782.65002441406</ele>
        <time>2023-09-28T13:20:46.000Z</time>
      </trkpt>
      <trkpt lat="40.3331" lon="20.35058">
        <ele>783.13000488281</ele>
        <time>2023-09-28T13:20:45.000Z</time>
      </trkpt>
      <trkpt lat="40.33305" lon="20.35068">
        <ele>784.09002685547</ele>
        <time>2023-09-28T13:20:44.000Z</time>
      </trkpt>
      <trkpt lat="40.33299" lon="20.35076">
        <ele>784.57000732422</ele>
        <time>2023-09-28T13:20:43.000Z</time>
      </trkpt>
      <trkpt lat="40.33289" lon="20.35088">
        <ele>785.53002929688</ele>
        <time>2023-09-28T13:20:42.000Z</time>
      </trkpt>
      <trkpt lat="40.33284" lon="20.35096">
        <ele>786.5</ele>
        <time>2023-09-28T13:20:41.000Z</time>
      </trkpt>
      <trkpt lat="40.33282" lon="20.35102">
        <ele>786.97998046875</ele>
        <time>2023-09-28T13:20:40.000Z</time>
      </trkpt>
      <trkpt lat="40.33281" lon="20.35108">
        <ele>787.46002197266</ele>
        <time>2023-09-28T13:20:39.000Z</time>
      </trkpt>
      <trkpt lat="40.33284" lon="20.35115">
        <ele>788.41998291016</ele>
        <time>2023-09-28T13:20:38.000Z</time>
      </trkpt>
      <trkpt lat="40.33288" lon="20.3512">
        <ele>788.41998291016</ele>
        <time>2023-09-28T13:20:37.000Z</time>
      </trkpt>
      <trkpt lat="40.33293" lon="20.35124">
        <ele>787.94000244141</ele>
        <time>2023-09-28T13:20:36.000Z</time>
      </trkpt>
      <trkpt lat="40.33304" lon="20.35133">
        <ele>787.46002197266</ele>
        <time>2023-09-28T13:20:35.000Z</time>
      </trkpt>
      <trkpt lat="40.33313" lon="20.35142">
        <ele>787.46002197266</ele>
        <time>2023-09-28T13:20:34.000Z</time>
      </trkpt>
      <trkpt lat="40.33332" lon="20.3516">
        <ele>786.5</ele>
        <time>2023-09-28T13:20:32.000Z</time>
      </trkpt>
      <trkpt lat="40.33339" lon="20.35169">
        <ele>786.02001953125</ele>
        <time>2023-09-28T13:20:31.000Z</time>
      </trkpt>
      <trkpt lat="40.33345" lon="20.35178">
        <ele>785.53002929688</ele>
        <time>2023-09-28T13:20:30.000Z</time>
      </trkpt>
      <trkpt lat="40.33348" lon="20.35187">
        <ele>785.53002929688</ele>
        <time>2023-09-28T13:20:29.000Z</time>
      </trkpt>
      <trkpt lat="40.3335" lon="20.35197">
        <ele>785.04998779297</ele>
        <time>2023-09-28T13:20:28.000Z</time>
      </trkpt>
      <trkpt lat="40.33351" lon="20.35211">
        <ele>785.04998779297</ele>
        <time>2023-09-28T13:20:27.000Z</time>
      </trkpt>
      <trkpt lat="40.33353" lon="20.35222">
        <ele>784.57000732422</ele>
        <time>2023-09-28T13:20:26.000Z</time>
      </trkpt>
      <trkpt lat="40.33357" lon="20.35231">
        <ele>785.04998779297</ele>
        <time>2023-09-28T13:20:25.000Z</time>
      </trkpt>
      <trkpt lat="40.33362" lon="20.35237">
        <ele>785.04998779297</ele>
        <time>2023-09-28T13:20:24.000Z</time>
      </trkpt>
      <trkpt lat="40.33368" lon="20.35242">
        <ele>785.04998779297</ele>
        <time>2023-09-28T13:20:23.000Z</time>
      </trkpt>
      <trkpt lat="40.33376" lon="20.35244">
        <ele>785.04998779297</ele>
        <time>2023-09-28T13:20:22.000Z</time>
      </trkpt>
      <trkpt lat="40.33386" lon="20.35245">
        <ele>785.53002929688</ele>
        <time>2023-09-28T13:20:21.000Z</time>
      </trkpt>
      <trkpt lat="40.33395" lon="20.35246">
        <ele>785.53002929688</ele>
        <time>2023-09-28T13:20:20.000Z</time>
      </trkpt>
      <trkpt lat="40.33405" lon="20.35248">
        <ele>786.02001953125</ele>
        <time>2023-09-28T13:20:19.000Z</time>
      </trkpt>
      <trkpt lat="40.33415" lon="20.35252">
        <ele>786.5</ele>
        <time>2023-09-28T13:20:18.000Z</time>
      </trkpt>
      <trkpt lat="40.33423" lon="20.35258">
        <ele>786.97998046875</ele>
        <time>2023-09-28T13:20:17.000Z</time>
      </trkpt>
      <trkpt lat="40.3343" lon="20.35264">
        <ele>786.97998046875</ele>
        <time>2023-09-28T13:20:16.000Z</time>
      </trkpt>
      <trkpt lat="40.33442" lon="20.35275">
        <ele>787.94000244141</ele>
        <time>2023-09-28T13:20:15.000Z</time>
      </trkpt>
      <trkpt lat="40.33452" lon="20.35286">
        <ele>789.38000488281</ele>
        <time>2023-09-28T13:20:14.000Z</time>
      </trkpt>
      <trkpt lat="40.33457" lon="20.35293">
        <ele>789.85998535156</ele>
        <time>2023-09-28T13:20:13.000Z</time>
      </trkpt>
      <trkpt lat="40.33467" lon="20.35309">
        <ele>791.78002929688</ele>
        <time>2023-09-28T13:20:12.000Z</time>
      </trkpt>
      <trkpt lat="40.33472" lon="20.35317">
        <ele>792.73999023438</ele>
        <time>2023-09-28T13:20:11.000Z</time>
      </trkpt>
      <trkpt lat="40.33483" lon="20.3533">
        <ele>793.21997070312</ele>
        <time>2023-09-28T13:20:10.000Z</time>
      </trkpt>
      <trkpt lat="40.33489" lon="20.35338">
        <ele>793.71002197266</ele>
        <time>2023-09-28T13:20:09.000Z</time>
      </trkpt>
      <trkpt lat="40.33497" lon="20.35354">
        <ele>794.19000244141</ele>
        <time>2023-09-28T13:20:08.000Z</time>
      </trkpt>
      <trkpt lat="40.33504" lon="20.35367">
        <ele>794.19000244141</ele>
        <time>2023-09-28T13:20:07.000Z</time>
      </trkpt>
      <trkpt lat="40.33509" lon="20.35376">
        <ele>795.15002441406</ele>
        <time>2023-09-28T13:20:06.000Z</time>
      </trkpt>
      <trkpt lat="40.33516" lon="20.35387">
        <ele>795.63000488281</ele>
        <time>2023-09-28T13:20:05.000Z</time>
      </trkpt>
      <trkpt lat="40.3352" lon="20.35396">
        <ele>795.63000488281</ele>
        <time>2023-09-28T13:20:04.000Z</time>
      </trkpt>
      <trkpt lat="40.33521" lon="20.35406">
        <ele>796.10998535156</ele>
        <time>2023-09-28T13:20:03.000Z</time>
      </trkpt>
      <trkpt lat="40.3352" lon="20.35416">
        <ele>796.10998535156</ele>
        <time>2023-09-28T13:20:02.000Z</time>
      </trkpt>
      <trkpt lat="40.3352" lon="20.35418">
        <ele>796.10998535156</ele>
        <time>2023-09-28T13:20:01.000Z</time>
      </trkpt>
      <trkpt lat="40.33509" lon="20.3546">
        <ele>795.63000488281</ele>
        <time>2023-09-28T13:19:58.000Z</time>
      </trkpt>
      <trkpt lat="40.33505" lon="20.35467">
        <ele>796.10998535156</ele>
        <time>2023-09-28T13:19:57.000Z</time>
      </trkpt>
      <trkpt lat="40.335" lon="20.35473">
        <ele>797.07000732422</ele>
        <time>2023-09-28T13:19:56.000Z</time>
      </trkpt>
      <trkpt lat="40.33493" lon="20.35477">
        <ele>797.54998779297</ele>
        <time>2023-09-28T13:19:55.000Z</time>
      </trkpt>
      <trkpt lat="40.33485" lon="20.3548">
        <ele>798.03002929688</ele>
        <time>2023-09-28T13:19:54.000Z</time>
      </trkpt>
      <trkpt lat="40.33477" lon="20.35482">
        <ele>798.51000976562</ele>
        <time>2023-09-28T13:19:53.000Z</time>
      </trkpt>
      <trkpt lat="40.33459" lon="20.35484">
        <ele>799.46997070312</ele>
        <time>2023-09-28T13:19:51.000Z</time>
      </trkpt>
      <trkpt lat="40.33452" lon="20.35486">
        <ele>799.95001220703</ele>
        <time>2023-09-28T13:19:50.000Z</time>
      </trkpt>
      <trkpt lat="40.33445" lon="20.35488">
        <ele>800.91998291016</ele>
        <time>2023-09-28T13:19:49.000Z</time>
      </trkpt>
      <trkpt lat="40.33438" lon="20.35492">
        <ele>801.88000488281</ele>
        <time>2023-09-28T13:19:48.000Z</time>
      </trkpt>
      <trkpt lat="40.33433" lon="20.35499">
        <ele>802.84002685547</ele>
        <time>2023-09-28T13:19:47.000Z</time>
      </trkpt>
      <trkpt lat="40.33428" lon="20.35506">
        <ele>803.32000732422</ele>
        <time>2023-09-28T13:19:46.000Z</time>
      </trkpt>
      <trkpt lat="40.33424" lon="20.35513">
        <ele>804.28002929688</ele>
        <time>2023-09-28T13:19:45.000Z</time>
      </trkpt>
      <trkpt lat="40.33418" lon="20.35529">
        <ele>804.76000976562</ele>
        <time>2023-09-28T13:19:44.000Z</time>
      </trkpt>
      <trkpt lat="40.33411" lon="20.35555">
        <ele>806.67999267578</ele>
        <time>2023-09-28T13:19:42.000Z</time>
      </trkpt>
      <trkpt lat="40.33407" lon="20.35566">
        <ele>807.15997314453</ele>
        <time>2023-09-28T13:19:41.000Z</time>
      </trkpt>
      <trkpt lat="40.33395" lon="20.35597">
        <ele>809.57000732422</ele>
        <time>2023-09-28T13:19:39.000Z</time>
      </trkpt>
      <trkpt lat="40.33392" lon="20.35602">
        <ele>810.04998779297</ele>
        <time>2023-09-28T13:19:38.000Z</time>
      </trkpt>
      <trkpt lat="40.33384" lon="20.35617">
        <ele>811.96997070312</ele>
        <time>2023-09-28T13:19:37.000Z</time>
      </trkpt>
      <trkpt lat="40.33381" lon="20.35625">
        <ele>812.92999267578</ele>
        <time>2023-09-28T13:19:36.000Z</time>
      </trkpt>
      <trkpt lat="40.33379" lon="20.35632">
        <ele>814.36999511719</ele>
        <time>2023-09-28T13:19:35.000Z</time>
      </trkpt>
      <trkpt lat="40.33379" lon="20.35637">
        <ele>814.84997558594</ele>
        <time>2023-09-28T13:19:34.000Z</time>
      </trkpt>
      <trkpt lat="40.33382" lon="20.35643">
        <ele>815.82000732422</ele>
        <time>2023-09-28T13:19:33.000Z</time>
      </trkpt>
      <trkpt lat="40.33386" lon="20.35648">
        <ele>816.78002929688</ele>
        <time>2023-09-28T13:19:32.000Z</time>
      </trkpt>
      <trkpt lat="40.33391" lon="20.3565">
        <ele>817.26000976562</ele>
        <time>2023-09-28T13:19:31.000Z</time>
      </trkpt>
      <trkpt lat="40.33397" lon="20.35651">
        <ele>817.26000976562</ele>
        <time>2023-09-28T13:19:30.000Z</time>
      </trkpt>
      <trkpt lat="40.33403" lon="20.35649">
        <ele>817.73999023438</ele>
        <time>2023-09-28T13:19:29.000Z</time>
      </trkpt>
      <trkpt lat="40.33413" lon="20.35645">
        <ele>818.70001220703</ele>
        <time>2023-09-28T13:19:28.000Z</time>
      </trkpt>
      <trkpt lat="40.3342" lon="20.35644">
        <ele>819.17999267578</ele>
        <time>2023-09-28T13:19:27.000Z</time>
      </trkpt>
      <trkpt lat="40.33427" lon="20.35646">
        <ele>820.14001464844</ele>
        <time>2023-09-28T13:19:26.000Z</time>
      </trkpt>
      <trkpt lat="40.33432" lon="20.3565">
        <ele>821.09997558594</ele>
        <time>2023-09-28T13:19:25.000Z</time>
      </trkpt>
      <trkpt lat="40.33439" lon="20.35658">
        <ele>821.58001708984</ele>
        <time>2023-09-28T13:19:24.000Z</time>
      </trkpt>
      <trkpt lat="40.33445" lon="20.35665">
        <ele>822.54998779297</ele>
        <time>2023-09-28T13:19:23.000Z</time>
      </trkpt>
      <trkpt lat="40.33451" lon="20.35669">
        <ele>822.54998779297</ele>
        <time>2023-09-28T13:19:22.000Z</time>
      </trkpt>
      <trkpt lat="40.33457" lon="20.35672">
        <ele>822.54998779297</ele>
        <time>2023-09-28T13:19:21.000Z</time>
      </trkpt>
      <trkpt lat="40.33468" lon="20.35675">
        <ele>823.51000976562</ele>
        <time>2023-09-28T13:19:20.000Z</time>
      </trkpt>
      <trkpt lat="40.33477" lon="20.35678">
        <ele>823.51000976562</ele>
        <time>2023-09-28T13:19:19.000Z</time>
      </trkpt>
      <trkpt lat="40.33483" lon="20.35683">
        <ele>824.46997070312</ele>
        <time>2023-09-28T13:19:18.000Z</time>
      </trkpt>
      <trkpt lat="40.33489" lon="20.35691">
        <ele>825.42999267578</ele>
        <time>2023-09-28T13:19:17.000Z</time>
      </trkpt>
      <trkpt lat="40.33492" lon="20.35701">
        <ele>826.39001464844</ele>
        <time>2023-09-28T13:19:16.000Z</time>
      </trkpt>
      <trkpt lat="40.33497" lon="20.35727">
        <ele>827.83001708984</ele>
        <time>2023-09-28T13:19:14.000Z</time>
      </trkpt>
      <trkpt lat="40.335" lon="20.35736">
        <ele>828.30999755859</ele>
        <time>2023-09-28T13:19:13.000Z</time>
      </trkpt>
      <trkpt lat="40.33504" lon="20.35743">
        <ele>828.78997802734</ele>
        <time>2023-09-28T13:19:12.000Z</time>
      </trkpt>
      <trkpt lat="40.33508" lon="20.35748">
        <ele>829.76000976562</ele>
        <time>2023-09-28T13:19:11.000Z</time>
      </trkpt>
      <trkpt lat="40.33513" lon="20.35751">
        <ele>829.76000976562</ele>
        <time>2023-09-28T13:19:10.000Z</time>
      </trkpt>
      <trkpt lat="40.33519" lon="20.35751">
        <ele>829.76000976562</ele>
        <time>2023-09-28T13:19:09.000Z</time>
      </trkpt>
      <trkpt lat="40.33524" lon="20.35751">
        <ele>829.76000976562</ele>
        <time>2023-09-28T13:19:08.000Z</time>
      </trkpt>
      <trkpt lat="40.33541" lon="20.3575">
        <ele>829.27001953125</ele>
        <time>2023-09-28T13:19:07.000Z</time>
      </trkpt>
      <trkpt lat="40.3355" lon="20.35751">
        <ele>829.76000976562</ele>
        <time>2023-09-28T13:19:06.000Z</time>
      </trkpt>
      <trkpt lat="40.33558" lon="20.35755">
        <ele>831.20001220703</ele>
        <time>2023-09-28T13:19:05.000Z</time>
      </trkpt>
      <trkpt lat="40.33563" lon="20.35762">
        <ele>832.15997314453</ele>
        <time>2023-09-28T13:19:04.000Z</time>
      </trkpt>
      <trkpt lat="40.33568" lon="20.35772">
        <ele>833.11999511719</ele>
        <time>2023-09-28T13:19:03.000Z</time>
      </trkpt>
      <trkpt lat="40.33569" lon="20.35779">
        <ele>833.59997558594</ele>
        <time>2023-09-28T13:19:02.000Z</time>
      </trkpt>
      <trkpt lat="40.33573" lon="20.35798">
        <ele>835.52001953125</ele>
        <time>2023-09-28T13:19:01.000Z</time>
      </trkpt>
      <trkpt lat="40.33575" lon="20.35808">
        <ele>836.47998046875</ele>
        <time>2023-09-28T13:19:00.000Z</time>
      </trkpt>
      <trkpt lat="40.33581" lon="20.35828">
        <ele>838.40997314453</ele>
        <time>2023-09-28T13:18:59.000Z</time>
      </trkpt>
      <trkpt lat="40.33583" lon="20.35834">
        <ele>838.89001464844</ele>
        <time>2023-09-28T13:18:58.000Z</time>
      </trkpt>
      <trkpt lat="40.33587" lon="20.35853">
        <ele>840.33001708984</ele>
        <time>2023-09-28T13:18:57.000Z</time>
      </trkpt>
      <trkpt lat="40.3359" lon="20.35862">
        <ele>840.80999755859</ele>
        <time>2023-09-28T13:18:56.000Z</time>
      </trkpt>
      <trkpt lat="40.33595" lon="20.35868">
        <ele>841.28997802734</ele>
        <time>2023-09-28T13:18:55.000Z</time>
      </trkpt>
      <trkpt lat="40.336" lon="20.3587">
        <ele>841.28997802734</ele>
        <time>2023-09-28T13:18:54.000Z</time>
      </trkpt>
      <trkpt lat="40.33606" lon="20.35869">
        <ele>841.77001953125</ele>
        <time>2023-09-28T13:18:53.000Z</time>
      </trkpt>
      <trkpt lat="40.33613" lon="20.35866">
        <ele>841.77001953125</ele>
        <time>2023-09-28T13:18:52.000Z</time>
      </trkpt>
      <trkpt lat="40.33619" lon="20.35865">
        <ele>841.77001953125</ele>
        <time>2023-09-28T13:18:51.000Z</time>
      </trkpt>
      <trkpt lat="40.33624" lon="20.35868">
        <ele>842.25</ele>
        <time>2023-09-28T13:18:50.000Z</time>
      </trkpt>
      <trkpt lat="40.33632" lon="20.35876">
        <ele>843.21002197266</ele>
        <time>2023-09-28T13:18:49.000Z</time>
      </trkpt>
      <trkpt lat="40.33638" lon="20.35884">
        <ele>844.17999267578</ele>
        <time>2023-09-28T13:18:48.000Z</time>
      </trkpt>
      <trkpt lat="40.33645" lon="20.3589">
        <ele>844.65997314453</ele>
        <time>2023-09-28T13:18:47.000Z</time>
      </trkpt>
      <trkpt lat="40.33651" lon="20.35894">
        <ele>844.65997314453</ele>
        <time>2023-09-28T13:18:46.000Z</time>
      </trkpt>
      <trkpt lat="40.33658" lon="20.35899">
        <ele>844.65997314453</ele>
        <time>2023-09-28T13:18:45.000Z</time>
      </trkpt>
      <trkpt lat="40.33664" lon="20.35907">
        <ele>845.61999511719</ele>
        <time>2023-09-28T13:18:44.000Z</time>
      </trkpt>
      <trkpt lat="40.3367" lon="20.35917">
        <ele>846.58001708984</ele>
        <time>2023-09-28T13:18:43.000Z</time>
      </trkpt>
      <trkpt lat="40.33675" lon="20.35926">
        <ele>847.53997802734</ele>
        <time>2023-09-28T13:18:42.000Z</time>
      </trkpt>
      <trkpt lat="40.33679" lon="20.35932">
        <ele>848.02001953125</ele>
        <time>2023-09-28T13:18:41.000Z</time>
      </trkpt>
      <trkpt lat="40.33685" lon="20.35936">
        <ele>848.02001953125</ele>
        <time>2023-09-28T13:18:40.000Z</time>
      </trkpt>
      <trkpt lat="40.33686" lon="20.35937">
        <ele>848.5</ele>
        <time>2023-09-28T13:18:39.000Z</time>
      </trkpt>
      <trkpt lat="40.33701" lon="20.35939">
        <ele>849.46002197266</ele>
        <time>2023-09-28T13:18:38.000Z</time>
      </trkpt>
      <trkpt lat="40.33708" lon="20.35941">
        <ele>849.94000244141</ele>
        <time>2023-09-28T13:18:37.000Z</time>
      </trkpt>
      <trkpt lat="40.33715" lon="20.35946">
        <ele>849.94000244141</ele>
        <time>2023-09-28T13:18:36.000Z</time>
      </trkpt>
      <trkpt lat="40.33721" lon="20.35952">
        <ele>850.41998291016</ele>
        <time>2023-09-28T13:18:35.000Z</time>
      </trkpt>
      <trkpt lat="40.33723" lon="20.35961">
        <ele>850.90002441406</ele>
        <time>2023-09-28T13:18:34.000Z</time>
      </trkpt>
      <trkpt lat="40.33724" lon="20.3597">
        <ele>851.86999511719</ele>
        <time>2023-09-28T13:18:33.000Z</time>
      </trkpt>
      <trkpt lat="40.33722" lon="20.35976">
        <ele>852.34997558594</ele>
        <time>2023-09-28T13:18:32.000Z</time>
      </trkpt>
      <trkpt lat="40.33718" lon="20.35987">
        <ele>853.30999755859</ele>
        <time>2023-09-28T13:18:31.000Z</time>
      </trkpt>
      <trkpt lat="40.33716" lon="20.35997">
        <ele>853.30999755859</ele>
        <time>2023-09-28T13:18:30.000Z</time>
      </trkpt>
      <trkpt lat="40.33718" lon="20.36005">
        <ele>853.78997802734</ele>
        <time>2023-09-28T13:18:29.000Z</time>
      </trkpt>
      <trkpt lat="40.33722" lon="20.36012">
        <ele>854.27001953125</ele>
        <time>2023-09-28T13:18:28.000Z</time>
      </trkpt>
      <trkpt lat="40.33728" lon="20.36018">
        <ele>854.75</ele>
        <time>2023-09-28T13:18:27.000Z</time>
      </trkpt>
      <trkpt lat="40.33736" lon="20.36024">
        <ele>855.71002197266</ele>
        <time>2023-09-28T13:18:26.000Z</time>
      </trkpt>
      <trkpt lat="40.33743" lon="20.36029">
        <ele>856.19000244141</ele>
        <time>2023-09-28T13:18:25.000Z</time>
      </trkpt>
      <trkpt lat="40.33748" lon="20.36036">
        <ele>856.66998291016</ele>
        <time>2023-09-28T13:18:24.000Z</time>
      </trkpt>
      <trkpt lat="40.3375" lon="20.36044">
        <ele>857.15002441406</ele>
        <time>2023-09-28T13:18:23.000Z</time>
      </trkpt>
      <trkpt lat="40.3375" lon="20.36052">
        <ele>857.63000488281</ele>
        <time>2023-09-28T13:18:22.000Z</time>
      </trkpt>
      <trkpt lat="40.33746" lon="20.36059">
        <ele>858.10998535156</ele>
        <time>2023-09-28T13:18:21.000Z</time>
      </trkpt>
      <trkpt lat="40.3374" lon="20.36071">
        <ele>859.08001708984</ele>
        <time>2023-09-28T13:18:20.000Z</time>
      </trkpt>
      <trkpt lat="40.33736" lon="20.36082">
        <ele>859.55999755859</ele>
        <time>2023-09-28T13:18:19.000Z</time>
      </trkpt>
      <trkpt lat="40.33734" lon="20.36093">
        <ele>860.03997802734</ele>
        <time>2023-09-28T13:18:18.000Z</time>
      </trkpt>
      <trkpt lat="40.33734" lon="20.36104">
        <ele>860.03997802734</ele>
        <time>2023-09-28T13:18:17.000Z</time>
      </trkpt>
      <trkpt lat="40.33734" lon="20.36106">
        <ele>860.03997802734</ele>
        <time>2023-09-28T13:18:16.000Z</time>
      </trkpt>
      <trkpt lat="40.33738" lon="20.36125">
        <ele>860.52001953125</ele>
        <time>2023-09-28T13:18:15.000Z</time>
      </trkpt>
      <trkpt lat="40.33738" lon="20.36135">
        <ele>861</ele>
        <time>2023-09-28T13:18:14.000Z</time>
      </trkpt>
      <trkpt lat="40.33735" lon="20.36144">
        <ele>861.47998046875</ele>
        <time>2023-09-28T13:18:13.000Z</time>
      </trkpt>
      <trkpt lat="40.33729" lon="20.36152">
        <ele>861.96002197266</ele>
        <time>2023-09-28T13:18:12.000Z</time>
      </trkpt>
      <trkpt lat="40.33722" lon="20.36157">
        <ele>862.44000244141</ele>
        <time>2023-09-28T13:18:11.000Z</time>
      </trkpt>
      <trkpt lat="40.33714" lon="20.36159">
        <ele>861.96002197266</ele>
        <time>2023-09-28T13:18:10.000Z</time>
      </trkpt>
      <trkpt lat="40.33707" lon="20.36158">
        <ele>862.44000244141</ele>
        <time>2023-09-28T13:18:09.000Z</time>
      </trkpt>
      <trkpt lat="40.33697" lon="20.36153">
        <ele>862.91998291016</ele>
        <time>2023-09-28T13:18:08.000Z</time>
      </trkpt>
      <trkpt lat="40.33689" lon="20.36149">
        <ele>863.40002441406</ele>
        <time>2023-09-28T13:18:07.000Z</time>
      </trkpt>
      <trkpt lat="40.33679" lon="20.36145">
        <ele>863.88000488281</ele>
        <time>2023-09-28T13:18:06.000Z</time>
      </trkpt>
      <trkpt lat="40.33671" lon="20.36142">
        <ele>863.88000488281</ele>
        <time>2023-09-28T13:18:05.000Z</time>
      </trkpt>
      <trkpt lat="40.33664" lon="20.36141">
        <ele>864.35998535156</ele>
        <time>2023-09-28T13:18:04.000Z</time>
      </trkpt>
      <trkpt lat="40.33658" lon="20.36144">
        <ele>864.35998535156</ele>
        <time>2023-09-28T13:18:03.000Z</time>
      </trkpt>
      <trkpt lat="40.33652" lon="20.3615">
        <ele>864.84002685547</ele>
        <time>2023-09-28T13:18:02.000Z</time>
      </trkpt>
      <trkpt lat="40.33647" lon="20.36157">
        <ele>864.84002685547</ele>
        <time>2023-09-28T13:18:01.000Z</time>
      </trkpt>
      <trkpt lat="40.3364" lon="20.36166">
        <ele>865.32000732422</ele>
        <time>2023-09-28T13:18:00.000Z</time>
      </trkpt>
      <trkpt lat="40.33634" lon="20.36173">
        <ele>865.79998779297</ele>
        <time>2023-09-28T13:17:59.000Z</time>
      </trkpt>
      <trkpt lat="40.33627" lon="20.36177">
        <ele>866.77001953125</ele>
        <time>2023-09-28T13:17:58.000Z</time>
      </trkpt>
      <trkpt lat="40.33605" lon="20.36185">
        <ele>870.13000488281</ele>
        <time>2023-09-28T13:17:56.000Z</time>
      </trkpt>
      <trkpt lat="40.33585" lon="20.36191">
        <ele>872.53002929688</ele>
        <time>2023-09-28T13:17:54.000Z</time>
      </trkpt>
      <trkpt lat="40.33578" lon="20.36195">
        <ele>873.5</ele>
        <time>2023-09-28T13:17:53.000Z</time>
      </trkpt>
      <trkpt lat="40.33571" lon="20.36199">
        <ele>874.46002197266</ele>
        <time>2023-09-28T13:17:52.000Z</time>
      </trkpt>
      <trkpt lat="40.33565" lon="20.36202">
        <ele>875.41998291016</ele>
        <time>2023-09-28T13:17:51.000Z</time>
      </trkpt>
      <trkpt lat="40.33561" lon="20.36207">
        <ele>875.90002441406</ele>
        <time>2023-09-28T13:17:50.000Z</time>
      </trkpt>
      <trkpt lat="40.33557" lon="20.36214">
        <ele>876.38000488281</ele>
        <time>2023-09-28T13:17:49.000Z</time>
      </trkpt>
      <trkpt lat="40.33555" lon="20.3622">
        <ele>877.34002685547</ele>
        <time>2023-09-28T13:17:48.000Z</time>
      </trkpt>
      <trkpt lat="40.33553" lon="20.36228">
        <ele>876.85998535156</ele>
        <time>2023-09-28T13:17:47.000Z</time>
      </trkpt>
      <trkpt lat="40.33552" lon="20.36237">
        <ele>877.34002685547</ele>
        <time>2023-09-28T13:17:46.000Z</time>
      </trkpt>
      <trkpt lat="40.33552" lon="20.36247">
        <ele>877.82000732422</ele>
        <time>2023-09-28T13:17:45.000Z</time>
      </trkpt>
      <trkpt lat="40.33552" lon="20.36255">
        <ele>877.82000732422</ele>
        <time>2023-09-28T13:17:44.000Z</time>
      </trkpt>
      <trkpt lat="40.33552" lon="20.36314">
        <ele>878.78002929688</ele>
        <time>2023-09-28T13:17:40.000Z</time>
      </trkpt>
      <trkpt lat="40.33552" lon="20.36325">
        <ele>878.78002929688</ele>
        <time>2023-09-28T13:17:39.000Z</time>
      </trkpt>
      <trkpt lat="40.3355" lon="20.36334">
        <ele>879.26000976562</ele>
        <time>2023-09-28T13:17:38.000Z</time>
      </trkpt>
      <trkpt lat="40.33545" lon="20.3634">
        <ele>879.73999023438</ele>
        <time>2023-09-28T13:17:37.000Z</time>
      </trkpt>
      <trkpt lat="40.33539" lon="20.36343">
        <ele>880.21997070312</ele>
        <time>2023-09-28T13:17:36.000Z</time>
      </trkpt>
      <trkpt lat="40.33532" lon="20.36343">
        <ele>880.71002197266</ele>
        <time>2023-09-28T13:17:35.000Z</time>
      </trkpt>
      <trkpt lat="40.33524" lon="20.36339">
        <ele>881.19000244141</ele>
        <time>2023-09-28T13:17:34.000Z</time>
      </trkpt>
      <trkpt lat="40.33518" lon="20.36331">
        <ele>882.15002441406</ele>
        <time>2023-09-28T13:17:33.000Z</time>
      </trkpt>
      <trkpt lat="40.33514" lon="20.36324">
        <ele>883.10998535156</ele>
        <time>2023-09-28T13:17:32.000Z</time>
      </trkpt>
      <trkpt lat="40.33511" lon="20.36316">
        <ele>884.07000732422</ele>
        <time>2023-09-28T13:17:31.000Z</time>
      </trkpt>
      <trkpt lat="40.33506" lon="20.36302">
        <ele>885.51000976562</ele>
        <time>2023-09-28T13:17:30.000Z</time>
      </trkpt>
      <trkpt lat="40.33502" lon="20.36295">
        <ele>885.98999023438</ele>
        <time>2023-09-28T13:17:29.000Z</time>
      </trkpt>
      <trkpt lat="40.33497" lon="20.36289">
        <ele>886.95001220703</ele>
        <time>2023-09-28T13:17:28.000Z</time>
      </trkpt>
      <trkpt lat="40.33489" lon="20.36283">
        <ele>887.42999267578</ele>
        <time>2023-09-28T13:17:27.000Z</time>
      </trkpt>
      <trkpt lat="40.33481" lon="20.36278">
        <ele>888.40002441406</ele>
        <time>2023-09-28T13:17:26.000Z</time>
      </trkpt>
      <trkpt lat="40.33473" lon="20.36275">
        <ele>888.88000488281</ele>
        <time>2023-09-28T13:17:25.000Z</time>
      </trkpt>
      <trkpt lat="40.33467" lon="20.36275">
        <ele>889.84002685547</ele>
        <time>2023-09-28T13:17:24.000Z</time>
      </trkpt>
      <trkpt lat="40.33461" lon="20.36278">
        <ele>890.32000732422</ele>
        <time>2023-09-28T13:17:23.000Z</time>
      </trkpt>
      <trkpt lat="40.33455" lon="20.36283">
        <ele>891.28002929688</ele>
        <time>2023-09-28T13:17:22.000Z</time>
      </trkpt>
      <trkpt lat="40.33451" lon="20.3629">
        <ele>891.76000976562</ele>
        <time>2023-09-28T13:17:21.000Z</time>
      </trkpt>
      <trkpt lat="40.33448" lon="20.36299">
        <ele>892.23999023438</ele>
        <time>2023-09-28T13:17:20.000Z</time>
      </trkpt>
      <trkpt lat="40.33447" lon="20.36308">
        <ele>892.71997070312</ele>
        <time>2023-09-28T13:17:19.000Z</time>
      </trkpt>
      <trkpt lat="40.33448" lon="20.36315">
        <ele>893.20001220703</ele>
        <time>2023-09-28T13:17:18.000Z</time>
      </trkpt>
      <trkpt lat="40.3345" lon="20.36327">
        <ele>894.64001464844</ele>
        <time>2023-09-28T13:17:17.000Z</time>
      </trkpt>
      <trkpt lat="40.3345" lon="20.36337">
        <ele>895.11999511719</ele>
        <time>2023-09-28T13:17:16.000Z</time>
      </trkpt>
      <trkpt lat="40.33448" lon="20.36348">
        <ele>897.04998779297</ele>
        <time>2023-09-28T13:17:15.000Z</time>
      </trkpt>
      <trkpt lat="40.33447" lon="20.36352">
        <ele>897.04998779297</ele>
        <time>2023-09-28T13:17:14.000Z</time>
      </trkpt>
      <trkpt lat="40.33437" lon="20.36381">
        <ele>900.40997314453</ele>
        <time>2023-09-28T13:17:12.000Z</time>
      </trkpt>
      <trkpt lat="40.33434" lon="20.3639">
        <ele>901.36999511719</ele>
        <time>2023-09-28T13:17:11.000Z</time>
      </trkpt>
      <trkpt lat="40.33432" lon="20.36402">
        <ele>902.82000732422</ele>
        <time>2023-09-28T13:17:10.000Z</time>
      </trkpt>
      <trkpt lat="40.33429" lon="20.3641">
        <ele>903.29998779297</ele>
        <time>2023-09-28T13:17:09.000Z</time>
      </trkpt>
      <trkpt lat="40.33426" lon="20.36416">
        <ele>904.26000976562</ele>
        <time>2023-09-28T13:17:08.000Z</time>
      </trkpt>
      <trkpt lat="40.3342" lon="20.36421">
        <ele>905.21997070312</ele>
        <time>2023-09-28T13:17:07.000Z</time>
      </trkpt>
      <trkpt lat="40.33413" lon="20.36422">
        <ele>906.17999267578</ele>
        <time>2023-09-28T13:17:06.000Z</time>
      </trkpt>
      <trkpt lat="40.33405" lon="20.36421">
        <ele>907.61999511719</ele>
        <time>2023-09-28T13:17:05.000Z</time>
      </trkpt>
      <trkpt lat="40.33396" lon="20.36417">
        <ele>909.05999755859</ele>
        <time>2023-09-28T13:17:04.000Z</time>
      </trkpt>
      <trkpt lat="40.3339" lon="20.36413">
        <ele>910.03002929688</ele>
        <time>2023-09-28T13:17:03.000Z</time>
      </trkpt>
      <trkpt lat="40.33382" lon="20.36406">
        <ele>911.46997070312</ele>
        <time>2023-09-28T13:17:02.000Z</time>
      </trkpt>
      <trkpt lat="40.33362" lon="20.3639">
        <ele>914.34997558594</ele>
        <time>2023-09-28T13:17:00.000Z</time>
      </trkpt>
      <trkpt lat="40.33353" lon="20.36385">
        <ele>915.30999755859</ele>
        <time>2023-09-28T13:16:59.000Z</time>
      </trkpt>
      <trkpt lat="40.33347" lon="20.36382">
        <ele>916.27001953125</ele>
        <time>2023-09-28T13:16:58.000Z</time>
      </trkpt>
      <trkpt lat="40.33331" lon="20.36378">
        <ele>917.71997070312</ele>
        <time>2023-09-28T13:16:57.000Z</time>
      </trkpt>
      <trkpt lat="40.33323" lon="20.36374">
        <ele>918.67999267578</ele>
        <time>2023-09-28T13:16:56.000Z</time>
      </trkpt>
      <trkpt lat="40.33316" lon="20.36371">
        <ele>919.64001464844</ele>
        <time>2023-09-28T13:16:55.000Z</time>
      </trkpt>
      <trkpt lat="40.33303" lon="20.36365">
        <ele>921.08001708984</ele>
        <time>2023-09-28T13:16:54.000Z</time>
      </trkpt>
      <trkpt lat="40.33294" lon="20.36361">
        <ele>922.03997802734</ele>
        <time>2023-09-28T13:16:53.000Z</time>
      </trkpt>
      <trkpt lat="40.33285" lon="20.36361">
        <ele>922.52001953125</ele>
        <time>2023-09-28T13:16:52.000Z</time>
      </trkpt>
      <trkpt lat="40.33283" lon="20.36361">
        <ele>923</ele>
        <time>2023-09-28T13:16:51.000Z</time>
      </trkpt>
      <trkpt lat="40.33263" lon="20.36364">
        <ele>924.92999267578</ele>
        <time>2023-09-28T13:16:50.000Z</time>
      </trkpt>
      <trkpt lat="40.33255" lon="20.36365">
        <ele>925.89001464844</ele>
        <time>2023-09-28T13:16:49.000Z</time>
      </trkpt>
      <trkpt lat="40.33242" lon="20.36365">
        <ele>926.84997558594</ele>
        <time>2023-09-28T13:16:48.000Z</time>
      </trkpt>
      <trkpt lat="40.33233" lon="20.36367">
        <ele>927.80999755859</ele>
        <time>2023-09-28T13:16:47.000Z</time>
      </trkpt>
      <trkpt lat="40.33224" lon="20.3637">
        <ele>928.77001953125</ele>
        <time>2023-09-28T13:16:46.000Z</time>
      </trkpt>
      <trkpt lat="40.33216" lon="20.36375">
        <ele>929.72998046875</ele>
        <time>2023-09-28T13:16:45.000Z</time>
      </trkpt>
      <trkpt lat="40.33208" lon="20.36382">
        <ele>930.69000244141</ele>
        <time>2023-09-28T13:16:44.000Z</time>
      </trkpt>
      <trkpt lat="40.33203" lon="20.3639">
        <ele>931.16998291016</ele>
        <time>2023-09-28T13:16:43.000Z</time>
      </trkpt>
      <trkpt lat="40.33199" lon="20.36398">
        <ele>931.65002441406</ele>
        <time>2023-09-28T13:16:42.000Z</time>
      </trkpt>
      <trkpt lat="40.33196" lon="20.36408">
        <ele>932.61999511719</ele>
        <time>2023-09-28T13:16:41.000Z</time>
      </trkpt>
      <trkpt lat="40.33194" lon="20.36415">
        <ele>933.09997558594</ele>
        <time>2023-09-28T13:16:40.000Z</time>
      </trkpt>
      <trkpt lat="40.3319" lon="20.3644">
        <ele>935.02001953125</ele>
        <time>2023-09-28T13:16:38.000Z</time>
      </trkpt>
      <trkpt lat="40.33187" lon="20.36449">
        <ele>935.97998046875</ele>
        <time>2023-09-28T13:16:37.000Z</time>
      </trkpt>
      <trkpt lat="40.33183" lon="20.36457">
        <ele>937.41998291016</ele>
        <time>2023-09-28T13:16:36.000Z</time>
      </trkpt>
      <trkpt lat="40.33177" lon="20.36462">
        <ele>938.85998535156</ele>
        <time>2023-09-28T13:16:35.000Z</time>
      </trkpt>
      <trkpt lat="40.33169" lon="20.36466">
        <ele>939.83001708984</ele>
        <time>2023-09-28T13:16:34.000Z</time>
      </trkpt>
      <trkpt lat="40.33161" lon="20.36469">
        <ele>940.78997802734</ele>
        <time>2023-09-28T13:16:33.000Z</time>
      </trkpt>
      <trkpt lat="40.33149" lon="20.3647">
        <ele>942.71002197266</ele>
        <time>2023-09-28T13:16:32.000Z</time>
      </trkpt>
      <trkpt lat="40.3314" lon="20.36468">
        <ele>943.66998291016</ele>
        <time>2023-09-28T13:16:31.000Z</time>
      </trkpt>
      <trkpt lat="40.33133" lon="20.36465">
        <ele>944.15002441406</ele>
        <time>2023-09-28T13:16:30.000Z</time>
      </trkpt>
      <trkpt lat="40.33131" lon="20.36464">
        <ele>944.63000488281</ele>
        <time>2023-09-28T13:16:29.000Z</time>
      </trkpt>
      <trkpt lat="40.33105" lon="20.36448">
        <ele>947.03997802734</ele>
        <time>2023-09-28T13:16:27.000Z</time>
      </trkpt>
      <trkpt lat="40.33098" lon="20.36443">
        <ele>947.52001953125</ele>
        <time>2023-09-28T13:16:26.000Z</time>
      </trkpt>
      <trkpt lat="40.33087" lon="20.36434">
        <ele>948.47998046875</ele>
        <time>2023-09-28T13:16:25.000Z</time>
      </trkpt>
      <trkpt lat="40.33078" lon="20.36429">
        <ele>948.96002197266</ele>
        <time>2023-09-28T13:16:24.000Z</time>
      </trkpt>
      <trkpt lat="40.33069" lon="20.36426">
        <ele>949.44000244141</ele>
        <time>2023-09-28T13:16:23.000Z</time>
      </trkpt>
      <trkpt lat="40.3306" lon="20.36425">
        <ele>949.91998291016</ele>
        <time>2023-09-28T13:16:22.000Z</time>
      </trkpt>
      <trkpt lat="40.33051" lon="20.36426">
        <ele>950.88000488281</ele>
        <time>2023-09-28T13:16:21.000Z</time>
      </trkpt>
      <trkpt lat="40.33046" lon="20.36427">
        <ele>951.35998535156</ele>
        <time>2023-09-28T13:16:20.000Z</time>
      </trkpt>
      <trkpt lat="40.33039" lon="20.3643">
        <ele>952.32000732422</ele>
        <time>2023-09-28T13:16:19.000Z</time>
      </trkpt>
      <trkpt lat="40.33011" lon="20.36444">
        <ele>957.13000488281</ele>
        <time>2023-09-28T13:16:17.000Z</time>
      </trkpt>
      <trkpt lat="40.33005" lon="20.36447">
        <ele>958.09002685547</ele>
        <time>2023-09-28T13:16:16.000Z</time>
      </trkpt>
      <trkpt lat="40.32999" lon="20.3645">
        <ele>958.57000732422</ele>
        <time>2023-09-28T13:16:15.000Z</time>
      </trkpt>
      <trkpt lat="40.32982" lon="20.3646">
        <ele>960.97998046875</ele>
        <time>2023-09-28T13:16:14.000Z</time>
      </trkpt>
      <trkpt lat="40.32964" lon="20.3647">
        <ele>963.85998535156</ele>
        <time>2023-09-28T13:16:12.000Z</time>
      </trkpt>
      <trkpt lat="40.32957" lon="20.36473">
        <ele>965.29998779297</ele>
        <time>2023-09-28T13:16:11.000Z</time>
      </trkpt>
      <trkpt lat="40.3295" lon="20.36476">
        <ele>966.73999023438</ele>
        <time>2023-09-28T13:16:10.000Z</time>
      </trkpt>
      <trkpt lat="40.32946" lon="20.3648">
        <ele>967.70001220703</ele>
        <time>2023-09-28T13:16:09.000Z</time>
      </trkpt>
      <trkpt lat="40.32944" lon="20.36486">
        <ele>968.66998291016</ele>
        <time>2023-09-28T13:16:08.000Z</time>
      </trkpt>
      <trkpt lat="40.32943" lon="20.3649">
        <ele>969.15002441406</ele>
        <time>2023-09-28T13:16:07.000Z</time>
      </trkpt>
      <trkpt lat="40.32943" lon="20.36495">
        <ele>969.63000488281</ele>
        <time>2023-09-28T13:16:06.000Z</time>
      </trkpt>
      <trkpt lat="40.32944" lon="20.365">
        <ele>970.10998535156</ele>
        <time>2023-09-28T13:16:05.000Z</time>
      </trkpt>
      <trkpt lat="40.32932" lon="20.36515">
        <ele>973.46997070312</ele>
        <time>2023-09-28T13:15:59.000Z</time>
      </trkpt>
      <trkpt lat="40.32929" lon="20.36514">
        <ele>973.95001220703</ele>
        <time>2023-09-28T13:15:58.000Z</time>
      </trkpt>
      <trkpt lat="40.3291" lon="20.36507">
        <ele>975.39001464844</ele>
        <time>2023-09-28T13:15:51.000Z</time>
      </trkpt>
      <trkpt lat="40.32903" lon="20.36489">
        <ele>976.35998535156</ele>
        <time>2023-09-28T13:15:43.000Z</time>
      </trkpt>
      <trkpt lat="40.32913" lon="20.36484">
        <ele>976.35998535156</ele>
        <time>2023-09-28T13:15:37.000Z</time>
      </trkpt>
      <trkpt lat="40.32916" lon="20.36486">
        <ele>977.32000732422</ele>
        <time>2023-09-28T13:12:35.000Z</time>
      </trkpt>
      <trkpt lat="40.3292" lon="20.36497">
        <ele>977.32000732422</ele>
        <time>2023-09-28T13:12:29.000Z</time>
      </trkpt>
      <trkpt lat="40.32923" lon="20.36503">
        <ele>977.32000732422</ele>
        <time>2023-09-28T13:12:28.000Z</time>
      </trkpt>
      <trkpt lat="40.32925" lon="20.36507">
        <ele>977.32000732422</ele>
        <time>2023-09-28T13:12:27.000Z</time>
      </trkpt>
      <trkpt lat="40.32935" lon="20.36512">
        <ele>976.35998535156</ele>
        <time>2023-09-28T13:12:24.000Z</time>
      </trkpt>
      <trkpt lat="40.32947" lon="20.36511">
        <ele>975.39001464844</ele>
        <time>2023-09-28T13:12:19.000Z</time>
      </trkpt>
      <trkpt lat="40.32949" lon="20.3651">
        <ele>976.35998535156</ele>
        <time>2023-09-28T13:12:13.000Z</time>
      </trkpt>
      <trkpt lat="40.32955" lon="20.36516">
        <ele>977.32000732422</ele>
        <time>2023-09-28T13:12:07.000Z</time>
      </trkpt>
      <trkpt lat="40.32959" lon="20.36519">
        <ele>977.79998779297</ele>
        <time>2023-09-28T13:12:06.000Z</time>
      </trkpt>
      <trkpt lat="40.32966" lon="20.36523">
        <ele>978.76000976562</ele>
        <time>2023-09-28T13:12:05.000Z</time>
      </trkpt>
      <trkpt lat="40.32983" lon="20.36533">
        <ele>980.67999267578</ele>
        <time>2023-09-28T13:12:03.000Z</time>
      </trkpt>
      <trkpt lat="40.32991" lon="20.36539">
        <ele>982.11999511719</ele>
        <time>2023-09-28T13:12:02.000Z</time>
      </trkpt>
      <trkpt lat="40.33004" lon="20.36549">
        <ele>984.53002929688</ele>
        <time>2023-09-28T13:12:01.000Z</time>
      </trkpt>
      <trkpt lat="40.33014" lon="20.36557">
        <ele>986.45001220703</ele>
        <time>2023-09-28T13:12:00.000Z</time>
      </trkpt>
      <trkpt lat="40.33016" lon="20.36558">
        <ele>986.45001220703</ele>
        <time>2023-09-28T13:11:59.000Z</time>
      </trkpt>
      <trkpt lat="40.33026" lon="20.36565">
        <ele>987.89001464844</ele>
        <time>2023-09-28T13:11:58.000Z</time>
      </trkpt>
      <trkpt lat="40.33094" lon="20.36615">
        <ele>997.02001953125</ele>
        <time>2023-09-28T13:11:53.000Z</time>
      </trkpt>
      <trkpt lat="40.33101" lon="20.36621">
        <ele>997.98999023438</ele>
        <time>2023-09-28T13:11:52.000Z</time>
      </trkpt>
      <trkpt lat="40.3313" lon="20.36644">
        <ele>1001.8300170898</ele>
        <time>2023-09-28T13:11:50.000Z</time>
      </trkpt>
      <trkpt lat="40.33138" lon="20.3665">
        <ele>1003.2700195312</ele>
        <time>2023-09-28T13:11:49.000Z</time>
      </trkpt>
      <trkpt lat="40.3315" lon="20.36657">
        <ele>1004.7199707031</ele>
        <time>2023-09-28T13:11:48.000Z</time>
      </trkpt>
      <trkpt lat="40.33157" lon="20.3666">
        <ele>1005.200012207</ele>
        <time>2023-09-28T13:11:47.000Z</time>
      </trkpt>
      <trkpt lat="40.33178" lon="20.3667">
        <ele>1007.5999755859</ele>
        <time>2023-09-28T13:11:46.000Z</time>
      </trkpt>
      <trkpt lat="40.33184" lon="20.36672">
        <ele>1008.5599975586</ele>
        <time>2023-09-28T13:11:45.000Z</time>
      </trkpt>
      <trkpt lat="40.33206" lon="20.36683">
        <ele>1011.4400024414</ele>
        <time>2023-09-28T13:11:44.000Z</time>
      </trkpt>
      <trkpt lat="40.33218" lon="20.36688">
        <ele>1012.4099731445</ele>
        <time>2023-09-28T13:11:43.000Z</time>
      </trkpt>
      <trkpt lat="40.33246" lon="20.36699">
        <ele>1014.8099975586</ele>
        <time>2023-09-28T13:11:41.000Z</time>
      </trkpt>
      <trkpt lat="40.33264" lon="20.36705">
        <ele>1014.8099975586</ele>
        <time>2023-09-28T13:11:40.000Z</time>
      </trkpt>
      <trkpt lat="40.33276" lon="20.36708">
        <ele>1014.3300170898</ele>
        <time>2023-09-28T13:11:39.000Z</time>
      </trkpt>
      <trkpt lat="40.33318" lon="20.36714">
        <ele>1011.4400024414</ele>
        <time>2023-09-28T13:11:36.000Z</time>
      </trkpt>
      <trkpt lat="40.33325" lon="20.36716">
        <ele>1010.9600219727</ele>
        <time>2023-09-28T13:11:35.000Z</time>
      </trkpt>
      <trkpt lat="40.33387" lon="20.36736">
        <ele>1014.3300170898</ele>
        <time>2023-09-28T13:11:31.000Z</time>
      </trkpt>
      <trkpt lat="40.33399" lon="20.36741">
        <ele>1015.7700195312</ele>
        <time>2023-09-28T13:11:30.000Z</time>
      </trkpt>
      <trkpt lat="40.33407" lon="20.36746">
        <ele>1016.7299804688</ele>
        <time>2023-09-28T13:11:29.000Z</time>
      </trkpt>
      <trkpt lat="40.33417" lon="20.36752">
        <ele>1018.6500244141</ele>
        <time>2023-09-28T13:11:28.000Z</time>
      </trkpt>
      <trkpt lat="40.3343" lon="20.36762">
        <ele>1021.0599975586</ele>
        <time>2023-09-28T13:11:27.000Z</time>
      </trkpt>
      <trkpt lat="40.33436" lon="20.36764">
        <ele>1021.5399780273</ele>
        <time>2023-09-28T13:11:26.000Z</time>
      </trkpt>
      <trkpt lat="40.33449" lon="20.36769">
        <ele>1022.9799804688</ele>
        <time>2023-09-28T13:11:25.000Z</time>
      </trkpt>
      <trkpt lat="40.33458" lon="20.36775">
        <ele>1024.4200439453</ele>
        <time>2023-09-28T13:11:24.000Z</time>
      </trkpt>
      <trkpt lat="40.33463" lon="20.36779">
        <ele>1024.9000244141</ele>
        <time>2023-09-28T13:11:23.000Z</time>
      </trkpt>
      <trkpt lat="40.33475" lon="20.36791">
        <ele>1026.3399658203</ele>
        <time>2023-09-28T13:11:22.000Z</time>
      </trkpt>
      <trkpt lat="40.33481" lon="20.36796">
        <ele>1027.3100585938</ele>
        <time>2023-09-28T13:11:21.000Z</time>
      </trkpt>
      <trkpt lat="40.33487" lon="20.368">
        <ele>1027.7900390625</ele>
        <time>2023-09-28T13:11:20.000Z</time>
      </trkpt>
      <trkpt lat="40.33504" lon="20.3681">
        <ele>1029.2299804688</ele>
        <time>2023-09-28T13:11:19.000Z</time>
      </trkpt>
      <trkpt lat="40.33513" lon="20.36817">
        <ele>1030.1899414062</ele>
        <time>2023-09-28T13:11:18.000Z</time>
      </trkpt>
      <trkpt lat="40.3352" lon="20.36826">
        <ele>1031.6300048828</ele>
        <time>2023-09-28T13:11:17.000Z</time>
      </trkpt>
      <trkpt lat="40.33527" lon="20.36836">
        <ele>1033.0699462891</ele>
        <time>2023-09-28T13:11:16.000Z</time>
      </trkpt>
      <trkpt lat="40.33535" lon="20.36847">
        <ele>1034.5200195312</ele>
        <time>2023-09-28T13:11:15.000Z</time>
      </trkpt>
      <trkpt lat="40.3354" lon="20.36852">
        <ele>1035</ele>
        <time>2023-09-28T13:11:14.000Z</time>
      </trkpt>
      <trkpt lat="40.33545" lon="20.36861">
        <ele>1035.9599609375</ele>
        <time>2023-09-28T13:11:13.000Z</time>
      </trkpt>
      <trkpt lat="40.33549" lon="20.36868">
        <ele>1036.9200439453</ele>
        <time>2023-09-28T13:11:12.000Z</time>
      </trkpt>
      <trkpt lat="40.3355" lon="20.36876">
        <ele>1037.8800048828</ele>
        <time>2023-09-28T13:11:11.000Z</time>
      </trkpt>
      <trkpt lat="40.3355" lon="20.36884">
        <ele>1038.8399658203</ele>
        <time>2023-09-28T13:11:10.000Z</time>
      </trkpt>
      <trkpt lat="40.3355" lon="20.36892">
        <ele>1039.3199462891</ele>
        <time>2023-09-28T13:11:09.000Z</time>
      </trkpt>
      <trkpt lat="40.33549" lon="20.36898">
        <ele>1040.2800292969</ele>
        <time>2023-09-28T13:11:08.000Z</time>
      </trkpt>
      <trkpt lat="40.33548" lon="20.36905">
        <ele>1041.7299804688</ele>
        <time>2023-09-28T13:10:04.000Z</time>
      </trkpt>
      <trkpt lat="40.33548" lon="20.36917">
        <ele>1042.2099609375</ele>
        <time>2023-09-28T13:09:57.000Z</time>
      </trkpt>
      <trkpt lat="40.33549" lon="20.36923">
        <ele>1042.6899414062</ele>
        <time>2023-09-28T13:09:56.000Z</time>
      </trkpt>
      <trkpt lat="40.3355" lon="20.36929">
        <ele>1043.6500244141</ele>
        <time>2023-09-28T13:09:55.000Z</time>
      </trkpt>
      <trkpt lat="40.33552" lon="20.36937">
        <ele>1044.6099853516</ele>
        <time>2023-09-28T13:09:54.000Z</time>
      </trkpt>
      <trkpt lat="40.33555" lon="20.36947">
        <ele>1045.5699462891</ele>
        <time>2023-09-28T13:09:53.000Z</time>
      </trkpt>
      <trkpt lat="40.33558" lon="20.36954">
        <ele>1046.5300292969</ele>
        <time>2023-09-28T13:09:52.000Z</time>
      </trkpt>
      <trkpt lat="40.33559" lon="20.36959">
        <ele>1047.4899902344</ele>
        <time>2023-09-28T13:09:51.000Z</time>
      </trkpt>
      <trkpt lat="40.33565" lon="20.36976">
        <ele>1048.9399414062</ele>
        <time>2023-09-28T13:09:50.000Z</time>
      </trkpt>
      <trkpt lat="40.33568" lon="20.36986">
        <ele>1049.4200439453</ele>
        <time>2023-09-28T13:09:49.000Z</time>
      </trkpt>
      <trkpt lat="40.33572" lon="20.36996">
        <ele>1050.8599853516</ele>
        <time>2023-09-28T13:09:48.000Z</time>
      </trkpt>
      <trkpt lat="40.33577" lon="20.37007">
        <ele>1051.8199462891</ele>
        <time>2023-09-28T13:09:47.000Z</time>
      </trkpt>
      <trkpt lat="40.33582" lon="20.37018">
        <ele>1053.2600097656</ele>
        <time>2023-09-28T13:09:46.000Z</time>
      </trkpt>
      <trkpt lat="40.33588" lon="20.37038">
        <ele>1054.2199707031</ele>
        <time>2023-09-28T13:09:44.000Z</time>
      </trkpt>
      <trkpt lat="40.33592" lon="20.37049">
        <ele>1054.6999511719</ele>
        <time>2023-09-28T13:09:43.000Z</time>
      </trkpt>
      <trkpt lat="40.33594" lon="20.37056">
        <ele>1055.6700439453</ele>
        <time>2023-09-28T13:09:42.000Z</time>
      </trkpt>
      <trkpt lat="40.33594" lon="20.37063">
        <ele>1056.1500244141</ele>
        <time>2023-09-28T13:09:41.000Z</time>
      </trkpt>
      <trkpt lat="40.33592" lon="20.37068">
        <ele>1056.6300048828</ele>
        <time>2023-09-28T13:09:40.000Z</time>
      </trkpt>
      <trkpt lat="40.33588" lon="20.37072">
        <ele>1057.5899658203</ele>
        <time>2023-09-28T13:09:39.000Z</time>
      </trkpt>
      <trkpt lat="40.33583" lon="20.37073">
        <ele>1057.5899658203</ele>
        <time>2023-09-28T13:09:38.000Z</time>
      </trkpt>
      <trkpt lat="40.33577" lon="20.37072">
        <ele>1058.5500488281</ele>
        <time>2023-09-28T13:09:37.000Z</time>
      </trkpt>
      <trkpt lat="40.33575" lon="20.37071">
        <ele>1058.5500488281</ele>
        <time>2023-09-28T13:09:36.000Z</time>
      </trkpt>
      <trkpt lat="40.33564" lon="20.37069">
        <ele>1059.5100097656</ele>
        <time>2023-09-28T13:09:35.000Z</time>
      </trkpt>
      <trkpt lat="40.33558" lon="20.37068">
        <ele>1059.9899902344</ele>
        <time>2023-09-28T13:09:34.000Z</time>
      </trkpt>
      <trkpt lat="40.33518" lon="20.37067">
        <ele>1062.3900146484</ele>
        <time>2023-09-28T13:09:30.000Z</time>
      </trkpt>
      <trkpt lat="40.3351" lon="20.37065">
        <ele>1062.8699951172</ele>
        <time>2023-09-28T13:09:29.000Z</time>
      </trkpt>
      <trkpt lat="40.33503" lon="20.37062">
        <ele>1063.3599853516</ele>
        <time>2023-09-28T13:09:28.000Z</time>
      </trkpt>
      <trkpt lat="40.33497" lon="20.3706">
        <ele>1063.8399658203</ele>
        <time>2023-09-28T13:09:27.000Z</time>
      </trkpt>
      <trkpt lat="40.33492" lon="20.3706">
        <ele>1064.3199462891</ele>
        <time>2023-09-28T13:09:26.000Z</time>
      </trkpt>
      <trkpt lat="40.33476" lon="20.37059">
        <ele>1064.8000488281</ele>
        <time>2023-09-28T13:08:18.000Z</time>
      </trkpt>
      <trkpt lat="40.33468" lon="20.37064">
        <ele>1064.8000488281</ele>
        <time>2023-09-28T13:08:11.000Z</time>
      </trkpt>
      <trkpt lat="40.33466" lon="20.37069">
        <ele>1065.2800292969</ele>
        <time>2023-09-28T13:08:10.000Z</time>
      </trkpt>
      <trkpt lat="40.33465" lon="20.37075">
        <ele>1065.2800292969</ele>
        <time>2023-09-28T13:08:09.000Z</time>
      </trkpt>
      <trkpt lat="40.33465" lon="20.37084">
        <ele>1065.7600097656</ele>
        <time>2023-09-28T13:08:08.000Z</time>
      </trkpt>
      <trkpt lat="40.33466" lon="20.37089">
        <ele>1066.7199707031</ele>
        <time>2023-09-28T13:08:07.000Z</time>
      </trkpt>
      <trkpt lat="40.33468" lon="20.37095">
        <ele>1067.1999511719</ele>
        <time>2023-09-28T13:08:06.000Z</time>
      </trkpt>
      <trkpt lat="40.3347" lon="20.37113">
        <ele>1068.1600341797</ele>
        <time>2023-09-28T13:08:05.000Z</time>
      </trkpt>
      <trkpt lat="40.33474" lon="20.37122">
        <ele>1069.5999755859</ele>
        <time>2023-09-28T13:08:04.000Z</time>
      </trkpt>
      <trkpt lat="40.33479" lon="20.37132">
        <ele>1071.5300292969</ele>
        <time>2023-09-28T13:08:03.000Z</time>
      </trkpt>
      <trkpt lat="40.33484" lon="20.3714">
        <ele>1072.9699707031</ele>
        <time>2023-09-28T13:08:02.000Z</time>
      </trkpt>
      <trkpt lat="40.3349" lon="20.37148">
        <ele>1074.8900146484</ele>
        <time>2023-09-28T13:08:01.000Z</time>
      </trkpt>
      <trkpt lat="40.33497" lon="20.37156">
        <ele>1076.3299560547</ele>
        <time>2023-09-28T13:08:00.000Z</time>
      </trkpt>
      <trkpt lat="40.33502" lon="20.37162">
        <ele>1077.2900390625</ele>
        <time>2023-09-28T13:07:59.000Z</time>
      </trkpt>
      <trkpt lat="40.33508" lon="20.37169">
        <ele>1078.2600097656</ele>
        <time>2023-09-28T13:07:58.000Z</time>
      </trkpt>
      <trkpt lat="40.33513" lon="20.37173">
        <ele>1078.7399902344</ele>
        <time>2023-09-28T13:07:57.000Z</time>
      </trkpt>
      <trkpt lat="40.33522" lon="20.37178">
        <ele>1080.6600341797</ele>
        <time>2023-09-28T13:07:56.000Z</time>
      </trkpt>
      <trkpt lat="40.33529" lon="20.37184">
        <ele>1082.0999755859</ele>
        <time>2023-09-28T13:07:55.000Z</time>
      </trkpt>
      <trkpt lat="40.33535" lon="20.3719">
        <ele>1083.5400390625</ele>
        <time>2023-09-28T13:07:54.000Z</time>
      </trkpt>
      <trkpt lat="40.33539" lon="20.37196">
        <ele>1084.5</ele>
        <time>2023-09-28T13:07:53.000Z</time>
      </trkpt>
      <trkpt lat="40.33546" lon="20.37207">
        <ele>1085.4699707031</ele>
        <time>2023-09-28T13:07:52.000Z</time>
      </trkpt>
      <trkpt lat="40.33549" lon="20.37211">
        <ele>1086.4300537109</ele>
        <time>2023-09-28T13:07:51.000Z</time>
      </trkpt>
      <trkpt lat="40.33554" lon="20.37219">
        <ele>1087.8699951172</ele>
        <time>2023-09-28T13:07:50.000Z</time>
      </trkpt>
      <trkpt lat="40.33563" lon="20.37231">
        <ele>1089.7900390625</ele>
        <time>2023-09-28T13:07:49.000Z</time>
      </trkpt>
      <trkpt lat="40.33568" lon="20.37236">
        <ele>1091.2299804688</ele>
        <time>2023-09-28T13:07:48.000Z</time>
      </trkpt>
      <trkpt lat="40.33573" lon="20.37239">
        <ele>1092.1999511719</ele>
        <time>2023-09-28T13:07:47.000Z</time>
      </trkpt>
      <trkpt lat="40.33575" lon="20.3724">
        <ele>1092.1999511719</ele>
        <time>2023-09-28T13:07:46.000Z</time>
      </trkpt>
      <trkpt lat="40.33583" lon="20.37233">
        <ele>1094.1199951172</ele>
        <time>2023-09-28T13:07:44.000Z</time>
      </trkpt>
      <trkpt lat="40.33583" lon="20.37227">
        <ele>1094.5999755859</ele>
        <time>2023-09-28T13:07:43.000Z</time>
      </trkpt>
      <trkpt lat="40.33581" lon="20.37219">
        <ele>1095.5600585938</ele>
        <time>2023-09-28T13:07:42.000Z</time>
      </trkpt>
      <trkpt lat="40.33579" lon="20.37213">
        <ele>1096.5200195312</ele>
        <time>2023-09-28T13:07:41.000Z</time>
      </trkpt>
      <trkpt lat="40.33573" lon="20.37202">
        <ele>1097.9599609375</ele>
        <time>2023-09-28T13:07:40.000Z</time>
      </trkpt>
      <trkpt lat="40.33569" lon="20.37191">
        <ele>1099.4000244141</ele>
        <time>2023-09-28T13:07:39.000Z</time>
      </trkpt>
      <trkpt lat="40.33566" lon="20.37182">
        <ele>1100.8499755859</ele>
        <time>2023-09-28T13:07:38.000Z</time>
      </trkpt>
      <trkpt lat="40.33564" lon="20.37173">
        <ele>1101.3299560547</ele>
        <time>2023-09-28T13:07:37.000Z</time>
      </trkpt>
      <trkpt lat="40.33563" lon="20.37164">
        <ele>1102.2900390625</ele>
        <time>2023-09-28T13:07:36.000Z</time>
      </trkpt>
      <trkpt lat="40.33564" lon="20.37157">
        <ele>1103.25</ele>
        <time>2023-09-28T13:07:35.000Z</time>
      </trkpt>
      <trkpt lat="40.33567" lon="20.37151">
        <ele>1103.7299804688</ele>
        <time>2023-09-28T13:07:34.000Z</time>
      </trkpt>
      <trkpt lat="40.33571" lon="20.37147">
        <ele>1104.6899414062</ele>
        <time>2023-09-28T13:07:33.000Z</time>
      </trkpt>
      <trkpt lat="40.33576" lon="20.37146">
        <ele>1105.1700439453</ele>
        <time>2023-09-28T13:07:32.000Z</time>
      </trkpt>
      <trkpt lat="40.33582" lon="20.37147">
        <ele>1106.1300048828</ele>
        <time>2023-09-28T13:07:31.000Z</time>
      </trkpt>
      <trkpt lat="40.33588" lon="20.37151">
        <ele>1106.6099853516</ele>
        <time>2023-09-28T13:07:30.000Z</time>
      </trkpt>
      <trkpt lat="40.33594" lon="20.37156">
        <ele>1108.0600585938</ele>
        <time>2023-09-28T13:07:29.000Z</time>
      </trkpt>
      <trkpt lat="40.33598" lon="20.37163">
        <ele>1109.9799804688</ele>
        <time>2023-09-28T13:07:28.000Z</time>
      </trkpt>
      <trkpt lat="40.33601" lon="20.37172">
        <ele>1111.4200439453</ele>
        <time>2023-09-28T13:07:27.000Z</time>
      </trkpt>
      <trkpt lat="40.33602" lon="20.37175">
        <ele>1111.9000244141</ele>
        <time>2023-09-28T13:07:26.000Z</time>
      </trkpt>
      <trkpt lat="40.33605" lon="20.37189">
        <ele>1114.3100585938</ele>
        <time>2023-09-28T13:07:25.000Z</time>
      </trkpt>
      <trkpt lat="40.33608" lon="20.372">
        <ele>1116.2299804688</ele>
        <time>2023-09-28T13:07:24.000Z</time>
      </trkpt>
      <trkpt lat="40.33611" lon="20.37208">
        <ele>1117.6700439453</ele>
        <time>2023-09-28T13:07:23.000Z</time>
      </trkpt>
      <trkpt lat="40.33616" lon="20.37216">
        <ele>1119.5899658203</ele>
        <time>2023-09-28T13:07:22.000Z</time>
      </trkpt>
      <trkpt lat="40.33628" lon="20.37232">
        <ele>1121.5200195312</ele>
        <time>2023-09-28T13:07:20.000Z</time>
      </trkpt>
      <trkpt lat="40.33635" lon="20.3724">
        <ele>1122</ele>
        <time>2023-09-28T13:07:19.000Z</time>
      </trkpt>
      <trkpt lat="40.33642" lon="20.37246">
        <ele>1122.9599609375</ele>
        <time>2023-09-28T13:07:18.000Z</time>
      </trkpt>
      <trkpt lat="40.33646" lon="20.37249">
        <ele>1122.9599609375</ele>
        <time>2023-09-28T13:07:17.000Z</time>
      </trkpt>
      <trkpt lat="40.33651" lon="20.37249">
        <ele>1123.4399414062</ele>
        <time>2023-09-28T13:07:16.000Z</time>
      </trkpt>
      <trkpt lat="40.33655" lon="20.37246">
        <ele>1123.9200439453</ele>
        <time>2023-09-28T13:07:15.000Z</time>
      </trkpt>
      <trkpt lat="40.33658" lon="20.37241">
        <ele>1123.9200439453</ele>
        <time>2023-09-28T13:07:14.000Z</time>
      </trkpt>
      <trkpt lat="40.33659" lon="20.37236">
        <ele>1124.4000244141</ele>
        <time>2023-09-28T13:07:13.000Z</time>
      </trkpt>
      <trkpt lat="40.33661" lon="20.37225">
        <ele>1125.8399658203</ele>
        <time>2023-09-28T13:07:12.000Z</time>
      </trkpt>
      <trkpt lat="40.33665" lon="20.37209">
        <ele>1128.2399902344</ele>
        <time>2023-09-28T13:07:11.000Z</time>
      </trkpt>
      <trkpt lat="40.33668" lon="20.372">
        <ele>1129.2099609375</ele>
        <time>2023-09-28T13:07:10.000Z</time>
      </trkpt>
      <trkpt lat="40.33673" lon="20.37191">
        <ele>1129.6899414062</ele>
        <time>2023-09-28T13:07:09.000Z</time>
      </trkpt>
      <trkpt lat="40.33679" lon="20.37184">
        <ele>1130.1700439453</ele>
        <time>2023-09-28T13:07:08.000Z</time>
      </trkpt>
      <trkpt lat="40.33687" lon="20.37178">
        <ele>1130.6500244141</ele>
        <time>2023-09-28T13:07:07.000Z</time>
      </trkpt>
      <trkpt lat="40.33691" lon="20.37176">
        <ele>1130.1700439453</ele>
        <time>2023-09-28T13:07:06.000Z</time>
      </trkpt>
      <trkpt lat="40.33707" lon="20.37168">
        <ele>1130.6500244141</ele>
        <time>2023-09-28T13:07:05.000Z</time>
      </trkpt>
      <trkpt lat="40.33715" lon="20.37162">
        <ele>1131.1300048828</ele>
        <time>2023-09-28T13:07:04.000Z</time>
      </trkpt>
      <trkpt lat="40.3372" lon="20.37156">
        <ele>1131.6099853516</ele>
        <time>2023-09-28T13:07:03.000Z</time>
      </trkpt>
      <trkpt lat="40.33727" lon="20.37145">
        <ele>1132.5699462891</ele>
        <time>2023-09-28T13:07:02.000Z</time>
      </trkpt>
      <trkpt lat="40.33734" lon="20.37135">
        <ele>1133.5300292969</ele>
        <time>2023-09-28T13:07:01.000Z</time>
      </trkpt>
      <trkpt lat="40.33743" lon="20.37124">
        <ele>1134.0100097656</ele>
        <time>2023-09-28T13:07:00.000Z</time>
      </trkpt>
      <trkpt lat="40.33747" lon="20.37116">
        <ele>1134.4899902344</ele>
        <time>2023-09-28T13:06:59.000Z</time>
      </trkpt>
      <trkpt lat="40.33751" lon="20.37108">
        <ele>1134.4899902344</ele>
        <time>2023-09-28T13:06:58.000Z</time>
      </trkpt>
      <trkpt lat="40.33755" lon="20.37102">
        <ele>1134.4899902344</ele>
        <time>2023-09-28T13:06:57.000Z</time>
      </trkpt>
      <trkpt lat="40.33761" lon="20.37098">
        <ele>1134.4899902344</ele>
        <time>2023-09-28T13:06:56.000Z</time>
      </trkpt>
      <trkpt lat="40.33766" lon="20.37096">
        <ele>1134.4899902344</ele>
        <time>2023-09-28T13:06:55.000Z</time>
      </trkpt>
      <trkpt lat="40.33771" lon="20.37095">
        <ele>1134.9699707031</ele>
        <time>2023-09-28T13:06:54.000Z</time>
      </trkpt>
      <trkpt lat="40.33776" lon="20.37098">
        <ele>1134.4899902344</ele>
        <time>2023-09-28T13:06:53.000Z</time>
      </trkpt>
      <trkpt lat="40.33781" lon="20.37104">
        <ele>1134.0100097656</ele>
        <time>2023-09-28T13:06:52.000Z</time>
      </trkpt>
      <trkpt lat="40.33784" lon="20.37112">
        <ele>1133.5300292969</ele>
        <time>2023-09-28T13:06:51.000Z</time>
      </trkpt>
      <trkpt lat="40.33786" lon="20.37115">
        <ele>1134.0100097656</ele>
        <time>2023-09-28T13:06:50.000Z</time>
      </trkpt>
      <trkpt lat="40.33797" lon="20.37144">
        <ele>1137.3800048828</ele>
        <time>2023-09-28T13:06:48.000Z</time>
      </trkpt>
      <trkpt lat="40.33802" lon="20.37155">
        <ele>1137.8599853516</ele>
        <time>2023-09-28T13:06:47.000Z</time>
      </trkpt>
      <trkpt lat="40.33809" lon="20.37164">
        <ele>1138.8199462891</ele>
        <time>2023-09-28T13:06:46.000Z</time>
      </trkpt>
      <trkpt lat="40.33817" lon="20.37171">
        <ele>1139.7800292969</ele>
        <time>2023-09-28T13:06:45.000Z</time>
      </trkpt>
      <trkpt lat="40.33824" lon="20.37176">
        <ele>1140.2600097656</ele>
        <time>2023-09-28T13:06:44.000Z</time>
      </trkpt>
      <trkpt lat="40.33831" lon="20.37179">
        <ele>1140.2600097656</ele>
        <time>2023-09-28T13:06:43.000Z</time>
      </trkpt>
      <trkpt lat="40.3384" lon="20.37183">
        <ele>1141.2199707031</ele>
        <time>2023-09-28T13:06:42.000Z</time>
      </trkpt>
      <trkpt lat="40.33862" lon="20.37189">
        <ele>1143.1400146484</ele>
        <time>2023-09-28T13:06:39.000Z</time>
      </trkpt>
      <trkpt lat="40.3387" lon="20.37191">
        <ele>1143.6300048828</ele>
        <time>2023-09-28T13:06:38.000Z</time>
      </trkpt>
      <trkpt lat="40.33881" lon="20.37194">
        <ele>1144.1099853516</ele>
        <time>2023-09-28T13:06:36.000Z</time>
      </trkpt>
      <trkpt lat="40.33886" lon="20.37195">
        <ele>1144.5899658203</ele>
        <time>2023-09-28T13:06:35.000Z</time>
      </trkpt>
      <trkpt lat="40.3389" lon="20.37196">
        <ele>1144.5899658203</ele>
        <time>2023-09-28T13:06:34.000Z</time>
      </trkpt>
      <trkpt lat="40.33895" lon="20.37196">
        <ele>1144.5899658203</ele>
        <time>2023-09-28T13:06:33.000Z</time>
      </trkpt>
      <trkpt lat="40.33899" lon="20.37197">
        <ele>1144.1099853516</ele>
        <time>2023-09-28T13:06:32.000Z</time>
      </trkpt>
      <trkpt lat="40.33904" lon="20.37197">
        <ele>1144.1099853516</ele>
        <time>2023-09-28T13:06:31.000Z</time>
      </trkpt>
      <trkpt lat="40.33907" lon="20.37198">
        <ele>1144.5899658203</ele>
        <time>2023-09-28T13:06:30.000Z</time>
      </trkpt>
      <trkpt lat="40.33912" lon="20.37199">
        <ele>1144.5899658203</ele>
        <time>2023-09-28T13:06:29.000Z</time>
      </trkpt>
      <trkpt lat="40.33944" lon="20.37204">
        <ele>1144.5899658203</ele>
        <time>2023-09-28T13:06:20.000Z</time>
      </trkpt>
      <trkpt lat="40.33948" lon="20.37203">
        <ele>1144.5899658203</ele>
        <time>2023-09-28T13:06:19.000Z</time>
      </trkpt>
      <trkpt lat="40.33968" lon="20.3719">
        <ele>1144.1099853516</ele>
        <time>2023-09-28T13:06:12.000Z</time>
      </trkpt>
      <trkpt lat="40.33972" lon="20.37188">
        <ele>1144.5899658203</ele>
        <time>2023-09-28T13:06:11.000Z</time>
      </trkpt>
      <trkpt lat="40.33976" lon="20.37186">
        <ele>1145.0699462891</ele>
        <time>2023-09-28T13:06:10.000Z</time>
      </trkpt>
      <trkpt lat="40.33982" lon="20.37185">
        <ele>1145.5500488281</ele>
        <time>2023-09-28T13:06:09.000Z</time>
      </trkpt>
      <trkpt lat="40.33987" lon="20.37184">
        <ele>1146.0300292969</ele>
        <time>2023-09-28T13:06:08.000Z</time>
      </trkpt>
      <trkpt lat="40.33991" lon="20.37183">
        <ele>1146.5100097656</ele>
        <time>2023-09-28T13:06:07.000Z</time>
      </trkpt>
      <trkpt lat="40.33998" lon="20.37189">
        <ele>1146.5100097656</ele>
        <time>2023-09-28T13:05:32.000Z</time>
      </trkpt>
      <trkpt lat="40.34002" lon="20.37198">
        <ele>1146.0300292969</ele>
        <time>2023-09-28T13:05:25.000Z</time>
      </trkpt>
      <trkpt lat="40.34005" lon="20.37205">
        <ele>1145.5500488281</ele>
        <time>2023-09-28T13:05:24.000Z</time>
      </trkpt>
      <trkpt lat="40.34008" lon="20.37213">
        <ele>1145.5500488281</ele>
        <time>2023-09-28T13:05:23.000Z</time>
      </trkpt>
      <trkpt lat="40.34016" lon="20.37221">
        <ele>1144.5899658203</ele>
        <time>2023-09-28T13:05:22.000Z</time>
      </trkpt>
      <trkpt lat="40.34025" lon="20.37226">
        <ele>1144.1099853516</ele>
        <time>2023-09-28T13:05:21.000Z</time>
      </trkpt>
      <trkpt lat="40.34039" lon="20.3723">
        <ele>1143.1400146484</ele>
        <time>2023-09-28T13:05:20.000Z</time>
      </trkpt>
      <trkpt lat="40.34049" lon="20.37234">
        <ele>1142.6600341797</ele>
        <time>2023-09-28T13:05:19.000Z</time>
      </trkpt>
      <trkpt lat="40.34058" lon="20.37241">
        <ele>1141.2199707031</ele>
        <time>2023-09-28T13:05:18.000Z</time>
      </trkpt>
      <trkpt lat="40.34065" lon="20.37249">
        <ele>1139.7800292969</ele>
        <time>2023-09-28T13:05:17.000Z</time>
      </trkpt>
      <trkpt lat="40.34071" lon="20.37258">
        <ele>1139.3000488281</ele>
        <time>2023-09-28T13:05:16.000Z</time>
      </trkpt>
      <trkpt lat="40.34076" lon="20.37269">
        <ele>1137.8599853516</ele>
        <time>2023-09-28T13:05:15.000Z</time>
      </trkpt>
      <trkpt lat="40.34078" lon="20.37279">
        <ele>1136.9000244141</ele>
        <time>2023-09-28T13:05:14.000Z</time>
      </trkpt>
      <trkpt lat="40.34078" lon="20.37285">
        <ele>1136.4200439453</ele>
        <time>2023-09-28T13:05:13.000Z</time>
      </trkpt>
      <trkpt lat="40.34079" lon="20.37304">
        <ele>1134.9699707031</ele>
        <time>2023-09-28T13:05:12.000Z</time>
      </trkpt>
      <trkpt lat="40.3408" lon="20.37316">
        <ele>1134.0100097656</ele>
        <time>2023-09-28T13:05:11.000Z</time>
      </trkpt>
      <trkpt lat="40.34083" lon="20.37332">
        <ele>1132.5699462891</ele>
        <time>2023-09-28T13:05:10.000Z</time>
      </trkpt>
      <trkpt lat="40.34085" lon="20.37343">
        <ele>1132.5699462891</ele>
        <time>2023-09-28T13:05:09.000Z</time>
      </trkpt>
      <trkpt lat="40.34088" lon="20.37357">
        <ele>1131.6099853516</ele>
        <time>2023-09-28T13:05:08.000Z</time>
      </trkpt>
      <trkpt lat="40.34092" lon="20.37368">
        <ele>1130.6500244141</ele>
        <time>2023-09-28T13:05:07.000Z</time>
      </trkpt>
      <trkpt lat="40.34098" lon="20.37377">
        <ele>1129.6899414062</ele>
        <time>2023-09-28T13:05:06.000Z</time>
      </trkpt>
      <trkpt lat="40.34104" lon="20.37383">
        <ele>1129.2099609375</ele>
        <time>2023-09-28T13:05:05.000Z</time>
      </trkpt>
      <trkpt lat="40.34117" lon="20.37391">
        <ele>1129.2099609375</ele>
        <time>2023-09-28T13:05:04.000Z</time>
      </trkpt>
      <trkpt lat="40.34128" lon="20.37396">
        <ele>1129.2099609375</ele>
        <time>2023-09-28T13:05:03.000Z</time>
      </trkpt>
      <trkpt lat="40.34138" lon="20.37399">
        <ele>1128.7299804688</ele>
        <time>2023-09-28T13:05:02.000Z</time>
      </trkpt>
      <trkpt lat="40.34152" lon="20.37405">
        <ele>1128.7299804688</ele>
        <time>2023-09-28T13:05:01.000Z</time>
      </trkpt>
      <trkpt lat="40.3416" lon="20.3741">
        <ele>1128.7299804688</ele>
        <time>2023-09-28T13:05:00.000Z</time>
      </trkpt>
      <trkpt lat="40.34172" lon="20.37419">
        <ele>1128.7299804688</ele>
        <time>2023-09-28T13:04:59.000Z</time>
      </trkpt>
      <trkpt lat="40.34181" lon="20.37428">
        <ele>1128.7299804688</ele>
        <time>2023-09-28T13:04:58.000Z</time>
      </trkpt>
      <trkpt lat="40.34188" lon="20.37438">
        <ele>1128.2399902344</ele>
        <time>2023-09-28T13:04:57.000Z</time>
      </trkpt>
      <trkpt lat="40.34193" lon="20.37448">
        <ele>1128.7299804688</ele>
        <time>2023-09-28T13:04:56.000Z</time>
      </trkpt>
      <trkpt lat="40.34196" lon="20.37458">
        <ele>1128.2399902344</ele>
        <time>2023-09-28T13:04:55.000Z</time>
      </trkpt>
      <trkpt lat="40.34197" lon="20.3747">
        <ele>1127.2800292969</ele>
        <time>2023-09-28T13:04:54.000Z</time>
      </trkpt>
      <trkpt lat="40.34196" lon="20.37491">
        <ele>1127.2800292969</ele>
        <time>2023-09-28T13:04:52.000Z</time>
      </trkpt>
      <trkpt lat="40.34194" lon="20.37507">
        <ele>1127.7600097656</ele>
        <time>2023-09-28T13:04:51.000Z</time>
      </trkpt>
      <trkpt lat="40.34195" lon="20.37516">
        <ele>1127.7600097656</ele>
        <time>2023-09-28T13:04:50.000Z</time>
      </trkpt>
      <trkpt lat="40.34198" lon="20.37524">
        <ele>1128.2399902344</ele>
        <time>2023-09-28T13:04:49.000Z</time>
      </trkpt>
      <trkpt lat="40.34199" lon="20.37525">
        <ele>1128.2399902344</ele>
        <time>2023-09-28T13:04:48.000Z</time>
      </trkpt>
      <trkpt lat="40.34211" lon="20.37536">
        <ele>1129.2099609375</ele>
        <time>2023-09-28T13:04:47.000Z</time>
      </trkpt>
      <trkpt lat="40.34217" lon="20.37543">
        <ele>1129.6899414062</ele>
        <time>2023-09-28T13:04:46.000Z</time>
      </trkpt>
      <trkpt lat="40.34222" lon="20.37552">
        <ele>1130.1700439453</ele>
        <time>2023-09-28T13:04:45.000Z</time>
      </trkpt>
      <trkpt lat="40.34224" lon="20.37561">
        <ele>1129.6899414062</ele>
        <time>2023-09-28T13:04:44.000Z</time>
      </trkpt>
      <trkpt lat="40.34225" lon="20.37574">
        <ele>1129.2099609375</ele>
        <time>2023-09-28T13:04:43.000Z</time>
      </trkpt>
      <trkpt lat="40.34225" lon="20.37589">
        <ele>1130.1700439453</ele>
        <time>2023-09-28T13:04:42.000Z</time>
      </trkpt>
      <trkpt lat="40.34227" lon="20.37602">
        <ele>1130.6500244141</ele>
        <time>2023-09-28T13:04:41.000Z</time>
      </trkpt>
      <trkpt lat="40.34231" lon="20.37618">
        <ele>1131.6099853516</ele>
        <time>2023-09-28T13:04:40.000Z</time>
      </trkpt>
      <trkpt lat="40.34233" lon="20.3763">
        <ele>1132.5699462891</ele>
        <time>2023-09-28T13:04:39.000Z</time>
      </trkpt>
      <trkpt lat="40.34234" lon="20.37641">
        <ele>1133.5300292969</ele>
        <time>2023-09-28T13:04:38.000Z</time>
      </trkpt>
      <trkpt lat="40.34238" lon="20.3765">
        <ele>1134.0100097656</ele>
        <time>2023-09-28T13:04:37.000Z</time>
      </trkpt>
      <trkpt lat="40.34241" lon="20.37655">
        <ele>1134.4899902344</ele>
        <time>2023-09-28T13:04:36.000Z</time>
      </trkpt>
      <trkpt lat="40.34249" lon="20.37662">
        <ele>1135.9399414062</ele>
        <time>2023-09-28T13:04:35.000Z</time>
      </trkpt>
      <trkpt lat="40.34254" lon="20.37668">
        <ele>1136.9000244141</ele>
        <time>2023-09-28T13:04:34.000Z</time>
      </trkpt>
      <trkpt lat="40.34258" lon="20.37676">
        <ele>1138.3399658203</ele>
        <time>2023-09-28T13:04:33.000Z</time>
      </trkpt>
      <trkpt lat="40.3426" lon="20.37684">
        <ele>1139.3000488281</ele>
        <time>2023-09-28T13:04:32.000Z</time>
      </trkpt>
      <trkpt lat="40.34259" lon="20.37693">
        <ele>1140.2600097656</ele>
        <time>2023-09-28T13:04:31.000Z</time>
      </trkpt>
      <trkpt lat="40.34256" lon="20.37702">
        <ele>1141.6999511719</ele>
        <time>2023-09-28T13:04:30.000Z</time>
      </trkpt>
      <trkpt lat="40.34251" lon="20.37712">
        <ele>1142.1800537109</ele>
        <time>2023-09-28T13:04:29.000Z</time>
      </trkpt>
      <trkpt lat="40.34247" lon="20.37724">
        <ele>1144.5899658203</ele>
        <time>2023-09-28T13:04:28.000Z</time>
      </trkpt>
      <trkpt lat="40.34244" lon="20.37736">
        <ele>1146.0300292969</ele>
        <time>2023-09-28T13:04:27.000Z</time>
      </trkpt>
      <trkpt lat="40.34242" lon="20.37745">
        <ele>1147.4699707031</ele>
        <time>2023-09-28T13:04:26.000Z</time>
      </trkpt>
      <trkpt lat="40.34238" lon="20.37765">
        <ele>1149.3900146484</ele>
        <time>2023-09-28T13:04:25.000Z</time>
      </trkpt>
      <trkpt lat="40.34235" lon="20.37786">
        <ele>1150.8399658203</ele>
        <time>2023-09-28T13:04:24.000Z</time>
      </trkpt>
      <trkpt lat="40.34233" lon="20.37799">
        <ele>1151.8000488281</ele>
        <time>2023-09-28T13:04:23.000Z</time>
      </trkpt>
      <trkpt lat="40.34234" lon="20.37811">
        <ele>1152.7600097656</ele>
        <time>2023-09-28T13:04:22.000Z</time>
      </trkpt>
      <trkpt lat="40.34236" lon="20.3782">
        <ele>1153.2399902344</ele>
        <time>2023-09-28T13:04:21.000Z</time>
      </trkpt>
      <trkpt lat="40.34241" lon="20.37834">
        <ele>1154.6800537109</ele>
        <time>2023-09-28T13:04:20.000Z</time>
      </trkpt>
      <trkpt lat="40.34242" lon="20.37836">
        <ele>1154.6800537109</ele>
        <time>2023-09-28T13:04:19.000Z</time>
      </trkpt>
      <trkpt lat="40.34255" lon="20.37856">
        <ele>1157.0799560547</ele>
        <time>2023-09-28T13:04:18.000Z</time>
      </trkpt>
      <trkpt lat="40.34261" lon="20.37868">
        <ele>1158.5300292969</ele>
        <time>2023-09-28T13:04:17.000Z</time>
      </trkpt>
      <trkpt lat="40.34265" lon="20.37878">
        <ele>1159.0100097656</ele>
        <time>2023-09-28T13:04:16.000Z</time>
      </trkpt>
      <trkpt lat="40.34267" lon="20.37887">
        <ele>1159.4899902344</ele>
        <time>2023-09-28T13:04:15.000Z</time>
      </trkpt>
      <trkpt lat="40.34267" lon="20.37894">
        <ele>1159.9699707031</ele>
        <time>2023-09-28T13:04:14.000Z</time>
      </trkpt>
      <trkpt lat="40.34264" lon="20.37902">
        <ele>1159.9699707031</ele>
        <time>2023-09-28T13:04:13.000Z</time>
      </trkpt>
      <trkpt lat="40.34261" lon="20.3791">
        <ele>1160.4499511719</ele>
        <time>2023-09-28T13:04:12.000Z</time>
      </trkpt>
      <trkpt lat="40.34258" lon="20.37916">
        <ele>1160.9300537109</ele>
        <time>2023-09-28T13:04:11.000Z</time>
      </trkpt>
      <trkpt lat="40.34254" lon="20.37922">
        <ele>1161.4100341797</ele>
        <time>2023-09-28T13:04:10.000Z</time>
      </trkpt>
      <trkpt lat="40.34252" lon="20.3793">
        <ele>1161.4100341797</ele>
        <time>2023-09-28T13:04:09.000Z</time>
      </trkpt>
      <trkpt lat="40.34249" lon="20.37939">
        <ele>1160.9300537109</ele>
        <time>2023-09-28T13:04:08.000Z</time>
      </trkpt>
      <trkpt lat="40.34248" lon="20.37949">
        <ele>1159.9699707031</ele>
        <time>2023-09-28T13:04:07.000Z</time>
      </trkpt>
      <trkpt lat="40.34248" lon="20.3796">
        <ele>1159.0100097656</ele>
        <time>2023-09-28T13:04:06.000Z</time>
      </trkpt>
      <trkpt lat="40.34249" lon="20.37972">
        <ele>1158.0500488281</ele>
        <time>2023-09-28T13:04:05.000Z</time>
      </trkpt>
      <trkpt lat="40.34252" lon="20.37984">
        <ele>1157.0799560547</ele>
        <time>2023-09-28T13:04:04.000Z</time>
      </trkpt>
      <trkpt lat="40.34253" lon="20.37987">
        <ele>1157.0799560547</ele>
        <time>2023-09-28T13:04:03.000Z</time>
      </trkpt>
      <trkpt lat="40.34261" lon="20.38007">
        <ele>1153.7199707031</ele>
        <time>2023-09-28T13:04:02.000Z</time>
      </trkpt>
      <trkpt lat="40.34263" lon="20.38017">
        <ele>1153.2399902344</ele>
        <time>2023-09-28T13:04:01.000Z</time>
      </trkpt>
      <trkpt lat="40.34263" lon="20.38028">
        <ele>1152.7600097656</ele>
        <time>2023-09-28T13:04:00.000Z</time>
      </trkpt>
      <trkpt lat="40.34262" lon="20.38036">
        <ele>1152.2800292969</ele>
        <time>2023-09-28T13:03:59.000Z</time>
      </trkpt>
      <trkpt lat="40.34264" lon="20.38047">
        <ele>1151.3199462891</ele>
        <time>2023-09-28T13:03:58.000Z</time>
      </trkpt>
      <trkpt lat="40.34267" lon="20.38055">
        <ele>1150.8399658203</ele>
        <time>2023-09-28T13:03:57.000Z</time>
      </trkpt>
      <trkpt lat="40.34271" lon="20.3806">
        <ele>1150.3499755859</ele>
        <time>2023-09-28T13:03:56.000Z</time>
      </trkpt>
      <trkpt lat="40.34275" lon="20.38063">
        <ele>1149.3900146484</ele>
        <time>2023-09-28T13:03:55.000Z</time>
      </trkpt>
      <trkpt lat="40.34281" lon="20.38067">
        <ele>1148.9100341797</ele>
        <time>2023-09-28T13:03:54.000Z</time>
      </trkpt>
      <trkpt lat="40.34291" lon="20.38073">
        <ele>1147.9499511719</ele>
        <time>2023-09-28T13:03:53.000Z</time>
      </trkpt>
      <trkpt lat="40.34317" lon="20.38094">
        <ele>1145.5500488281</ele>
        <time>2023-09-28T13:03:51.000Z</time>
      </trkpt>
      <trkpt lat="40.34324" lon="20.38101">
        <ele>1145.0699462891</ele>
        <time>2023-09-28T13:03:50.000Z</time>
      </trkpt>
      <trkpt lat="40.3433" lon="20.38109">
        <ele>1144.5899658203</ele>
        <time>2023-09-28T13:03:49.000Z</time>
      </trkpt>
      <trkpt lat="40.34335" lon="20.38119">
        <ele>1143.6300048828</ele>
        <time>2023-09-28T13:03:48.000Z</time>
      </trkpt>
      <trkpt lat="40.34336" lon="20.38124">
        <ele>1143.6300048828</ele>
        <time>2023-09-28T13:03:47.000Z</time>
      </trkpt>
      <trkpt lat="40.34345" lon="20.38161">
        <ele>1141.6999511719</ele>
        <time>2023-09-28T13:03:45.000Z</time>
      </trkpt>
      <trkpt lat="40.34347" lon="20.38166">
        <ele>1141.2199707031</ele>
        <time>2023-09-28T13:03:44.000Z</time>
      </trkpt>
      <trkpt lat="40.34359" lon="20.38215">
        <ele>1138.8199462891</ele>
        <time>2023-09-28T13:03:42.000Z</time>
      </trkpt>
      <trkpt lat="40.34362" lon="20.38223">
        <ele>1138.3399658203</ele>
        <time>2023-09-28T13:03:41.000Z</time>
      </trkpt>
      <trkpt lat="40.34368" lon="20.38241">
        <ele>1136.9000244141</ele>
        <time>2023-09-28T13:03:40.000Z</time>
      </trkpt>
      <trkpt lat="40.34376" lon="20.38261">
        <ele>1135.4499511719</ele>
        <time>2023-09-28T13:03:39.000Z</time>
      </trkpt>
      <trkpt lat="40.34395" lon="20.38295">
        <ele>1133.5300292969</ele>
        <time>2023-09-28T13:03:36.000Z</time>
      </trkpt>
      <trkpt lat="40.34401" lon="20.38303">
        <ele>1133.0500488281</ele>
        <time>2023-09-28T13:03:35.000Z</time>
      </trkpt>
      <trkpt lat="40.34407" lon="20.38309">
        <ele>1132.5699462891</ele>
        <time>2023-09-28T13:03:34.000Z</time>
      </trkpt>
      <trkpt lat="40.34417" lon="20.38318">
        <ele>1131.6099853516</ele>
        <time>2023-09-28T13:03:33.000Z</time>
      </trkpt>
      <trkpt lat="40.34423" lon="20.38325">
        <ele>1131.6099853516</ele>
        <time>2023-09-28T13:03:32.000Z</time>
      </trkpt>
      <trkpt lat="40.34426" lon="20.38332">
        <ele>1131.1300048828</ele>
        <time>2023-09-28T13:03:31.000Z</time>
      </trkpt>
      <trkpt lat="40.34428" lon="20.38339">
        <ele>1130.1700439453</ele>
        <time>2023-09-28T13:03:30.000Z</time>
      </trkpt>
      <trkpt lat="40.34427" lon="20.38345">
        <ele>1129.6899414062</ele>
        <time>2023-09-28T13:03:29.000Z</time>
      </trkpt>
      <trkpt lat="40.34425" lon="20.3836">
        <ele>1128.7299804688</ele>
        <time>2023-09-28T13:03:28.000Z</time>
      </trkpt>
      <trkpt lat="40.34424" lon="20.38373">
        <ele>1127.2800292969</ele>
        <time>2023-09-28T13:03:27.000Z</time>
      </trkpt>
      <trkpt lat="40.34427" lon="20.38384">
        <ele>1126.8000488281</ele>
        <time>2023-09-28T13:03:26.000Z</time>
      </trkpt>
      <trkpt lat="40.34429" lon="20.38389">
        <ele>1126.8000488281</ele>
        <time>2023-09-28T13:03:25.000Z</time>
      </trkpt>
      <trkpt lat="40.34436" lon="20.38405">
        <ele>1126.3199462891</ele>
        <time>2023-09-28T13:03:24.000Z</time>
      </trkpt>
      <trkpt lat="40.3444" lon="20.38415">
        <ele>1125.8399658203</ele>
        <time>2023-09-28T13:03:23.000Z</time>
      </trkpt>
      <trkpt lat="40.34445" lon="20.38427">
        <ele>1124.8800048828</ele>
        <time>2023-09-28T13:03:22.000Z</time>
      </trkpt>
      <trkpt lat="40.34451" lon="20.38435">
        <ele>1124.4000244141</ele>
        <time>2023-09-28T13:03:21.000Z</time>
      </trkpt>
      <trkpt lat="40.34456" lon="20.38439">
        <ele>1124.4000244141</ele>
        <time>2023-09-28T13:03:20.000Z</time>
      </trkpt>
      <trkpt lat="40.34459" lon="20.3844">
        <ele>1123.9200439453</ele>
        <time>2023-09-28T13:03:19.000Z</time>
      </trkpt>
      <trkpt lat="40.34471" lon="20.38443">
        <ele>1123.4399414062</ele>
        <time>2023-09-28T13:03:18.000Z</time>
      </trkpt>
      <trkpt lat="40.34478" lon="20.38447">
        <ele>1122.4799804688</ele>
        <time>2023-09-28T13:03:17.000Z</time>
      </trkpt>
      <trkpt lat="40.34486" lon="20.38453">
        <ele>1122</ele>
        <time>2023-09-28T13:03:16.000Z</time>
      </trkpt>
      <trkpt lat="40.34492" lon="20.3846">
        <ele>1121.0300292969</ele>
        <time>2023-09-28T13:03:15.000Z</time>
      </trkpt>
      <trkpt lat="40.34507" lon="20.38481">
        <ele>1119.1099853516</ele>
        <time>2023-09-28T13:03:13.000Z</time>
      </trkpt>
      <trkpt lat="40.34516" lon="20.38494">
        <ele>1117.1899414062</ele>
        <time>2023-09-28T13:03:12.000Z</time>
      </trkpt>
      <trkpt lat="40.3453" lon="20.38514">
        <ele>1115.2700195312</ele>
        <time>2023-09-28T13:03:10.000Z</time>
      </trkpt>
      <trkpt lat="40.34545" lon="20.38533">
        <ele>1112.3800048828</ele>
        <time>2023-09-28T13:03:08.000Z</time>
      </trkpt>
      <trkpt lat="40.34551" lon="20.38542">
        <ele>1111.4200439453</ele>
        <time>2023-09-28T13:03:07.000Z</time>
      </trkpt>
      <trkpt lat="40.34557" lon="20.38555">
        <ele>1109.9799804688</ele>
        <time>2023-09-28T13:03:06.000Z</time>
      </trkpt>
      <trkpt lat="40.3456" lon="20.38562">
        <ele>1109.0200195312</ele>
        <time>2023-09-28T13:03:05.000Z</time>
      </trkpt>
      <trkpt lat="40.34562" lon="20.3857">
        <ele>1108.0600585938</ele>
        <time>2023-09-28T13:03:04.000Z</time>
      </trkpt>
      <trkpt lat="40.34564" lon="20.38581">
        <ele>1107.5799560547</ele>
        <time>2023-09-28T13:03:03.000Z</time>
      </trkpt>
      <trkpt lat="40.34569" lon="20.38607">
        <ele>1106.6099853516</ele>
        <time>2023-09-28T13:03:02.000Z</time>
      </trkpt>
      <trkpt lat="40.34572" lon="20.38621">
        <ele>1105.6500244141</ele>
        <time>2023-09-28T13:03:01.000Z</time>
      </trkpt>
      <trkpt lat="40.34576" lon="20.38632">
        <ele>1104.6899414062</ele>
        <time>2023-09-28T13:03:00.000Z</time>
      </trkpt>
      <trkpt lat="40.3458" lon="20.38641">
        <ele>1104.2099609375</ele>
        <time>2023-09-28T13:02:59.000Z</time>
      </trkpt>
      <trkpt lat="40.34587" lon="20.38655">
        <ele>1103.25</ele>
        <time>2023-09-28T13:02:58.000Z</time>
      </trkpt>
      <trkpt lat="40.34589" lon="20.38658">
        <ele>1102.7700195312</ele>
        <time>2023-09-28T13:02:57.000Z</time>
      </trkpt>
      <trkpt lat="40.34599" lon="20.38676">
        <ele>1101.8100585938</ele>
        <time>2023-09-28T13:02:56.000Z</time>
      </trkpt>
      <trkpt lat="40.34606" lon="20.38687">
        <ele>1100.3699951172</ele>
        <time>2023-09-28T13:02:55.000Z</time>
      </trkpt>
      <trkpt lat="40.34629" lon="20.38732">
        <ele>1097.9599609375</ele>
        <time>2023-09-28T13:02:52.000Z</time>
      </trkpt>
      <trkpt lat="40.34635" lon="20.38744">
        <ele>1097</ele>
        <time>2023-09-28T13:02:51.000Z</time>
      </trkpt>
      <trkpt lat="40.34638" lon="20.38755">
        <ele>1095.5600585938</ele>
        <time>2023-09-28T13:02:50.000Z</time>
      </trkpt>
      <trkpt lat="40.34639" lon="20.38768">
        <ele>1095.0799560547</ele>
        <time>2023-09-28T13:02:49.000Z</time>
      </trkpt>
      <trkpt lat="40.3464" lon="20.38783">
        <ele>1094.1199951172</ele>
        <time>2023-09-28T13:02:48.000Z</time>
      </trkpt>
      <trkpt lat="40.34642" lon="20.38796">
        <ele>1093.1600341797</ele>
        <time>2023-09-28T13:02:47.000Z</time>
      </trkpt>
      <trkpt lat="40.34644" lon="20.38808">
        <ele>1092.6800537109</ele>
        <time>2023-09-28T13:02:46.000Z</time>
      </trkpt>
      <trkpt lat="40.34648" lon="20.38818">
        <ele>1091.7099609375</ele>
        <time>2023-09-28T13:02:45.000Z</time>
      </trkpt>
      <trkpt lat="40.34654" lon="20.38827">
        <ele>1091.2299804688</ele>
        <time>2023-09-28T13:02:44.000Z</time>
      </trkpt>
      <trkpt lat="40.34658" lon="20.38832">
        <ele>1091.2299804688</ele>
        <time>2023-09-28T13:02:43.000Z</time>
      </trkpt>
      <trkpt lat="40.3468" lon="20.38854">
        <ele>1089.3100585938</ele>
        <time>2023-09-28T13:02:41.000Z</time>
      </trkpt>
      <trkpt lat="40.34687" lon="20.38864">
        <ele>1087.8699951172</ele>
        <time>2023-09-28T13:02:40.000Z</time>
      </trkpt>
      <trkpt lat="40.34692" lon="20.38874">
        <ele>1086.4300537109</ele>
        <time>2023-09-28T13:02:39.000Z</time>
      </trkpt>
      <trkpt lat="40.34695" lon="20.38885">
        <ele>1085.4699707031</ele>
        <time>2023-09-28T13:02:38.000Z</time>
      </trkpt>
      <trkpt lat="40.34696" lon="20.38897">
        <ele>1084.5</ele>
        <time>2023-09-28T13:02:37.000Z</time>
      </trkpt>
      <trkpt lat="40.34696" lon="20.3893">
        <ele>1082.5799560547</ele>
        <time>2023-09-28T13:02:34.000Z</time>
      </trkpt>
      <trkpt lat="40.34696" lon="20.38946">
        <ele>1082.0999755859</ele>
        <time>2023-09-28T13:02:33.000Z</time>
      </trkpt>
      <trkpt lat="40.34694" lon="20.38956">
        <ele>1081.6199951172</ele>
        <time>2023-09-28T13:02:32.000Z</time>
      </trkpt>
      <trkpt lat="40.34691" lon="20.38967">
        <ele>1081.1400146484</ele>
        <time>2023-09-28T13:02:31.000Z</time>
      </trkpt>
      <trkpt lat="40.34687" lon="20.38976">
        <ele>1081.1400146484</ele>
        <time>2023-09-28T13:02:30.000Z</time>
      </trkpt>
      <trkpt lat="40.34682" lon="20.38986">
        <ele>1081.1400146484</ele>
        <time>2023-09-28T13:02:29.000Z</time>
      </trkpt>
      <trkpt lat="40.34669" lon="20.39005">
        <ele>1081.6199951172</ele>
        <time>2023-09-28T13:02:28.000Z</time>
      </trkpt>
      <trkpt lat="40.34666" lon="20.39011">
        <ele>1081.6199951172</ele>
        <time>2023-09-28T13:02:27.000Z</time>
      </trkpt>
      <trkpt lat="40.3465" lon="20.3904">
        <ele>1084.0200195312</ele>
        <time>2023-09-28T13:02:25.000Z</time>
      </trkpt>
      <trkpt lat="40.34633" lon="20.39068">
        <ele>1088.3499755859</ele>
        <time>2023-09-28T13:02:23.000Z</time>
      </trkpt>
      <trkpt lat="40.34629" lon="20.39078">
        <ele>1089.7900390625</ele>
        <time>2023-09-28T13:02:22.000Z</time>
      </trkpt>
      <trkpt lat="40.34624" lon="20.39092">
        <ele>1092.6800537109</ele>
        <time>2023-09-28T13:02:21.000Z</time>
      </trkpt>
      <trkpt lat="40.34621" lon="20.39104">
        <ele>1092.6800537109</ele>
        <time>2023-09-28T13:02:20.000Z</time>
      </trkpt>
      <trkpt lat="40.3462" lon="20.39119">
        <ele>1092.6800537109</ele>
        <time>2023-09-28T13:02:19.000Z</time>
      </trkpt>
      <trkpt lat="40.34619" lon="20.3913">
        <ele>1092.6800537109</ele>
        <time>2023-09-28T13:02:18.000Z</time>
      </trkpt>
      <trkpt lat="40.34618" lon="20.39142">
        <ele>1093.1600341797</ele>
        <time>2023-09-28T13:02:17.000Z</time>
      </trkpt>
      <trkpt lat="40.34616" lon="20.39154">
        <ele>1093.1600341797</ele>
        <time>2023-09-28T13:02:16.000Z</time>
      </trkpt>
      <trkpt lat="40.34614" lon="20.39166">
        <ele>1094.1199951172</ele>
        <time>2023-09-28T13:02:15.000Z</time>
      </trkpt>
      <trkpt lat="40.34614" lon="20.39172">
        <ele>1094.1199951172</ele>
        <time>2023-09-28T13:02:14.000Z</time>
      </trkpt>
      <trkpt lat="40.34612" lon="20.39195">
        <ele>1093.6400146484</ele>
        <time>2023-09-28T13:02:13.000Z</time>
      </trkpt>
      <trkpt lat="40.3461" lon="20.39208">
        <ele>1093.6400146484</ele>
        <time>2023-09-28T13:02:12.000Z</time>
      </trkpt>
      <trkpt lat="40.34608" lon="20.39218">
        <ele>1093.1600341797</ele>
        <time>2023-09-28T13:02:11.000Z</time>
      </trkpt>
      <trkpt lat="40.34604" lon="20.39227">
        <ele>1093.1600341797</ele>
        <time>2023-09-28T13:02:10.000Z</time>
      </trkpt>
      <trkpt lat="40.34599" lon="20.39237">
        <ele>1092.6800537109</ele>
        <time>2023-09-28T13:02:09.000Z</time>
      </trkpt>
      <trkpt lat="40.34593" lon="20.39246">
        <ele>1091.7099609375</ele>
        <time>2023-09-28T13:02:08.000Z</time>
      </trkpt>
      <trkpt lat="40.34589" lon="20.39255">
        <ele>1091.7099609375</ele>
        <time>2023-09-28T13:02:07.000Z</time>
      </trkpt>
      <trkpt lat="40.34586" lon="20.39264">
        <ele>1091.2299804688</ele>
        <time>2023-09-28T13:02:06.000Z</time>
      </trkpt>
      <trkpt lat="40.34584" lon="20.39272">
        <ele>1090.75</ele>
        <time>2023-09-28T13:02:05.000Z</time>
      </trkpt>
      <trkpt lat="40.34586" lon="20.3928">
        <ele>1090.2700195312</ele>
        <time>2023-09-28T13:02:04.000Z</time>
      </trkpt>
      <trkpt lat="40.34589" lon="20.39286">
        <ele>1090.2700195312</ele>
        <time>2023-09-28T13:02:03.000Z</time>
      </trkpt>
      <trkpt lat="40.34593" lon="20.39291">
        <ele>1089.7900390625</ele>
        <time>2023-09-28T13:02:02.000Z</time>
      </trkpt>
      <trkpt lat="40.346" lon="20.39296">
        <ele>1089.7900390625</ele>
        <time>2023-09-28T13:02:01.000Z</time>
      </trkpt>
      <trkpt lat="40.34606" lon="20.39302">
        <ele>1088.8299560547</ele>
        <time>2023-09-28T13:02:00.000Z</time>
      </trkpt>
      <trkpt lat="40.3461" lon="20.39308">
        <ele>1088.3499755859</ele>
        <time>2023-09-28T13:01:59.000Z</time>
      </trkpt>
      <trkpt lat="40.34614" lon="20.39317">
        <ele>1087.3900146484</ele>
        <time>2023-09-28T13:01:58.000Z</time>
      </trkpt>
      <trkpt lat="40.34615" lon="20.39327">
        <ele>1086.9100341797</ele>
        <time>2023-09-28T13:01:57.000Z</time>
      </trkpt>
      <trkpt lat="40.34613" lon="20.39337">
        <ele>1085.9499511719</ele>
        <time>2023-09-28T13:01:56.000Z</time>
      </trkpt>
      <trkpt lat="40.34611" lon="20.39345">
        <ele>1084.5</ele>
        <time>2023-09-28T13:01:55.000Z</time>
      </trkpt>
      <trkpt lat="40.3461" lon="20.39347">
        <ele>1084.0200195312</ele>
        <time>2023-09-28T13:01:54.000Z</time>
      </trkpt>
      <trkpt lat="40.34604" lon="20.39363">
        <ele>1083.5400390625</ele>
        <time>2023-09-28T13:01:53.000Z</time>
      </trkpt>
      <trkpt lat="40.34591" lon="20.39396">
        <ele>1083.5400390625</ele>
        <time>2023-09-28T13:01:51.000Z</time>
      </trkpt>
      <trkpt lat="40.34583" lon="20.39418">
        <ele>1083.5400390625</ele>
        <time>2023-09-28T13:01:49.000Z</time>
      </trkpt>
      <trkpt lat="40.34579" lon="20.39427">
        <ele>1083.0600585938</ele>
        <time>2023-09-28T13:01:48.000Z</time>
      </trkpt>
      <trkpt lat="40.3457" lon="20.39447">
        <ele>1082.0999755859</ele>
        <time>2023-09-28T13:01:47.000Z</time>
      </trkpt>
      <trkpt lat="40.34561" lon="20.3947">
        <ele>1083.0600585938</ele>
        <time>2023-09-28T13:01:45.000Z</time>
      </trkpt>
      <trkpt lat="40.34556" lon="20.39482">
        <ele>1083.0600585938</ele>
        <time>2023-09-28T13:01:44.000Z</time>
      </trkpt>
      <trkpt lat="40.34554" lon="20.39486">
        <ele>1083.0600585938</ele>
        <time>2023-09-28T13:01:43.000Z</time>
      </trkpt>
      <trkpt lat="40.3454" lon="20.39509">
        <ele>1083.0600585938</ele>
        <time>2023-09-28T13:01:41.000Z</time>
      </trkpt>
      <trkpt lat="40.3452" lon="20.39544">
        <ele>1084.5</ele>
        <time>2023-09-28T13:01:37.000Z</time>
      </trkpt>
      <trkpt lat="40.34515" lon="20.39551">
        <ele>1085.4699707031</ele>
        <time>2023-09-28T13:01:36.000Z</time>
      </trkpt>
      <trkpt lat="40.34509" lon="20.39559">
        <ele>1086.4300537109</ele>
        <time>2023-09-28T13:01:35.000Z</time>
      </trkpt>
      <trkpt lat="40.34503" lon="20.39564">
        <ele>1086.9100341797</ele>
        <time>2023-09-28T13:01:34.000Z</time>
      </trkpt>
      <trkpt lat="40.34469" lon="20.39593">
        <ele>1090.2700195312</ele>
        <time>2023-09-28T13:01:30.000Z</time>
      </trkpt>
      <trkpt lat="40.34457" lon="20.39605">
        <ele>1091.7099609375</ele>
        <time>2023-09-28T13:01:29.000Z</time>
      </trkpt>
      <trkpt lat="40.34447" lon="20.39614">
        <ele>1092.6800537109</ele>
        <time>2023-09-28T13:01:28.000Z</time>
      </trkpt>
      <trkpt lat="40.34442" lon="20.3962">
        <ele>1093.1600341797</ele>
        <time>2023-09-28T13:01:27.000Z</time>
      </trkpt>
      <trkpt lat="40.34432" lon="20.39634">
        <ele>1095.0799560547</ele>
        <time>2023-09-28T13:01:26.000Z</time>
      </trkpt>
      <trkpt lat="40.34429" lon="20.3964">
        <ele>1095.5600585938</ele>
        <time>2023-09-28T13:01:25.000Z</time>
      </trkpt>
      <trkpt lat="40.34415" lon="20.39661">
        <ele>1098.4399414062</ele>
        <time>2023-09-28T13:01:24.000Z</time>
      </trkpt>
      <trkpt lat="40.34409" lon="20.39668">
        <ele>1098.9200439453</ele>
        <time>2023-09-28T13:01:23.000Z</time>
      </trkpt>
      <trkpt lat="40.34404" lon="20.39672">
        <ele>1098.9200439453</ele>
        <time>2023-09-28T13:01:22.000Z</time>
      </trkpt>
      <trkpt lat="40.344" lon="20.39673">
        <ele>1098.9200439453</ele>
        <time>2023-09-28T13:01:21.000Z</time>
      </trkpt>
      <trkpt lat="40.34384" lon="20.39678">
        <ele>1100.3699951172</ele>
        <time>2023-09-28T13:01:20.000Z</time>
      </trkpt>
      <trkpt lat="40.34379" lon="20.3968">
        <ele>1100.3699951172</ele>
        <time>2023-09-28T13:01:19.000Z</time>
      </trkpt>
      <trkpt lat="40.34361" lon="20.39688">
        <ele>1101.8100585938</ele>
        <time>2023-09-28T13:01:18.000Z</time>
      </trkpt>
      <trkpt lat="40.34353" lon="20.39692">
        <ele>1102.7700195312</ele>
        <time>2023-09-28T13:01:17.000Z</time>
      </trkpt>
      <trkpt lat="40.34351" lon="20.39693">
        <ele>1102.7700195312</ele>
        <time>2023-09-28T13:01:16.000Z</time>
      </trkpt>
      <trkpt lat="40.34336" lon="20.39704">
        <ele>1104.6899414062</ele>
        <time>2023-09-28T13:01:15.000Z</time>
      </trkpt>
      <trkpt lat="40.3433" lon="20.39709">
        <ele>1105.1700439453</ele>
        <time>2023-09-28T13:01:14.000Z</time>
      </trkpt>
      <trkpt lat="40.34323" lon="20.39718">
        <ele>1105.6500244141</ele>
        <time>2023-09-28T13:01:13.000Z</time>
      </trkpt>
      <trkpt lat="40.34317" lon="20.39728">
        <ele>1106.1300048828</ele>
        <time>2023-09-28T13:01:12.000Z</time>
      </trkpt>
      <trkpt lat="40.34316" lon="20.39732">
        <ele>1106.1300048828</ele>
        <time>2023-09-28T13:01:11.000Z</time>
      </trkpt>
      <trkpt lat="40.34306" lon="20.39752">
        <ele>1107.0999755859</ele>
        <time>2023-09-28T13:01:10.000Z</time>
      </trkpt>
      <trkpt lat="40.34301" lon="20.39763">
        <ele>1107.5799560547</ele>
        <time>2023-09-28T13:01:09.000Z</time>
      </trkpt>
      <trkpt lat="40.34295" lon="20.39775">
        <ele>1108.5400390625</ele>
        <time>2023-09-28T13:01:08.000Z</time>
      </trkpt>
      <trkpt lat="40.34293" lon="20.39779">
        <ele>1108.5400390625</ele>
        <time>2023-09-28T13:01:07.000Z</time>
      </trkpt>
      <trkpt lat="40.34286" lon="20.39793">
        <ele>1109.5</ele>
        <time>2023-09-28T13:01:06.000Z</time>
      </trkpt>
      <trkpt lat="40.34285" lon="20.398">
        <ele>1109.5</ele>
        <time>2023-09-28T13:01:05.000Z</time>
      </trkpt>
      <trkpt lat="40.34286" lon="20.39807">
        <ele>1109.9799804688</ele>
        <time>2023-09-28T13:01:04.000Z</time>
      </trkpt>
      <trkpt lat="40.34289" lon="20.39813">
        <ele>1110.9399414062</ele>
        <time>2023-09-28T13:01:03.000Z</time>
      </trkpt>
      <trkpt lat="40.34292" lon="20.3982">
        <ele>1111.4200439453</ele>
        <time>2023-09-28T13:01:02.000Z</time>
      </trkpt>
      <trkpt lat="40.34296" lon="20.39827">
        <ele>1112.8599853516</ele>
        <time>2023-09-28T13:01:01.000Z</time>
      </trkpt>
      <trkpt lat="40.34297" lon="20.39834">
        <ele>1113.3399658203</ele>
        <time>2023-09-28T13:01:00.000Z</time>
      </trkpt>
      <trkpt lat="40.34296" lon="20.39841">
        <ele>1113.8199462891</ele>
        <time>2023-09-28T13:00:59.000Z</time>
      </trkpt>
      <trkpt lat="40.34292" lon="20.3985">
        <ele>1114.7900390625</ele>
        <time>2023-09-28T13:00:58.000Z</time>
      </trkpt>
      <trkpt lat="40.3429" lon="20.39857">
        <ele>1116.2299804688</ele>
        <time>2023-09-28T13:00:57.000Z</time>
      </trkpt>
      <trkpt lat="40.34288" lon="20.39865">
        <ele>1117.1899414062</ele>
        <time>2023-09-28T13:00:56.000Z</time>
      </trkpt>
      <trkpt lat="40.34288" lon="20.3987">
        <ele>1118.1500244141</ele>
        <time>2023-09-28T13:00:55.000Z</time>
      </trkpt>
      <trkpt lat="40.34292" lon="20.39876">
        <ele>1119.1099853516</ele>
        <time>2023-09-28T13:00:54.000Z</time>
      </trkpt>
      <trkpt lat="40.34297" lon="20.39879">
        <ele>1119.5899658203</ele>
        <time>2023-09-28T13:00:53.000Z</time>
      </trkpt>
      <trkpt lat="40.34301" lon="20.39881">
        <ele>1120.5500488281</ele>
        <time>2023-09-28T13:00:52.000Z</time>
      </trkpt>
      <trkpt lat="40.34308" lon="20.39883">
        <ele>1121.0300292969</ele>
        <time>2023-09-28T13:00:51.000Z</time>
      </trkpt>
      <trkpt lat="40.34315" lon="20.39886">
        <ele>1122.4799804688</ele>
        <time>2023-09-28T13:00:50.000Z</time>
      </trkpt>
      <trkpt lat="40.34319" lon="20.39889">
        <ele>1122.9599609375</ele>
        <time>2023-09-28T13:00:49.000Z</time>
      </trkpt>
      <trkpt lat="40.34322" lon="20.39893">
        <ele>1123.9200439453</ele>
        <time>2023-09-28T13:00:48.000Z</time>
      </trkpt>
      <trkpt lat="40.3432" lon="20.39907">
        <ele>1125.3599853516</ele>
        <time>2023-09-28T13:00:45.000Z</time>
      </trkpt>
      <trkpt lat="40.34318" lon="20.39909">
        <ele>1125.3599853516</ele>
        <time>2023-09-28T13:00:44.000Z</time>
      </trkpt>
      <trkpt lat="40.34311" lon="20.39915">
        <ele>1126.3199462891</ele>
        <time>2023-09-28T13:00:43.000Z</time>
      </trkpt>
      <trkpt lat="40.34302" lon="20.39923">
        <ele>1127.7600097656</ele>
        <time>2023-09-28T13:00:42.000Z</time>
      </trkpt>
      <trkpt lat="40.34297" lon="20.39928">
        <ele>1128.2399902344</ele>
        <time>2023-09-28T13:00:41.000Z</time>
      </trkpt>
      <trkpt lat="40.34295" lon="20.39934">
        <ele>1128.7299804688</ele>
        <time>2023-09-28T13:00:40.000Z</time>
      </trkpt>
      <trkpt lat="40.34294" lon="20.39939">
        <ele>1129.2099609375</ele>
        <time>2023-09-28T13:00:39.000Z</time>
      </trkpt>
      <trkpt lat="40.34296" lon="20.39944">
        <ele>1129.6899414062</ele>
        <time>2023-09-28T13:00:38.000Z</time>
      </trkpt>
      <trkpt lat="40.34298" lon="20.39948">
        <ele>1130.1700439453</ele>
        <time>2023-09-28T13:00:37.000Z</time>
      </trkpt>
      <trkpt lat="40.34303" lon="20.3995">
        <ele>1130.6500244141</ele>
        <time>2023-09-28T13:00:36.000Z</time>
      </trkpt>
      <trkpt lat="40.34309" lon="20.39949">
        <ele>1130.6500244141</ele>
        <time>2023-09-28T13:00:35.000Z</time>
      </trkpt>
      <trkpt lat="40.3431" lon="20.39949">
        <ele>1131.1300048828</ele>
        <time>2023-09-28T13:00:34.000Z</time>
      </trkpt>
      <trkpt lat="40.34335" lon="20.3994">
        <ele>1132.0899658203</ele>
        <time>2023-09-28T13:00:32.000Z</time>
      </trkpt>
      <trkpt lat="40.34342" lon="20.39937">
        <ele>1133.0500488281</ele>
        <time>2023-09-28T13:00:31.000Z</time>
      </trkpt>
      <trkpt lat="40.34347" lon="20.39932">
        <ele>1133.5300292969</ele>
        <time>2023-09-28T13:00:30.000Z</time>
      </trkpt>
      <trkpt lat="40.34352" lon="20.39923">
        <ele>1134.0100097656</ele>
        <time>2023-09-28T13:00:29.000Z</time>
      </trkpt>
      <trkpt lat="40.34354" lon="20.39913">
        <ele>1134.4899902344</ele>
        <time>2023-09-28T13:00:28.000Z</time>
      </trkpt>
      <trkpt lat="40.34358" lon="20.39902">
        <ele>1134.9699707031</ele>
        <time>2023-09-28T13:00:27.000Z</time>
      </trkpt>
      <trkpt lat="40.34363" lon="20.39892">
        <ele>1135.4499511719</ele>
        <time>2023-09-28T13:00:26.000Z</time>
      </trkpt>
      <trkpt lat="40.34369" lon="20.39884">
        <ele>1135.4499511719</ele>
        <time>2023-09-28T13:00:25.000Z</time>
      </trkpt>
      <trkpt lat="40.34376" lon="20.39877">
        <ele>1135.4499511719</ele>
        <time>2023-09-28T13:00:24.000Z</time>
      </trkpt>
      <trkpt lat="40.34382" lon="20.39873">
        <ele>1135.9399414062</ele>
        <time>2023-09-28T13:00:23.000Z</time>
      </trkpt>
      <trkpt lat="40.34388" lon="20.39872">
        <ele>1135.4499511719</ele>
        <time>2023-09-28T13:00:22.000Z</time>
      </trkpt>
      <trkpt lat="40.34396" lon="20.39874">
        <ele>1134.0100097656</ele>
        <time>2023-09-28T13:00:21.000Z</time>
      </trkpt>
      <trkpt lat="40.34404" lon="20.39877">
        <ele>1134.0100097656</ele>
        <time>2023-09-28T13:00:20.000Z</time>
      </trkpt>
      <trkpt lat="40.34413" lon="20.3988">
        <ele>1133.5300292969</ele>
        <time>2023-09-28T13:00:19.000Z</time>
      </trkpt>
      <trkpt lat="40.34423" lon="20.3988">
        <ele>1134.0100097656</ele>
        <time>2023-09-28T13:00:18.000Z</time>
      </trkpt>
      <trkpt lat="40.34431" lon="20.39878">
        <ele>1134.4899902344</ele>
        <time>2023-09-28T13:00:17.000Z</time>
      </trkpt>
      <trkpt lat="40.34436" lon="20.39877">
        <ele>1134.9699707031</ele>
        <time>2023-09-28T13:00:16.000Z</time>
      </trkpt>
      <trkpt lat="40.34452" lon="20.39871">
        <ele>1136.4200439453</ele>
        <time>2023-09-28T13:00:15.000Z</time>
      </trkpt>
      <trkpt lat="40.34463" lon="20.39868">
        <ele>1136.9000244141</ele>
        <time>2023-09-28T13:00:14.000Z</time>
      </trkpt>
      <trkpt lat="40.34488" lon="20.39867">
        <ele>1138.8199462891</ele>
        <time>2023-09-28T13:00:12.000Z</time>
      </trkpt>
      <trkpt lat="40.34498" lon="20.39867">
        <ele>1140.2600097656</ele>
        <time>2023-09-28T13:00:11.000Z</time>
      </trkpt>
      <trkpt lat="40.34505" lon="20.39866">
        <ele>1140.7399902344</ele>
        <time>2023-09-28T13:00:10.000Z</time>
      </trkpt>
      <trkpt lat="40.34511" lon="20.39864">
        <ele>1141.2199707031</ele>
        <time>2023-09-28T13:00:09.000Z</time>
      </trkpt>
      <trkpt lat="40.34515" lon="20.39859">
        <ele>1142.1800537109</ele>
        <time>2023-09-28T13:00:08.000Z</time>
      </trkpt>
      <trkpt lat="40.3452" lon="20.39851">
        <ele>1142.1800537109</ele>
        <time>2023-09-28T13:00:07.000Z</time>
      </trkpt>
      <trkpt lat="40.34524" lon="20.39839">
        <ele>1142.6600341797</ele>
        <time>2023-09-28T13:00:06.000Z</time>
      </trkpt>
      <trkpt lat="40.34527" lon="20.39828">
        <ele>1143.1400146484</ele>
        <time>2023-09-28T13:00:05.000Z</time>
      </trkpt>
      <trkpt lat="40.34531" lon="20.39819">
        <ele>1144.1099853516</ele>
        <time>2023-09-28T13:00:04.000Z</time>
      </trkpt>
      <trkpt lat="40.34537" lon="20.39814">
        <ele>1144.5899658203</ele>
        <time>2023-09-28T13:00:03.000Z</time>
      </trkpt>
      <trkpt lat="40.34542" lon="20.39811">
        <ele>1145.0699462891</ele>
        <time>2023-09-28T13:00:02.000Z</time>
      </trkpt>
      <trkpt lat="40.3455" lon="20.39811">
        <ele>1145.0699462891</ele>
        <time>2023-09-28T13:00:01.000Z</time>
      </trkpt>
      <trkpt lat="40.34558" lon="20.39813">
        <ele>1144.5899658203</ele>
        <time>2023-09-28T13:00:00.000Z</time>
      </trkpt>
      <trkpt lat="40.34575" lon="20.3982">
        <ele>1143.6300048828</ele>
        <time>2023-09-28T12:59:58.000Z</time>
      </trkpt>
      <trkpt lat="40.34582" lon="20.3982">
        <ele>1144.1099853516</ele>
        <time>2023-09-28T12:59:57.000Z</time>
      </trkpt>
      <trkpt lat="40.34591" lon="20.3982">
        <ele>1144.5899658203</ele>
        <time>2023-09-28T12:59:56.000Z</time>
      </trkpt>
      <trkpt lat="40.346" lon="20.39816">
        <ele>1144.5899658203</ele>
        <time>2023-09-28T12:59:55.000Z</time>
      </trkpt>
      <trkpt lat="40.34612" lon="20.39811">
        <ele>1145.5500488281</ele>
        <time>2023-09-28T12:59:54.000Z</time>
      </trkpt>
      <trkpt lat="40.34622" lon="20.39807">
        <ele>1146.0300292969</ele>
        <time>2023-09-28T12:59:53.000Z</time>
      </trkpt>
      <trkpt lat="40.34628" lon="20.39806">
        <ele>1146.0300292969</ele>
        <time>2023-09-28T12:59:52.000Z</time>
      </trkpt>
      <trkpt lat="40.34642" lon="20.39804">
        <ele>1146.9899902344</ele>
        <time>2023-09-28T12:59:51.000Z</time>
      </trkpt>
      <trkpt lat="40.3465" lon="20.39801">
        <ele>1147.9499511719</ele>
        <time>2023-09-28T12:59:50.000Z</time>
      </trkpt>
      <trkpt lat="40.34658" lon="20.39796">
        <ele>1148.9100341797</ele>
        <time>2023-09-28T12:59:49.000Z</time>
      </trkpt>
      <trkpt lat="40.34665" lon="20.39788">
        <ele>1149.3900146484</ele>
        <time>2023-09-28T12:59:48.000Z</time>
      </trkpt>
      <trkpt lat="40.34685" lon="20.39768">
        <ele>1149.8699951172</ele>
        <time>2023-09-28T12:59:46.000Z</time>
      </trkpt>
      <trkpt lat="40.34693" lon="20.39756">
        <ele>1150.8399658203</ele>
        <time>2023-09-28T12:59:45.000Z</time>
      </trkpt>
      <trkpt lat="40.34695" lon="20.39754">
        <ele>1150.8399658203</ele>
        <time>2023-09-28T12:59:44.000Z</time>
      </trkpt>
      <trkpt lat="40.34707" lon="20.39733">
        <ele>1152.7600097656</ele>
        <time>2023-09-28T12:59:43.000Z</time>
      </trkpt>
      <trkpt lat="40.34711" lon="20.39725">
        <ele>1153.2399902344</ele>
        <time>2023-09-28T12:59:42.000Z</time>
      </trkpt>
      <trkpt lat="40.34716" lon="20.3972">
        <ele>1153.7199707031</ele>
        <time>2023-09-28T12:59:41.000Z</time>
      </trkpt>
      <trkpt lat="40.34722" lon="20.39717">
        <ele>1153.7199707031</ele>
        <time>2023-09-28T12:59:40.000Z</time>
      </trkpt>
      <trkpt lat="40.34726" lon="20.39716">
        <ele>1153.7199707031</ele>
        <time>2023-09-28T12:59:39.000Z</time>
      </trkpt>
      <trkpt lat="40.34739" lon="20.39714">
        <ele>1154.6800537109</ele>
        <time>2023-09-28T12:59:38.000Z</time>
      </trkpt>
      <trkpt lat="40.34749" lon="20.39713">
        <ele>1155.1600341797</ele>
        <time>2023-09-28T12:59:37.000Z</time>
      </trkpt>
      <trkpt lat="40.34759" lon="20.39712">
        <ele>1155.6400146484</ele>
        <time>2023-09-28T12:59:36.000Z</time>
      </trkpt>
      <trkpt lat="40.3477" lon="20.39712">
        <ele>1156.5999755859</ele>
        <time>2023-09-28T12:59:35.000Z</time>
      </trkpt>
      <trkpt lat="40.34792" lon="20.39715">
        <ele>1157.0799560547</ele>
        <time>2023-09-28T12:59:34.000Z</time>
      </trkpt>
      <trkpt lat="40.34808" lon="20.39718">
        <ele>1157.0799560547</ele>
        <time>2023-09-28T12:59:32.000Z</time>
      </trkpt>
      <trkpt lat="40.34827" lon="20.39722">
        <ele>1156.1199951172</ele>
        <time>2023-09-28T12:59:31.000Z</time>
      </trkpt>
      <trkpt lat="40.34834" lon="20.39723">
        <ele>1155.1600341797</ele>
        <time>2023-09-28T12:59:30.000Z</time>
      </trkpt>
      <trkpt lat="40.34844" lon="20.39722">
        <ele>1154.6800537109</ele>
        <time>2023-09-28T12:59:29.000Z</time>
      </trkpt>
      <trkpt lat="40.34851" lon="20.39721">
        <ele>1155.1600341797</ele>
        <time>2023-09-28T12:59:28.000Z</time>
      </trkpt>
      <trkpt lat="40.34857" lon="20.39722">
        <ele>1155.1600341797</ele>
        <time>2023-09-28T12:59:27.000Z</time>
      </trkpt>
      <trkpt lat="40.34861" lon="20.39726">
        <ele>1155.1600341797</ele>
        <time>2023-09-28T12:59:26.000Z</time>
      </trkpt>
      <trkpt lat="40.34864" lon="20.39733">
        <ele>1155.6400146484</ele>
        <time>2023-09-28T12:59:25.000Z</time>
      </trkpt>
      <trkpt lat="40.34865" lon="20.39744">
        <ele>1155.1600341797</ele>
        <time>2023-09-28T12:59:24.000Z</time>
      </trkpt>
      <trkpt lat="40.34865" lon="20.39753">
        <ele>1154.6800537109</ele>
        <time>2023-09-28T12:59:23.000Z</time>
      </trkpt>
      <trkpt lat="40.34867" lon="20.3977">
        <ele>1154.6800537109</ele>
        <time>2023-09-28T12:59:22.000Z</time>
      </trkpt>
      <trkpt lat="40.34872" lon="20.39788">
        <ele>1154.1999511719</ele>
        <time>2023-09-28T12:59:21.000Z</time>
      </trkpt>
      <trkpt lat="40.34876" lon="20.39799">
        <ele>1154.1999511719</ele>
        <time>2023-09-28T12:59:20.000Z</time>
      </trkpt>
      <trkpt lat="40.34878" lon="20.39806">
        <ele>1154.1999511719</ele>
        <time>2023-09-28T12:59:19.000Z</time>
      </trkpt>
      <trkpt lat="40.34887" lon="20.39834">
        <ele>1153.7199707031</ele>
        <time>2023-09-28T12:59:18.000Z</time>
      </trkpt>
      <trkpt lat="40.3489" lon="20.39845">
        <ele>1153.7199707031</ele>
        <time>2023-09-28T12:59:17.000Z</time>
      </trkpt>
      <trkpt lat="40.34894" lon="20.39866">
        <ele>1153.2399902344</ele>
        <time>2023-09-28T12:59:16.000Z</time>
      </trkpt>
      <trkpt lat="40.34895" lon="20.39869">
        <ele>1153.2399902344</ele>
        <time>2023-09-28T12:59:15.000Z</time>
      </trkpt>
      <trkpt lat="40.349" lon="20.39895">
        <ele>1153.2399902344</ele>
        <time>2023-09-28T12:59:14.000Z</time>
      </trkpt>
      <trkpt lat="40.34901" lon="20.39906">
        <ele>1153.7199707031</ele>
        <time>2023-09-28T12:59:13.000Z</time>
      </trkpt>
      <trkpt lat="40.34904" lon="20.39916">
        <ele>1153.7199707031</ele>
        <time>2023-09-28T12:59:12.000Z</time>
      </trkpt>
      <trkpt lat="40.34918" lon="20.39962">
        <ele>1155.1600341797</ele>
        <time>2023-09-28T12:59:09.000Z</time>
      </trkpt>
      <trkpt lat="40.34921" lon="20.39969">
        <ele>1155.1600341797</ele>
        <time>2023-09-28T12:59:08.000Z</time>
      </trkpt>
      <trkpt lat="40.34928" lon="20.39987">
        <ele>1157.0799560547</ele>
        <time>2023-09-28T12:59:07.000Z</time>
      </trkpt>
      <trkpt lat="40.34931" lon="20.39995">
        <ele>1157.0799560547</ele>
        <time>2023-09-28T12:59:06.000Z</time>
      </trkpt>
      <trkpt lat="40.34939" lon="20.40012">
        <ele>1157.0799560547</ele>
        <time>2023-09-28T12:59:05.000Z</time>
      </trkpt>
      <trkpt lat="40.34942" lon="20.40021">
        <ele>1157.5600585938</ele>
        <time>2023-09-28T12:59:04.000Z</time>
      </trkpt>
      <trkpt lat="40.34946" lon="20.40036">
        <ele>1158.5300292969</ele>
        <time>2023-09-28T12:59:03.000Z</time>
      </trkpt>
      <trkpt lat="40.34947" lon="20.40041">
        <ele>1159.0100097656</ele>
        <time>2023-09-28T12:59:02.000Z</time>
      </trkpt>
      <trkpt lat="40.34948" lon="20.40064">
        <ele>1159.4899902344</ele>
        <time>2023-09-28T12:59:01.000Z</time>
      </trkpt>
      <trkpt lat="40.34947" lon="20.40078">
        <ele>1160.9300537109</ele>
        <time>2023-09-28T12:59:00.000Z</time>
      </trkpt>
      <trkpt lat="40.34947" lon="20.40082">
        <ele>1160.9300537109</ele>
        <time>2023-09-28T12:58:59.000Z</time>
      </trkpt>
      <trkpt lat="40.34947" lon="20.401">
        <ele>1160.9300537109</ele>
        <time>2023-09-28T12:58:58.000Z</time>
      </trkpt>
      <trkpt lat="40.34949" lon="20.40144">
        <ele>1163.3299560547</ele>
        <time>2023-09-28T12:58:55.000Z</time>
      </trkpt>
      <trkpt lat="40.34949" lon="20.40147">
        <ele>1163.3299560547</ele>
        <time>2023-09-28T12:58:54.000Z</time>
      </trkpt>
      <trkpt lat="40.34949" lon="20.40174">
        <ele>1161.8900146484</ele>
        <time>2023-09-28T12:58:53.000Z</time>
      </trkpt>
      <trkpt lat="40.34947" lon="20.40192">
        <ele>1160.9300537109</ele>
        <time>2023-09-28T12:58:52.000Z</time>
      </trkpt>
      <trkpt lat="40.34947" lon="20.40212">
        <ele>1160.4499511719</ele>
        <time>2023-09-28T12:58:51.000Z</time>
      </trkpt>
      <trkpt lat="40.34946" lon="20.40259">
        <ele>1159.4899902344</ele>
        <time>2023-09-28T12:58:48.000Z</time>
      </trkpt>
      <trkpt lat="40.34947" lon="20.40282">
        <ele>1159.0100097656</ele>
        <time>2023-09-28T12:58:47.000Z</time>
      </trkpt>
      <trkpt lat="40.34948" lon="20.40297">
        <ele>1158.5300292969</ele>
        <time>2023-09-28T12:58:46.000Z</time>
      </trkpt>
      <trkpt lat="40.3495" lon="20.40312">
        <ele>1158.0500488281</ele>
        <time>2023-09-28T12:58:45.000Z</time>
      </trkpt>
      <trkpt lat="40.34953" lon="20.40326">
        <ele>1157.5600585938</ele>
        <time>2023-09-28T12:58:44.000Z</time>
      </trkpt>
      <trkpt lat="40.34957" lon="20.4034">
        <ele>1157.0799560547</ele>
        <time>2023-09-28T12:58:43.000Z</time>
      </trkpt>
      <trkpt lat="40.34962" lon="20.40351">
        <ele>1157.0799560547</ele>
        <time>2023-09-28T12:58:42.000Z</time>
      </trkpt>
      <trkpt lat="40.34967" lon="20.40362">
        <ele>1156.5999755859</ele>
        <time>2023-09-28T12:58:41.000Z</time>
      </trkpt>
      <trkpt lat="40.34971" lon="20.40369">
        <ele>1156.5999755859</ele>
        <time>2023-09-28T12:58:40.000Z</time>
      </trkpt>
      <trkpt lat="40.34977" lon="20.40376">
        <ele>1156.5999755859</ele>
        <time>2023-09-28T12:58:39.000Z</time>
      </trkpt>
      <trkpt lat="40.34983" lon="20.4038">
        <ele>1156.5999755859</ele>
        <time>2023-09-28T12:58:38.000Z</time>
      </trkpt>
      <trkpt lat="40.34988" lon="20.40382">
        <ele>1156.5999755859</ele>
        <time>2023-09-28T12:58:37.000Z</time>
      </trkpt>
      <trkpt lat="40.34993" lon="20.40382">
        <ele>1156.5999755859</ele>
        <time>2023-09-28T12:58:36.000Z</time>
      </trkpt>
      <trkpt lat="40.34997" lon="20.40379">
        <ele>1157.0799560547</ele>
        <time>2023-09-28T12:58:35.000Z</time>
      </trkpt>
      <trkpt lat="40.35" lon="20.40373">
        <ele>1157.0799560547</ele>
        <time>2023-09-28T12:58:34.000Z</time>
      </trkpt>
      <trkpt lat="40.35002" lon="20.40365">
        <ele>1157.0799560547</ele>
        <time>2023-09-28T12:58:33.000Z</time>
      </trkpt>
      <trkpt lat="40.35003" lon="20.4036">
        <ele>1157.0799560547</ele>
        <time>2023-09-28T12:58:32.000Z</time>
      </trkpt>
      <trkpt lat="40.35002" lon="20.40346">
        <ele>1157.0799560547</ele>
        <time>2023-09-28T12:58:31.000Z</time>
      </trkpt>
      <trkpt lat="40.35003" lon="20.40335">
        <ele>1157.0799560547</ele>
        <time>2023-09-28T12:58:30.000Z</time>
      </trkpt>
      <trkpt lat="40.35006" lon="20.40327">
        <ele>1156.5999755859</ele>
        <time>2023-09-28T12:58:29.000Z</time>
      </trkpt>
      <trkpt lat="40.3501" lon="20.4032">
        <ele>1156.5999755859</ele>
        <time>2023-09-28T12:58:28.000Z</time>
      </trkpt>
      <trkpt lat="40.35015" lon="20.40315">
        <ele>1156.1199951172</ele>
        <time>2023-09-28T12:58:27.000Z</time>
      </trkpt>
      <trkpt lat="40.3502" lon="20.40313">
        <ele>1156.1199951172</ele>
        <time>2023-09-28T12:58:26.000Z</time>
      </trkpt>
      <trkpt lat="40.3504" lon="20.40306">
        <ele>1155.6400146484</ele>
        <time>2023-09-28T12:58:24.000Z</time>
      </trkpt>
      <trkpt lat="40.35046" lon="20.40301">
        <ele>1155.6400146484</ele>
        <time>2023-09-28T12:58:23.000Z</time>
      </trkpt>
      <trkpt lat="40.35055" lon="20.40293">
        <ele>1155.6400146484</ele>
        <time>2023-09-28T12:58:22.000Z</time>
      </trkpt>
      <trkpt lat="40.35063" lon="20.40284">
        <ele>1156.1199951172</ele>
        <time>2023-09-28T12:58:21.000Z</time>
      </trkpt>
      <trkpt lat="40.35067" lon="20.40279">
        <ele>1156.1199951172</ele>
        <time>2023-09-28T12:58:20.000Z</time>
      </trkpt>
      <trkpt lat="40.35073" lon="20.40271">
        <ele>1156.1199951172</ele>
        <time>2023-09-28T12:58:19.000Z</time>
      </trkpt>
      <trkpt lat="40.35084" lon="20.40256">
        <ele>1156.1199951172</ele>
        <time>2023-09-28T12:58:18.000Z</time>
      </trkpt>
      <trkpt lat="40.35095" lon="20.40234">
        <ele>1157.0799560547</ele>
        <time>2023-09-28T12:58:16.000Z</time>
      </trkpt>
      <trkpt lat="40.35099" lon="20.40227">
        <ele>1157.5600585938</ele>
        <time>2023-09-28T12:58:15.000Z</time>
      </trkpt>
      <trkpt lat="40.35107" lon="20.40215">
        <ele>1159.0100097656</ele>
        <time>2023-09-28T12:58:14.000Z</time>
      </trkpt>
      <trkpt lat="40.35121" lon="20.40198">
        <ele>1160.4499511719</ele>
        <time>2023-09-28T12:58:12.000Z</time>
      </trkpt>
      <trkpt lat="40.35125" lon="20.4019">
        <ele>1160.9300537109</ele>
        <time>2023-09-28T12:58:11.000Z</time>
      </trkpt>
      <trkpt lat="40.35128" lon="20.40179">
        <ele>1161.4100341797</ele>
        <time>2023-09-28T12:58:10.000Z</time>
      </trkpt>
      <trkpt lat="40.35128" lon="20.40174">
        <ele>1161.4100341797</ele>
        <time>2023-09-28T12:58:09.000Z</time>
      </trkpt>
      <trkpt lat="40.3513" lon="20.4014">
        <ele>1163.3299560547</ele>
        <time>2023-09-28T12:58:07.000Z</time>
      </trkpt>
      <trkpt lat="40.35131" lon="20.4013">
        <ele>1163.8100585938</ele>
        <time>2023-09-28T12:58:06.000Z</time>
      </trkpt>
      <trkpt lat="40.35134" lon="20.40122">
        <ele>1164.2900390625</ele>
        <time>2023-09-28T12:58:05.000Z</time>
      </trkpt>
      <trkpt lat="40.35138" lon="20.40117">
        <ele>1164.7700195312</ele>
        <time>2023-09-28T12:58:04.000Z</time>
      </trkpt>
      <trkpt lat="40.35143" lon="20.4011">
        <ele>1164.7700195312</ele>
        <time>2023-09-28T12:58:03.000Z</time>
      </trkpt>
      <trkpt lat="40.35149" lon="20.40102">
        <ele>1165.2600097656</ele>
        <time>2023-09-28T12:58:02.000Z</time>
      </trkpt>
      <trkpt lat="40.35154" lon="20.40093">
        <ele>1165.2600097656</ele>
        <time>2023-09-28T12:58:01.000Z</time>
      </trkpt>
      <trkpt lat="40.3516" lon="20.40084">
        <ele>1165.7399902344</ele>
        <time>2023-09-28T12:58:00.000Z</time>
      </trkpt>
      <trkpt lat="40.35164" lon="20.40078">
        <ele>1165.7399902344</ele>
        <time>2023-09-28T12:57:59.000Z</time>
      </trkpt>
      <trkpt lat="40.35172" lon="20.40069">
        <ele>1165.7399902344</ele>
        <time>2023-09-28T12:57:58.000Z</time>
      </trkpt>
      <trkpt lat="40.35178" lon="20.40066">
        <ele>1165.7399902344</ele>
        <time>2023-09-28T12:57:57.000Z</time>
      </trkpt>
      <trkpt lat="40.35183" lon="20.40065">
        <ele>1165.7399902344</ele>
        <time>2023-09-28T12:57:56.000Z</time>
      </trkpt>
      <trkpt lat="40.35189" lon="20.40068">
        <ele>1165.2600097656</ele>
        <time>2023-09-28T12:57:55.000Z</time>
      </trkpt>
      <trkpt lat="40.35194" lon="20.40074">
        <ele>1165.2600097656</ele>
        <time>2023-09-28T12:57:54.000Z</time>
      </trkpt>
      <trkpt lat="40.35197" lon="20.40082">
        <ele>1165.7399902344</ele>
        <time>2023-09-28T12:57:53.000Z</time>
      </trkpt>
      <trkpt lat="40.35201" lon="20.40093">
        <ele>1165.7399902344</ele>
        <time>2023-09-28T12:57:52.000Z</time>
      </trkpt>
      <trkpt lat="40.35212" lon="20.40119">
        <ele>1165.7399902344</ele>
        <time>2023-09-28T12:57:50.000Z</time>
      </trkpt>
      <trkpt lat="40.35218" lon="20.40132">
        <ele>1165.7399902344</ele>
        <time>2023-09-28T12:57:49.000Z</time>
      </trkpt>
      <trkpt lat="40.35226" lon="20.40142">
        <ele>1166.2199707031</ele>
        <time>2023-09-28T12:57:48.000Z</time>
      </trkpt>
      <trkpt lat="40.3523" lon="20.40146">
        <ele>1166.2199707031</ele>
        <time>2023-09-28T12:57:47.000Z</time>
      </trkpt>
      <trkpt lat="40.35244" lon="20.40159">
        <ele>1167.1800537109</ele>
        <time>2023-09-28T12:57:46.000Z</time>
      </trkpt>
      <trkpt lat="40.35249" lon="20.40164">
        <ele>1168.1400146484</ele>
        <time>2023-09-28T12:57:45.000Z</time>
      </trkpt>
      <trkpt lat="40.3526" lon="20.40176">
        <ele>1169.5799560547</ele>
        <time>2023-09-28T12:57:44.000Z</time>
      </trkpt>
      <trkpt lat="40.3527" lon="20.40184">
        <ele>1171.0200195312</ele>
        <time>2023-09-28T12:57:43.000Z</time>
      </trkpt>
      <trkpt lat="40.35276" lon="20.4019">
        <ele>1171.9799804688</ele>
        <time>2023-09-28T12:57:42.000Z</time>
      </trkpt>
      <trkpt lat="40.3528" lon="20.40198">
        <ele>1173.9100341797</ele>
        <time>2023-09-28T12:57:41.000Z</time>
      </trkpt>
      <trkpt lat="40.35283" lon="20.40204">
        <ele>1174.8699951172</ele>
        <time>2023-09-28T12:57:40.000Z</time>
      </trkpt>
      <trkpt lat="40.35285" lon="20.40214">
        <ele>1175.3499755859</ele>
        <time>2023-09-28T12:57:39.000Z</time>
      </trkpt>
      <trkpt lat="40.35285" lon="20.40225">
        <ele>1176.3100585938</ele>
        <time>2023-09-28T12:57:38.000Z</time>
      </trkpt>
      <trkpt lat="40.35285" lon="20.40234">
        <ele>1176.7900390625</ele>
        <time>2023-09-28T12:57:37.000Z</time>
      </trkpt>
      <trkpt lat="40.3528" lon="20.40261">
        <ele>1177.2700195312</ele>
        <time>2023-09-28T12:57:35.000Z</time>
      </trkpt>
      <trkpt lat="40.3528" lon="20.40264">
        <ele>1177.75</ele>
        <time>2023-09-28T12:57:34.000Z</time>
      </trkpt>
      <trkpt lat="40.35279" lon="20.40284">
        <ele>1178.7099609375</ele>
        <time>2023-09-28T12:57:33.000Z</time>
      </trkpt>
      <trkpt lat="40.3528" lon="20.40304">
        <ele>1179.6700439453</ele>
        <time>2023-09-28T12:57:32.000Z</time>
      </trkpt>
      <trkpt lat="40.35282" lon="20.40317">
        <ele>1180.1600341797</ele>
        <time>2023-09-28T12:57:31.000Z</time>
      </trkpt>
      <trkpt lat="40.35285" lon="20.40329">
        <ele>1180.6400146484</ele>
        <time>2023-09-28T12:57:30.000Z</time>
      </trkpt>
      <trkpt lat="40.3529" lon="20.40347">
        <ele>1181.5999755859</ele>
        <time>2023-09-28T12:57:29.000Z</time>
      </trkpt>
      <trkpt lat="40.35295" lon="20.40361">
        <ele>1182.5600585938</ele>
        <time>2023-09-28T12:57:28.000Z</time>
      </trkpt>
      <trkpt lat="40.35306" lon="20.40385">
        <ele>1183.5200195312</ele>
        <time>2023-09-28T12:57:26.000Z</time>
      </trkpt>
      <trkpt lat="40.35307" lon="20.40388">
        <ele>1183.5200195312</ele>
        <time>2023-09-28T12:57:25.000Z</time>
      </trkpt>
      <trkpt lat="40.35317" lon="20.40409">
        <ele>1184.4799804688</ele>
        <time>2023-09-28T12:57:24.000Z</time>
      </trkpt>
      <trkpt lat="40.35322" lon="20.40423">
        <ele>1184.4799804688</ele>
        <time>2023-09-28T12:57:23.000Z</time>
      </trkpt>
      <trkpt lat="40.35325" lon="20.40435">
        <ele>1184.9599609375</ele>
        <time>2023-09-28T12:57:22.000Z</time>
      </trkpt>
      <trkpt lat="40.35327" lon="20.40448">
        <ele>1185.4399414062</ele>
        <time>2023-09-28T12:57:21.000Z</time>
      </trkpt>
      <trkpt lat="40.35328" lon="20.40475">
        <ele>1186.4000244141</ele>
        <time>2023-09-28T12:57:19.000Z</time>
      </trkpt>
      <trkpt lat="40.35329" lon="20.40504">
        <ele>1186.8800048828</ele>
        <time>2023-09-28T12:57:17.000Z</time>
      </trkpt>
      <trkpt lat="40.3533" lon="20.40521">
        <ele>1187.3699951172</ele>
        <time>2023-09-28T12:57:16.000Z</time>
      </trkpt>
      <trkpt lat="40.35332" lon="20.40538">
        <ele>1186.8800048828</ele>
        <time>2023-09-28T12:57:15.000Z</time>
      </trkpt>
      <trkpt lat="40.35332" lon="20.40544">
        <ele>1186.8800048828</ele>
        <time>2023-09-28T12:57:14.000Z</time>
      </trkpt>
      <trkpt lat="40.35337" lon="20.40566">
        <ele>1187.8499755859</ele>
        <time>2023-09-28T12:57:13.000Z</time>
      </trkpt>
      <trkpt lat="40.3534" lon="20.40578">
        <ele>1187.8499755859</ele>
        <time>2023-09-28T12:57:12.000Z</time>
      </trkpt>
      <trkpt lat="40.35341" lon="20.40589">
        <ele>1187.3699951172</ele>
        <time>2023-09-28T12:57:11.000Z</time>
      </trkpt>
      <trkpt lat="40.35341" lon="20.40599">
        <ele>1186.4000244141</ele>
        <time>2023-09-28T12:57:10.000Z</time>
      </trkpt>
      <trkpt lat="40.35338" lon="20.40612">
        <ele>1185.9200439453</ele>
        <time>2023-09-28T12:57:09.000Z</time>
      </trkpt>
      <trkpt lat="40.35335" lon="20.40627">
        <ele>1186.4000244141</ele>
        <time>2023-09-28T12:57:08.000Z</time>
      </trkpt>
      <trkpt lat="40.35333" lon="20.4064">
        <ele>1186.4000244141</ele>
        <time>2023-09-28T12:57:07.000Z</time>
      </trkpt>
      <trkpt lat="40.35331" lon="20.4066">
        <ele>1186.8800048828</ele>
        <time>2023-09-28T12:57:06.000Z</time>
      </trkpt>
      <trkpt lat="40.3533" lon="20.40675">
        <ele>1187.3699951172</ele>
        <time>2023-09-28T12:57:05.000Z</time>
      </trkpt>
      <trkpt lat="40.35329" lon="20.40691">
        <ele>1188.8100585938</ele>
        <time>2023-09-28T12:57:04.000Z</time>
      </trkpt>
      <trkpt lat="40.35328" lon="20.40708">
        <ele>1189.7700195312</ele>
        <time>2023-09-28T12:57:03.000Z</time>
      </trkpt>
      <trkpt lat="40.35327" lon="20.40723">
        <ele>1190.7299804688</ele>
        <time>2023-09-28T12:57:02.000Z</time>
      </trkpt>
      <trkpt lat="40.35326" lon="20.40737">
        <ele>1190.7299804688</ele>
        <time>2023-09-28T12:57:01.000Z</time>
      </trkpt>
      <trkpt lat="40.35325" lon="20.40747">
        <ele>1191.2099609375</ele>
        <time>2023-09-28T12:57:00.000Z</time>
      </trkpt>
      <trkpt lat="40.35327" lon="20.40758">
        <ele>1191.6899414062</ele>
        <time>2023-09-28T12:56:59.000Z</time>
      </trkpt>
      <trkpt lat="40.35328" lon="20.40766">
        <ele>1192.6500244141</ele>
        <time>2023-09-28T12:56:58.000Z</time>
      </trkpt>
      <trkpt lat="40.35331" lon="20.40772">
        <ele>1192.6500244141</ele>
        <time>2023-09-28T12:56:57.000Z</time>
      </trkpt>
      <trkpt lat="40.35336" lon="20.40776">
        <ele>1192.6500244141</ele>
        <time>2023-09-28T12:56:56.000Z</time>
      </trkpt>
      <trkpt lat="40.35341" lon="20.40776">
        <ele>1193.1300048828</ele>
        <time>2023-09-28T12:56:55.000Z</time>
      </trkpt>
      <trkpt lat="40.35347" lon="20.40775">
        <ele>1193.1300048828</ele>
        <time>2023-09-28T12:56:54.000Z</time>
      </trkpt>
      <trkpt lat="40.35351" lon="20.4077">
        <ele>1194.0899658203</ele>
        <time>2023-09-28T12:56:53.000Z</time>
      </trkpt>
      <trkpt lat="40.35355" lon="20.40764">
        <ele>1194.5799560547</ele>
        <time>2023-09-28T12:56:52.000Z</time>
      </trkpt>
      <trkpt lat="40.35356" lon="20.4076">
        <ele>1194.5799560547</ele>
        <time>2023-09-28T12:56:51.000Z</time>
      </trkpt>
      <trkpt lat="40.35364" lon="20.40745">
        <ele>1195.0600585938</ele>
        <time>2023-09-28T12:56:50.000Z</time>
      </trkpt>
      <trkpt lat="40.3537" lon="20.40733">
        <ele>1195.0600585938</ele>
        <time>2023-09-28T12:56:49.000Z</time>
      </trkpt>
      <trkpt lat="40.35376" lon="20.40726">
        <ele>1195.0600585938</ele>
        <time>2023-09-28T12:56:48.000Z</time>
      </trkpt>
      <trkpt lat="40.35382" lon="20.40722">
        <ele>1195.0600585938</ele>
        <time>2023-09-28T12:56:47.000Z</time>
      </trkpt>
      <trkpt lat="40.35388" lon="20.4072">
        <ele>1195.5400390625</ele>
        <time>2023-09-28T12:56:46.000Z</time>
      </trkpt>
      <trkpt lat="40.35395" lon="20.40721">
        <ele>1196.0200195312</ele>
        <time>2023-09-28T12:56:45.000Z</time>
      </trkpt>
      <trkpt lat="40.35399" lon="20.40724">
        <ele>1196.0200195312</ele>
        <time>2023-09-28T12:56:44.000Z</time>
      </trkpt>
      <trkpt lat="40.35407" lon="20.40731">
        <ele>1196.5</ele>
        <time>2023-09-28T12:56:43.000Z</time>
      </trkpt>
      <trkpt lat="40.35413" lon="20.40733">
        <ele>1197.4599609375</ele>
        <time>2023-09-28T12:56:42.000Z</time>
      </trkpt>
      <trkpt lat="40.35418" lon="20.40731">
        <ele>1197.9399414062</ele>
        <time>2023-09-28T12:56:41.000Z</time>
      </trkpt>
      <trkpt lat="40.35424" lon="20.40727">
        <ele>1198.4200439453</ele>
        <time>2023-09-28T12:56:40.000Z</time>
      </trkpt>
      <trkpt lat="40.35428" lon="20.40721">
        <ele>1199.3800048828</ele>
        <time>2023-09-28T12:56:39.000Z</time>
      </trkpt>
      <trkpt lat="40.35428" lon="20.40712">
        <ele>1199.8599853516</ele>
        <time>2023-09-28T12:56:38.000Z</time>
      </trkpt>
      <trkpt lat="40.35426" lon="20.40703">
        <ele>1200.8199462891</ele>
        <time>2023-09-28T12:56:37.000Z</time>
      </trkpt>
      <trkpt lat="40.35425" lon="20.40698">
        <ele>1200.8199462891</ele>
        <time>2023-09-28T12:56:36.000Z</time>
      </trkpt>
      <trkpt lat="40.35422" lon="20.4069">
        <ele>1201.3000488281</ele>
        <time>2023-09-28T12:56:35.000Z</time>
      </trkpt>
      <trkpt lat="40.35414" lon="20.40668">
        <ele>1202.75</ele>
        <time>2023-09-28T12:56:34.000Z</time>
      </trkpt>
      <trkpt lat="40.35412" lon="20.40658">
        <ele>1203.2299804688</ele>
        <time>2023-09-28T12:56:33.000Z</time>
      </trkpt>
      <trkpt lat="40.35412" lon="20.40649">
        <ele>1204.1899414062</ele>
        <time>2023-09-28T12:56:32.000Z</time>
      </trkpt>
      <trkpt lat="40.35415" lon="20.4064">
        <ele>1205.1500244141</ele>
        <time>2023-09-28T12:56:31.000Z</time>
      </trkpt>
      <trkpt lat="40.3542" lon="20.40633">
        <ele>1206.1099853516</ele>
        <time>2023-09-28T12:56:30.000Z</time>
      </trkpt>
      <trkpt lat="40.35426" lon="20.40626">
        <ele>1207.5500488281</ele>
        <time>2023-09-28T12:56:29.000Z</time>
      </trkpt>
      <trkpt lat="40.35431" lon="20.40619">
        <ele>1208.5100097656</ele>
        <time>2023-09-28T12:56:28.000Z</time>
      </trkpt>
      <trkpt lat="40.35435" lon="20.4061">
        <ele>1209.4799804688</ele>
        <time>2023-09-28T12:56:27.000Z</time>
      </trkpt>
      <trkpt lat="40.35438" lon="20.406">
        <ele>1210.4399414062</ele>
        <time>2023-09-28T12:56:26.000Z</time>
      </trkpt>
      <trkpt lat="40.35439" lon="20.40591">
        <ele>1210.9200439453</ele>
        <time>2023-09-28T12:56:25.000Z</time>
      </trkpt>
      <trkpt lat="40.35439" lon="20.40581">
        <ele>1211.8800048828</ele>
        <time>2023-09-28T12:56:24.000Z</time>
      </trkpt>
      <trkpt lat="40.35439" lon="20.40567">
        <ele>1212.8399658203</ele>
        <time>2023-09-28T12:56:23.000Z</time>
      </trkpt>
      <trkpt lat="40.3544" lon="20.40559">
        <ele>1213.8000488281</ele>
        <time>2023-09-28T12:56:22.000Z</time>
      </trkpt>
      <trkpt lat="40.35444" lon="20.40552">
        <ele>1214.7600097656</ele>
        <time>2023-09-28T12:56:21.000Z</time>
      </trkpt>
      <trkpt lat="40.3545" lon="20.40547">
        <ele>1215.2399902344</ele>
        <time>2023-09-28T12:56:20.000Z</time>
      </trkpt>
      <trkpt lat="40.35458" lon="20.40544">
        <ele>1216.2099609375</ele>
        <time>2023-09-28T12:56:19.000Z</time>
      </trkpt>
      <trkpt lat="40.35464" lon="20.40539">
        <ele>1216.6899414062</ele>
        <time>2023-09-28T12:56:18.000Z</time>
      </trkpt>
      <trkpt lat="40.35469" lon="20.40533">
        <ele>1217.1700439453</ele>
        <time>2023-09-28T12:56:17.000Z</time>
      </trkpt>
      <trkpt lat="40.35471" lon="20.40528">
        <ele>1217.6500244141</ele>
        <time>2023-09-28T12:56:16.000Z</time>
      </trkpt>
      <trkpt lat="40.35475" lon="20.40518">
        <ele>1218.1300048828</ele>
        <time>2023-09-28T12:56:15.000Z</time>
      </trkpt>
      <trkpt lat="40.35479" lon="20.40513">
        <ele>1219.0899658203</ele>
        <time>2023-09-28T12:56:14.000Z</time>
      </trkpt>
      <trkpt lat="40.35482" lon="20.40508">
        <ele>1219.5699462891</ele>
        <time>2023-09-28T12:56:13.000Z</time>
      </trkpt>
      <trkpt lat="40.35489" lon="20.40499">
        <ele>1219.5699462891</ele>
        <time>2023-09-28T12:56:12.000Z</time>
      </trkpt>
      <trkpt lat="40.35492" lon="20.40492">
        <ele>1220.0500488281</ele>
        <time>2023-09-28T12:56:11.000Z</time>
      </trkpt>
      <trkpt lat="40.35494" lon="20.40485">
        <ele>1220.5300292969</ele>
        <time>2023-09-28T12:56:10.000Z</time>
      </trkpt>
      <trkpt lat="40.35497" lon="20.40463">
        <ele>1221.9699707031</ele>
        <time>2023-09-28T12:56:08.000Z</time>
      </trkpt>
      <trkpt lat="40.35498" lon="20.40452">
        <ele>1222.9300537109</ele>
        <time>2023-09-28T12:56:07.000Z</time>
      </trkpt>
      <trkpt lat="40.35498" lon="20.40445">
        <ele>1223.4200439453</ele>
        <time>2023-09-28T12:56:06.000Z</time>
      </trkpt>
      <trkpt lat="40.35497" lon="20.40409">
        <ele>1225.3399658203</ele>
        <time>2023-09-28T12:56:03.000Z</time>
      </trkpt>
      <trkpt lat="40.35497" lon="20.40401">
        <ele>1225.3399658203</ele>
        <time>2023-09-28T12:56:02.000Z</time>
      </trkpt>
      <trkpt lat="40.35498" lon="20.40394">
        <ele>1225.8199462891</ele>
        <time>2023-09-28T12:56:01.000Z</time>
      </trkpt>
      <trkpt lat="40.35501" lon="20.40387">
        <ele>1225.8199462891</ele>
        <time>2023-09-28T12:56:00.000Z</time>
      </trkpt>
      <trkpt lat="40.35504" lon="20.4038">
        <ele>1225.8199462891</ele>
        <time>2023-09-28T12:55:59.000Z</time>
      </trkpt>
      <trkpt lat="40.35508" lon="20.40377">
        <ele>1225.3399658203</ele>
        <time>2023-09-28T12:55:58.000Z</time>
      </trkpt>
      <trkpt lat="40.35517" lon="20.40366">
        <ele>1224.8599853516</ele>
        <time>2023-09-28T12:55:57.000Z</time>
      </trkpt>
      <trkpt lat="40.35523" lon="20.40359">
        <ele>1224.8599853516</ele>
        <time>2023-09-28T12:55:56.000Z</time>
      </trkpt>
      <trkpt lat="40.35527" lon="20.40352">
        <ele>1224.8599853516</ele>
        <time>2023-09-28T12:55:55.000Z</time>
      </trkpt>
      <trkpt lat="40.35529" lon="20.40343">
        <ele>1225.3399658203</ele>
        <time>2023-09-28T12:55:54.000Z</time>
      </trkpt>
      <trkpt lat="40.3553" lon="20.40336">
        <ele>1225.8199462891</ele>
        <time>2023-09-28T12:55:53.000Z</time>
      </trkpt>
      <trkpt lat="40.3553" lon="20.40319">
        <ele>1226.7800292969</ele>
        <time>2023-09-28T12:55:52.000Z</time>
      </trkpt>
      <trkpt lat="40.3553" lon="20.40304">
        <ele>1227.7399902344</ele>
        <time>2023-09-28T12:55:51.000Z</time>
      </trkpt>
      <trkpt lat="40.35532" lon="20.40293">
        <ele>1228.6999511719</ele>
        <time>2023-09-28T12:55:50.000Z</time>
      </trkpt>
      <trkpt lat="40.35534" lon="20.40283">
        <ele>1229.1800537109</ele>
        <time>2023-09-28T12:55:49.000Z</time>
      </trkpt>
      <trkpt lat="40.35537" lon="20.40276">
        <ele>1229.6600341797</ele>
        <time>2023-09-28T12:55:48.000Z</time>
      </trkpt>
      <trkpt lat="40.35543" lon="20.4027">
        <ele>1230.1400146484</ele>
        <time>2023-09-28T12:55:47.000Z</time>
      </trkpt>
      <trkpt lat="40.35549" lon="20.40265">
        <ele>1230.6199951172</ele>
        <time>2023-09-28T12:55:46.000Z</time>
      </trkpt>
      <trkpt lat="40.35558" lon="20.4026">
        <ele>1230.6199951172</ele>
        <time>2023-09-28T12:55:45.000Z</time>
      </trkpt>
      <trkpt lat="40.35565" lon="20.40254">
        <ele>1231.1099853516</ele>
        <time>2023-09-28T12:55:44.000Z</time>
      </trkpt>
      <trkpt lat="40.3557" lon="20.40246">
        <ele>1231.5899658203</ele>
        <time>2023-09-28T12:55:43.000Z</time>
      </trkpt>
      <trkpt lat="40.35574" lon="20.40236">
        <ele>1232.0699462891</ele>
        <time>2023-09-28T12:55:42.000Z</time>
      </trkpt>
      <trkpt lat="40.35576" lon="20.40223">
        <ele>1233.0300292969</ele>
        <time>2023-09-28T12:55:41.000Z</time>
      </trkpt>
      <trkpt lat="40.35577" lon="20.40216">
        <ele>1233.5100097656</ele>
        <time>2023-09-28T12:55:40.000Z</time>
      </trkpt>
      <trkpt lat="40.35578" lon="20.40203">
        <ele>1234.4699707031</ele>
        <time>2023-09-28T12:55:39.000Z</time>
      </trkpt>
      <trkpt lat="40.3558" lon="20.40152">
        <ele>1237.3499755859</ele>
        <time>2023-09-28T12:55:36.000Z</time>
      </trkpt>
      <trkpt lat="40.35581" lon="20.4012">
        <ele>1237.8299560547</ele>
        <time>2023-09-28T12:55:34.000Z</time>
      </trkpt>
      <trkpt lat="40.3558" lon="20.40106">
        <ele>1237.8299560547</ele>
        <time>2023-09-28T12:55:33.000Z</time>
      </trkpt>
      <trkpt lat="40.35578" lon="20.40088">
        <ele>1238.3199462891</ele>
        <time>2023-09-28T12:55:32.000Z</time>
      </trkpt>
      <trkpt lat="40.35575" lon="20.40074">
        <ele>1238.8000488281</ele>
        <time>2023-09-28T12:55:31.000Z</time>
      </trkpt>
      <trkpt lat="40.35572" lon="20.40062">
        <ele>1239.2800292969</ele>
        <time>2023-09-28T12:55:30.000Z</time>
      </trkpt>
      <trkpt lat="40.35569" lon="20.40051">
        <ele>1239.7600097656</ele>
        <time>2023-09-28T12:55:29.000Z</time>
      </trkpt>
      <trkpt lat="40.35566" lon="20.40042">
        <ele>1240.2399902344</ele>
        <time>2023-09-28T12:55:28.000Z</time>
      </trkpt>
      <trkpt lat="40.35564" lon="20.40032">
        <ele>1240.7199707031</ele>
        <time>2023-09-28T12:55:27.000Z</time>
      </trkpt>
      <trkpt lat="40.35564" lon="20.40023">
        <ele>1241.1999511719</ele>
        <time>2023-09-28T12:55:26.000Z</time>
      </trkpt>
      <trkpt lat="40.35565" lon="20.40015">
        <ele>1241.1999511719</ele>
        <time>2023-09-28T12:55:25.000Z</time>
      </trkpt>
      <trkpt lat="40.35568" lon="20.40009">
        <ele>1241.6800537109</ele>
        <time>2023-09-28T12:55:24.000Z</time>
      </trkpt>
      <trkpt lat="40.35572" lon="20.40005">
        <ele>1242.1600341797</ele>
        <time>2023-09-28T12:55:23.000Z</time>
      </trkpt>
      <trkpt lat="40.35576" lon="20.40004">
        <ele>1242.6400146484</ele>
        <time>2023-09-28T12:55:22.000Z</time>
      </trkpt>
      <trkpt lat="40.3558" lon="20.40008">
        <ele>1243.1199951172</ele>
        <time>2023-09-28T12:55:21.000Z</time>
      </trkpt>
      <trkpt lat="40.35583" lon="20.40014">
        <ele>1243.1199951172</ele>
        <time>2023-09-28T12:55:20.000Z</time>
      </trkpt>
      <trkpt lat="40.35586" lon="20.40023">
        <ele>1244.0799560547</ele>
        <time>2023-09-28T12:55:19.000Z</time>
      </trkpt>
      <trkpt lat="40.35589" lon="20.40032">
        <ele>1244.5600585938</ele>
        <time>2023-09-28T12:55:18.000Z</time>
      </trkpt>
      <trkpt lat="40.35591" lon="20.40045">
        <ele>1246.4899902344</ele>
        <time>2023-09-28T12:55:17.000Z</time>
      </trkpt>
      <trkpt lat="40.35593" lon="20.40058">
        <ele>1247.4499511719</ele>
        <time>2023-09-28T12:55:16.000Z</time>
      </trkpt>
      <trkpt lat="40.35596" lon="20.40071">
        <ele>1248.8900146484</ele>
        <time>2023-09-28T12:55:15.000Z</time>
      </trkpt>
      <trkpt lat="40.35597" lon="20.40077">
        <ele>1249.3699951172</ele>
        <time>2023-09-28T12:55:14.000Z</time>
      </trkpt>
      <trkpt lat="40.35605" lon="20.40103">
        <ele>1251.2900390625</ele>
        <time>2023-09-28T12:55:12.000Z</time>
      </trkpt>
      <trkpt lat="40.35607" lon="20.40114">
        <ele>1252.25</ele>
        <time>2023-09-28T12:55:11.000Z</time>
      </trkpt>
      <trkpt lat="40.35609" lon="20.40123">
        <ele>1252.7399902344</ele>
        <time>2023-09-28T12:55:10.000Z</time>
      </trkpt>
      <trkpt lat="40.3561" lon="20.40128">
        <ele>1252.7399902344</ele>
        <time>2023-09-28T12:55:09.000Z</time>
      </trkpt>
      <trkpt lat="40.35614" lon="20.40142">
        <ele>1253.6999511719</ele>
        <time>2023-09-28T12:55:08.000Z</time>
      </trkpt>
      <trkpt lat="40.35615" lon="20.40149">
        <ele>1254.1800537109</ele>
        <time>2023-09-28T12:55:07.000Z</time>
      </trkpt>
      <trkpt lat="40.35617" lon="20.40156">
        <ele>1254.6600341797</ele>
        <time>2023-09-28T12:55:06.000Z</time>
      </trkpt>
      <trkpt lat="40.35619" lon="20.40169">
        <ele>1255.1400146484</ele>
        <time>2023-09-28T12:55:05.000Z</time>
      </trkpt>
      <trkpt lat="40.35621" lon="20.40177">
        <ele>1255.6199951172</ele>
        <time>2023-09-28T12:55:04.000Z</time>
      </trkpt>
      <trkpt lat="40.35623" lon="20.40191">
        <ele>1255.6199951172</ele>
        <time>2023-09-28T12:55:03.000Z</time>
      </trkpt>
      <trkpt lat="40.35625" lon="20.40202">
        <ele>1256.0999755859</ele>
        <time>2023-09-28T12:55:02.000Z</time>
      </trkpt>
      <trkpt lat="40.35627" lon="20.40211">
        <ele>1256.5799560547</ele>
        <time>2023-09-28T12:55:01.000Z</time>
      </trkpt>
      <trkpt lat="40.3563" lon="20.40223">
        <ele>1257.5400390625</ele>
        <time>2023-09-28T12:55:00.000Z</time>
      </trkpt>
      <trkpt lat="40.35633" lon="20.40232">
        <ele>1258.0200195312</ele>
        <time>2023-09-28T12:54:59.000Z</time>
      </trkpt>
      <trkpt lat="40.35636" lon="20.40241">
        <ele>1258.0200195312</ele>
        <time>2023-09-28T12:54:58.000Z</time>
      </trkpt>
      <trkpt lat="40.35639" lon="20.40247">
        <ele>1258.5</ele>
        <time>2023-09-28T12:54:57.000Z</time>
      </trkpt>
      <trkpt lat="40.35643" lon="20.40255">
        <ele>1258.5</ele>
        <time>2023-09-28T12:54:56.000Z</time>
      </trkpt>
      <trkpt lat="40.35645" lon="20.40258">
        <ele>1258.5</ele>
        <time>2023-09-28T12:54:55.000Z</time>
      </trkpt>
      <trkpt lat="40.3565" lon="20.40274">
        <ele>1258.0200195312</ele>
        <time>2023-09-28T12:54:54.000Z</time>
      </trkpt>
      <trkpt lat="40.35652" lon="20.4028">
        <ele>1258.0200195312</ele>
        <time>2023-09-28T12:54:53.000Z</time>
      </trkpt>
      <trkpt lat="40.35655" lon="20.40293">
        <ele>1257.5400390625</ele>
        <time>2023-09-28T12:54:52.000Z</time>
      </trkpt>
      <trkpt lat="40.35656" lon="20.40301">
        <ele>1257.0600585938</ele>
        <time>2023-09-28T12:54:51.000Z</time>
      </trkpt>
      <trkpt lat="40.35657" lon="20.40308">
        <ele>1257.0600585938</ele>
        <time>2023-09-28T12:54:50.000Z</time>
      </trkpt>
      <trkpt lat="40.35657" lon="20.40324">
        <ele>1256.5799560547</ele>
        <time>2023-09-28T12:54:48.000Z</time>
      </trkpt>
      <trkpt lat="40.35657" lon="20.40356">
        <ele>1254.6600341797</ele>
        <time>2023-09-28T12:54:45.000Z</time>
      </trkpt>
      <trkpt lat="40.35657" lon="20.40362">
        <ele>1254.1800537109</ele>
        <time>2023-09-28T12:54:44.000Z</time>
      </trkpt>
      <trkpt lat="40.35655" lon="20.40385">
        <ele>1252.7399902344</ele>
        <time>2023-09-28T12:54:42.000Z</time>
      </trkpt>
      <trkpt lat="40.35654" lon="20.40398">
        <ele>1252.25</ele>
        <time>2023-09-28T12:54:40.000Z</time>
      </trkpt>
      <trkpt lat="40.35652" lon="20.40417">
        <ele>1252.25</ele>
        <time>2023-09-28T12:54:39.000Z</time>
      </trkpt>
      <trkpt lat="40.35652" lon="20.40424">
        <ele>1252.25</ele>
        <time>2023-09-28T12:54:38.000Z</time>
      </trkpt>
      <trkpt lat="40.35653" lon="20.40444">
        <ele>1252.7399902344</ele>
        <time>2023-09-28T12:54:36.000Z</time>
      </trkpt>
      <trkpt lat="40.35654" lon="20.40451">
        <ele>1253.2199707031</ele>
        <time>2023-09-28T12:54:35.000Z</time>
      </trkpt>
      <trkpt lat="40.35655" lon="20.40463">
        <ele>1254.6600341797</ele>
        <time>2023-09-28T12:54:34.000Z</time>
      </trkpt>
      <trkpt lat="40.35656" lon="20.40467">
        <ele>1255.6199951172</ele>
        <time>2023-09-28T12:54:33.000Z</time>
      </trkpt>
      <trkpt lat="40.35657" lon="20.40482">
        <ele>1256.0999755859</ele>
        <time>2023-09-28T12:54:32.000Z</time>
      </trkpt>
      <trkpt lat="40.35657" lon="20.40494">
        <ele>1257.0600585938</ele>
        <time>2023-09-28T12:54:31.000Z</time>
      </trkpt>
      <trkpt lat="40.35656" lon="20.40513">
        <ele>1256.0999755859</ele>
        <time>2023-09-28T12:54:30.000Z</time>
      </trkpt>
      <trkpt lat="40.35656" lon="20.40526">
        <ele>1255.1400146484</ele>
        <time>2023-09-28T12:54:29.000Z</time>
      </trkpt>
      <trkpt lat="40.35654" lon="20.40563">
        <ele>1255.6199951172</ele>
        <time>2023-09-28T12:54:26.000Z</time>
      </trkpt>
      <trkpt lat="40.35654" lon="20.40586">
        <ele>1255.1400146484</ele>
        <time>2023-09-28T12:54:25.000Z</time>
      </trkpt>
      <trkpt lat="40.35655" lon="20.40594">
        <ele>1254.6600341797</ele>
        <time>2023-09-28T12:54:24.000Z</time>
      </trkpt>
      <trkpt lat="40.35658" lon="20.40605">
        <ele>1255.1400146484</ele>
        <time>2023-09-28T12:54:23.000Z</time>
      </trkpt>
      <trkpt lat="40.35662" lon="20.40615">
        <ele>1255.1400146484</ele>
        <time>2023-09-28T12:54:22.000Z</time>
      </trkpt>
      <trkpt lat="40.35669" lon="20.40628">
        <ele>1254.6600341797</ele>
        <time>2023-09-28T12:54:21.000Z</time>
      </trkpt>
      <trkpt lat="40.3567" lon="20.4063">
        <ele>1254.6600341797</ele>
        <time>2023-09-28T12:54:20.000Z</time>
      </trkpt>
      <trkpt lat="40.35682" lon="20.4065">
        <ele>1255.1400146484</ele>
        <time>2023-09-28T12:54:19.000Z</time>
      </trkpt>
      <trkpt lat="40.35685" lon="20.40655">
        <ele>1254.6600341797</ele>
        <time>2023-09-28T12:54:18.000Z</time>
      </trkpt>
      <trkpt lat="40.35693" lon="20.40675">
        <ele>1253.6999511719</ele>
        <time>2023-09-28T12:54:17.000Z</time>
      </trkpt>
      <trkpt lat="40.35697" lon="20.40688">
        <ele>1252.7399902344</ele>
        <time>2023-09-28T12:54:16.000Z</time>
      </trkpt>
      <trkpt lat="40.35701" lon="20.40702">
        <ele>1252.7399902344</ele>
        <time>2023-09-28T12:54:15.000Z</time>
      </trkpt>
      <trkpt lat="40.35702" lon="20.40708">
        <ele>1252.7399902344</ele>
        <time>2023-09-28T12:54:14.000Z</time>
      </trkpt>
      <trkpt lat="40.35705" lon="20.40725">
        <ele>1252.25</ele>
        <time>2023-09-28T12:54:13.000Z</time>
      </trkpt>
      <trkpt lat="40.35706" lon="20.40736">
        <ele>1252.25</ele>
        <time>2023-09-28T12:54:12.000Z</time>
      </trkpt>
      <trkpt lat="40.35708" lon="20.40744">
        <ele>1252.25</ele>
        <time>2023-09-28T12:54:11.000Z</time>
      </trkpt>
      <trkpt lat="40.35711" lon="20.40751">
        <ele>1252.25</ele>
        <time>2023-09-28T12:54:10.000Z</time>
      </trkpt>
      <trkpt lat="40.35715" lon="20.40756">
        <ele>1252.25</ele>
        <time>2023-09-28T12:54:09.000Z</time>
      </trkpt>
      <trkpt lat="40.35721" lon="20.40758">
        <ele>1251.7700195312</ele>
        <time>2023-09-28T12:54:08.000Z</time>
      </trkpt>
      <trkpt lat="40.35726" lon="20.40756">
        <ele>1252.25</ele>
        <time>2023-09-28T12:54:07.000Z</time>
      </trkpt>
      <trkpt lat="40.3573" lon="20.40752">
        <ele>1252.7399902344</ele>
        <time>2023-09-28T12:54:06.000Z</time>
      </trkpt>
      <trkpt lat="40.35735" lon="20.40744">
        <ele>1253.2199707031</ele>
        <time>2023-09-28T12:54:05.000Z</time>
      </trkpt>
      <trkpt lat="40.35742" lon="20.4073">
        <ele>1254.6600341797</ele>
        <time>2023-09-28T12:54:04.000Z</time>
      </trkpt>
      <trkpt lat="40.35749" lon="20.4072">
        <ele>1255.1400146484</ele>
        <time>2023-09-28T12:54:03.000Z</time>
      </trkpt>
      <trkpt lat="40.35756" lon="20.40712">
        <ele>1255.6199951172</ele>
        <time>2023-09-28T12:54:02.000Z</time>
      </trkpt>
      <trkpt lat="40.35761" lon="20.40705">
        <ele>1256.0999755859</ele>
        <time>2023-09-28T12:54:01.000Z</time>
      </trkpt>
      <trkpt lat="40.35783" lon="20.40676">
        <ele>1257.5400390625</ele>
        <time>2023-09-28T12:53:58.000Z</time>
      </trkpt>
      <trkpt lat="40.35792" lon="20.40664">
        <ele>1257.5400390625</ele>
        <time>2023-09-28T12:53:57.000Z</time>
      </trkpt>
      <trkpt lat="40.35805" lon="20.40646">
        <ele>1258.0200195312</ele>
        <time>2023-09-28T12:53:56.000Z</time>
      </trkpt>
      <trkpt lat="40.35812" lon="20.40637">
        <ele>1258.0200195312</ele>
        <time>2023-09-28T12:53:55.000Z</time>
      </trkpt>
      <trkpt lat="40.35816" lon="20.4063">
        <ele>1258.0200195312</ele>
        <time>2023-09-28T12:53:54.000Z</time>
      </trkpt>
      <trkpt lat="40.35834" lon="20.40605">
        <ele>1256.5799560547</ele>
        <time>2023-09-28T12:53:52.000Z</time>
      </trkpt>
      <trkpt lat="40.3584" lon="20.40595">
        <ele>1255.6199951172</ele>
        <time>2023-09-28T12:53:51.000Z</time>
      </trkpt>
      <trkpt lat="40.35844" lon="20.40584">
        <ele>1255.6199951172</ele>
        <time>2023-09-28T12:53:50.000Z</time>
      </trkpt>
      <trkpt lat="40.35845" lon="20.40577">
        <ele>1255.6199951172</ele>
        <time>2023-09-28T12:53:49.000Z</time>
      </trkpt>
      <trkpt lat="40.35848" lon="20.40555">
        <ele>1255.6199951172</ele>
        <time>2023-09-28T12:53:48.000Z</time>
      </trkpt>
      <trkpt lat="40.35851" lon="20.40541">
        <ele>1255.1400146484</ele>
        <time>2023-09-28T12:53:47.000Z</time>
      </trkpt>
      <trkpt lat="40.35854" lon="20.4053">
        <ele>1254.6600341797</ele>
        <time>2023-09-28T12:53:46.000Z</time>
      </trkpt>
      <trkpt lat="40.35864" lon="20.40503">
        <ele>1253.2199707031</ele>
        <time>2023-09-28T12:53:44.000Z</time>
      </trkpt>
      <trkpt lat="40.35868" lon="20.40494">
        <ele>1252.7399902344</ele>
        <time>2023-09-28T12:53:43.000Z</time>
      </trkpt>
      <trkpt lat="40.35872" lon="20.40487">
        <ele>1252.25</ele>
        <time>2023-09-28T12:53:42.000Z</time>
      </trkpt>
      <trkpt lat="40.3588" lon="20.40473">
        <ele>1251.2900390625</ele>
        <time>2023-09-28T12:53:41.000Z</time>
      </trkpt>
      <trkpt lat="40.35884" lon="20.40466">
        <ele>1250.8100585938</ele>
        <time>2023-09-28T12:53:40.000Z</time>
      </trkpt>
      <trkpt lat="40.35885" lon="20.40464">
        <ele>1250.8100585938</ele>
        <time>2023-09-28T12:53:39.000Z</time>
      </trkpt>
      <trkpt lat="40.3589" lon="20.40455">
        <ele>1247.9300537109</ele>
        <time>2023-09-28T12:52:10.000Z</time>
      </trkpt>
      <trkpt lat="40.35894" lon="20.40448">
        <ele>1247.9300537109</ele>
        <time>2023-09-28T12:52:04.000Z</time>
      </trkpt>
      <trkpt lat="40.35898" lon="20.40444">
        <ele>1246.9699707031</ele>
        <time>2023-09-28T12:52:03.000Z</time>
      </trkpt>
      <trkpt lat="40.359" lon="20.40442">
        <ele>1246.4899902344</ele>
        <time>2023-09-28T12:52:02.000Z</time>
      </trkpt>
      <trkpt lat="40.35908" lon="20.40435">
        <ele>1244.0799560547</ele>
        <time>2023-09-28T12:52:01.000Z</time>
      </trkpt>
      <trkpt lat="40.35915" lon="20.40429">
        <ele>1242.1600341797</ele>
        <time>2023-09-28T12:52:00.000Z</time>
      </trkpt>
      <trkpt lat="40.35923" lon="20.40422">
        <ele>1240.2399902344</ele>
        <time>2023-09-28T12:51:59.000Z</time>
      </trkpt>
      <trkpt lat="40.35929" lon="20.40416">
        <ele>1238.8000488281</ele>
        <time>2023-09-28T12:51:58.000Z</time>
      </trkpt>
      <trkpt lat="40.3594" lon="20.40402">
        <ele>1236.8699951172</ele>
        <time>2023-09-28T12:51:57.000Z</time>
      </trkpt>
      <trkpt lat="40.35949" lon="20.40391">
        <ele>1235.4300537109</ele>
        <time>2023-09-28T12:51:56.000Z</time>
      </trkpt>
      <trkpt lat="40.35966" lon="20.40364">
        <ele>1232.0699462891</ele>
        <time>2023-09-28T12:51:54.000Z</time>
      </trkpt>
      <trkpt lat="40.3598" lon="20.40341">
        <ele>1229.1800537109</ele>
        <time>2023-09-28T12:51:52.000Z</time>
      </trkpt>
      <trkpt lat="40.35982" lon="20.40338">
        <ele>1229.1800537109</ele>
        <time>2023-09-28T12:51:51.000Z</time>
      </trkpt>
      <trkpt lat="40.35993" lon="20.40322">
        <ele>1227.7399902344</ele>
        <time>2023-09-28T12:51:50.000Z</time>
      </trkpt>
      <trkpt lat="40.36001" lon="20.4031">
        <ele>1226.7800292969</ele>
        <time>2023-09-28T12:51:49.000Z</time>
      </trkpt>
      <trkpt lat="40.36003" lon="20.40307">
        <ele>1226.3000488281</ele>
        <time>2023-09-28T12:51:48.000Z</time>
      </trkpt>
      <trkpt lat="40.36012" lon="20.40293">
        <ele>1225.3399658203</ele>
        <time>2023-09-28T12:51:47.000Z</time>
      </trkpt>
      <trkpt lat="40.36019" lon="20.40281">
        <ele>1224.3800048828</ele>
        <time>2023-09-28T12:51:46.000Z</time>
      </trkpt>
      <trkpt lat="40.36025" lon="20.40273">
        <ele>1223.4200439453</ele>
        <time>2023-09-28T12:51:45.000Z</time>
      </trkpt>
      <trkpt lat="40.36032" lon="20.40267">
        <ele>1222.4499511719</ele>
        <time>2023-09-28T12:51:44.000Z</time>
      </trkpt>
      <trkpt lat="40.36035" lon="20.40265">
        <ele>1221.9699707031</ele>
        <time>2023-09-28T12:51:43.000Z</time>
      </trkpt>
      <trkpt lat="40.36047" lon="20.40259">
        <ele>1221.0100097656</ele>
        <time>2023-09-28T12:51:42.000Z</time>
      </trkpt>
      <trkpt lat="40.36054" lon="20.40255">
        <ele>1220.0500488281</ele>
        <time>2023-09-28T12:51:41.000Z</time>
      </trkpt>
      <trkpt lat="40.3606" lon="20.4025">
        <ele>1218.6099853516</ele>
        <time>2023-09-28T12:51:40.000Z</time>
      </trkpt>
      <trkpt lat="40.36065" lon="20.40242">
        <ele>1217.6500244141</ele>
        <time>2023-09-28T12:51:39.000Z</time>
      </trkpt>
      <trkpt lat="40.36068" lon="20.40233">
        <ele>1216.6899414062</ele>
        <time>2023-09-28T12:51:38.000Z</time>
      </trkpt>
      <trkpt lat="40.36069" lon="20.40225">
        <ele>1215.7199707031</ele>
        <time>2023-09-28T12:51:37.000Z</time>
      </trkpt>
      <trkpt lat="40.3607" lon="20.40216">
        <ele>1214.7600097656</ele>
        <time>2023-09-28T12:51:36.000Z</time>
      </trkpt>
      <trkpt lat="40.36071" lon="20.40207">
        <ele>1213.8000488281</ele>
        <time>2023-09-28T12:51:35.000Z</time>
      </trkpt>
      <trkpt lat="40.36074" lon="20.40199">
        <ele>1212.8399658203</ele>
        <time>2023-09-28T12:51:34.000Z</time>
      </trkpt>
      <trkpt lat="40.36078" lon="20.40191">
        <ele>1211.8800048828</ele>
        <time>2023-09-28T12:51:33.000Z</time>
      </trkpt>
      <trkpt lat="40.36081" lon="20.40187">
        <ele>1211.4000244141</ele>
        <time>2023-09-28T12:51:32.000Z</time>
      </trkpt>
      <trkpt lat="40.36089" lon="20.40175">
        <ele>1210.4399414062</ele>
        <time>2023-09-28T12:51:31.000Z</time>
      </trkpt>
      <trkpt lat="40.36094" lon="20.40168">
        <ele>1209.9599609375</ele>
        <time>2023-09-28T12:51:30.000Z</time>
      </trkpt>
      <trkpt lat="40.36097" lon="20.40162">
        <ele>1209.4799804688</ele>
        <time>2023-09-28T12:51:29.000Z</time>
      </trkpt>
      <trkpt lat="40.361" lon="20.40156">
        <ele>1209</ele>
        <time>2023-09-28T12:51:28.000Z</time>
      </trkpt>
      <trkpt lat="40.36107" lon="20.40144">
        <ele>1207.5500488281</ele>
        <time>2023-09-28T12:51:27.000Z</time>
      </trkpt>
      <trkpt lat="40.36109" lon="20.40141">
        <ele>1207.0699462891</ele>
        <time>2023-09-28T12:51:26.000Z</time>
      </trkpt>
      <trkpt lat="40.36116" lon="20.40127">
        <ele>1206.1099853516</ele>
        <time>2023-09-28T12:51:25.000Z</time>
      </trkpt>
      <trkpt lat="40.3612" lon="20.40123">
        <ele>1205.1500244141</ele>
        <time>2023-09-28T12:51:24.000Z</time>
      </trkpt>
      <trkpt lat="40.36124" lon="20.4012">
        <ele>1204.1899414062</ele>
        <time>2023-09-28T12:51:23.000Z</time>
      </trkpt>
      <trkpt lat="40.36129" lon="20.40121">
        <ele>1203.2299804688</ele>
        <time>2023-09-28T12:51:22.000Z</time>
      </trkpt>
      <trkpt lat="40.36132" lon="20.40124">
        <ele>1202.2700195312</ele>
        <time>2023-09-28T12:51:21.000Z</time>
      </trkpt>
      <trkpt lat="40.36134" lon="20.40129">
        <ele>1201.7900390625</ele>
        <time>2023-09-28T12:51:20.000Z</time>
      </trkpt>
      <trkpt lat="40.36134" lon="20.40136">
        <ele>1200.8199462891</ele>
        <time>2023-09-28T12:51:19.000Z</time>
      </trkpt>
      <trkpt lat="40.36133" lon="20.40145">
        <ele>1199.3800048828</ele>
        <time>2023-09-28T12:51:18.000Z</time>
      </trkpt>
      <trkpt lat="40.3613" lon="20.4016">
        <ele>1197.4599609375</ele>
        <time>2023-09-28T12:51:17.000Z</time>
      </trkpt>
      <trkpt lat="40.36128" lon="20.40171">
        <ele>1196.5</ele>
        <time>2023-09-28T12:51:16.000Z</time>
      </trkpt>
      <trkpt lat="40.36126" lon="20.4019">
        <ele>1195.0600585938</ele>
        <time>2023-09-28T12:51:15.000Z</time>
      </trkpt>
      <trkpt lat="40.36125" lon="20.40205">
        <ele>1194.0899658203</ele>
        <time>2023-09-28T12:51:14.000Z</time>
      </trkpt>
      <trkpt lat="40.36124" lon="20.40221">
        <ele>1192.6500244141</ele>
        <time>2023-09-28T12:51:13.000Z</time>
      </trkpt>
      <trkpt lat="40.3612" lon="20.40249">
        <ele>1188.8100585938</ele>
        <time>2023-09-28T12:51:11.000Z</time>
      </trkpt>
      <trkpt lat="40.36119" lon="20.40263">
        <ele>1187.3699951172</ele>
        <time>2023-09-28T12:51:10.000Z</time>
      </trkpt>
      <trkpt lat="40.36119" lon="20.40275">
        <ele>1185.9200439453</ele>
        <time>2023-09-28T12:51:09.000Z</time>
      </trkpt>
      <trkpt lat="40.36118" lon="20.40291">
        <ele>1184.4799804688</ele>
        <time>2023-09-28T12:51:08.000Z</time>
      </trkpt>
      <trkpt lat="40.36115" lon="20.40303">
        <ele>1183.5200195312</ele>
        <time>2023-09-28T12:51:07.000Z</time>
      </trkpt>
      <trkpt lat="40.36113" lon="20.4031">
        <ele>1183.0400390625</ele>
        <time>2023-09-28T12:51:06.000Z</time>
      </trkpt>
      <trkpt lat="40.36106" lon="20.40324">
        <ele>1180.1600341797</ele>
        <time>2023-09-28T12:51:05.000Z</time>
      </trkpt>
      <trkpt lat="40.36103" lon="20.40335">
        <ele>1179.1899414062</ele>
        <time>2023-09-28T12:51:04.000Z</time>
      </trkpt>
      <trkpt lat="40.36102" lon="20.40342">
        <ele>1178.7099609375</ele>
        <time>2023-09-28T12:51:03.000Z</time>
      </trkpt>
      <trkpt lat="40.36101" lon="20.4036">
        <ele>1177.75</ele>
        <time>2023-09-28T12:51:02.000Z</time>
      </trkpt>
      <trkpt lat="40.36099" lon="20.40372">
        <ele>1177.2700195312</ele>
        <time>2023-09-28T12:51:01.000Z</time>
      </trkpt>
      <trkpt lat="40.36097" lon="20.40378">
        <ele>1176.7900390625</ele>
        <time>2023-09-28T12:51:00.000Z</time>
      </trkpt>
      <trkpt lat="40.36092" lon="20.40393">
        <ele>1176.3100585938</ele>
        <time>2023-09-28T12:50:59.000Z</time>
      </trkpt>
      <trkpt lat="40.36089" lon="20.40404">
        <ele>1175.8299560547</ele>
        <time>2023-09-28T12:50:58.000Z</time>
      </trkpt>
      <trkpt lat="40.36089" lon="20.40411">
        <ele>1175.8299560547</ele>
        <time>2023-09-28T12:50:57.000Z</time>
      </trkpt>
      <trkpt lat="40.36089" lon="20.4042">
        <ele>1175.3499755859</ele>
        <time>2023-09-28T12:50:56.000Z</time>
      </trkpt>
      <trkpt lat="40.36089" lon="20.40442">
        <ele>1174.8699951172</ele>
        <time>2023-09-28T12:50:55.000Z</time>
      </trkpt>
      <trkpt lat="40.36087" lon="20.40459">
        <ele>1173.9100341797</ele>
        <time>2023-09-28T12:50:54.000Z</time>
      </trkpt>
      <trkpt lat="40.36085" lon="20.40474">
        <ele>1172.9499511719</ele>
        <time>2023-09-28T12:50:53.000Z</time>
      </trkpt>
      <trkpt lat="40.36081" lon="20.40494">
        <ele>1171.5</ele>
        <time>2023-09-28T12:50:52.000Z</time>
      </trkpt>
      <trkpt lat="40.36077" lon="20.40505">
        <ele>1171.0200195312</ele>
        <time>2023-09-28T12:50:51.000Z</time>
      </trkpt>
      <trkpt lat="40.36071" lon="20.40519">
        <ele>1170.0600585938</ele>
        <time>2023-09-28T12:50:50.000Z</time>
      </trkpt>
      <trkpt lat="40.36067" lon="20.4053">
        <ele>1169.0999755859</ele>
        <time>2023-09-28T12:50:49.000Z</time>
      </trkpt>
      <trkpt lat="40.36062" lon="20.40542">
        <ele>1168.6199951172</ele>
        <time>2023-09-28T12:50:48.000Z</time>
      </trkpt>
      <trkpt lat="40.36058" lon="20.40559">
        <ele>1168.1400146484</ele>
        <time>2023-09-28T12:50:47.000Z</time>
      </trkpt>
      <trkpt lat="40.36053" lon="20.40586">
        <ele>1167.6600341797</ele>
        <time>2023-09-28T12:50:45.000Z</time>
      </trkpt>
      <trkpt lat="40.36049" lon="20.40609">
        <ele>1167.6600341797</ele>
        <time>2023-09-28T12:50:43.000Z</time>
      </trkpt>
      <trkpt lat="40.36047" lon="20.4062">
        <ele>1167.6600341797</ele>
        <time>2023-09-28T12:50:42.000Z</time>
      </trkpt>
      <trkpt lat="40.36049" lon="20.40631">
        <ele>1168.1400146484</ele>
        <time>2023-09-28T12:50:41.000Z</time>
      </trkpt>
      <trkpt lat="40.36053" lon="20.40639">
        <ele>1168.6199951172</ele>
        <time>2023-09-28T12:50:40.000Z</time>
      </trkpt>
      <trkpt lat="40.36057" lon="20.4065">
        <ele>1169.0999755859</ele>
        <time>2023-09-28T12:50:39.000Z</time>
      </trkpt>
      <trkpt lat="40.36061" lon="20.40661">
        <ele>1170.0600585938</ele>
        <time>2023-09-28T12:50:38.000Z</time>
      </trkpt>
      <trkpt lat="40.36062" lon="20.40672">
        <ele>1170.5400390625</ele>
        <time>2023-09-28T12:50:37.000Z</time>
      </trkpt>
      <trkpt lat="40.36062" lon="20.40682">
        <ele>1170.5400390625</ele>
        <time>2023-09-28T12:50:36.000Z</time>
      </trkpt>
      <trkpt lat="40.36063" lon="20.40698">
        <ele>1170.0600585938</ele>
        <time>2023-09-28T12:50:35.000Z</time>
      </trkpt>
      <trkpt lat="40.36066" lon="20.40712">
        <ele>1170.5400390625</ele>
        <time>2023-09-28T12:50:34.000Z</time>
      </trkpt>
      <trkpt lat="40.36068" lon="20.40725">
        <ele>1170.0600585938</ele>
        <time>2023-09-28T12:50:33.000Z</time>
      </trkpt>
      <trkpt lat="40.36068" lon="20.4074">
        <ele>1169.5799560547</ele>
        <time>2023-09-28T12:50:32.000Z</time>
      </trkpt>
      <trkpt lat="40.36067" lon="20.40752">
        <ele>1169.5799560547</ele>
        <time>2023-09-28T12:50:31.000Z</time>
      </trkpt>
      <trkpt lat="40.36064" lon="20.40769">
        <ele>1169.5799560547</ele>
        <time>2023-09-28T12:50:30.000Z</time>
      </trkpt>
      <trkpt lat="40.36061" lon="20.40783">
        <ele>1169.5799560547</ele>
        <time>2023-09-28T12:50:29.000Z</time>
      </trkpt>
      <trkpt lat="40.36057" lon="20.40796">
        <ele>1169.5799560547</ele>
        <time>2023-09-28T12:50:28.000Z</time>
      </trkpt>
      <trkpt lat="40.36053" lon="20.40806">
        <ele>1169.5799560547</ele>
        <time>2023-09-28T12:50:27.000Z</time>
      </trkpt>
      <trkpt lat="40.36047" lon="20.40817">
        <ele>1169.5799560547</ele>
        <time>2023-09-28T12:50:26.000Z</time>
      </trkpt>
      <trkpt lat="40.36039" lon="20.40828">
        <ele>1169.5799560547</ele>
        <time>2023-09-28T12:50:25.000Z</time>
      </trkpt>
      <trkpt lat="40.36033" lon="20.40836">
        <ele>1170.0600585938</ele>
        <time>2023-09-28T12:50:24.000Z</time>
      </trkpt>
      <trkpt lat="40.3603" lon="20.40839">
        <ele>1170.0600585938</ele>
        <time>2023-09-28T12:50:23.000Z</time>
      </trkpt>
      <trkpt lat="40.36021" lon="20.40848">
        <ele>1171.0200195312</ele>
        <time>2023-09-28T12:50:22.000Z</time>
      </trkpt>
      <trkpt lat="40.36018" lon="20.40854">
        <ele>1171.5</ele>
        <time>2023-09-28T12:50:21.000Z</time>
      </trkpt>
      <trkpt lat="40.36016" lon="20.40864">
        <ele>1170.0600585938</ele>
        <time>2023-09-28T12:50:20.000Z</time>
      </trkpt>
      <trkpt lat="40.36017" lon="20.40872">
        <ele>1169.0999755859</ele>
        <time>2023-09-28T12:50:19.000Z</time>
      </trkpt>
      <trkpt lat="40.3602" lon="20.4088">
        <ele>1168.6199951172</ele>
        <time>2023-09-28T12:50:18.000Z</time>
      </trkpt>
      <trkpt lat="40.36025" lon="20.40887">
        <ele>1167.6600341797</ele>
        <time>2023-09-28T12:50:17.000Z</time>
      </trkpt>
      <trkpt lat="40.3603" lon="20.40891">
        <ele>1167.6600341797</ele>
        <time>2023-09-28T12:50:16.000Z</time>
      </trkpt>
      <trkpt lat="40.36036" lon="20.40892">
        <ele>1166.6999511719</ele>
        <time>2023-09-28T12:50:15.000Z</time>
      </trkpt>
      <trkpt lat="40.36043" lon="20.40891">
        <ele>1166.2199707031</ele>
        <time>2023-09-28T12:50:14.000Z</time>
      </trkpt>
      <trkpt lat="40.36053" lon="20.40887">
        <ele>1165.7399902344</ele>
        <time>2023-09-28T12:50:13.000Z</time>
      </trkpt>
      <trkpt lat="40.36061" lon="20.40884">
        <ele>1164.7700195312</ele>
        <time>2023-09-28T12:50:12.000Z</time>
      </trkpt>
      <trkpt lat="40.36079" lon="20.40875">
        <ele>1162.3699951172</ele>
        <time>2023-09-28T12:50:10.000Z</time>
      </trkpt>
      <trkpt lat="40.36092" lon="20.40871">
        <ele>1161.4100341797</ele>
        <time>2023-09-28T12:50:08.000Z</time>
      </trkpt>
      <trkpt lat="40.36104" lon="20.40866">
        <ele>1159.9699707031</ele>
        <time>2023-09-28T12:50:07.000Z</time>
      </trkpt>
      <trkpt lat="40.36112" lon="20.40862">
        <ele>1159.0100097656</ele>
        <time>2023-09-28T12:50:06.000Z</time>
      </trkpt>
      <trkpt lat="40.36121" lon="20.40856">
        <ele>1158.5300292969</ele>
        <time>2023-09-28T12:50:05.000Z</time>
      </trkpt>
      <trkpt lat="40.36128" lon="20.40852">
        <ele>1158.0500488281</ele>
        <time>2023-09-28T12:50:04.000Z</time>
      </trkpt>
      <trkpt lat="40.36134" lon="20.40851">
        <ele>1157.0799560547</ele>
        <time>2023-09-28T12:50:03.000Z</time>
      </trkpt>
      <trkpt lat="40.3614" lon="20.40854">
        <ele>1155.6400146484</ele>
        <time>2023-09-28T12:50:02.000Z</time>
      </trkpt>
      <trkpt lat="40.36146" lon="20.40858">
        <ele>1155.1600341797</ele>
        <time>2023-09-28T12:50:01.000Z</time>
      </trkpt>
      <trkpt lat="40.36154" lon="20.40867">
        <ele>1154.1999511719</ele>
        <time>2023-09-28T12:50:00.000Z</time>
      </trkpt>
      <trkpt lat="40.36161" lon="20.40871">
        <ele>1153.7199707031</ele>
        <time>2023-09-28T12:49:59.000Z</time>
      </trkpt>
      <trkpt lat="40.36168" lon="20.40873">
        <ele>1153.7199707031</ele>
        <time>2023-09-28T12:49:58.000Z</time>
      </trkpt>
      <trkpt lat="40.36176" lon="20.40872">
        <ele>1153.2399902344</ele>
        <time>2023-09-28T12:49:57.000Z</time>
      </trkpt>
      <trkpt lat="40.36184" lon="20.40869">
        <ele>1152.7600097656</ele>
        <time>2023-09-28T12:49:56.000Z</time>
      </trkpt>
      <trkpt lat="40.36192" lon="20.40868">
        <ele>1152.2800292969</ele>
        <time>2023-09-28T12:49:55.000Z</time>
      </trkpt>
      <trkpt lat="40.362" lon="20.4087">
        <ele>1151.8000488281</ele>
        <time>2023-09-28T12:49:54.000Z</time>
      </trkpt>
      <trkpt lat="40.36209" lon="20.40875">
        <ele>1151.3199462891</ele>
        <time>2023-09-28T12:49:53.000Z</time>
      </trkpt>
      <trkpt lat="40.36218" lon="20.40878">
        <ele>1150.8399658203</ele>
        <time>2023-09-28T12:49:52.000Z</time>
      </trkpt>
      <trkpt lat="40.36226" lon="20.40878">
        <ele>1150.8399658203</ele>
        <time>2023-09-28T12:49:51.000Z</time>
      </trkpt>
      <trkpt lat="40.36232" lon="20.40876">
        <ele>1150.3499755859</ele>
        <time>2023-09-28T12:49:50.000Z</time>
      </trkpt>
      <trkpt lat="40.36247" lon="20.4087">
        <ele>1149.8699951172</ele>
        <time>2023-09-28T12:49:49.000Z</time>
      </trkpt>
      <trkpt lat="40.36268" lon="20.40863">
        <ele>1148.4300537109</ele>
        <time>2023-09-28T12:49:47.000Z</time>
      </trkpt>
      <trkpt lat="40.36277" lon="20.40857">
        <ele>1148.4300537109</ele>
        <time>2023-09-28T12:49:46.000Z</time>
      </trkpt>
      <trkpt lat="40.36286" lon="20.40854">
        <ele>1148.4300537109</ele>
        <time>2023-09-28T12:49:45.000Z</time>
      </trkpt>
      <trkpt lat="40.36294" lon="20.40853">
        <ele>1148.4300537109</ele>
        <time>2023-09-28T12:49:44.000Z</time>
      </trkpt>
      <trkpt lat="40.36302" lon="20.40856">
        <ele>1148.4300537109</ele>
        <time>2023-09-28T12:49:43.000Z</time>
      </trkpt>
      <trkpt lat="40.36309" lon="20.40861">
        <ele>1147.9499511719</ele>
        <time>2023-09-28T12:49:42.000Z</time>
      </trkpt>
      <trkpt lat="40.36317" lon="20.40869">
        <ele>1146.5100097656</ele>
        <time>2023-09-28T12:49:41.000Z</time>
      </trkpt>
      <trkpt lat="40.36324" lon="20.40877">
        <ele>1145.5500488281</ele>
        <time>2023-09-28T12:49:40.000Z</time>
      </trkpt>
      <trkpt lat="40.36334" lon="20.40888">
        <ele>1144.1099853516</ele>
        <time>2023-09-28T12:49:39.000Z</time>
      </trkpt>
      <trkpt lat="40.36342" lon="20.40895">
        <ele>1143.6300048828</ele>
        <time>2023-09-28T12:49:38.000Z</time>
      </trkpt>
      <trkpt lat="40.3635" lon="20.40901">
        <ele>1143.1400146484</ele>
        <time>2023-09-28T12:49:37.000Z</time>
      </trkpt>
      <trkpt lat="40.36358" lon="20.40906">
        <ele>1141.6999511719</ele>
        <time>2023-09-28T12:49:36.000Z</time>
      </trkpt>
      <trkpt lat="40.36367" lon="20.40912">
        <ele>1140.7399902344</ele>
        <time>2023-09-28T12:49:35.000Z</time>
      </trkpt>
      <trkpt lat="40.36376" lon="20.40914">
        <ele>1140.7399902344</ele>
        <time>2023-09-28T12:49:34.000Z</time>
      </trkpt>
      <trkpt lat="40.36384" lon="20.40912">
        <ele>1140.7399902344</ele>
        <time>2023-09-28T12:49:33.000Z</time>
      </trkpt>
      <trkpt lat="40.36385" lon="20.40911">
        <ele>1140.2600097656</ele>
        <time>2023-09-28T12:49:32.000Z</time>
      </trkpt>
      <trkpt lat="40.36402" lon="20.40904">
        <ele>1138.8199462891</ele>
        <time>2023-09-28T12:49:31.000Z</time>
      </trkpt>
      <trkpt lat="40.36412" lon="20.409">
        <ele>1138.3399658203</ele>
        <time>2023-09-28T12:49:30.000Z</time>
      </trkpt>
      <trkpt lat="40.3643" lon="20.40896">
        <ele>1136.9000244141</ele>
        <time>2023-09-28T12:49:29.000Z</time>
      </trkpt>
      <trkpt lat="40.36441" lon="20.40896">
        <ele>1135.9399414062</ele>
        <time>2023-09-28T12:49:28.000Z</time>
      </trkpt>
      <trkpt lat="40.36453" lon="20.40897">
        <ele>1134.9699707031</ele>
        <time>2023-09-28T12:49:27.000Z</time>
      </trkpt>
      <trkpt lat="40.36463" lon="20.40899">
        <ele>1134.4899902344</ele>
        <time>2023-09-28T12:49:26.000Z</time>
      </trkpt>
      <trkpt lat="40.36472" lon="20.40901">
        <ele>1133.5300292969</ele>
        <time>2023-09-28T12:49:25.000Z</time>
      </trkpt>
      <trkpt lat="40.3648" lon="20.409">
        <ele>1132.5699462891</ele>
        <time>2023-09-28T12:49:24.000Z</time>
      </trkpt>
      <trkpt lat="40.36487" lon="20.40895">
        <ele>1132.0899658203</ele>
        <time>2023-09-28T12:49:23.000Z</time>
      </trkpt>
      <trkpt lat="40.36492" lon="20.40886">
        <ele>1131.6099853516</ele>
        <time>2023-09-28T12:49:22.000Z</time>
      </trkpt>
      <trkpt lat="40.36497" lon="20.40876">
        <ele>1131.6099853516</ele>
        <time>2023-09-28T12:49:21.000Z</time>
      </trkpt>
      <trkpt lat="40.36502" lon="20.40867">
        <ele>1131.1300048828</ele>
        <time>2023-09-28T12:49:20.000Z</time>
      </trkpt>
      <trkpt lat="40.36508" lon="20.4086">
        <ele>1130.6500244141</ele>
        <time>2023-09-28T12:49:19.000Z</time>
      </trkpt>
      <trkpt lat="40.36514" lon="20.40857">
        <ele>1129.6899414062</ele>
        <time>2023-09-28T12:49:18.000Z</time>
      </trkpt>
      <trkpt lat="40.36519" lon="20.40856">
        <ele>1128.7299804688</ele>
        <time>2023-09-28T12:49:17.000Z</time>
      </trkpt>
      <trkpt lat="40.36528" lon="20.40856">
        <ele>1127.7600097656</ele>
        <time>2023-09-28T12:49:16.000Z</time>
      </trkpt>
      <trkpt lat="40.3654" lon="20.40858">
        <ele>1126.8000488281</ele>
        <time>2023-09-28T12:49:15.000Z</time>
      </trkpt>
      <trkpt lat="40.36549" lon="20.40861">
        <ele>1125.8399658203</ele>
        <time>2023-09-28T12:49:14.000Z</time>
      </trkpt>
      <trkpt lat="40.36557" lon="20.40867">
        <ele>1124.8800048828</ele>
        <time>2023-09-28T12:49:13.000Z</time>
      </trkpt>
      <trkpt lat="40.36562" lon="20.40873">
        <ele>1124.8800048828</ele>
        <time>2023-09-28T12:49:12.000Z</time>
      </trkpt>
      <trkpt lat="40.36571" lon="20.40885">
        <ele>1123.9200439453</ele>
        <time>2023-09-28T12:49:11.000Z</time>
      </trkpt>
      <trkpt lat="40.36576" lon="20.40892">
        <ele>1123.9200439453</ele>
        <time>2023-09-28T12:49:10.000Z</time>
      </trkpt>
      <trkpt lat="40.36587" lon="20.40905">
        <ele>1123.4399414062</ele>
        <time>2023-09-28T12:49:09.000Z</time>
      </trkpt>
      <trkpt lat="40.36594" lon="20.40913">
        <ele>1122.9599609375</ele>
        <time>2023-09-28T12:49:08.000Z</time>
      </trkpt>
      <trkpt lat="40.36602" lon="20.40918">
        <ele>1122.4799804688</ele>
        <time>2023-09-28T12:49:07.000Z</time>
      </trkpt>
      <trkpt lat="40.3661" lon="20.40922">
        <ele>1122</ele>
        <time>2023-09-28T12:49:06.000Z</time>
      </trkpt>
      <trkpt lat="40.36622" lon="20.40927">
        <ele>1122</ele>
        <time>2023-09-28T12:49:05.000Z</time>
      </trkpt>
      <trkpt lat="40.36629" lon="20.4093">
        <ele>1121.5200195312</ele>
        <time>2023-09-28T12:49:04.000Z</time>
      </trkpt>
      <trkpt lat="40.36634" lon="20.4093">
        <ele>1121.5200195312</ele>
        <time>2023-09-28T12:49:03.000Z</time>
      </trkpt>
      <trkpt lat="40.3664" lon="20.40929">
        <ele>1121.0300292969</ele>
        <time>2023-09-28T12:49:02.000Z</time>
      </trkpt>
      <trkpt lat="40.36645" lon="20.40927">
        <ele>1120.5500488281</ele>
        <time>2023-09-28T12:49:01.000Z</time>
      </trkpt>
      <trkpt lat="40.36649" lon="20.40923">
        <ele>1119.5899658203</ele>
        <time>2023-09-28T12:49:00.000Z</time>
      </trkpt>
      <trkpt lat="40.36654" lon="20.40915">
        <ele>1118.6300048828</ele>
        <time>2023-09-28T12:48:59.000Z</time>
      </trkpt>
      <trkpt lat="40.36658" lon="20.40907">
        <ele>1117.6700439453</ele>
        <time>2023-09-28T12:48:58.000Z</time>
      </trkpt>
      <trkpt lat="40.36662" lon="20.409">
        <ele>1116.7099609375</ele>
        <time>2023-09-28T12:48:57.000Z</time>
      </trkpt>
      <trkpt lat="40.36667" lon="20.40897">
        <ele>1115.75</ele>
        <time>2023-09-28T12:48:56.000Z</time>
      </trkpt>
      <trkpt lat="40.36673" lon="20.40896">
        <ele>1115.2700195312</ele>
        <time>2023-09-28T12:48:55.000Z</time>
      </trkpt>
      <trkpt lat="40.3668" lon="20.40898">
        <ele>1114.7900390625</ele>
        <time>2023-09-28T12:48:54.000Z</time>
      </trkpt>
      <trkpt lat="40.36689" lon="20.40902">
        <ele>1113.8199462891</ele>
        <time>2023-09-28T12:48:53.000Z</time>
      </trkpt>
      <trkpt lat="40.36697" lon="20.40904">
        <ele>1112.8599853516</ele>
        <time>2023-09-28T12:48:52.000Z</time>
      </trkpt>
      <trkpt lat="40.36704" lon="20.40902">
        <ele>1111.9000244141</ele>
        <time>2023-09-28T12:48:51.000Z</time>
      </trkpt>
      <trkpt lat="40.36711" lon="20.40898">
        <ele>1110.4599609375</ele>
        <time>2023-09-28T12:48:50.000Z</time>
      </trkpt>
      <trkpt lat="40.36717" lon="20.40892">
        <ele>1109.5</ele>
        <time>2023-09-28T12:48:49.000Z</time>
      </trkpt>
      <trkpt lat="40.36728" lon="20.4088">
        <ele>1107.0999755859</ele>
        <time>2023-09-28T12:48:48.000Z</time>
      </trkpt>
      <trkpt lat="40.36736" lon="20.40868">
        <ele>1106.1300048828</ele>
        <time>2023-09-28T12:48:47.000Z</time>
      </trkpt>
      <trkpt lat="40.36741" lon="20.40858">
        <ele>1105.1700439453</ele>
        <time>2023-09-28T12:48:46.000Z</time>
      </trkpt>
      <trkpt lat="40.36748" lon="20.4084">
        <ele>1103.7299804688</ele>
        <time>2023-09-28T12:48:45.000Z</time>
      </trkpt>
      <trkpt lat="40.36758" lon="20.40811">
        <ele>1102.2900390625</ele>
        <time>2023-09-28T12:48:43.000Z</time>
      </trkpt>
      <trkpt lat="40.36764" lon="20.40795">
        <ele>1101.3299560547</ele>
        <time>2023-09-28T12:48:42.000Z</time>
      </trkpt>
      <trkpt lat="40.36768" lon="20.40784">
        <ele>1100.8499755859</ele>
        <time>2023-09-28T12:48:41.000Z</time>
      </trkpt>
      <trkpt lat="40.36773" lon="20.40768">
        <ele>1099.8900146484</ele>
        <time>2023-09-28T12:48:40.000Z</time>
      </trkpt>
      <trkpt lat="40.36777" lon="20.40759">
        <ele>1099.8900146484</ele>
        <time>2023-09-28T12:48:39.000Z</time>
      </trkpt>
      <trkpt lat="40.36782" lon="20.40753">
        <ele>1099.8900146484</ele>
        <time>2023-09-28T12:48:38.000Z</time>
      </trkpt>
      <trkpt lat="40.36788" lon="20.40749">
        <ele>1099.4000244141</ele>
        <time>2023-09-28T12:48:37.000Z</time>
      </trkpt>
      <trkpt lat="40.36815" lon="20.4074">
        <ele>1098.4399414062</ele>
        <time>2023-09-28T12:48:34.000Z</time>
      </trkpt>
      <trkpt lat="40.36822" lon="20.40738">
        <ele>1098.4399414062</ele>
        <time>2023-09-28T12:48:33.000Z</time>
      </trkpt>
      <trkpt lat="40.3683" lon="20.40738">
        <ele>1098.4399414062</ele>
        <time>2023-09-28T12:48:32.000Z</time>
      </trkpt>
      <trkpt lat="40.36843" lon="20.40739">
        <ele>1097.9599609375</ele>
        <time>2023-09-28T12:48:30.000Z</time>
      </trkpt>
      <trkpt lat="40.36848" lon="20.40739">
        <ele>1097.4799804688</ele>
        <time>2023-09-28T12:48:29.000Z</time>
      </trkpt>
      <trkpt lat="40.36855" lon="20.4074">
        <ele>1097.4799804688</ele>
        <time>2023-09-28T12:48:28.000Z</time>
      </trkpt>
      <trkpt lat="40.36862" lon="20.40742">
        <ele>1097.4799804688</ele>
        <time>2023-09-28T12:48:27.000Z</time>
      </trkpt>
      <trkpt lat="40.36867" lon="20.40743">
        <ele>1097.4799804688</ele>
        <time>2023-09-28T12:48:26.000Z</time>
      </trkpt>
      <trkpt lat="40.36876" lon="20.40747">
        <ele>1097</ele>
        <time>2023-09-28T12:48:25.000Z</time>
      </trkpt>
      <trkpt lat="40.36882" lon="20.40752">
        <ele>1097</ele>
        <time>2023-09-28T12:48:24.000Z</time>
      </trkpt>
      <trkpt lat="40.36887" lon="20.40756">
        <ele>1096.5200195312</ele>
        <time>2023-09-28T12:48:23.000Z</time>
      </trkpt>
      <trkpt lat="40.3689" lon="20.40762">
        <ele>1097</ele>
        <time>2023-09-28T12:48:22.000Z</time>
      </trkpt>
      <trkpt lat="40.36893" lon="20.40768">
        <ele>1097</ele>
        <time>2023-09-28T12:48:21.000Z</time>
      </trkpt>
      <trkpt lat="40.36894" lon="20.40775">
        <ele>1097</ele>
        <time>2023-09-28T12:48:20.000Z</time>
      </trkpt>
      <trkpt lat="40.36894" lon="20.40784">
        <ele>1097</ele>
        <time>2023-09-28T12:48:19.000Z</time>
      </trkpt>
      <trkpt lat="40.36892" lon="20.40792">
        <ele>1097</ele>
        <time>2023-09-28T12:48:18.000Z</time>
      </trkpt>
      <trkpt lat="40.36887" lon="20.408">
        <ele>1097</ele>
        <time>2023-09-28T12:48:17.000Z</time>
      </trkpt>
      <trkpt lat="40.36883" lon="20.40806">
        <ele>1097</ele>
        <time>2023-09-28T12:48:16.000Z</time>
      </trkpt>
      <trkpt lat="40.36873" lon="20.40818">
        <ele>1096.0400390625</ele>
        <time>2023-09-28T12:48:15.000Z</time>
      </trkpt>
      <trkpt lat="40.36864" lon="20.40831">
        <ele>1095.0799560547</ele>
        <time>2023-09-28T12:48:14.000Z</time>
      </trkpt>
      <trkpt lat="40.36856" lon="20.40845">
        <ele>1096.0400390625</ele>
        <time>2023-09-28T12:48:13.000Z</time>
      </trkpt>
      <trkpt lat="40.36848" lon="20.4086">
        <ele>1097</ele>
        <time>2023-09-28T12:48:12.000Z</time>
      </trkpt>
      <trkpt lat="40.36843" lon="20.40874">
        <ele>1097.9599609375</ele>
        <time>2023-09-28T12:48:11.000Z</time>
      </trkpt>
      <trkpt lat="40.36839" lon="20.40888">
        <ele>1098.4399414062</ele>
        <time>2023-09-28T12:48:10.000Z</time>
      </trkpt>
      <trkpt lat="40.36833" lon="20.40924">
        <ele>1101.3299560547</ele>
        <time>2023-09-28T12:48:08.000Z</time>
      </trkpt>
      <trkpt lat="40.36832" lon="20.40931">
        <ele>1101.8100585938</ele>
        <time>2023-09-28T12:48:07.000Z</time>
      </trkpt>
      <trkpt lat="40.36828" lon="20.40953">
        <ele>1103.25</ele>
        <time>2023-09-28T12:48:06.000Z</time>
      </trkpt>
      <trkpt lat="40.36825" lon="20.4097">
        <ele>1104.2099609375</ele>
        <time>2023-09-28T12:48:05.000Z</time>
      </trkpt>
      <trkpt lat="40.36822" lon="20.40989">
        <ele>1106.1300048828</ele>
        <time>2023-09-28T12:48:04.000Z</time>
      </trkpt>
      <trkpt lat="40.3682" lon="20.41003">
        <ele>1107.0999755859</ele>
        <time>2023-09-28T12:48:03.000Z</time>
      </trkpt>
      <trkpt lat="40.36817" lon="20.41014">
        <ele>1108.5400390625</ele>
        <time>2023-09-28T12:48:02.000Z</time>
      </trkpt>
      <trkpt lat="40.36813" lon="20.41026">
        <ele>1109.9799804688</ele>
        <time>2023-09-28T12:48:01.000Z</time>
      </trkpt>
      <trkpt lat="40.36812" lon="20.41036">
        <ele>1110.4599609375</ele>
        <time>2023-09-28T12:48:00.000Z</time>
      </trkpt>
      <trkpt lat="40.36813" lon="20.41043">
        <ele>1110.9399414062</ele>
        <time>2023-09-28T12:47:59.000Z</time>
      </trkpt>
      <trkpt lat="40.36817" lon="20.41056">
        <ele>1111.4200439453</ele>
        <time>2023-09-28T12:47:58.000Z</time>
      </trkpt>
      <trkpt lat="40.36821" lon="20.41066">
        <ele>1111.4200439453</ele>
        <time>2023-09-28T12:47:57.000Z</time>
      </trkpt>
      <trkpt lat="40.36828" lon="20.41078">
        <ele>1111.4200439453</ele>
        <time>2023-09-28T12:47:56.000Z</time>
      </trkpt>
      <trkpt lat="40.36837" lon="20.41087">
        <ele>1111.9000244141</ele>
        <time>2023-09-28T12:47:55.000Z</time>
      </trkpt>
      <trkpt lat="40.36842" lon="20.41092">
        <ele>1111.9000244141</ele>
        <time>2023-09-28T12:47:54.000Z</time>
      </trkpt>
      <trkpt lat="40.36852" lon="20.41099">
        <ele>1111.4200439453</ele>
        <time>2023-09-28T12:47:53.000Z</time>
      </trkpt>
      <trkpt lat="40.36875" lon="20.41115">
        <ele>1110.9399414062</ele>
        <time>2023-09-28T12:47:51.000Z</time>
      </trkpt>
      <trkpt lat="40.36888" lon="20.41124">
        <ele>1110.9399414062</ele>
        <time>2023-09-28T12:47:50.000Z</time>
      </trkpt>
      <trkpt lat="40.36899" lon="20.4113">
        <ele>1111.4200439453</ele>
        <time>2023-09-28T12:47:49.000Z</time>
      </trkpt>
      <trkpt lat="40.36913" lon="20.41136">
        <ele>1111.9000244141</ele>
        <time>2023-09-28T12:47:48.000Z</time>
      </trkpt>
      <trkpt lat="40.36922" lon="20.41139">
        <ele>1111.9000244141</ele>
        <time>2023-09-28T12:47:47.000Z</time>
      </trkpt>
      <trkpt lat="40.36935" lon="20.41142">
        <ele>1111.9000244141</ele>
        <time>2023-09-28T12:47:46.000Z</time>
      </trkpt>
      <trkpt lat="40.36944" lon="20.41146">
        <ele>1111.9000244141</ele>
        <time>2023-09-28T12:47:45.000Z</time>
      </trkpt>
      <trkpt lat="40.36951" lon="20.41152">
        <ele>1111.9000244141</ele>
        <time>2023-09-28T12:47:44.000Z</time>
      </trkpt>
      <trkpt lat="40.36969" lon="20.41167">
        <ele>1112.8599853516</ele>
        <time>2023-09-28T12:47:42.000Z</time>
      </trkpt>
      <trkpt lat="40.36974" lon="20.41173">
        <ele>1112.8599853516</ele>
        <time>2023-09-28T12:47:41.000Z</time>
      </trkpt>
      <trkpt lat="40.36976" lon="20.41181">
        <ele>1112.8599853516</ele>
        <time>2023-09-28T12:47:40.000Z</time>
      </trkpt>
      <trkpt lat="40.36977" lon="20.41191">
        <ele>1112.3800048828</ele>
        <time>2023-09-28T12:47:39.000Z</time>
      </trkpt>
      <trkpt lat="40.36977" lon="20.41204">
        <ele>1112.3800048828</ele>
        <time>2023-09-28T12:47:38.000Z</time>
      </trkpt>
      <trkpt lat="40.36977" lon="20.41216">
        <ele>1112.3800048828</ele>
        <time>2023-09-28T12:47:37.000Z</time>
      </trkpt>
      <trkpt lat="40.3698" lon="20.41226">
        <ele>1112.8599853516</ele>
        <time>2023-09-28T12:47:36.000Z</time>
      </trkpt>
      <trkpt lat="40.36985" lon="20.41235">
        <ele>1112.8599853516</ele>
        <time>2023-09-28T12:47:35.000Z</time>
      </trkpt>
      <trkpt lat="40.36993" lon="20.41242">
        <ele>1112.8599853516</ele>
        <time>2023-09-28T12:47:34.000Z</time>
      </trkpt>
      <trkpt lat="40.36994" lon="20.41243">
        <ele>1112.8599853516</ele>
        <time>2023-09-28T12:47:33.000Z</time>
      </trkpt>
      <trkpt lat="40.37011" lon="20.41254">
        <ele>1112.8599853516</ele>
        <time>2023-09-28T12:47:32.000Z</time>
      </trkpt>
      <trkpt lat="40.37019" lon="20.41261">
        <ele>1112.3800048828</ele>
        <time>2023-09-28T12:47:31.000Z</time>
      </trkpt>
      <trkpt lat="40.37024" lon="20.41268">
        <ele>1112.3800048828</ele>
        <time>2023-09-28T12:47:30.000Z</time>
      </trkpt>
      <trkpt lat="40.37028" lon="20.41276">
        <ele>1111.9000244141</ele>
        <time>2023-09-28T12:47:29.000Z</time>
      </trkpt>
      <trkpt lat="40.37031" lon="20.41284">
        <ele>1111.4200439453</ele>
        <time>2023-09-28T12:47:28.000Z</time>
      </trkpt>
      <trkpt lat="40.37032" lon="20.41296">
        <ele>1110.4599609375</ele>
        <time>2023-09-28T12:47:27.000Z</time>
      </trkpt>
      <trkpt lat="40.37032" lon="20.41298">
        <ele>1110.4599609375</ele>
        <time>2023-09-28T12:47:26.000Z</time>
      </trkpt>
      <trkpt lat="40.37033" lon="20.41316">
        <ele>1109.5</ele>
        <time>2023-09-28T12:47:25.000Z</time>
      </trkpt>
      <trkpt lat="40.37033" lon="20.41326">
        <ele>1109.0200195312</ele>
        <time>2023-09-28T12:47:24.000Z</time>
      </trkpt>
      <trkpt lat="40.37032" lon="20.41333">
        <ele>1108.5400390625</ele>
        <time>2023-09-28T12:47:23.000Z</time>
      </trkpt>
      <trkpt lat="40.37029" lon="20.4134">
        <ele>1108.0600585938</ele>
        <time>2023-09-28T12:47:22.000Z</time>
      </trkpt>
      <trkpt lat="40.37024" lon="20.41345">
        <ele>1107.5799560547</ele>
        <time>2023-09-28T12:47:21.000Z</time>
      </trkpt>
      <trkpt lat="40.37017" lon="20.41348">
        <ele>1107.0999755859</ele>
        <time>2023-09-28T12:47:20.000Z</time>
      </trkpt>
      <trkpt lat="40.37007" lon="20.41351">
        <ele>1106.1300048828</ele>
        <time>2023-09-28T12:47:19.000Z</time>
      </trkpt>
      <trkpt lat="40.37" lon="20.41356">
        <ele>1105.6500244141</ele>
        <time>2023-09-28T12:47:18.000Z</time>
      </trkpt>
      <trkpt lat="40.36995" lon="20.41362">
        <ele>1105.1700439453</ele>
        <time>2023-09-28T12:47:17.000Z</time>
      </trkpt>
      <trkpt lat="40.36992" lon="20.41368">
        <ele>1104.6899414062</ele>
        <time>2023-09-28T12:47:16.000Z</time>
      </trkpt>
      <trkpt lat="40.36992" lon="20.41376">
        <ele>1103.7299804688</ele>
        <time>2023-09-28T12:47:15.000Z</time>
      </trkpt>
      <trkpt lat="40.36993" lon="20.41383">
        <ele>1103.25</ele>
        <time>2023-09-28T12:47:14.000Z</time>
      </trkpt>
      <trkpt lat="40.36996" lon="20.41395">
        <ele>1102.7700195312</ele>
        <time>2023-09-28T12:47:13.000Z</time>
      </trkpt>
      <trkpt lat="40.36998" lon="20.41401">
        <ele>1102.2900390625</ele>
        <time>2023-09-28T12:47:12.000Z</time>
      </trkpt>
      <trkpt lat="40.37004" lon="20.41417">
        <ele>1101.3299560547</ele>
        <time>2023-09-28T12:47:11.000Z</time>
      </trkpt>
      <trkpt lat="40.37005" lon="20.41426">
        <ele>1100.8499755859</ele>
        <time>2023-09-28T12:47:10.000Z</time>
      </trkpt>
      <trkpt lat="40.37004" lon="20.41435">
        <ele>1099.8900146484</ele>
        <time>2023-09-28T12:47:09.000Z</time>
      </trkpt>
      <trkpt lat="40.37002" lon="20.41444">
        <ele>1098.9200439453</ele>
        <time>2023-09-28T12:47:08.000Z</time>
      </trkpt>
      <trkpt lat="40.36996" lon="20.4145">
        <ele>1098.4399414062</ele>
        <time>2023-09-28T12:47:07.000Z</time>
      </trkpt>
      <trkpt lat="40.36989" lon="20.41454">
        <ele>1097.4799804688</ele>
        <time>2023-09-28T12:47:06.000Z</time>
      </trkpt>
      <trkpt lat="40.36981" lon="20.41456">
        <ele>1097</ele>
        <time>2023-09-28T12:47:05.000Z</time>
      </trkpt>
      <trkpt lat="40.36974" lon="20.41455">
        <ele>1096.0400390625</ele>
        <time>2023-09-28T12:47:04.000Z</time>
      </trkpt>
      <trkpt lat="40.36968" lon="20.41455">
        <ele>1095.5600585938</ele>
        <time>2023-09-28T12:47:03.000Z</time>
      </trkpt>
      <trkpt lat="40.36961" lon="20.41458">
        <ele>1095.5600585938</ele>
        <time>2023-09-28T12:47:02.000Z</time>
      </trkpt>
      <trkpt lat="40.36958" lon="20.41462">
        <ele>1095.5600585938</ele>
        <time>2023-09-28T12:47:01.000Z</time>
      </trkpt>
      <trkpt lat="40.36958" lon="20.41469">
        <ele>1096.0400390625</ele>
        <time>2023-09-28T12:47:00.000Z</time>
      </trkpt>
      <trkpt lat="40.3696" lon="20.41478">
        <ele>1095.5600585938</ele>
        <time>2023-09-28T12:46:59.000Z</time>
      </trkpt>
      <trkpt lat="40.36964" lon="20.41488">
        <ele>1095.5600585938</ele>
        <time>2023-09-28T12:46:58.000Z</time>
      </trkpt>
      <trkpt lat="40.36967" lon="20.41494">
        <ele>1095.5600585938</ele>
        <time>2023-09-28T12:46:57.000Z</time>
      </trkpt>
      <trkpt lat="40.36977" lon="20.41512">
        <ele>1095.0799560547</ele>
        <time>2023-09-28T12:46:56.000Z</time>
      </trkpt>
      <trkpt lat="40.36982" lon="20.41522">
        <ele>1094.5999755859</ele>
        <time>2023-09-28T12:46:55.000Z</time>
      </trkpt>
      <trkpt lat="40.36986" lon="20.41532">
        <ele>1094.5999755859</ele>
        <time>2023-09-28T12:46:54.000Z</time>
      </trkpt>
      <trkpt lat="40.36987" lon="20.41542">
        <ele>1094.1199951172</ele>
        <time>2023-09-28T12:46:53.000Z</time>
      </trkpt>
      <trkpt lat="40.36987" lon="20.41553">
        <ele>1093.6400146484</ele>
        <time>2023-09-28T12:46:52.000Z</time>
      </trkpt>
      <trkpt lat="40.36985" lon="20.41564">
        <ele>1093.1600341797</ele>
        <time>2023-09-28T12:46:51.000Z</time>
      </trkpt>
      <trkpt lat="40.36982" lon="20.41578">
        <ele>1092.1999511719</ele>
        <time>2023-09-28T12:46:50.000Z</time>
      </trkpt>
      <trkpt lat="40.36977" lon="20.41589">
        <ele>1091.2299804688</ele>
        <time>2023-09-28T12:46:49.000Z</time>
      </trkpt>
      <trkpt lat="40.36971" lon="20.41599">
        <ele>1090.75</ele>
        <time>2023-09-28T12:46:48.000Z</time>
      </trkpt>
      <trkpt lat="40.36963" lon="20.41607">
        <ele>1090.2700195312</ele>
        <time>2023-09-28T12:46:47.000Z</time>
      </trkpt>
      <trkpt lat="40.36953" lon="20.41615">
        <ele>1089.7900390625</ele>
        <time>2023-09-28T12:46:46.000Z</time>
      </trkpt>
      <trkpt lat="40.36945" lon="20.4162">
        <ele>1089.3100585938</ele>
        <time>2023-09-28T12:46:45.000Z</time>
      </trkpt>
      <trkpt lat="40.36939" lon="20.41622">
        <ele>1088.8299560547</ele>
        <time>2023-09-28T12:46:44.000Z</time>
      </trkpt>
      <trkpt lat="40.36933" lon="20.41623">
        <ele>1088.3499755859</ele>
        <time>2023-09-28T12:46:43.000Z</time>
      </trkpt>
      <trkpt lat="40.36923" lon="20.41623">
        <ele>1087.8699951172</ele>
        <time>2023-09-28T12:46:42.000Z</time>
      </trkpt>
      <trkpt lat="40.36915" lon="20.41624">
        <ele>1087.3900146484</ele>
        <time>2023-09-28T12:46:41.000Z</time>
      </trkpt>
      <trkpt lat="40.36908" lon="20.41629">
        <ele>1087.8699951172</ele>
        <time>2023-09-28T12:46:40.000Z</time>
      </trkpt>
      <trkpt lat="40.36904" lon="20.41636">
        <ele>1088.3499755859</ele>
        <time>2023-09-28T12:46:39.000Z</time>
      </trkpt>
      <trkpt lat="40.369" lon="20.41648">
        <ele>1088.3499755859</ele>
        <time>2023-09-28T12:46:38.000Z</time>
      </trkpt>
      <trkpt lat="40.36896" lon="20.41657">
        <ele>1088.3499755859</ele>
        <time>2023-09-28T12:46:37.000Z</time>
      </trkpt>
      <trkpt lat="40.3689" lon="20.41663">
        <ele>1088.3499755859</ele>
        <time>2023-09-28T12:46:36.000Z</time>
      </trkpt>
      <trkpt lat="40.36883" lon="20.41667">
        <ele>1088.3499755859</ele>
        <time>2023-09-28T12:46:35.000Z</time>
      </trkpt>
      <trkpt lat="40.36875" lon="20.41669">
        <ele>1087.8699951172</ele>
        <time>2023-09-28T12:46:34.000Z</time>
      </trkpt>
      <trkpt lat="40.36865" lon="20.41669">
        <ele>1087.3900146484</ele>
        <time>2023-09-28T12:46:33.000Z</time>
      </trkpt>
      <trkpt lat="40.36855" lon="20.41666">
        <ele>1087.3900146484</ele>
        <time>2023-09-28T12:46:32.000Z</time>
      </trkpt>
      <trkpt lat="40.3684" lon="20.4166">
        <ele>1086.9100341797</ele>
        <time>2023-09-28T12:46:30.000Z</time>
      </trkpt>
      <trkpt lat="40.36825" lon="20.41652">
        <ele>1086.4300537109</ele>
        <time>2023-09-28T12:46:29.000Z</time>
      </trkpt>
      <trkpt lat="40.36812" lon="20.41644">
        <ele>1085.9499511719</ele>
        <time>2023-09-28T12:46:28.000Z</time>
      </trkpt>
      <trkpt lat="40.36807" lon="20.4164">
        <ele>1085.9499511719</ele>
        <time>2023-09-28T12:46:27.000Z</time>
      </trkpt>
      <trkpt lat="40.368" lon="20.41633">
        <ele>1085.9499511719</ele>
        <time>2023-09-28T12:46:26.000Z</time>
      </trkpt>
      <trkpt lat="40.36792" lon="20.41622">
        <ele>1085.9499511719</ele>
        <time>2023-09-28T12:46:25.000Z</time>
      </trkpt>
      <trkpt lat="40.36779" lon="20.41606">
        <ele>1086.4300537109</ele>
        <time>2023-09-28T12:46:23.000Z</time>
      </trkpt>
      <trkpt lat="40.36774" lon="20.41603">
        <ele>1086.4300537109</ele>
        <time>2023-09-28T12:46:22.000Z</time>
      </trkpt>
      <trkpt lat="40.36768" lon="20.41603">
        <ele>1086.4300537109</ele>
        <time>2023-09-28T12:46:21.000Z</time>
      </trkpt>
      <trkpt lat="40.36762" lon="20.41606">
        <ele>1086.4300537109</ele>
        <time>2023-09-28T12:46:20.000Z</time>
      </trkpt>
      <trkpt lat="40.36756" lon="20.41613">
        <ele>1086.9100341797</ele>
        <time>2023-09-28T12:46:19.000Z</time>
      </trkpt>
      <trkpt lat="40.3675" lon="20.41619">
        <ele>1087.3900146484</ele>
        <time>2023-09-28T12:46:18.000Z</time>
      </trkpt>
      <trkpt lat="40.36744" lon="20.41624">
        <ele>1087.3900146484</ele>
        <time>2023-09-28T12:46:17.000Z</time>
      </trkpt>
      <trkpt lat="40.36737" lon="20.41626">
        <ele>1087.3900146484</ele>
        <time>2023-09-28T12:46:16.000Z</time>
      </trkpt>
      <trkpt lat="40.3673" lon="20.41625">
        <ele>1088.3499755859</ele>
        <time>2023-09-28T12:46:15.000Z</time>
      </trkpt>
      <trkpt lat="40.36723" lon="20.41622">
        <ele>1089.7900390625</ele>
        <time>2023-09-28T12:46:14.000Z</time>
      </trkpt>
      <trkpt lat="40.36718" lon="20.4162">
        <ele>1090.75</ele>
        <time>2023-09-28T12:46:13.000Z</time>
      </trkpt>
      <trkpt lat="40.36711" lon="20.41621">
        <ele>1091.2299804688</ele>
        <time>2023-09-28T12:46:12.000Z</time>
      </trkpt>
      <trkpt lat="40.36706" lon="20.41626">
        <ele>1091.7099609375</ele>
        <time>2023-09-28T12:46:11.000Z</time>
      </trkpt>
      <trkpt lat="40.36703" lon="20.41633">
        <ele>1091.7099609375</ele>
        <time>2023-09-28T12:46:10.000Z</time>
      </trkpt>
      <trkpt lat="40.36701" lon="20.41639">
        <ele>1092.1999511719</ele>
        <time>2023-09-28T12:46:09.000Z</time>
      </trkpt>
      <trkpt lat="40.36701" lon="20.41646">
        <ele>1092.6800537109</ele>
        <time>2023-09-28T12:46:08.000Z</time>
      </trkpt>
      <trkpt lat="40.36701" lon="20.41659">
        <ele>1092.6800537109</ele>
        <time>2023-09-28T12:46:07.000Z</time>
      </trkpt>
      <trkpt lat="40.36701" lon="20.41671">
        <ele>1092.1999511719</ele>
        <time>2023-09-28T12:46:06.000Z</time>
      </trkpt>
      <trkpt lat="40.36701" lon="20.41682">
        <ele>1093.1600341797</ele>
        <time>2023-09-28T12:46:05.000Z</time>
      </trkpt>
      <trkpt lat="40.36704" lon="20.41693">
        <ele>1093.1600341797</ele>
        <time>2023-09-28T12:46:04.000Z</time>
      </trkpt>
      <trkpt lat="40.36709" lon="20.41704">
        <ele>1093.6400146484</ele>
        <time>2023-09-28T12:46:03.000Z</time>
      </trkpt>
      <trkpt lat="40.36717" lon="20.41714">
        <ele>1093.6400146484</ele>
        <time>2023-09-28T12:46:02.000Z</time>
      </trkpt>
      <trkpt lat="40.36728" lon="20.41723">
        <ele>1094.1199951172</ele>
        <time>2023-09-28T12:46:01.000Z</time>
      </trkpt>
      <trkpt lat="40.36737" lon="20.41729">
        <ele>1094.1199951172</ele>
        <time>2023-09-28T12:46:00.000Z</time>
      </trkpt>
      <trkpt lat="40.36745" lon="20.41735">
        <ele>1094.5999755859</ele>
        <time>2023-09-28T12:45:59.000Z</time>
      </trkpt>
      <trkpt lat="40.3675" lon="20.4174">
        <ele>1094.5999755859</ele>
        <time>2023-09-28T12:45:58.000Z</time>
      </trkpt>
      <trkpt lat="40.36765" lon="20.41758">
        <ele>1094.5999755859</ele>
        <time>2023-09-28T12:45:56.000Z</time>
      </trkpt>
      <trkpt lat="40.36769" lon="20.41764">
        <ele>1094.5999755859</ele>
        <time>2023-09-28T12:45:55.000Z</time>
      </trkpt>
      <trkpt lat="40.36771" lon="20.4177">
        <ele>1094.5999755859</ele>
        <time>2023-09-28T12:45:54.000Z</time>
      </trkpt>
      <trkpt lat="40.36771" lon="20.41778">
        <ele>1094.5999755859</ele>
        <time>2023-09-28T12:45:53.000Z</time>
      </trkpt>
      <trkpt lat="40.36769" lon="20.4179">
        <ele>1094.5999755859</ele>
        <time>2023-09-28T12:45:52.000Z</time>
      </trkpt>
      <trkpt lat="40.36766" lon="20.41803">
        <ele>1094.1199951172</ele>
        <time>2023-09-28T12:45:51.000Z</time>
      </trkpt>
      <trkpt lat="40.3676" lon="20.41816">
        <ele>1093.6400146484</ele>
        <time>2023-09-28T12:45:50.000Z</time>
      </trkpt>
      <trkpt lat="40.36753" lon="20.41828">
        <ele>1093.6400146484</ele>
        <time>2023-09-28T12:45:49.000Z</time>
      </trkpt>
      <trkpt lat="40.36747" lon="20.41836">
        <ele>1093.1600341797</ele>
        <time>2023-09-28T12:45:48.000Z</time>
      </trkpt>
      <trkpt lat="40.36739" lon="20.41848">
        <ele>1092.6800537109</ele>
        <time>2023-09-28T12:45:47.000Z</time>
      </trkpt>
      <trkpt lat="40.36735" lon="20.41856">
        <ele>1092.6800537109</ele>
        <time>2023-09-28T12:45:46.000Z</time>
      </trkpt>
      <trkpt lat="40.36733" lon="20.41868">
        <ele>1092.1999511719</ele>
        <time>2023-09-28T12:45:45.000Z</time>
      </trkpt>
      <trkpt lat="40.36733" lon="20.41876">
        <ele>1091.7099609375</ele>
        <time>2023-09-28T12:45:44.000Z</time>
      </trkpt>
      <trkpt lat="40.36732" lon="20.41892">
        <ele>1090.75</ele>
        <time>2023-09-28T12:45:43.000Z</time>
      </trkpt>
      <trkpt lat="40.36732" lon="20.41913">
        <ele>1090.75</ele>
        <time>2023-09-28T12:45:42.000Z</time>
      </trkpt>
      <trkpt lat="40.36731" lon="20.41924">
        <ele>1090.75</ele>
        <time>2023-09-28T12:45:41.000Z</time>
      </trkpt>
      <trkpt lat="40.36731" lon="20.41946">
        <ele>1091.2299804688</ele>
        <time>2023-09-28T12:45:40.000Z</time>
      </trkpt>
      <trkpt lat="40.3673" lon="20.41958">
        <ele>1091.2299804688</ele>
        <time>2023-09-28T12:45:39.000Z</time>
      </trkpt>
      <trkpt lat="40.36728" lon="20.41969">
        <ele>1091.7099609375</ele>
        <time>2023-09-28T12:45:38.000Z</time>
      </trkpt>
      <trkpt lat="40.36726" lon="20.41976">
        <ele>1091.7099609375</ele>
        <time>2023-09-28T12:45:37.000Z</time>
      </trkpt>
      <trkpt lat="40.36719" lon="20.4199">
        <ele>1091.7099609375</ele>
        <time>2023-09-28T12:45:36.000Z</time>
      </trkpt>
      <trkpt lat="40.36714" lon="20.42002">
        <ele>1092.1999511719</ele>
        <time>2023-09-28T12:45:35.000Z</time>
      </trkpt>
      <trkpt lat="40.36699" lon="20.42036">
        <ele>1092.6800537109</ele>
        <time>2023-09-28T12:45:33.000Z</time>
      </trkpt>
      <trkpt lat="40.36692" lon="20.42048">
        <ele>1092.6800537109</ele>
        <time>2023-09-28T12:45:32.000Z</time>
      </trkpt>
      <trkpt lat="40.36685" lon="20.42058">
        <ele>1092.6800537109</ele>
        <time>2023-09-28T12:45:31.000Z</time>
      </trkpt>
      <trkpt lat="40.36676" lon="20.42067">
        <ele>1093.1600341797</ele>
        <time>2023-09-28T12:45:30.000Z</time>
      </trkpt>
      <trkpt lat="40.36672" lon="20.42071">
        <ele>1093.1600341797</ele>
        <time>2023-09-28T12:45:29.000Z</time>
      </trkpt>
      <trkpt lat="40.36665" lon="20.42075">
        <ele>1093.1600341797</ele>
        <time>2023-09-28T12:45:28.000Z</time>
      </trkpt>
      <trkpt lat="40.36642" lon="20.4209">
        <ele>1094.1199951172</ele>
        <time>2023-09-28T12:45:26.000Z</time>
      </trkpt>
      <trkpt lat="40.36631" lon="20.42095">
        <ele>1094.1199951172</ele>
        <time>2023-09-28T12:45:25.000Z</time>
      </trkpt>
      <trkpt lat="40.36623" lon="20.42098">
        <ele>1094.1199951172</ele>
        <time>2023-09-28T12:45:24.000Z</time>
      </trkpt>
      <trkpt lat="40.36617" lon="20.421">
        <ele>1094.5999755859</ele>
        <time>2023-09-28T12:45:23.000Z</time>
      </trkpt>
      <trkpt lat="40.36612" lon="20.42103">
        <ele>1094.5999755859</ele>
        <time>2023-09-28T12:45:22.000Z</time>
      </trkpt>
      <trkpt lat="40.36608" lon="20.42109">
        <ele>1094.1199951172</ele>
        <time>2023-09-28T12:45:21.000Z</time>
      </trkpt>
      <trkpt lat="40.36607" lon="20.42117">
        <ele>1093.6400146484</ele>
        <time>2023-09-28T12:45:20.000Z</time>
      </trkpt>
      <trkpt lat="40.36608" lon="20.42127">
        <ele>1093.1600341797</ele>
        <time>2023-09-28T12:45:19.000Z</time>
      </trkpt>
      <trkpt lat="40.36609" lon="20.42139">
        <ele>1092.1999511719</ele>
        <time>2023-09-28T12:45:18.000Z</time>
      </trkpt>
      <trkpt lat="40.36608" lon="20.42149">
        <ele>1091.2299804688</ele>
        <time>2023-09-28T12:45:17.000Z</time>
      </trkpt>
      <trkpt lat="40.36608" lon="20.42159">
        <ele>1090.75</ele>
        <time>2023-09-28T12:45:16.000Z</time>
      </trkpt>
      <trkpt lat="40.36608" lon="20.42171">
        <ele>1089.7900390625</ele>
        <time>2023-09-28T12:45:15.000Z</time>
      </trkpt>
      <trkpt lat="40.36608" lon="20.42175">
        <ele>1089.3100585938</ele>
        <time>2023-09-28T12:45:14.000Z</time>
      </trkpt>
      <trkpt lat="40.36609" lon="20.42191">
        <ele>1087.8699951172</ele>
        <time>2023-09-28T12:45:13.000Z</time>
      </trkpt>
      <trkpt lat="40.36608" lon="20.422">
        <ele>1087.3900146484</ele>
        <time>2023-09-28T12:45:12.000Z</time>
      </trkpt>
      <trkpt lat="40.36606" lon="20.42208">
        <ele>1086.4300537109</ele>
        <time>2023-09-28T12:45:11.000Z</time>
      </trkpt>
      <trkpt lat="40.36603" lon="20.42216">
        <ele>1085.4699707031</ele>
        <time>2023-09-28T12:45:10.000Z</time>
      </trkpt>
      <trkpt lat="40.366" lon="20.42222">
        <ele>1084.9899902344</ele>
        <time>2023-09-28T12:45:09.000Z</time>
      </trkpt>
      <trkpt lat="40.36597" lon="20.42229">
        <ele>1084.5</ele>
        <time>2023-09-28T12:45:08.000Z</time>
      </trkpt>
      <trkpt lat="40.36592" lon="20.42235">
        <ele>1083.5400390625</ele>
        <time>2023-09-28T12:45:07.000Z</time>
      </trkpt>
      <trkpt lat="40.36587" lon="20.42242">
        <ele>1083.0600585938</ele>
        <time>2023-09-28T12:45:06.000Z</time>
      </trkpt>
      <trkpt lat="40.36584" lon="20.4225">
        <ele>1082.0999755859</ele>
        <time>2023-09-28T12:45:05.000Z</time>
      </trkpt>
      <trkpt lat="40.36583" lon="20.42251">
        <ele>1082.0999755859</ele>
        <time>2023-09-28T12:45:04.000Z</time>
      </trkpt>
      <trkpt lat="40.36573" lon="20.42272">
        <ele>1080.1800537109</ele>
        <time>2023-09-28T12:45:02.000Z</time>
      </trkpt>
      <trkpt lat="40.36572" lon="20.42274">
        <ele>1079.6999511719</ele>
        <time>2023-09-28T12:45:01.000Z</time>
      </trkpt>
      <trkpt lat="40.36565" lon="20.42291">
        <ele>1077.7800292969</ele>
        <time>2023-09-28T12:45:00.000Z</time>
      </trkpt>
      <trkpt lat="40.36561" lon="20.42299">
        <ele>1076.3299560547</ele>
        <time>2023-09-28T12:44:59.000Z</time>
      </trkpt>
      <trkpt lat="40.3656" lon="20.42301">
        <ele>1076.3299560547</ele>
        <time>2023-09-28T12:44:58.000Z</time>
      </trkpt>
      <trkpt lat="40.36552" lon="20.42316">
        <ele>1074.4100341797</ele>
        <time>2023-09-28T12:44:57.000Z</time>
      </trkpt>
      <trkpt lat="40.36549" lon="20.42324">
        <ele>1073.4499511719</ele>
        <time>2023-09-28T12:44:56.000Z</time>
      </trkpt>
      <trkpt lat="40.36547" lon="20.42334">
        <ele>1072.4899902344</ele>
        <time>2023-09-28T12:44:55.000Z</time>
      </trkpt>
      <trkpt lat="40.36545" lon="20.42343">
        <ele>1071.5300292969</ele>
        <time>2023-09-28T12:44:54.000Z</time>
      </trkpt>
      <trkpt lat="40.36542" lon="20.42351">
        <ele>1070.5699462891</ele>
        <time>2023-09-28T12:44:53.000Z</time>
      </trkpt>
      <trkpt lat="40.3654" lon="20.42354">
        <ele>1070.0799560547</ele>
        <time>2023-09-28T12:44:52.000Z</time>
      </trkpt>
      <trkpt lat="40.3653" lon="20.42367">
        <ele>1069.1199951172</ele>
        <time>2023-09-28T12:44:51.000Z</time>
      </trkpt>
      <trkpt lat="40.36523" lon="20.42377">
        <ele>1068.1600341797</ele>
        <time>2023-09-28T12:44:50.000Z</time>
      </trkpt>
      <trkpt lat="40.36519" lon="20.42386">
        <ele>1067.1999511719</ele>
        <time>2023-09-28T12:44:49.000Z</time>
      </trkpt>
      <trkpt lat="40.36516" lon="20.42395">
        <ele>1066.7199707031</ele>
        <time>2023-09-28T12:44:48.000Z</time>
      </trkpt>
      <trkpt lat="40.36515" lon="20.42403">
        <ele>1065.7600097656</ele>
        <time>2023-09-28T12:44:47.000Z</time>
      </trkpt>
      <trkpt lat="40.36516" lon="20.42409">
        <ele>1065.2800292969</ele>
        <time>2023-09-28T12:44:46.000Z</time>
      </trkpt>
      <trkpt lat="40.36518" lon="20.42417">
        <ele>1064.8000488281</ele>
        <time>2023-09-28T12:44:45.000Z</time>
      </trkpt>
      <trkpt lat="40.3652" lon="20.42421">
        <ele>1064.3199462891</ele>
        <time>2023-09-28T12:44:44.000Z</time>
      </trkpt>
      <trkpt lat="40.36525" lon="20.42431">
        <ele>1063.8399658203</ele>
        <time>2023-09-28T12:44:43.000Z</time>
      </trkpt>
      <trkpt lat="40.36528" lon="20.42438">
        <ele>1062.8699951172</ele>
        <time>2023-09-28T12:44:42.000Z</time>
      </trkpt>
      <trkpt lat="40.36529" lon="20.42446">
        <ele>1061.9100341797</ele>
        <time>2023-09-28T12:44:41.000Z</time>
      </trkpt>
      <trkpt lat="40.36529" lon="20.42455">
        <ele>1061.4300537109</ele>
        <time>2023-09-28T12:44:40.000Z</time>
      </trkpt>
      <trkpt lat="40.36527" lon="20.42462">
        <ele>1060.9499511719</ele>
        <time>2023-09-28T12:44:39.000Z</time>
      </trkpt>
      <trkpt lat="40.36524" lon="20.42473">
        <ele>1059.9899902344</ele>
        <time>2023-09-28T12:44:38.000Z</time>
      </trkpt>
      <trkpt lat="40.3652" lon="20.42482">
        <ele>1059.5100097656</ele>
        <time>2023-09-28T12:44:37.000Z</time>
      </trkpt>
      <trkpt lat="40.36518" lon="20.42492">
        <ele>1059.0300292969</ele>
        <time>2023-09-28T12:44:36.000Z</time>
      </trkpt>
      <trkpt lat="40.36517" lon="20.42502">
        <ele>1058.0699462891</ele>
        <time>2023-09-28T12:44:35.000Z</time>
      </trkpt>
      <trkpt lat="40.36517" lon="20.42509">
        <ele>1057.1099853516</ele>
        <time>2023-09-28T12:44:34.000Z</time>
      </trkpt>
      <trkpt lat="40.36518" lon="20.42518">
        <ele>1056.1500244141</ele>
        <time>2023-09-28T12:44:33.000Z</time>
      </trkpt>
      <trkpt lat="40.36519" lon="20.42528">
        <ele>1055.1800537109</ele>
        <time>2023-09-28T12:44:32.000Z</time>
      </trkpt>
      <trkpt lat="40.3652" lon="20.42532">
        <ele>1054.2199707031</ele>
        <time>2023-09-28T12:44:31.000Z</time>
      </trkpt>
      <trkpt lat="40.36521" lon="20.42541">
        <ele>1053.7399902344</ele>
        <time>2023-09-28T12:44:30.000Z</time>
      </trkpt>
      <trkpt lat="40.36521" lon="20.42548">
        <ele>1052.7800292969</ele>
        <time>2023-09-28T12:44:29.000Z</time>
      </trkpt>
      <trkpt lat="40.36522" lon="20.42553">
        <ele>1052.3000488281</ele>
        <time>2023-09-28T12:44:28.000Z</time>
      </trkpt>
      <trkpt lat="40.36525" lon="20.42564">
        <ele>1051.3399658203</ele>
        <time>2023-09-28T12:44:27.000Z</time>
      </trkpt>
      <trkpt lat="40.36526" lon="20.42572">
        <ele>1050.3800048828</ele>
        <time>2023-09-28T12:44:26.000Z</time>
      </trkpt>
      <trkpt lat="40.36513" lon="20.42574">
        <ele>1047.4899902344</ele>
        <time>2023-09-28T12:41:18.000Z</time>
      </trkpt>
      <trkpt lat="40.3651" lon="20.42574">
        <ele>1047.9699707031</ele>
        <time>2023-09-28T12:41:17.000Z</time>
      </trkpt>
      <trkpt lat="40.36506" lon="20.42575">
        <ele>1047.9699707031</ele>
        <time>2023-09-28T12:41:16.000Z</time>
      </trkpt>
      <trkpt lat="40.36496" lon="20.42576">
        <ele>1047.0100097656</ele>
        <time>2023-09-28T12:41:15.000Z</time>
      </trkpt>
      <trkpt lat="40.36493" lon="20.42576">
        <ele>1047.0100097656</ele>
        <time>2023-09-28T12:41:14.000Z</time>
      </trkpt>
      <trkpt lat="40.3648" lon="20.42577">
        <ele>1046.5300292969</ele>
        <time>2023-09-28T12:41:12.000Z</time>
      </trkpt>
      <trkpt lat="40.36469" lon="20.42578">
        <ele>1047.0100097656</ele>
        <time>2023-09-28T12:41:10.000Z</time>
      </trkpt>
      <trkpt lat="40.36466" lon="20.42578">
        <ele>1047.4899902344</ele>
        <time>2023-09-28T12:41:09.000Z</time>
      </trkpt>
      <trkpt lat="40.3646" lon="20.42579">
        <ele>1047.0100097656</ele>
        <time>2023-09-28T12:41:08.000Z</time>
      </trkpt>
      <trkpt lat="40.36457" lon="20.42579">
        <ele>1047.0100097656</ele>
        <time>2023-09-28T12:41:07.000Z</time>
      </trkpt>
      <trkpt lat="40.36452" lon="20.42578">
        <ele>1046.0500488281</ele>
        <time>2023-09-28T12:41:06.000Z</time>
      </trkpt>
      <trkpt lat="40.36445" lon="20.42576">
        <ele>1045.0899658203</ele>
        <time>2023-09-28T12:41:05.000Z</time>
      </trkpt>
      <trkpt lat="40.36437" lon="20.42576">
        <ele>1045.0899658203</ele>
        <time>2023-09-28T12:41:04.000Z</time>
      </trkpt>
      <trkpt lat="40.36431" lon="20.42578">
        <ele>1045.5699462891</ele>
        <time>2023-09-28T12:41:03.000Z</time>
      </trkpt>
      <trkpt lat="40.36425" lon="20.42582">
        <ele>1045.0899658203</ele>
        <time>2023-09-28T12:41:02.000Z</time>
      </trkpt>
      <trkpt lat="40.3642" lon="20.42587">
        <ele>1045.5699462891</ele>
        <time>2023-09-28T12:41:01.000Z</time>
      </trkpt>
      <trkpt lat="40.36417" lon="20.42594">
        <ele>1046.0500488281</ele>
        <time>2023-09-28T12:41:00.000Z</time>
      </trkpt>
      <trkpt lat="40.36415" lon="20.42601">
        <ele>1046.5300292969</ele>
        <time>2023-09-28T12:40:59.000Z</time>
      </trkpt>
      <trkpt lat="40.36415" lon="20.42608">
        <ele>1047.0100097656</ele>
        <time>2023-09-28T12:40:58.000Z</time>
      </trkpt>
      <trkpt lat="40.36415" lon="20.42629">
        <ele>1049.4200439453</ele>
        <time>2023-09-28T12:40:56.000Z</time>
      </trkpt>
      <trkpt lat="40.36415" lon="20.42631">
        <ele>1049.9000244141</ele>
        <time>2023-09-28T12:40:55.000Z</time>
      </trkpt>
      <trkpt lat="40.36414" lon="20.42647">
        <ele>1051.8199462891</ele>
        <time>2023-09-28T12:40:54.000Z</time>
      </trkpt>
      <trkpt lat="40.36413" lon="20.42661">
        <ele>1053.2600097656</ele>
        <time>2023-09-28T12:40:53.000Z</time>
      </trkpt>
      <trkpt lat="40.36411" lon="20.4267">
        <ele>1054.6999511719</ele>
        <time>2023-09-28T12:40:52.000Z</time>
      </trkpt>
      <trkpt lat="40.36409" lon="20.42678">
        <ele>1056.1500244141</ele>
        <time>2023-09-28T12:40:51.000Z</time>
      </trkpt>
      <trkpt lat="40.36406" lon="20.42685">
        <ele>1057.5899658203</ele>
        <time>2023-09-28T12:40:50.000Z</time>
      </trkpt>
      <trkpt lat="40.36402" lon="20.42689">
        <ele>1058.5500488281</ele>
        <time>2023-09-28T12:40:49.000Z</time>
      </trkpt>
      <trkpt lat="40.36398" lon="20.42691">
        <ele>1059.5100097656</ele>
        <time>2023-09-28T12:40:48.000Z</time>
      </trkpt>
      <trkpt lat="40.36393" lon="20.4269">
        <ele>1060.4699707031</ele>
        <time>2023-09-28T12:40:47.000Z</time>
      </trkpt>
      <trkpt lat="40.36387" lon="20.42689">
        <ele>1061.4300537109</ele>
        <time>2023-09-28T12:40:46.000Z</time>
      </trkpt>
      <trkpt lat="40.3638" lon="20.42688">
        <ele>1062.3900146484</ele>
        <time>2023-09-28T12:40:45.000Z</time>
      </trkpt>
      <trkpt lat="40.3637" lon="20.42685">
        <ele>1063.3599853516</ele>
        <time>2023-09-28T12:40:44.000Z</time>
      </trkpt>
      <trkpt lat="40.36362" lon="20.42682">
        <ele>1064.3199462891</ele>
        <time>2023-09-28T12:40:43.000Z</time>
      </trkpt>
      <trkpt lat="40.36356" lon="20.42677">
        <ele>1064.8000488281</ele>
        <time>2023-09-28T12:40:42.000Z</time>
      </trkpt>
      <trkpt lat="40.36352" lon="20.42671">
        <ele>1065.2800292969</ele>
        <time>2023-09-28T12:40:41.000Z</time>
      </trkpt>
      <trkpt lat="40.36349" lon="20.42664">
        <ele>1065.7600097656</ele>
        <time>2023-09-28T12:40:40.000Z</time>
      </trkpt>
      <trkpt lat="40.36345" lon="20.42658">
        <ele>1066.2399902344</ele>
        <time>2023-09-28T12:40:39.000Z</time>
      </trkpt>
      <trkpt lat="40.36339" lon="20.42654">
        <ele>1066.7199707031</ele>
        <time>2023-09-28T12:40:38.000Z</time>
      </trkpt>
      <trkpt lat="40.36334" lon="20.42654">
        <ele>1067.6800537109</ele>
        <time>2023-09-28T12:40:37.000Z</time>
      </trkpt>
      <trkpt lat="40.36328" lon="20.42657">
        <ele>1068.1600341797</ele>
        <time>2023-09-28T12:40:36.000Z</time>
      </trkpt>
      <trkpt lat="40.36327" lon="20.42658">
        <ele>1068.6400146484</ele>
        <time>2023-09-28T12:40:35.000Z</time>
      </trkpt>
      <trkpt lat="40.36316" lon="20.42666">
        <ele>1069.5999755859</ele>
        <time>2023-09-28T12:40:34.000Z</time>
      </trkpt>
      <trkpt lat="40.36308" lon="20.42672">
        <ele>1070.0799560547</ele>
        <time>2023-09-28T12:40:33.000Z</time>
      </trkpt>
      <trkpt lat="40.36302" lon="20.42675">
        <ele>1071.0500488281</ele>
        <time>2023-09-28T12:40:32.000Z</time>
      </trkpt>
      <trkpt lat="40.36296" lon="20.42675">
        <ele>1071.5300292969</ele>
        <time>2023-09-28T12:40:31.000Z</time>
      </trkpt>
      <trkpt lat="40.36291" lon="20.42672">
        <ele>1072.0100097656</ele>
        <time>2023-09-28T12:40:30.000Z</time>
      </trkpt>
      <trkpt lat="40.36288" lon="20.4267">
        <ele>1072.4899902344</ele>
        <time>2023-09-28T12:40:29.000Z</time>
      </trkpt>
      <trkpt lat="40.36277" lon="20.42661">
        <ele>1072.9699707031</ele>
        <time>2023-09-28T12:40:28.000Z</time>
      </trkpt>
      <trkpt lat="40.36269" lon="20.42658">
        <ele>1072.9699707031</ele>
        <time>2023-09-28T12:40:27.000Z</time>
      </trkpt>
      <trkpt lat="40.36263" lon="20.42658">
        <ele>1072.9699707031</ele>
        <time>2023-09-28T12:40:26.000Z</time>
      </trkpt>
      <trkpt lat="40.36255" lon="20.42659">
        <ele>1072.9699707031</ele>
        <time>2023-09-28T12:40:25.000Z</time>
      </trkpt>
      <trkpt lat="40.36246" lon="20.42658">
        <ele>1072.9699707031</ele>
        <time>2023-09-28T12:40:24.000Z</time>
      </trkpt>
      <trkpt lat="40.3624" lon="20.42656">
        <ele>1072.9699707031</ele>
        <time>2023-09-28T12:40:23.000Z</time>
      </trkpt>
      <trkpt lat="40.36235" lon="20.42651">
        <ele>1072.4899902344</ele>
        <time>2023-09-28T12:40:22.000Z</time>
      </trkpt>
      <trkpt lat="40.36231" lon="20.42646">
        <ele>1072.0100097656</ele>
        <time>2023-09-28T12:40:21.000Z</time>
      </trkpt>
      <trkpt lat="40.36227" lon="20.42639">
        <ele>1071.5300292969</ele>
        <time>2023-09-28T12:40:20.000Z</time>
      </trkpt>
      <trkpt lat="40.36225" lon="20.42634">
        <ele>1071.0500488281</ele>
        <time>2023-09-28T12:40:19.000Z</time>
      </trkpt>
      <trkpt lat="40.36221" lon="20.42626">
        <ele>1070.5699462891</ele>
        <time>2023-09-28T12:40:18.000Z</time>
      </trkpt>
      <trkpt lat="40.36218" lon="20.4262">
        <ele>1070.5699462891</ele>
        <time>2023-09-28T12:40:17.000Z</time>
      </trkpt>
      <trkpt lat="40.36213" lon="20.42615">
        <ele>1070.0799560547</ele>
        <time>2023-09-28T12:40:16.000Z</time>
      </trkpt>
      <trkpt lat="40.36208" lon="20.42613">
        <ele>1069.5999755859</ele>
        <time>2023-09-28T12:40:15.000Z</time>
      </trkpt>
      <trkpt lat="40.36203" lon="20.42615">
        <ele>1069.5999755859</ele>
        <time>2023-09-28T12:40:14.000Z</time>
      </trkpt>
      <trkpt lat="40.36196" lon="20.4262">
        <ele>1069.1199951172</ele>
        <time>2023-09-28T12:40:13.000Z</time>
      </trkpt>
      <trkpt lat="40.36193" lon="20.42624">
        <ele>1069.1199951172</ele>
        <time>2023-09-28T12:40:12.000Z</time>
      </trkpt>
      <trkpt lat="40.36188" lon="20.4263">
        <ele>1068.6400146484</ele>
        <time>2023-09-28T12:40:11.000Z</time>
      </trkpt>
      <trkpt lat="40.36177" lon="20.42644">
        <ele>1067.1999511719</ele>
        <time>2023-09-28T12:40:10.000Z</time>
      </trkpt>
      <trkpt lat="40.3617" lon="20.42651">
        <ele>1066.2399902344</ele>
        <time>2023-09-28T12:40:09.000Z</time>
      </trkpt>
      <trkpt lat="40.36162" lon="20.42657">
        <ele>1064.8000488281</ele>
        <time>2023-09-28T12:40:08.000Z</time>
      </trkpt>
      <trkpt lat="40.36154" lon="20.4266">
        <ele>1063.8399658203</ele>
        <time>2023-09-28T12:40:07.000Z</time>
      </trkpt>
      <trkpt lat="40.36147" lon="20.42663">
        <ele>1061.4300537109</ele>
        <time>2023-09-28T12:40:06.000Z</time>
      </trkpt>
      <trkpt lat="40.3614" lon="20.42666">
        <ele>1059.5100097656</ele>
        <time>2023-09-28T12:40:05.000Z</time>
      </trkpt>
      <trkpt lat="40.36132" lon="20.42672">
        <ele>1059.0300292969</ele>
        <time>2023-09-28T12:40:04.000Z</time>
      </trkpt>
      <trkpt lat="40.36128" lon="20.42678">
        <ele>1059.0300292969</ele>
        <time>2023-09-28T12:40:03.000Z</time>
      </trkpt>
      <trkpt lat="40.36121" lon="20.42687">
        <ele>1059.0300292969</ele>
        <time>2023-09-28T12:40:02.000Z</time>
      </trkpt>
      <trkpt lat="40.36114" lon="20.42695">
        <ele>1059.9899902344</ele>
        <time>2023-09-28T12:40:01.000Z</time>
      </trkpt>
      <trkpt lat="40.36108" lon="20.42703">
        <ele>1059.5100097656</ele>
        <time>2023-09-28T12:40:00.000Z</time>
      </trkpt>
      <trkpt lat="40.36106" lon="20.42707">
        <ele>1059.9899902344</ele>
        <time>2023-09-28T12:39:59.000Z</time>
      </trkpt>
      <trkpt lat="40.36098" lon="20.4272">
        <ele>1060.4699707031</ele>
        <time>2023-09-28T12:39:58.000Z</time>
      </trkpt>
      <trkpt lat="40.36095" lon="20.42726">
        <ele>1060.9499511719</ele>
        <time>2023-09-28T12:39:57.000Z</time>
      </trkpt>
      <trkpt lat="40.3609" lon="20.42734">
        <ele>1062.3900146484</ele>
        <time>2023-09-28T12:39:56.000Z</time>
      </trkpt>
      <trkpt lat="40.36088" lon="20.4274">
        <ele>1062.8699951172</ele>
        <time>2023-09-28T12:39:55.000Z</time>
      </trkpt>
      <trkpt lat="40.36087" lon="20.42758">
        <ele>1062.3900146484</ele>
        <time>2023-09-28T12:39:51.000Z</time>
      </trkpt>
      <trkpt lat="40.36088" lon="20.42763">
        <ele>1061.9100341797</ele>
        <time>2023-09-28T12:39:50.000Z</time>
      </trkpt>
      <trkpt lat="40.36089" lon="20.42772">
        <ele>1061.9100341797</ele>
        <time>2023-09-28T12:39:49.000Z</time>
      </trkpt>
      <trkpt lat="40.36089" lon="20.42779">
        <ele>1061.4300537109</ele>
        <time>2023-09-28T12:39:48.000Z</time>
      </trkpt>
      <trkpt lat="40.36089" lon="20.42787">
        <ele>1061.4300537109</ele>
        <time>2023-09-28T12:39:47.000Z</time>
      </trkpt>
      <trkpt lat="40.36089" lon="20.42794">
        <ele>1060.9499511719</ele>
        <time>2023-09-28T12:39:46.000Z</time>
      </trkpt>
      <trkpt lat="40.36088" lon="20.42801">
        <ele>1060.9499511719</ele>
        <time>2023-09-28T12:39:45.000Z</time>
      </trkpt>
      <trkpt lat="40.36087" lon="20.42806">
        <ele>1060.9499511719</ele>
        <time>2023-09-28T12:39:44.000Z</time>
      </trkpt>
      <trkpt lat="40.36084" lon="20.42815">
        <ele>1060.4699707031</ele>
        <time>2023-09-28T12:39:43.000Z</time>
      </trkpt>
      <trkpt lat="40.36081" lon="20.42822">
        <ele>1060.4699707031</ele>
        <time>2023-09-28T12:39:42.000Z</time>
      </trkpt>
      <trkpt lat="40.3608" lon="20.42824">
        <ele>1060.4699707031</ele>
        <time>2023-09-28T12:39:41.000Z</time>
      </trkpt>
      <trkpt lat="40.36074" lon="20.42841">
        <ele>1060.9499511719</ele>
        <time>2023-09-28T12:39:39.000Z</time>
      </trkpt>
      <trkpt lat="40.36072" lon="20.42847">
        <ele>1060.9499511719</ele>
        <time>2023-09-28T12:39:38.000Z</time>
      </trkpt>
      <trkpt lat="40.36071" lon="20.42851">
        <ele>1060.9499511719</ele>
        <time>2023-09-28T12:39:37.000Z</time>
      </trkpt>
      <trkpt lat="40.36069" lon="20.42862">
        <ele>1061.9100341797</ele>
        <time>2023-09-28T12:39:36.000Z</time>
      </trkpt>
      <trkpt lat="40.36067" lon="20.42867">
        <ele>1062.3900146484</ele>
        <time>2023-09-28T12:39:35.000Z</time>
      </trkpt>
      <trkpt lat="40.36065" lon="20.42874">
        <ele>1062.8699951172</ele>
        <time>2023-09-28T12:39:34.000Z</time>
      </trkpt>
      <trkpt lat="40.36062" lon="20.42883">
        <ele>1063.8399658203</ele>
        <time>2023-09-28T12:39:33.000Z</time>
      </trkpt>
      <trkpt lat="40.36061" lon="20.42887">
        <ele>1064.3199462891</ele>
        <time>2023-09-28T12:39:32.000Z</time>
      </trkpt>
      <trkpt lat="40.36059" lon="20.42891">
        <ele>1064.8000488281</ele>
        <time>2023-09-28T12:39:31.000Z</time>
      </trkpt>
      <trkpt lat="40.36056" lon="20.42899">
        <ele>1065.2800292969</ele>
        <time>2023-09-28T12:39:30.000Z</time>
      </trkpt>
      <trkpt lat="40.36052" lon="20.42905">
        <ele>1065.2800292969</ele>
        <time>2023-09-28T12:39:29.000Z</time>
      </trkpt>
      <trkpt lat="40.36049" lon="20.4291">
        <ele>1065.2800292969</ele>
        <time>2023-09-28T12:39:28.000Z</time>
      </trkpt>
      <trkpt lat="40.36048" lon="20.42914">
        <ele>1065.2800292969</ele>
        <time>2023-09-28T12:39:27.000Z</time>
      </trkpt>
      <trkpt lat="40.36043" lon="20.42922">
        <ele>1065.7600097656</ele>
        <time>2023-09-28T12:39:26.000Z</time>
      </trkpt>
      <trkpt lat="40.36041" lon="20.42925">
        <ele>1065.7600097656</ele>
        <time>2023-09-28T12:39:25.000Z</time>
      </trkpt>
      <trkpt lat="40.36035" lon="20.4293">
        <ele>1066.2399902344</ele>
        <time>2023-09-28T12:39:24.000Z</time>
      </trkpt>
      <trkpt lat="40.36033" lon="20.42932">
        <ele>1066.7199707031</ele>
        <time>2023-09-28T12:39:23.000Z</time>
      </trkpt>
      <trkpt lat="40.36024" lon="20.42932">
        <ele>1067.1999511719</ele>
        <time>2023-09-28T12:39:21.000Z</time>
      </trkpt>
      <trkpt lat="40.36021" lon="20.4293">
        <ele>1067.1999511719</ele>
        <time>2023-09-28T12:39:20.000Z</time>
      </trkpt>
      <trkpt lat="40.36017" lon="20.42925">
        <ele>1067.6800537109</ele>
        <time>2023-09-28T12:39:19.000Z</time>
      </trkpt>
      <trkpt lat="40.36011" lon="20.42917">
        <ele>1067.6800537109</ele>
        <time>2023-09-28T12:39:18.000Z</time>
      </trkpt>
      <trkpt lat="40.36008" lon="20.42912">
        <ele>1067.6800537109</ele>
        <time>2023-09-28T12:39:17.000Z</time>
      </trkpt>
      <trkpt lat="40.36002" lon="20.42907">
        <ele>1068.1600341797</ele>
        <time>2023-09-28T12:39:16.000Z</time>
      </trkpt>
      <trkpt lat="40.35991" lon="20.42897">
        <ele>1068.6400146484</ele>
        <time>2023-09-28T12:39:15.000Z</time>
      </trkpt>
      <trkpt lat="40.35978" lon="20.42882">
        <ele>1069.1199951172</ele>
        <time>2023-09-28T12:39:13.000Z</time>
      </trkpt>
      <trkpt lat="40.35976" lon="20.42881">
        <ele>1069.1199951172</ele>
        <time>2023-09-28T12:39:12.000Z</time>
      </trkpt>
      <trkpt lat="40.35965" lon="20.42873">
        <ele>1070.0799560547</ele>
        <time>2023-09-28T12:39:11.000Z</time>
      </trkpt>
      <trkpt lat="40.35955" lon="20.42865">
        <ele>1071.0500488281</ele>
        <time>2023-09-28T12:39:10.000Z</time>
      </trkpt>
      <trkpt lat="40.35949" lon="20.42859">
        <ele>1071.5300292969</ele>
        <time>2023-09-28T12:39:09.000Z</time>
      </trkpt>
      <trkpt lat="40.35943" lon="20.42853">
        <ele>1072.4899902344</ele>
        <time>2023-09-28T12:39:08.000Z</time>
      </trkpt>
      <trkpt lat="40.35939" lon="20.42847">
        <ele>1073.4499511719</ele>
        <time>2023-09-28T12:39:07.000Z</time>
      </trkpt>
      <trkpt lat="40.35933" lon="20.42837">
        <ele>1073.9300537109</ele>
        <time>2023-09-28T12:39:06.000Z</time>
      </trkpt>
      <trkpt lat="40.35926" lon="20.42829">
        <ele>1073.9300537109</ele>
        <time>2023-09-28T12:39:05.000Z</time>
      </trkpt>
      <trkpt lat="40.35919" lon="20.42823">
        <ele>1073.9300537109</ele>
        <time>2023-09-28T12:39:04.000Z</time>
      </trkpt>
      <trkpt lat="40.35911" lon="20.42819">
        <ele>1074.4100341797</ele>
        <time>2023-09-28T12:39:03.000Z</time>
      </trkpt>
      <trkpt lat="40.35906" lon="20.42818">
        <ele>1074.4100341797</ele>
        <time>2023-09-28T12:39:02.000Z</time>
      </trkpt>
      <trkpt lat="40.35898" lon="20.42818">
        <ele>1074.8900146484</ele>
        <time>2023-09-28T12:39:01.000Z</time>
      </trkpt>
      <trkpt lat="40.35893" lon="20.42816">
        <ele>1074.8900146484</ele>
        <time>2023-09-28T12:39:00.000Z</time>
      </trkpt>
      <trkpt lat="40.3589" lon="20.42812">
        <ele>1074.8900146484</ele>
        <time>2023-09-28T12:38:59.000Z</time>
      </trkpt>
      <trkpt lat="40.35889" lon="20.42807">
        <ele>1075.3699951172</ele>
        <time>2023-09-28T12:38:58.000Z</time>
      </trkpt>
      <trkpt lat="40.35886" lon="20.42799">
        <ele>1076.3299560547</ele>
        <time>2023-09-28T12:38:57.000Z</time>
      </trkpt>
      <trkpt lat="40.35884" lon="20.4279">
        <ele>1077.2900390625</ele>
        <time>2023-09-28T12:38:56.000Z</time>
      </trkpt>
      <trkpt lat="40.35881" lon="20.42781">
        <ele>1078.7399902344</ele>
        <time>2023-09-28T12:38:55.000Z</time>
      </trkpt>
      <trkpt lat="40.35877" lon="20.42774">
        <ele>1079.6999511719</ele>
        <time>2023-09-28T12:38:54.000Z</time>
      </trkpt>
      <trkpt lat="40.35872" lon="20.42767">
        <ele>1080.6600341797</ele>
        <time>2023-09-28T12:38:53.000Z</time>
      </trkpt>
      <trkpt lat="40.35867" lon="20.42763">
        <ele>1080.6600341797</ele>
        <time>2023-09-28T12:38:52.000Z</time>
      </trkpt>
      <trkpt lat="40.35861" lon="20.42761">
        <ele>1078.7399902344</ele>
        <time>2023-09-28T12:38:51.000Z</time>
      </trkpt>
      <trkpt lat="40.35855" lon="20.42762">
        <ele>1078.7399902344</ele>
        <time>2023-09-28T12:38:50.000Z</time>
      </trkpt>
      <trkpt lat="40.35851" lon="20.42764">
        <ele>1078.7399902344</ele>
        <time>2023-09-28T12:38:49.000Z</time>
      </trkpt>
      <trkpt lat="40.35848" lon="20.42769">
        <ele>1079.2199707031</ele>
        <time>2023-09-28T12:38:48.000Z</time>
      </trkpt>
      <trkpt lat="40.35847" lon="20.42776">
        <ele>1080.1800537109</ele>
        <time>2023-09-28T12:38:47.000Z</time>
      </trkpt>
      <trkpt lat="40.35847" lon="20.42777">
        <ele>1080.6600341797</ele>
        <time>2023-09-28T12:38:46.000Z</time>
      </trkpt>
      <trkpt lat="40.35847" lon="20.42785">
        <ele>1081.1400146484</ele>
        <time>2023-09-28T12:38:45.000Z</time>
      </trkpt>
      <trkpt lat="40.35849" lon="20.42802">
        <ele>1082.5799560547</ele>
        <time>2023-09-28T12:38:44.000Z</time>
      </trkpt>
      <trkpt lat="40.35848" lon="20.42812">
        <ele>1084.0200195312</ele>
        <time>2023-09-28T12:38:43.000Z</time>
      </trkpt>
      <trkpt lat="40.35846" lon="20.42819">
        <ele>1084.5</ele>
        <time>2023-09-28T12:38:42.000Z</time>
      </trkpt>
      <trkpt lat="40.35842" lon="20.42832">
        <ele>1085.9499511719</ele>
        <time>2023-09-28T12:38:41.000Z</time>
      </trkpt>
      <trkpt lat="40.35839" lon="20.42842">
        <ele>1086.4300537109</ele>
        <time>2023-09-28T12:38:40.000Z</time>
      </trkpt>
      <trkpt lat="40.35838" lon="20.4285">
        <ele>1086.9100341797</ele>
        <time>2023-09-28T12:38:39.000Z</time>
      </trkpt>
      <trkpt lat="40.35839" lon="20.42861">
        <ele>1087.3900146484</ele>
        <time>2023-09-28T12:38:38.000Z</time>
      </trkpt>
      <trkpt lat="40.35839" lon="20.42871">
        <ele>1087.3900146484</ele>
        <time>2023-09-28T12:38:37.000Z</time>
      </trkpt>
      <trkpt lat="40.35837" lon="20.42881">
        <ele>1087.8699951172</ele>
        <time>2023-09-28T12:38:36.000Z</time>
      </trkpt>
      <trkpt lat="40.35837" lon="20.42891">
        <ele>1087.8699951172</ele>
        <time>2023-09-28T12:38:35.000Z</time>
      </trkpt>
      <trkpt lat="40.35838" lon="20.42901">
        <ele>1088.3499755859</ele>
        <time>2023-09-28T12:38:34.000Z</time>
      </trkpt>
      <trkpt lat="40.35839" lon="20.42905">
        <ele>1088.3499755859</ele>
        <time>2023-09-28T12:38:33.000Z</time>
      </trkpt>
      <trkpt lat="40.35844" lon="20.42919">
        <ele>1089.3100585938</ele>
        <time>2023-09-28T12:38:32.000Z</time>
      </trkpt>
      <trkpt lat="40.35847" lon="20.42928">
        <ele>1089.3100585938</ele>
        <time>2023-09-28T12:38:31.000Z</time>
      </trkpt>
      <trkpt lat="40.35848" lon="20.42934">
        <ele>1089.7900390625</ele>
        <time>2023-09-28T12:38:30.000Z</time>
      </trkpt>
      <trkpt lat="40.35847" lon="20.4294">
        <ele>1089.7900390625</ele>
        <time>2023-09-28T12:38:29.000Z</time>
      </trkpt>
      <trkpt lat="40.35845" lon="20.42945">
        <ele>1090.2700195312</ele>
        <time>2023-09-28T12:38:28.000Z</time>
      </trkpt>
      <trkpt lat="40.35843" lon="20.4295">
        <ele>1090.2700195312</ele>
        <time>2023-09-28T12:38:27.000Z</time>
      </trkpt>
      <trkpt lat="40.35838" lon="20.4296">
        <ele>1091.2299804688</ele>
        <time>2023-09-28T12:38:26.000Z</time>
      </trkpt>
      <trkpt lat="40.35835" lon="20.42965">
        <ele>1091.7099609375</ele>
        <time>2023-09-28T12:38:25.000Z</time>
      </trkpt>
      <trkpt lat="40.35833" lon="20.42968">
        <ele>1092.1999511719</ele>
        <time>2023-09-28T12:38:24.000Z</time>
      </trkpt>
      <trkpt lat="40.35828" lon="20.42969">
        <ele>1092.6800537109</ele>
        <time>2023-09-28T12:38:23.000Z</time>
      </trkpt>
      <trkpt lat="40.35824" lon="20.42969">
        <ele>1093.1600341797</ele>
        <time>2023-09-28T12:38:22.000Z</time>
      </trkpt>
      <trkpt lat="40.3582" lon="20.42966">
        <ele>1093.6400146484</ele>
        <time>2023-09-28T12:38:21.000Z</time>
      </trkpt>
      <trkpt lat="40.35818" lon="20.42963">
        <ele>1094.5999755859</ele>
        <time>2023-09-28T12:38:20.000Z</time>
      </trkpt>
      <trkpt lat="40.35813" lon="20.42954">
        <ele>1095.0799560547</ele>
        <time>2023-09-28T12:38:19.000Z</time>
      </trkpt>
      <trkpt lat="40.35809" lon="20.42949">
        <ele>1095.5600585938</ele>
        <time>2023-09-28T12:38:18.000Z</time>
      </trkpt>
      <trkpt lat="40.35803" lon="20.42944">
        <ele>1096.0400390625</ele>
        <time>2023-09-28T12:38:17.000Z</time>
      </trkpt>
      <trkpt lat="40.35798" lon="20.4294">
        <ele>1096.5200195312</ele>
        <time>2023-09-28T12:38:16.000Z</time>
      </trkpt>
      <trkpt lat="40.35793" lon="20.42939">
        <ele>1096.5200195312</ele>
        <time>2023-09-28T12:38:15.000Z</time>
      </trkpt>
      <trkpt lat="40.35788" lon="20.4294">
        <ele>1097</ele>
        <time>2023-09-28T12:38:14.000Z</time>
      </trkpt>
      <trkpt lat="40.35783" lon="20.42941">
        <ele>1097</ele>
        <time>2023-09-28T12:38:13.000Z</time>
      </trkpt>
      <trkpt lat="40.35778" lon="20.42943">
        <ele>1097.4799804688</ele>
        <time>2023-09-28T12:38:12.000Z</time>
      </trkpt>
      <trkpt lat="40.35773" lon="20.42942">
        <ele>1097.4799804688</ele>
        <time>2023-09-28T12:38:11.000Z</time>
      </trkpt>
      <trkpt lat="40.35769" lon="20.42941">
        <ele>1097.9599609375</ele>
        <time>2023-09-28T12:38:10.000Z</time>
      </trkpt>
      <trkpt lat="40.35759" lon="20.42937">
        <ele>1099.4000244141</ele>
        <time>2023-09-28T12:38:09.000Z</time>
      </trkpt>
      <trkpt lat="40.35752" lon="20.42935">
        <ele>1099.8900146484</ele>
        <time>2023-09-28T12:38:08.000Z</time>
      </trkpt>
      <trkpt lat="40.35748" lon="20.42936">
        <ele>1100.3699951172</ele>
        <time>2023-09-28T12:38:07.000Z</time>
      </trkpt>
      <trkpt lat="40.35742" lon="20.42941">
        <ele>1101.3299560547</ele>
        <time>2023-09-28T12:38:06.000Z</time>
      </trkpt>
      <trkpt lat="40.35739" lon="20.42947">
        <ele>1101.8100585938</ele>
        <time>2023-09-28T12:38:05.000Z</time>
      </trkpt>
      <trkpt lat="40.35735" lon="20.42956">
        <ele>1102.2900390625</ele>
        <time>2023-09-28T12:38:04.000Z</time>
      </trkpt>
      <trkpt lat="40.35732" lon="20.42965">
        <ele>1102.7700195312</ele>
        <time>2023-09-28T12:38:03.000Z</time>
      </trkpt>
      <trkpt lat="40.35729" lon="20.4297">
        <ele>1102.7700195312</ele>
        <time>2023-09-28T12:38:02.000Z</time>
      </trkpt>
      <trkpt lat="40.35725" lon="20.42973">
        <ele>1103.25</ele>
        <time>2023-09-28T12:38:01.000Z</time>
      </trkpt>
      <trkpt lat="40.35719" lon="20.42974">
        <ele>1103.7299804688</ele>
        <time>2023-09-28T12:38:00.000Z</time>
      </trkpt>
      <trkpt lat="40.35712" lon="20.42973">
        <ele>1104.2099609375</ele>
        <time>2023-09-28T12:37:59.000Z</time>
      </trkpt>
      <trkpt lat="40.35704" lon="20.42972">
        <ele>1105.1700439453</ele>
        <time>2023-09-28T12:37:58.000Z</time>
      </trkpt>
      <trkpt lat="40.35698" lon="20.42968">
        <ele>1106.1300048828</ele>
        <time>2023-09-28T12:37:57.000Z</time>
      </trkpt>
      <trkpt lat="40.35694" lon="20.42965">
        <ele>1107.0999755859</ele>
        <time>2023-09-28T12:37:56.000Z</time>
      </trkpt>
      <trkpt lat="40.35687" lon="20.42957">
        <ele>1108.5400390625</ele>
        <time>2023-09-28T12:37:55.000Z</time>
      </trkpt>
      <trkpt lat="40.35681" lon="20.42953">
        <ele>1108.5400390625</ele>
        <time>2023-09-28T12:37:54.000Z</time>
      </trkpt>
      <trkpt lat="40.35676" lon="20.42951">
        <ele>1109.0200195312</ele>
        <time>2023-09-28T12:37:53.000Z</time>
      </trkpt>
      <trkpt lat="40.35669" lon="20.4295">
        <ele>1109.5</ele>
        <time>2023-09-28T12:37:52.000Z</time>
      </trkpt>
      <trkpt lat="40.35663" lon="20.4295">
        <ele>1109.0200195312</ele>
        <time>2023-09-28T12:37:51.000Z</time>
      </trkpt>
      <trkpt lat="40.35662" lon="20.4295">
        <ele>1109.0200195312</ele>
        <time>2023-09-28T12:37:50.000Z</time>
      </trkpt>
      <trkpt lat="40.35656" lon="20.42957">
        <ele>1109.9799804688</ele>
        <time>2023-09-28T12:37:48.000Z</time>
      </trkpt>
      <trkpt lat="40.35656" lon="20.42966">
        <ele>1110.4599609375</ele>
        <time>2023-09-28T12:37:47.000Z</time>
      </trkpt>
      <trkpt lat="40.35657" lon="20.42971">
        <ele>1110.9399414062</ele>
        <time>2023-09-28T12:37:46.000Z</time>
      </trkpt>
      <trkpt lat="40.35659" lon="20.42979">
        <ele>1111.4200439453</ele>
        <time>2023-09-28T12:37:45.000Z</time>
      </trkpt>
      <trkpt lat="40.35662" lon="20.42994">
        <ele>1112.3800048828</ele>
        <time>2023-09-28T12:37:44.000Z</time>
      </trkpt>
      <trkpt lat="40.35664" lon="20.43004">
        <ele>1113.3399658203</ele>
        <time>2023-09-28T12:37:43.000Z</time>
      </trkpt>
      <trkpt lat="40.35665" lon="20.43013">
        <ele>1114.3100585938</ele>
        <time>2023-09-28T12:37:42.000Z</time>
      </trkpt>
      <trkpt lat="40.35667" lon="20.43019">
        <ele>1114.3100585938</ele>
        <time>2023-09-28T12:37:41.000Z</time>
      </trkpt>
      <trkpt lat="40.35669" lon="20.43023">
        <ele>1114.7900390625</ele>
        <time>2023-09-28T12:37:40.000Z</time>
      </trkpt>
      <trkpt lat="40.35672" lon="20.43028">
        <ele>1114.7900390625</ele>
        <time>2023-09-28T12:37:39.000Z</time>
      </trkpt>
      <trkpt lat="40.35673" lon="20.43046">
        <ele>1115.2700195312</ele>
        <time>2023-09-28T12:37:35.000Z</time>
      </trkpt>
      <trkpt lat="40.35669" lon="20.43052">
        <ele>1115.2700195312</ele>
        <time>2023-09-28T12:37:34.000Z</time>
      </trkpt>
      <trkpt lat="40.35666" lon="20.43056">
        <ele>1115.75</ele>
        <time>2023-09-28T12:37:33.000Z</time>
      </trkpt>
      <trkpt lat="40.35661" lon="20.43062">
        <ele>1115.75</ele>
        <time>2023-09-28T12:37:32.000Z</time>
      </trkpt>
      <trkpt lat="40.35656" lon="20.43066">
        <ele>1116.2299804688</ele>
        <time>2023-09-28T12:37:31.000Z</time>
      </trkpt>
      <trkpt lat="40.35652" lon="20.43067">
        <ele>1116.7099609375</ele>
        <time>2023-09-28T12:37:30.000Z</time>
      </trkpt>
      <trkpt lat="40.35646" lon="20.43066">
        <ele>1117.1899414062</ele>
        <time>2023-09-28T12:37:29.000Z</time>
      </trkpt>
      <trkpt lat="40.3564" lon="20.43063">
        <ele>1117.6700439453</ele>
        <time>2023-09-28T12:37:28.000Z</time>
      </trkpt>
      <trkpt lat="40.35635" lon="20.43061">
        <ele>1118.1500244141</ele>
        <time>2023-09-28T12:37:27.000Z</time>
      </trkpt>
      <trkpt lat="40.3563" lon="20.4306">
        <ele>1118.6300048828</ele>
        <time>2023-09-28T12:37:26.000Z</time>
      </trkpt>
      <trkpt lat="40.35625" lon="20.4306">
        <ele>1119.1099853516</ele>
        <time>2023-09-28T12:37:25.000Z</time>
      </trkpt>
      <trkpt lat="40.35621" lon="20.43062">
        <ele>1119.1099853516</ele>
        <time>2023-09-28T12:37:24.000Z</time>
      </trkpt>
      <trkpt lat="40.35617" lon="20.43066">
        <ele>1119.5899658203</ele>
        <time>2023-09-28T12:37:23.000Z</time>
      </trkpt>
      <trkpt lat="40.35614" lon="20.43072">
        <ele>1119.5899658203</ele>
        <time>2023-09-28T12:37:22.000Z</time>
      </trkpt>
      <trkpt lat="40.3561" lon="20.43079">
        <ele>1120.5500488281</ele>
        <time>2023-09-28T12:37:21.000Z</time>
      </trkpt>
      <trkpt lat="40.35607" lon="20.43083">
        <ele>1121.0300292969</ele>
        <time>2023-09-28T12:37:20.000Z</time>
      </trkpt>
      <trkpt lat="40.35603" lon="20.43085">
        <ele>1121.5200195312</ele>
        <time>2023-09-28T12:37:19.000Z</time>
      </trkpt>
      <trkpt lat="40.35598" lon="20.43085">
        <ele>1121.5200195312</ele>
        <time>2023-09-28T12:37:18.000Z</time>
      </trkpt>
      <trkpt lat="40.35592" lon="20.43087">
        <ele>1121.5200195312</ele>
        <time>2023-09-28T12:37:17.000Z</time>
      </trkpt>
      <trkpt lat="40.35588" lon="20.43091">
        <ele>1122</ele>
        <time>2023-09-28T12:37:16.000Z</time>
      </trkpt>
      <trkpt lat="40.35584" lon="20.43096">
        <ele>1122.4799804688</ele>
        <time>2023-09-28T12:37:15.000Z</time>
      </trkpt>
      <trkpt lat="40.35582" lon="20.43101">
        <ele>1122.9599609375</ele>
        <time>2023-09-28T12:37:14.000Z</time>
      </trkpt>
      <trkpt lat="40.3558" lon="20.43107">
        <ele>1123.4399414062</ele>
        <time>2023-09-28T12:37:13.000Z</time>
      </trkpt>
      <trkpt lat="40.35578" lon="20.43111">
        <ele>1123.4399414062</ele>
        <time>2023-09-28T12:37:12.000Z</time>
      </trkpt>
      <trkpt lat="40.35576" lon="20.43115">
        <ele>1123.9200439453</ele>
        <time>2023-09-28T12:37:11.000Z</time>
      </trkpt>
      <trkpt lat="40.35572" lon="20.43117">
        <ele>1124.4000244141</ele>
        <time>2023-09-28T12:37:10.000Z</time>
      </trkpt>
      <trkpt lat="40.35565" lon="20.43119">
        <ele>1124.4000244141</ele>
        <time>2023-09-28T12:37:09.000Z</time>
      </trkpt>
      <trkpt lat="40.35559" lon="20.4312">
        <ele>1124.4000244141</ele>
        <time>2023-09-28T12:37:08.000Z</time>
      </trkpt>
      <trkpt lat="40.35552" lon="20.4312">
        <ele>1124.8800048828</ele>
        <time>2023-09-28T12:37:07.000Z</time>
      </trkpt>
      <trkpt lat="40.35544" lon="20.43118">
        <ele>1125.3599853516</ele>
        <time>2023-09-28T12:37:06.000Z</time>
      </trkpt>
      <trkpt lat="40.35539" lon="20.43117">
        <ele>1125.8399658203</ele>
        <time>2023-09-28T12:37:05.000Z</time>
      </trkpt>
      <trkpt lat="40.35522" lon="20.43112">
        <ele>1127.2800292969</ele>
        <time>2023-09-28T12:37:03.000Z</time>
      </trkpt>
      <trkpt lat="40.35516" lon="20.43111">
        <ele>1127.7600097656</ele>
        <time>2023-09-28T12:37:02.000Z</time>
      </trkpt>
      <trkpt lat="40.35506" lon="20.43111">
        <ele>1128.2399902344</ele>
        <time>2023-09-28T12:37:01.000Z</time>
      </trkpt>
      <trkpt lat="40.35498" lon="20.43112">
        <ele>1128.7299804688</ele>
        <time>2023-09-28T12:37:00.000Z</time>
      </trkpt>
      <trkpt lat="40.3549" lon="20.43113">
        <ele>1129.2099609375</ele>
        <time>2023-09-28T12:36:59.000Z</time>
      </trkpt>
      <trkpt lat="40.35487" lon="20.43113">
        <ele>1129.6899414062</ele>
        <time>2023-09-28T12:36:58.000Z</time>
      </trkpt>
      <trkpt lat="40.3547" lon="20.43113">
        <ele>1130.6500244141</ele>
        <time>2023-09-28T12:36:57.000Z</time>
      </trkpt>
      <trkpt lat="40.35468" lon="20.43113">
        <ele>1131.1300048828</ele>
        <time>2023-09-28T12:36:56.000Z</time>
      </trkpt>
      <trkpt lat="40.35456" lon="20.43114">
        <ele>1131.6099853516</ele>
        <time>2023-09-28T12:36:55.000Z</time>
      </trkpt>
      <trkpt lat="40.3545" lon="20.43113">
        <ele>1132.0899658203</ele>
        <time>2023-09-28T12:36:54.000Z</time>
      </trkpt>
      <trkpt lat="40.35444" lon="20.4311">
        <ele>1132.5699462891</ele>
        <time>2023-09-28T12:36:53.000Z</time>
      </trkpt>
      <trkpt lat="40.35438" lon="20.43105">
        <ele>1132.5699462891</ele>
        <time>2023-09-28T12:36:52.000Z</time>
      </trkpt>
      <trkpt lat="40.35432" lon="20.43098">
        <ele>1133.0500488281</ele>
        <time>2023-09-28T12:36:51.000Z</time>
      </trkpt>
      <trkpt lat="40.3543" lon="20.43095">
        <ele>1133.5300292969</ele>
        <time>2023-09-28T12:36:50.000Z</time>
      </trkpt>
      <trkpt lat="40.35422" lon="20.43085">
        <ele>1134.4899902344</ele>
        <time>2023-09-28T12:36:49.000Z</time>
      </trkpt>
      <trkpt lat="40.35417" lon="20.43079">
        <ele>1135.4499511719</ele>
        <time>2023-09-28T12:36:48.000Z</time>
      </trkpt>
      <trkpt lat="40.35412" lon="20.43076">
        <ele>1135.9399414062</ele>
        <time>2023-09-28T12:36:47.000Z</time>
      </trkpt>
      <trkpt lat="40.35407" lon="20.43074">
        <ele>1136.4200439453</ele>
        <time>2023-09-28T12:36:46.000Z</time>
      </trkpt>
      <trkpt lat="40.35403" lon="20.43073">
        <ele>1136.4200439453</ele>
        <time>2023-09-28T12:36:45.000Z</time>
      </trkpt>
      <trkpt lat="40.35398" lon="20.43072">
        <ele>1136.4200439453</ele>
        <time>2023-09-28T12:36:44.000Z</time>
      </trkpt>
      <trkpt lat="40.35394" lon="20.43069">
        <ele>1136.9000244141</ele>
        <time>2023-09-28T12:36:43.000Z</time>
      </trkpt>
      <trkpt lat="40.3539" lon="20.43065">
        <ele>1137.3800048828</ele>
        <time>2023-09-28T12:36:42.000Z</time>
      </trkpt>
      <trkpt lat="40.35387" lon="20.43061">
        <ele>1138.3399658203</ele>
        <time>2023-09-28T12:36:41.000Z</time>
      </trkpt>
      <trkpt lat="40.35383" lon="20.43057">
        <ele>1138.8199462891</ele>
        <time>2023-09-28T12:36:40.000Z</time>
      </trkpt>
      <trkpt lat="40.35374" lon="20.43058">
        <ele>1139.3000488281</ele>
        <time>2023-09-28T12:36:37.000Z</time>
      </trkpt>
      <trkpt lat="40.35372" lon="20.43064">
        <ele>1139.3000488281</ele>
        <time>2023-09-28T12:36:36.000Z</time>
      </trkpt>
      <trkpt lat="40.35371" lon="20.43072">
        <ele>1139.7800292969</ele>
        <time>2023-09-28T12:36:35.000Z</time>
      </trkpt>
      <trkpt lat="40.3537" lon="20.43078">
        <ele>1139.3000488281</ele>
        <time>2023-09-28T12:36:34.000Z</time>
      </trkpt>
      <trkpt lat="40.3537" lon="20.43085">
        <ele>1139.3000488281</ele>
        <time>2023-09-28T12:36:33.000Z</time>
      </trkpt>
      <trkpt lat="40.35371" lon="20.43089">
        <ele>1139.3000488281</ele>
        <time>2023-09-28T12:36:32.000Z</time>
      </trkpt>
      <trkpt lat="40.35368" lon="20.431">
        <ele>1138.8199462891</ele>
        <time>2023-09-28T12:36:30.000Z</time>
      </trkpt>
      <trkpt lat="40.35365" lon="20.43104">
        <ele>1138.3399658203</ele>
        <time>2023-09-28T12:36:29.000Z</time>
      </trkpt>
      <trkpt lat="40.3536" lon="20.43106">
        <ele>1138.3399658203</ele>
        <time>2023-09-28T12:36:28.000Z</time>
      </trkpt>
      <trkpt lat="40.35359" lon="20.43106">
        <ele>1138.3399658203</ele>
        <time>2023-09-28T12:36:27.000Z</time>
      </trkpt>
      <trkpt lat="40.35346" lon="20.43109">
        <ele>1138.8199462891</ele>
        <time>2023-09-28T12:36:26.000Z</time>
      </trkpt>
      <trkpt lat="40.35338" lon="20.43112">
        <ele>1139.3000488281</ele>
        <time>2023-09-28T12:36:24.000Z</time>
      </trkpt>
      <trkpt lat="40.35325" lon="20.43117">
        <ele>1140.7399902344</ele>
        <time>2023-09-28T12:36:23.000Z</time>
      </trkpt>
      <trkpt lat="40.3532" lon="20.43119">
        <ele>1141.2199707031</ele>
        <time>2023-09-28T12:36:22.000Z</time>
      </trkpt>
      <trkpt lat="40.35314" lon="20.43118">
        <ele>1141.6999511719</ele>
        <time>2023-09-28T12:36:21.000Z</time>
      </trkpt>
      <trkpt lat="40.35309" lon="20.43116">
        <ele>1141.6999511719</ele>
        <time>2023-09-28T12:36:20.000Z</time>
      </trkpt>
      <trkpt lat="40.35305" lon="20.43111">
        <ele>1142.1800537109</ele>
        <time>2023-09-28T12:36:19.000Z</time>
      </trkpt>
      <trkpt lat="40.35303" lon="20.43108">
        <ele>1142.6600341797</ele>
        <time>2023-09-28T12:36:18.000Z</time>
      </trkpt>
      <trkpt lat="40.35299" lon="20.43101">
        <ele>1142.6600341797</ele>
        <time>2023-09-28T12:36:17.000Z</time>
      </trkpt>
      <trkpt lat="40.35294" lon="20.43097">
        <ele>1143.1400146484</ele>
        <time>2023-09-28T12:36:16.000Z</time>
      </trkpt>
      <trkpt lat="40.35289" lon="20.43094">
        <ele>1143.6300048828</ele>
        <time>2023-09-28T12:36:15.000Z</time>
      </trkpt>
      <trkpt lat="40.35287" lon="20.43094">
        <ele>1143.6300048828</ele>
        <time>2023-09-28T12:36:14.000Z</time>
      </trkpt>
      <trkpt lat="40.35279" lon="20.43091">
        <ele>1144.5899658203</ele>
        <time>2023-09-28T12:36:13.000Z</time>
      </trkpt>
      <trkpt lat="40.35265" lon="20.43087">
        <ele>1146.0300292969</ele>
        <time>2023-09-28T12:36:12.000Z</time>
      </trkpt>
      <trkpt lat="40.35258" lon="20.43085">
        <ele>1146.5100097656</ele>
        <time>2023-09-28T12:36:11.000Z</time>
      </trkpt>
      <trkpt lat="40.35249" lon="20.43081">
        <ele>1147.4699707031</ele>
        <time>2023-09-28T12:36:10.000Z</time>
      </trkpt>
      <trkpt lat="40.35243" lon="20.43077">
        <ele>1147.9499511719</ele>
        <time>2023-09-28T12:36:09.000Z</time>
      </trkpt>
      <trkpt lat="40.35239" lon="20.43075">
        <ele>1147.9499511719</ele>
        <time>2023-09-28T12:36:08.000Z</time>
      </trkpt>
      <trkpt lat="40.35228" lon="20.43066">
        <ele>1148.9100341797</ele>
        <time>2023-09-28T12:36:07.000Z</time>
      </trkpt>
      <trkpt lat="40.35221" lon="20.43063">
        <ele>1148.9100341797</ele>
        <time>2023-09-28T12:36:06.000Z</time>
      </trkpt>
      <trkpt lat="40.35214" lon="20.43061">
        <ele>1149.8699951172</ele>
        <time>2023-09-28T12:36:05.000Z</time>
      </trkpt>
      <trkpt lat="40.35207" lon="20.43062">
        <ele>1150.3499755859</ele>
        <time>2023-09-28T12:36:04.000Z</time>
      </trkpt>
      <trkpt lat="40.35201" lon="20.43063">
        <ele>1151.3199462891</ele>
        <time>2023-09-28T12:36:03.000Z</time>
      </trkpt>
      <trkpt lat="40.35193" lon="20.43064">
        <ele>1152.2800292969</ele>
        <time>2023-09-28T12:36:02.000Z</time>
      </trkpt>
      <trkpt lat="40.35185" lon="20.43064">
        <ele>1153.2399902344</ele>
        <time>2023-09-28T12:36:01.000Z</time>
      </trkpt>
      <trkpt lat="40.35177" lon="20.43064">
        <ele>1153.7199707031</ele>
        <time>2023-09-28T12:36:00.000Z</time>
      </trkpt>
      <trkpt lat="40.35175" lon="20.43064">
        <ele>1153.7199707031</ele>
        <time>2023-09-28T12:35:59.000Z</time>
      </trkpt>
      <trkpt lat="40.35163" lon="20.43064">
        <ele>1154.1999511719</ele>
        <time>2023-09-28T12:35:58.000Z</time>
      </trkpt>
      <trkpt lat="40.35152" lon="20.43064">
        <ele>1155.1600341797</ele>
        <time>2023-09-28T12:35:57.000Z</time>
      </trkpt>
      <trkpt lat="40.35144" lon="20.43064">
        <ele>1156.1199951172</ele>
        <time>2023-09-28T12:35:56.000Z</time>
      </trkpt>
      <trkpt lat="40.35136" lon="20.43063">
        <ele>1156.5999755859</ele>
        <time>2023-09-28T12:35:55.000Z</time>
      </trkpt>
      <trkpt lat="40.35131" lon="20.43063">
        <ele>1157.0799560547</ele>
        <time>2023-09-28T12:35:54.000Z</time>
      </trkpt>
      <trkpt lat="40.35124" lon="20.43065">
        <ele>1158.0500488281</ele>
        <time>2023-09-28T12:35:53.000Z</time>
      </trkpt>
      <trkpt lat="40.3512" lon="20.43066">
        <ele>1159.0100097656</ele>
        <time>2023-09-28T12:35:52.000Z</time>
      </trkpt>
      <trkpt lat="40.35116" lon="20.43066">
        <ele>1159.4899902344</ele>
        <time>2023-09-28T12:35:51.000Z</time>
      </trkpt>
      <trkpt lat="40.35111" lon="20.43064">
        <ele>1159.9699707031</ele>
        <time>2023-09-28T12:35:50.000Z</time>
      </trkpt>
      <trkpt lat="40.35108" lon="20.4306">
        <ele>1160.9300537109</ele>
        <time>2023-09-28T12:35:49.000Z</time>
      </trkpt>
      <trkpt lat="40.35105" lon="20.43057">
        <ele>1161.4100341797</ele>
        <time>2023-09-28T12:35:48.000Z</time>
      </trkpt>
      <trkpt lat="40.35101" lon="20.43051">
        <ele>1162.3699951172</ele>
        <time>2023-09-28T12:35:47.000Z</time>
      </trkpt>
      <trkpt lat="40.35099" lon="20.43046">
        <ele>1163.3299560547</ele>
        <time>2023-09-28T12:35:46.000Z</time>
      </trkpt>
      <trkpt lat="40.35098" lon="20.43043">
        <ele>1163.8100585938</ele>
        <time>2023-09-28T12:35:45.000Z</time>
      </trkpt>
      <trkpt lat="40.35095" lon="20.43035">
        <ele>1164.7700195312</ele>
        <time>2023-09-28T12:35:44.000Z</time>
      </trkpt>
      <trkpt lat="40.35093" lon="20.43029">
        <ele>1165.2600097656</ele>
        <time>2023-09-28T12:35:42.000Z</time>
      </trkpt>
      <trkpt lat="40.35081" lon="20.43011">
        <ele>1167.6600341797</ele>
        <time>2023-09-28T12:35:35.000Z</time>
      </trkpt>
      <trkpt lat="40.35069" lon="20.43034">
        <ele>1166.2199707031</ele>
        <time>2023-09-28T12:35:29.000Z</time>
      </trkpt>
      <trkpt lat="40.35065" lon="20.43036">
        <ele>1165.7399902344</ele>
        <time>2023-09-28T12:35:28.000Z</time>
      </trkpt>
      <trkpt lat="40.3506" lon="20.43036">
        <ele>1165.2600097656</ele>
        <time>2023-09-28T12:35:27.000Z</time>
      </trkpt>
      <trkpt lat="40.35052" lon="20.43036">
        <ele>1164.7700195312</ele>
        <time>2023-09-28T12:35:26.000Z</time>
      </trkpt>
      <trkpt lat="40.35047" lon="20.43035">
        <ele>1164.2900390625</ele>
        <time>2023-09-28T12:35:25.000Z</time>
      </trkpt>
      <trkpt lat="40.3503" lon="20.4303">
        <ele>1162.8499755859</ele>
        <time>2023-09-28T12:35:23.000Z</time>
      </trkpt>
      <trkpt lat="40.35025" lon="20.43027">
        <ele>1162.3699951172</ele>
        <time>2023-09-28T12:35:22.000Z</time>
      </trkpt>
      <trkpt lat="40.3502" lon="20.43022">
        <ele>1161.8900146484</ele>
        <time>2023-09-28T12:35:21.000Z</time>
      </trkpt>
      <trkpt lat="40.35017" lon="20.43018">
        <ele>1161.4100341797</ele>
        <time>2023-09-28T12:35:20.000Z</time>
      </trkpt>
      <trkpt lat="40.35012" lon="20.43011">
        <ele>1160.9300537109</ele>
        <time>2023-09-28T12:35:19.000Z</time>
      </trkpt>
      <trkpt lat="40.35006" lon="20.43007">
        <ele>1160.9300537109</ele>
        <time>2023-09-28T12:35:18.000Z</time>
      </trkpt>
      <trkpt lat="40.35" lon="20.43003">
        <ele>1160.9300537109</ele>
        <time>2023-09-28T12:35:17.000Z</time>
      </trkpt>
      <trkpt lat="40.34994" lon="20.43">
        <ele>1160.4499511719</ele>
        <time>2023-09-28T12:35:16.000Z</time>
      </trkpt>
      <trkpt lat="40.34989" lon="20.42996">
        <ele>1160.4499511719</ele>
        <time>2023-09-28T12:35:15.000Z</time>
      </trkpt>
      <trkpt lat="40.34982" lon="20.42989">
        <ele>1159.4899902344</ele>
        <time>2023-09-28T12:35:14.000Z</time>
      </trkpt>
      <trkpt lat="40.34978" lon="20.42986">
        <ele>1159.4899902344</ele>
        <time>2023-09-28T12:35:13.000Z</time>
      </trkpt>
      <trkpt lat="40.34969" lon="20.42978">
        <ele>1159.9699707031</ele>
        <time>2023-09-28T12:35:12.000Z</time>
      </trkpt>
      <trkpt lat="40.34962" lon="20.42973">
        <ele>1159.9699707031</ele>
        <time>2023-09-28T12:35:11.000Z</time>
      </trkpt>
      <trkpt lat="40.34955" lon="20.42968">
        <ele>1159.9699707031</ele>
        <time>2023-09-28T12:35:10.000Z</time>
      </trkpt>
      <trkpt lat="40.3495" lon="20.42965">
        <ele>1159.9699707031</ele>
        <time>2023-09-28T12:35:09.000Z</time>
      </trkpt>
      <trkpt lat="40.34945" lon="20.42964">
        <ele>1159.9699707031</ele>
        <time>2023-09-28T12:35:08.000Z</time>
      </trkpt>
      <trkpt lat="40.34941" lon="20.42964">
        <ele>1159.4899902344</ele>
        <time>2023-09-28T12:35:07.000Z</time>
      </trkpt>
      <trkpt lat="40.34936" lon="20.42965">
        <ele>1159.0100097656</ele>
        <time>2023-09-28T12:35:06.000Z</time>
      </trkpt>
      <trkpt lat="40.34932" lon="20.42968">
        <ele>1159.0100097656</ele>
        <time>2023-09-28T12:35:05.000Z</time>
      </trkpt>
      <trkpt lat="40.34927" lon="20.42974">
        <ele>1159.0100097656</ele>
        <time>2023-09-28T12:35:04.000Z</time>
      </trkpt>
      <trkpt lat="40.34924" lon="20.4298">
        <ele>1159.4899902344</ele>
        <time>2023-09-28T12:35:03.000Z</time>
      </trkpt>
      <trkpt lat="40.34919" lon="20.4299">
        <ele>1159.9699707031</ele>
        <time>2023-09-28T12:35:02.000Z</time>
      </trkpt>
      <trkpt lat="40.34917" lon="20.42994">
        <ele>1159.9699707031</ele>
        <time>2023-09-28T12:35:01.000Z</time>
      </trkpt>
      <trkpt lat="40.34912" lon="20.43003">
        <ele>1159.9699707031</ele>
        <time>2023-09-28T12:35:00.000Z</time>
      </trkpt>
      <trkpt lat="40.34908" lon="20.43009">
        <ele>1160.4499511719</ele>
        <time>2023-09-28T12:34:59.000Z</time>
      </trkpt>
      <trkpt lat="40.34904" lon="20.43014">
        <ele>1160.9300537109</ele>
        <time>2023-09-28T12:34:58.000Z</time>
      </trkpt>
      <trkpt lat="40.349" lon="20.43016">
        <ele>1161.4100341797</ele>
        <time>2023-09-28T12:34:57.000Z</time>
      </trkpt>
      <trkpt lat="40.34894" lon="20.43017">
        <ele>1161.4100341797</ele>
        <time>2023-09-28T12:34:56.000Z</time>
      </trkpt>
      <trkpt lat="40.34888" lon="20.43014">
        <ele>1161.8900146484</ele>
        <time>2023-09-28T12:34:55.000Z</time>
      </trkpt>
      <trkpt lat="40.34874" lon="20.43007">
        <ele>1163.3299560547</ele>
        <time>2023-09-28T12:34:53.000Z</time>
      </trkpt>
      <trkpt lat="40.34867" lon="20.43004">
        <ele>1164.2900390625</ele>
        <time>2023-09-28T12:34:52.000Z</time>
      </trkpt>
      <trkpt lat="40.34862" lon="20.43002">
        <ele>1164.7700195312</ele>
        <time>2023-09-28T12:34:51.000Z</time>
      </trkpt>
      <trkpt lat="40.34855" lon="20.43001">
        <ele>1165.2600097656</ele>
        <time>2023-09-28T12:34:50.000Z</time>
      </trkpt>
      <trkpt lat="40.34848" lon="20.43003">
        <ele>1165.2600097656</ele>
        <time>2023-09-28T12:34:49.000Z</time>
      </trkpt>
      <trkpt lat="40.34843" lon="20.43004">
        <ele>1165.7399902344</ele>
        <time>2023-09-28T12:34:48.000Z</time>
      </trkpt>
      <trkpt lat="40.34835" lon="20.43008">
        <ele>1166.2199707031</ele>
        <time>2023-09-28T12:34:47.000Z</time>
      </trkpt>
      <trkpt lat="40.34829" lon="20.4301">
        <ele>1166.6999511719</ele>
        <time>2023-09-28T12:34:46.000Z</time>
      </trkpt>
      <trkpt lat="40.34825" lon="20.43013">
        <ele>1167.1800537109</ele>
        <time>2023-09-28T12:34:45.000Z</time>
      </trkpt>
      <trkpt lat="40.34822" lon="20.43017">
        <ele>1167.1800537109</ele>
        <time>2023-09-28T12:34:44.000Z</time>
      </trkpt>
      <trkpt lat="40.34818" lon="20.43023">
        <ele>1167.1800537109</ele>
        <time>2023-09-28T12:34:43.000Z</time>
      </trkpt>
      <trkpt lat="40.34816" lon="20.43028">
        <ele>1167.1800537109</ele>
        <time>2023-09-28T12:34:42.000Z</time>
      </trkpt>
      <trkpt lat="40.34812" lon="20.43034">
        <ele>1167.1800537109</ele>
        <time>2023-09-28T12:34:41.000Z</time>
      </trkpt>
      <trkpt lat="40.34807" lon="20.4304">
        <ele>1167.6600341797</ele>
        <time>2023-09-28T12:34:40.000Z</time>
      </trkpt>
      <trkpt lat="40.34802" lon="20.43047">
        <ele>1167.6600341797</ele>
        <time>2023-09-28T12:34:39.000Z</time>
      </trkpt>
      <trkpt lat="40.34795" lon="20.43056">
        <ele>1168.6199951172</ele>
        <time>2023-09-28T12:34:38.000Z</time>
      </trkpt>
      <trkpt lat="40.34788" lon="20.43063">
        <ele>1169.0999755859</ele>
        <time>2023-09-28T12:34:37.000Z</time>
      </trkpt>
      <trkpt lat="40.34782" lon="20.43068">
        <ele>1170.0600585938</ele>
        <time>2023-09-28T12:34:36.000Z</time>
      </trkpt>
      <trkpt lat="40.34776" lon="20.43071">
        <ele>1171.0200195312</ele>
        <time>2023-09-28T12:34:35.000Z</time>
      </trkpt>
      <trkpt lat="40.3477" lon="20.43072">
        <ele>1171.5</ele>
        <time>2023-09-28T12:34:34.000Z</time>
      </trkpt>
      <trkpt lat="40.34765" lon="20.43071">
        <ele>1171.9799804688</ele>
        <time>2023-09-28T12:34:33.000Z</time>
      </trkpt>
      <trkpt lat="40.3476" lon="20.4307">
        <ele>1171.9799804688</ele>
        <time>2023-09-28T12:34:32.000Z</time>
      </trkpt>
      <trkpt lat="40.34755" lon="20.43071">
        <ele>1172.4699707031</ele>
        <time>2023-09-28T12:34:31.000Z</time>
      </trkpt>
      <trkpt lat="40.34752" lon="20.43075">
        <ele>1172.4699707031</ele>
        <time>2023-09-28T12:34:30.000Z</time>
      </trkpt>
      <trkpt lat="40.3475" lon="20.43078">
        <ele>1172.4699707031</ele>
        <time>2023-09-28T12:34:29.000Z</time>
      </trkpt>
      <trkpt lat="40.34744" lon="20.43087">
        <ele>1172.4699707031</ele>
        <time>2023-09-28T12:34:28.000Z</time>
      </trkpt>
      <trkpt lat="40.3474" lon="20.43091">
        <ele>1172.4699707031</ele>
        <time>2023-09-28T12:34:27.000Z</time>
      </trkpt>
      <trkpt lat="40.34736" lon="20.43094">
        <ele>1172.4699707031</ele>
        <time>2023-09-28T12:34:26.000Z</time>
      </trkpt>
      <trkpt lat="40.34732" lon="20.43095">
        <ele>1172.9499511719</ele>
        <time>2023-09-28T12:34:25.000Z</time>
      </trkpt>
      <trkpt lat="40.34727" lon="20.43093">
        <ele>1173.4300537109</ele>
        <time>2023-09-28T12:34:24.000Z</time>
      </trkpt>
      <trkpt lat="40.34723" lon="20.43091">
        <ele>1173.9100341797</ele>
        <time>2023-09-28T12:34:23.000Z</time>
      </trkpt>
      <trkpt lat="40.34718" lon="20.43088">
        <ele>1174.3900146484</ele>
        <time>2023-09-28T12:34:22.000Z</time>
      </trkpt>
      <trkpt lat="40.34714" lon="20.43088">
        <ele>1174.8699951172</ele>
        <time>2023-09-28T12:34:21.000Z</time>
      </trkpt>
      <trkpt lat="40.3471" lon="20.43089">
        <ele>1175.3499755859</ele>
        <time>2023-09-28T12:34:20.000Z</time>
      </trkpt>
      <trkpt lat="40.34707" lon="20.43093">
        <ele>1174.8699951172</ele>
        <time>2023-09-28T12:34:19.000Z</time>
      </trkpt>
      <trkpt lat="40.34704" lon="20.43097">
        <ele>1174.8699951172</ele>
        <time>2023-09-28T12:34:18.000Z</time>
      </trkpt>
      <trkpt lat="40.34704" lon="20.43099">
        <ele>1174.8699951172</ele>
        <time>2023-09-28T12:34:17.000Z</time>
      </trkpt>
      <trkpt lat="40.347" lon="20.43109">
        <ele>1173.9100341797</ele>
        <time>2023-09-28T12:34:16.000Z</time>
      </trkpt>
      <trkpt lat="40.34698" lon="20.43115">
        <ele>1173.4300537109</ele>
        <time>2023-09-28T12:34:15.000Z</time>
      </trkpt>
      <trkpt lat="40.34696" lon="20.43119">
        <ele>1172.9499511719</ele>
        <time>2023-09-28T12:34:14.000Z</time>
      </trkpt>
      <trkpt lat="40.34692" lon="20.43123">
        <ele>1172.4699707031</ele>
        <time>2023-09-28T12:34:13.000Z</time>
      </trkpt>
      <trkpt lat="40.34688" lon="20.43126">
        <ele>1171.9799804688</ele>
        <time>2023-09-28T12:34:12.000Z</time>
      </trkpt>
      <trkpt lat="40.34685" lon="20.43128">
        <ele>1171.5</ele>
        <time>2023-09-28T12:34:11.000Z</time>
      </trkpt>
      <trkpt lat="40.34677" lon="20.4313">
        <ele>1171.0200195312</ele>
        <time>2023-09-28T12:34:10.000Z</time>
      </trkpt>
      <trkpt lat="40.34673" lon="20.43133">
        <ele>1170.5400390625</ele>
        <time>2023-09-28T12:34:09.000Z</time>
      </trkpt>
      <trkpt lat="40.3467" lon="20.43136">
        <ele>1170.0600585938</ele>
        <time>2023-09-28T12:34:08.000Z</time>
      </trkpt>
      <trkpt lat="40.34669" lon="20.43142">
        <ele>1169.0999755859</ele>
        <time>2023-09-28T12:34:07.000Z</time>
      </trkpt>
      <trkpt lat="40.34669" lon="20.43149">
        <ele>1168.6199951172</ele>
        <time>2023-09-28T12:34:06.000Z</time>
      </trkpt>
      <trkpt lat="40.34669" lon="20.43156">
        <ele>1167.6600341797</ele>
        <time>2023-09-28T12:34:05.000Z</time>
      </trkpt>
      <trkpt lat="40.34669" lon="20.43163">
        <ele>1167.1800537109</ele>
        <time>2023-09-28T12:34:04.000Z</time>
      </trkpt>
      <trkpt lat="40.34668" lon="20.43172">
        <ele>1166.2199707031</ele>
        <time>2023-09-28T12:34:03.000Z</time>
      </trkpt>
      <trkpt lat="40.34667" lon="20.43175">
        <ele>1165.7399902344</ele>
        <time>2023-09-28T12:34:02.000Z</time>
      </trkpt>
      <trkpt lat="40.34665" lon="20.43181">
        <ele>1165.2600097656</ele>
        <time>2023-09-28T12:34:01.000Z</time>
      </trkpt>
      <trkpt lat="40.34654" lon="20.43203">
        <ele>1163.3299560547</ele>
        <time>2023-09-28T12:33:58.000Z</time>
      </trkpt>
      <trkpt lat="40.34651" lon="20.43212">
        <ele>1162.3699951172</ele>
        <time>2023-09-28T12:33:57.000Z</time>
      </trkpt>
      <trkpt lat="40.34648" lon="20.43221">
        <ele>1161.8900146484</ele>
        <time>2023-09-28T12:33:56.000Z</time>
      </trkpt>
      <trkpt lat="40.34647" lon="20.43229">
        <ele>1161.4100341797</ele>
        <time>2023-09-28T12:33:55.000Z</time>
      </trkpt>
      <trkpt lat="40.34646" lon="20.43237">
        <ele>1160.9300537109</ele>
        <time>2023-09-28T12:33:54.000Z</time>
      </trkpt>
      <trkpt lat="40.34645" lon="20.43245">
        <ele>1160.4499511719</ele>
        <time>2023-09-28T12:33:53.000Z</time>
      </trkpt>
      <trkpt lat="40.34644" lon="20.43252">
        <ele>1159.9699707031</ele>
        <time>2023-09-28T12:33:52.000Z</time>
      </trkpt>
      <trkpt lat="40.34642" lon="20.43257">
        <ele>1159.9699707031</ele>
        <time>2023-09-28T12:33:51.000Z</time>
      </trkpt>
      <trkpt lat="40.3464" lon="20.43263">
        <ele>1159.4899902344</ele>
        <time>2023-09-28T12:33:50.000Z</time>
      </trkpt>
      <trkpt lat="40.34636" lon="20.43269">
        <ele>1159.0100097656</ele>
        <time>2023-09-28T12:33:49.000Z</time>
      </trkpt>
      <trkpt lat="40.34631" lon="20.43275">
        <ele>1158.0500488281</ele>
        <time>2023-09-28T12:33:48.000Z</time>
      </trkpt>
      <trkpt lat="40.34626" lon="20.43279">
        <ele>1156.5999755859</ele>
        <time>2023-09-28T12:33:47.000Z</time>
      </trkpt>
      <trkpt lat="40.34621" lon="20.43281">
        <ele>1156.1199951172</ele>
        <time>2023-09-28T12:33:46.000Z</time>
      </trkpt>
      <trkpt lat="40.34617" lon="20.43282">
        <ele>1155.6400146484</ele>
        <time>2023-09-28T12:33:45.000Z</time>
      </trkpt>
      <trkpt lat="40.34603" lon="20.43288">
        <ele>1154.1999511719</ele>
        <time>2023-09-28T12:33:44.000Z</time>
      </trkpt>
      <trkpt lat="40.34596" lon="20.43291">
        <ele>1154.1999511719</ele>
        <time>2023-09-28T12:33:43.000Z</time>
      </trkpt>
      <trkpt lat="40.34589" lon="20.43297">
        <ele>1153.2399902344</ele>
        <time>2023-09-28T12:33:42.000Z</time>
      </trkpt>
      <trkpt lat="40.34585" lon="20.43302">
        <ele>1152.2800292969</ele>
        <time>2023-09-28T12:33:41.000Z</time>
      </trkpt>
      <trkpt lat="40.34579" lon="20.43311">
        <ele>1151.3199462891</ele>
        <time>2023-09-28T12:33:40.000Z</time>
      </trkpt>
      <trkpt lat="40.34576" lon="20.43316">
        <ele>1150.3499755859</ele>
        <time>2023-09-28T12:33:39.000Z</time>
      </trkpt>
      <trkpt lat="40.34567" lon="20.43337">
        <ele>1148.4300537109</ele>
        <time>2023-09-28T12:33:37.000Z</time>
      </trkpt>
      <trkpt lat="40.34563" lon="20.43343">
        <ele>1147.4699707031</ele>
        <time>2023-09-28T12:33:36.000Z</time>
      </trkpt>
      <trkpt lat="40.34558" lon="20.43348">
        <ele>1146.5100097656</ele>
        <time>2023-09-28T12:33:35.000Z</time>
      </trkpt>
      <trkpt lat="40.34553" lon="20.43352">
        <ele>1145.5500488281</ele>
        <time>2023-09-28T12:33:34.000Z</time>
      </trkpt>
      <trkpt lat="40.34547" lon="20.43355">
        <ele>1145.0699462891</ele>
        <time>2023-09-28T12:33:33.000Z</time>
      </trkpt>
      <trkpt lat="40.34542" lon="20.43357">
        <ele>1144.1099853516</ele>
        <time>2023-09-28T12:33:32.000Z</time>
      </trkpt>
      <trkpt lat="40.34533" lon="20.43361">
        <ele>1142.6600341797</ele>
        <time>2023-09-28T12:33:31.000Z</time>
      </trkpt>
      <trkpt lat="40.34525" lon="20.43365">
        <ele>1141.6999511719</ele>
        <time>2023-09-28T12:33:30.000Z</time>
      </trkpt>
      <trkpt lat="40.34517" lon="20.43371">
        <ele>1140.2600097656</ele>
        <time>2023-09-28T12:33:29.000Z</time>
      </trkpt>
      <trkpt lat="40.34508" lon="20.43376">
        <ele>1138.8199462891</ele>
        <time>2023-09-28T12:33:28.000Z</time>
      </trkpt>
      <trkpt lat="40.34506" lon="20.43377">
        <ele>1138.3399658203</ele>
        <time>2023-09-28T12:33:27.000Z</time>
      </trkpt>
      <trkpt lat="40.3449" lon="20.43383">
        <ele>1137.3800048828</ele>
        <time>2023-09-28T12:33:26.000Z</time>
      </trkpt>
      <trkpt lat="40.34482" lon="20.43387">
        <ele>1136.4200439453</ele>
        <time>2023-09-28T12:33:25.000Z</time>
      </trkpt>
      <trkpt lat="40.34473" lon="20.43394">
        <ele>1135.9399414062</ele>
        <time>2023-09-28T12:33:24.000Z</time>
      </trkpt>
      <trkpt lat="40.34468" lon="20.43398">
        <ele>1135.4499511719</ele>
        <time>2023-09-28T12:33:23.000Z</time>
      </trkpt>
      <trkpt lat="40.34459" lon="20.43404">
        <ele>1134.9699707031</ele>
        <time>2023-09-28T12:33:22.000Z</time>
      </trkpt>
      <trkpt lat="40.34452" lon="20.43407">
        <ele>1134.0100097656</ele>
        <time>2023-09-28T12:33:21.000Z</time>
      </trkpt>
      <trkpt lat="40.34442" lon="20.4341">
        <ele>1133.0500488281</ele>
        <time>2023-09-28T12:33:20.000Z</time>
      </trkpt>
      <trkpt lat="40.34437" lon="20.43411">
        <ele>1131.6099853516</ele>
        <time>2023-09-28T12:33:19.000Z</time>
      </trkpt>
      <trkpt lat="40.34431" lon="20.43411">
        <ele>1131.1300048828</ele>
        <time>2023-09-28T12:33:18.000Z</time>
      </trkpt>
      <trkpt lat="40.34426" lon="20.43413">
        <ele>1130.1700439453</ele>
        <time>2023-09-28T12:33:17.000Z</time>
      </trkpt>
      <trkpt lat="40.34423" lon="20.43417">
        <ele>1129.6899414062</ele>
        <time>2023-09-28T12:33:16.000Z</time>
      </trkpt>
      <trkpt lat="40.34421" lon="20.43423">
        <ele>1129.2099609375</ele>
        <time>2023-09-28T12:33:15.000Z</time>
      </trkpt>
      <trkpt lat="40.34422" lon="20.43428">
        <ele>1129.2099609375</ele>
        <time>2023-09-28T12:33:14.000Z</time>
      </trkpt>
      <trkpt lat="40.34425" lon="20.43438">
        <ele>1128.7299804688</ele>
        <time>2023-09-28T12:33:13.000Z</time>
      </trkpt>
      <trkpt lat="40.34426" lon="20.43447">
        <ele>1128.2399902344</ele>
        <time>2023-09-28T12:33:12.000Z</time>
      </trkpt>
      <trkpt lat="40.34426" lon="20.43455">
        <ele>1127.7600097656</ele>
        <time>2023-09-28T12:33:11.000Z</time>
      </trkpt>
      <trkpt lat="40.34425" lon="20.43463">
        <ele>1127.2800292969</ele>
        <time>2023-09-28T12:33:10.000Z</time>
      </trkpt>
      <trkpt lat="40.34421" lon="20.43468">
        <ele>1127.2800292969</ele>
        <time>2023-09-28T12:33:09.000Z</time>
      </trkpt>
      <trkpt lat="40.34415" lon="20.43472">
        <ele>1126.8000488281</ele>
        <time>2023-09-28T12:33:08.000Z</time>
      </trkpt>
      <trkpt lat="40.3441" lon="20.43475">
        <ele>1126.8000488281</ele>
        <time>2023-09-28T12:33:07.000Z</time>
      </trkpt>
      <trkpt lat="40.34403" lon="20.4348">
        <ele>1125.8399658203</ele>
        <time>2023-09-28T12:33:06.000Z</time>
      </trkpt>
      <trkpt lat="40.34398" lon="20.43485">
        <ele>1125.8399658203</ele>
        <time>2023-09-28T12:33:05.000Z</time>
      </trkpt>
      <trkpt lat="40.34395" lon="20.43492">
        <ele>1125.3599853516</ele>
        <time>2023-09-28T12:33:04.000Z</time>
      </trkpt>
      <trkpt lat="40.34393" lon="20.43501">
        <ele>1125.3599853516</ele>
        <time>2023-09-28T12:33:03.000Z</time>
      </trkpt>
      <trkpt lat="40.34392" lon="20.43509">
        <ele>1124.8800048828</ele>
        <time>2023-09-28T12:33:02.000Z</time>
      </trkpt>
      <trkpt lat="40.34391" lon="20.43522">
        <ele>1124.4000244141</ele>
        <time>2023-09-28T12:33:01.000Z</time>
      </trkpt>
      <trkpt lat="40.34392" lon="20.43528">
        <ele>1124.4000244141</ele>
        <time>2023-09-28T12:33:00.000Z</time>
      </trkpt>
      <trkpt lat="40.34393" lon="20.43547">
        <ele>1123.9200439453</ele>
        <time>2023-09-28T12:32:59.000Z</time>
      </trkpt>
      <trkpt lat="40.34393" lon="20.43561">
        <ele>1123.4399414062</ele>
        <time>2023-09-28T12:32:58.000Z</time>
      </trkpt>
      <trkpt lat="40.34393" lon="20.43566">
        <ele>1122.9599609375</ele>
        <time>2023-09-28T12:32:57.000Z</time>
      </trkpt>
      <trkpt lat="40.34391" lon="20.43581">
        <ele>1121.5200195312</ele>
        <time>2023-09-28T12:32:56.000Z</time>
      </trkpt>
      <trkpt lat="40.34391" lon="20.4359">
        <ele>1121.0300292969</ele>
        <time>2023-09-28T12:32:55.000Z</time>
      </trkpt>
      <trkpt lat="40.34394" lon="20.43599">
        <ele>1120.5500488281</ele>
        <time>2023-09-28T12:32:54.000Z</time>
      </trkpt>
      <trkpt lat="40.34398" lon="20.43606">
        <ele>1119.5899658203</ele>
        <time>2023-09-28T12:32:53.000Z</time>
      </trkpt>
      <trkpt lat="40.34403" lon="20.43612">
        <ele>1119.1099853516</ele>
        <time>2023-09-28T12:32:52.000Z</time>
      </trkpt>
      <trkpt lat="40.3441" lon="20.43617">
        <ele>1118.6300048828</ele>
        <time>2023-09-28T12:32:51.000Z</time>
      </trkpt>
      <trkpt lat="40.34414" lon="20.4362">
        <ele>1118.1500244141</ele>
        <time>2023-09-28T12:32:50.000Z</time>
      </trkpt>
      <trkpt lat="40.34418" lon="20.43625">
        <ele>1117.1899414062</ele>
        <time>2023-09-28T12:32:49.000Z</time>
      </trkpt>
      <trkpt lat="40.34417" lon="20.43639">
        <ele>1116.2299804688</ele>
        <time>2023-09-28T12:32:46.000Z</time>
      </trkpt>
      <trkpt lat="40.34414" lon="20.43643">
        <ele>1115.75</ele>
        <time>2023-09-28T12:32:45.000Z</time>
      </trkpt>
      <trkpt lat="40.34409" lon="20.43644">
        <ele>1115.2700195312</ele>
        <time>2023-09-28T12:32:44.000Z</time>
      </trkpt>
      <trkpt lat="40.34403" lon="20.43642">
        <ele>1115.2700195312</ele>
        <time>2023-09-28T12:32:43.000Z</time>
      </trkpt>
      <trkpt lat="40.34397" lon="20.4364">
        <ele>1114.3100585938</ele>
        <time>2023-09-28T12:32:42.000Z</time>
      </trkpt>
      <trkpt lat="40.34395" lon="20.43638">
        <ele>1114.3100585938</ele>
        <time>2023-09-28T12:32:41.000Z</time>
      </trkpt>
      <trkpt lat="40.34384" lon="20.43631">
        <ele>1113.3399658203</ele>
        <time>2023-09-28T12:32:40.000Z</time>
      </trkpt>
      <trkpt lat="40.3438" lon="20.43627">
        <ele>1112.8599853516</ele>
        <time>2023-09-28T12:32:39.000Z</time>
      </trkpt>
      <trkpt lat="40.34372" lon="20.43621">
        <ele>1111.9000244141</ele>
        <time>2023-09-28T12:32:38.000Z</time>
      </trkpt>
      <trkpt lat="40.34367" lon="20.43618">
        <ele>1112.3800048828</ele>
        <time>2023-09-28T12:32:37.000Z</time>
      </trkpt>
      <trkpt lat="40.34358" lon="20.43622">
        <ele>1110.9399414062</ele>
        <time>2023-09-28T12:32:34.000Z</time>
      </trkpt>
      <trkpt lat="40.34357" lon="20.43627">
        <ele>1111.4200439453</ele>
        <time>2023-09-28T12:32:33.000Z</time>
      </trkpt>
      <trkpt lat="40.34357" lon="20.4363">
        <ele>1110.9399414062</ele>
        <time>2023-09-28T12:32:32.000Z</time>
      </trkpt>
      <trkpt lat="40.34359" lon="20.43639">
        <ele>1110.4599609375</ele>
        <time>2023-09-28T12:32:31.000Z</time>
      </trkpt>
      <trkpt lat="40.34361" lon="20.4365">
        <ele>1109.9799804688</ele>
        <time>2023-09-28T12:32:30.000Z</time>
      </trkpt>
      <trkpt lat="40.34363" lon="20.43662">
        <ele>1108.5400390625</ele>
        <time>2023-09-28T12:32:29.000Z</time>
      </trkpt>
      <trkpt lat="40.34365" lon="20.43676">
        <ele>1108.0600585938</ele>
        <time>2023-09-28T12:32:28.000Z</time>
      </trkpt>
      <trkpt lat="40.34366" lon="20.43683">
        <ele>1107.5799560547</ele>
        <time>2023-09-28T12:32:27.000Z</time>
      </trkpt>
      <trkpt lat="40.34367" lon="20.43696">
        <ele>1106.6099853516</ele>
        <time>2023-09-28T12:32:26.000Z</time>
      </trkpt>
      <trkpt lat="40.34368" lon="20.43703">
        <ele>1106.6099853516</ele>
        <time>2023-09-28T12:32:25.000Z</time>
      </trkpt>
      <trkpt lat="40.34367" lon="20.43709">
        <ele>1106.1300048828</ele>
        <time>2023-09-28T12:32:24.000Z</time>
      </trkpt>
      <trkpt lat="40.34365" lon="20.43718">
        <ele>1104.6899414062</ele>
        <time>2023-09-28T12:32:23.000Z</time>
      </trkpt>
      <trkpt lat="40.34365" lon="20.43726">
        <ele>1103.7299804688</ele>
        <time>2023-09-28T12:32:22.000Z</time>
      </trkpt>
      <trkpt lat="40.34367" lon="20.43734">
        <ele>1103.25</ele>
        <time>2023-09-28T12:32:21.000Z</time>
      </trkpt>
      <trkpt lat="40.34371" lon="20.43743">
        <ele>1103.25</ele>
        <time>2023-09-28T12:32:20.000Z</time>
      </trkpt>
      <trkpt lat="40.3438" lon="20.43762">
        <ele>1102.2900390625</ele>
        <time>2023-09-28T12:32:18.000Z</time>
      </trkpt>
      <trkpt lat="40.34384" lon="20.43773">
        <ele>1102.2900390625</ele>
        <time>2023-09-28T12:32:17.000Z</time>
      </trkpt>
      <trkpt lat="40.34386" lon="20.43776">
        <ele>1101.8100585938</ele>
        <time>2023-09-28T12:32:16.000Z</time>
      </trkpt>
      <trkpt lat="40.34394" lon="20.43789">
        <ele>1101.8100585938</ele>
        <time>2023-09-28T12:32:15.000Z</time>
      </trkpt>
      <trkpt lat="40.34398" lon="20.43798">
        <ele>1101.3299560547</ele>
        <time>2023-09-28T12:32:14.000Z</time>
      </trkpt>
      <trkpt lat="40.34406" lon="20.43813">
        <ele>1101.3299560547</ele>
        <time>2023-09-28T12:32:12.000Z</time>
      </trkpt>
      <trkpt lat="40.34409" lon="20.43819">
        <ele>1101.3299560547</ele>
        <time>2023-09-28T12:32:11.000Z</time>
      </trkpt>
      <trkpt lat="40.34414" lon="20.43829">
        <ele>1101.8100585938</ele>
        <time>2023-09-28T12:32:10.000Z</time>
      </trkpt>
      <trkpt lat="40.34418" lon="20.43838">
        <ele>1102.2900390625</ele>
        <time>2023-09-28T12:32:09.000Z</time>
      </trkpt>
      <trkpt lat="40.34421" lon="20.43847">
        <ele>1102.2900390625</ele>
        <time>2023-09-28T12:32:08.000Z</time>
      </trkpt>
      <trkpt lat="40.34424" lon="20.43859">
        <ele>1102.7700195312</ele>
        <time>2023-09-28T12:32:07.000Z</time>
      </trkpt>
      <trkpt lat="40.34426" lon="20.43869">
        <ele>1103.25</ele>
        <time>2023-09-28T12:32:06.000Z</time>
      </trkpt>
      <trkpt lat="40.34426" lon="20.43882">
        <ele>1103.7299804688</ele>
        <time>2023-09-28T12:32:05.000Z</time>
      </trkpt>
      <trkpt lat="40.34426" lon="20.43888">
        <ele>1103.7299804688</ele>
        <time>2023-09-28T12:32:04.000Z</time>
      </trkpt>
      <trkpt lat="40.34426" lon="20.43898">
        <ele>1104.2099609375</ele>
        <time>2023-09-28T12:32:03.000Z</time>
      </trkpt>
      <trkpt lat="40.34424" lon="20.4391">
        <ele>1104.2099609375</ele>
        <time>2023-09-28T12:32:02.000Z</time>
      </trkpt>
      <trkpt lat="40.34423" lon="20.4392">
        <ele>1104.6899414062</ele>
        <time>2023-09-28T12:32:01.000Z</time>
      </trkpt>
      <trkpt lat="40.34422" lon="20.43927">
        <ele>1104.6899414062</ele>
        <time>2023-09-28T12:32:00.000Z</time>
      </trkpt>
      <trkpt lat="40.34423" lon="20.43933">
        <ele>1105.1700439453</ele>
        <time>2023-09-28T12:31:59.000Z</time>
      </trkpt>
      <trkpt lat="40.34425" lon="20.43943">
        <ele>1104.6899414062</ele>
        <time>2023-09-28T12:31:58.000Z</time>
      </trkpt>
      <trkpt lat="40.34425" lon="20.43952">
        <ele>1104.6899414062</ele>
        <time>2023-09-28T12:31:57.000Z</time>
      </trkpt>
      <trkpt lat="40.34423" lon="20.43963">
        <ele>1104.2099609375</ele>
        <time>2023-09-28T12:31:56.000Z</time>
      </trkpt>
      <trkpt lat="40.34422" lon="20.43971">
        <ele>1104.2099609375</ele>
        <time>2023-09-28T12:31:55.000Z</time>
      </trkpt>
      <trkpt lat="40.34422" lon="20.43979">
        <ele>1105.1700439453</ele>
        <time>2023-09-28T12:31:54.000Z</time>
      </trkpt>
      <trkpt lat="40.34421" lon="20.43988">
        <ele>1105.1700439453</ele>
        <time>2023-09-28T12:31:53.000Z</time>
      </trkpt>
      <trkpt lat="40.3442" lon="20.43994">
        <ele>1105.6500244141</ele>
        <time>2023-09-28T12:31:52.000Z</time>
      </trkpt>
      <trkpt lat="40.34417" lon="20.44002">
        <ele>1106.1300048828</ele>
        <time>2023-09-28T12:31:51.000Z</time>
      </trkpt>
      <trkpt lat="40.34413" lon="20.4401">
        <ele>1106.6099853516</ele>
        <time>2023-09-28T12:31:50.000Z</time>
      </trkpt>
      <trkpt lat="40.34411" lon="20.44016">
        <ele>1106.6099853516</ele>
        <time>2023-09-28T12:31:49.000Z</time>
      </trkpt>
      <trkpt lat="40.34407" lon="20.44023">
        <ele>1107.0999755859</ele>
        <time>2023-09-28T12:31:48.000Z</time>
      </trkpt>
      <trkpt lat="40.34399" lon="20.44046">
        <ele>1107.5799560547</ele>
        <time>2023-09-28T12:31:47.000Z</time>
      </trkpt>
      <trkpt lat="40.34394" lon="20.44057">
        <ele>1107.0999755859</ele>
        <time>2023-09-28T12:31:46.000Z</time>
      </trkpt>
      <trkpt lat="40.3439" lon="20.44068">
        <ele>1107.0999755859</ele>
        <time>2023-09-28T12:31:45.000Z</time>
      </trkpt>
      <trkpt lat="40.34387" lon="20.4408">
        <ele>1106.1300048828</ele>
        <time>2023-09-28T12:31:44.000Z</time>
      </trkpt>
      <trkpt lat="40.34384" lon="20.44091">
        <ele>1105.6500244141</ele>
        <time>2023-09-28T12:31:43.000Z</time>
      </trkpt>
      <trkpt lat="40.34379" lon="20.44101">
        <ele>1105.6500244141</ele>
        <time>2023-09-28T12:31:42.000Z</time>
      </trkpt>
      <trkpt lat="40.34374" lon="20.44108">
        <ele>1105.1700439453</ele>
        <time>2023-09-28T12:31:41.000Z</time>
      </trkpt>
      <trkpt lat="40.34367" lon="20.44114">
        <ele>1104.2099609375</ele>
        <time>2023-09-28T12:31:40.000Z</time>
      </trkpt>
      <trkpt lat="40.3436" lon="20.44119">
        <ele>1102.7700195312</ele>
        <time>2023-09-28T12:31:39.000Z</time>
      </trkpt>
      <trkpt lat="40.34353" lon="20.44122">
        <ele>1101.8100585938</ele>
        <time>2023-09-28T12:31:38.000Z</time>
      </trkpt>
      <trkpt lat="40.34348" lon="20.44123">
        <ele>1100.8499755859</ele>
        <time>2023-09-28T12:31:37.000Z</time>
      </trkpt>
      <trkpt lat="40.34335" lon="20.44126">
        <ele>1099.4000244141</ele>
        <time>2023-09-28T12:31:36.000Z</time>
      </trkpt>
      <trkpt lat="40.34328" lon="20.4413">
        <ele>1099.8900146484</ele>
        <time>2023-09-28T12:31:35.000Z</time>
      </trkpt>
      <trkpt lat="40.3432" lon="20.44135">
        <ele>1099.8900146484</ele>
        <time>2023-09-28T12:31:34.000Z</time>
      </trkpt>
      <trkpt lat="40.34313" lon="20.44143">
        <ele>1100.3699951172</ele>
        <time>2023-09-28T12:31:33.000Z</time>
      </trkpt>
      <trkpt lat="40.3431" lon="20.44147">
        <ele>1100.3699951172</ele>
        <time>2023-09-28T12:31:32.000Z</time>
      </trkpt>
      <trkpt lat="40.34303" lon="20.44156">
        <ele>1100.8499755859</ele>
        <time>2023-09-28T12:31:31.000Z</time>
      </trkpt>
      <trkpt lat="40.34295" lon="20.4417">
        <ele>1100.8499755859</ele>
        <time>2023-09-28T12:31:30.000Z</time>
      </trkpt>
      <trkpt lat="40.34289" lon="20.44181">
        <ele>1101.3299560547</ele>
        <time>2023-09-28T12:31:29.000Z</time>
      </trkpt>
      <trkpt lat="40.34284" lon="20.44191">
        <ele>1101.3299560547</ele>
        <time>2023-09-28T12:31:28.000Z</time>
      </trkpt>
      <trkpt lat="40.34282" lon="20.44195">
        <ele>1101.3299560547</ele>
        <time>2023-09-28T12:31:27.000Z</time>
      </trkpt>
      <trkpt lat="40.34275" lon="20.44209">
        <ele>1101.8100585938</ele>
        <time>2023-09-28T12:31:26.000Z</time>
      </trkpt>
      <trkpt lat="40.34273" lon="20.44218">
        <ele>1101.8100585938</ele>
        <time>2023-09-28T12:31:25.000Z</time>
      </trkpt>
      <trkpt lat="40.34272" lon="20.44226">
        <ele>1101.8100585938</ele>
        <time>2023-09-28T12:31:24.000Z</time>
      </trkpt>
      <trkpt lat="40.34271" lon="20.44235">
        <ele>1101.8100585938</ele>
        <time>2023-09-28T12:31:23.000Z</time>
      </trkpt>
      <trkpt lat="40.34268" lon="20.44243">
        <ele>1102.2900390625</ele>
        <time>2023-09-28T12:31:22.000Z</time>
      </trkpt>
      <trkpt lat="40.34265" lon="20.44248">
        <ele>1101.8100585938</ele>
        <time>2023-09-28T12:31:21.000Z</time>
      </trkpt>
      <trkpt lat="40.34258" lon="20.44256">
        <ele>1100.8499755859</ele>
        <time>2023-09-28T12:31:20.000Z</time>
      </trkpt>
      <trkpt lat="40.34247" lon="20.44267">
        <ele>1099.8900146484</ele>
        <time>2023-09-28T12:31:18.000Z</time>
      </trkpt>
      <trkpt lat="40.34244" lon="20.44273">
        <ele>1098.9200439453</ele>
        <time>2023-09-28T12:31:17.000Z</time>
      </trkpt>
      <trkpt lat="40.34239" lon="20.4428">
        <ele>1098.4399414062</ele>
        <time>2023-09-28T12:31:16.000Z</time>
      </trkpt>
      <trkpt lat="40.34237" lon="20.44285">
        <ele>1097.9599609375</ele>
        <time>2023-09-28T12:31:15.000Z</time>
      </trkpt>
      <trkpt lat="40.34232" lon="20.44296">
        <ele>1097.4799804688</ele>
        <time>2023-09-28T12:31:14.000Z</time>
      </trkpt>
      <trkpt lat="40.34228" lon="20.44301">
        <ele>1097</ele>
        <time>2023-09-28T12:31:13.000Z</time>
      </trkpt>
      <trkpt lat="40.34226" lon="20.44304">
        <ele>1097</ele>
        <time>2023-09-28T12:31:12.000Z</time>
      </trkpt>
      <trkpt lat="40.34219" lon="20.44313">
        <ele>1095.5600585938</ele>
        <time>2023-09-28T12:31:11.000Z</time>
      </trkpt>
      <trkpt lat="40.34215" lon="20.44317">
        <ele>1095.0799560547</ele>
        <time>2023-09-28T12:31:10.000Z</time>
      </trkpt>
      <trkpt lat="40.3421" lon="20.4432">
        <ele>1094.1199951172</ele>
        <time>2023-09-28T12:31:09.000Z</time>
      </trkpt>
      <trkpt lat="40.34204" lon="20.44321">
        <ele>1093.6400146484</ele>
        <time>2023-09-28T12:31:08.000Z</time>
      </trkpt>
      <trkpt lat="40.34197" lon="20.44321">
        <ele>1093.6400146484</ele>
        <time>2023-09-28T12:31:07.000Z</time>
      </trkpt>
      <trkpt lat="40.34191" lon="20.44322">
        <ele>1093.6400146484</ele>
        <time>2023-09-28T12:31:06.000Z</time>
      </trkpt>
      <trkpt lat="40.34185" lon="20.44324">
        <ele>1093.1600341797</ele>
        <time>2023-09-28T12:31:05.000Z</time>
      </trkpt>
      <trkpt lat="40.3418" lon="20.44328">
        <ele>1092.6800537109</ele>
        <time>2023-09-28T12:31:04.000Z</time>
      </trkpt>
      <trkpt lat="40.34176" lon="20.44334">
        <ele>1091.7099609375</ele>
        <time>2023-09-28T12:31:03.000Z</time>
      </trkpt>
      <trkpt lat="40.34172" lon="20.44344">
        <ele>1090.2700195312</ele>
        <time>2023-09-28T12:31:02.000Z</time>
      </trkpt>
      <trkpt lat="40.34168" lon="20.44354">
        <ele>1088.8299560547</ele>
        <time>2023-09-28T12:31:01.000Z</time>
      </trkpt>
      <trkpt lat="40.34163" lon="20.44364">
        <ele>1087.3900146484</ele>
        <time>2023-09-28T12:31:00.000Z</time>
      </trkpt>
      <trkpt lat="40.34157" lon="20.44373">
        <ele>1085.9499511719</ele>
        <time>2023-09-28T12:30:59.000Z</time>
      </trkpt>
      <trkpt lat="40.34156" lon="20.44375">
        <ele>1085.9499511719</ele>
        <time>2023-09-28T12:30:58.000Z</time>
      </trkpt>
      <trkpt lat="40.34136" lon="20.44396">
        <ele>1083.5400390625</ele>
        <time>2023-09-28T12:30:56.000Z</time>
      </trkpt>
      <trkpt lat="40.3413" lon="20.44404">
        <ele>1082.0999755859</ele>
        <time>2023-09-28T12:30:55.000Z</time>
      </trkpt>
      <trkpt lat="40.34125" lon="20.44412">
        <ele>1082.5799560547</ele>
        <time>2023-09-28T12:30:54.000Z</time>
      </trkpt>
      <trkpt lat="40.34123" lon="20.44418">
        <ele>1082.5799560547</ele>
        <time>2023-09-28T12:30:53.000Z</time>
      </trkpt>
      <trkpt lat="40.3412" lon="20.44434">
        <ele>1082.5799560547</ele>
        <time>2023-09-28T12:30:52.000Z</time>
      </trkpt>
      <trkpt lat="40.34119" lon="20.44437">
        <ele>1082.5799560547</ele>
        <time>2023-09-28T12:30:51.000Z</time>
      </trkpt>
      <trkpt lat="40.34114" lon="20.44458">
        <ele>1083.0600585938</ele>
        <time>2023-09-28T12:30:50.000Z</time>
      </trkpt>
      <trkpt lat="40.34112" lon="20.44468">
        <ele>1083.0600585938</ele>
        <time>2023-09-28T12:30:49.000Z</time>
      </trkpt>
      <trkpt lat="40.3411" lon="20.44474">
        <ele>1083.0600585938</ele>
        <time>2023-09-28T12:30:48.000Z</time>
      </trkpt>
      <trkpt lat="40.34107" lon="20.44483">
        <ele>1083.0600585938</ele>
        <time>2023-09-28T12:30:47.000Z</time>
      </trkpt>
      <trkpt lat="40.34103" lon="20.44499">
        <ele>1083.0600585938</ele>
        <time>2023-09-28T12:30:46.000Z</time>
      </trkpt>
      <trkpt lat="40.34099" lon="20.44508">
        <ele>1083.5400390625</ele>
        <time>2023-09-28T12:30:45.000Z</time>
      </trkpt>
      <trkpt lat="40.34095" lon="20.44516">
        <ele>1083.5400390625</ele>
        <time>2023-09-28T12:30:44.000Z</time>
      </trkpt>
      <trkpt lat="40.34092" lon="20.44521">
        <ele>1084.0200195312</ele>
        <time>2023-09-28T12:30:43.000Z</time>
      </trkpt>
      <trkpt lat="40.34087" lon="20.44527">
        <ele>1084.5</ele>
        <time>2023-09-28T12:30:42.000Z</time>
      </trkpt>
      <trkpt lat="40.34079" lon="20.44537">
        <ele>1084.9899902344</ele>
        <time>2023-09-28T12:30:41.000Z</time>
      </trkpt>
      <trkpt lat="40.34073" lon="20.44547">
        <ele>1085.4699707031</ele>
        <time>2023-09-28T12:30:40.000Z</time>
      </trkpt>
      <trkpt lat="40.34069" lon="20.44555">
        <ele>1085.4699707031</ele>
        <time>2023-09-28T12:30:39.000Z</time>
      </trkpt>
      <trkpt lat="40.34065" lon="20.44561">
        <ele>1085.9499511719</ele>
        <time>2023-09-28T12:30:38.000Z</time>
      </trkpt>
      <trkpt lat="40.34061" lon="20.44565">
        <ele>1086.4300537109</ele>
        <time>2023-09-28T12:30:37.000Z</time>
      </trkpt>
      <trkpt lat="40.34058" lon="20.44567">
        <ele>1086.4300537109</ele>
        <time>2023-09-28T12:30:36.000Z</time>
      </trkpt>
      <trkpt lat="40.34051" lon="20.4457">
        <ele>1086.4300537109</ele>
        <time>2023-09-28T12:30:35.000Z</time>
      </trkpt>
      <trkpt lat="40.34043" lon="20.44572">
        <ele>1085.9499511719</ele>
        <time>2023-09-28T12:30:34.000Z</time>
      </trkpt>
      <trkpt lat="40.34034" lon="20.44576">
        <ele>1084.9899902344</ele>
        <time>2023-09-28T12:30:33.000Z</time>
      </trkpt>
      <trkpt lat="40.34026" lon="20.4458">
        <ele>1084.9899902344</ele>
        <time>2023-09-28T12:30:32.000Z</time>
      </trkpt>
      <trkpt lat="40.34018" lon="20.44584">
        <ele>1084.5</ele>
        <time>2023-09-28T12:30:31.000Z</time>
      </trkpt>
      <trkpt lat="40.34012" lon="20.44586">
        <ele>1084.0200195312</ele>
        <time>2023-09-28T12:30:30.000Z</time>
      </trkpt>
      <trkpt lat="40.34006" lon="20.44587">
        <ele>1083.5400390625</ele>
        <time>2023-09-28T12:30:29.000Z</time>
      </trkpt>
      <trkpt lat="40.33998" lon="20.44587">
        <ele>1083.0600585938</ele>
        <time>2023-09-28T12:30:28.000Z</time>
      </trkpt>
      <trkpt lat="40.33993" lon="20.44588">
        <ele>1082.5799560547</ele>
        <time>2023-09-28T12:30:27.000Z</time>
      </trkpt>
      <trkpt lat="40.33989" lon="20.44591">
        <ele>1082.0999755859</ele>
        <time>2023-09-28T12:30:26.000Z</time>
      </trkpt>
      <trkpt lat="40.33985" lon="20.44598">
        <ele>1082.0999755859</ele>
        <time>2023-09-28T12:30:25.000Z</time>
      </trkpt>
      <trkpt lat="40.33981" lon="20.44606">
        <ele>1082.0999755859</ele>
        <time>2023-09-28T12:30:24.000Z</time>
      </trkpt>
      <trkpt lat="40.33979" lon="20.4461">
        <ele>1082.0999755859</ele>
        <time>2023-09-28T12:30:23.000Z</time>
      </trkpt>
      <trkpt lat="40.33975" lon="20.44616">
        <ele>1081.6199951172</ele>
        <time>2023-09-28T12:30:22.000Z</time>
      </trkpt>
      <trkpt lat="40.33968" lon="20.44629">
        <ele>1080.1800537109</ele>
        <time>2023-09-28T12:30:21.000Z</time>
      </trkpt>
      <trkpt lat="40.33965" lon="20.44639">
        <ele>1079.6999511719</ele>
        <time>2023-09-28T12:30:20.000Z</time>
      </trkpt>
      <trkpt lat="40.33962" lon="20.44646">
        <ele>1078.7399902344</ele>
        <time>2023-09-28T12:30:19.000Z</time>
      </trkpt>
      <trkpt lat="40.33959" lon="20.44655">
        <ele>1078.2600097656</ele>
        <time>2023-09-28T12:30:18.000Z</time>
      </trkpt>
      <trkpt lat="40.33956" lon="20.44662">
        <ele>1077.2900390625</ele>
        <time>2023-09-28T12:30:17.000Z</time>
      </trkpt>
      <trkpt lat="40.33953" lon="20.44666">
        <ele>1076.8100585938</ele>
        <time>2023-09-28T12:30:16.000Z</time>
      </trkpt>
      <trkpt lat="40.33949" lon="20.44669">
        <ele>1076.3299560547</ele>
        <time>2023-09-28T12:30:15.000Z</time>
      </trkpt>
      <trkpt lat="40.33943" lon="20.44669">
        <ele>1075.3699951172</ele>
        <time>2023-09-28T12:30:14.000Z</time>
      </trkpt>
      <trkpt lat="40.33939" lon="20.44668">
        <ele>1074.8900146484</ele>
        <time>2023-09-28T12:30:13.000Z</time>
      </trkpt>
      <trkpt lat="40.33928" lon="20.44665">
        <ele>1073.9300537109</ele>
        <time>2023-09-28T12:30:12.000Z</time>
      </trkpt>
      <trkpt lat="40.33921" lon="20.44664">
        <ele>1073.4499511719</ele>
        <time>2023-09-28T12:30:11.000Z</time>
      </trkpt>
      <trkpt lat="40.33913" lon="20.44666">
        <ele>1072.9699707031</ele>
        <time>2023-09-28T12:30:10.000Z</time>
      </trkpt>
      <trkpt lat="40.33905" lon="20.44671">
        <ele>1072.9699707031</ele>
        <time>2023-09-28T12:30:09.000Z</time>
      </trkpt>
      <trkpt lat="40.33899" lon="20.44675">
        <ele>1072.9699707031</ele>
        <time>2023-09-28T12:30:08.000Z</time>
      </trkpt>
      <trkpt lat="40.33887" lon="20.44684">
        <ele>1072.4899902344</ele>
        <time>2023-09-28T12:30:07.000Z</time>
      </trkpt>
      <trkpt lat="40.33877" lon="20.44691">
        <ele>1072.0100097656</ele>
        <time>2023-09-28T12:30:06.000Z</time>
      </trkpt>
      <trkpt lat="40.33865" lon="20.44697">
        <ele>1071.0500488281</ele>
        <time>2023-09-28T12:30:05.000Z</time>
      </trkpt>
      <trkpt lat="40.33856" lon="20.44701">
        <ele>1070.0799560547</ele>
        <time>2023-09-28T12:30:04.000Z</time>
      </trkpt>
      <trkpt lat="40.33838" lon="20.44706">
        <ele>1068.6400146484</ele>
        <time>2023-09-28T12:30:02.000Z</time>
      </trkpt>
      <trkpt lat="40.33822" lon="20.4471">
        <ele>1067.1999511719</ele>
        <time>2023-09-28T12:30:01.000Z</time>
      </trkpt>
      <trkpt lat="40.33811" lon="20.44714">
        <ele>1066.2399902344</ele>
        <time>2023-09-28T12:30:00.000Z</time>
      </trkpt>
      <trkpt lat="40.33803" lon="20.44718">
        <ele>1065.2800292969</ele>
        <time>2023-09-28T12:29:59.000Z</time>
      </trkpt>
      <trkpt lat="40.33795" lon="20.44724">
        <ele>1063.8399658203</ele>
        <time>2023-09-28T12:29:58.000Z</time>
      </trkpt>
      <trkpt lat="40.33789" lon="20.4473">
        <ele>1062.8699951172</ele>
        <time>2023-09-28T12:29:57.000Z</time>
      </trkpt>
      <trkpt lat="40.33783" lon="20.44738">
        <ele>1061.9100341797</ele>
        <time>2023-09-28T12:29:56.000Z</time>
      </trkpt>
      <trkpt lat="40.33776" lon="20.44746">
        <ele>1060.9499511719</ele>
        <time>2023-09-28T12:29:55.000Z</time>
      </trkpt>
      <trkpt lat="40.33769" lon="20.44753">
        <ele>1059.5100097656</ele>
        <time>2023-09-28T12:29:54.000Z</time>
      </trkpt>
      <trkpt lat="40.33761" lon="20.44759">
        <ele>1058.0699462891</ele>
        <time>2023-09-28T12:29:53.000Z</time>
      </trkpt>
      <trkpt lat="40.33755" lon="20.44762">
        <ele>1057.1099853516</ele>
        <time>2023-09-28T12:29:52.000Z</time>
      </trkpt>
      <trkpt lat="40.33746" lon="20.44766">
        <ele>1055.6700439453</ele>
        <time>2023-09-28T12:29:51.000Z</time>
      </trkpt>
      <trkpt lat="40.33741" lon="20.44768">
        <ele>1054.6999511719</ele>
        <time>2023-09-28T12:29:50.000Z</time>
      </trkpt>
      <trkpt lat="40.33731" lon="20.44772">
        <ele>1053.2600097656</ele>
        <time>2023-09-28T12:29:49.000Z</time>
      </trkpt>
      <trkpt lat="40.33724" lon="20.44775">
        <ele>1051.8199462891</ele>
        <time>2023-09-28T12:29:48.000Z</time>
      </trkpt>
      <trkpt lat="40.33712" lon="20.44781">
        <ele>1050.8599853516</ele>
        <time>2023-09-28T12:29:47.000Z</time>
      </trkpt>
      <trkpt lat="40.33706" lon="20.44785">
        <ele>1050.3800048828</ele>
        <time>2023-09-28T12:29:46.000Z</time>
      </trkpt>
      <trkpt lat="40.33695" lon="20.44794">
        <ele>1048.9399414062</ele>
        <time>2023-09-28T12:29:45.000Z</time>
      </trkpt>
      <trkpt lat="40.33686" lon="20.448">
        <ele>1048.4499511719</ele>
        <time>2023-09-28T12:29:44.000Z</time>
      </trkpt>
      <trkpt lat="40.33677" lon="20.44806">
        <ele>1047.4899902344</ele>
        <time>2023-09-28T12:29:43.000Z</time>
      </trkpt>
      <trkpt lat="40.3367" lon="20.4481">
        <ele>1047.0100097656</ele>
        <time>2023-09-28T12:29:42.000Z</time>
      </trkpt>
      <trkpt lat="40.33662" lon="20.44812">
        <ele>1046.0500488281</ele>
        <time>2023-09-28T12:29:41.000Z</time>
      </trkpt>
      <trkpt lat="40.33655" lon="20.44814">
        <ele>1045.5699462891</ele>
        <time>2023-09-28T12:29:40.000Z</time>
      </trkpt>
      <trkpt lat="40.33641" lon="20.44816">
        <ele>1044.1300048828</ele>
        <time>2023-09-28T12:29:39.000Z</time>
      </trkpt>
      <trkpt lat="40.3362" lon="20.44819">
        <ele>1041.7299804688</ele>
        <time>2023-09-28T12:29:37.000Z</time>
      </trkpt>
      <trkpt lat="40.33609" lon="20.44821">
        <ele>1041.25</ele>
        <time>2023-09-28T12:29:36.000Z</time>
      </trkpt>
      <trkpt lat="40.33601" lon="20.44825">
        <ele>1040.2800292969</ele>
        <time>2023-09-28T12:29:35.000Z</time>
      </trkpt>
      <trkpt lat="40.33581" lon="20.44834">
        <ele>1039.3199462891</ele>
        <time>2023-09-28T12:29:33.000Z</time>
      </trkpt>
      <trkpt lat="40.33573" lon="20.44836">
        <ele>1039.3199462891</ele>
        <time>2023-09-28T12:29:32.000Z</time>
      </trkpt>
      <trkpt lat="40.33566" lon="20.44835">
        <ele>1038.8399658203</ele>
        <time>2023-09-28T12:29:31.000Z</time>
      </trkpt>
      <trkpt lat="40.33563" lon="20.44833">
        <ele>1038.3599853516</ele>
        <time>2023-09-28T12:29:30.000Z</time>
      </trkpt>
      <trkpt lat="40.33539" lon="20.44823">
        <ele>1037.8800048828</ele>
        <time>2023-09-28T12:29:28.000Z</time>
      </trkpt>
      <trkpt lat="40.33532" lon="20.44818">
        <ele>1037.4000244141</ele>
        <time>2023-09-28T12:29:27.000Z</time>
      </trkpt>
      <trkpt lat="40.33523" lon="20.44812">
        <ele>1036.9200439453</ele>
        <time>2023-09-28T12:29:26.000Z</time>
      </trkpt>
      <trkpt lat="40.33515" lon="20.44809">
        <ele>1036.4399414062</ele>
        <time>2023-09-28T12:29:25.000Z</time>
      </trkpt>
      <trkpt lat="40.33507" lon="20.44809">
        <ele>1035.9599609375</ele>
        <time>2023-09-28T12:29:24.000Z</time>
      </trkpt>
      <trkpt lat="40.33499" lon="20.4481">
        <ele>1035.9599609375</ele>
        <time>2023-09-28T12:29:23.000Z</time>
      </trkpt>
      <trkpt lat="40.33492" lon="20.4481">
        <ele>1035.9599609375</ele>
        <time>2023-09-28T12:29:22.000Z</time>
      </trkpt>
      <trkpt lat="40.33487" lon="20.4481">
        <ele>1035.4799804688</ele>
        <time>2023-09-28T12:29:21.000Z</time>
      </trkpt>
      <trkpt lat="40.3348" lon="20.44809">
        <ele>1035</ele>
        <time>2023-09-28T12:29:20.000Z</time>
      </trkpt>
      <trkpt lat="40.33476" lon="20.44806">
        <ele>1034.5200195312</ele>
        <time>2023-09-28T12:29:19.000Z</time>
      </trkpt>
      <trkpt lat="40.33473" lon="20.44802">
        <ele>1033.5500488281</ele>
        <time>2023-09-28T12:29:18.000Z</time>
      </trkpt>
      <trkpt lat="40.33471" lon="20.44797">
        <ele>1033.0699462891</ele>
        <time>2023-09-28T12:29:17.000Z</time>
      </trkpt>
      <trkpt lat="40.33468" lon="20.44787">
        <ele>1032.1099853516</ele>
        <time>2023-09-28T12:29:16.000Z</time>
      </trkpt>
      <trkpt lat="40.33464" lon="20.44777">
        <ele>1031.6300048828</ele>
        <time>2023-09-28T12:29:15.000Z</time>
      </trkpt>
      <trkpt lat="40.33463" lon="20.44776">
        <ele>1032.1099853516</ele>
        <time>2023-09-28T12:29:14.000Z</time>
      </trkpt>
      <trkpt lat="40.33451" lon="20.4476">
        <ele>1032.1099853516</ele>
        <time>2023-09-28T12:29:13.000Z</time>
      </trkpt>
      <trkpt lat="40.33445" lon="20.44753">
        <ele>1032.1099853516</ele>
        <time>2023-09-28T12:29:12.000Z</time>
      </trkpt>
      <trkpt lat="40.33439" lon="20.44747">
        <ele>1031.6300048828</ele>
        <time>2023-09-28T12:29:11.000Z</time>
      </trkpt>
      <trkpt lat="40.33434" lon="20.44744">
        <ele>1031.6300048828</ele>
        <time>2023-09-28T12:29:10.000Z</time>
      </trkpt>
      <trkpt lat="40.33425" lon="20.44741">
        <ele>1031.6300048828</ele>
        <time>2023-09-28T12:29:09.000Z</time>
      </trkpt>
      <trkpt lat="40.33419" lon="20.44738">
        <ele>1032.5899658203</ele>
        <time>2023-09-28T12:29:08.000Z</time>
      </trkpt>
      <trkpt lat="40.33411" lon="20.44734">
        <ele>1032.5899658203</ele>
        <time>2023-09-28T12:29:07.000Z</time>
      </trkpt>
      <trkpt lat="40.33407" lon="20.44733">
        <ele>1033.0699462891</ele>
        <time>2023-09-28T12:29:06.000Z</time>
      </trkpt>
      <trkpt lat="40.33404" lon="20.44735">
        <ele>1033.0699462891</ele>
        <time>2023-09-28T12:29:05.000Z</time>
      </trkpt>
      <trkpt lat="40.33401" lon="20.4474">
        <ele>1033.0699462891</ele>
        <time>2023-09-28T12:29:04.000Z</time>
      </trkpt>
      <trkpt lat="40.33399" lon="20.44747">
        <ele>1033.0699462891</ele>
        <time>2023-09-28T12:29:03.000Z</time>
      </trkpt>
      <trkpt lat="40.33397" lon="20.44756">
        <ele>1032.1099853516</ele>
        <time>2023-09-28T12:29:02.000Z</time>
      </trkpt>
      <trkpt lat="40.33396" lon="20.44763">
        <ele>1031.6300048828</ele>
        <time>2023-09-28T12:29:01.000Z</time>
      </trkpt>
      <trkpt lat="40.33396" lon="20.44773">
        <ele>1031.1500244141</ele>
        <time>2023-09-28T12:29:00.000Z</time>
      </trkpt>
      <trkpt lat="40.33396" lon="20.44775">
        <ele>1030.6700439453</ele>
        <time>2023-09-28T12:28:59.000Z</time>
      </trkpt>
      <trkpt lat="40.33394" lon="20.44783">
        <ele>1029.7099609375</ele>
        <time>2023-09-28T12:28:58.000Z</time>
      </trkpt>
      <trkpt lat="40.3339" lon="20.44788">
        <ele>1028.75</ele>
        <time>2023-09-28T12:28:57.000Z</time>
      </trkpt>
      <trkpt lat="40.33388" lon="20.4479">
        <ele>1028.2700195312</ele>
        <time>2023-09-28T12:28:56.000Z</time>
      </trkpt>
      <trkpt lat="40.33376" lon="20.44798">
        <ele>1026.8299560547</ele>
        <time>2023-09-28T12:28:55.000Z</time>
      </trkpt>
      <trkpt lat="40.3337" lon="20.44804">
        <ele>1026.3399658203</ele>
        <time>2023-09-28T12:28:54.000Z</time>
      </trkpt>
      <trkpt lat="40.33365" lon="20.44811">
        <ele>1025.8599853516</ele>
        <time>2023-09-28T12:28:53.000Z</time>
      </trkpt>
      <trkpt lat="40.33362" lon="20.44818">
        <ele>1025.3800048828</ele>
        <time>2023-09-28T12:28:52.000Z</time>
      </trkpt>
      <trkpt lat="40.33361" lon="20.4482">
        <ele>1025.3800048828</ele>
        <time>2023-09-28T12:28:51.000Z</time>
      </trkpt>
      <trkpt lat="40.33352" lon="20.44823">
        <ele>1023.9400024414</ele>
        <time>2023-09-28T12:28:49.000Z</time>
      </trkpt>
      <trkpt lat="40.33345" lon="20.44819">
        <ele>1023.4600219727</ele>
        <time>2023-09-28T12:28:48.000Z</time>
      </trkpt>
      <trkpt lat="40.33334" lon="20.4481">
        <ele>1022.9799804688</ele>
        <time>2023-09-28T12:28:46.000Z</time>
      </trkpt>
      <trkpt lat="40.33328" lon="20.44807">
        <ele>1022.5</ele>
        <time>2023-09-28T12:28:45.000Z</time>
      </trkpt>
      <trkpt lat="40.33322" lon="20.44807">
        <ele>1022.0200195312</ele>
        <time>2023-09-28T12:28:44.000Z</time>
      </trkpt>
      <trkpt lat="40.33315" lon="20.44809">
        <ele>1021.5399780273</ele>
        <time>2023-09-28T12:28:43.000Z</time>
      </trkpt>
      <trkpt lat="40.3331" lon="20.44812">
        <ele>1020.5800170898</ele>
        <time>2023-09-28T12:28:42.000Z</time>
      </trkpt>
      <trkpt lat="40.33305" lon="20.44814">
        <ele>1019.1300048828</ele>
        <time>2023-09-28T12:28:41.000Z</time>
      </trkpt>
      <trkpt lat="40.33298" lon="20.44815">
        <ele>1018.1699829102</ele>
        <time>2023-09-28T12:28:40.000Z</time>
      </trkpt>
      <trkpt lat="40.33293" lon="20.44814">
        <ele>1017.2100219727</ele>
        <time>2023-09-28T12:28:39.000Z</time>
      </trkpt>
      <trkpt lat="40.33287" lon="20.4481">
        <ele>1016.7299804688</ele>
        <time>2023-09-28T12:28:38.000Z</time>
      </trkpt>
      <trkpt lat="40.3328" lon="20.44804">
        <ele>1016.7299804688</ele>
        <time>2023-09-28T12:28:37.000Z</time>
      </trkpt>
      <trkpt lat="40.33273" lon="20.44799">
        <ele>1016.7299804688</ele>
        <time>2023-09-28T12:28:36.000Z</time>
      </trkpt>
      <trkpt lat="40.33266" lon="20.44794">
        <ele>1015.7700195312</ele>
        <time>2023-09-28T12:28:35.000Z</time>
      </trkpt>
      <trkpt lat="40.33259" lon="20.44792">
        <ele>1014.8099975586</ele>
        <time>2023-09-28T12:28:34.000Z</time>
      </trkpt>
      <trkpt lat="40.33246" lon="20.44787">
        <ele>1013.8499755859</ele>
        <time>2023-09-28T12:28:33.000Z</time>
      </trkpt>
      <trkpt lat="40.3324" lon="20.44785">
        <ele>1013.3699951172</ele>
        <time>2023-09-28T12:28:32.000Z</time>
      </trkpt>
      <trkpt lat="40.33232" lon="20.44782">
        <ele>1012.4099731445</ele>
        <time>2023-09-28T12:28:31.000Z</time>
      </trkpt>
      <trkpt lat="40.3322" lon="20.44778">
        <ele>1010.9600219727</ele>
        <time>2023-09-28T12:28:30.000Z</time>
      </trkpt>
      <trkpt lat="40.33212" lon="20.44775">
        <ele>1010</ele>
        <time>2023-09-28T12:28:29.000Z</time>
      </trkpt>
      <trkpt lat="40.33198" lon="20.44771">
        <ele>1007.5999755859</ele>
        <time>2023-09-28T12:28:28.000Z</time>
      </trkpt>
      <trkpt lat="40.33192" lon="20.44771">
        <ele>1006.6400146484</ele>
        <time>2023-09-28T12:28:27.000Z</time>
      </trkpt>
      <trkpt lat="40.33182" lon="20.44771">
        <ele>1005.6799926758</ele>
        <time>2023-09-28T12:28:26.000Z</time>
      </trkpt>
      <trkpt lat="40.3318" lon="20.44771">
        <ele>1005.6799926758</ele>
        <time>2023-09-28T12:28:25.000Z</time>
      </trkpt>
      <trkpt lat="40.33163" lon="20.44773">
        <ele>1004.2299804688</ele>
        <time>2023-09-28T12:28:24.000Z</time>
      </trkpt>
      <trkpt lat="40.33155" lon="20.44774">
        <ele>1003.2700195312</ele>
        <time>2023-09-28T12:28:23.000Z</time>
      </trkpt>
      <trkpt lat="40.33149" lon="20.44774">
        <ele>1002.3099975586</ele>
        <time>2023-09-28T12:28:22.000Z</time>
      </trkpt>
      <trkpt lat="40.33144" lon="20.44772">
        <ele>1001.8300170898</ele>
        <time>2023-09-28T12:28:21.000Z</time>
      </trkpt>
      <trkpt lat="40.33138" lon="20.44769">
        <ele>1000.3900146484</ele>
        <time>2023-09-28T12:28:20.000Z</time>
      </trkpt>
      <trkpt lat="40.33133" lon="20.44765">
        <ele>999.42999267578</ele>
        <time>2023-09-28T12:28:19.000Z</time>
      </trkpt>
      <trkpt lat="40.33131" lon="20.44762">
        <ele>999.42999267578</ele>
        <time>2023-09-28T12:28:18.000Z</time>
      </trkpt>
      <trkpt lat="40.33128" lon="20.44756">
        <ele>998.46997070312</ele>
        <time>2023-09-28T12:28:17.000Z</time>
      </trkpt>
      <trkpt lat="40.33128" lon="20.44749">
        <ele>997.98999023438</ele>
        <time>2023-09-28T12:28:16.000Z</time>
      </trkpt>
      <trkpt lat="40.33128" lon="20.44738">
        <ele>997.51000976562</ele>
        <time>2023-09-28T12:28:15.000Z</time>
      </trkpt>
      <trkpt lat="40.33128" lon="20.44727">
        <ele>997.02001953125</ele>
        <time>2023-09-28T12:28:14.000Z</time>
      </trkpt>
      <trkpt lat="40.33127" lon="20.44718">
        <ele>996.53997802734</ele>
        <time>2023-09-28T12:28:13.000Z</time>
      </trkpt>
      <trkpt lat="40.33127" lon="20.44709">
        <ele>995.58001708984</ele>
        <time>2023-09-28T12:28:12.000Z</time>
      </trkpt>
      <trkpt lat="40.33129" lon="20.44701">
        <ele>995.09997558594</ele>
        <time>2023-09-28T12:28:11.000Z</time>
      </trkpt>
      <trkpt lat="40.33132" lon="20.44692">
        <ele>994.61999511719</ele>
        <time>2023-09-28T12:28:10.000Z</time>
      </trkpt>
      <trkpt lat="40.33137" lon="20.44681">
        <ele>993.17999267578</ele>
        <time>2023-09-28T12:28:09.000Z</time>
      </trkpt>
      <trkpt lat="40.33142" lon="20.44671">
        <ele>992.70001220703</ele>
        <time>2023-09-28T12:28:08.000Z</time>
      </trkpt>
      <trkpt lat="40.33145" lon="20.44663">
        <ele>992.21997070312</ele>
        <time>2023-09-28T12:28:07.000Z</time>
      </trkpt>
      <trkpt lat="40.33149" lon="20.44657">
        <ele>992.21997070312</ele>
        <time>2023-09-28T12:28:06.000Z</time>
      </trkpt>
      <trkpt lat="40.33154" lon="20.4465">
        <ele>992.21997070312</ele>
        <time>2023-09-28T12:28:05.000Z</time>
      </trkpt>
      <trkpt lat="40.33156" lon="20.44644">
        <ele>991.73999023438</ele>
        <time>2023-09-28T12:28:04.000Z</time>
      </trkpt>
      <trkpt lat="40.33157" lon="20.44635">
        <ele>990.78002929688</ele>
        <time>2023-09-28T12:28:03.000Z</time>
      </trkpt>
      <trkpt lat="40.33157" lon="20.44633">
        <ele>990.78002929688</ele>
        <time>2023-09-28T12:28:02.000Z</time>
      </trkpt>
      <trkpt lat="40.33157" lon="20.44612">
        <ele>989.33001708984</ele>
        <time>2023-09-28T12:28:01.000Z</time>
      </trkpt>
      <trkpt lat="40.33156" lon="20.44608">
        <ele>988.84997558594</ele>
        <time>2023-09-28T12:28:00.000Z</time>
      </trkpt>
      <trkpt lat="40.33154" lon="20.44593">
        <ele>988.36999511719</ele>
        <time>2023-09-28T12:27:59.000Z</time>
      </trkpt>
      <trkpt lat="40.33154" lon="20.44587">
        <ele>988.84997558594</ele>
        <time>2023-09-28T12:27:58.000Z</time>
      </trkpt>
      <trkpt lat="40.33155" lon="20.44581">
        <ele>988.36999511719</ele>
        <time>2023-09-28T12:27:57.000Z</time>
      </trkpt>
      <trkpt lat="40.33159" lon="20.44575">
        <ele>987.89001464844</ele>
        <time>2023-09-28T12:27:56.000Z</time>
      </trkpt>
      <trkpt lat="40.33164" lon="20.44568">
        <ele>986.92999267578</ele>
        <time>2023-09-28T12:27:55.000Z</time>
      </trkpt>
      <trkpt lat="40.3317" lon="20.44562">
        <ele>986.92999267578</ele>
        <time>2023-09-28T12:27:54.000Z</time>
      </trkpt>
      <trkpt lat="40.33176" lon="20.44557">
        <ele>986.45001220703</ele>
        <time>2023-09-28T12:27:53.000Z</time>
      </trkpt>
      <trkpt lat="40.33181" lon="20.44551">
        <ele>985.96997070312</ele>
        <time>2023-09-28T12:27:52.000Z</time>
      </trkpt>
      <trkpt lat="40.33185" lon="20.44543">
        <ele>985.96997070312</ele>
        <time>2023-09-28T12:27:51.000Z</time>
      </trkpt>
      <trkpt lat="40.33187" lon="20.44533">
        <ele>985.48999023438</ele>
        <time>2023-09-28T12:27:50.000Z</time>
      </trkpt>
      <trkpt lat="40.33189" lon="20.44524">
        <ele>985.48999023438</ele>
        <time>2023-09-28T12:27:49.000Z</time>
      </trkpt>
      <trkpt lat="40.33191" lon="20.44509">
        <ele>984.53002929688</ele>
        <time>2023-09-28T12:27:48.000Z</time>
      </trkpt>
      <trkpt lat="40.33193" lon="20.44499">
        <ele>984.53002929688</ele>
        <time>2023-09-28T12:27:47.000Z</time>
      </trkpt>
      <trkpt lat="40.33195" lon="20.4449">
        <ele>984.04998779297</ele>
        <time>2023-09-28T12:27:46.000Z</time>
      </trkpt>
      <trkpt lat="40.33199" lon="20.44483">
        <ele>984.04998779297</ele>
        <time>2023-09-28T12:27:45.000Z</time>
      </trkpt>
      <trkpt lat="40.33203" lon="20.44477">
        <ele>984.04998779297</ele>
        <time>2023-09-28T12:27:44.000Z</time>
      </trkpt>
      <trkpt lat="40.33207" lon="20.4447">
        <ele>983.57000732422</ele>
        <time>2023-09-28T12:27:43.000Z</time>
      </trkpt>
      <trkpt lat="40.33209" lon="20.44461">
        <ele>982.59997558594</ele>
        <time>2023-09-28T12:27:42.000Z</time>
      </trkpt>
      <trkpt lat="40.3321" lon="20.44451">
        <ele>982.11999511719</ele>
        <time>2023-09-28T12:27:41.000Z</time>
      </trkpt>
      <trkpt lat="40.33212" lon="20.44441">
        <ele>981.64001464844</ele>
        <time>2023-09-28T12:27:40.000Z</time>
      </trkpt>
      <trkpt lat="40.33215" lon="20.44432">
        <ele>981.15997314453</ele>
        <time>2023-09-28T12:27:39.000Z</time>
      </trkpt>
      <trkpt lat="40.33217" lon="20.44427">
        <ele>980.67999267578</ele>
        <time>2023-09-28T12:27:38.000Z</time>
      </trkpt>
      <trkpt lat="40.3323" lon="20.44404">
        <ele>980.20001220703</ele>
        <time>2023-09-28T12:27:36.000Z</time>
      </trkpt>
      <trkpt lat="40.33235" lon="20.44395">
        <ele>980.67999267578</ele>
        <time>2023-09-28T12:27:35.000Z</time>
      </trkpt>
      <trkpt lat="40.33239" lon="20.4439">
        <ele>980.67999267578</ele>
        <time>2023-09-28T12:27:34.000Z</time>
      </trkpt>
      <trkpt lat="40.33244" lon="20.44386">
        <ele>980.67999267578</ele>
        <time>2023-09-28T12:27:33.000Z</time>
      </trkpt>
      <trkpt lat="40.33251" lon="20.44384">
        <ele>980.20001220703</ele>
        <time>2023-09-28T12:27:32.000Z</time>
      </trkpt>
      <trkpt lat="40.33257" lon="20.44381">
        <ele>980.20001220703</ele>
        <time>2023-09-28T12:27:31.000Z</time>
      </trkpt>
      <trkpt lat="40.33264" lon="20.44375">
        <ele>980.20001220703</ele>
        <time>2023-09-28T12:27:30.000Z</time>
      </trkpt>
      <trkpt lat="40.33268" lon="20.44369">
        <ele>980.20001220703</ele>
        <time>2023-09-28T12:27:29.000Z</time>
      </trkpt>
      <trkpt lat="40.33273" lon="20.44361">
        <ele>980.20001220703</ele>
        <time>2023-09-28T12:27:28.000Z</time>
      </trkpt>
      <trkpt lat="40.33281" lon="20.44351">
        <ele>980.67999267578</ele>
        <time>2023-09-28T12:27:27.000Z</time>
      </trkpt>
      <trkpt lat="40.33286" lon="20.44346">
        <ele>981.15997314453</ele>
        <time>2023-09-28T12:27:26.000Z</time>
      </trkpt>
      <trkpt lat="40.33292" lon="20.44341">
        <ele>981.15997314453</ele>
        <time>2023-09-28T12:27:25.000Z</time>
      </trkpt>
      <trkpt lat="40.33297" lon="20.44336">
        <ele>981.64001464844</ele>
        <time>2023-09-28T12:27:24.000Z</time>
      </trkpt>
      <trkpt lat="40.33298" lon="20.4433">
        <ele>982.11999511719</ele>
        <time>2023-09-28T12:27:23.000Z</time>
      </trkpt>
      <trkpt lat="40.33301" lon="20.44318">
        <ele>982.11999511719</ele>
        <time>2023-09-28T12:27:22.000Z</time>
      </trkpt>
      <trkpt lat="40.33305" lon="20.44306">
        <ele>982.11999511719</ele>
        <time>2023-09-28T12:27:21.000Z</time>
      </trkpt>
      <trkpt lat="40.33307" lon="20.44296">
        <ele>982.59997558594</ele>
        <time>2023-09-28T12:27:20.000Z</time>
      </trkpt>
      <trkpt lat="40.33308" lon="20.44292">
        <ele>982.59997558594</ele>
        <time>2023-09-28T12:27:19.000Z</time>
      </trkpt>
      <trkpt lat="40.33309" lon="20.44278">
        <ele>983.09002685547</ele>
        <time>2023-09-28T12:27:18.000Z</time>
      </trkpt>
      <trkpt lat="40.33312" lon="20.4427">
        <ele>983.09002685547</ele>
        <time>2023-09-28T12:27:17.000Z</time>
      </trkpt>
      <trkpt lat="40.33316" lon="20.44263">
        <ele>983.57000732422</ele>
        <time>2023-09-28T12:27:16.000Z</time>
      </trkpt>
      <trkpt lat="40.33321" lon="20.44255">
        <ele>983.57000732422</ele>
        <time>2023-09-28T12:27:15.000Z</time>
      </trkpt>
      <trkpt lat="40.33328" lon="20.44248">
        <ele>984.04998779297</ele>
        <time>2023-09-28T12:27:14.000Z</time>
      </trkpt>
      <trkpt lat="40.33332" lon="20.44244">
        <ele>984.53002929688</ele>
        <time>2023-09-28T12:27:13.000Z</time>
      </trkpt>
      <trkpt lat="40.33339" lon="20.44238">
        <ele>984.53002929688</ele>
        <time>2023-09-28T12:27:12.000Z</time>
      </trkpt>
      <trkpt lat="40.33342" lon="20.44233">
        <ele>984.53002929688</ele>
        <time>2023-09-28T12:27:11.000Z</time>
      </trkpt>
      <trkpt lat="40.33345" lon="20.44226">
        <ele>984.53002929688</ele>
        <time>2023-09-28T12:27:10.000Z</time>
      </trkpt>
      <trkpt lat="40.33344" lon="20.4422">
        <ele>984.53002929688</ele>
        <time>2023-09-28T12:27:09.000Z</time>
      </trkpt>
      <trkpt lat="40.3334" lon="20.44213">
        <ele>984.53002929688</ele>
        <time>2023-09-28T12:27:08.000Z</time>
      </trkpt>
      <trkpt lat="40.33336" lon="20.44207">
        <ele>985.01000976562</ele>
        <time>2023-09-28T12:27:07.000Z</time>
      </trkpt>
      <trkpt lat="40.33333" lon="20.44202">
        <ele>985.01000976562</ele>
        <time>2023-09-28T12:27:06.000Z</time>
      </trkpt>
      <trkpt lat="40.33331" lon="20.44196">
        <ele>985.48999023438</ele>
        <time>2023-09-28T12:27:05.000Z</time>
      </trkpt>
      <trkpt lat="40.33332" lon="20.44188">
        <ele>985.48999023438</ele>
        <time>2023-09-28T12:27:04.000Z</time>
      </trkpt>
      <trkpt lat="40.33335" lon="20.44181">
        <ele>985.96997070312</ele>
        <time>2023-09-28T12:27:03.000Z</time>
      </trkpt>
      <trkpt lat="40.3334" lon="20.44172">
        <ele>986.45001220703</ele>
        <time>2023-09-28T12:27:02.000Z</time>
      </trkpt>
      <trkpt lat="40.33345" lon="20.44164">
        <ele>986.45001220703</ele>
        <time>2023-09-28T12:27:01.000Z</time>
      </trkpt>
      <trkpt lat="40.33352" lon="20.44156">
        <ele>986.45001220703</ele>
        <time>2023-09-28T12:27:00.000Z</time>
      </trkpt>
      <trkpt lat="40.33359" lon="20.44146">
        <ele>986.92999267578</ele>
        <time>2023-09-28T12:26:59.000Z</time>
      </trkpt>
      <trkpt lat="40.33362" lon="20.44142">
        <ele>986.92999267578</ele>
        <time>2023-09-28T12:26:58.000Z</time>
      </trkpt>
      <trkpt lat="40.33374" lon="20.44117">
        <ele>988.36999511719</ele>
        <time>2023-09-28T12:26:56.000Z</time>
      </trkpt>
      <trkpt lat="40.33381" lon="20.44102">
        <ele>988.84997558594</ele>
        <time>2023-09-28T12:26:55.000Z</time>
      </trkpt>
      <trkpt lat="40.33385" lon="20.44091">
        <ele>988.84997558594</ele>
        <time>2023-09-28T12:26:54.000Z</time>
      </trkpt>
      <trkpt lat="40.33388" lon="20.44083">
        <ele>988.84997558594</ele>
        <time>2023-09-28T12:26:53.000Z</time>
      </trkpt>
      <trkpt lat="40.33394" lon="20.44069">
        <ele>988.84997558594</ele>
        <time>2023-09-28T12:26:52.000Z</time>
      </trkpt>
      <trkpt lat="40.334" lon="20.44061">
        <ele>988.36999511719</ele>
        <time>2023-09-28T12:26:51.000Z</time>
      </trkpt>
      <trkpt lat="40.33405" lon="20.44054">
        <ele>987.89001464844</ele>
        <time>2023-09-28T12:26:50.000Z</time>
      </trkpt>
      <trkpt lat="40.33409" lon="20.44047">
        <ele>987.89001464844</ele>
        <time>2023-09-28T12:26:49.000Z</time>
      </trkpt>
      <trkpt lat="40.33412" lon="20.44038">
        <ele>987.40997314453</ele>
        <time>2023-09-28T12:26:48.000Z</time>
      </trkpt>
      <trkpt lat="40.33413" lon="20.44031">
        <ele>987.40997314453</ele>
        <time>2023-09-28T12:26:47.000Z</time>
      </trkpt>
      <trkpt lat="40.33414" lon="20.44017">
        <ele>986.92999267578</ele>
        <time>2023-09-28T12:26:46.000Z</time>
      </trkpt>
      <trkpt lat="40.33415" lon="20.43989">
        <ele>986.92999267578</ele>
        <time>2023-09-28T12:26:44.000Z</time>
      </trkpt>
      <trkpt lat="40.33415" lon="20.43977">
        <ele>986.45001220703</ele>
        <time>2023-09-28T12:26:43.000Z</time>
      </trkpt>
      <trkpt lat="40.33415" lon="20.43968">
        <ele>986.45001220703</ele>
        <time>2023-09-28T12:26:42.000Z</time>
      </trkpt>
      <trkpt lat="40.33415" lon="20.43956">
        <ele>985.96997070312</ele>
        <time>2023-09-28T12:26:41.000Z</time>
      </trkpt>
      <trkpt lat="40.33416" lon="20.4395">
        <ele>985.01000976562</ele>
        <time>2023-09-28T12:26:40.000Z</time>
      </trkpt>
      <trkpt lat="40.33418" lon="20.43939">
        <ele>984.53002929688</ele>
        <time>2023-09-28T12:26:39.000Z</time>
      </trkpt>
      <trkpt lat="40.3342" lon="20.43929">
        <ele>983.57000732422</ele>
        <time>2023-09-28T12:26:38.000Z</time>
      </trkpt>
      <trkpt lat="40.3342" lon="20.43922">
        <ele>983.57000732422</ele>
        <time>2023-09-28T12:26:37.000Z</time>
      </trkpt>
      <trkpt lat="40.33418" lon="20.43915">
        <ele>983.09002685547</ele>
        <time>2023-09-28T12:26:36.000Z</time>
      </trkpt>
      <trkpt lat="40.33415" lon="20.4391">
        <ele>982.59997558594</ele>
        <time>2023-09-28T12:26:35.000Z</time>
      </trkpt>
      <trkpt lat="40.33414" lon="20.43908">
        <ele>982.59997558594</ele>
        <time>2023-09-28T12:26:34.000Z</time>
      </trkpt>
      <trkpt lat="40.33397" lon="20.43917">
        <ele>984.04998779297</ele>
        <time>2023-09-28T12:26:28.000Z</time>
      </trkpt>
      <trkpt lat="40.33393" lon="20.43922">
        <ele>985.01000976562</ele>
        <time>2023-09-28T12:26:27.000Z</time>
      </trkpt>
      <trkpt lat="40.33388" lon="20.43929">
        <ele>985.96997070312</ele>
        <time>2023-09-28T12:26:26.000Z</time>
      </trkpt>
      <trkpt lat="40.33385" lon="20.43934">
        <ele>986.45001220703</ele>
        <time>2023-09-28T12:26:25.000Z</time>
      </trkpt>
      <trkpt lat="40.33381" lon="20.43942">
        <ele>986.45001220703</ele>
        <time>2023-09-28T12:26:24.000Z</time>
      </trkpt>
      <trkpt lat="40.3338" lon="20.43946">
        <ele>986.45001220703</ele>
        <time>2023-09-28T12:26:23.000Z</time>
      </trkpt>
      <trkpt lat="40.33379" lon="20.43961">
        <ele>985.96997070312</ele>
        <time>2023-09-28T12:26:22.000Z</time>
      </trkpt>
      <trkpt lat="40.33378" lon="20.43973">
        <ele>985.48999023438</ele>
        <time>2023-09-28T12:26:21.000Z</time>
      </trkpt>
      <trkpt lat="40.33375" lon="20.43982">
        <ele>985.01000976562</ele>
        <time>2023-09-28T12:26:20.000Z</time>
      </trkpt>
      <trkpt lat="40.33371" lon="20.43989">
        <ele>985.01000976562</ele>
        <time>2023-09-28T12:26:19.000Z</time>
      </trkpt>
      <trkpt lat="40.33364" lon="20.43998">
        <ele>985.01000976562</ele>
        <time>2023-09-28T12:26:18.000Z</time>
      </trkpt>
      <trkpt lat="40.33356" lon="20.44008">
        <ele>984.53002929688</ele>
        <time>2023-09-28T12:26:17.000Z</time>
      </trkpt>
      <trkpt lat="40.33351" lon="20.44015">
        <ele>984.53002929688</ele>
        <time>2023-09-28T12:26:16.000Z</time>
      </trkpt>
      <trkpt lat="40.33341" lon="20.44028">
        <ele>984.53002929688</ele>
        <time>2023-09-28T12:26:15.000Z</time>
      </trkpt>
      <trkpt lat="40.33334" lon="20.44038">
        <ele>984.04998779297</ele>
        <time>2023-09-28T12:26:14.000Z</time>
      </trkpt>
      <trkpt lat="40.33331" lon="20.44041">
        <ele>983.57000732422</ele>
        <time>2023-09-28T12:26:13.000Z</time>
      </trkpt>
      <trkpt lat="40.33317" lon="20.44057">
        <ele>984.04998779297</ele>
        <time>2023-09-28T12:26:12.000Z</time>
      </trkpt>
      <trkpt lat="40.33305" lon="20.44074">
        <ele>985.01000976562</ele>
        <time>2023-09-28T12:26:10.000Z</time>
      </trkpt>
      <trkpt lat="40.33301" lon="20.4408">
        <ele>985.48999023438</ele>
        <time>2023-09-28T12:26:09.000Z</time>
      </trkpt>
      <trkpt lat="40.33291" lon="20.44095">
        <ele>986.45001220703</ele>
        <time>2023-09-28T12:26:08.000Z</time>
      </trkpt>
      <trkpt lat="40.33288" lon="20.441">
        <ele>986.92999267578</ele>
        <time>2023-09-28T12:26:07.000Z</time>
      </trkpt>
      <trkpt lat="40.33284" lon="20.44108">
        <ele>986.92999267578</ele>
        <time>2023-09-28T12:26:06.000Z</time>
      </trkpt>
      <trkpt lat="40.33279" lon="20.44116">
        <ele>987.40997314453</ele>
        <time>2023-09-28T12:26:05.000Z</time>
      </trkpt>
      <trkpt lat="40.33275" lon="20.44121">
        <ele>987.89001464844</ele>
        <time>2023-09-28T12:26:04.000Z</time>
      </trkpt>
      <trkpt lat="40.33269" lon="20.44126">
        <ele>988.36999511719</ele>
        <time>2023-09-28T12:26:03.000Z</time>
      </trkpt>
      <trkpt lat="40.33263" lon="20.44128">
        <ele>988.36999511719</ele>
        <time>2023-09-28T12:26:02.000Z</time>
      </trkpt>
      <trkpt lat="40.33258" lon="20.44129">
        <ele>987.89001464844</ele>
        <time>2023-09-28T12:26:01.000Z</time>
      </trkpt>
      <trkpt lat="40.33248" lon="20.44131">
        <ele>986.45001220703</ele>
        <time>2023-09-28T12:26:00.000Z</time>
      </trkpt>
      <trkpt lat="40.33242" lon="20.44133">
        <ele>985.96997070312</ele>
        <time>2023-09-28T12:25:59.000Z</time>
      </trkpt>
      <trkpt lat="40.33235" lon="20.44137">
        <ele>985.96997070312</ele>
        <time>2023-09-28T12:25:58.000Z</time>
      </trkpt>
      <trkpt lat="40.3322" lon="20.44149">
        <ele>985.96997070312</ele>
        <time>2023-09-28T12:25:56.000Z</time>
      </trkpt>
      <trkpt lat="40.33214" lon="20.44154">
        <ele>985.48999023438</ele>
        <time>2023-09-28T12:25:55.000Z</time>
      </trkpt>
      <trkpt lat="40.33208" lon="20.44158">
        <ele>985.01000976562</ele>
        <time>2023-09-28T12:25:54.000Z</time>
      </trkpt>
      <trkpt lat="40.33192" lon="20.44165">
        <ele>984.53002929688</ele>
        <time>2023-09-28T12:25:52.000Z</time>
      </trkpt>
      <trkpt lat="40.33181" lon="20.4417">
        <ele>984.04998779297</ele>
        <time>2023-09-28T12:25:51.000Z</time>
      </trkpt>
      <trkpt lat="40.33174" lon="20.44172">
        <ele>983.57000732422</ele>
        <time>2023-09-28T12:25:50.000Z</time>
      </trkpt>
      <trkpt lat="40.33168" lon="20.44172">
        <ele>982.59997558594</ele>
        <time>2023-09-28T12:25:49.000Z</time>
      </trkpt>
      <trkpt lat="40.33159" lon="20.44171">
        <ele>982.11999511719</ele>
        <time>2023-09-28T12:25:48.000Z</time>
      </trkpt>
      <trkpt lat="40.33151" lon="20.44171">
        <ele>981.64001464844</ele>
        <time>2023-09-28T12:25:47.000Z</time>
      </trkpt>
      <trkpt lat="40.33143" lon="20.44174">
        <ele>981.64001464844</ele>
        <time>2023-09-28T12:25:46.000Z</time>
      </trkpt>
      <trkpt lat="40.33133" lon="20.44178">
        <ele>982.11999511719</ele>
        <time>2023-09-28T12:25:45.000Z</time>
      </trkpt>
      <trkpt lat="40.33116" lon="20.44187">
        <ele>981.64001464844</ele>
        <time>2023-09-28T12:25:43.000Z</time>
      </trkpt>
      <trkpt lat="40.33109" lon="20.4419">
        <ele>981.15997314453</ele>
        <time>2023-09-28T12:25:42.000Z</time>
      </trkpt>
      <trkpt lat="40.33103" lon="20.44191">
        <ele>981.15997314453</ele>
        <time>2023-09-28T12:25:41.000Z</time>
      </trkpt>
      <trkpt lat="40.33096" lon="20.44191">
        <ele>980.67999267578</ele>
        <time>2023-09-28T12:25:40.000Z</time>
      </trkpt>
      <trkpt lat="40.3309" lon="20.44192">
        <ele>980.20001220703</ele>
        <time>2023-09-28T12:25:39.000Z</time>
      </trkpt>
      <trkpt lat="40.33085" lon="20.44196">
        <ele>979.71997070312</ele>
        <time>2023-09-28T12:25:38.000Z</time>
      </trkpt>
      <trkpt lat="40.33082" lon="20.44201">
        <ele>979.23999023438</ele>
        <time>2023-09-28T12:25:37.000Z</time>
      </trkpt>
      <trkpt lat="40.3308" lon="20.44211">
        <ele>978.76000976562</ele>
        <time>2023-09-28T12:25:36.000Z</time>
      </trkpt>
      <trkpt lat="40.33078" lon="20.44217">
        <ele>978.76000976562</ele>
        <time>2023-09-28T12:25:35.000Z</time>
      </trkpt>
      <trkpt lat="40.33074" lon="20.44227">
        <ele>977.79998779297</ele>
        <time>2023-09-28T12:25:34.000Z</time>
      </trkpt>
      <trkpt lat="40.33072" lon="20.4423">
        <ele>977.32000732422</ele>
        <time>2023-09-28T12:25:33.000Z</time>
      </trkpt>
      <trkpt lat="40.33064" lon="20.44243">
        <ele>976.35998535156</ele>
        <time>2023-09-28T12:25:32.000Z</time>
      </trkpt>
      <trkpt lat="40.33059" lon="20.4425">
        <ele>975.88000488281</ele>
        <time>2023-09-28T12:25:31.000Z</time>
      </trkpt>
      <trkpt lat="40.33054" lon="20.44256">
        <ele>975.88000488281</ele>
        <time>2023-09-28T12:25:30.000Z</time>
      </trkpt>
      <trkpt lat="40.33047" lon="20.44263">
        <ele>974.90997314453</ele>
        <time>2023-09-28T12:25:29.000Z</time>
      </trkpt>
      <trkpt lat="40.33041" lon="20.44268">
        <ele>974.42999267578</ele>
        <time>2023-09-28T12:25:28.000Z</time>
      </trkpt>
      <trkpt lat="40.33036" lon="20.44272">
        <ele>973.46997070312</ele>
        <time>2023-09-28T12:25:27.000Z</time>
      </trkpt>
      <trkpt lat="40.33027" lon="20.44278">
        <ele>972.98999023438</ele>
        <time>2023-09-28T12:25:26.000Z</time>
      </trkpt>
      <trkpt lat="40.33021" lon="20.44282">
        <ele>972.51000976562</ele>
        <time>2023-09-28T12:25:25.000Z</time>
      </trkpt>
      <trkpt lat="40.33013" lon="20.44286">
        <ele>972.03002929688</ele>
        <time>2023-09-28T12:25:24.000Z</time>
      </trkpt>
      <trkpt lat="40.33008" lon="20.44288">
        <ele>971.54998779297</ele>
        <time>2023-09-28T12:25:23.000Z</time>
      </trkpt>
      <trkpt lat="40.32978" lon="20.44296">
        <ele>970.10998535156</ele>
        <time>2023-09-28T12:25:20.000Z</time>
      </trkpt>
      <trkpt lat="40.3297" lon="20.44297">
        <ele>970.10998535156</ele>
        <time>2023-09-28T12:25:19.000Z</time>
      </trkpt>
      <trkpt lat="40.32963" lon="20.44297">
        <ele>969.63000488281</ele>
        <time>2023-09-28T12:25:18.000Z</time>
      </trkpt>
      <trkpt lat="40.32958" lon="20.44297">
        <ele>969.63000488281</ele>
        <time>2023-09-28T12:25:17.000Z</time>
      </trkpt>
      <trkpt lat="40.32951" lon="20.44297">
        <ele>969.63000488281</ele>
        <time>2023-09-28T12:25:16.000Z</time>
      </trkpt>
      <trkpt lat="40.32948" lon="20.44298">
        <ele>969.63000488281</ele>
        <time>2023-09-28T12:25:15.000Z</time>
      </trkpt>
      <trkpt lat="40.32943" lon="20.44307">
        <ele>970.10998535156</ele>
        <time>2023-09-28T12:25:13.000Z</time>
      </trkpt>
      <trkpt lat="40.32943" lon="20.44312">
        <ele>970.59002685547</ele>
        <time>2023-09-28T12:25:12.000Z</time>
      </trkpt>
      <trkpt lat="40.32945" lon="20.44318">
        <ele>970.59002685547</ele>
        <time>2023-09-28T12:25:11.000Z</time>
      </trkpt>
      <trkpt lat="40.32947" lon="20.44325">
        <ele>970.59002685547</ele>
        <time>2023-09-28T12:25:10.000Z</time>
      </trkpt>
      <trkpt lat="40.32949" lon="20.44334">
        <ele>970.59002685547</ele>
        <time>2023-09-28T12:25:09.000Z</time>
      </trkpt>
      <trkpt lat="40.32949" lon="20.44342">
        <ele>971.07000732422</ele>
        <time>2023-09-28T12:25:08.000Z</time>
      </trkpt>
      <trkpt lat="40.32948" lon="20.4435">
        <ele>971.07000732422</ele>
        <time>2023-09-28T12:25:07.000Z</time>
      </trkpt>
      <trkpt lat="40.32946" lon="20.4436">
        <ele>972.03002929688</ele>
        <time>2023-09-28T12:25:06.000Z</time>
      </trkpt>
      <trkpt lat="40.32943" lon="20.44371">
        <ele>972.98999023438</ele>
        <time>2023-09-28T12:25:05.000Z</time>
      </trkpt>
      <trkpt lat="40.32939" lon="20.44381">
        <ele>973.46997070312</ele>
        <time>2023-09-28T12:25:04.000Z</time>
      </trkpt>
      <trkpt lat="40.32936" lon="20.44391">
        <ele>973.95001220703</ele>
        <time>2023-09-28T12:25:03.000Z</time>
      </trkpt>
      <trkpt lat="40.32935" lon="20.44395">
        <ele>974.42999267578</ele>
        <time>2023-09-28T12:25:02.000Z</time>
      </trkpt>
      <trkpt lat="40.32932" lon="20.44403">
        <ele>974.90997314453</ele>
        <time>2023-09-28T12:25:01.000Z</time>
      </trkpt>
      <trkpt lat="40.32929" lon="20.44413">
        <ele>975.39001464844</ele>
        <time>2023-09-28T12:25:00.000Z</time>
      </trkpt>
      <trkpt lat="40.32926" lon="20.44419">
        <ele>975.88000488281</ele>
        <time>2023-09-28T12:24:59.000Z</time>
      </trkpt>
      <trkpt lat="40.32923" lon="20.44425">
        <ele>976.35998535156</ele>
        <time>2023-09-28T12:24:58.000Z</time>
      </trkpt>
      <trkpt lat="40.32919" lon="20.44431">
        <ele>976.84002685547</ele>
        <time>2023-09-28T12:24:57.000Z</time>
      </trkpt>
      <trkpt lat="40.32915" lon="20.44436">
        <ele>976.84002685547</ele>
        <time>2023-09-28T12:24:56.000Z</time>
      </trkpt>
      <trkpt lat="40.32911" lon="20.4444">
        <ele>977.32000732422</ele>
        <time>2023-09-28T12:24:55.000Z</time>
      </trkpt>
      <trkpt lat="40.32902" lon="20.4445">
        <ele>977.79998779297</ele>
        <time>2023-09-28T12:24:53.000Z</time>
      </trkpt>
      <trkpt lat="40.32898" lon="20.44454">
        <ele>978.28002929688</ele>
        <time>2023-09-28T12:24:52.000Z</time>
      </trkpt>
      <trkpt lat="40.32893" lon="20.44459">
        <ele>978.28002929688</ele>
        <time>2023-09-28T12:24:51.000Z</time>
      </trkpt>
      <trkpt lat="40.32892" lon="20.4446">
        <ele>978.28002929688</ele>
        <time>2023-09-28T12:24:50.000Z</time>
      </trkpt>
      <trkpt lat="40.32877" lon="20.44463">
        <ele>978.28002929688</ele>
        <time>2023-09-28T12:24:45.000Z</time>
      </trkpt>
      <trkpt lat="40.32874" lon="20.44457">
        <ele>977.79998779297</ele>
        <time>2023-09-28T12:24:44.000Z</time>
      </trkpt>
      <trkpt lat="40.32872" lon="20.44454">
        <ele>977.79998779297</ele>
        <time>2023-09-28T12:24:43.000Z</time>
      </trkpt>
      <trkpt lat="40.32866" lon="20.44441">
        <ele>977.79998779297</ele>
        <time>2023-09-28T12:24:42.000Z</time>
      </trkpt>
      <trkpt lat="40.32862" lon="20.44433">
        <ele>977.32000732422</ele>
        <time>2023-09-28T12:24:41.000Z</time>
      </trkpt>
      <trkpt lat="40.3286" lon="20.44427">
        <ele>977.79998779297</ele>
        <time>2023-09-28T12:24:40.000Z</time>
      </trkpt>
      <trkpt lat="40.32854" lon="20.44417">
        <ele>977.32000732422</ele>
        <time>2023-09-28T12:24:39.000Z</time>
      </trkpt>
      <trkpt lat="40.3285" lon="20.4441">
        <ele>977.79998779297</ele>
        <time>2023-09-28T12:24:38.000Z</time>
      </trkpt>
      <trkpt lat="40.32845" lon="20.44405">
        <ele>977.79998779297</ele>
        <time>2023-09-28T12:24:37.000Z</time>
      </trkpt>
      <trkpt lat="40.32839" lon="20.44402">
        <ele>978.28002929688</ele>
        <time>2023-09-28T12:24:36.000Z</time>
      </trkpt>
      <trkpt lat="40.32833" lon="20.444">
        <ele>979.23999023438</ele>
        <time>2023-09-28T12:24:35.000Z</time>
      </trkpt>
      <trkpt lat="40.32826" lon="20.444">
        <ele>979.71997070312</ele>
        <time>2023-09-28T12:24:34.000Z</time>
      </trkpt>
      <trkpt lat="40.3282" lon="20.44399">
        <ele>980.20001220703</ele>
        <time>2023-09-28T12:24:33.000Z</time>
      </trkpt>
      <trkpt lat="40.32815" lon="20.44397">
        <ele>980.67999267578</ele>
        <time>2023-09-28T12:24:32.000Z</time>
      </trkpt>
      <trkpt lat="40.32811" lon="20.44394">
        <ele>980.67999267578</ele>
        <time>2023-09-28T12:24:31.000Z</time>
      </trkpt>
      <trkpt lat="40.32805" lon="20.44389">
        <ele>981.15997314453</ele>
        <time>2023-09-28T12:24:30.000Z</time>
      </trkpt>
      <trkpt lat="40.328" lon="20.44387">
        <ele>980.67999267578</ele>
        <time>2023-09-28T12:24:29.000Z</time>
      </trkpt>
      <trkpt lat="40.32796" lon="20.44387">
        <ele>980.67999267578</ele>
        <time>2023-09-28T12:24:28.000Z</time>
      </trkpt>
      <trkpt lat="40.32792" lon="20.44388">
        <ele>981.15997314453</ele>
        <time>2023-09-28T12:24:27.000Z</time>
      </trkpt>
      <trkpt lat="40.32788" lon="20.44389">
        <ele>981.15997314453</ele>
        <time>2023-09-28T12:24:26.000Z</time>
      </trkpt>
      <trkpt lat="40.32782" lon="20.44393">
        <ele>982.11999511719</ele>
        <time>2023-09-28T12:24:25.000Z</time>
      </trkpt>
      <trkpt lat="40.32777" lon="20.44397">
        <ele>983.09002685547</ele>
        <time>2023-09-28T12:24:24.000Z</time>
      </trkpt>
      <trkpt lat="40.3277" lon="20.44401">
        <ele>983.09002685547</ele>
        <time>2023-09-28T12:24:23.000Z</time>
      </trkpt>
      <trkpt lat="40.32762" lon="20.44405">
        <ele>983.57000732422</ele>
        <time>2023-09-28T12:24:22.000Z</time>
      </trkpt>
      <trkpt lat="40.32754" lon="20.44409">
        <ele>984.04998779297</ele>
        <time>2023-09-28T12:24:21.000Z</time>
      </trkpt>
      <trkpt lat="40.32747" lon="20.44413">
        <ele>984.53002929688</ele>
        <time>2023-09-28T12:24:20.000Z</time>
      </trkpt>
      <trkpt lat="40.32738" lon="20.44417">
        <ele>985.01000976562</ele>
        <time>2023-09-28T12:24:19.000Z</time>
      </trkpt>
      <trkpt lat="40.32732" lon="20.4442">
        <ele>985.01000976562</ele>
        <time>2023-09-28T12:24:18.000Z</time>
      </trkpt>
      <trkpt lat="40.32729" lon="20.4442">
        <ele>985.01000976562</ele>
        <time>2023-09-28T12:24:17.000Z</time>
      </trkpt>
      <trkpt lat="40.32716" lon="20.44423">
        <ele>985.48999023438</ele>
        <time>2023-09-28T12:24:16.000Z</time>
      </trkpt>
      <trkpt lat="40.32713" lon="20.44423">
        <ele>985.48999023438</ele>
        <time>2023-09-28T12:24:15.000Z</time>
      </trkpt>
      <trkpt lat="40.32702" lon="20.44423">
        <ele>985.48999023438</ele>
        <time>2023-09-28T12:24:14.000Z</time>
      </trkpt>
      <trkpt lat="40.32694" lon="20.44424">
        <ele>985.48999023438</ele>
        <time>2023-09-28T12:24:13.000Z</time>
      </trkpt>
      <trkpt lat="40.32688" lon="20.44423">
        <ele>985.01000976562</ele>
        <time>2023-09-28T12:24:12.000Z</time>
      </trkpt>
      <trkpt lat="40.32682" lon="20.44421">
        <ele>984.53002929688</ele>
        <time>2023-09-28T12:24:11.000Z</time>
      </trkpt>
      <trkpt lat="40.32677" lon="20.44417">
        <ele>983.57000732422</ele>
        <time>2023-09-28T12:24:10.000Z</time>
      </trkpt>
      <trkpt lat="40.32669" lon="20.44411">
        <ele>982.59997558594</ele>
        <time>2023-09-28T12:24:09.000Z</time>
      </trkpt>
      <trkpt lat="40.32662" lon="20.44404">
        <ele>982.11999511719</ele>
        <time>2023-09-28T12:24:08.000Z</time>
      </trkpt>
      <trkpt lat="40.32653" lon="20.44396">
        <ele>982.11999511719</ele>
        <time>2023-09-28T12:24:07.000Z</time>
      </trkpt>
      <trkpt lat="40.32646" lon="20.44391">
        <ele>982.11999511719</ele>
        <time>2023-09-28T12:24:06.000Z</time>
      </trkpt>
      <trkpt lat="40.32639" lon="20.44386">
        <ele>982.11999511719</ele>
        <time>2023-09-28T12:24:05.000Z</time>
      </trkpt>
      <trkpt lat="40.3263" lon="20.44381">
        <ele>982.59997558594</ele>
        <time>2023-09-28T12:24:04.000Z</time>
      </trkpt>
      <trkpt lat="40.32606" lon="20.44366">
        <ele>983.09002685547</ele>
        <time>2023-09-28T12:24:01.000Z</time>
      </trkpt>
      <trkpt lat="40.32601" lon="20.44364">
        <ele>983.09002685547</ele>
        <time>2023-09-28T12:24:00.000Z</time>
      </trkpt>
      <trkpt lat="40.32595" lon="20.44361">
        <ele>983.09002685547</ele>
        <time>2023-09-28T12:23:59.000Z</time>
      </trkpt>
      <trkpt lat="40.32589" lon="20.44358">
        <ele>983.09002685547</ele>
        <time>2023-09-28T12:23:58.000Z</time>
      </trkpt>
      <trkpt lat="40.32585" lon="20.44357">
        <ele>982.59997558594</ele>
        <time>2023-09-28T12:23:57.000Z</time>
      </trkpt>
      <trkpt lat="40.32581" lon="20.44357">
        <ele>982.59997558594</ele>
        <time>2023-09-28T12:23:56.000Z</time>
      </trkpt>
      <trkpt lat="40.32577" lon="20.44361">
        <ele>982.11999511719</ele>
        <time>2023-09-28T12:23:55.000Z</time>
      </trkpt>
      <trkpt lat="40.32575" lon="20.44366">
        <ele>982.11999511719</ele>
        <time>2023-09-28T12:23:54.000Z</time>
      </trkpt>
      <trkpt lat="40.32575" lon="20.44371">
        <ele>982.11999511719</ele>
        <time>2023-09-28T12:23:53.000Z</time>
      </trkpt>
      <trkpt lat="40.32576" lon="20.44378">
        <ele>981.64001464844</ele>
        <time>2023-09-28T12:23:52.000Z</time>
      </trkpt>
      <trkpt lat="40.32576" lon="20.44386">
        <ele>981.64001464844</ele>
        <time>2023-09-28T12:23:51.000Z</time>
      </trkpt>
      <trkpt lat="40.32576" lon="20.44396">
        <ele>981.15997314453</ele>
        <time>2023-09-28T12:23:50.000Z</time>
      </trkpt>
      <trkpt lat="40.32576" lon="20.44404">
        <ele>981.15997314453</ele>
        <time>2023-09-28T12:23:49.000Z</time>
      </trkpt>
      <trkpt lat="40.32576" lon="20.44413">
        <ele>980.67999267578</ele>
        <time>2023-09-28T12:23:48.000Z</time>
      </trkpt>
      <trkpt lat="40.32575" lon="20.44422">
        <ele>980.67999267578</ele>
        <time>2023-09-28T12:23:47.000Z</time>
      </trkpt>
      <trkpt lat="40.32574" lon="20.44425">
        <ele>980.67999267578</ele>
        <time>2023-09-28T12:23:46.000Z</time>
      </trkpt>
      <trkpt lat="40.32573" lon="20.44432">
        <ele>980.67999267578</ele>
        <time>2023-09-28T12:23:45.000Z</time>
      </trkpt>
      <trkpt lat="40.32573" lon="20.44438">
        <ele>980.67999267578</ele>
        <time>2023-09-28T12:23:44.000Z</time>
      </trkpt>
      <trkpt lat="40.32573" lon="20.44444">
        <ele>980.67999267578</ele>
        <time>2023-09-28T12:23:43.000Z</time>
      </trkpt>
      <trkpt lat="40.32574" lon="20.4445">
        <ele>980.67999267578</ele>
        <time>2023-09-28T12:23:42.000Z</time>
      </trkpt>
      <trkpt lat="40.32574" lon="20.44453">
        <ele>980.67999267578</ele>
        <time>2023-09-28T12:23:41.000Z</time>
      </trkpt>
      <trkpt lat="40.32576" lon="20.44462">
        <ele>980.20001220703</ele>
        <time>2023-09-28T12:23:40.000Z</time>
      </trkpt>
      <trkpt lat="40.32576" lon="20.4447">
        <ele>980.20001220703</ele>
        <time>2023-09-28T12:23:39.000Z</time>
      </trkpt>
      <trkpt lat="40.32576" lon="20.44476">
        <ele>979.71997070312</ele>
        <time>2023-09-28T12:23:38.000Z</time>
      </trkpt>
      <trkpt lat="40.32576" lon="20.44482">
        <ele>979.23999023438</ele>
        <time>2023-09-28T12:23:37.000Z</time>
      </trkpt>
      <trkpt lat="40.32573" lon="20.44487">
        <ele>979.23999023438</ele>
        <time>2023-09-28T12:23:36.000Z</time>
      </trkpt>
      <trkpt lat="40.32568" lon="20.44492">
        <ele>977.79998779297</ele>
        <time>2023-09-28T12:23:35.000Z</time>
      </trkpt>
      <trkpt lat="40.32564" lon="20.44495">
        <ele>976.84002685547</ele>
        <time>2023-09-28T12:23:34.000Z</time>
      </trkpt>
      <trkpt lat="40.32556" lon="20.44498">
        <ele>976.35998535156</ele>
        <time>2023-09-28T12:23:33.000Z</time>
      </trkpt>
      <trkpt lat="40.32547" lon="20.44503">
        <ele>975.88000488281</ele>
        <time>2023-09-28T12:23:32.000Z</time>
      </trkpt>
      <trkpt lat="40.32539" lon="20.44508">
        <ele>975.39001464844</ele>
        <time>2023-09-28T12:23:31.000Z</time>
      </trkpt>
      <trkpt lat="40.32533" lon="20.44514">
        <ele>974.90997314453</ele>
        <time>2023-09-28T12:23:30.000Z</time>
      </trkpt>
      <trkpt lat="40.32528" lon="20.4452">
        <ele>974.42999267578</ele>
        <time>2023-09-28T12:23:29.000Z</time>
      </trkpt>
      <trkpt lat="40.32523" lon="20.44527">
        <ele>973.95001220703</ele>
        <time>2023-09-28T12:23:28.000Z</time>
      </trkpt>
      <trkpt lat="40.32517" lon="20.44533">
        <ele>973.46997070312</ele>
        <time>2023-09-28T12:23:27.000Z</time>
      </trkpt>
      <trkpt lat="40.32513" lon="20.44536">
        <ele>972.98999023438</ele>
        <time>2023-09-28T12:23:26.000Z</time>
      </trkpt>
      <trkpt lat="40.32507" lon="20.44539">
        <ele>972.51000976562</ele>
        <time>2023-09-28T12:23:25.000Z</time>
      </trkpt>
      <trkpt lat="40.32499" lon="20.44541">
        <ele>971.54998779297</ele>
        <time>2023-09-28T12:23:24.000Z</time>
      </trkpt>
      <trkpt lat="40.3249" lon="20.44543">
        <ele>971.07000732422</ele>
        <time>2023-09-28T12:23:23.000Z</time>
      </trkpt>
      <trkpt lat="40.32475" lon="20.44545">
        <ele>970.59002685547</ele>
        <time>2023-09-28T12:23:21.000Z</time>
      </trkpt>
      <trkpt lat="40.32469" lon="20.44545">
        <ele>970.59002685547</ele>
        <time>2023-09-28T12:23:20.000Z</time>
      </trkpt>
      <trkpt lat="40.32464" lon="20.44543">
        <ele>970.59002685547</ele>
        <time>2023-09-28T12:23:19.000Z</time>
      </trkpt>
      <trkpt lat="40.32459" lon="20.4454">
        <ele>970.10998535156</ele>
        <time>2023-09-28T12:23:18.000Z</time>
      </trkpt>
      <trkpt lat="40.32451" lon="20.44533">
        <ele>970.10998535156</ele>
        <time>2023-09-28T12:23:17.000Z</time>
      </trkpt>
      <trkpt lat="40.32446" lon="20.44528">
        <ele>970.10998535156</ele>
        <time>2023-09-28T12:23:16.000Z</time>
      </trkpt>
      <trkpt lat="40.3244" lon="20.44522">
        <ele>970.10998535156</ele>
        <time>2023-09-28T12:23:15.000Z</time>
      </trkpt>
      <trkpt lat="40.32437" lon="20.44516">
        <ele>970.10998535156</ele>
        <time>2023-09-28T12:23:14.000Z</time>
      </trkpt>
      <trkpt lat="40.32435" lon="20.4451">
        <ele>969.63000488281</ele>
        <time>2023-09-28T12:23:13.000Z</time>
      </trkpt>
      <trkpt lat="40.32434" lon="20.44504">
        <ele>969.15002441406</ele>
        <time>2023-09-28T12:23:12.000Z</time>
      </trkpt>
      <trkpt lat="40.32433" lon="20.44496">
        <ele>969.15002441406</ele>
        <time>2023-09-28T12:23:11.000Z</time>
      </trkpt>
      <trkpt lat="40.32433" lon="20.44488">
        <ele>968.17999267578</ele>
        <time>2023-09-28T12:23:10.000Z</time>
      </trkpt>
      <trkpt lat="40.32433" lon="20.44479">
        <ele>968.17999267578</ele>
        <time>2023-09-28T12:23:09.000Z</time>
      </trkpt>
      <trkpt lat="40.32433" lon="20.44474">
        <ele>967.70001220703</ele>
        <time>2023-09-28T12:23:08.000Z</time>
      </trkpt>
      <trkpt lat="40.32422" lon="20.44466">
        <ele>967.70001220703</ele>
        <time>2023-09-28T12:23:04.000Z</time>
      </trkpt>
      <trkpt lat="40.32418" lon="20.44468">
        <ele>968.17999267578</ele>
        <time>2023-09-28T12:23:03.000Z</time>
      </trkpt>
      <trkpt lat="40.32414" lon="20.4447">
        <ele>968.17999267578</ele>
        <time>2023-09-28T12:23:02.000Z</time>
      </trkpt>
      <trkpt lat="40.32411" lon="20.44473">
        <ele>968.66998291016</ele>
        <time>2023-09-28T12:23:01.000Z</time>
      </trkpt>
      <trkpt lat="40.32409" lon="20.44474">
        <ele>968.66998291016</ele>
        <time>2023-09-28T12:23:00.000Z</time>
      </trkpt>
      <trkpt lat="40.32394" lon="20.44464">
        <ele>968.17999267578</ele>
        <time>2023-09-28T12:22:54.000Z</time>
      </trkpt>
      <trkpt lat="40.32387" lon="20.4444">
        <ele>968.17999267578</ele>
        <time>2023-09-28T12:22:49.000Z</time>
      </trkpt>
      <trkpt lat="40.32386" lon="20.44436">
        <ele>967.70001220703</ele>
        <time>2023-09-28T12:22:48.000Z</time>
      </trkpt>
      <trkpt lat="40.32385" lon="20.44434">
        <ele>967.70001220703</ele>
        <time>2023-09-28T12:22:47.000Z</time>
      </trkpt>
      <trkpt lat="40.32374" lon="20.44419">
        <ele>967.21997070312</ele>
        <time>2023-09-28T12:22:43.000Z</time>
      </trkpt>
      <trkpt lat="40.32362" lon="20.44413">
        <ele>967.70001220703</ele>
        <time>2023-09-28T12:22:40.000Z</time>
      </trkpt>
      <trkpt lat="40.32358" lon="20.44412">
        <ele>967.70001220703</ele>
        <time>2023-09-28T12:22:39.000Z</time>
      </trkpt>
      <trkpt lat="40.32354" lon="20.44411">
        <ele>967.70001220703</ele>
        <time>2023-09-28T12:22:38.000Z</time>
      </trkpt>
      <trkpt lat="40.32347" lon="20.4441">
        <ele>968.17999267578</ele>
        <time>2023-09-28T12:22:37.000Z</time>
      </trkpt>
      <trkpt lat="40.32345" lon="20.44409">
        <ele>968.17999267578</ele>
        <time>2023-09-28T12:22:36.000Z</time>
      </trkpt>
      <trkpt lat="40.32338" lon="20.44401">
        <ele>968.66998291016</ele>
        <time>2023-09-28T12:22:34.000Z</time>
      </trkpt>
      <trkpt lat="40.32336" lon="20.44397">
        <ele>968.17999267578</ele>
        <time>2023-09-28T12:22:33.000Z</time>
      </trkpt>
      <trkpt lat="40.32335" lon="20.44393">
        <ele>967.70001220703</ele>
        <time>2023-09-28T12:22:32.000Z</time>
      </trkpt>
      <trkpt lat="40.32331" lon="20.4438">
        <ele>967.21997070312</ele>
        <time>2023-09-28T12:22:31.000Z</time>
      </trkpt>
      <trkpt lat="40.32329" lon="20.44374">
        <ele>967.21997070312</ele>
        <time>2023-09-28T12:22:30.000Z</time>
      </trkpt>
      <trkpt lat="40.32327" lon="20.44366">
        <ele>967.21997070312</ele>
        <time>2023-09-28T12:22:29.000Z</time>
      </trkpt>
      <trkpt lat="40.32325" lon="20.4436">
        <ele>966.73999023438</ele>
        <time>2023-09-28T12:22:28.000Z</time>
      </trkpt>
      <trkpt lat="40.32324" lon="20.44356">
        <ele>966.73999023438</ele>
        <time>2023-09-28T12:22:27.000Z</time>
      </trkpt>
      <trkpt lat="40.32323" lon="20.44349">
        <ele>966.73999023438</ele>
        <time>2023-09-28T12:22:26.000Z</time>
      </trkpt>
      <trkpt lat="40.32322" lon="20.4434">
        <ele>966.26000976562</ele>
        <time>2023-09-28T12:22:04.000Z</time>
      </trkpt>
      <trkpt lat="40.32322" lon="20.44333">
        <ele>965.78002929688</ele>
        <time>2023-09-28T12:21:57.000Z</time>
      </trkpt>
      <trkpt lat="40.32315" lon="20.44314">
        <ele>967.21997070312</ele>
        <time>2023-09-28T12:13:09.000Z</time>
      </trkpt>
      <trkpt lat="40.32302" lon="20.44315">
        <ele>968.17999267578</ele>
        <time>2023-09-28T12:13:03.000Z</time>
      </trkpt>
      <trkpt lat="40.32301" lon="20.44317">
        <ele>968.17999267578</ele>
        <time>2023-09-28T12:13:02.000Z</time>
      </trkpt>
      <trkpt lat="40.32295" lon="20.44324">
        <ele>968.17999267578</ele>
        <time>2023-09-28T12:13:01.000Z</time>
      </trkpt>
      <trkpt lat="40.32291" lon="20.44327">
        <ele>968.17999267578</ele>
        <time>2023-09-28T12:13:00.000Z</time>
      </trkpt>
      <trkpt lat="40.32284" lon="20.44332">
        <ele>967.21997070312</ele>
        <time>2023-09-28T12:12:59.000Z</time>
      </trkpt>
      <trkpt lat="40.32279" lon="20.44334">
        <ele>967.21997070312</ele>
        <time>2023-09-28T12:12:58.000Z</time>
      </trkpt>
      <trkpt lat="40.32274" lon="20.44335">
        <ele>967.21997070312</ele>
        <time>2023-09-28T12:12:57.000Z</time>
      </trkpt>
      <trkpt lat="40.3227" lon="20.44336">
        <ele>966.73999023438</ele>
        <time>2023-09-28T12:12:56.000Z</time>
      </trkpt>
      <trkpt lat="40.32268" lon="20.44337">
        <ele>966.73999023438</ele>
        <time>2023-09-28T12:12:55.000Z</time>
      </trkpt>
      <trkpt lat="40.32252" lon="20.44345">
        <ele>966.26000976562</ele>
        <time>2023-09-28T12:12:51.000Z</time>
      </trkpt>
      <trkpt lat="40.32248" lon="20.44346">
        <ele>966.26000976562</ele>
        <time>2023-09-28T12:12:50.000Z</time>
      </trkpt>
      <trkpt lat="40.32241" lon="20.44345">
        <ele>965.78002929688</ele>
        <time>2023-09-28T12:12:49.000Z</time>
      </trkpt>
      <trkpt lat="40.32237" lon="20.44344">
        <ele>965.29998779297</ele>
        <time>2023-09-28T12:12:48.000Z</time>
      </trkpt>
      <trkpt lat="40.3223" lon="20.44342">
        <ele>965.29998779297</ele>
        <time>2023-09-28T12:12:47.000Z</time>
      </trkpt>
      <trkpt lat="40.32224" lon="20.4434">
        <ele>965.29998779297</ele>
        <time>2023-09-28T12:12:46.000Z</time>
      </trkpt>
      <trkpt lat="40.32223" lon="20.44339">
        <ele>965.29998779297</ele>
        <time>2023-09-28T12:12:45.000Z</time>
      </trkpt>
      <trkpt lat="40.32214" lon="20.44328">
        <ele>964.34002685547</ele>
        <time>2023-09-28T12:12:42.000Z</time>
      </trkpt>
      <trkpt lat="40.32213" lon="20.44322">
        <ele>963.85998535156</ele>
        <time>2023-09-28T12:12:41.000Z</time>
      </trkpt>
      <trkpt lat="40.32213" lon="20.44315">
        <ele>963.38000488281</ele>
        <time>2023-09-28T12:12:40.000Z</time>
      </trkpt>
      <trkpt lat="40.32213" lon="20.44307">
        <ele>962.90002441406</ele>
        <time>2023-09-28T12:12:39.000Z</time>
      </trkpt>
      <trkpt lat="40.32213" lon="20.44304">
        <ele>962.90002441406</ele>
        <time>2023-09-28T12:12:38.000Z</time>
      </trkpt>
      <trkpt lat="40.3221" lon="20.44284">
        <ele>961.94000244141</ele>
        <time>2023-09-28T12:12:36.000Z</time>
      </trkpt>
      <trkpt lat="40.32209" lon="20.44271">
        <ele>961.46002197266</ele>
        <time>2023-09-28T12:12:35.000Z</time>
      </trkpt>
      <trkpt lat="40.32209" lon="20.44265">
        <ele>960.97998046875</ele>
        <time>2023-09-28T12:12:34.000Z</time>
      </trkpt>
      <trkpt lat="40.32209" lon="20.44259">
        <ele>960.97998046875</ele>
        <time>2023-09-28T12:12:33.000Z</time>
      </trkpt>
      <trkpt lat="40.32209" lon="20.44252">
        <ele>960.48999023438</ele>
        <time>2023-09-28T12:12:32.000Z</time>
      </trkpt>
      <trkpt lat="40.32209" lon="20.4424">
        <ele>960.01000976562</ele>
        <time>2023-09-28T12:12:31.000Z</time>
      </trkpt>
      <trkpt lat="40.3221" lon="20.44227">
        <ele>959.53002929688</ele>
        <time>2023-09-28T12:12:29.000Z</time>
      </trkpt>
      <trkpt lat="40.3221" lon="20.4422">
        <ele>959.53002929688</ele>
        <time>2023-09-28T12:12:28.000Z</time>
      </trkpt>
      <trkpt lat="40.32211" lon="20.44205">
        <ele>959.04998779297</ele>
        <time>2023-09-28T12:12:27.000Z</time>
      </trkpt>
      <trkpt lat="40.32211" lon="20.44198">
        <ele>958.57000732422</ele>
        <time>2023-09-28T12:12:26.000Z</time>
      </trkpt>
      <trkpt lat="40.32211" lon="20.44192">
        <ele>958.09002685547</ele>
        <time>2023-09-28T12:12:25.000Z</time>
      </trkpt>
      <trkpt lat="40.32211" lon="20.44185">
        <ele>957.60998535156</ele>
        <time>2023-09-28T12:12:24.000Z</time>
      </trkpt>
      <trkpt lat="40.3221" lon="20.44177">
        <ele>957.13000488281</ele>
        <time>2023-09-28T12:12:23.000Z</time>
      </trkpt>
      <trkpt lat="40.3221" lon="20.44168">
        <ele>956.16998291016</ele>
        <time>2023-09-28T12:12:22.000Z</time>
      </trkpt>
      <trkpt lat="40.32209" lon="20.44161">
        <ele>956.16998291016</ele>
        <time>2023-09-28T12:12:21.000Z</time>
      </trkpt>
      <trkpt lat="40.32208" lon="20.44153">
        <ele>955.21002197266</ele>
        <time>2023-09-28T12:12:20.000Z</time>
      </trkpt>
      <trkpt lat="40.32206" lon="20.44148">
        <ele>954.72998046875</ele>
        <time>2023-09-28T12:12:19.000Z</time>
      </trkpt>
      <trkpt lat="40.32206" lon="20.44144">
        <ele>954.25</ele>
        <time>2023-09-28T12:12:18.000Z</time>
      </trkpt>
      <trkpt lat="40.32205" lon="20.44138">
        <ele>953.28002929688</ele>
        <time>2023-09-28T12:12:17.000Z</time>
      </trkpt>
      <trkpt lat="40.32205" lon="20.44132">
        <ele>952.79998779297</ele>
        <time>2023-09-28T12:12:16.000Z</time>
      </trkpt>
      <trkpt lat="40.32189" lon="20.44123">
        <ele>951.84002685547</ele>
        <time>2023-09-28T12:12:10.000Z</time>
      </trkpt>
      <trkpt lat="40.32185" lon="20.44127">
        <ele>951.84002685547</ele>
        <time>2023-09-28T12:12:09.000Z</time>
      </trkpt>
      <trkpt lat="40.32182" lon="20.4413">
        <ele>951.35998535156</ele>
        <time>2023-09-28T12:12:08.000Z</time>
      </trkpt>
      <trkpt lat="40.32179" lon="20.44134">
        <ele>950.88000488281</ele>
        <time>2023-09-28T12:12:07.000Z</time>
      </trkpt>
      <trkpt lat="40.32177" lon="20.44137">
        <ele>950.40002441406</ele>
        <time>2023-09-28T12:12:06.000Z</time>
      </trkpt>
      <trkpt lat="40.32175" lon="20.44142">
        <ele>949.91998291016</ele>
        <time>2023-09-28T12:12:05.000Z</time>
      </trkpt>
      <trkpt lat="40.32171" lon="20.44151">
        <ele>949.44000244141</ele>
        <time>2023-09-28T12:12:04.000Z</time>
      </trkpt>
      <trkpt lat="40.3217" lon="20.44156">
        <ele>949.44000244141</ele>
        <time>2023-09-28T12:12:03.000Z</time>
      </trkpt>
      <trkpt lat="40.32169" lon="20.44164">
        <ele>949.44000244141</ele>
        <time>2023-09-28T12:12:02.000Z</time>
      </trkpt>
      <trkpt lat="40.32169" lon="20.44173">
        <ele>949.44000244141</ele>
        <time>2023-09-28T12:12:01.000Z</time>
      </trkpt>
      <trkpt lat="40.3217" lon="20.4418">
        <ele>949.91998291016</ele>
        <time>2023-09-28T12:12:00.000Z</time>
      </trkpt>
      <trkpt lat="40.3217" lon="20.44186">
        <ele>949.91998291016</ele>
        <time>2023-09-28T12:11:59.000Z</time>
      </trkpt>
      <trkpt lat="40.3217" lon="20.44194">
        <ele>949.91998291016</ele>
        <time>2023-09-28T12:11:58.000Z</time>
      </trkpt>
      <trkpt lat="40.3217" lon="20.44199">
        <ele>949.44000244141</ele>
        <time>2023-09-28T12:11:57.000Z</time>
      </trkpt>
      <trkpt lat="40.32168" lon="20.44209">
        <ele>949.44000244141</ele>
        <time>2023-09-28T12:11:56.000Z</time>
      </trkpt>
      <trkpt lat="40.32167" lon="20.44217">
        <ele>948.96002197266</ele>
        <time>2023-09-28T12:11:55.000Z</time>
      </trkpt>
      <trkpt lat="40.32165" lon="20.44226">
        <ele>948.96002197266</ele>
        <time>2023-09-28T12:11:54.000Z</time>
      </trkpt>
      <trkpt lat="40.32165" lon="20.44229">
        <ele>948.47998046875</ele>
        <time>2023-09-28T12:11:53.000Z</time>
      </trkpt>
      <trkpt lat="40.32161" lon="20.44245">
        <ele>948.47998046875</ele>
        <time>2023-09-28T12:11:52.000Z</time>
      </trkpt>
      <trkpt lat="40.3216" lon="20.44252">
        <ele>948.47998046875</ele>
        <time>2023-09-28T12:11:51.000Z</time>
      </trkpt>
      <trkpt lat="40.32157" lon="20.4427">
        <ele>948.47998046875</ele>
        <time>2023-09-28T12:11:50.000Z</time>
      </trkpt>
      <trkpt lat="40.32155" lon="20.44281">
        <ele>948</ele>
        <time>2023-09-28T12:11:49.000Z</time>
      </trkpt>
      <trkpt lat="40.32146" lon="20.44323">
        <ele>945.10998535156</ele>
        <time>2023-09-28T12:11:45.000Z</time>
      </trkpt>
      <trkpt lat="40.32143" lon="20.44334">
        <ele>944.15002441406</ele>
        <time>2023-09-28T12:11:44.000Z</time>
      </trkpt>
      <trkpt lat="40.3214" lon="20.44342">
        <ele>943.19000244141</ele>
        <time>2023-09-28T12:11:43.000Z</time>
      </trkpt>
      <trkpt lat="40.32136" lon="20.44348">
        <ele>942.71002197266</ele>
        <time>2023-09-28T12:11:42.000Z</time>
      </trkpt>
      <trkpt lat="40.32131" lon="20.44354">
        <ele>941.75</ele>
        <time>2023-09-28T12:11:41.000Z</time>
      </trkpt>
      <trkpt lat="40.32128" lon="20.44357">
        <ele>941.27001953125</ele>
        <time>2023-09-28T12:11:40.000Z</time>
      </trkpt>
      <trkpt lat="40.32124" lon="20.44362">
        <ele>940.78997802734</ele>
        <time>2023-09-28T12:11:39.000Z</time>
      </trkpt>
      <trkpt lat="40.32116" lon="20.44369">
        <ele>939.83001708984</ele>
        <time>2023-09-28T12:11:38.000Z</time>
      </trkpt>
      <trkpt lat="40.32111" lon="20.44372">
        <ele>938.38000488281</ele>
        <time>2023-09-28T12:11:37.000Z</time>
      </trkpt>
      <trkpt lat="40.32106" lon="20.44373">
        <ele>937.41998291016</ele>
        <time>2023-09-28T12:11:36.000Z</time>
      </trkpt>
      <trkpt lat="40.32102" lon="20.44373">
        <ele>937.41998291016</ele>
        <time>2023-09-28T12:11:35.000Z</time>
      </trkpt>
      <trkpt lat="40.32096" lon="20.44372">
        <ele>936.94000244141</ele>
        <time>2023-09-28T12:11:34.000Z</time>
      </trkpt>
      <trkpt lat="40.3209" lon="20.44371">
        <ele>936.46002197266</ele>
        <time>2023-09-28T12:11:33.000Z</time>
      </trkpt>
      <trkpt lat="40.32086" lon="20.4437">
        <ele>936.46002197266</ele>
        <time>2023-09-28T12:11:32.000Z</time>
      </trkpt>
      <trkpt lat="40.32074" lon="20.44377">
        <ele>937.41998291016</ele>
        <time>2023-09-28T12:11:28.000Z</time>
      </trkpt>
      <trkpt lat="40.32072" lon="20.44384">
        <ele>936.94000244141</ele>
        <time>2023-09-28T12:11:27.000Z</time>
      </trkpt>
      <trkpt lat="40.32072" lon="20.44391">
        <ele>936.94000244141</ele>
        <time>2023-09-28T12:11:26.000Z</time>
      </trkpt>
      <trkpt lat="40.32074" lon="20.44397">
        <ele>936.94000244141</ele>
        <time>2023-09-28T12:11:25.000Z</time>
      </trkpt>
      <trkpt lat="40.32075" lon="20.44405">
        <ele>936.46002197266</ele>
        <time>2023-09-28T12:11:24.000Z</time>
      </trkpt>
      <trkpt lat="40.32077" lon="20.44411">
        <ele>935.97998046875</ele>
        <time>2023-09-28T12:11:23.000Z</time>
      </trkpt>
      <trkpt lat="40.32079" lon="20.44417">
        <ele>935.5</ele>
        <time>2023-09-28T12:11:22.000Z</time>
      </trkpt>
      <trkpt lat="40.32082" lon="20.44427">
        <ele>935.02001953125</ele>
        <time>2023-09-28T12:11:21.000Z</time>
      </trkpt>
      <trkpt lat="40.32084" lon="20.44434">
        <ele>934.53997802734</ele>
        <time>2023-09-28T12:11:20.000Z</time>
      </trkpt>
      <trkpt lat="40.32087" lon="20.44443">
        <ele>933.58001708984</ele>
        <time>2023-09-28T12:11:19.000Z</time>
      </trkpt>
      <trkpt lat="40.32089" lon="20.44448">
        <ele>933.58001708984</ele>
        <time>2023-09-28T12:11:18.000Z</time>
      </trkpt>
      <trkpt lat="40.32093" lon="20.44455">
        <ele>933.09997558594</ele>
        <time>2023-09-28T12:11:17.000Z</time>
      </trkpt>
      <trkpt lat="40.32097" lon="20.4446">
        <ele>933.09997558594</ele>
        <time>2023-09-28T12:11:16.000Z</time>
      </trkpt>
      <trkpt lat="40.321" lon="20.44465">
        <ele>932.61999511719</ele>
        <time>2023-09-28T12:11:15.000Z</time>
      </trkpt>
      <trkpt lat="40.32103" lon="20.4447">
        <ele>932.61999511719</ele>
        <time>2023-09-28T12:11:14.000Z</time>
      </trkpt>
      <trkpt lat="40.32104" lon="20.44474">
        <ele>932.61999511719</ele>
        <time>2023-09-28T12:11:13.000Z</time>
      </trkpt>
      <trkpt lat="40.32103" lon="20.44486">
        <ele>933.09997558594</ele>
        <time>2023-09-28T12:11:11.000Z</time>
      </trkpt>
      <trkpt lat="40.32101" lon="20.44489">
        <ele>933.09997558594</ele>
        <time>2023-09-28T12:11:10.000Z</time>
      </trkpt>
      <trkpt lat="40.32098" lon="20.44496">
        <ele>934.05999755859</ele>
        <time>2023-09-28T12:11:09.000Z</time>
      </trkpt>
      <trkpt lat="40.32096" lon="20.44501">
        <ele>934.53997802734</ele>
        <time>2023-09-28T12:11:08.000Z</time>
      </trkpt>
      <trkpt lat="40.32093" lon="20.44506">
        <ele>935.5</ele>
        <time>2023-09-28T12:11:07.000Z</time>
      </trkpt>
      <trkpt lat="40.3209" lon="20.4451">
        <ele>936.46002197266</ele>
        <time>2023-09-28T12:11:06.000Z</time>
      </trkpt>
      <trkpt lat="40.32085" lon="20.44512">
        <ele>936.94000244141</ele>
        <time>2023-09-28T12:11:05.000Z</time>
      </trkpt>
      <trkpt lat="40.3208" lon="20.44514">
        <ele>936.94000244141</ele>
        <time>2023-09-28T12:11:04.000Z</time>
      </trkpt>
      <trkpt lat="40.32076" lon="20.44517">
        <ele>937.41998291016</ele>
        <time>2023-09-28T12:11:03.000Z</time>
      </trkpt>
      <trkpt lat="40.32073" lon="20.44519">
        <ele>937.41998291016</ele>
        <time>2023-09-28T12:11:02.000Z</time>
      </trkpt>
      <trkpt lat="40.3207" lon="20.4453">
        <ele>936.94000244141</ele>
        <time>2023-09-28T12:11:00.000Z</time>
      </trkpt>
      <trkpt lat="40.32071" lon="20.44537">
        <ele>936.94000244141</ele>
        <time>2023-09-28T12:10:59.000Z</time>
      </trkpt>
      <trkpt lat="40.32074" lon="20.44543">
        <ele>936.46002197266</ele>
        <time>2023-09-28T12:10:58.000Z</time>
      </trkpt>
      <trkpt lat="40.32078" lon="20.44549">
        <ele>935.97998046875</ele>
        <time>2023-09-28T12:10:57.000Z</time>
      </trkpt>
      <trkpt lat="40.32081" lon="20.44555">
        <ele>935.5</ele>
        <time>2023-09-28T12:10:56.000Z</time>
      </trkpt>
      <trkpt lat="40.32085" lon="20.44562">
        <ele>935.02001953125</ele>
        <time>2023-09-28T12:10:55.000Z</time>
      </trkpt>
      <trkpt lat="40.32088" lon="20.44568">
        <ele>934.53997802734</ele>
        <time>2023-09-28T12:10:54.000Z</time>
      </trkpt>
      <trkpt lat="40.32089" lon="20.44575">
        <ele>934.53997802734</ele>
        <time>2023-09-28T12:10:53.000Z</time>
      </trkpt>
      <trkpt lat="40.32089" lon="20.44581">
        <ele>934.53997802734</ele>
        <time>2023-09-28T12:10:52.000Z</time>
      </trkpt>
      <trkpt lat="40.3209" lon="20.44587">
        <ele>934.53997802734</ele>
        <time>2023-09-28T12:10:51.000Z</time>
      </trkpt>
      <trkpt lat="40.3209" lon="20.44593">
        <ele>934.53997802734</ele>
        <time>2023-09-28T12:10:50.000Z</time>
      </trkpt>
      <trkpt lat="40.3209" lon="20.44601">
        <ele>935.02001953125</ele>
        <time>2023-09-28T12:10:49.000Z</time>
      </trkpt>
      <trkpt lat="40.32091" lon="20.44607">
        <ele>934.53997802734</ele>
        <time>2023-09-28T12:10:48.000Z</time>
      </trkpt>
      <trkpt lat="40.32091" lon="20.44611">
        <ele>934.53997802734</ele>
        <time>2023-09-28T12:10:47.000Z</time>
      </trkpt>
      <trkpt lat="40.32095" lon="20.4463">
        <ele>935.02001953125</ele>
        <time>2023-09-28T12:10:43.000Z</time>
      </trkpt>
      <trkpt lat="40.32097" lon="20.44637">
        <ele>935.02001953125</ele>
        <time>2023-09-28T12:10:42.000Z</time>
      </trkpt>
      <trkpt lat="40.32099" lon="20.44647">
        <ele>935.5</ele>
        <time>2023-09-28T12:10:41.000Z</time>
      </trkpt>
      <trkpt lat="40.32099" lon="20.44654">
        <ele>935.5</ele>
        <time>2023-09-28T12:10:40.000Z</time>
      </trkpt>
      <trkpt lat="40.321" lon="20.44663">
        <ele>935.97998046875</ele>
        <time>2023-09-28T12:10:39.000Z</time>
      </trkpt>
      <trkpt lat="40.321" lon="20.4467">
        <ele>935.97998046875</ele>
        <time>2023-09-28T12:10:38.000Z</time>
      </trkpt>
      <trkpt lat="40.32099" lon="20.44675">
        <ele>935.97998046875</ele>
        <time>2023-09-28T12:10:37.000Z</time>
      </trkpt>
      <trkpt lat="40.32097" lon="20.44686">
        <ele>935.5</ele>
        <time>2023-09-28T12:10:36.000Z</time>
      </trkpt>
      <trkpt lat="40.32095" lon="20.44695">
        <ele>935.5</ele>
        <time>2023-09-28T12:10:35.000Z</time>
      </trkpt>
      <trkpt lat="40.32095" lon="20.44703">
        <ele>935.5</ele>
        <time>2023-09-28T12:10:34.000Z</time>
      </trkpt>
      <trkpt lat="40.32094" lon="20.44711">
        <ele>935.5</ele>
        <time>2023-09-28T12:10:33.000Z</time>
      </trkpt>
      <trkpt lat="40.32094" lon="20.44718">
        <ele>935.97998046875</ele>
        <time>2023-09-28T12:10:32.000Z</time>
      </trkpt>
      <trkpt lat="40.32094" lon="20.44729">
        <ele>936.46002197266</ele>
        <time>2023-09-28T12:10:31.000Z</time>
      </trkpt>
      <trkpt lat="40.32094" lon="20.44737">
        <ele>936.94000244141</ele>
        <time>2023-09-28T12:10:30.000Z</time>
      </trkpt>
      <trkpt lat="40.32094" lon="20.44745">
        <ele>937.41998291016</ele>
        <time>2023-09-28T12:10:29.000Z</time>
      </trkpt>
      <trkpt lat="40.32094" lon="20.44753">
        <ele>937.41998291016</ele>
        <time>2023-09-28T12:10:28.000Z</time>
      </trkpt>
      <trkpt lat="40.32093" lon="20.4476">
        <ele>937.41998291016</ele>
        <time>2023-09-28T12:10:27.000Z</time>
      </trkpt>
      <trkpt lat="40.32091" lon="20.44767">
        <ele>937.41998291016</ele>
        <time>2023-09-28T12:10:26.000Z</time>
      </trkpt>
      <trkpt lat="40.32088" lon="20.44773">
        <ele>937.41998291016</ele>
        <time>2023-09-28T12:10:25.000Z</time>
      </trkpt>
      <trkpt lat="40.3208" lon="20.44787">
        <ele>937.90002441406</ele>
        <time>2023-09-28T12:10:23.000Z</time>
      </trkpt>
      <trkpt lat="40.32074" lon="20.44794">
        <ele>937.90002441406</ele>
        <time>2023-09-28T12:10:22.000Z</time>
      </trkpt>
      <trkpt lat="40.32065" lon="20.44805">
        <ele>937.90002441406</ele>
        <time>2023-09-28T12:10:20.000Z</time>
      </trkpt>
      <trkpt lat="40.32056" lon="20.44814">
        <ele>937.90002441406</ele>
        <time>2023-09-28T12:10:19.000Z</time>
      </trkpt>
      <trkpt lat="40.32052" lon="20.44819">
        <ele>938.38000488281</ele>
        <time>2023-09-28T12:10:18.000Z</time>
      </trkpt>
      <trkpt lat="40.32047" lon="20.44825">
        <ele>938.38000488281</ele>
        <time>2023-09-28T12:10:17.000Z</time>
      </trkpt>
      <trkpt lat="40.32042" lon="20.44828">
        <ele>937.90002441406</ele>
        <time>2023-09-28T12:10:16.000Z</time>
      </trkpt>
      <trkpt lat="40.3204" lon="20.4483">
        <ele>937.90002441406</ele>
        <time>2023-09-28T12:10:15.000Z</time>
      </trkpt>
      <trkpt lat="40.32037" lon="20.44833">
        <ele>937.90002441406</ele>
        <time>2023-09-28T12:10:14.000Z</time>
      </trkpt>
      <trkpt lat="40.32031" lon="20.44837">
        <ele>937.90002441406</ele>
        <time>2023-09-28T12:10:13.000Z</time>
      </trkpt>
      <trkpt lat="40.3203" lon="20.44837">
        <ele>937.90002441406</ele>
        <time>2023-09-28T12:10:12.000Z</time>
      </trkpt>
      <trkpt lat="40.3202" lon="20.44838">
        <ele>937.41998291016</ele>
        <time>2023-09-28T12:10:10.000Z</time>
      </trkpt>
      <trkpt lat="40.32015" lon="20.44838">
        <ele>937.41998291016</ele>
        <time>2023-09-28T12:10:09.000Z</time>
      </trkpt>
      <trkpt lat="40.32013" lon="20.44838">
        <ele>937.41998291016</ele>
        <time>2023-09-28T12:10:08.000Z</time>
      </trkpt>
      <trkpt lat="40.32007" lon="20.44838">
        <ele>937.41998291016</ele>
        <time>2023-09-28T12:10:07.000Z</time>
      </trkpt>
      <trkpt lat="40.31995" lon="20.4484">
        <ele>936.94000244141</ele>
        <time>2023-09-28T12:10:04.000Z</time>
      </trkpt>
      <trkpt lat="40.3199" lon="20.44843">
        <ele>937.41998291016</ele>
        <time>2023-09-28T12:10:03.000Z</time>
      </trkpt>
      <trkpt lat="40.31986" lon="20.44846">
        <ele>937.41998291016</ele>
        <time>2023-09-28T12:10:02.000Z</time>
      </trkpt>
      <trkpt lat="40.31979" lon="20.44853">
        <ele>938.38000488281</ele>
        <time>2023-09-28T12:10:01.000Z</time>
      </trkpt>
      <trkpt lat="40.31966" lon="20.44864">
        <ele>938.38000488281</ele>
        <time>2023-09-28T12:09:59.000Z</time>
      </trkpt>
      <trkpt lat="40.31956" lon="20.44874">
        <ele>939.34997558594</ele>
        <time>2023-09-28T12:09:57.000Z</time>
      </trkpt>
      <trkpt lat="40.31947" lon="20.44884">
        <ele>940.30999755859</ele>
        <time>2023-09-28T12:09:56.000Z</time>
      </trkpt>
      <trkpt lat="40.31943" lon="20.44889">
        <ele>940.30999755859</ele>
        <time>2023-09-28T12:09:55.000Z</time>
      </trkpt>
      <trkpt lat="40.3194" lon="20.44892">
        <ele>940.78997802734</ele>
        <time>2023-09-28T12:09:54.000Z</time>
      </trkpt>
      <trkpt lat="40.31935" lon="20.44897">
        <ele>941.27001953125</ele>
        <time>2023-09-28T12:09:53.000Z</time>
      </trkpt>
      <trkpt lat="40.3193" lon="20.44901">
        <ele>940.78997802734</ele>
        <time>2023-09-28T12:09:52.000Z</time>
      </trkpt>
      <trkpt lat="40.31925" lon="20.44904">
        <ele>940.30999755859</ele>
        <time>2023-09-28T12:09:51.000Z</time>
      </trkpt>
      <trkpt lat="40.31918" lon="20.44909">
        <ele>940.30999755859</ele>
        <time>2023-09-28T12:09:50.000Z</time>
      </trkpt>
      <trkpt lat="40.31913" lon="20.44913">
        <ele>940.30999755859</ele>
        <time>2023-09-28T12:09:49.000Z</time>
      </trkpt>
      <trkpt lat="40.31901" lon="20.44926">
        <ele>940.30999755859</ele>
        <time>2023-09-28T12:09:47.000Z</time>
      </trkpt>
      <trkpt lat="40.31896" lon="20.44932">
        <ele>940.30999755859</ele>
        <time>2023-09-28T12:09:46.000Z</time>
      </trkpt>
      <trkpt lat="40.3189" lon="20.44938">
        <ele>939.83001708984</ele>
        <time>2023-09-28T12:09:45.000Z</time>
      </trkpt>
      <trkpt lat="40.31885" lon="20.44943">
        <ele>939.34997558594</ele>
        <time>2023-09-28T12:09:44.000Z</time>
      </trkpt>
      <trkpt lat="40.31878" lon="20.44947">
        <ele>938.85998535156</ele>
        <time>2023-09-28T12:09:43.000Z</time>
      </trkpt>
      <trkpt lat="40.31873" lon="20.44951">
        <ele>938.38000488281</ele>
        <time>2023-09-28T12:09:42.000Z</time>
      </trkpt>
      <trkpt lat="40.31871" lon="20.44952">
        <ele>938.38000488281</ele>
        <time>2023-09-28T12:09:41.000Z</time>
      </trkpt>
      <trkpt lat="40.31864" lon="20.44955">
        <ele>938.38000488281</ele>
        <time>2023-09-28T12:09:40.000Z</time>
      </trkpt>
      <trkpt lat="40.31843" lon="20.44967">
        <ele>938.38000488281</ele>
        <time>2023-09-28T12:09:34.000Z</time>
      </trkpt>
      <trkpt lat="40.3184" lon="20.4497">
        <ele>938.38000488281</ele>
        <time>2023-09-28T12:09:33.000Z</time>
      </trkpt>
      <trkpt lat="40.31837" lon="20.44973">
        <ele>938.38000488281</ele>
        <time>2023-09-28T12:09:32.000Z</time>
      </trkpt>
      <trkpt lat="40.31836" lon="20.44973">
        <ele>938.38000488281</ele>
        <time>2023-09-28T12:09:31.000Z</time>
      </trkpt>
      <trkpt lat="40.31829" lon="20.44978">
        <ele>938.38000488281</ele>
        <time>2023-09-28T12:09:30.000Z</time>
      </trkpt>
      <trkpt lat="40.31824" lon="20.44981">
        <ele>938.38000488281</ele>
        <time>2023-09-28T12:09:29.000Z</time>
      </trkpt>
      <trkpt lat="40.3182" lon="20.44983">
        <ele>937.90002441406</ele>
        <time>2023-09-28T12:09:28.000Z</time>
      </trkpt>
      <trkpt lat="40.31817" lon="20.44985">
        <ele>937.90002441406</ele>
        <time>2023-09-28T12:09:27.000Z</time>
      </trkpt>
      <trkpt lat="40.31808" lon="20.44991">
        <ele>937.90002441406</ele>
        <time>2023-09-28T12:09:26.000Z</time>
      </trkpt>
      <trkpt lat="40.31806" lon="20.44992">
        <ele>937.90002441406</ele>
        <time>2023-09-28T12:09:25.000Z</time>
      </trkpt>
      <trkpt lat="40.31794" lon="20.45001">
        <ele>938.38000488281</ele>
        <time>2023-09-28T12:09:24.000Z</time>
      </trkpt>
      <trkpt lat="40.31789" lon="20.45003">
        <ele>938.85998535156</ele>
        <time>2023-09-28T12:09:23.000Z</time>
      </trkpt>
      <trkpt lat="40.31786" lon="20.45005">
        <ele>938.85998535156</ele>
        <time>2023-09-28T12:09:22.000Z</time>
      </trkpt>
      <trkpt lat="40.31778" lon="20.45007">
        <ele>938.38000488281</ele>
        <time>2023-09-28T12:09:21.000Z</time>
      </trkpt>
      <trkpt lat="40.31771" lon="20.45009">
        <ele>937.90002441406</ele>
        <time>2023-09-28T12:09:20.000Z</time>
      </trkpt>
      <trkpt lat="40.3177" lon="20.45009">
        <ele>937.90002441406</ele>
        <time>2023-09-28T12:09:19.000Z</time>
      </trkpt>
      <trkpt lat="40.31759" lon="20.4501">
        <ele>937.41998291016</ele>
        <time>2023-09-28T12:09:18.000Z</time>
      </trkpt>
      <trkpt lat="40.31754" lon="20.45011">
        <ele>936.94000244141</ele>
        <time>2023-09-28T12:09:17.000Z</time>
      </trkpt>
      <trkpt lat="40.31753" lon="20.45011">
        <ele>936.94000244141</ele>
        <time>2023-09-28T12:09:16.000Z</time>
      </trkpt>
      <trkpt lat="40.31738" lon="20.45029">
        <ele>937.90002441406</ele>
        <time>2023-09-28T12:09:10.000Z</time>
      </trkpt>
      <trkpt lat="40.31733" lon="20.45041">
        <ele>937.41998291016</ele>
        <time>2023-09-28T12:09:08.000Z</time>
      </trkpt>
      <trkpt lat="40.31728" lon="20.45045">
        <ele>936.94000244141</ele>
        <time>2023-09-28T12:09:07.000Z</time>
      </trkpt>
      <trkpt lat="40.31723" lon="20.45048">
        <ele>936.94000244141</ele>
        <time>2023-09-28T12:09:06.000Z</time>
      </trkpt>
      <trkpt lat="40.31719" lon="20.4505">
        <ele>936.46002197266</ele>
        <time>2023-09-28T12:09:05.000Z</time>
      </trkpt>
      <trkpt lat="40.31713" lon="20.45053">
        <ele>936.46002197266</ele>
        <time>2023-09-28T12:09:04.000Z</time>
      </trkpt>
      <trkpt lat="40.31708" lon="20.45055">
        <ele>936.46002197266</ele>
        <time>2023-09-28T12:09:03.000Z</time>
      </trkpt>
      <trkpt lat="40.31703" lon="20.45057">
        <ele>936.46002197266</ele>
        <time>2023-09-28T12:09:02.000Z</time>
      </trkpt>
      <trkpt lat="40.31692" lon="20.45063">
        <ele>936.46002197266</ele>
        <time>2023-09-28T12:08:57.000Z</time>
      </trkpt>
      <trkpt lat="40.31687" lon="20.45089">
        <ele>937.41998291016</ele>
        <time>2023-09-28T12:08:51.000Z</time>
      </trkpt>
      <trkpt lat="40.31685" lon="20.45094">
        <ele>937.41998291016</ele>
        <time>2023-09-28T12:08:50.000Z</time>
      </trkpt>
      <trkpt lat="40.31683" lon="20.45097">
        <ele>937.41998291016</ele>
        <time>2023-09-28T12:08:49.000Z</time>
      </trkpt>
      <trkpt lat="40.31679" lon="20.45101">
        <ele>937.41998291016</ele>
        <time>2023-09-28T12:08:48.000Z</time>
      </trkpt>
      <trkpt lat="40.31674" lon="20.45105">
        <ele>936.94000244141</ele>
        <time>2023-09-28T12:08:47.000Z</time>
      </trkpt>
      <trkpt lat="40.31669" lon="20.45109">
        <ele>936.94000244141</ele>
        <time>2023-09-28T12:08:46.000Z</time>
      </trkpt>
      <trkpt lat="40.31665" lon="20.45113">
        <ele>936.94000244141</ele>
        <time>2023-09-28T12:08:45.000Z</time>
      </trkpt>
      <trkpt lat="40.31661" lon="20.45117">
        <ele>936.94000244141</ele>
        <time>2023-09-28T12:08:44.000Z</time>
      </trkpt>
      <trkpt lat="40.31657" lon="20.4512">
        <ele>936.94000244141</ele>
        <time>2023-09-28T12:08:43.000Z</time>
      </trkpt>
      <trkpt lat="40.31652" lon="20.45122">
        <ele>936.94000244141</ele>
        <time>2023-09-28T12:08:42.000Z</time>
      </trkpt>
      <trkpt lat="40.31647" lon="20.45124">
        <ele>936.94000244141</ele>
        <time>2023-09-28T12:08:41.000Z</time>
      </trkpt>
      <trkpt lat="40.31641" lon="20.45126">
        <ele>937.41998291016</ele>
        <time>2023-09-28T12:08:40.000Z</time>
      </trkpt>
      <trkpt lat="40.31636" lon="20.45126">
        <ele>937.41998291016</ele>
        <time>2023-09-28T12:08:39.000Z</time>
      </trkpt>
      <trkpt lat="40.3163" lon="20.45126">
        <ele>937.90002441406</ele>
        <time>2023-09-28T12:08:38.000Z</time>
      </trkpt>
      <trkpt lat="40.31624" lon="20.45126">
        <ele>938.38000488281</ele>
        <time>2023-09-28T12:08:37.000Z</time>
      </trkpt>
      <trkpt lat="40.31619" lon="20.45126">
        <ele>938.85998535156</ele>
        <time>2023-09-28T12:08:36.000Z</time>
      </trkpt>
      <trkpt lat="40.31613" lon="20.45125">
        <ele>939.34997558594</ele>
        <time>2023-09-28T12:08:35.000Z</time>
      </trkpt>
      <trkpt lat="40.31608" lon="20.45124">
        <ele>939.83001708984</ele>
        <time>2023-09-28T12:08:34.000Z</time>
      </trkpt>
      <trkpt lat="40.31603" lon="20.45121">
        <ele>940.30999755859</ele>
        <time>2023-09-28T12:08:33.000Z</time>
      </trkpt>
      <trkpt lat="40.31598" lon="20.45116">
        <ele>940.30999755859</ele>
        <time>2023-09-28T12:08:32.000Z</time>
      </trkpt>
      <trkpt lat="40.31594" lon="20.4511">
        <ele>940.78997802734</ele>
        <time>2023-09-28T12:08:31.000Z</time>
      </trkpt>
      <trkpt lat="40.3159" lon="20.45104">
        <ele>940.78997802734</ele>
        <time>2023-09-28T12:08:30.000Z</time>
      </trkpt>
      <trkpt lat="40.31587" lon="20.45098">
        <ele>940.78997802734</ele>
        <time>2023-09-28T12:08:29.000Z</time>
      </trkpt>
      <trkpt lat="40.31585" lon="20.4509">
        <ele>941.27001953125</ele>
        <time>2023-09-28T12:08:28.000Z</time>
      </trkpt>
      <trkpt lat="40.31584" lon="20.45086">
        <ele>941.75</ele>
        <time>2023-09-28T12:08:27.000Z</time>
      </trkpt>
      <trkpt lat="40.31582" lon="20.4507">
        <ele>942.71002197266</ele>
        <time>2023-09-28T12:08:26.000Z</time>
      </trkpt>
      <trkpt lat="40.31581" lon="20.45061">
        <ele>943.19000244141</ele>
        <time>2023-09-28T12:08:25.000Z</time>
      </trkpt>
      <trkpt lat="40.31579" lon="20.4505">
        <ele>943.19000244141</ele>
        <time>2023-09-28T12:08:24.000Z</time>
      </trkpt>
      <trkpt lat="40.31577" lon="20.45043">
        <ele>943.66998291016</ele>
        <time>2023-09-28T12:08:23.000Z</time>
      </trkpt>
      <trkpt lat="40.31574" lon="20.45036">
        <ele>943.66998291016</ele>
        <time>2023-09-28T12:08:22.000Z</time>
      </trkpt>
      <trkpt lat="40.31571" lon="20.45027">
        <ele>943.19000244141</ele>
        <time>2023-09-28T12:08:21.000Z</time>
      </trkpt>
      <trkpt lat="40.31569" lon="20.45021">
        <ele>942.71002197266</ele>
        <time>2023-09-28T12:08:20.000Z</time>
      </trkpt>
      <trkpt lat="40.31567" lon="20.45013">
        <ele>942.22998046875</ele>
        <time>2023-09-28T12:08:19.000Z</time>
      </trkpt>
      <trkpt lat="40.31566" lon="20.45005">
        <ele>941.75</ele>
        <time>2023-09-28T12:08:18.000Z</time>
      </trkpt>
      <trkpt lat="40.31564" lon="20.44998">
        <ele>941.75</ele>
        <time>2023-09-28T12:08:17.000Z</time>
      </trkpt>
      <trkpt lat="40.31563" lon="20.44992">
        <ele>940.78997802734</ele>
        <time>2023-09-28T12:08:16.000Z</time>
      </trkpt>
      <trkpt lat="40.31563" lon="20.44991">
        <ele>940.78997802734</ele>
        <time>2023-09-28T12:08:15.000Z</time>
      </trkpt>
      <trkpt lat="40.31559" lon="20.44985">
        <ele>939.34997558594</ele>
        <time>2023-09-28T12:08:14.000Z</time>
      </trkpt>
      <trkpt lat="40.31544" lon="20.44991">
        <ele>939.34997558594</ele>
        <time>2023-09-28T12:08:09.000Z</time>
      </trkpt>
      <trkpt lat="40.31543" lon="20.44996">
        <ele>939.83001708984</ele>
        <time>2023-09-28T12:08:08.000Z</time>
      </trkpt>
      <trkpt lat="40.31543" lon="20.45001">
        <ele>939.83001708984</ele>
        <time>2023-09-28T12:08:07.000Z</time>
      </trkpt>
      <trkpt lat="40.31542" lon="20.45011">
        <ele>939.83001708984</ele>
        <time>2023-09-28T12:08:06.000Z</time>
      </trkpt>
      <trkpt lat="40.31542" lon="20.45013">
        <ele>939.83001708984</ele>
        <time>2023-09-28T12:08:05.000Z</time>
      </trkpt>
      <trkpt lat="40.31542" lon="20.45028">
        <ele>940.30999755859</ele>
        <time>2023-09-28T12:08:04.000Z</time>
      </trkpt>
      <trkpt lat="40.31542" lon="20.45034">
        <ele>940.30999755859</ele>
        <time>2023-09-28T12:08:03.000Z</time>
      </trkpt>
      <trkpt lat="40.31542" lon="20.45041">
        <ele>940.30999755859</ele>
        <time>2023-09-28T12:08:02.000Z</time>
      </trkpt>
      <trkpt lat="40.31542" lon="20.45053">
        <ele>940.30999755859</ele>
        <time>2023-09-28T12:08:01.000Z</time>
      </trkpt>
      <trkpt lat="40.31542" lon="20.45062">
        <ele>939.34997558594</ele>
        <time>2023-09-28T12:08:00.000Z</time>
      </trkpt>
      <trkpt lat="40.3154" lon="20.45071">
        <ele>939.34997558594</ele>
        <time>2023-09-28T12:07:59.000Z</time>
      </trkpt>
      <trkpt lat="40.31538" lon="20.45077">
        <ele>939.34997558594</ele>
        <time>2023-09-28T12:07:58.000Z</time>
      </trkpt>
      <trkpt lat="40.31535" lon="20.45084">
        <ele>939.83001708984</ele>
        <time>2023-09-28T12:07:57.000Z</time>
      </trkpt>
      <trkpt lat="40.31532" lon="20.45093">
        <ele>940.30999755859</ele>
        <time>2023-09-28T12:07:56.000Z</time>
      </trkpt>
      <trkpt lat="40.31528" lon="20.45099">
        <ele>940.78997802734</ele>
        <time>2023-09-28T12:07:55.000Z</time>
      </trkpt>
      <trkpt lat="40.31527" lon="20.45101">
        <ele>940.78997802734</ele>
        <time>2023-09-28T12:07:54.000Z</time>
      </trkpt>
      <trkpt lat="40.31518" lon="20.45109">
        <ele>941.75</ele>
        <time>2023-09-28T12:07:53.000Z</time>
      </trkpt>
      <trkpt lat="40.31513" lon="20.45115">
        <ele>942.22998046875</ele>
        <time>2023-09-28T12:07:52.000Z</time>
      </trkpt>
      <trkpt lat="40.31508" lon="20.45123">
        <ele>943.19000244141</ele>
        <time>2023-09-28T12:07:51.000Z</time>
      </trkpt>
      <trkpt lat="40.31506" lon="20.45131">
        <ele>944.15002441406</ele>
        <time>2023-09-28T12:07:50.000Z</time>
      </trkpt>
      <trkpt lat="40.31504" lon="20.4514">
        <ele>945.10998535156</ele>
        <time>2023-09-28T12:07:49.000Z</time>
      </trkpt>
      <trkpt lat="40.31503" lon="20.45149">
        <ele>945.10998535156</ele>
        <time>2023-09-28T12:07:48.000Z</time>
      </trkpt>
      <trkpt lat="40.31503" lon="20.45155">
        <ele>945.10998535156</ele>
        <time>2023-09-28T12:07:47.000Z</time>
      </trkpt>
      <trkpt lat="40.31502" lon="20.45168">
        <ele>945.10998535156</ele>
        <time>2023-09-28T12:07:46.000Z</time>
      </trkpt>
      <trkpt lat="40.31501" lon="20.45177">
        <ele>945.10998535156</ele>
        <time>2023-09-28T12:07:45.000Z</time>
      </trkpt>
      <trkpt lat="40.31501" lon="20.45187">
        <ele>944.63000488281</ele>
        <time>2023-09-28T12:07:44.000Z</time>
      </trkpt>
      <trkpt lat="40.315" lon="20.45193">
        <ele>944.63000488281</ele>
        <time>2023-09-28T12:07:43.000Z</time>
      </trkpt>
      <trkpt lat="40.31499" lon="20.45203">
        <ele>943.66998291016</ele>
        <time>2023-09-28T12:07:42.000Z</time>
      </trkpt>
      <trkpt lat="40.31497" lon="20.45212">
        <ele>943.19000244141</ele>
        <time>2023-09-28T12:07:41.000Z</time>
      </trkpt>
      <trkpt lat="40.31494" lon="20.4522">
        <ele>943.19000244141</ele>
        <time>2023-09-28T12:07:40.000Z</time>
      </trkpt>
      <trkpt lat="40.31492" lon="20.45224">
        <ele>943.66998291016</ele>
        <time>2023-09-28T12:07:39.000Z</time>
      </trkpt>
      <trkpt lat="40.31487" lon="20.45233">
        <ele>944.15002441406</ele>
        <time>2023-09-28T12:07:38.000Z</time>
      </trkpt>
      <trkpt lat="40.31483" lon="20.45238">
        <ele>944.15002441406</ele>
        <time>2023-09-28T12:07:37.000Z</time>
      </trkpt>
      <trkpt lat="40.3148" lon="20.45241">
        <ele>944.63000488281</ele>
        <time>2023-09-28T12:07:36.000Z</time>
      </trkpt>
      <trkpt lat="40.31475" lon="20.45244">
        <ele>945.59002685547</ele>
        <time>2023-09-28T12:07:35.000Z</time>
      </trkpt>
      <trkpt lat="40.31473" lon="20.45245">
        <ele>945.59002685547</ele>
        <time>2023-09-28T12:07:34.000Z</time>
      </trkpt>
      <trkpt lat="40.31469" lon="20.4526">
        <ele>946.07000732422</ele>
        <time>2023-09-28T12:07:31.000Z</time>
      </trkpt>
      <trkpt lat="40.31471" lon="20.45263">
        <ele>946.07000732422</ele>
        <time>2023-09-28T12:07:30.000Z</time>
      </trkpt>
      <trkpt lat="40.31475" lon="20.4527">
        <ele>946.07000732422</ele>
        <time>2023-09-28T12:07:29.000Z</time>
      </trkpt>
      <trkpt lat="40.31479" lon="20.45277">
        <ele>946.07000732422</ele>
        <time>2023-09-28T12:07:28.000Z</time>
      </trkpt>
      <trkpt lat="40.31483" lon="20.45284">
        <ele>946.07000732422</ele>
        <time>2023-09-28T12:07:27.000Z</time>
      </trkpt>
      <trkpt lat="40.31487" lon="20.4529">
        <ele>946.07000732422</ele>
        <time>2023-09-28T12:07:26.000Z</time>
      </trkpt>
      <trkpt lat="40.31489" lon="20.45296">
        <ele>946.07000732422</ele>
        <time>2023-09-28T12:07:25.000Z</time>
      </trkpt>
      <trkpt lat="40.31491" lon="20.45302">
        <ele>946.07000732422</ele>
        <time>2023-09-28T12:07:24.000Z</time>
      </trkpt>
      <trkpt lat="40.31492" lon="20.45309">
        <ele>946.55999755859</ele>
        <time>2023-09-28T12:07:23.000Z</time>
      </trkpt>
      <trkpt lat="40.31492" lon="20.45316">
        <ele>946.55999755859</ele>
        <time>2023-09-28T12:07:22.000Z</time>
      </trkpt>
      <trkpt lat="40.31495" lon="20.45322">
        <ele>946.55999755859</ele>
        <time>2023-09-28T12:07:21.000Z</time>
      </trkpt>
      <trkpt lat="40.31498" lon="20.45326">
        <ele>946.07000732422</ele>
        <time>2023-09-28T12:07:20.000Z</time>
      </trkpt>
      <trkpt lat="40.31502" lon="20.45329">
        <ele>946.07000732422</ele>
        <time>2023-09-28T12:07:19.000Z</time>
      </trkpt>
      <trkpt lat="40.31506" lon="20.45331">
        <ele>945.59002685547</ele>
        <time>2023-09-28T12:07:18.000Z</time>
      </trkpt>
      <trkpt lat="40.31511" lon="20.45332">
        <ele>945.10998535156</ele>
        <time>2023-09-28T12:07:17.000Z</time>
      </trkpt>
      <trkpt lat="40.31516" lon="20.45335">
        <ele>944.15002441406</ele>
        <time>2023-09-28T12:07:16.000Z</time>
      </trkpt>
      <trkpt lat="40.3152" lon="20.4534">
        <ele>943.19000244141</ele>
        <time>2023-09-28T12:07:15.000Z</time>
      </trkpt>
      <trkpt lat="40.31526" lon="20.45347">
        <ele>942.71002197266</ele>
        <time>2023-09-28T12:07:14.000Z</time>
      </trkpt>
      <trkpt lat="40.31531" lon="20.45354">
        <ele>942.22998046875</ele>
        <time>2023-09-28T12:07:13.000Z</time>
      </trkpt>
      <trkpt lat="40.31541" lon="20.45365">
        <ele>941.75</ele>
        <time>2023-09-28T12:07:11.000Z</time>
      </trkpt>
      <trkpt lat="40.31545" lon="20.45371">
        <ele>940.78997802734</ele>
        <time>2023-09-28T12:07:10.000Z</time>
      </trkpt>
      <trkpt lat="40.31547" lon="20.45378">
        <ele>940.30999755859</ele>
        <time>2023-09-28T12:07:09.000Z</time>
      </trkpt>
      <trkpt lat="40.31549" lon="20.45386">
        <ele>940.78997802734</ele>
        <time>2023-09-28T12:07:08.000Z</time>
      </trkpt>
      <trkpt lat="40.31551" lon="20.45397">
        <ele>940.30999755859</ele>
        <time>2023-09-28T12:07:07.000Z</time>
      </trkpt>
      <trkpt lat="40.31551" lon="20.45405">
        <ele>940.30999755859</ele>
        <time>2023-09-28T12:07:06.000Z</time>
      </trkpt>
      <trkpt lat="40.3155" lon="20.45416">
        <ele>940.78997802734</ele>
        <time>2023-09-28T12:07:05.000Z</time>
      </trkpt>
      <trkpt lat="40.31549" lon="20.45424">
        <ele>941.27001953125</ele>
        <time>2023-09-28T12:07:04.000Z</time>
      </trkpt>
      <trkpt lat="40.3155" lon="20.45427">
        <ele>941.27001953125</ele>
        <time>2023-09-28T12:07:03.000Z</time>
      </trkpt>
      <trkpt lat="40.31552" lon="20.45432">
        <ele>941.27001953125</ele>
        <time>2023-09-28T12:07:02.000Z</time>
      </trkpt>
      <trkpt lat="40.31556" lon="20.45436">
        <ele>941.27001953125</ele>
        <time>2023-09-28T12:07:01.000Z</time>
      </trkpt>
      <trkpt lat="40.3156" lon="20.45439">
        <ele>940.78997802734</ele>
        <time>2023-09-28T12:07:00.000Z</time>
      </trkpt>
      <trkpt lat="40.31565" lon="20.45441">
        <ele>940.78997802734</ele>
        <time>2023-09-28T12:06:59.000Z</time>
      </trkpt>
      <trkpt lat="40.31572" lon="20.45446">
        <ele>939.83001708984</ele>
        <time>2023-09-28T12:06:57.000Z</time>
      </trkpt>
      <trkpt lat="40.31574" lon="20.4545">
        <ele>939.34997558594</ele>
        <time>2023-09-28T12:06:56.000Z</time>
      </trkpt>
      <trkpt lat="40.31575" lon="20.45456">
        <ele>939.34997558594</ele>
        <time>2023-09-28T12:06:55.000Z</time>
      </trkpt>
      <trkpt lat="40.31578" lon="20.45464">
        <ele>939.34997558594</ele>
        <time>2023-09-28T12:06:54.000Z</time>
      </trkpt>
      <trkpt lat="40.31581" lon="20.45471">
        <ele>939.34997558594</ele>
        <time>2023-09-28T12:06:53.000Z</time>
      </trkpt>
      <trkpt lat="40.31585" lon="20.45478">
        <ele>938.85998535156</ele>
        <time>2023-09-28T12:06:52.000Z</time>
      </trkpt>
      <trkpt lat="40.3159" lon="20.45484">
        <ele>938.38000488281</ele>
        <time>2023-09-28T12:06:51.000Z</time>
      </trkpt>
      <trkpt lat="40.31595" lon="20.45489">
        <ele>937.90002441406</ele>
        <time>2023-09-28T12:06:50.000Z</time>
      </trkpt>
      <trkpt lat="40.31601" lon="20.45494">
        <ele>937.41998291016</ele>
        <time>2023-09-28T12:06:49.000Z</time>
      </trkpt>
      <trkpt lat="40.31605" lon="20.45498">
        <ele>936.94000244141</ele>
        <time>2023-09-28T12:06:48.000Z</time>
      </trkpt>
      <trkpt lat="40.31613" lon="20.45504">
        <ele>936.46002197266</ele>
        <time>2023-09-28T12:06:47.000Z</time>
      </trkpt>
      <trkpt lat="40.31619" lon="20.45509">
        <ele>936.46002197266</ele>
        <time>2023-09-28T12:06:46.000Z</time>
      </trkpt>
      <trkpt lat="40.31624" lon="20.45513">
        <ele>936.46002197266</ele>
        <time>2023-09-28T12:06:45.000Z</time>
      </trkpt>
      <trkpt lat="40.31628" lon="20.45517">
        <ele>935.97998046875</ele>
        <time>2023-09-28T12:06:44.000Z</time>
      </trkpt>
      <trkpt lat="40.31642" lon="20.45532">
        <ele>935.02001953125</ele>
        <time>2023-09-28T12:06:41.000Z</time>
      </trkpt>
      <trkpt lat="40.31648" lon="20.45549">
        <ele>932.14001464844</ele>
        <time>2023-09-28T12:06:37.000Z</time>
      </trkpt>
      <trkpt lat="40.31646" lon="20.45556">
        <ele>931.16998291016</ele>
        <time>2023-09-28T12:06:36.000Z</time>
      </trkpt>
      <trkpt lat="40.31642" lon="20.45563">
        <ele>930.21002197266</ele>
        <time>2023-09-28T12:06:35.000Z</time>
      </trkpt>
      <trkpt lat="40.3164" lon="20.45565">
        <ele>929.72998046875</ele>
        <time>2023-09-28T12:06:34.000Z</time>
      </trkpt>
      <trkpt lat="40.31631" lon="20.45574">
        <ele>928.28997802734</ele>
        <time>2023-09-28T12:06:33.000Z</time>
      </trkpt>
      <trkpt lat="40.31626" lon="20.45579">
        <ele>927.80999755859</ele>
        <time>2023-09-28T12:06:32.000Z</time>
      </trkpt>
      <trkpt lat="40.31621" lon="20.45586">
        <ele>926.84997558594</ele>
        <time>2023-09-28T12:06:31.000Z</time>
      </trkpt>
      <trkpt lat="40.31611" lon="20.45603">
        <ele>924.45001220703</ele>
        <time>2023-09-28T12:06:29.000Z</time>
      </trkpt>
      <trkpt lat="40.3161" lon="20.45604">
        <ele>924.45001220703</ele>
        <time>2023-09-28T12:06:28.000Z</time>
      </trkpt>
      <trkpt lat="40.31596" lon="20.45624">
        <ele>922.52001953125</ele>
        <time>2023-09-28T12:06:26.000Z</time>
      </trkpt>
      <trkpt lat="40.31592" lon="20.4563">
        <ele>921.55999755859</ele>
        <time>2023-09-28T12:06:25.000Z</time>
      </trkpt>
      <trkpt lat="40.31584" lon="20.45643">
        <ele>920.11999511719</ele>
        <time>2023-09-28T12:06:24.000Z</time>
      </trkpt>
      <trkpt lat="40.31571" lon="20.4567">
        <ele>918.20001220703</ele>
        <time>2023-09-28T12:06:21.000Z</time>
      </trkpt>
      <trkpt lat="40.31565" lon="20.45681">
        <ele>917.23999023438</ele>
        <time>2023-09-28T12:06:20.000Z</time>
      </trkpt>
      <trkpt lat="40.31544" lon="20.45714">
        <ele>913.39001464844</ele>
        <time>2023-09-28T12:06:16.000Z</time>
      </trkpt>
      <trkpt lat="40.31541" lon="20.45719">
        <ele>912.90997314453</ele>
        <time>2023-09-28T12:06:15.000Z</time>
      </trkpt>
      <trkpt lat="40.31537" lon="20.45725">
        <ele>912.42999267578</ele>
        <time>2023-09-28T12:06:14.000Z</time>
      </trkpt>
      <trkpt lat="40.31535" lon="20.45729">
        <ele>911.95001220703</ele>
        <time>2023-09-28T12:06:13.000Z</time>
      </trkpt>
      <trkpt lat="40.3154" lon="20.45744">
        <ele>909.53997802734</ele>
        <time>2023-09-28T12:06:09.000Z</time>
      </trkpt>
      <trkpt lat="40.31545" lon="20.45744">
        <ele>909.05999755859</ele>
        <time>2023-09-28T12:06:08.000Z</time>
      </trkpt>
      <trkpt lat="40.31551" lon="20.45742">
        <ele>908.58001708984</ele>
        <time>2023-09-28T12:06:07.000Z</time>
      </trkpt>
      <trkpt lat="40.31556" lon="20.45739">
        <ele>907.61999511719</ele>
        <time>2023-09-28T12:06:06.000Z</time>
      </trkpt>
      <trkpt lat="40.3156" lon="20.45736">
        <ele>907.14001464844</ele>
        <time>2023-09-28T12:06:05.000Z</time>
      </trkpt>
      <trkpt lat="40.31563" lon="20.45734">
        <ele>906.65997314453</ele>
        <time>2023-09-28T12:06:04.000Z</time>
      </trkpt>
      <trkpt lat="40.31573" lon="20.45747">
        <ele>902.33001708984</ele>
        <time>2023-09-28T12:05:59.000Z</time>
      </trkpt>
      <trkpt lat="40.3157" lon="20.45751">
        <ele>901.84997558594</ele>
        <time>2023-09-28T12:05:58.000Z</time>
      </trkpt>
      <trkpt lat="40.31569" lon="20.45752">
        <ele>901.84997558594</ele>
        <time>2023-09-28T12:05:57.000Z</time>
      </trkpt>
      <trkpt lat="40.31559" lon="20.45761">
        <ele>900.40997314453</ele>
        <time>2023-09-28T12:05:56.000Z</time>
      </trkpt>
      <trkpt lat="40.3155" lon="20.45768">
        <ele>899.45001220703</ele>
        <time>2023-09-28T12:05:55.000Z</time>
      </trkpt>
      <trkpt lat="40.31544" lon="20.45773">
        <ele>898.96997070312</ele>
        <time>2023-09-28T12:05:54.000Z</time>
      </trkpt>
      <trkpt lat="40.31531" lon="20.45781">
        <ele>898.01000976562</ele>
        <time>2023-09-28T12:05:52.000Z</time>
      </trkpt>
      <trkpt lat="40.31521" lon="20.45787">
        <ele>896.57000732422</ele>
        <time>2023-09-28T12:05:50.000Z</time>
      </trkpt>
      <trkpt lat="40.31513" lon="20.45791">
        <ele>895.60998535156</ele>
        <time>2023-09-28T12:05:49.000Z</time>
      </trkpt>
      <trkpt lat="40.31508" lon="20.45795">
        <ele>895.11999511719</ele>
        <time>2023-09-28T12:05:48.000Z</time>
      </trkpt>
      <trkpt lat="40.31504" lon="20.45799">
        <ele>894.15997314453</ele>
        <time>2023-09-28T12:05:47.000Z</time>
      </trkpt>
      <trkpt lat="40.315" lon="20.45807">
        <ele>893.67999267578</ele>
        <time>2023-09-28T12:05:46.000Z</time>
      </trkpt>
      <trkpt lat="40.31497" lon="20.45814">
        <ele>893.20001220703</ele>
        <time>2023-09-28T12:05:45.000Z</time>
      </trkpt>
      <trkpt lat="40.31493" lon="20.45823">
        <ele>892.71997070312</ele>
        <time>2023-09-28T12:05:44.000Z</time>
      </trkpt>
      <trkpt lat="40.31491" lon="20.45827">
        <ele>892.71997070312</ele>
        <time>2023-09-28T12:05:43.000Z</time>
      </trkpt>
      <trkpt lat="40.31485" lon="20.45836">
        <ele>892.23999023438</ele>
        <time>2023-09-28T12:05:42.000Z</time>
      </trkpt>
      <trkpt lat="40.3148" lon="20.45842">
        <ele>892.23999023438</ele>
        <time>2023-09-28T12:05:41.000Z</time>
      </trkpt>
      <trkpt lat="40.31476" lon="20.45846">
        <ele>891.76000976562</ele>
        <time>2023-09-28T12:05:40.000Z</time>
      </trkpt>
      <trkpt lat="40.31474" lon="20.45847">
        <ele>891.76000976562</ele>
        <time>2023-09-28T12:05:39.000Z</time>
      </trkpt>
      <trkpt lat="40.31465" lon="20.45847">
        <ele>890.79998779297</ele>
        <time>2023-09-28T12:05:37.000Z</time>
      </trkpt>
      <trkpt lat="40.31462" lon="20.45845">
        <ele>890.79998779297</ele>
        <time>2023-09-28T12:05:36.000Z</time>
      </trkpt>
      <trkpt lat="40.31457" lon="20.45842">
        <ele>889.84002685547</ele>
        <time>2023-09-28T12:05:35.000Z</time>
      </trkpt>
      <trkpt lat="40.31451" lon="20.45839">
        <ele>889.35998535156</ele>
        <time>2023-09-28T12:05:34.000Z</time>
      </trkpt>
      <trkpt lat="40.31447" lon="20.45835">
        <ele>888.88000488281</ele>
        <time>2023-09-28T12:05:33.000Z</time>
      </trkpt>
      <trkpt lat="40.31444" lon="20.45831">
        <ele>888.40002441406</ele>
        <time>2023-09-28T12:05:32.000Z</time>
      </trkpt>
      <trkpt lat="40.3144" lon="20.45825">
        <ele>887.90997314453</ele>
        <time>2023-09-28T12:05:31.000Z</time>
      </trkpt>
      <trkpt lat="40.31438" lon="20.45824">
        <ele>888.40002441406</ele>
        <time>2023-09-28T12:05:30.000Z</time>
      </trkpt>
      <trkpt lat="40.31425" lon="20.45828">
        <ele>889.35998535156</ele>
        <time>2023-09-28T12:05:26.000Z</time>
      </trkpt>
      <trkpt lat="40.31424" lon="20.45845">
        <ele>888.88000488281</ele>
        <time>2023-09-28T12:05:23.000Z</time>
      </trkpt>
      <trkpt lat="40.31426" lon="20.45853">
        <ele>887.90997314453</ele>
        <time>2023-09-28T12:05:22.000Z</time>
      </trkpt>
      <trkpt lat="40.31428" lon="20.45858">
        <ele>887.42999267578</ele>
        <time>2023-09-28T12:05:21.000Z</time>
      </trkpt>
      <trkpt lat="40.31429" lon="20.45865">
        <ele>886.95001220703</ele>
        <time>2023-09-28T12:05:20.000Z</time>
      </trkpt>
      <trkpt lat="40.31429" lon="20.45872">
        <ele>886.46997070312</ele>
        <time>2023-09-28T12:05:19.000Z</time>
      </trkpt>
      <trkpt lat="40.31428" lon="20.45876">
        <ele>886.46997070312</ele>
        <time>2023-09-28T12:05:18.000Z</time>
      </trkpt>
      <trkpt lat="40.31427" lon="20.45883">
        <ele>885.98999023438</ele>
        <time>2023-09-28T12:05:17.000Z</time>
      </trkpt>
      <trkpt lat="40.31425" lon="20.45891">
        <ele>885.51000976562</ele>
        <time>2023-09-28T12:05:16.000Z</time>
      </trkpt>
      <trkpt lat="40.31424" lon="20.45897">
        <ele>885.51000976562</ele>
        <time>2023-09-28T12:05:15.000Z</time>
      </trkpt>
      <trkpt lat="40.31419" lon="20.45915">
        <ele>885.03002929688</ele>
        <time>2023-09-28T12:05:10.000Z</time>
      </trkpt>
      <trkpt lat="40.31415" lon="20.45922">
        <ele>885.03002929688</ele>
        <time>2023-09-28T12:05:01.000Z</time>
      </trkpt>
      <trkpt lat="40.31402" lon="20.45942">
        <ele>885.03002929688</ele>
        <time>2023-09-28T12:04:55.000Z</time>
      </trkpt>
      <trkpt lat="40.314" lon="20.45945">
        <ele>885.03002929688</ele>
        <time>2023-09-28T12:04:54.000Z</time>
      </trkpt>
      <trkpt lat="40.31397" lon="20.45948">
        <ele>885.51000976562</ele>
        <time>2023-09-28T12:04:53.000Z</time>
      </trkpt>
      <trkpt lat="40.31392" lon="20.45954">
        <ele>885.03002929688</ele>
        <time>2023-09-28T12:04:52.000Z</time>
      </trkpt>
      <trkpt lat="40.3139" lon="20.45956">
        <ele>885.03002929688</ele>
        <time>2023-09-28T12:04:51.000Z</time>
      </trkpt>
      <trkpt lat="40.31384" lon="20.45963">
        <ele>884.54998779297</ele>
        <time>2023-09-28T12:04:50.000Z</time>
      </trkpt>
      <trkpt lat="40.31379" lon="20.45969">
        <ele>884.07000732422</ele>
        <time>2023-09-28T12:04:49.000Z</time>
      </trkpt>
      <trkpt lat="40.31374" lon="20.45974">
        <ele>883.59002685547</ele>
        <time>2023-09-28T12:04:48.000Z</time>
      </trkpt>
      <trkpt lat="40.31368" lon="20.45977">
        <ele>883.59002685547</ele>
        <time>2023-09-28T12:04:47.000Z</time>
      </trkpt>
      <trkpt lat="40.31363" lon="20.45978">
        <ele>883.59002685547</ele>
        <time>2023-09-28T12:04:46.000Z</time>
      </trkpt>
      <trkpt lat="40.31357" lon="20.45978">
        <ele>883.59002685547</ele>
        <time>2023-09-28T12:04:45.000Z</time>
      </trkpt>
      <trkpt lat="40.31352" lon="20.45976">
        <ele>883.59002685547</ele>
        <time>2023-09-28T12:04:44.000Z</time>
      </trkpt>
      <trkpt lat="40.31347" lon="20.45977">
        <ele>884.07000732422</ele>
        <time>2023-09-28T12:04:43.000Z</time>
      </trkpt>
      <trkpt lat="40.31345" lon="20.4598">
        <ele>884.07000732422</ele>
        <time>2023-09-28T12:04:42.000Z</time>
      </trkpt>
      <trkpt lat="40.31342" lon="20.45986">
        <ele>884.07000732422</ele>
        <time>2023-09-28T12:04:41.000Z</time>
      </trkpt>
      <trkpt lat="40.31339" lon="20.46001">
        <ele>884.07000732422</ele>
        <time>2023-09-28T12:04:39.000Z</time>
      </trkpt>
      <trkpt lat="40.31337" lon="20.46009">
        <ele>884.07000732422</ele>
        <time>2023-09-28T12:04:38.000Z</time>
      </trkpt>
      <trkpt lat="40.31334" lon="20.46015">
        <ele>884.07000732422</ele>
        <time>2023-09-28T12:04:37.000Z</time>
      </trkpt>
      <trkpt lat="40.31333" lon="20.46018">
        <ele>884.07000732422</ele>
        <time>2023-09-28T12:04:36.000Z</time>
      </trkpt>
      <trkpt lat="40.31326" lon="20.46029">
        <ele>884.07000732422</ele>
        <time>2023-09-28T12:04:35.000Z</time>
      </trkpt>
      <trkpt lat="40.31324" lon="20.46033">
        <ele>884.07000732422</ele>
        <time>2023-09-28T12:04:34.000Z</time>
      </trkpt>
      <trkpt lat="40.31318" lon="20.4604">
        <ele>885.03002929688</ele>
        <time>2023-09-28T12:04:33.000Z</time>
      </trkpt>
      <trkpt lat="40.3131" lon="20.46049">
        <ele>885.03002929688</ele>
        <time>2023-09-28T12:04:31.000Z</time>
      </trkpt>
      <trkpt lat="40.31303" lon="20.46057">
        <ele>885.51000976562</ele>
        <time>2023-09-28T12:04:30.000Z</time>
      </trkpt>
      <trkpt lat="40.31298" lon="20.46063">
        <ele>885.51000976562</ele>
        <time>2023-09-28T12:04:29.000Z</time>
      </trkpt>
      <trkpt lat="40.31294" lon="20.46069">
        <ele>885.51000976562</ele>
        <time>2023-09-28T12:04:28.000Z</time>
      </trkpt>
      <trkpt lat="40.31286" lon="20.46089">
        <ele>885.51000976562</ele>
        <time>2023-09-28T12:04:26.000Z</time>
      </trkpt>
      <trkpt lat="40.31282" lon="20.461">
        <ele>884.54998779297</ele>
        <time>2023-09-28T12:04:25.000Z</time>
      </trkpt>
      <trkpt lat="40.31278" lon="20.46109">
        <ele>884.07000732422</ele>
        <time>2023-09-28T12:04:24.000Z</time>
      </trkpt>
      <trkpt lat="40.31274" lon="20.46118">
        <ele>883.59002685547</ele>
        <time>2023-09-28T12:04:23.000Z</time>
      </trkpt>
      <trkpt lat="40.31269" lon="20.46123">
        <ele>883.10998535156</ele>
        <time>2023-09-28T12:04:22.000Z</time>
      </trkpt>
      <trkpt lat="40.31263" lon="20.46131">
        <ele>882.63000488281</ele>
        <time>2023-09-28T12:04:21.000Z</time>
      </trkpt>
      <trkpt lat="40.3126" lon="20.46134">
        <ele>881.66998291016</ele>
        <time>2023-09-28T12:04:20.000Z</time>
      </trkpt>
      <trkpt lat="40.31251" lon="20.46144">
        <ele>880.21997070312</ele>
        <time>2023-09-28T12:04:19.000Z</time>
      </trkpt>
      <trkpt lat="40.31243" lon="20.46151">
        <ele>878.78002929688</ele>
        <time>2023-09-28T12:04:18.000Z</time>
      </trkpt>
      <trkpt lat="40.31238" lon="20.46154">
        <ele>878.29998779297</ele>
        <time>2023-09-28T12:04:17.000Z</time>
      </trkpt>
      <trkpt lat="40.31233" lon="20.46157">
        <ele>877.82000732422</ele>
        <time>2023-09-28T12:04:16.000Z</time>
      </trkpt>
      <trkpt lat="40.31222" lon="20.46162">
        <ele>876.38000488281</ele>
        <time>2023-09-28T12:04:15.000Z</time>
      </trkpt>
      <trkpt lat="40.31215" lon="20.46168">
        <ele>875.90002441406</ele>
        <time>2023-09-28T12:04:14.000Z</time>
      </trkpt>
      <trkpt lat="40.31201" lon="20.46183">
        <ele>873.97998046875</ele>
        <time>2023-09-28T12:04:12.000Z</time>
      </trkpt>
      <trkpt lat="40.31196" lon="20.46188">
        <ele>873.5</ele>
        <time>2023-09-28T12:04:11.000Z</time>
      </trkpt>
      <trkpt lat="40.31191" lon="20.46193">
        <ele>872.53002929688</ele>
        <time>2023-09-28T12:04:10.000Z</time>
      </trkpt>
      <trkpt lat="40.31182" lon="20.462">
        <ele>872.04998779297</ele>
        <time>2023-09-28T12:04:09.000Z</time>
      </trkpt>
      <trkpt lat="40.31177" lon="20.46204">
        <ele>871.57000732422</ele>
        <time>2023-09-28T12:04:08.000Z</time>
      </trkpt>
      <trkpt lat="40.31171" lon="20.46209">
        <ele>871.09002685547</ele>
        <time>2023-09-28T12:04:07.000Z</time>
      </trkpt>
      <trkpt lat="40.31166" lon="20.46213">
        <ele>870.60998535156</ele>
        <time>2023-09-28T12:04:06.000Z</time>
      </trkpt>
      <trkpt lat="40.31162" lon="20.4622">
        <ele>870.13000488281</ele>
        <time>2023-09-28T12:04:05.000Z</time>
      </trkpt>
      <trkpt lat="40.3116" lon="20.46226">
        <ele>869.65002441406</ele>
        <time>2023-09-28T12:04:04.000Z</time>
      </trkpt>
      <trkpt lat="40.31158" lon="20.46231">
        <ele>869.16998291016</ele>
        <time>2023-09-28T12:04:03.000Z</time>
      </trkpt>
      <trkpt lat="40.31155" lon="20.4624">
        <ele>868.21002197266</ele>
        <time>2023-09-28T12:04:02.000Z</time>
      </trkpt>
      <trkpt lat="40.31152" lon="20.46245">
        <ele>867.72998046875</ele>
        <time>2023-09-28T12:04:01.000Z</time>
      </trkpt>
      <trkpt lat="40.31151" lon="20.46246">
        <ele>867.25</ele>
        <time>2023-09-28T12:04:00.000Z</time>
      </trkpt>
      <trkpt lat="40.3114" lon="20.46249">
        <ele>866.28997802734</ele>
        <time>2023-09-28T12:03:57.000Z</time>
      </trkpt>
      <trkpt lat="40.31136" lon="20.46244">
        <ele>866.28997802734</ele>
        <time>2023-09-28T12:03:56.000Z</time>
      </trkpt>
      <trkpt lat="40.31134" lon="20.46242">
        <ele>866.28997802734</ele>
        <time>2023-09-28T12:03:55.000Z</time>
      </trkpt>
      <trkpt lat="40.31128" lon="20.46231">
        <ele>865.79998779297</ele>
        <time>2023-09-28T12:03:54.000Z</time>
      </trkpt>
      <trkpt lat="40.31124" lon="20.46223">
        <ele>865.32000732422</ele>
        <time>2023-09-28T12:03:53.000Z</time>
      </trkpt>
      <trkpt lat="40.31119" lon="20.46217">
        <ele>865.32000732422</ele>
        <time>2023-09-28T12:03:52.000Z</time>
      </trkpt>
      <trkpt lat="40.31114" lon="20.46212">
        <ele>865.32000732422</ele>
        <time>2023-09-28T12:03:51.000Z</time>
      </trkpt>
      <trkpt lat="40.3111" lon="20.46208">
        <ele>864.84002685547</ele>
        <time>2023-09-28T12:03:50.000Z</time>
      </trkpt>
      <trkpt lat="40.31106" lon="20.46203">
        <ele>863.88000488281</ele>
        <time>2023-09-28T12:03:49.000Z</time>
      </trkpt>
      <trkpt lat="40.31103" lon="20.46197">
        <ele>863.40002441406</ele>
        <time>2023-09-28T12:03:48.000Z</time>
      </trkpt>
      <trkpt lat="40.31101" lon="20.46191">
        <ele>862.91998291016</ele>
        <time>2023-09-28T12:03:47.000Z</time>
      </trkpt>
      <trkpt lat="40.311" lon="20.46186">
        <ele>862.91998291016</ele>
        <time>2023-09-28T12:03:46.000Z</time>
      </trkpt>
      <trkpt lat="40.31098" lon="20.46179">
        <ele>862.91998291016</ele>
        <time>2023-09-28T12:03:45.000Z</time>
      </trkpt>
      <trkpt lat="40.31096" lon="20.46173">
        <ele>862.44000244141</ele>
        <time>2023-09-28T12:03:44.000Z</time>
      </trkpt>
      <trkpt lat="40.31095" lon="20.46168">
        <ele>862.44000244141</ele>
        <time>2023-09-28T12:03:43.000Z</time>
      </trkpt>
      <trkpt lat="40.31086" lon="20.46157">
        <ele>861.96002197266</ele>
        <time>2023-09-28T12:03:40.000Z</time>
      </trkpt>
      <trkpt lat="40.31082" lon="20.46156">
        <ele>861.47998046875</ele>
        <time>2023-09-28T12:03:39.000Z</time>
      </trkpt>
      <trkpt lat="40.31076" lon="20.46154">
        <ele>861.47998046875</ele>
        <time>2023-09-28T12:03:38.000Z</time>
      </trkpt>
      <trkpt lat="40.31073" lon="20.46152">
        <ele>861</ele>
        <time>2023-09-28T12:03:37.000Z</time>
      </trkpt>
      <trkpt lat="40.31061" lon="20.46149">
        <ele>860.03997802734</ele>
        <time>2023-09-28T12:03:33.000Z</time>
      </trkpt>
      <trkpt lat="40.31056" lon="20.46148">
        <ele>859.55999755859</ele>
        <time>2023-09-28T12:03:32.000Z</time>
      </trkpt>
      <trkpt lat="40.31051" lon="20.46147">
        <ele>859.55999755859</ele>
        <time>2023-09-28T12:03:31.000Z</time>
      </trkpt>
      <trkpt lat="40.31047" lon="20.46146">
        <ele>859.55999755859</ele>
        <time>2023-09-28T12:03:30.000Z</time>
      </trkpt>
      <trkpt lat="40.31036" lon="20.46143">
        <ele>860.03997802734</ele>
        <time>2023-09-28T12:03:29.000Z</time>
      </trkpt>
      <trkpt lat="40.31029" lon="20.46142">
        <ele>860.52001953125</ele>
        <time>2023-09-28T12:03:28.000Z</time>
      </trkpt>
      <trkpt lat="40.31022" lon="20.46141">
        <ele>860.52001953125</ele>
        <time>2023-09-28T12:03:27.000Z</time>
      </trkpt>
      <trkpt lat="40.31015" lon="20.46141">
        <ele>860.52001953125</ele>
        <time>2023-09-28T12:03:26.000Z</time>
      </trkpt>
      <trkpt lat="40.3101" lon="20.46142">
        <ele>861</ele>
        <time>2023-09-28T12:03:25.000Z</time>
      </trkpt>
      <trkpt lat="40.31006" lon="20.46143">
        <ele>861</ele>
        <time>2023-09-28T12:03:24.000Z</time>
      </trkpt>
      <trkpt lat="40.31" lon="20.46148">
        <ele>861</ele>
        <time>2023-09-28T12:03:22.000Z</time>
      </trkpt>
      <trkpt lat="40.30997" lon="20.46153">
        <ele>860.52001953125</ele>
        <time>2023-09-28T12:03:21.000Z</time>
      </trkpt>
      <trkpt lat="40.30994" lon="20.46158">
        <ele>860.03997802734</ele>
        <time>2023-09-28T12:03:20.000Z</time>
      </trkpt>
      <trkpt lat="40.30992" lon="20.46163">
        <ele>859.55999755859</ele>
        <time>2023-09-28T12:03:19.000Z</time>
      </trkpt>
      <trkpt lat="40.30988" lon="20.46169">
        <ele>858.10998535156</ele>
        <time>2023-09-28T12:03:18.000Z</time>
      </trkpt>
      <trkpt lat="40.30984" lon="20.46175">
        <ele>857.63000488281</ele>
        <time>2023-09-28T12:03:17.000Z</time>
      </trkpt>
      <trkpt lat="40.30981" lon="20.46181">
        <ele>856.19000244141</ele>
        <time>2023-09-28T12:03:16.000Z</time>
      </trkpt>
      <trkpt lat="40.30978" lon="20.46187">
        <ele>855.22998046875</ele>
        <time>2023-09-28T12:03:15.000Z</time>
      </trkpt>
      <trkpt lat="40.30973" lon="20.46196">
        <ele>853.78997802734</ele>
        <time>2023-09-28T12:03:14.000Z</time>
      </trkpt>
      <trkpt lat="40.30967" lon="20.46209">
        <ele>851.86999511719</ele>
        <time>2023-09-28T12:03:12.000Z</time>
      </trkpt>
      <trkpt lat="40.30964" lon="20.46215">
        <ele>851.38000488281</ele>
        <time>2023-09-28T12:03:11.000Z</time>
      </trkpt>
      <trkpt lat="40.30959" lon="20.46221">
        <ele>850.90002441406</ele>
        <time>2023-09-28T12:03:10.000Z</time>
      </trkpt>
      <trkpt lat="40.30954" lon="20.46224">
        <ele>850.41998291016</ele>
        <time>2023-09-28T12:03:09.000Z</time>
      </trkpt>
      <trkpt lat="40.30949" lon="20.46226">
        <ele>849.94000244141</ele>
        <time>2023-09-28T12:03:08.000Z</time>
      </trkpt>
      <trkpt lat="40.30945" lon="20.46226">
        <ele>849.46002197266</ele>
        <time>2023-09-28T12:03:07.000Z</time>
      </trkpt>
      <trkpt lat="40.30941" lon="20.46225">
        <ele>849.46002197266</ele>
        <time>2023-09-28T12:03:06.000Z</time>
      </trkpt>
      <trkpt lat="40.30937" lon="20.46222">
        <ele>848.5</ele>
        <time>2023-09-28T12:03:05.000Z</time>
      </trkpt>
      <trkpt lat="40.30933" lon="20.46218">
        <ele>848.5</ele>
        <time>2023-09-28T12:03:04.000Z</time>
      </trkpt>
      <trkpt lat="40.3093" lon="20.46213">
        <ele>848.02001953125</ele>
        <time>2023-09-28T12:03:03.000Z</time>
      </trkpt>
      <trkpt lat="40.30927" lon="20.46205">
        <ele>847.53997802734</ele>
        <time>2023-09-28T12:03:02.000Z</time>
      </trkpt>
      <trkpt lat="40.30926" lon="20.46199">
        <ele>847.05999755859</ele>
        <time>2023-09-28T12:03:01.000Z</time>
      </trkpt>
      <trkpt lat="40.30924" lon="20.46191">
        <ele>847.05999755859</ele>
        <time>2023-09-28T12:03:00.000Z</time>
      </trkpt>
      <trkpt lat="40.30922" lon="20.46183">
        <ele>847.05999755859</ele>
        <time>2023-09-28T12:02:59.000Z</time>
      </trkpt>
      <trkpt lat="40.3092" lon="20.46176">
        <ele>846.58001708984</ele>
        <time>2023-09-28T12:02:58.000Z</time>
      </trkpt>
      <trkpt lat="40.30918" lon="20.46167">
        <ele>846.58001708984</ele>
        <time>2023-09-28T12:02:57.000Z</time>
      </trkpt>
      <trkpt lat="40.30917" lon="20.4616">
        <ele>846.09997558594</ele>
        <time>2023-09-28T12:02:56.000Z</time>
      </trkpt>
      <trkpt lat="40.30916" lon="20.46152">
        <ele>845.61999511719</ele>
        <time>2023-09-28T12:02:55.000Z</time>
      </trkpt>
      <trkpt lat="40.30915" lon="20.46146">
        <ele>845.14001464844</ele>
        <time>2023-09-28T12:02:54.000Z</time>
      </trkpt>
      <trkpt lat="40.30915" lon="20.4614">
        <ele>845.14001464844</ele>
        <time>2023-09-28T12:02:53.000Z</time>
      </trkpt>
      <trkpt lat="40.30916" lon="20.46133">
        <ele>845.14001464844</ele>
        <time>2023-09-28T12:02:52.000Z</time>
      </trkpt>
      <trkpt lat="40.30918" lon="20.46127">
        <ele>845.61999511719</ele>
        <time>2023-09-28T12:02:51.000Z</time>
      </trkpt>
      <trkpt lat="40.30919" lon="20.46121">
        <ele>846.09997558594</ele>
        <time>2023-09-28T12:02:50.000Z</time>
      </trkpt>
      <trkpt lat="40.3092" lon="20.46116">
        <ele>846.58001708984</ele>
        <time>2023-09-28T12:02:49.000Z</time>
      </trkpt>
      <trkpt lat="40.30921" lon="20.46108">
        <ele>847.05999755859</ele>
        <time>2023-09-28T12:02:48.000Z</time>
      </trkpt>
      <trkpt lat="40.30921" lon="20.461">
        <ele>847.53997802734</ele>
        <time>2023-09-28T12:02:47.000Z</time>
      </trkpt>
      <trkpt lat="40.3092" lon="20.46094">
        <ele>848.02001953125</ele>
        <time>2023-09-28T12:02:46.000Z</time>
      </trkpt>
      <trkpt lat="40.30917" lon="20.46087">
        <ele>848.5</ele>
        <time>2023-09-28T12:02:45.000Z</time>
      </trkpt>
      <trkpt lat="40.30914" lon="20.4608">
        <ele>848.97998046875</ele>
        <time>2023-09-28T12:02:44.000Z</time>
      </trkpt>
      <trkpt lat="40.30912" lon="20.46074">
        <ele>849.94000244141</ele>
        <time>2023-09-28T12:02:43.000Z</time>
      </trkpt>
      <trkpt lat="40.30911" lon="20.46067">
        <ele>850.41998291016</ele>
        <time>2023-09-28T12:02:42.000Z</time>
      </trkpt>
      <trkpt lat="40.3091" lon="20.46061">
        <ele>850.90002441406</ele>
        <time>2023-09-28T12:02:41.000Z</time>
      </trkpt>
      <trkpt lat="40.30908" lon="20.46053">
        <ele>852.34997558594</ele>
        <time>2023-09-28T12:02:40.000Z</time>
      </trkpt>
      <trkpt lat="40.30907" lon="20.46047">
        <ele>853.30999755859</ele>
        <time>2023-09-28T12:02:39.000Z</time>
      </trkpt>
      <trkpt lat="40.30906" lon="20.46042">
        <ele>853.78997802734</ele>
        <time>2023-09-28T12:02:38.000Z</time>
      </trkpt>
      <trkpt lat="40.30906" lon="20.46034">
        <ele>854.27001953125</ele>
        <time>2023-09-28T12:02:37.000Z</time>
      </trkpt>
      <trkpt lat="40.30906" lon="20.46028">
        <ele>854.75</ele>
        <time>2023-09-28T12:02:36.000Z</time>
      </trkpt>
      <trkpt lat="40.30906" lon="20.46022">
        <ele>855.22998046875</ele>
        <time>2023-09-28T12:02:35.000Z</time>
      </trkpt>
      <trkpt lat="40.30898" lon="20.46012">
        <ele>856.19000244141</ele>
        <time>2023-09-28T12:02:32.000Z</time>
      </trkpt>
      <trkpt lat="40.30894" lon="20.46011">
        <ele>856.19000244141</ele>
        <time>2023-09-28T12:02:31.000Z</time>
      </trkpt>
      <trkpt lat="40.30891" lon="20.46011">
        <ele>856.66998291016</ele>
        <time>2023-09-28T12:02:30.000Z</time>
      </trkpt>
      <trkpt lat="40.30884" lon="20.46">
        <ele>855.22998046875</ele>
        <time>2023-09-28T12:02:26.000Z</time>
      </trkpt>
      <trkpt lat="40.30885" lon="20.45995">
        <ele>855.22998046875</ele>
        <time>2023-09-28T12:02:25.000Z</time>
      </trkpt>
      <trkpt lat="40.30887" lon="20.45986">
        <ele>855.22998046875</ele>
        <time>2023-09-28T12:02:24.000Z</time>
      </trkpt>
      <trkpt lat="40.30888" lon="20.4598">
        <ele>855.71002197266</ele>
        <time>2023-09-28T12:02:23.000Z</time>
      </trkpt>
      <trkpt lat="40.30888" lon="20.45973">
        <ele>855.22998046875</ele>
        <time>2023-09-28T12:02:22.000Z</time>
      </trkpt>
      <trkpt lat="40.30886" lon="20.45969">
        <ele>855.22998046875</ele>
        <time>2023-09-28T12:02:21.000Z</time>
      </trkpt>
      <trkpt lat="40.30882" lon="20.45961">
        <ele>854.75</ele>
        <time>2023-09-28T12:02:20.000Z</time>
      </trkpt>
      <trkpt lat="40.30879" lon="20.45956">
        <ele>855.22998046875</ele>
        <time>2023-09-28T12:02:19.000Z</time>
      </trkpt>
      <trkpt lat="40.30875" lon="20.4595">
        <ele>856.19000244141</ele>
        <time>2023-09-28T12:02:18.000Z</time>
      </trkpt>
      <trkpt lat="40.30874" lon="20.45947">
        <ele>856.19000244141</ele>
        <time>2023-09-28T12:02:17.000Z</time>
      </trkpt>
      <trkpt lat="40.30864" lon="20.45942">
        <ele>856.19000244141</ele>
        <time>2023-09-28T12:02:14.000Z</time>
      </trkpt>
      <trkpt lat="40.30859" lon="20.45945">
        <ele>856.19000244141</ele>
        <time>2023-09-28T12:02:13.000Z</time>
      </trkpt>
      <trkpt lat="40.30854" lon="20.45949">
        <ele>856.66998291016</ele>
        <time>2023-09-28T12:02:12.000Z</time>
      </trkpt>
      <trkpt lat="40.30848" lon="20.45953">
        <ele>856.66998291016</ele>
        <time>2023-09-28T12:02:11.000Z</time>
      </trkpt>
      <trkpt lat="40.30845" lon="20.45956">
        <ele>856.66998291016</ele>
        <time>2023-09-28T12:02:10.000Z</time>
      </trkpt>
      <trkpt lat="40.30839" lon="20.45961">
        <ele>856.66998291016</ele>
        <time>2023-09-28T12:02:09.000Z</time>
      </trkpt>
      <trkpt lat="40.30829" lon="20.45969">
        <ele>857.15002441406</ele>
        <time>2023-09-28T12:02:08.000Z</time>
      </trkpt>
      <trkpt lat="40.30824" lon="20.45974">
        <ele>858.10998535156</ele>
        <time>2023-09-28T12:02:07.000Z</time>
      </trkpt>
      <trkpt lat="40.30819" lon="20.45981">
        <ele>858.59002685547</ele>
        <time>2023-09-28T12:02:06.000Z</time>
      </trkpt>
      <trkpt lat="40.30815" lon="20.45987">
        <ele>858.59002685547</ele>
        <time>2023-09-28T12:02:05.000Z</time>
      </trkpt>
      <trkpt lat="40.30813" lon="20.45992">
        <ele>858.59002685547</ele>
        <time>2023-09-28T12:02:04.000Z</time>
      </trkpt>
      <trkpt lat="40.30811" lon="20.46001">
        <ele>858.59002685547</ele>
        <time>2023-09-28T12:02:03.000Z</time>
      </trkpt>
      <trkpt lat="40.3081" lon="20.46006">
        <ele>858.10998535156</ele>
        <time>2023-09-28T12:02:02.000Z</time>
      </trkpt>
      <trkpt lat="40.30808" lon="20.46013">
        <ele>857.63000488281</ele>
        <time>2023-09-28T12:02:01.000Z</time>
      </trkpt>
      <trkpt lat="40.30808" lon="20.46018">
        <ele>856.66998291016</ele>
        <time>2023-09-28T12:02:00.000Z</time>
      </trkpt>
      <trkpt lat="40.3081" lon="20.46024">
        <ele>856.19000244141</ele>
        <time>2023-09-28T12:01:59.000Z</time>
      </trkpt>
      <trkpt lat="40.3081" lon="20.46031">
        <ele>855.22998046875</ele>
        <time>2023-09-28T12:01:58.000Z</time>
      </trkpt>
      <trkpt lat="40.30809" lon="20.46037">
        <ele>854.27001953125</ele>
        <time>2023-09-28T12:01:57.000Z</time>
      </trkpt>
      <trkpt lat="40.30807" lon="20.46043">
        <ele>853.78997802734</ele>
        <time>2023-09-28T12:01:56.000Z</time>
      </trkpt>
      <trkpt lat="40.30802" lon="20.46049">
        <ele>852.83001708984</ele>
        <time>2023-09-28T12:01:55.000Z</time>
      </trkpt>
      <trkpt lat="40.30799" lon="20.46054">
        <ele>852.34997558594</ele>
        <time>2023-09-28T12:01:54.000Z</time>
      </trkpt>
      <trkpt lat="40.30794" lon="20.46059">
        <ele>851.86999511719</ele>
        <time>2023-09-28T12:01:53.000Z</time>
      </trkpt>
      <trkpt lat="40.30791" lon="20.46063">
        <ele>850.90002441406</ele>
        <time>2023-09-28T12:01:52.000Z</time>
      </trkpt>
      <trkpt lat="40.30787" lon="20.46067">
        <ele>850.41998291016</ele>
        <time>2023-09-28T12:01:51.000Z</time>
      </trkpt>
      <trkpt lat="40.30785" lon="20.46069">
        <ele>849.94000244141</ele>
        <time>2023-09-28T12:01:50.000Z</time>
      </trkpt>
      <trkpt lat="40.30773" lon="20.46059">
        <ele>847.05999755859</ele>
        <time>2023-09-28T12:01:45.000Z</time>
      </trkpt>
      <trkpt lat="40.30774" lon="20.46056">
        <ele>846.58001708984</ele>
        <time>2023-09-28T12:01:44.000Z</time>
      </trkpt>
      <trkpt lat="40.30775" lon="20.46043">
        <ele>846.58001708984</ele>
        <time>2023-09-28T12:01:43.000Z</time>
      </trkpt>
      <trkpt lat="40.30776" lon="20.46034">
        <ele>846.58001708984</ele>
        <time>2023-09-28T12:01:42.000Z</time>
      </trkpt>
      <trkpt lat="40.30775" lon="20.46028">
        <ele>846.58001708984</ele>
        <time>2023-09-28T12:01:41.000Z</time>
      </trkpt>
      <trkpt lat="40.30766" lon="20.46019">
        <ele>846.58001708984</ele>
        <time>2023-09-28T12:01:37.000Z</time>
      </trkpt>
      <trkpt lat="40.30748" lon="20.46016">
        <ele>847.05999755859</ele>
        <time>2023-09-28T12:01:31.000Z</time>
      </trkpt>
      <trkpt lat="40.30739" lon="20.46032">
        <ele>846.58001708984</ele>
        <time>2023-09-28T12:01:25.000Z</time>
      </trkpt>
      <trkpt lat="40.30737" lon="20.46039">
        <ele>846.58001708984</ele>
        <time>2023-09-28T12:01:24.000Z</time>
      </trkpt>
      <trkpt lat="40.30736" lon="20.46044">
        <ele>846.58001708984</ele>
        <time>2023-09-28T12:01:23.000Z</time>
      </trkpt>
      <trkpt lat="40.30735" lon="20.4605">
        <ele>846.58001708984</ele>
        <time>2023-09-28T12:01:22.000Z</time>
      </trkpt>
      <trkpt lat="40.30734" lon="20.46057">
        <ele>846.09997558594</ele>
        <time>2023-09-28T12:01:21.000Z</time>
      </trkpt>
      <trkpt lat="40.30733" lon="20.4607">
        <ele>845.61999511719</ele>
        <time>2023-09-28T12:01:20.000Z</time>
      </trkpt>
      <trkpt lat="40.30732" lon="20.46079">
        <ele>845.61999511719</ele>
        <time>2023-09-28T12:01:19.000Z</time>
      </trkpt>
      <trkpt lat="40.30731" lon="20.46088">
        <ele>845.14001464844</ele>
        <time>2023-09-28T12:01:18.000Z</time>
      </trkpt>
      <trkpt lat="40.3073" lon="20.46097">
        <ele>844.65997314453</ele>
        <time>2023-09-28T12:01:17.000Z</time>
      </trkpt>
      <trkpt lat="40.30727" lon="20.46104">
        <ele>843.69000244141</ele>
        <time>2023-09-28T12:01:16.000Z</time>
      </trkpt>
      <trkpt lat="40.30724" lon="20.46112">
        <ele>842.72998046875</ele>
        <time>2023-09-28T12:01:15.000Z</time>
      </trkpt>
      <trkpt lat="40.30721" lon="20.46118">
        <ele>842.72998046875</ele>
        <time>2023-09-28T12:01:14.000Z</time>
      </trkpt>
      <trkpt lat="40.30715" lon="20.4613">
        <ele>843.69000244141</ele>
        <time>2023-09-28T12:01:13.000Z</time>
      </trkpt>
      <trkpt lat="40.30712" lon="20.46137">
        <ele>844.65997314453</ele>
        <time>2023-09-28T12:01:12.000Z</time>
      </trkpt>
      <trkpt lat="40.30711" lon="20.46143">
        <ele>845.14001464844</ele>
        <time>2023-09-28T12:01:11.000Z</time>
      </trkpt>
      <trkpt lat="40.3071" lon="20.46148">
        <ele>845.61999511719</ele>
        <time>2023-09-28T12:01:10.000Z</time>
      </trkpt>
      <trkpt lat="40.3071" lon="20.46155">
        <ele>845.61999511719</ele>
        <time>2023-09-28T12:01:09.000Z</time>
      </trkpt>
      <trkpt lat="40.30711" lon="20.46162">
        <ele>845.61999511719</ele>
        <time>2023-09-28T12:01:08.000Z</time>
      </trkpt>
      <trkpt lat="40.30711" lon="20.46169">
        <ele>846.09997558594</ele>
        <time>2023-09-28T12:01:07.000Z</time>
      </trkpt>
      <trkpt lat="40.30712" lon="20.46173">
        <ele>846.09997558594</ele>
        <time>2023-09-28T12:01:06.000Z</time>
      </trkpt>
      <trkpt lat="40.30714" lon="20.46181">
        <ele>846.09997558594</ele>
        <time>2023-09-28T12:01:05.000Z</time>
      </trkpt>
      <trkpt lat="40.30716" lon="20.46188">
        <ele>846.09997558594</ele>
        <time>2023-09-28T12:01:04.000Z</time>
      </trkpt>
      <trkpt lat="40.30718" lon="20.46193">
        <ele>846.09997558594</ele>
        <time>2023-09-28T12:01:03.000Z</time>
      </trkpt>
      <trkpt lat="40.30719" lon="20.46197">
        <ele>846.09997558594</ele>
        <time>2023-09-28T12:01:02.000Z</time>
      </trkpt>
      <trkpt lat="40.30723" lon="20.46205">
        <ele>846.58001708984</ele>
        <time>2023-09-28T12:01:01.000Z</time>
      </trkpt>
      <trkpt lat="40.30725" lon="20.46211">
        <ele>846.58001708984</ele>
        <time>2023-09-28T12:01:00.000Z</time>
      </trkpt>
      <trkpt lat="40.30726" lon="20.46215">
        <ele>846.58001708984</ele>
        <time>2023-09-28T12:00:59.000Z</time>
      </trkpt>
      <trkpt lat="40.30727" lon="20.46223">
        <ele>846.58001708984</ele>
        <time>2023-09-28T12:00:58.000Z</time>
      </trkpt>
      <trkpt lat="40.30729" lon="20.46229">
        <ele>846.58001708984</ele>
        <time>2023-09-28T12:00:57.000Z</time>
      </trkpt>
      <trkpt lat="40.30732" lon="20.46236">
        <ele>845.61999511719</ele>
        <time>2023-09-28T12:00:56.000Z</time>
      </trkpt>
      <trkpt lat="40.30735" lon="20.46242">
        <ele>845.14001464844</ele>
        <time>2023-09-28T12:00:55.000Z</time>
      </trkpt>
      <trkpt lat="40.30737" lon="20.46247">
        <ele>844.65997314453</ele>
        <time>2023-09-28T12:00:54.000Z</time>
      </trkpt>
      <trkpt lat="40.30741" lon="20.46255">
        <ele>843.21002197266</ele>
        <time>2023-09-28T12:00:53.000Z</time>
      </trkpt>
      <trkpt lat="40.30742" lon="20.46259">
        <ele>842.25</ele>
        <time>2023-09-28T12:00:52.000Z</time>
      </trkpt>
      <trkpt lat="40.30744" lon="20.46267">
        <ele>840.33001708984</ele>
        <time>2023-09-28T12:00:51.000Z</time>
      </trkpt>
      <trkpt lat="40.30743" lon="20.46273">
        <ele>839.84997558594</ele>
        <time>2023-09-28T12:00:50.000Z</time>
      </trkpt>
      <trkpt lat="40.3074" lon="20.46278">
        <ele>838.89001464844</ele>
        <time>2023-09-28T12:00:49.000Z</time>
      </trkpt>
      <trkpt lat="40.30738" lon="20.4628">
        <ele>838.89001464844</ele>
        <time>2023-09-28T12:00:48.000Z</time>
      </trkpt>
      <trkpt lat="40.30731" lon="20.46288">
        <ele>837.92999267578</ele>
        <time>2023-09-28T12:00:47.000Z</time>
      </trkpt>
      <trkpt lat="40.30728" lon="20.46293">
        <ele>837.92999267578</ele>
        <time>2023-09-28T12:00:46.000Z</time>
      </trkpt>
      <trkpt lat="40.3073" lon="20.46306">
        <ele>837.45001220703</ele>
        <time>2023-09-28T12:00:43.000Z</time>
      </trkpt>
      <trkpt lat="40.30737" lon="20.46314">
        <ele>836.47998046875</ele>
        <time>2023-09-28T12:00:41.000Z</time>
      </trkpt>
      <trkpt lat="40.3074" lon="20.46319">
        <ele>836</ele>
        <time>2023-09-28T12:00:40.000Z</time>
      </trkpt>
      <trkpt lat="40.30742" lon="20.46325">
        <ele>835.52001953125</ele>
        <time>2023-09-28T12:00:39.000Z</time>
      </trkpt>
      <trkpt lat="40.30742" lon="20.4633">
        <ele>835.03997802734</ele>
        <time>2023-09-28T12:00:38.000Z</time>
      </trkpt>
      <trkpt lat="40.30741" lon="20.46335">
        <ele>834.08001708984</ele>
        <time>2023-09-28T12:00:37.000Z</time>
      </trkpt>
      <trkpt lat="40.30737" lon="20.46346">
        <ele>834.08001708984</ele>
        <time>2023-09-28T12:00:36.000Z</time>
      </trkpt>
      <trkpt lat="40.30736" lon="20.46353">
        <ele>834.55999755859</ele>
        <time>2023-09-28T12:00:35.000Z</time>
      </trkpt>
      <trkpt lat="40.30736" lon="20.46363">
        <ele>835.03997802734</ele>
        <time>2023-09-28T12:00:34.000Z</time>
      </trkpt>
      <trkpt lat="40.30735" lon="20.46371">
        <ele>836</ele>
        <time>2023-09-28T12:00:33.000Z</time>
      </trkpt>
      <trkpt lat="40.30734" lon="20.46378">
        <ele>836.47998046875</ele>
        <time>2023-09-28T12:00:32.000Z</time>
      </trkpt>
      <trkpt lat="40.30732" lon="20.46384">
        <ele>836.47998046875</ele>
        <time>2023-09-28T12:00:31.000Z</time>
      </trkpt>
      <trkpt lat="40.30732" lon="20.4639">
        <ele>836.47998046875</ele>
        <time>2023-09-28T12:00:30.000Z</time>
      </trkpt>
      <trkpt lat="40.30733" lon="20.46396">
        <ele>836.96002197266</ele>
        <time>2023-09-28T12:00:29.000Z</time>
      </trkpt>
      <trkpt lat="40.30736" lon="20.46402">
        <ele>836.96002197266</ele>
        <time>2023-09-28T12:00:28.000Z</time>
      </trkpt>
      <trkpt lat="40.3074" lon="20.46408">
        <ele>836.96002197266</ele>
        <time>2023-09-28T12:00:27.000Z</time>
      </trkpt>
      <trkpt lat="40.30743" lon="20.46412">
        <ele>836.96002197266</ele>
        <time>2023-09-28T12:00:26.000Z</time>
      </trkpt>
      <trkpt lat="40.30745" lon="20.46413">
        <ele>836.96002197266</ele>
        <time>2023-09-28T12:00:25.000Z</time>
      </trkpt>
      <trkpt lat="40.30752" lon="20.46421">
        <ele>835.52001953125</ele>
        <time>2023-09-28T12:00:23.000Z</time>
      </trkpt>
      <trkpt lat="40.30754" lon="20.46425">
        <ele>835.52001953125</ele>
        <time>2023-09-28T12:00:22.000Z</time>
      </trkpt>
      <trkpt lat="40.30755" lon="20.4643">
        <ele>836</ele>
        <time>2023-09-28T12:00:21.000Z</time>
      </trkpt>
      <trkpt lat="40.30756" lon="20.4644">
        <ele>836</ele>
        <time>2023-09-28T12:00:20.000Z</time>
      </trkpt>
      <trkpt lat="40.30757" lon="20.46448">
        <ele>836.47998046875</ele>
        <time>2023-09-28T12:00:19.000Z</time>
      </trkpt>
      <trkpt lat="40.30758" lon="20.46455">
        <ele>836.96002197266</ele>
        <time>2023-09-28T12:00:18.000Z</time>
      </trkpt>
      <trkpt lat="40.30764" lon="20.46468">
        <ele>837.92999267578</ele>
        <time>2023-09-28T12:00:13.000Z</time>
      </trkpt>
      <trkpt lat="40.3077" lon="20.46494">
        <ele>838.40997314453</ele>
        <time>2023-09-28T12:00:06.000Z</time>
      </trkpt>
      <trkpt lat="40.30768" lon="20.46501">
        <ele>837.92999267578</ele>
        <time>2023-09-28T12:00:05.000Z</time>
      </trkpt>
      <trkpt lat="40.30767" lon="20.46509">
        <ele>837.45001220703</ele>
        <time>2023-09-28T12:00:04.000Z</time>
      </trkpt>
      <trkpt lat="40.30766" lon="20.46518">
        <ele>837.45001220703</ele>
        <time>2023-09-28T12:00:03.000Z</time>
      </trkpt>
      <trkpt lat="40.30766" lon="20.46524">
        <ele>836.96002197266</ele>
        <time>2023-09-28T12:00:02.000Z</time>
      </trkpt>
      <trkpt lat="40.30765" lon="20.46529">
        <ele>836.96002197266</ele>
        <time>2023-09-28T12:00:01.000Z</time>
      </trkpt>
      <trkpt lat="40.30764" lon="20.46539">
        <ele>836.47998046875</ele>
        <time>2023-09-28T12:00:00.000Z</time>
      </trkpt>
      <trkpt lat="40.30762" lon="20.46544">
        <ele>836</ele>
        <time>2023-09-28T11:59:59.000Z</time>
      </trkpt>
      <trkpt lat="40.30759" lon="20.46553">
        <ele>835.52001953125</ele>
        <time>2023-09-28T11:59:58.000Z</time>
      </trkpt>
      <trkpt lat="40.30757" lon="20.46558">
        <ele>835.52001953125</ele>
        <time>2023-09-28T11:59:57.000Z</time>
      </trkpt>
      <trkpt lat="40.30754" lon="20.46567">
        <ele>835.03997802734</ele>
        <time>2023-09-28T11:59:56.000Z</time>
      </trkpt>
      <trkpt lat="40.30752" lon="20.46575">
        <ele>834.55999755859</ele>
        <time>2023-09-28T11:59:55.000Z</time>
      </trkpt>
      <trkpt lat="40.30752" lon="20.46582">
        <ele>834.08001708984</ele>
        <time>2023-09-28T11:59:54.000Z</time>
      </trkpt>
      <trkpt lat="40.30752" lon="20.46586">
        <ele>833.59997558594</ele>
        <time>2023-09-28T11:59:53.000Z</time>
      </trkpt>
      <trkpt lat="40.30753" lon="20.46597">
        <ele>832.64001464844</ele>
        <time>2023-09-28T11:59:52.000Z</time>
      </trkpt>
      <trkpt lat="40.30753" lon="20.46602">
        <ele>831.67999267578</ele>
        <time>2023-09-28T11:59:51.000Z</time>
      </trkpt>
      <trkpt lat="40.30752" lon="20.46607">
        <ele>831.67999267578</ele>
        <time>2023-09-28T11:59:50.000Z</time>
      </trkpt>
      <trkpt lat="40.3075" lon="20.46611">
        <ele>831.20001220703</ele>
        <time>2023-09-28T11:59:49.000Z</time>
      </trkpt>
      <trkpt lat="40.30746" lon="20.46618">
        <ele>830.71997070312</ele>
        <time>2023-09-28T11:59:48.000Z</time>
      </trkpt>
      <trkpt lat="40.30744" lon="20.46623">
        <ele>830.71997070312</ele>
        <time>2023-09-28T11:59:47.000Z</time>
      </trkpt>
      <trkpt lat="40.30742" lon="20.46629">
        <ele>829.76000976562</ele>
        <time>2023-09-28T11:59:46.000Z</time>
      </trkpt>
      <trkpt lat="40.30742" lon="20.46634">
        <ele>828.78997802734</ele>
        <time>2023-09-28T11:59:45.000Z</time>
      </trkpt>
      <trkpt lat="40.30741" lon="20.46642">
        <ele>827.34997558594</ele>
        <time>2023-09-28T11:59:44.000Z</time>
      </trkpt>
      <trkpt lat="40.30742" lon="20.46648">
        <ele>826.86999511719</ele>
        <time>2023-09-28T11:59:43.000Z</time>
      </trkpt>
      <trkpt lat="40.30742" lon="20.46652">
        <ele>825.90997314453</ele>
        <time>2023-09-28T11:59:42.000Z</time>
      </trkpt>
      <trkpt lat="40.30744" lon="20.46661">
        <ele>824.95001220703</ele>
        <time>2023-09-28T11:59:41.000Z</time>
      </trkpt>
      <trkpt lat="40.30746" lon="20.46668">
        <ele>823.51000976562</ele>
        <time>2023-09-28T11:59:40.000Z</time>
      </trkpt>
      <trkpt lat="40.30747" lon="20.46673">
        <ele>823.03002929688</ele>
        <time>2023-09-28T11:59:39.000Z</time>
      </trkpt>
      <trkpt lat="40.30749" lon="20.46681">
        <ele>822.54998779297</ele>
        <time>2023-09-28T11:59:38.000Z</time>
      </trkpt>
      <trkpt lat="40.3075" lon="20.46688">
        <ele>821.58001708984</ele>
        <time>2023-09-28T11:59:37.000Z</time>
      </trkpt>
      <trkpt lat="40.3075" lon="20.46694">
        <ele>821.09997558594</ele>
        <time>2023-09-28T11:59:36.000Z</time>
      </trkpt>
      <trkpt lat="40.30749" lon="20.46699">
        <ele>821.09997558594</ele>
        <time>2023-09-28T11:59:35.000Z</time>
      </trkpt>
      <trkpt lat="40.30747" lon="20.46703">
        <ele>821.09997558594</ele>
        <time>2023-09-28T11:59:34.000Z</time>
      </trkpt>
      <trkpt lat="40.30744" lon="20.46708">
        <ele>820.61999511719</ele>
        <time>2023-09-28T11:59:33.000Z</time>
      </trkpt>
      <trkpt lat="40.30743" lon="20.46713">
        <ele>820.14001464844</ele>
        <time>2023-09-28T11:59:32.000Z</time>
      </trkpt>
      <trkpt lat="40.30742" lon="20.46718">
        <ele>819.65997314453</ele>
        <time>2023-09-28T11:59:31.000Z</time>
      </trkpt>
      <trkpt lat="40.30742" lon="20.46726">
        <ele>818.21997070312</ele>
        <time>2023-09-28T11:59:30.000Z</time>
      </trkpt>
      <trkpt lat="40.30742" lon="20.46732">
        <ele>817.73999023438</ele>
        <time>2023-09-28T11:59:29.000Z</time>
      </trkpt>
      <trkpt lat="40.30741" lon="20.46744">
        <ele>816.29998779297</ele>
        <time>2023-09-28T11:59:28.000Z</time>
      </trkpt>
      <trkpt lat="40.3074" lon="20.46753">
        <ele>815.34002685547</ele>
        <time>2023-09-28T11:59:27.000Z</time>
      </trkpt>
      <trkpt lat="40.30739" lon="20.4676">
        <ele>814.36999511719</ele>
        <time>2023-09-28T11:59:26.000Z</time>
      </trkpt>
      <trkpt lat="40.30736" lon="20.46766">
        <ele>813.89001464844</ele>
        <time>2023-09-28T11:59:25.000Z</time>
      </trkpt>
      <trkpt lat="40.30731" lon="20.46772">
        <ele>813.40997314453</ele>
        <time>2023-09-28T11:59:24.000Z</time>
      </trkpt>
      <trkpt lat="40.30725" lon="20.46777">
        <ele>812.92999267578</ele>
        <time>2023-09-28T11:59:23.000Z</time>
      </trkpt>
      <trkpt lat="40.30721" lon="20.46782">
        <ele>812.45001220703</ele>
        <time>2023-09-28T11:59:22.000Z</time>
      </trkpt>
      <trkpt lat="40.30719" lon="20.46785">
        <ele>812.45001220703</ele>
        <time>2023-09-28T11:59:21.000Z</time>
      </trkpt>
      <trkpt lat="40.30711" lon="20.46797">
        <ele>811.48999023438</ele>
        <time>2023-09-28T11:59:20.000Z</time>
      </trkpt>
      <trkpt lat="40.30706" lon="20.46804">
        <ele>811.48999023438</ele>
        <time>2023-09-28T11:59:19.000Z</time>
      </trkpt>
      <trkpt lat="40.30701" lon="20.4681">
        <ele>811.01000976562</ele>
        <time>2023-09-28T11:59:18.000Z</time>
      </trkpt>
      <trkpt lat="40.30698" lon="20.46813">
        <ele>810.53002929688</ele>
        <time>2023-09-28T11:59:17.000Z</time>
      </trkpt>
      <trkpt lat="40.30693" lon="20.46818">
        <ele>809.57000732422</ele>
        <time>2023-09-28T11:59:16.000Z</time>
      </trkpt>
      <trkpt lat="40.30686" lon="20.46824">
        <ele>808.13000488281</ele>
        <time>2023-09-28T11:59:15.000Z</time>
      </trkpt>
      <trkpt lat="40.30684" lon="20.46825">
        <ele>807.64001464844</ele>
        <time>2023-09-28T11:59:14.000Z</time>
      </trkpt>
      <trkpt lat="40.30676" lon="20.46831">
        <ele>806.20001220703</ele>
        <time>2023-09-28T11:59:13.000Z</time>
      </trkpt>
      <trkpt lat="40.30673" lon="20.46834">
        <ele>806.20001220703</ele>
        <time>2023-09-28T11:59:12.000Z</time>
      </trkpt>
      <trkpt lat="40.30671" lon="20.46839">
        <ele>806.20001220703</ele>
        <time>2023-09-28T11:59:11.000Z</time>
      </trkpt>
      <trkpt lat="40.3067" lon="20.46843">
        <ele>806.67999267578</ele>
        <time>2023-09-28T11:59:10.000Z</time>
      </trkpt>
      <trkpt lat="40.30669" lon="20.4685">
        <ele>805.71997070312</ele>
        <time>2023-09-28T11:59:09.000Z</time>
      </trkpt>
      <trkpt lat="40.3067" lon="20.46856">
        <ele>805.23999023438</ele>
        <time>2023-09-28T11:59:08.000Z</time>
      </trkpt>
      <trkpt lat="40.30671" lon="20.46862">
        <ele>804.28002929688</ele>
        <time>2023-09-28T11:59:07.000Z</time>
      </trkpt>
      <trkpt lat="40.30673" lon="20.46868">
        <ele>803.32000732422</ele>
        <time>2023-09-28T11:59:06.000Z</time>
      </trkpt>
      <trkpt lat="40.30675" lon="20.46872">
        <ele>802.35998535156</ele>
        <time>2023-09-28T11:59:05.000Z</time>
      </trkpt>
      <trkpt lat="40.30679" lon="20.4688">
        <ele>801.40002441406</ele>
        <time>2023-09-28T11:59:04.000Z</time>
      </trkpt>
      <trkpt lat="40.30681" lon="20.46884">
        <ele>801.40002441406</ele>
        <time>2023-09-28T11:59:03.000Z</time>
      </trkpt>
      <trkpt lat="40.30684" lon="20.46888">
        <ele>801.40002441406</ele>
        <time>2023-09-28T11:59:02.000Z</time>
      </trkpt>
      <trkpt lat="40.30689" lon="20.46897">
        <ele>800.91998291016</ele>
        <time>2023-09-28T11:59:01.000Z</time>
      </trkpt>
      <trkpt lat="40.30693" lon="20.46901">
        <ele>800.44000244141</ele>
        <time>2023-09-28T11:59:00.000Z</time>
      </trkpt>
      <trkpt lat="40.30696" lon="20.46906">
        <ele>800.44000244141</ele>
        <time>2023-09-28T11:58:59.000Z</time>
      </trkpt>
      <trkpt lat="40.30702" lon="20.46924">
        <ele>800.44000244141</ele>
        <time>2023-09-28T11:58:55.000Z</time>
      </trkpt>
      <trkpt lat="40.30701" lon="20.46929">
        <ele>800.44000244141</ele>
        <time>2023-09-28T11:58:54.000Z</time>
      </trkpt>
      <trkpt lat="40.307" lon="20.46935">
        <ele>800.91998291016</ele>
        <time>2023-09-28T11:58:53.000Z</time>
      </trkpt>
      <trkpt lat="40.30699" lon="20.46941">
        <ele>800.44000244141</ele>
        <time>2023-09-28T11:58:52.000Z</time>
      </trkpt>
      <trkpt lat="40.30697" lon="20.46948">
        <ele>799.46997070312</ele>
        <time>2023-09-28T11:58:51.000Z</time>
      </trkpt>
      <trkpt lat="40.30696" lon="20.46956">
        <ele>798.98999023438</ele>
        <time>2023-09-28T11:58:50.000Z</time>
      </trkpt>
      <trkpt lat="40.30695" lon="20.46962">
        <ele>798.51000976562</ele>
        <time>2023-09-28T11:58:49.000Z</time>
      </trkpt>
      <trkpt lat="40.30695" lon="20.4697">
        <ele>798.51000976562</ele>
        <time>2023-09-28T11:58:48.000Z</time>
      </trkpt>
      <trkpt lat="40.30695" lon="20.46976">
        <ele>798.51000976562</ele>
        <time>2023-09-28T11:58:47.000Z</time>
      </trkpt>
      <trkpt lat="40.30694" lon="20.46984">
        <ele>798.51000976562</ele>
        <time>2023-09-28T11:58:46.000Z</time>
      </trkpt>
      <trkpt lat="40.30694" lon="20.46994">
        <ele>798.51000976562</ele>
        <time>2023-09-28T11:58:45.000Z</time>
      </trkpt>
      <trkpt lat="40.30695" lon="20.47003">
        <ele>798.98999023438</ele>
        <time>2023-09-28T11:58:44.000Z</time>
      </trkpt>
      <trkpt lat="40.30695" lon="20.47009">
        <ele>798.98999023438</ele>
        <time>2023-09-28T11:58:43.000Z</time>
      </trkpt>
      <trkpt lat="40.30695" lon="20.47015">
        <ele>798.98999023438</ele>
        <time>2023-09-28T11:58:42.000Z</time>
      </trkpt>
      <trkpt lat="40.30696" lon="20.47022">
        <ele>798.98999023438</ele>
        <time>2023-09-28T11:58:41.000Z</time>
      </trkpt>
      <trkpt lat="40.30696" lon="20.47029">
        <ele>798.51000976562</ele>
        <time>2023-09-28T11:58:40.000Z</time>
      </trkpt>
      <trkpt lat="40.30696" lon="20.4703">
        <ele>798.51000976562</ele>
        <time>2023-09-28T11:58:39.000Z</time>
      </trkpt>
      <trkpt lat="40.30682" lon="20.4704">
        <ele>797.07000732422</ele>
        <time>2023-09-28T11:58:34.000Z</time>
      </trkpt>
      <trkpt lat="40.30676" lon="20.47037">
        <ele>796.10998535156</ele>
        <time>2023-09-28T11:58:33.000Z</time>
      </trkpt>
      <trkpt lat="40.30669" lon="20.47033">
        <ele>795.15002441406</ele>
        <time>2023-09-28T11:58:32.000Z</time>
      </trkpt>
      <trkpt lat="40.30661" lon="20.47031">
        <ele>795.63000488281</ele>
        <time>2023-09-28T11:58:31.000Z</time>
      </trkpt>
      <trkpt lat="40.30653" lon="20.47031">
        <ele>795.63000488281</ele>
        <time>2023-09-28T11:58:30.000Z</time>
      </trkpt>
      <trkpt lat="40.30649" lon="20.47031">
        <ele>795.63000488281</ele>
        <time>2023-09-28T11:58:29.000Z</time>
      </trkpt>
      <trkpt lat="40.30642" lon="20.47033">
        <ele>795.63000488281</ele>
        <time>2023-09-28T11:58:28.000Z</time>
      </trkpt>
      <trkpt lat="40.30633" lon="20.47035">
        <ele>795.63000488281</ele>
        <time>2023-09-28T11:58:27.000Z</time>
      </trkpt>
      <trkpt lat="40.30628" lon="20.47036">
        <ele>795.15002441406</ele>
        <time>2023-09-28T11:58:26.000Z</time>
      </trkpt>
      <trkpt lat="40.30623" lon="20.47036">
        <ele>794.66998291016</ele>
        <time>2023-09-28T11:58:25.000Z</time>
      </trkpt>
      <trkpt lat="40.30618" lon="20.47034">
        <ele>794.19000244141</ele>
        <time>2023-09-28T11:58:24.000Z</time>
      </trkpt>
      <trkpt lat="40.30613" lon="20.47032">
        <ele>793.71002197266</ele>
        <time>2023-09-28T11:58:23.000Z</time>
      </trkpt>
      <trkpt lat="40.30607" lon="20.47031">
        <ele>793.21997070312</ele>
        <time>2023-09-28T11:58:22.000Z</time>
      </trkpt>
      <trkpt lat="40.30603" lon="20.4703">
        <ele>792.73999023438</ele>
        <time>2023-09-28T11:58:21.000Z</time>
      </trkpt>
      <trkpt lat="40.30598" lon="20.47031">
        <ele>792.73999023438</ele>
        <time>2023-09-28T11:58:20.000Z</time>
      </trkpt>
      <trkpt lat="40.30593" lon="20.47034">
        <ele>792.26000976562</ele>
        <time>2023-09-28T11:58:19.000Z</time>
      </trkpt>
      <trkpt lat="40.30587" lon="20.47037">
        <ele>791.78002929688</ele>
        <time>2023-09-28T11:58:18.000Z</time>
      </trkpt>
      <trkpt lat="40.30581" lon="20.4704">
        <ele>791.29998779297</ele>
        <time>2023-09-28T11:58:17.000Z</time>
      </trkpt>
      <trkpt lat="40.30576" lon="20.47043">
        <ele>790.82000732422</ele>
        <time>2023-09-28T11:58:16.000Z</time>
      </trkpt>
      <trkpt lat="40.30572" lon="20.47048">
        <ele>790.34002685547</ele>
        <time>2023-09-28T11:58:15.000Z</time>
      </trkpt>
      <trkpt lat="40.30566" lon="20.47052">
        <ele>789.85998535156</ele>
        <time>2023-09-28T11:58:14.000Z</time>
      </trkpt>
      <trkpt lat="40.30561" lon="20.47055">
        <ele>789.38000488281</ele>
        <time>2023-09-28T11:58:13.000Z</time>
      </trkpt>
      <trkpt lat="40.30555" lon="20.47057">
        <ele>787.46002197266</ele>
        <time>2023-09-28T11:58:12.000Z</time>
      </trkpt>
      <trkpt lat="40.30549" lon="20.4706">
        <ele>786.02001953125</ele>
        <time>2023-09-28T11:58:11.000Z</time>
      </trkpt>
      <trkpt lat="40.30544" lon="20.47062">
        <ele>784.57000732422</ele>
        <time>2023-09-28T11:58:10.000Z</time>
      </trkpt>
      <trkpt lat="40.3054" lon="20.47066">
        <ele>784.09002685547</ele>
        <time>2023-09-28T11:58:09.000Z</time>
      </trkpt>
      <trkpt lat="40.30537" lon="20.47071">
        <ele>783.60998535156</ele>
        <time>2023-09-28T11:58:08.000Z</time>
      </trkpt>
      <trkpt lat="40.30536" lon="20.47075">
        <ele>783.60998535156</ele>
        <time>2023-09-28T11:58:07.000Z</time>
      </trkpt>
      <trkpt lat="40.30534" lon="20.47082">
        <ele>783.13000488281</ele>
        <time>2023-09-28T11:58:06.000Z</time>
      </trkpt>
      <trkpt lat="40.30531" lon="20.4709">
        <ele>782.16998291016</ele>
        <time>2023-09-28T11:58:05.000Z</time>
      </trkpt>
      <trkpt lat="40.30529" lon="20.47096">
        <ele>782.16998291016</ele>
        <time>2023-09-28T11:58:04.000Z</time>
      </trkpt>
      <trkpt lat="40.30527" lon="20.47102">
        <ele>781.69000244141</ele>
        <time>2023-09-28T11:58:03.000Z</time>
      </trkpt>
      <trkpt lat="40.30525" lon="20.47109">
        <ele>781.21002197266</ele>
        <time>2023-09-28T11:58:02.000Z</time>
      </trkpt>
      <trkpt lat="40.30526" lon="20.47115">
        <ele>780.72998046875</ele>
        <time>2023-09-28T11:58:01.000Z</time>
      </trkpt>
      <trkpt lat="40.30527" lon="20.47122">
        <ele>779.77001953125</ele>
        <time>2023-09-28T11:58:00.000Z</time>
      </trkpt>
      <trkpt lat="40.30528" lon="20.47128">
        <ele>779.28997802734</ele>
        <time>2023-09-28T11:57:59.000Z</time>
      </trkpt>
      <trkpt lat="40.30527" lon="20.47134">
        <ele>778.80999755859</ele>
        <time>2023-09-28T11:57:58.000Z</time>
      </trkpt>
      <trkpt lat="40.30526" lon="20.4714">
        <ele>778.32000732422</ele>
        <time>2023-09-28T11:57:57.000Z</time>
      </trkpt>
      <trkpt lat="40.30523" lon="20.47151">
        <ele>776.88000488281</ele>
        <time>2023-09-28T11:57:56.000Z</time>
      </trkpt>
      <trkpt lat="40.3052" lon="20.47161">
        <ele>775.91998291016</ele>
        <time>2023-09-28T11:57:55.000Z</time>
      </trkpt>
      <trkpt lat="40.30516" lon="20.4717">
        <ele>774</ele>
        <time>2023-09-28T11:57:54.000Z</time>
      </trkpt>
      <trkpt lat="40.30513" lon="20.47175">
        <ele>774</ele>
        <time>2023-09-28T11:57:53.000Z</time>
      </trkpt>
      <trkpt lat="40.30507" lon="20.47188">
        <ele>773.03997802734</ele>
        <time>2023-09-28T11:57:52.000Z</time>
      </trkpt>
      <trkpt lat="40.30503" lon="20.47198">
        <ele>772.55999755859</ele>
        <time>2023-09-28T11:57:51.000Z</time>
      </trkpt>
      <trkpt lat="40.30499" lon="20.47208">
        <ele>772.08001708984</ele>
        <time>2023-09-28T11:57:50.000Z</time>
      </trkpt>
      <trkpt lat="40.30496" lon="20.47216">
        <ele>771.10998535156</ele>
        <time>2023-09-28T11:57:49.000Z</time>
      </trkpt>
      <trkpt lat="40.30492" lon="20.47223">
        <ele>770.63000488281</ele>
        <time>2023-09-28T11:57:48.000Z</time>
      </trkpt>
      <trkpt lat="40.30488" lon="20.4723">
        <ele>770.63000488281</ele>
        <time>2023-09-28T11:57:47.000Z</time>
      </trkpt>
      <trkpt lat="40.30486" lon="20.47237">
        <ele>770.15002441406</ele>
        <time>2023-09-28T11:57:46.000Z</time>
      </trkpt>
      <trkpt lat="40.30483" lon="20.47246">
        <ele>769.66998291016</ele>
        <time>2023-09-28T11:57:45.000Z</time>
      </trkpt>
      <trkpt lat="40.30479" lon="20.47257">
        <ele>769.19000244141</ele>
        <time>2023-09-28T11:57:44.000Z</time>
      </trkpt>
      <trkpt lat="40.30477" lon="20.47263">
        <ele>769.19000244141</ele>
        <time>2023-09-28T11:57:43.000Z</time>
      </trkpt>
      <trkpt lat="40.30474" lon="20.47268">
        <ele>768.71002197266</ele>
        <time>2023-09-28T11:57:42.000Z</time>
      </trkpt>
      <trkpt lat="40.3047" lon="20.47272">
        <ele>768.71002197266</ele>
        <time>2023-09-28T11:57:41.000Z</time>
      </trkpt>
      <trkpt lat="40.30465" lon="20.47277">
        <ele>768.22998046875</ele>
        <time>2023-09-28T11:57:40.000Z</time>
      </trkpt>
      <trkpt lat="40.30461" lon="20.47281">
        <ele>767.75</ele>
        <time>2023-09-28T11:57:39.000Z</time>
      </trkpt>
      <trkpt lat="40.30457" lon="20.47283">
        <ele>767.75</ele>
        <time>2023-09-28T11:57:38.000Z</time>
      </trkpt>
      <trkpt lat="40.30452" lon="20.47284">
        <ele>767.27001953125</ele>
        <time>2023-09-28T11:57:37.000Z</time>
      </trkpt>
      <trkpt lat="40.30448" lon="20.47283">
        <ele>766.78997802734</ele>
        <time>2023-09-28T11:57:36.000Z</time>
      </trkpt>
      <trkpt lat="40.30443" lon="20.47281">
        <ele>766.78997802734</ele>
        <time>2023-09-28T11:57:35.000Z</time>
      </trkpt>
      <trkpt lat="40.30438" lon="20.47278">
        <ele>766.78997802734</ele>
        <time>2023-09-28T11:57:34.000Z</time>
      </trkpt>
      <trkpt lat="40.30433" lon="20.47276">
        <ele>766.30999755859</ele>
        <time>2023-09-28T11:57:33.000Z</time>
      </trkpt>
      <trkpt lat="40.30428" lon="20.47276">
        <ele>766.30999755859</ele>
        <time>2023-09-28T11:57:32.000Z</time>
      </trkpt>
      <trkpt lat="40.30423" lon="20.47277">
        <ele>765.83001708984</ele>
        <time>2023-09-28T11:57:31.000Z</time>
      </trkpt>
      <trkpt lat="40.30416" lon="20.47279">
        <ele>765.34997558594</ele>
        <time>2023-09-28T11:57:30.000Z</time>
      </trkpt>
      <trkpt lat="40.30409" lon="20.47281">
        <ele>765.34997558594</ele>
        <time>2023-09-28T11:57:29.000Z</time>
      </trkpt>
      <trkpt lat="40.30404" lon="20.47282">
        <ele>764.86999511719</ele>
        <time>2023-09-28T11:57:28.000Z</time>
      </trkpt>
      <trkpt lat="40.30401" lon="20.47282">
        <ele>764.86999511719</ele>
        <time>2023-09-28T11:57:27.000Z</time>
      </trkpt>
      <trkpt lat="40.30393" lon="20.47281">
        <ele>765.34997558594</ele>
        <time>2023-09-28T11:57:26.000Z</time>
      </trkpt>
      <trkpt lat="40.30389" lon="20.47281">
        <ele>764.86999511719</ele>
        <time>2023-09-28T11:57:25.000Z</time>
      </trkpt>
      <trkpt lat="40.30384" lon="20.47281">
        <ele>764.86999511719</ele>
        <time>2023-09-28T11:57:24.000Z</time>
      </trkpt>
      <trkpt lat="40.30364" lon="20.4727">
        <ele>763.41998291016</ele>
        <time>2023-09-28T11:57:17.000Z</time>
      </trkpt>
      <trkpt lat="40.30358" lon="20.47267">
        <ele>762.94000244141</ele>
        <time>2023-09-28T11:57:16.000Z</time>
      </trkpt>
      <trkpt lat="40.30354" lon="20.47264">
        <ele>763.41998291016</ele>
        <time>2023-09-28T11:57:15.000Z</time>
      </trkpt>
      <trkpt lat="40.30341" lon="20.47263">
        <ele>764.39001464844</ele>
        <time>2023-09-28T11:57:11.000Z</time>
      </trkpt>
      <trkpt lat="40.30342" lon="20.4728">
        <ele>766.30999755859</ele>
        <time>2023-09-28T11:57:03.000Z</time>
      </trkpt>
      <trkpt lat="40.30338" lon="20.47296">
        <ele>768.71002197266</ele>
        <time>2023-09-28T11:56:58.000Z</time>
      </trkpt>
      <trkpt lat="40.30335" lon="20.47297">
        <ele>769.19000244141</ele>
        <time>2023-09-28T11:56:57.000Z</time>
      </trkpt>
      <trkpt lat="40.30329" lon="20.47298">
        <ele>769.66998291016</ele>
        <time>2023-09-28T11:56:56.000Z</time>
      </trkpt>
      <trkpt lat="40.30321" lon="20.47298">
        <ele>770.15002441406</ele>
        <time>2023-09-28T11:56:55.000Z</time>
      </trkpt>
      <trkpt lat="40.3032" lon="20.47298">
        <ele>770.15002441406</ele>
        <time>2023-09-28T11:56:54.000Z</time>
      </trkpt>
      <trkpt lat="40.30312" lon="20.47298">
        <ele>770.15002441406</ele>
        <time>2023-09-28T11:56:53.000Z</time>
      </trkpt>
      <trkpt lat="40.30306" lon="20.47297">
        <ele>770.15002441406</ele>
        <time>2023-09-28T11:56:52.000Z</time>
      </trkpt>
      <trkpt lat="40.30297" lon="20.47296">
        <ele>770.15002441406</ele>
        <time>2023-09-28T11:56:51.000Z</time>
      </trkpt>
      <trkpt lat="40.30292" lon="20.47294">
        <ele>770.15002441406</ele>
        <time>2023-09-28T11:56:50.000Z</time>
      </trkpt>
      <trkpt lat="40.30287" lon="20.47291">
        <ele>770.63000488281</ele>
        <time>2023-09-28T11:56:49.000Z</time>
      </trkpt>
      <trkpt lat="40.30282" lon="20.47286">
        <ele>770.63000488281</ele>
        <time>2023-09-28T11:56:48.000Z</time>
      </trkpt>
      <trkpt lat="40.30276" lon="20.47281">
        <ele>770.63000488281</ele>
        <time>2023-09-28T11:56:47.000Z</time>
      </trkpt>
      <trkpt lat="40.30269" lon="20.47277">
        <ele>770.63000488281</ele>
        <time>2023-09-28T11:56:46.000Z</time>
      </trkpt>
      <trkpt lat="40.30262" lon="20.47275">
        <ele>771.59997558594</ele>
        <time>2023-09-28T11:56:45.000Z</time>
      </trkpt>
      <trkpt lat="40.30255" lon="20.47274">
        <ele>772.55999755859</ele>
        <time>2023-09-28T11:56:44.000Z</time>
      </trkpt>
      <trkpt lat="40.3025" lon="20.47273">
        <ele>773.52001953125</ele>
        <time>2023-09-28T11:56:43.000Z</time>
      </trkpt>
      <trkpt lat="40.30243" lon="20.47271">
        <ele>774.47998046875</ele>
        <time>2023-09-28T11:56:42.000Z</time>
      </trkpt>
      <trkpt lat="40.30238" lon="20.47268">
        <ele>775.91998291016</ele>
        <time>2023-09-28T11:56:41.000Z</time>
      </trkpt>
      <trkpt lat="40.30232" lon="20.47266">
        <ele>776.40002441406</ele>
        <time>2023-09-28T11:56:40.000Z</time>
      </trkpt>
      <trkpt lat="40.30227" lon="20.47264">
        <ele>776.88000488281</ele>
        <time>2023-09-28T11:56:39.000Z</time>
      </trkpt>
      <trkpt lat="40.30222" lon="20.47263">
        <ele>777.35998535156</ele>
        <time>2023-09-28T11:56:38.000Z</time>
      </trkpt>
      <trkpt lat="40.30218" lon="20.47261">
        <ele>777.84002685547</ele>
        <time>2023-09-28T11:56:37.000Z</time>
      </trkpt>
      <trkpt lat="40.30213" lon="20.47258">
        <ele>778.32000732422</ele>
        <time>2023-09-28T11:56:36.000Z</time>
      </trkpt>
      <trkpt lat="40.30207" lon="20.47255">
        <ele>777.84002685547</ele>
        <time>2023-09-28T11:56:35.000Z</time>
      </trkpt>
      <trkpt lat="40.30202" lon="20.47254">
        <ele>777.35998535156</ele>
        <time>2023-09-28T11:56:34.000Z</time>
      </trkpt>
      <trkpt lat="40.30198" lon="20.47253">
        <ele>776.88000488281</ele>
        <time>2023-09-28T11:56:33.000Z</time>
      </trkpt>
      <trkpt lat="40.30191" lon="20.47252">
        <ele>776.88000488281</ele>
        <time>2023-09-28T11:56:32.000Z</time>
      </trkpt>
      <trkpt lat="40.30187" lon="20.47251">
        <ele>776.40002441406</ele>
        <time>2023-09-28T11:56:31.000Z</time>
      </trkpt>
      <trkpt lat="40.30182" lon="20.4725">
        <ele>775.91998291016</ele>
        <time>2023-09-28T11:56:30.000Z</time>
      </trkpt>
      <trkpt lat="40.30178" lon="20.47248">
        <ele>774.96002197266</ele>
        <time>2023-09-28T11:56:29.000Z</time>
      </trkpt>
      <trkpt lat="40.30176" lon="20.47245">
        <ele>774.96002197266</ele>
        <time>2023-09-28T11:56:28.000Z</time>
      </trkpt>
      <trkpt lat="40.30171" lon="20.47241">
        <ele>774.47998046875</ele>
        <time>2023-09-28T11:56:27.000Z</time>
      </trkpt>
      <trkpt lat="40.30169" lon="20.47239">
        <ele>774.47998046875</ele>
        <time>2023-09-28T11:56:26.000Z</time>
      </trkpt>
      <trkpt lat="40.30163" lon="20.47232">
        <ele>773.52001953125</ele>
        <time>2023-09-28T11:56:25.000Z</time>
      </trkpt>
      <trkpt lat="40.30159" lon="20.47228">
        <ele>773.03997802734</ele>
        <time>2023-09-28T11:56:24.000Z</time>
      </trkpt>
      <trkpt lat="40.30155" lon="20.47223">
        <ele>772.55999755859</ele>
        <time>2023-09-28T11:56:23.000Z</time>
      </trkpt>
      <trkpt lat="40.30151" lon="20.4722">
        <ele>771.59997558594</ele>
        <time>2023-09-28T11:56:22.000Z</time>
      </trkpt>
      <trkpt lat="40.30147" lon="20.47217">
        <ele>771.59997558594</ele>
        <time>2023-09-28T11:56:21.000Z</time>
      </trkpt>
      <trkpt lat="40.3014" lon="20.47207">
        <ele>769.66998291016</ele>
        <time>2023-09-28T11:56:18.000Z</time>
      </trkpt>
      <trkpt lat="40.3014" lon="20.47201">
        <ele>768.71002197266</ele>
        <time>2023-09-28T11:56:17.000Z</time>
      </trkpt>
      <trkpt lat="40.3014" lon="20.47195">
        <ele>768.22998046875</ele>
        <time>2023-09-28T11:56:16.000Z</time>
      </trkpt>
      <trkpt lat="40.30139" lon="20.47185">
        <ele>767.27001953125</ele>
        <time>2023-09-28T11:56:15.000Z</time>
      </trkpt>
      <trkpt lat="40.30139" lon="20.47178">
        <ele>766.78997802734</ele>
        <time>2023-09-28T11:56:14.000Z</time>
      </trkpt>
      <trkpt lat="40.30138" lon="20.4717">
        <ele>766.30999755859</ele>
        <time>2023-09-28T11:56:13.000Z</time>
      </trkpt>
      <trkpt lat="40.30137" lon="20.47163">
        <ele>765.83001708984</ele>
        <time>2023-09-28T11:56:12.000Z</time>
      </trkpt>
      <trkpt lat="40.30137" lon="20.47156">
        <ele>765.34997558594</ele>
        <time>2023-09-28T11:56:11.000Z</time>
      </trkpt>
      <trkpt lat="40.30136" lon="20.47152">
        <ele>765.34997558594</ele>
        <time>2023-09-28T11:56:10.000Z</time>
      </trkpt>
      <trkpt lat="40.30133" lon="20.47139">
        <ele>763.90002441406</ele>
        <time>2023-09-28T11:56:09.000Z</time>
      </trkpt>
      <trkpt lat="40.30132" lon="20.47133">
        <ele>763.41998291016</ele>
        <time>2023-09-28T11:56:08.000Z</time>
      </trkpt>
      <trkpt lat="40.3013" lon="20.47124">
        <ele>762.46002197266</ele>
        <time>2023-09-28T11:56:07.000Z</time>
      </trkpt>
      <trkpt lat="40.30128" lon="20.47115">
        <ele>761.5</ele>
        <time>2023-09-28T11:56:06.000Z</time>
      </trkpt>
      <trkpt lat="40.30127" lon="20.47111">
        <ele>761.02001953125</ele>
        <time>2023-09-28T11:56:05.000Z</time>
      </trkpt>
      <trkpt lat="40.30123" lon="20.47101">
        <ele>760.53997802734</ele>
        <time>2023-09-28T11:56:04.000Z</time>
      </trkpt>
      <trkpt lat="40.30121" lon="20.47093">
        <ele>760.05999755859</ele>
        <time>2023-09-28T11:56:03.000Z</time>
      </trkpt>
      <trkpt lat="40.3012" lon="20.47087">
        <ele>760.05999755859</ele>
        <time>2023-09-28T11:56:02.000Z</time>
      </trkpt>
      <trkpt lat="40.30119" lon="20.4708">
        <ele>759.58001708984</ele>
        <time>2023-09-28T11:56:01.000Z</time>
      </trkpt>
      <trkpt lat="40.30118" lon="20.47073">
        <ele>759.58001708984</ele>
        <time>2023-09-28T11:56:00.000Z</time>
      </trkpt>
      <trkpt lat="40.30118" lon="20.47068">
        <ele>759.09997558594</ele>
        <time>2023-09-28T11:55:59.000Z</time>
      </trkpt>
      <trkpt lat="40.3012" lon="20.47058">
        <ele>759.09997558594</ele>
        <time>2023-09-28T11:55:57.000Z</time>
      </trkpt>
      <trkpt lat="40.30123" lon="20.4705">
        <ele>758.61999511719</ele>
        <time>2023-09-28T11:55:56.000Z</time>
      </trkpt>
      <trkpt lat="40.30124" lon="20.47045">
        <ele>758.14001464844</ele>
        <time>2023-09-28T11:55:55.000Z</time>
      </trkpt>
      <trkpt lat="40.30127" lon="20.47038">
        <ele>757.65997314453</ele>
        <time>2023-09-28T11:55:54.000Z</time>
      </trkpt>
      <trkpt lat="40.30129" lon="20.47033">
        <ele>757.17999267578</ele>
        <time>2023-09-28T11:55:53.000Z</time>
      </trkpt>
      <trkpt lat="40.30133" lon="20.47025">
        <ele>756.69000244141</ele>
        <time>2023-09-28T11:55:52.000Z</time>
      </trkpt>
      <trkpt lat="40.30135" lon="20.47021">
        <ele>756.69000244141</ele>
        <time>2023-09-28T11:55:51.000Z</time>
      </trkpt>
      <trkpt lat="40.30137" lon="20.47016">
        <ele>756.21002197266</ele>
        <time>2023-09-28T11:55:50.000Z</time>
      </trkpt>
      <trkpt lat="40.30138" lon="20.47015">
        <ele>756.21002197266</ele>
        <time>2023-09-28T11:55:49.000Z</time>
      </trkpt>
      <trkpt lat="40.30141" lon="20.47008">
        <ele>756.21002197266</ele>
        <time>2023-09-28T11:55:48.000Z</time>
      </trkpt>
      <trkpt lat="40.30142" lon="20.47005">
        <ele>756.21002197266</ele>
        <time>2023-09-28T11:55:00.000Z</time>
      </trkpt>
      <trkpt lat="40.30151" lon="20.46995">
        <ele>757.65997314453</ele>
        <time>2023-09-28T11:54:53.000Z</time>
      </trkpt>
      <trkpt lat="40.30145" lon="20.46976">
        <ele>756.69000244141</ele>
        <time>2023-09-28T11:54:47.000Z</time>
      </trkpt>
      <trkpt lat="40.30142" lon="20.46971">
        <ele>756.21002197266</ele>
        <time>2023-09-28T11:54:46.000Z</time>
      </trkpt>
      <trkpt lat="40.3014" lon="20.46964">
        <ele>755.72998046875</ele>
        <time>2023-09-28T11:54:45.000Z</time>
      </trkpt>
      <trkpt lat="40.30137" lon="20.46957">
        <ele>755.72998046875</ele>
        <time>2023-09-28T11:54:44.000Z</time>
      </trkpt>
      <trkpt lat="40.30135" lon="20.46952">
        <ele>755.25</ele>
        <time>2023-09-28T11:54:43.000Z</time>
      </trkpt>
      <trkpt lat="40.30135" lon="20.46951">
        <ele>755.25</ele>
        <time>2023-09-28T11:54:42.000Z</time>
      </trkpt>
      <trkpt lat="40.30131" lon="20.46943">
        <ele>754.28997802734</ele>
        <time>2023-09-28T11:54:41.000Z</time>
      </trkpt>
      <trkpt lat="40.30129" lon="20.46939">
        <ele>753.80999755859</ele>
        <time>2023-09-28T11:54:40.000Z</time>
      </trkpt>
      <trkpt lat="40.30128" lon="20.46937">
        <ele>753.33001708984</ele>
        <time>2023-09-28T11:54:39.000Z</time>
      </trkpt>
      <trkpt lat="40.30127" lon="20.46931">
        <ele>752.84997558594</ele>
        <time>2023-09-28T11:54:38.000Z</time>
      </trkpt>
      <trkpt lat="40.30128" lon="20.46907">
        <ele>749.96997070312</ele>
        <time>2023-09-28T11:54:32.000Z</time>
      </trkpt>
      <trkpt lat="40.3012" lon="20.46895">
        <ele>747.55999755859</ele>
        <time>2023-09-28T11:54:29.000Z</time>
      </trkpt>
      <trkpt lat="40.30115" lon="20.46891">
        <ele>746.11999511719</ele>
        <time>2023-09-28T11:54:28.000Z</time>
      </trkpt>
      <trkpt lat="40.3011" lon="20.46887">
        <ele>745.64001464844</ele>
        <time>2023-09-28T11:54:27.000Z</time>
      </trkpt>
      <trkpt lat="40.30106" lon="20.46883">
        <ele>744.67999267578</ele>
        <time>2023-09-28T11:54:26.000Z</time>
      </trkpt>
      <trkpt lat="40.30103" lon="20.46879">
        <ele>743.71997070312</ele>
        <time>2023-09-28T11:54:25.000Z</time>
      </trkpt>
      <trkpt lat="40.301" lon="20.46874">
        <ele>742.76000976562</ele>
        <time>2023-09-28T11:54:24.000Z</time>
      </trkpt>
      <trkpt lat="40.30097" lon="20.46871">
        <ele>742.28002929688</ele>
        <time>2023-09-28T11:54:23.000Z</time>
      </trkpt>
      <trkpt lat="40.30093" lon="20.46867">
        <ele>741.78997802734</ele>
        <time>2023-09-28T11:54:22.000Z</time>
      </trkpt>
      <trkpt lat="40.3009" lon="20.46863">
        <ele>740.83001708984</ele>
        <time>2023-09-28T11:54:21.000Z</time>
      </trkpt>
      <trkpt lat="40.30087" lon="20.46858">
        <ele>740.34997558594</ele>
        <time>2023-09-28T11:54:20.000Z</time>
      </trkpt>
      <trkpt lat="40.30086" lon="20.46853">
        <ele>739.86999511719</ele>
        <time>2023-09-28T11:54:19.000Z</time>
      </trkpt>
      <trkpt lat="40.30085" lon="20.46849">
        <ele>739.39001464844</ele>
        <time>2023-09-28T11:54:18.000Z</time>
      </trkpt>
      <trkpt lat="40.30086" lon="20.46842">
        <ele>738.90997314453</ele>
        <time>2023-09-28T11:54:17.000Z</time>
      </trkpt>
      <trkpt lat="40.30087" lon="20.46837">
        <ele>738.42999267578</ele>
        <time>2023-09-28T11:54:16.000Z</time>
      </trkpt>
      <trkpt lat="40.30087" lon="20.46832">
        <ele>737.95001220703</ele>
        <time>2023-09-28T11:54:15.000Z</time>
      </trkpt>
      <trkpt lat="40.30086" lon="20.46826">
        <ele>736.98999023438</ele>
        <time>2023-09-28T11:54:14.000Z</time>
      </trkpt>
      <trkpt lat="40.30086" lon="20.46823">
        <ele>736.98999023438</ele>
        <time>2023-09-28T11:54:13.000Z</time>
      </trkpt>
      <trkpt lat="40.30085" lon="20.46813">
        <ele>735.54998779297</ele>
        <time>2023-09-28T11:54:12.000Z</time>
      </trkpt>
      <trkpt lat="40.30084" lon="20.46806">
        <ele>735.07000732422</ele>
        <time>2023-09-28T11:54:11.000Z</time>
      </trkpt>
      <trkpt lat="40.30084" lon="20.46802">
        <ele>734.58001708984</ele>
        <time>2023-09-28T11:54:10.000Z</time>
      </trkpt>
      <trkpt lat="40.30084" lon="20.46793">
        <ele>734.09997558594</ele>
        <time>2023-09-28T11:54:09.000Z</time>
      </trkpt>
      <trkpt lat="40.30084" lon="20.46787">
        <ele>733.61999511719</ele>
        <time>2023-09-28T11:54:08.000Z</time>
      </trkpt>
      <trkpt lat="40.30084" lon="20.46783">
        <ele>733.61999511719</ele>
        <time>2023-09-28T11:54:07.000Z</time>
      </trkpt>
      <trkpt lat="40.30087" lon="20.46774">
        <ele>733.14001464844</ele>
        <time>2023-09-28T11:54:05.000Z</time>
      </trkpt>
      <trkpt lat="40.3009" lon="20.46775">
        <ele>732.65997314453</ele>
        <time>2023-09-28T11:51:07.000Z</time>
      </trkpt>
      <trkpt lat="40.30092" lon="20.46774">
        <ele>733.61999511719</ele>
        <time>2023-09-28T11:50:56.000Z</time>
      </trkpt>
      <trkpt lat="40.30098" lon="20.46751">
        <ele>734.09997558594</ele>
        <time>2023-09-28T11:50:49.000Z</time>
      </trkpt>
      <trkpt lat="40.30108" lon="20.46734">
        <ele>735.54998779297</ele>
        <time>2023-09-28T11:50:43.000Z</time>
      </trkpt>
      <trkpt lat="40.30111" lon="20.46729">
        <ele>736.03002929688</ele>
        <time>2023-09-28T11:50:42.000Z</time>
      </trkpt>
      <trkpt lat="40.30114" lon="20.46725">
        <ele>736.03002929688</ele>
        <time>2023-09-28T11:50:41.000Z</time>
      </trkpt>
      <trkpt lat="40.30116" lon="20.46721">
        <ele>736.03002929688</ele>
        <time>2023-09-28T11:50:40.000Z</time>
      </trkpt>
      <trkpt lat="40.30117" lon="20.46716">
        <ele>736.03002929688</ele>
        <time>2023-09-28T11:50:39.000Z</time>
      </trkpt>
      <trkpt lat="40.30118" lon="20.4671">
        <ele>735.54998779297</ele>
        <time>2023-09-28T11:50:38.000Z</time>
      </trkpt>
      <trkpt lat="40.30118" lon="20.46708">
        <ele>736.03002929688</ele>
        <time>2023-09-28T11:50:37.000Z</time>
      </trkpt>
      <trkpt lat="40.30119" lon="20.46701">
        <ele>735.54998779297</ele>
        <time>2023-09-28T11:50:36.000Z</time>
      </trkpt>
      <trkpt lat="40.30121" lon="20.4668">
        <ele>733.14001464844</ele>
        <time>2023-09-28T11:50:34.000Z</time>
      </trkpt>
      <trkpt lat="40.30122" lon="20.46673">
        <ele>733.14001464844</ele>
        <time>2023-09-28T11:50:33.000Z</time>
      </trkpt>
      <trkpt lat="40.3012" lon="20.46659">
        <ele>733.61999511719</ele>
        <time>2023-09-28T11:50:29.000Z</time>
      </trkpt>
      <trkpt lat="40.30099" lon="20.46672">
        <ele>731.70001220703</ele>
        <time>2023-09-28T11:50:22.000Z</time>
      </trkpt>
      <trkpt lat="40.30096" lon="20.46676">
        <ele>731.21997070312</ele>
        <time>2023-09-28T11:50:21.000Z</time>
      </trkpt>
      <trkpt lat="40.30094" lon="20.46681">
        <ele>730.26000976562</ele>
        <time>2023-09-28T11:50:20.000Z</time>
      </trkpt>
      <trkpt lat="40.30089" lon="20.46695">
        <ele>728.82000732422</ele>
        <time>2023-09-28T11:50:18.000Z</time>
      </trkpt>
      <trkpt lat="40.30086" lon="20.46702">
        <ele>727.85998535156</ele>
        <time>2023-09-28T11:50:17.000Z</time>
      </trkpt>
      <trkpt lat="40.30084" lon="20.46706">
        <ele>727.36999511719</ele>
        <time>2023-09-28T11:50:16.000Z</time>
      </trkpt>
      <trkpt lat="40.30079" lon="20.46712">
        <ele>725.45001220703</ele>
        <time>2023-09-28T11:50:15.000Z</time>
      </trkpt>
      <trkpt lat="40.30075" lon="20.46715">
        <ele>724.48999023438</ele>
        <time>2023-09-28T11:50:14.000Z</time>
      </trkpt>
      <trkpt lat="40.30071" lon="20.46718">
        <ele>723.53002929688</ele>
        <time>2023-09-28T11:50:13.000Z</time>
      </trkpt>
      <trkpt lat="40.30063" lon="20.46725">
        <ele>722.57000732422</ele>
        <time>2023-09-28T11:50:12.000Z</time>
      </trkpt>
      <trkpt lat="40.30056" lon="20.46731">
        <ele>721.60998535156</ele>
        <time>2023-09-28T11:50:11.000Z</time>
      </trkpt>
      <trkpt lat="40.3005" lon="20.46736">
        <ele>720.65002441406</ele>
        <time>2023-09-28T11:50:10.000Z</time>
      </trkpt>
      <trkpt lat="40.30045" lon="20.46741">
        <ele>720.15997314453</ele>
        <time>2023-09-28T11:50:09.000Z</time>
      </trkpt>
      <trkpt lat="40.30042" lon="20.46746">
        <ele>720.15997314453</ele>
        <time>2023-09-28T11:50:08.000Z</time>
      </trkpt>
      <trkpt lat="40.30038" lon="20.46753">
        <ele>719.67999267578</ele>
        <time>2023-09-28T11:50:07.000Z</time>
      </trkpt>
      <trkpt lat="40.30034" lon="20.46758">
        <ele>719.67999267578</ele>
        <time>2023-09-28T11:50:06.000Z</time>
      </trkpt>
      <trkpt lat="40.30031" lon="20.46762">
        <ele>719.20001220703</ele>
        <time>2023-09-28T11:50:05.000Z</time>
      </trkpt>
      <trkpt lat="40.30025" lon="20.46766">
        <ele>719.20001220703</ele>
        <time>2023-09-28T11:50:04.000Z</time>
      </trkpt>
      <trkpt lat="40.30023" lon="20.46768">
        <ele>719.20001220703</ele>
        <time>2023-09-28T11:50:03.000Z</time>
      </trkpt>
      <trkpt lat="40.30017" lon="20.46771">
        <ele>719.20001220703</ele>
        <time>2023-09-28T11:50:02.000Z</time>
      </trkpt>
      <trkpt lat="40.30006" lon="20.46775">
        <ele>718.71997070312</ele>
        <time>2023-09-28T11:50:01.000Z</time>
      </trkpt>
      <trkpt lat="40.3" lon="20.46777">
        <ele>718.71997070312</ele>
        <time>2023-09-28T11:50:00.000Z</time>
      </trkpt>
      <trkpt lat="40.29996" lon="20.4678">
        <ele>718.23999023438</ele>
        <time>2023-09-28T11:49:59.000Z</time>
      </trkpt>
      <trkpt lat="40.29991" lon="20.46783">
        <ele>718.23999023438</ele>
        <time>2023-09-28T11:49:58.000Z</time>
      </trkpt>
      <trkpt lat="40.29986" lon="20.46786">
        <ele>717.76000976562</ele>
        <time>2023-09-28T11:49:57.000Z</time>
      </trkpt>
      <trkpt lat="40.29969" lon="20.4679">
        <ele>717.76000976562</ele>
        <time>2023-09-28T11:49:51.000Z</time>
      </trkpt>
      <trkpt lat="40.29963" lon="20.4679">
        <ele>718.23999023438</ele>
        <time>2023-09-28T11:49:50.000Z</time>
      </trkpt>
      <trkpt lat="40.2996" lon="20.46789">
        <ele>717.76000976562</ele>
        <time>2023-09-28T11:49:49.000Z</time>
      </trkpt>
      <trkpt lat="40.29954" lon="20.46787">
        <ele>717.76000976562</ele>
        <time>2023-09-28T11:49:48.000Z</time>
      </trkpt>
      <trkpt lat="40.29947" lon="20.46785">
        <ele>718.23999023438</ele>
        <time>2023-09-28T11:49:47.000Z</time>
      </trkpt>
      <trkpt lat="40.29942" lon="20.46783">
        <ele>718.23999023438</ele>
        <time>2023-09-28T11:49:46.000Z</time>
      </trkpt>
      <trkpt lat="40.29938" lon="20.46779">
        <ele>717.76000976562</ele>
        <time>2023-09-28T11:49:45.000Z</time>
      </trkpt>
      <trkpt lat="40.29936" lon="20.46775">
        <ele>717.28002929688</ele>
        <time>2023-09-28T11:49:44.000Z</time>
      </trkpt>
      <trkpt lat="40.29934" lon="20.46768">
        <ele>716.79998779297</ele>
        <time>2023-09-28T11:49:43.000Z</time>
      </trkpt>
      <trkpt lat="40.29933" lon="20.46765">
        <ele>716.32000732422</ele>
        <time>2023-09-28T11:49:42.000Z</time>
      </trkpt>
      <trkpt lat="40.29929" lon="20.46755">
        <ele>715.84002685547</ele>
        <time>2023-09-28T11:49:41.000Z</time>
      </trkpt>
      <trkpt lat="40.29928" lon="20.46752">
        <ele>715.35998535156</ele>
        <time>2023-09-28T11:49:40.000Z</time>
      </trkpt>
      <trkpt lat="40.29917" lon="20.46753">
        <ele>714.40002441406</ele>
        <time>2023-09-28T11:49:37.000Z</time>
      </trkpt>
      <trkpt lat="40.29917" lon="20.46756">
        <ele>714.40002441406</ele>
        <time>2023-09-28T11:49:36.000Z</time>
      </trkpt>
      <trkpt lat="40.29913" lon="20.46766">
        <ele>714.40002441406</ele>
        <time>2023-09-28T11:49:35.000Z</time>
      </trkpt>
      <trkpt lat="40.29909" lon="20.46772">
        <ele>713.44000244141</ele>
        <time>2023-09-28T11:49:34.000Z</time>
      </trkpt>
      <trkpt lat="40.29906" lon="20.46777">
        <ele>712.95001220703</ele>
        <time>2023-09-28T11:49:33.000Z</time>
      </trkpt>
      <trkpt lat="40.29903" lon="20.4678">
        <ele>711.98999023438</ele>
        <time>2023-09-28T11:49:32.000Z</time>
      </trkpt>
      <trkpt lat="40.29899" lon="20.46783">
        <ele>711.03002929688</ele>
        <time>2023-09-28T11:49:31.000Z</time>
      </trkpt>
      <trkpt lat="40.29895" lon="20.46785">
        <ele>709.59002685547</ele>
        <time>2023-09-28T11:49:30.000Z</time>
      </trkpt>
      <trkpt lat="40.29891" lon="20.46787">
        <ele>709.10998535156</ele>
        <time>2023-09-28T11:49:29.000Z</time>
      </trkpt>
      <trkpt lat="40.29885" lon="20.46791">
        <ele>708.15002441406</ele>
        <time>2023-09-28T11:49:28.000Z</time>
      </trkpt>
      <trkpt lat="40.29875" lon="20.46792">
        <ele>706.71002197266</ele>
        <time>2023-09-28T11:49:25.000Z</time>
      </trkpt>
      <trkpt lat="40.29869" lon="20.46789">
        <ele>705.75</ele>
        <time>2023-09-28T11:49:24.000Z</time>
      </trkpt>
      <trkpt lat="40.29863" lon="20.46785">
        <ele>704.78002929688</ele>
        <time>2023-09-28T11:49:23.000Z</time>
      </trkpt>
      <trkpt lat="40.29859" lon="20.46782">
        <ele>704.29998779297</ele>
        <time>2023-09-28T11:49:22.000Z</time>
      </trkpt>
      <trkpt lat="40.29854" lon="20.46778">
        <ele>704.29998779297</ele>
        <time>2023-09-28T11:49:21.000Z</time>
      </trkpt>
      <trkpt lat="40.2985" lon="20.46774">
        <ele>704.29998779297</ele>
        <time>2023-09-28T11:49:20.000Z</time>
      </trkpt>
      <trkpt lat="40.29849" lon="20.46773">
        <ele>704.29998779297</ele>
        <time>2023-09-28T11:49:19.000Z</time>
      </trkpt>
      <trkpt lat="40.29839" lon="20.46771">
        <ele>705.75</ele>
        <time>2023-09-28T11:49:15.000Z</time>
      </trkpt>
      <trkpt lat="40.29841" lon="20.46796">
        <ele>707.19000244141</ele>
        <time>2023-09-28T11:49:09.000Z</time>
      </trkpt>
      <trkpt lat="40.29841" lon="20.46801">
        <ele>707.19000244141</ele>
        <time>2023-09-28T11:49:08.000Z</time>
      </trkpt>
      <trkpt lat="40.2984" lon="20.46807">
        <ele>707.19000244141</ele>
        <time>2023-09-28T11:49:07.000Z</time>
      </trkpt>
      <trkpt lat="40.29838" lon="20.46812">
        <ele>707.19000244141</ele>
        <time>2023-09-28T11:49:06.000Z</time>
      </trkpt>
      <trkpt lat="40.29836" lon="20.46816">
        <ele>707.19000244141</ele>
        <time>2023-09-28T11:49:05.000Z</time>
      </trkpt>
      <trkpt lat="40.29831" lon="20.46821">
        <ele>706.71002197266</ele>
        <time>2023-09-28T11:49:04.000Z</time>
      </trkpt>
      <trkpt lat="40.29828" lon="20.46824">
        <ele>707.19000244141</ele>
        <time>2023-09-28T11:49:03.000Z</time>
      </trkpt>
      <trkpt lat="40.29822" lon="20.4683">
        <ele>707.19000244141</ele>
        <time>2023-09-28T11:49:02.000Z</time>
      </trkpt>
      <trkpt lat="40.29818" lon="20.46836">
        <ele>707.19000244141</ele>
        <time>2023-09-28T11:49:01.000Z</time>
      </trkpt>
      <trkpt lat="40.29814" lon="20.4684">
        <ele>707.66998291016</ele>
        <time>2023-09-28T11:49:00.000Z</time>
      </trkpt>
      <trkpt lat="40.2981" lon="20.46844">
        <ele>707.66998291016</ele>
        <time>2023-09-28T11:48:59.000Z</time>
      </trkpt>
      <trkpt lat="40.29806" lon="20.46849">
        <ele>707.66998291016</ele>
        <time>2023-09-28T11:48:58.000Z</time>
      </trkpt>
      <trkpt lat="40.29803" lon="20.46854">
        <ele>708.15002441406</ele>
        <time>2023-09-28T11:48:57.000Z</time>
      </trkpt>
      <trkpt lat="40.29802" lon="20.46856">
        <ele>708.15002441406</ele>
        <time>2023-09-28T11:48:56.000Z</time>
      </trkpt>
      <trkpt lat="40.29793" lon="20.46875">
        <ele>708.63000488281</ele>
        <time>2023-09-28T11:48:52.000Z</time>
      </trkpt>
      <trkpt lat="40.29791" lon="20.4688">
        <ele>708.63000488281</ele>
        <time>2023-09-28T11:48:51.000Z</time>
      </trkpt>
      <trkpt lat="40.29788" lon="20.46884">
        <ele>708.15002441406</ele>
        <time>2023-09-28T11:48:50.000Z</time>
      </trkpt>
      <trkpt lat="40.29786" lon="20.46887">
        <ele>708.15002441406</ele>
        <time>2023-09-28T11:48:49.000Z</time>
      </trkpt>
      <trkpt lat="40.29782" lon="20.46892">
        <ele>708.15002441406</ele>
        <time>2023-09-28T11:48:48.000Z</time>
      </trkpt>
      <trkpt lat="40.29779" lon="20.46895">
        <ele>708.63000488281</ele>
        <time>2023-09-28T11:48:47.000Z</time>
      </trkpt>
      <trkpt lat="40.29775" lon="20.46898">
        <ele>708.63000488281</ele>
        <time>2023-09-28T11:48:46.000Z</time>
      </trkpt>
      <trkpt lat="40.2977" lon="20.46904">
        <ele>708.63000488281</ele>
        <time>2023-09-28T11:48:45.000Z</time>
      </trkpt>
      <trkpt lat="40.29768" lon="20.46907">
        <ele>708.63000488281</ele>
        <time>2023-09-28T11:48:44.000Z</time>
      </trkpt>
      <trkpt lat="40.29764" lon="20.46914">
        <ele>708.63000488281</ele>
        <time>2023-09-28T11:48:43.000Z</time>
      </trkpt>
      <trkpt lat="40.2976" lon="20.46922">
        <ele>708.15002441406</ele>
        <time>2023-09-28T11:48:42.000Z</time>
      </trkpt>
      <trkpt lat="40.29758" lon="20.46927">
        <ele>708.15002441406</ele>
        <time>2023-09-28T11:48:41.000Z</time>
      </trkpt>
      <trkpt lat="40.29752" lon="20.46939">
        <ele>708.15002441406</ele>
        <time>2023-09-28T11:48:40.000Z</time>
      </trkpt>
      <trkpt lat="40.29749" lon="20.46947">
        <ele>707.66998291016</ele>
        <time>2023-09-28T11:48:39.000Z</time>
      </trkpt>
      <trkpt lat="40.29746" lon="20.46955">
        <ele>707.19000244141</ele>
        <time>2023-09-28T11:48:38.000Z</time>
      </trkpt>
      <trkpt lat="40.29743" lon="20.46962">
        <ele>707.19000244141</ele>
        <time>2023-09-28T11:48:37.000Z</time>
      </trkpt>
      <trkpt lat="40.29739" lon="20.46968">
        <ele>707.19000244141</ele>
        <time>2023-09-28T11:48:36.000Z</time>
      </trkpt>
      <trkpt lat="40.29735" lon="20.46971">
        <ele>707.19000244141</ele>
        <time>2023-09-28T11:48:35.000Z</time>
      </trkpt>
      <trkpt lat="40.29729" lon="20.46976">
        <ele>706.71002197266</ele>
        <time>2023-09-28T11:48:34.000Z</time>
      </trkpt>
      <trkpt lat="40.29722" lon="20.4698">
        <ele>706.22998046875</ele>
        <time>2023-09-28T11:48:33.000Z</time>
      </trkpt>
      <trkpt lat="40.29716" lon="20.46985">
        <ele>706.22998046875</ele>
        <time>2023-09-28T11:48:32.000Z</time>
      </trkpt>
      <trkpt lat="40.29711" lon="20.46988">
        <ele>706.22998046875</ele>
        <time>2023-09-28T11:48:31.000Z</time>
      </trkpt>
      <trkpt lat="40.29707" lon="20.46991">
        <ele>706.22998046875</ele>
        <time>2023-09-28T11:48:30.000Z</time>
      </trkpt>
      <trkpt lat="40.29702" lon="20.46993">
        <ele>706.22998046875</ele>
        <time>2023-09-28T11:48:29.000Z</time>
      </trkpt>
      <trkpt lat="40.29696" lon="20.46997">
        <ele>705.75</ele>
        <time>2023-09-28T11:48:28.000Z</time>
      </trkpt>
      <trkpt lat="40.29694" lon="20.46998">
        <ele>705.75</ele>
        <time>2023-09-28T11:48:27.000Z</time>
      </trkpt>
      <trkpt lat="40.29689" lon="20.47001">
        <ele>705.26000976562</ele>
        <time>2023-09-28T11:48:26.000Z</time>
      </trkpt>
      <trkpt lat="40.29679" lon="20.47008">
        <ele>704.29998779297</ele>
        <time>2023-09-28T11:48:25.000Z</time>
      </trkpt>
      <trkpt lat="40.29674" lon="20.47011">
        <ele>704.29998779297</ele>
        <time>2023-09-28T11:48:24.000Z</time>
      </trkpt>
      <trkpt lat="40.29671" lon="20.47015">
        <ele>704.29998779297</ele>
        <time>2023-09-28T11:48:23.000Z</time>
      </trkpt>
      <trkpt lat="40.29666" lon="20.47019">
        <ele>704.29998779297</ele>
        <time>2023-09-28T11:48:22.000Z</time>
      </trkpt>
      <trkpt lat="40.29663" lon="20.47023">
        <ele>704.29998779297</ele>
        <time>2023-09-28T11:48:21.000Z</time>
      </trkpt>
      <trkpt lat="40.29658" lon="20.47027">
        <ele>704.29998779297</ele>
        <time>2023-09-28T11:48:20.000Z</time>
      </trkpt>
      <trkpt lat="40.29655" lon="20.47029">
        <ele>704.29998779297</ele>
        <time>2023-09-28T11:48:19.000Z</time>
      </trkpt>
      <trkpt lat="40.2965" lon="20.47032">
        <ele>704.29998779297</ele>
        <time>2023-09-28T11:48:18.000Z</time>
      </trkpt>
      <trkpt lat="40.29646" lon="20.47033">
        <ele>704.29998779297</ele>
        <time>2023-09-28T11:48:17.000Z</time>
      </trkpt>
      <trkpt lat="40.29641" lon="20.47036">
        <ele>704.29998779297</ele>
        <time>2023-09-28T11:48:16.000Z</time>
      </trkpt>
      <trkpt lat="40.29637" lon="20.47039">
        <ele>704.29998779297</ele>
        <time>2023-09-28T11:48:15.000Z</time>
      </trkpt>
      <trkpt lat="40.29632" lon="20.47042">
        <ele>704.29998779297</ele>
        <time>2023-09-28T11:48:14.000Z</time>
      </trkpt>
      <trkpt lat="40.29624" lon="20.47046">
        <ele>704.29998779297</ele>
        <time>2023-09-28T11:48:13.000Z</time>
      </trkpt>
      <trkpt lat="40.2962" lon="20.47049">
        <ele>704.29998779297</ele>
        <time>2023-09-28T11:48:12.000Z</time>
      </trkpt>
      <trkpt lat="40.29615" lon="20.47052">
        <ele>704.78002929688</ele>
        <time>2023-09-28T11:48:11.000Z</time>
      </trkpt>
      <trkpt lat="40.29613" lon="20.47053">
        <ele>704.78002929688</ele>
        <time>2023-09-28T11:48:10.000Z</time>
      </trkpt>
      <trkpt lat="40.29589" lon="20.47064">
        <ele>706.22998046875</ele>
        <time>2023-09-28T11:48:04.000Z</time>
      </trkpt>
      <trkpt lat="40.29584" lon="20.47065">
        <ele>706.71002197266</ele>
        <time>2023-09-28T11:48:03.000Z</time>
      </trkpt>
      <trkpt lat="40.2958" lon="20.47065">
        <ele>706.71002197266</ele>
        <time>2023-09-28T11:48:02.000Z</time>
      </trkpt>
      <trkpt lat="40.29572" lon="20.47066">
        <ele>707.19000244141</ele>
        <time>2023-09-28T11:48:01.000Z</time>
      </trkpt>
      <trkpt lat="40.29568" lon="20.47066">
        <ele>707.19000244141</ele>
        <time>2023-09-28T11:48:00.000Z</time>
      </trkpt>
      <trkpt lat="40.29562" lon="20.47067">
        <ele>706.71002197266</ele>
        <time>2023-09-28T11:47:59.000Z</time>
      </trkpt>
      <trkpt lat="40.29557" lon="20.47068">
        <ele>706.22998046875</ele>
        <time>2023-09-28T11:47:58.000Z</time>
      </trkpt>
      <trkpt lat="40.29553" lon="20.4707">
        <ele>706.22998046875</ele>
        <time>2023-09-28T11:47:57.000Z</time>
      </trkpt>
      <trkpt lat="40.29549" lon="20.47072">
        <ele>705.75</ele>
        <time>2023-09-28T11:47:56.000Z</time>
      </trkpt>
      <trkpt lat="40.29544" lon="20.47075">
        <ele>705.75</ele>
        <time>2023-09-28T11:47:55.000Z</time>
      </trkpt>
      <trkpt lat="40.29539" lon="20.47077">
        <ele>705.75</ele>
        <time>2023-09-28T11:47:54.000Z</time>
      </trkpt>
      <trkpt lat="40.29538" lon="20.47077">
        <ele>705.75</ele>
        <time>2023-09-28T11:47:53.000Z</time>
      </trkpt>
      <trkpt lat="40.29528" lon="20.47075">
        <ele>705.26000976562</ele>
        <time>2023-09-28T11:47:51.000Z</time>
      </trkpt>
      <trkpt lat="40.29526" lon="20.4707">
        <ele>705.26000976562</ele>
        <time>2023-09-28T11:47:50.000Z</time>
      </trkpt>
      <trkpt lat="40.29524" lon="20.47064">
        <ele>704.78002929688</ele>
        <time>2023-09-28T11:47:49.000Z</time>
      </trkpt>
      <trkpt lat="40.29523" lon="20.47056">
        <ele>704.78002929688</ele>
        <time>2023-09-28T11:47:48.000Z</time>
      </trkpt>
      <trkpt lat="40.29523" lon="20.47049">
        <ele>704.78002929688</ele>
        <time>2023-09-28T11:47:47.000Z</time>
      </trkpt>
      <trkpt lat="40.29522" lon="20.47042">
        <ele>704.78002929688</ele>
        <time>2023-09-28T11:47:46.000Z</time>
      </trkpt>
      <trkpt lat="40.29521" lon="20.47035">
        <ele>705.26000976562</ele>
        <time>2023-09-28T11:47:45.000Z</time>
      </trkpt>
      <trkpt lat="40.2952" lon="20.47028">
        <ele>705.75</ele>
        <time>2023-09-28T11:47:44.000Z</time>
      </trkpt>
      <trkpt lat="40.29517" lon="20.47021">
        <ele>705.26000976562</ele>
        <time>2023-09-28T11:47:43.000Z</time>
      </trkpt>
      <trkpt lat="40.29515" lon="20.47016">
        <ele>704.78002929688</ele>
        <time>2023-09-28T11:47:42.000Z</time>
      </trkpt>
      <trkpt lat="40.29512" lon="20.47012">
        <ele>704.29998779297</ele>
        <time>2023-09-28T11:47:41.000Z</time>
      </trkpt>
      <trkpt lat="40.29508" lon="20.47011">
        <ele>703.82000732422</ele>
        <time>2023-09-28T11:47:40.000Z</time>
      </trkpt>
      <trkpt lat="40.29503" lon="20.47012">
        <ele>703.34002685547</ele>
        <time>2023-09-28T11:47:39.000Z</time>
      </trkpt>
      <trkpt lat="40.29498" lon="20.47015">
        <ele>702.38000488281</ele>
        <time>2023-09-28T11:47:38.000Z</time>
      </trkpt>
      <trkpt lat="40.29494" lon="20.47019">
        <ele>700.94000244141</ele>
        <time>2023-09-28T11:47:37.000Z</time>
      </trkpt>
      <trkpt lat="40.29489" lon="20.47024">
        <ele>699.5</ele>
        <time>2023-09-28T11:47:36.000Z</time>
      </trkpt>
      <trkpt lat="40.29484" lon="20.47027">
        <ele>698.53002929688</ele>
        <time>2023-09-28T11:47:35.000Z</time>
      </trkpt>
      <trkpt lat="40.29478" lon="20.47028">
        <ele>697.09002685547</ele>
        <time>2023-09-28T11:47:34.000Z</time>
      </trkpt>
      <trkpt lat="40.29473" lon="20.47029">
        <ele>696.60998535156</ele>
        <time>2023-09-28T11:47:33.000Z</time>
      </trkpt>
      <trkpt lat="40.29469" lon="20.47032">
        <ele>695.65002441406</ele>
        <time>2023-09-28T11:47:32.000Z</time>
      </trkpt>
      <trkpt lat="40.29466" lon="20.47035">
        <ele>694.69000244141</ele>
        <time>2023-09-28T11:47:31.000Z</time>
      </trkpt>
      <trkpt lat="40.29464" lon="20.47039">
        <ele>694.21002197266</ele>
        <time>2023-09-28T11:47:30.000Z</time>
      </trkpt>
      <trkpt lat="40.29464" lon="20.47057">
        <ele>692.77001953125</ele>
        <time>2023-09-28T11:47:25.000Z</time>
      </trkpt>
      <trkpt lat="40.29479" lon="20.47086">
        <ele>692.77001953125</ele>
        <time>2023-09-28T11:47:17.000Z</time>
      </trkpt>
      <trkpt lat="40.29481" lon="20.47091">
        <ele>692.77001953125</ele>
        <time>2023-09-28T11:47:16.000Z</time>
      </trkpt>
      <trkpt lat="40.29483" lon="20.47097">
        <ele>692.77001953125</ele>
        <time>2023-09-28T11:47:15.000Z</time>
      </trkpt>
      <trkpt lat="40.29485" lon="20.47104">
        <ele>692.28997802734</ele>
        <time>2023-09-28T11:47:14.000Z</time>
      </trkpt>
      <trkpt lat="40.29487" lon="20.47109">
        <ele>692.28997802734</ele>
        <time>2023-09-28T11:47:13.000Z</time>
      </trkpt>
      <trkpt lat="40.2949" lon="20.47115">
        <ele>691.80999755859</ele>
        <time>2023-09-28T11:47:12.000Z</time>
      </trkpt>
      <trkpt lat="40.29491" lon="20.47121">
        <ele>691.33001708984</ele>
        <time>2023-09-28T11:47:11.000Z</time>
      </trkpt>
      <trkpt lat="40.29492" lon="20.47127">
        <ele>691.33001708984</ele>
        <time>2023-09-28T11:47:10.000Z</time>
      </trkpt>
      <trkpt lat="40.29493" lon="20.47133">
        <ele>691.33001708984</ele>
        <time>2023-09-28T11:47:09.000Z</time>
      </trkpt>
      <trkpt lat="40.29494" lon="20.47138">
        <ele>690.84002685547</ele>
        <time>2023-09-28T11:47:08.000Z</time>
      </trkpt>
      <trkpt lat="40.29494" lon="20.4714">
        <ele>690.84002685547</ele>
        <time>2023-09-28T11:47:07.000Z</time>
      </trkpt>
      <trkpt lat="40.29495" lon="20.47146">
        <ele>690.84002685547</ele>
        <time>2023-09-28T11:47:06.000Z</time>
      </trkpt>
      <trkpt lat="40.29499" lon="20.47165">
        <ele>690.84002685547</ele>
        <time>2023-09-28T11:47:02.000Z</time>
      </trkpt>
      <trkpt lat="40.29502" lon="20.47193">
        <ele>690.84002685547</ele>
        <time>2023-09-28T11:46:56.000Z</time>
      </trkpt>
      <trkpt lat="40.295" lon="20.47198">
        <ele>690.35998535156</ele>
        <time>2023-09-28T11:46:55.000Z</time>
      </trkpt>
      <trkpt lat="40.29497" lon="20.47203">
        <ele>690.35998535156</ele>
        <time>2023-09-28T11:46:54.000Z</time>
      </trkpt>
      <trkpt lat="40.29493" lon="20.47208">
        <ele>690.35998535156</ele>
        <time>2023-09-28T11:46:53.000Z</time>
      </trkpt>
      <trkpt lat="40.29488" lon="20.47211">
        <ele>689.88000488281</ele>
        <time>2023-09-28T11:46:52.000Z</time>
      </trkpt>
      <trkpt lat="40.29485" lon="20.47215">
        <ele>689.40002441406</ele>
        <time>2023-09-28T11:46:51.000Z</time>
      </trkpt>
      <trkpt lat="40.29484" lon="20.47216">
        <ele>689.40002441406</ele>
        <time>2023-09-28T11:46:50.000Z</time>
      </trkpt>
      <trkpt lat="40.29477" lon="20.47232">
        <ele>688.91998291016</ele>
        <time>2023-09-28T11:46:47.000Z</time>
      </trkpt>
      <trkpt lat="40.29476" lon="20.47238">
        <ele>688.44000244141</ele>
        <time>2023-09-28T11:46:46.000Z</time>
      </trkpt>
      <trkpt lat="40.29476" lon="20.47242">
        <ele>688.44000244141</ele>
        <time>2023-09-28T11:46:45.000Z</time>
      </trkpt>
      <trkpt lat="40.29477" lon="20.47255">
        <ele>687.47998046875</ele>
        <time>2023-09-28T11:46:44.000Z</time>
      </trkpt>
      <trkpt lat="40.29476" lon="20.47265">
        <ele>687</ele>
        <time>2023-09-28T11:46:43.000Z</time>
      </trkpt>
      <trkpt lat="40.29476" lon="20.47274">
        <ele>686.52001953125</ele>
        <time>2023-09-28T11:46:42.000Z</time>
      </trkpt>
      <trkpt lat="40.29475" lon="20.47281">
        <ele>686.03997802734</ele>
        <time>2023-09-28T11:46:41.000Z</time>
      </trkpt>
      <trkpt lat="40.29472" lon="20.4729">
        <ele>685.55999755859</ele>
        <time>2023-09-28T11:46:40.000Z</time>
      </trkpt>
      <trkpt lat="40.29469" lon="20.47298">
        <ele>685.55999755859</ele>
        <time>2023-09-28T11:46:39.000Z</time>
      </trkpt>
      <trkpt lat="40.29465" lon="20.47306">
        <ele>685.55999755859</ele>
        <time>2023-09-28T11:46:38.000Z</time>
      </trkpt>
      <trkpt lat="40.2946" lon="20.47313">
        <ele>685.55999755859</ele>
        <time>2023-09-28T11:46:37.000Z</time>
      </trkpt>
      <trkpt lat="40.29456" lon="20.47318">
        <ele>685.55999755859</ele>
        <time>2023-09-28T11:46:36.000Z</time>
      </trkpt>
      <trkpt lat="40.2945" lon="20.47326">
        <ele>686.03997802734</ele>
        <time>2023-09-28T11:46:35.000Z</time>
      </trkpt>
      <trkpt lat="40.29446" lon="20.47333">
        <ele>686.03997802734</ele>
        <time>2023-09-28T11:46:34.000Z</time>
      </trkpt>
      <trkpt lat="40.29442" lon="20.47339">
        <ele>686.52001953125</ele>
        <time>2023-09-28T11:46:33.000Z</time>
      </trkpt>
      <trkpt lat="40.29437" lon="20.47346">
        <ele>686.52001953125</ele>
        <time>2023-09-28T11:46:32.000Z</time>
      </trkpt>
      <trkpt lat="40.29435" lon="20.4735">
        <ele>687</ele>
        <time>2023-09-28T11:46:31.000Z</time>
      </trkpt>
      <trkpt lat="40.29429" lon="20.47355">
        <ele>687.47998046875</ele>
        <time>2023-09-28T11:46:30.000Z</time>
      </trkpt>
      <trkpt lat="40.29425" lon="20.47361">
        <ele>687.47998046875</ele>
        <time>2023-09-28T11:46:29.000Z</time>
      </trkpt>
      <trkpt lat="40.2942" lon="20.47368">
        <ele>686.52001953125</ele>
        <time>2023-09-28T11:46:28.000Z</time>
      </trkpt>
      <trkpt lat="40.29415" lon="20.47373">
        <ele>686.03997802734</ele>
        <time>2023-09-28T11:46:27.000Z</time>
      </trkpt>
      <trkpt lat="40.29409" lon="20.47381">
        <ele>685.55999755859</ele>
        <time>2023-09-28T11:46:26.000Z</time>
      </trkpt>
      <trkpt lat="40.29405" lon="20.47387">
        <ele>685.55999755859</ele>
        <time>2023-09-28T11:46:25.000Z</time>
      </trkpt>
      <trkpt lat="40.294" lon="20.47395">
        <ele>685.08001708984</ele>
        <time>2023-09-28T11:46:24.000Z</time>
      </trkpt>
      <trkpt lat="40.29397" lon="20.47402">
        <ele>684.59997558594</ele>
        <time>2023-09-28T11:46:23.000Z</time>
      </trkpt>
      <trkpt lat="40.29393" lon="20.47412">
        <ele>684.59997558594</ele>
        <time>2023-09-28T11:46:22.000Z</time>
      </trkpt>
      <trkpt lat="40.29391" lon="20.47418">
        <ele>684.11999511719</ele>
        <time>2023-09-28T11:46:21.000Z</time>
      </trkpt>
      <trkpt lat="40.29389" lon="20.47428">
        <ele>683.63000488281</ele>
        <time>2023-09-28T11:46:20.000Z</time>
      </trkpt>
      <trkpt lat="40.29385" lon="20.47446">
        <ele>682.66998291016</ele>
        <time>2023-09-28T11:46:18.000Z</time>
      </trkpt>
      <trkpt lat="40.29383" lon="20.47453">
        <ele>682.66998291016</ele>
        <time>2023-09-28T11:46:17.000Z</time>
      </trkpt>
      <trkpt lat="40.29381" lon="20.47461">
        <ele>682.19000244141</ele>
        <time>2023-09-28T11:46:16.000Z</time>
      </trkpt>
      <trkpt lat="40.29379" lon="20.47469">
        <ele>682.19000244141</ele>
        <time>2023-09-28T11:46:15.000Z</time>
      </trkpt>
      <trkpt lat="40.29377" lon="20.47478">
        <ele>682.19000244141</ele>
        <time>2023-09-28T11:46:14.000Z</time>
      </trkpt>
      <trkpt lat="40.29374" lon="20.47485">
        <ele>681.71002197266</ele>
        <time>2023-09-28T11:46:13.000Z</time>
      </trkpt>
      <trkpt lat="40.29371" lon="20.47491">
        <ele>681.71002197266</ele>
        <time>2023-09-28T11:46:12.000Z</time>
      </trkpt>
      <trkpt lat="40.29368" lon="20.47495">
        <ele>681.22998046875</ele>
        <time>2023-09-28T11:46:11.000Z</time>
      </trkpt>
      <trkpt lat="40.29363" lon="20.475">
        <ele>681.22998046875</ele>
        <time>2023-09-28T11:46:10.000Z</time>
      </trkpt>
      <trkpt lat="40.29355" lon="20.47509">
        <ele>681.22998046875</ele>
        <time>2023-09-28T11:46:09.000Z</time>
      </trkpt>
      <trkpt lat="40.29351" lon="20.47514">
        <ele>681.22998046875</ele>
        <time>2023-09-28T11:46:08.000Z</time>
      </trkpt>
      <trkpt lat="40.29343" lon="20.47521">
        <ele>681.22998046875</ele>
        <time>2023-09-28T11:46:07.000Z</time>
      </trkpt>
      <trkpt lat="40.29334" lon="20.47529">
        <ele>680.75</ele>
        <time>2023-09-28T11:46:06.000Z</time>
      </trkpt>
      <trkpt lat="40.29331" lon="20.47533">
        <ele>680.75</ele>
        <time>2023-09-28T11:46:05.000Z</time>
      </trkpt>
      <trkpt lat="40.29323" lon="20.4754">
        <ele>680.27001953125</ele>
        <time>2023-09-28T11:46:04.000Z</time>
      </trkpt>
      <trkpt lat="40.29317" lon="20.47545">
        <ele>680.27001953125</ele>
        <time>2023-09-28T11:46:03.000Z</time>
      </trkpt>
      <trkpt lat="40.29308" lon="20.47551">
        <ele>679.78997802734</ele>
        <time>2023-09-28T11:46:02.000Z</time>
      </trkpt>
      <trkpt lat="40.29301" lon="20.47556">
        <ele>679.78997802734</ele>
        <time>2023-09-28T11:46:01.000Z</time>
      </trkpt>
      <trkpt lat="40.29289" lon="20.47563">
        <ele>679.78997802734</ele>
        <time>2023-09-28T11:45:59.000Z</time>
      </trkpt>
      <trkpt lat="40.29283" lon="20.47568">
        <ele>678.83001708984</ele>
        <time>2023-09-28T11:45:58.000Z</time>
      </trkpt>
      <trkpt lat="40.29279" lon="20.47571">
        <ele>678.83001708984</ele>
        <time>2023-09-28T11:45:57.000Z</time>
      </trkpt>
      <trkpt lat="40.29273" lon="20.47575">
        <ele>678.34997558594</ele>
        <time>2023-09-28T11:45:56.000Z</time>
      </trkpt>
      <trkpt lat="40.29269" lon="20.47577">
        <ele>678.34997558594</ele>
        <time>2023-09-28T11:45:55.000Z</time>
      </trkpt>
      <trkpt lat="40.29265" lon="20.4758">
        <ele>678.34997558594</ele>
        <time>2023-09-28T11:45:54.000Z</time>
      </trkpt>
      <trkpt lat="40.29245" lon="20.47589">
        <ele>676.90997314453</ele>
        <time>2023-09-28T11:45:48.000Z</time>
      </trkpt>
      <trkpt lat="40.29239" lon="20.47589">
        <ele>675.94000244141</ele>
        <time>2023-09-28T11:45:47.000Z</time>
      </trkpt>
      <trkpt lat="40.29234" lon="20.47589">
        <ele>675.94000244141</ele>
        <time>2023-09-28T11:45:46.000Z</time>
      </trkpt>
      <trkpt lat="40.29231" lon="20.47588">
        <ele>674.97998046875</ele>
        <time>2023-09-28T11:45:45.000Z</time>
      </trkpt>
      <trkpt lat="40.29221" lon="20.47586">
        <ele>674.02001953125</ele>
        <time>2023-09-28T11:45:44.000Z</time>
      </trkpt>
      <trkpt lat="40.29215" lon="20.47586">
        <ele>672.58001708984</ele>
        <time>2023-09-28T11:45:43.000Z</time>
      </trkpt>
      <trkpt lat="40.29211" lon="20.47587">
        <ele>671.61999511719</ele>
        <time>2023-09-28T11:45:42.000Z</time>
      </trkpt>
      <trkpt lat="40.29207" lon="20.47591">
        <ele>670.65997314453</ele>
        <time>2023-09-28T11:45:41.000Z</time>
      </trkpt>
      <trkpt lat="40.29206" lon="20.47596">
        <ele>670.17999267578</ele>
        <time>2023-09-28T11:45:40.000Z</time>
      </trkpt>
      <trkpt lat="40.29207" lon="20.47603">
        <ele>669.21997070312</ele>
        <time>2023-09-28T11:45:39.000Z</time>
      </trkpt>
      <trkpt lat="40.29208" lon="20.47611">
        <ele>668.72998046875</ele>
        <time>2023-09-28T11:45:38.000Z</time>
      </trkpt>
      <trkpt lat="40.29208" lon="20.4762">
        <ele>668.25</ele>
        <time>2023-09-28T11:45:37.000Z</time>
      </trkpt>
      <trkpt lat="40.29206" lon="20.47628">
        <ele>667.28997802734</ele>
        <time>2023-09-28T11:45:36.000Z</time>
      </trkpt>
      <trkpt lat="40.29203" lon="20.47635">
        <ele>666.33001708984</ele>
        <time>2023-09-28T11:45:35.000Z</time>
      </trkpt>
      <trkpt lat="40.29198" lon="20.47641">
        <ele>665.36999511719</ele>
        <time>2023-09-28T11:45:34.000Z</time>
      </trkpt>
      <trkpt lat="40.29193" lon="20.47644">
        <ele>664.40997314453</ele>
        <time>2023-09-28T11:45:33.000Z</time>
      </trkpt>
      <trkpt lat="40.29191" lon="20.47646">
        <ele>663.92999267578</ele>
        <time>2023-09-28T11:45:32.000Z</time>
      </trkpt>
      <trkpt lat="40.29181" lon="20.47653">
        <ele>662.96997070312</ele>
        <time>2023-09-28T11:45:31.000Z</time>
      </trkpt>
      <trkpt lat="40.29175" lon="20.47655">
        <ele>662.01000976562</ele>
        <time>2023-09-28T11:45:30.000Z</time>
      </trkpt>
      <trkpt lat="40.29168" lon="20.47656">
        <ele>661.52001953125</ele>
        <time>2023-09-28T11:45:29.000Z</time>
      </trkpt>
      <trkpt lat="40.29163" lon="20.47656">
        <ele>660.55999755859</ele>
        <time>2023-09-28T11:45:28.000Z</time>
      </trkpt>
      <trkpt lat="40.29158" lon="20.47654">
        <ele>660.08001708984</ele>
        <time>2023-09-28T11:45:27.000Z</time>
      </trkpt>
      <trkpt lat="40.29152" lon="20.47651">
        <ele>659.59997558594</ele>
        <time>2023-09-28T11:45:26.000Z</time>
      </trkpt>
      <trkpt lat="40.29148" lon="20.47649">
        <ele>658.64001464844</ele>
        <time>2023-09-28T11:45:25.000Z</time>
      </trkpt>
      <trkpt lat="40.29141" lon="20.47647">
        <ele>658.15997314453</ele>
        <time>2023-09-28T11:45:24.000Z</time>
      </trkpt>
      <trkpt lat="40.29134" lon="20.47646">
        <ele>657.20001220703</ele>
        <time>2023-09-28T11:45:23.000Z</time>
      </trkpt>
      <trkpt lat="40.29128" lon="20.47645">
        <ele>656.71997070312</ele>
        <time>2023-09-28T11:45:22.000Z</time>
      </trkpt>
      <trkpt lat="40.29123" lon="20.47645">
        <ele>655.76000976562</ele>
        <time>2023-09-28T11:45:21.000Z</time>
      </trkpt>
      <trkpt lat="40.29117" lon="20.47647">
        <ele>655.76000976562</ele>
        <time>2023-09-28T11:45:20.000Z</time>
      </trkpt>
      <trkpt lat="40.29114" lon="20.4765">
        <ele>655.28002929688</ele>
        <time>2023-09-28T11:45:19.000Z</time>
      </trkpt>
      <trkpt lat="40.29106" lon="20.47656">
        <ele>655.28002929688</ele>
        <time>2023-09-28T11:45:18.000Z</time>
      </trkpt>
      <trkpt lat="40.291" lon="20.47661">
        <ele>654.79998779297</ele>
        <time>2023-09-28T11:45:17.000Z</time>
      </trkpt>
      <trkpt lat="40.29095" lon="20.47663">
        <ele>654.30999755859</ele>
        <time>2023-09-28T11:45:16.000Z</time>
      </trkpt>
      <trkpt lat="40.2909" lon="20.47664">
        <ele>653.83001708984</ele>
        <time>2023-09-28T11:45:15.000Z</time>
      </trkpt>
      <trkpt lat="40.29086" lon="20.47663">
        <ele>653.83001708984</ele>
        <time>2023-09-28T11:45:14.000Z</time>
      </trkpt>
      <trkpt lat="40.29078" lon="20.47662">
        <ele>653.83001708984</ele>
        <time>2023-09-28T11:45:13.000Z</time>
      </trkpt>
      <trkpt lat="40.29071" lon="20.47663">
        <ele>653.34997558594</ele>
        <time>2023-09-28T11:45:12.000Z</time>
      </trkpt>
      <trkpt lat="40.29065" lon="20.47667">
        <ele>652.86999511719</ele>
        <time>2023-09-28T11:45:11.000Z</time>
      </trkpt>
      <trkpt lat="40.29059" lon="20.47672">
        <ele>652.86999511719</ele>
        <time>2023-09-28T11:45:10.000Z</time>
      </trkpt>
      <trkpt lat="40.29056" lon="20.47676">
        <ele>652.39001464844</ele>
        <time>2023-09-28T11:45:09.000Z</time>
      </trkpt>
      <trkpt lat="40.29049" lon="20.47684">
        <ele>652.39001464844</ele>
        <time>2023-09-28T11:45:08.000Z</time>
      </trkpt>
      <trkpt lat="40.29043" lon="20.47691">
        <ele>651.90997314453</ele>
        <time>2023-09-28T11:45:07.000Z</time>
      </trkpt>
      <trkpt lat="40.29038" lon="20.47698">
        <ele>651.90997314453</ele>
        <time>2023-09-28T11:45:06.000Z</time>
      </trkpt>
      <trkpt lat="40.29032" lon="20.47701">
        <ele>651.42999267578</ele>
        <time>2023-09-28T11:45:05.000Z</time>
      </trkpt>
      <trkpt lat="40.29027" lon="20.47703">
        <ele>650.95001220703</ele>
        <time>2023-09-28T11:45:04.000Z</time>
      </trkpt>
      <trkpt lat="40.29021" lon="20.47703">
        <ele>650.46997070312</ele>
        <time>2023-09-28T11:45:03.000Z</time>
      </trkpt>
      <trkpt lat="40.29014" lon="20.47703">
        <ele>649.98999023438</ele>
        <time>2023-09-28T11:45:02.000Z</time>
      </trkpt>
      <trkpt lat="40.29008" lon="20.47703">
        <ele>649.51000976562</ele>
        <time>2023-09-28T11:45:01.000Z</time>
      </trkpt>
      <trkpt lat="40.29004" lon="20.47706">
        <ele>649.51000976562</ele>
        <time>2023-09-28T11:45:00.000Z</time>
      </trkpt>
      <trkpt lat="40.29" lon="20.4771">
        <ele>649.03002929688</ele>
        <time>2023-09-28T11:44:59.000Z</time>
      </trkpt>
      <trkpt lat="40.28998" lon="20.47716">
        <ele>648.54998779297</ele>
        <time>2023-09-28T11:44:58.000Z</time>
      </trkpt>
      <trkpt lat="40.28995" lon="20.47724">
        <ele>647.59002685547</ele>
        <time>2023-09-28T11:44:57.000Z</time>
      </trkpt>
      <trkpt lat="40.28993" lon="20.47731">
        <ele>647.09997558594</ele>
        <time>2023-09-28T11:44:56.000Z</time>
      </trkpt>
      <trkpt lat="40.28991" lon="20.47737">
        <ele>646.61999511719</ele>
        <time>2023-09-28T11:44:55.000Z</time>
      </trkpt>
      <trkpt lat="40.28987" lon="20.47744">
        <ele>646.14001464844</ele>
        <time>2023-09-28T11:44:54.000Z</time>
      </trkpt>
      <trkpt lat="40.28986" lon="20.47745">
        <ele>645.65997314453</ele>
        <time>2023-09-28T11:44:53.000Z</time>
      </trkpt>
      <trkpt lat="40.28976" lon="20.47758">
        <ele>645.17999267578</ele>
        <time>2023-09-28T11:44:52.000Z</time>
      </trkpt>
      <trkpt lat="40.28971" lon="20.47763">
        <ele>645.17999267578</ele>
        <time>2023-09-28T11:44:51.000Z</time>
      </trkpt>
      <trkpt lat="40.28966" lon="20.47769">
        <ele>644.70001220703</ele>
        <time>2023-09-28T11:44:50.000Z</time>
      </trkpt>
      <trkpt lat="40.28964" lon="20.47769">
        <ele>644.70001220703</ele>
        <time>2023-09-28T11:44:49.000Z</time>
      </trkpt>
      <trkpt lat="40.28955" lon="20.47776">
        <ele>644.21997070312</ele>
        <time>2023-09-28T11:44:48.000Z</time>
      </trkpt>
      <trkpt lat="40.2895" lon="20.47779">
        <ele>643.73999023438</ele>
        <time>2023-09-28T11:44:47.000Z</time>
      </trkpt>
      <trkpt lat="40.28946" lon="20.4778">
        <ele>643.73999023438</ele>
        <time>2023-09-28T11:44:46.000Z</time>
      </trkpt>
      <trkpt lat="40.28941" lon="20.47779">
        <ele>643.73999023438</ele>
        <time>2023-09-28T11:44:45.000Z</time>
      </trkpt>
      <trkpt lat="40.28936" lon="20.47777">
        <ele>643.73999023438</ele>
        <time>2023-09-28T11:44:44.000Z</time>
      </trkpt>
      <trkpt lat="40.28932" lon="20.47774">
        <ele>643.73999023438</ele>
        <time>2023-09-28T11:44:43.000Z</time>
      </trkpt>
      <trkpt lat="40.28927" lon="20.47771">
        <ele>643.73999023438</ele>
        <time>2023-09-28T11:44:42.000Z</time>
      </trkpt>
      <trkpt lat="40.28921" lon="20.47771">
        <ele>643.26000976562</ele>
        <time>2023-09-28T11:44:41.000Z</time>
      </trkpt>
      <trkpt lat="40.28916" lon="20.47772">
        <ele>642.78002929688</ele>
        <time>2023-09-28T11:44:40.000Z</time>
      </trkpt>
      <trkpt lat="40.28911" lon="20.47774">
        <ele>642.78002929688</ele>
        <time>2023-09-28T11:44:39.000Z</time>
      </trkpt>
      <trkpt lat="40.28904" lon="20.47778">
        <ele>642.29998779297</ele>
        <time>2023-09-28T11:44:38.000Z</time>
      </trkpt>
      <trkpt lat="40.28901" lon="20.4778">
        <ele>642.29998779297</ele>
        <time>2023-09-28T11:44:37.000Z</time>
      </trkpt>
      <trkpt lat="40.28891" lon="20.47788">
        <ele>641.82000732422</ele>
        <time>2023-09-28T11:44:36.000Z</time>
      </trkpt>
      <trkpt lat="40.28886" lon="20.47793">
        <ele>641.34002685547</ele>
        <time>2023-09-28T11:44:35.000Z</time>
      </trkpt>
      <trkpt lat="40.28881" lon="20.47798">
        <ele>640.85998535156</ele>
        <time>2023-09-28T11:44:34.000Z</time>
      </trkpt>
      <trkpt lat="40.28872" lon="20.47812">
        <ele>638.45001220703</ele>
        <time>2023-09-28T11:44:32.000Z</time>
      </trkpt>
      <trkpt lat="40.2887" lon="20.47816">
        <ele>637.96997070312</ele>
        <time>2023-09-28T11:44:31.000Z</time>
      </trkpt>
      <trkpt lat="40.28866" lon="20.47824">
        <ele>636.04998779297</ele>
        <time>2023-09-28T11:44:30.000Z</time>
      </trkpt>
      <trkpt lat="40.28863" lon="20.47829">
        <ele>635.09002685547</ele>
        <time>2023-09-28T11:44:29.000Z</time>
      </trkpt>
      <trkpt lat="40.28858" lon="20.47835">
        <ele>633.65002441406</ele>
        <time>2023-09-28T11:44:28.000Z</time>
      </trkpt>
      <trkpt lat="40.28853" lon="20.47841">
        <ele>632.67999267578</ele>
        <time>2023-09-28T11:44:27.000Z</time>
      </trkpt>
      <trkpt lat="40.2885" lon="20.47845">
        <ele>632.20001220703</ele>
        <time>2023-09-28T11:44:26.000Z</time>
      </trkpt>
      <trkpt lat="40.28845" lon="20.47851">
        <ele>631.23999023438</ele>
        <time>2023-09-28T11:44:25.000Z</time>
      </trkpt>
      <trkpt lat="40.28839" lon="20.47856">
        <ele>630.28002929688</ele>
        <time>2023-09-28T11:44:24.000Z</time>
      </trkpt>
      <trkpt lat="40.28835" lon="20.47859">
        <ele>629.79998779297</ele>
        <time>2023-09-28T11:44:23.000Z</time>
      </trkpt>
      <trkpt lat="40.28828" lon="20.47862">
        <ele>629.32000732422</ele>
        <time>2023-09-28T11:44:22.000Z</time>
      </trkpt>
      <trkpt lat="40.28822" lon="20.47866">
        <ele>628.84002685547</ele>
        <time>2023-09-28T11:44:21.000Z</time>
      </trkpt>
      <trkpt lat="40.28818" lon="20.47869">
        <ele>628.35998535156</ele>
        <time>2023-09-28T11:44:20.000Z</time>
      </trkpt>
      <trkpt lat="40.28809" lon="20.47876">
        <ele>627.88000488281</ele>
        <time>2023-09-28T11:44:19.000Z</time>
      </trkpt>
      <trkpt lat="40.28805" lon="20.47879">
        <ele>628.35998535156</ele>
        <time>2023-09-28T11:44:18.000Z</time>
      </trkpt>
      <trkpt lat="40.288" lon="20.47884">
        <ele>628.35998535156</ele>
        <time>2023-09-28T11:44:17.000Z</time>
      </trkpt>
      <trkpt lat="40.28796" lon="20.47887">
        <ele>628.35998535156</ele>
        <time>2023-09-28T11:44:16.000Z</time>
      </trkpt>
      <trkpt lat="40.28792" lon="20.47889">
        <ele>627.88000488281</ele>
        <time>2023-09-28T11:44:15.000Z</time>
      </trkpt>
      <trkpt lat="40.28787" lon="20.47889">
        <ele>627.40002441406</ele>
        <time>2023-09-28T11:44:14.000Z</time>
      </trkpt>
      <trkpt lat="40.28782" lon="20.47887">
        <ele>627.40002441406</ele>
        <time>2023-09-28T11:44:13.000Z</time>
      </trkpt>
      <trkpt lat="40.28778" lon="20.47884">
        <ele>627.40002441406</ele>
        <time>2023-09-28T11:44:12.000Z</time>
      </trkpt>
      <trkpt lat="40.28773" lon="20.47882">
        <ele>627.40002441406</ele>
        <time>2023-09-28T11:44:11.000Z</time>
      </trkpt>
      <trkpt lat="40.28762" lon="20.47883">
        <ele>626.91998291016</ele>
        <time>2023-09-28T11:44:07.000Z</time>
      </trkpt>
      <trkpt lat="40.28754" lon="20.47889">
        <ele>626.91998291016</ele>
        <time>2023-09-28T11:44:05.000Z</time>
      </trkpt>
      <trkpt lat="40.2875" lon="20.4789">
        <ele>626.91998291016</ele>
        <time>2023-09-28T11:44:04.000Z</time>
      </trkpt>
      <trkpt lat="40.28745" lon="20.4789">
        <ele>627.40002441406</ele>
        <time>2023-09-28T11:44:03.000Z</time>
      </trkpt>
      <trkpt lat="40.28736" lon="20.47897">
        <ele>627.40002441406</ele>
        <time>2023-09-28T11:44:00.000Z</time>
      </trkpt>
      <trkpt lat="40.28734" lon="20.47901">
        <ele>626.91998291016</ele>
        <time>2023-09-28T11:43:59.000Z</time>
      </trkpt>
      <trkpt lat="40.28732" lon="20.47908">
        <ele>626.44000244141</ele>
        <time>2023-09-28T11:43:58.000Z</time>
      </trkpt>
      <trkpt lat="40.28729" lon="20.47917">
        <ele>625.96002197266</ele>
        <time>2023-09-28T11:43:57.000Z</time>
      </trkpt>
      <trkpt lat="40.28728" lon="20.47919">
        <ele>625.46997070312</ele>
        <time>2023-09-28T11:43:56.000Z</time>
      </trkpt>
      <trkpt lat="40.28724" lon="20.47925">
        <ele>624.51000976562</ele>
        <time>2023-09-28T11:43:55.000Z</time>
      </trkpt>
      <trkpt lat="40.28719" lon="20.47927">
        <ele>624.03002929688</ele>
        <time>2023-09-28T11:43:54.000Z</time>
      </trkpt>
      <trkpt lat="40.28714" lon="20.47929">
        <ele>623.07000732422</ele>
        <time>2023-09-28T11:43:53.000Z</time>
      </trkpt>
      <trkpt lat="40.28712" lon="20.47929">
        <ele>623.07000732422</ele>
        <time>2023-09-28T11:43:52.000Z</time>
      </trkpt>
      <trkpt lat="40.287" lon="20.47931">
        <ele>621.15002441406</ele>
        <time>2023-09-28T11:43:51.000Z</time>
      </trkpt>
      <trkpt lat="40.28694" lon="20.47933">
        <ele>620.19000244141</ele>
        <time>2023-09-28T11:43:50.000Z</time>
      </trkpt>
      <trkpt lat="40.28691" lon="20.47934">
        <ele>619.71002197266</ele>
        <time>2023-09-28T11:43:49.000Z</time>
      </trkpt>
      <trkpt lat="40.28683" lon="20.47937">
        <ele>619.22998046875</ele>
        <time>2023-09-28T11:43:48.000Z</time>
      </trkpt>
      <trkpt lat="40.28674" lon="20.47941">
        <ele>618.26000976562</ele>
        <time>2023-09-28T11:43:47.000Z</time>
      </trkpt>
      <trkpt lat="40.28669" lon="20.47944">
        <ele>617.78002929688</ele>
        <time>2023-09-28T11:43:46.000Z</time>
      </trkpt>
      <trkpt lat="40.28664" lon="20.47948">
        <ele>617.29998779297</ele>
        <time>2023-09-28T11:43:45.000Z</time>
      </trkpt>
      <trkpt lat="40.2866" lon="20.47953">
        <ele>616.34002685547</ele>
        <time>2023-09-28T11:43:44.000Z</time>
      </trkpt>
      <trkpt lat="40.28657" lon="20.4796">
        <ele>615.85998535156</ele>
        <time>2023-09-28T11:43:43.000Z</time>
      </trkpt>
      <trkpt lat="40.28654" lon="20.47966">
        <ele>614.90002441406</ele>
        <time>2023-09-28T11:43:42.000Z</time>
      </trkpt>
      <trkpt lat="40.28648" lon="20.47983">
        <ele>613.46002197266</ele>
        <time>2023-09-28T11:43:40.000Z</time>
      </trkpt>
      <trkpt lat="40.28645" lon="20.4799">
        <ele>612.97998046875</ele>
        <time>2023-09-28T11:43:39.000Z</time>
      </trkpt>
      <trkpt lat="40.28642" lon="20.47999">
        <ele>612.02001953125</ele>
        <time>2023-09-28T11:43:38.000Z</time>
      </trkpt>
      <trkpt lat="40.28639" lon="20.48008">
        <ele>611.53997802734</ele>
        <time>2023-09-28T11:43:37.000Z</time>
      </trkpt>
      <trkpt lat="40.28635" lon="20.48024">
        <ele>611.05999755859</ele>
        <time>2023-09-28T11:43:35.000Z</time>
      </trkpt>
      <trkpt lat="40.28629" lon="20.48048">
        <ele>610.09002685547</ele>
        <time>2023-09-28T11:43:33.000Z</time>
      </trkpt>
      <trkpt lat="40.28628" lon="20.48054">
        <ele>610.09002685547</ele>
        <time>2023-09-28T11:43:32.000Z</time>
      </trkpt>
      <trkpt lat="40.28627" lon="20.48062">
        <ele>609.60998535156</ele>
        <time>2023-09-28T11:43:31.000Z</time>
      </trkpt>
      <trkpt lat="40.28625" lon="20.48071">
        <ele>609.13000488281</ele>
        <time>2023-09-28T11:43:30.000Z</time>
      </trkpt>
      <trkpt lat="40.28623" lon="20.48077">
        <ele>608.16998291016</ele>
        <time>2023-09-28T11:43:29.000Z</time>
      </trkpt>
      <trkpt lat="40.28621" lon="20.48082">
        <ele>607.69000244141</ele>
        <time>2023-09-28T11:43:28.000Z</time>
      </trkpt>
      <trkpt lat="40.28619" lon="20.48087">
        <ele>607.21002197266</ele>
        <time>2023-09-28T11:43:27.000Z</time>
      </trkpt>
      <trkpt lat="40.28615" lon="20.48096">
        <ele>606.25</ele>
        <time>2023-09-28T11:43:26.000Z</time>
      </trkpt>
      <trkpt lat="40.28612" lon="20.48101">
        <ele>606.25</ele>
        <time>2023-09-28T11:43:25.000Z</time>
      </trkpt>
      <trkpt lat="40.28608" lon="20.48107">
        <ele>605.77001953125</ele>
        <time>2023-09-28T11:43:24.000Z</time>
      </trkpt>
      <trkpt lat="40.28604" lon="20.48111">
        <ele>605.28997802734</ele>
        <time>2023-09-28T11:43:23.000Z</time>
      </trkpt>
      <trkpt lat="40.28599" lon="20.48114">
        <ele>604.33001708984</ele>
        <time>2023-09-28T11:43:22.000Z</time>
      </trkpt>
      <trkpt lat="40.28595" lon="20.48115">
        <ele>603.84997558594</ele>
        <time>2023-09-28T11:43:21.000Z</time>
      </trkpt>
      <trkpt lat="40.28591" lon="20.48114">
        <ele>603.35998535156</ele>
        <time>2023-09-28T11:43:20.000Z</time>
      </trkpt>
      <trkpt lat="40.28584" lon="20.4811">
        <ele>602.40002441406</ele>
        <time>2023-09-28T11:43:19.000Z</time>
      </trkpt>
      <trkpt lat="40.28582" lon="20.48108">
        <ele>602.40002441406</ele>
        <time>2023-09-28T11:43:18.000Z</time>
      </trkpt>
      <trkpt lat="40.28572" lon="20.48099">
        <ele>600.96002197266</ele>
        <time>2023-09-28T11:43:17.000Z</time>
      </trkpt>
      <trkpt lat="40.28568" lon="20.48096">
        <ele>600.47998046875</ele>
        <time>2023-09-28T11:43:16.000Z</time>
      </trkpt>
      <trkpt lat="40.2856" lon="20.48087">
        <ele>599.03997802734</ele>
        <time>2023-09-28T11:43:15.000Z</time>
      </trkpt>
      <trkpt lat="40.28554" lon="20.48082">
        <ele>598.08001708984</ele>
        <time>2023-09-28T11:43:14.000Z</time>
      </trkpt>
      <trkpt lat="40.28548" lon="20.48078">
        <ele>597.11999511719</ele>
        <time>2023-09-28T11:43:13.000Z</time>
      </trkpt>
      <trkpt lat="40.2854" lon="20.48072">
        <ele>596.64001464844</ele>
        <time>2023-09-28T11:43:12.000Z</time>
      </trkpt>
      <trkpt lat="40.28535" lon="20.48069">
        <ele>596.15002441406</ele>
        <time>2023-09-28T11:43:11.000Z</time>
      </trkpt>
      <trkpt lat="40.2853" lon="20.48066">
        <ele>595.66998291016</ele>
        <time>2023-09-28T11:43:10.000Z</time>
      </trkpt>
      <trkpt lat="40.28522" lon="20.48063">
        <ele>595.19000244141</ele>
        <time>2023-09-28T11:43:09.000Z</time>
      </trkpt>
      <trkpt lat="40.28518" lon="20.48061">
        <ele>595.19000244141</ele>
        <time>2023-09-28T11:43:08.000Z</time>
      </trkpt>
      <trkpt lat="40.28514" lon="20.48057">
        <ele>594.71002197266</ele>
        <time>2023-09-28T11:43:07.000Z</time>
      </trkpt>
      <trkpt lat="40.28512" lon="20.48055">
        <ele>594.71002197266</ele>
        <time>2023-09-28T11:43:06.000Z</time>
      </trkpt>
      <trkpt lat="40.28508" lon="20.48045">
        <ele>594.22998046875</ele>
        <time>2023-09-28T11:43:05.000Z</time>
      </trkpt>
      <trkpt lat="40.28503" lon="20.48035">
        <ele>593.27001953125</ele>
        <time>2023-09-28T11:43:04.000Z</time>
      </trkpt>
      <trkpt lat="40.285" lon="20.48027">
        <ele>592.78997802734</ele>
        <time>2023-09-28T11:43:03.000Z</time>
      </trkpt>
      <trkpt lat="40.28499" lon="20.48023">
        <ele>592.30999755859</ele>
        <time>2023-09-28T11:43:02.000Z</time>
      </trkpt>
      <trkpt lat="40.28494" lon="20.48008">
        <ele>591.34997558594</ele>
        <time>2023-09-28T11:43:01.000Z</time>
      </trkpt>
      <trkpt lat="40.28492" lon="20.48003">
        <ele>590.86999511719</ele>
        <time>2023-09-28T11:43:00.000Z</time>
      </trkpt>
      <trkpt lat="40.28486" lon="20.47989">
        <ele>590.86999511719</ele>
        <time>2023-09-28T11:42:59.000Z</time>
      </trkpt>
      <trkpt lat="40.28483" lon="20.4798">
        <ele>590.86999511719</ele>
        <time>2023-09-28T11:42:58.000Z</time>
      </trkpt>
      <trkpt lat="40.28481" lon="20.47973">
        <ele>590.39001464844</ele>
        <time>2023-09-28T11:42:57.000Z</time>
      </trkpt>
      <trkpt lat="40.28478" lon="20.47967">
        <ele>590.39001464844</ele>
        <time>2023-09-28T11:42:56.000Z</time>
      </trkpt>
      <trkpt lat="40.28474" lon="20.47961">
        <ele>589.90997314453</ele>
        <time>2023-09-28T11:42:55.000Z</time>
      </trkpt>
      <trkpt lat="40.28468" lon="20.47956">
        <ele>589.42999267578</ele>
        <time>2023-09-28T11:42:54.000Z</time>
      </trkpt>
      <trkpt lat="40.28464" lon="20.4795">
        <ele>588.95001220703</ele>
        <time>2023-09-28T11:42:53.000Z</time>
      </trkpt>
      <trkpt lat="40.28461" lon="20.47944">
        <ele>588.46002197266</ele>
        <time>2023-09-28T11:42:52.000Z</time>
      </trkpt>
      <trkpt lat="40.28459" lon="20.47938">
        <ele>587.97998046875</ele>
        <time>2023-09-28T11:42:51.000Z</time>
      </trkpt>
      <trkpt lat="40.28456" lon="20.47929">
        <ele>587.02001953125</ele>
        <time>2023-09-28T11:42:50.000Z</time>
      </trkpt>
      <trkpt lat="40.28453" lon="20.47922">
        <ele>586.53997802734</ele>
        <time>2023-09-28T11:42:49.000Z</time>
      </trkpt>
      <trkpt lat="40.28449" lon="20.47917">
        <ele>585.58001708984</ele>
        <time>2023-09-28T11:42:48.000Z</time>
      </trkpt>
      <trkpt lat="40.28445" lon="20.47913">
        <ele>584.14001464844</ele>
        <time>2023-09-28T11:42:47.000Z</time>
      </trkpt>
      <trkpt lat="40.28439" lon="20.4791">
        <ele>583.17999267578</ele>
        <time>2023-09-28T11:42:46.000Z</time>
      </trkpt>
      <trkpt lat="40.28435" lon="20.47908">
        <ele>582.70001220703</ele>
        <time>2023-09-28T11:42:45.000Z</time>
      </trkpt>
      <trkpt lat="40.2843" lon="20.47907">
        <ele>582.21997070312</ele>
        <time>2023-09-28T11:42:44.000Z</time>
      </trkpt>
      <trkpt lat="40.28424" lon="20.47906">
        <ele>581.25</ele>
        <time>2023-09-28T11:42:43.000Z</time>
      </trkpt>
      <trkpt lat="40.28419" lon="20.47908">
        <ele>581.25</ele>
        <time>2023-09-28T11:42:42.000Z</time>
      </trkpt>
      <trkpt lat="40.28414" lon="20.47912">
        <ele>581.25</ele>
        <time>2023-09-28T11:42:41.000Z</time>
      </trkpt>
      <trkpt lat="40.2841" lon="20.47917">
        <ele>581.72998046875</ele>
        <time>2023-09-28T11:42:40.000Z</time>
      </trkpt>
      <trkpt lat="40.28408" lon="20.47923">
        <ele>581.72998046875</ele>
        <time>2023-09-28T11:42:39.000Z</time>
      </trkpt>
      <trkpt lat="40.28405" lon="20.47929">
        <ele>581.72998046875</ele>
        <time>2023-09-28T11:42:38.000Z</time>
      </trkpt>
      <trkpt lat="40.284" lon="20.47934">
        <ele>581.25</ele>
        <time>2023-09-28T11:42:37.000Z</time>
      </trkpt>
      <trkpt lat="40.28396" lon="20.47939">
        <ele>581.25</ele>
        <time>2023-09-28T11:42:36.000Z</time>
      </trkpt>
      <trkpt lat="40.28389" lon="20.47948">
        <ele>580.77001953125</ele>
        <time>2023-09-28T11:42:35.000Z</time>
      </trkpt>
      <trkpt lat="40.28383" lon="20.47956">
        <ele>580.28997802734</ele>
        <time>2023-09-28T11:42:34.000Z</time>
      </trkpt>
      <trkpt lat="40.2838" lon="20.47959">
        <ele>580.77001953125</ele>
        <time>2023-09-28T11:42:33.000Z</time>
      </trkpt>
      <trkpt lat="40.28363" lon="20.47979">
        <ele>580.77001953125</ele>
        <time>2023-09-28T11:42:31.000Z</time>
      </trkpt>
      <trkpt lat="40.28358" lon="20.47988">
        <ele>580.77001953125</ele>
        <time>2023-09-28T11:42:30.000Z</time>
      </trkpt>
      <trkpt lat="40.28353" lon="20.47996">
        <ele>580.28997802734</ele>
        <time>2023-09-28T11:42:29.000Z</time>
      </trkpt>
      <trkpt lat="40.28349" lon="20.48002">
        <ele>579.80999755859</ele>
        <time>2023-09-28T11:42:28.000Z</time>
      </trkpt>
      <trkpt lat="40.28345" lon="20.48009">
        <ele>579.80999755859</ele>
        <time>2023-09-28T11:42:27.000Z</time>
      </trkpt>
      <trkpt lat="40.28342" lon="20.48014">
        <ele>579.80999755859</ele>
        <time>2023-09-28T11:42:26.000Z</time>
      </trkpt>
      <trkpt lat="40.28337" lon="20.48022">
        <ele>579.33001708984</ele>
        <time>2023-09-28T11:42:25.000Z</time>
      </trkpt>
      <trkpt lat="40.28334" lon="20.4803">
        <ele>578.84997558594</ele>
        <time>2023-09-28T11:42:24.000Z</time>
      </trkpt>
      <trkpt lat="40.28332" lon="20.48035">
        <ele>578.84997558594</ele>
        <time>2023-09-28T11:42:23.000Z</time>
      </trkpt>
      <trkpt lat="40.28331" lon="20.48041">
        <ele>578.84997558594</ele>
        <time>2023-09-28T11:42:22.000Z</time>
      </trkpt>
      <trkpt lat="40.28331" lon="20.48047">
        <ele>578.36999511719</ele>
        <time>2023-09-28T11:42:21.000Z</time>
      </trkpt>
      <trkpt lat="40.28332" lon="20.48054">
        <ele>578.36999511719</ele>
        <time>2023-09-28T11:42:20.000Z</time>
      </trkpt>
      <trkpt lat="40.28332" lon="20.48062">
        <ele>577.40997314453</ele>
        <time>2023-09-28T11:42:19.000Z</time>
      </trkpt>
      <trkpt lat="40.28333" lon="20.48068">
        <ele>577.40997314453</ele>
        <time>2023-09-28T11:42:18.000Z</time>
      </trkpt>
      <trkpt lat="40.28333" lon="20.48078">
        <ele>576.92999267578</ele>
        <time>2023-09-28T11:42:17.000Z</time>
      </trkpt>
      <trkpt lat="40.28332" lon="20.48086">
        <ele>576.92999267578</ele>
        <time>2023-09-28T11:42:16.000Z</time>
      </trkpt>
      <trkpt lat="40.2833" lon="20.48095">
        <ele>576.45001220703</ele>
        <time>2023-09-28T11:42:15.000Z</time>
      </trkpt>
      <trkpt lat="40.28327" lon="20.48101">
        <ele>576.45001220703</ele>
        <time>2023-09-28T11:42:14.000Z</time>
      </trkpt>
      <trkpt lat="40.28325" lon="20.48103">
        <ele>576.45001220703</ele>
        <time>2023-09-28T11:42:13.000Z</time>
      </trkpt>
      <trkpt lat="40.28317" lon="20.48114">
        <ele>575.96997070312</ele>
        <time>2023-09-28T11:42:12.000Z</time>
      </trkpt>
      <trkpt lat="40.28314" lon="20.4812">
        <ele>575.48999023438</ele>
        <time>2023-09-28T11:42:11.000Z</time>
      </trkpt>
      <trkpt lat="40.2831" lon="20.48127">
        <ele>574.53002929688</ele>
        <time>2023-09-28T11:42:10.000Z</time>
      </trkpt>
      <trkpt lat="40.28308" lon="20.48132">
        <ele>574.03997802734</ele>
        <time>2023-09-28T11:42:09.000Z</time>
      </trkpt>
      <trkpt lat="40.28304" lon="20.48138">
        <ele>573.08001708984</ele>
        <time>2023-09-28T11:42:08.000Z</time>
      </trkpt>
      <trkpt lat="40.283" lon="20.48141">
        <ele>572.11999511719</ele>
        <time>2023-09-28T11:42:07.000Z</time>
      </trkpt>
      <trkpt lat="40.28295" lon="20.48142">
        <ele>571.15997314453</ele>
        <time>2023-09-28T11:42:06.000Z</time>
      </trkpt>
      <trkpt lat="40.2829" lon="20.48142">
        <ele>570.20001220703</ele>
        <time>2023-09-28T11:42:05.000Z</time>
      </trkpt>
      <trkpt lat="40.28286" lon="20.4814">
        <ele>569.23999023438</ele>
        <time>2023-09-28T11:42:04.000Z</time>
      </trkpt>
      <trkpt lat="40.28281" lon="20.48138">
        <ele>568.28002929688</ele>
        <time>2023-09-28T11:42:03.000Z</time>
      </trkpt>
      <trkpt lat="40.28277" lon="20.48136">
        <ele>567.79998779297</ele>
        <time>2023-09-28T11:42:02.000Z</time>
      </trkpt>
      <trkpt lat="40.28272" lon="20.48137">
        <ele>567.32000732422</ele>
        <time>2023-09-28T11:42:01.000Z</time>
      </trkpt>
      <trkpt lat="40.28267" lon="20.4814">
        <ele>567.32000732422</ele>
        <time>2023-09-28T11:42:00.000Z</time>
      </trkpt>
      <trkpt lat="40.28262" lon="20.48144">
        <ele>566.83001708984</ele>
        <time>2023-09-28T11:41:59.000Z</time>
      </trkpt>
      <trkpt lat="40.28258" lon="20.48148">
        <ele>565.86999511719</ele>
        <time>2023-09-28T11:41:58.000Z</time>
      </trkpt>
      <trkpt lat="40.28252" lon="20.48153">
        <ele>565.39001464844</ele>
        <time>2023-09-28T11:41:57.000Z</time>
      </trkpt>
      <trkpt lat="40.28247" lon="20.48157">
        <ele>564.42999267578</ele>
        <time>2023-09-28T11:41:56.000Z</time>
      </trkpt>
      <trkpt lat="40.28242" lon="20.48161">
        <ele>563.95001220703</ele>
        <time>2023-09-28T11:41:55.000Z</time>
      </trkpt>
      <trkpt lat="40.28236" lon="20.48165">
        <ele>563.46997070312</ele>
        <time>2023-09-28T11:41:54.000Z</time>
      </trkpt>
      <trkpt lat="40.2823" lon="20.48167">
        <ele>563.46997070312</ele>
        <time>2023-09-28T11:41:53.000Z</time>
      </trkpt>
      <trkpt lat="40.28226" lon="20.48168">
        <ele>563.46997070312</ele>
        <time>2023-09-28T11:41:52.000Z</time>
      </trkpt>
      <trkpt lat="40.28225" lon="20.48168">
        <ele>563.46997070312</ele>
        <time>2023-09-28T11:41:51.000Z</time>
      </trkpt>
      <trkpt lat="40.28217" lon="20.48162">
        <ele>562.03002929688</ele>
        <time>2023-09-28T11:41:49.000Z</time>
      </trkpt>
      <trkpt lat="40.28214" lon="20.48156">
        <ele>562.03002929688</ele>
        <time>2023-09-28T11:41:48.000Z</time>
      </trkpt>
      <trkpt lat="40.28211" lon="20.4815">
        <ele>561.54998779297</ele>
        <time>2023-09-28T11:41:47.000Z</time>
      </trkpt>
      <trkpt lat="40.28208" lon="20.48142">
        <ele>561.54998779297</ele>
        <time>2023-09-28T11:41:46.000Z</time>
      </trkpt>
      <trkpt lat="40.28206" lon="20.48137">
        <ele>561.54998779297</ele>
        <time>2023-09-28T11:41:45.000Z</time>
      </trkpt>
      <trkpt lat="40.28203" lon="20.48132">
        <ele>561.54998779297</ele>
        <time>2023-09-28T11:41:44.000Z</time>
      </trkpt>
      <trkpt lat="40.28203" lon="20.48131">
        <ele>561.54998779297</ele>
        <time>2023-09-28T11:41:43.000Z</time>
      </trkpt>
      <trkpt lat="40.28198" lon="20.48119">
        <ele>561.07000732422</ele>
        <time>2023-09-28T11:41:40.000Z</time>
      </trkpt>
      <trkpt lat="40.28179" lon="20.48114">
        <ele>562.03002929688</ele>
        <time>2023-09-28T11:41:35.000Z</time>
      </trkpt>
      <trkpt lat="40.28176" lon="20.48118">
        <ele>562.51000976562</ele>
        <time>2023-09-28T11:41:34.000Z</time>
      </trkpt>
      <trkpt lat="40.28172" lon="20.48121">
        <ele>563.46997070312</ele>
        <time>2023-09-28T11:41:33.000Z</time>
      </trkpt>
      <trkpt lat="40.28168" lon="20.48125">
        <ele>563.95001220703</ele>
        <time>2023-09-28T11:41:32.000Z</time>
      </trkpt>
      <trkpt lat="40.28163" lon="20.48127">
        <ele>564.42999267578</ele>
        <time>2023-09-28T11:41:31.000Z</time>
      </trkpt>
      <trkpt lat="40.28159" lon="20.48126">
        <ele>564.42999267578</ele>
        <time>2023-09-28T11:41:30.000Z</time>
      </trkpt>
      <trkpt lat="40.28154" lon="20.48123">
        <ele>564.42999267578</ele>
        <time>2023-09-28T11:41:29.000Z</time>
      </trkpt>
      <trkpt lat="40.28144" lon="20.48117">
        <ele>564.90997314453</ele>
        <time>2023-09-28T11:41:27.000Z</time>
      </trkpt>
      <trkpt lat="40.2814" lon="20.48113">
        <ele>565.39001464844</ele>
        <time>2023-09-28T11:41:26.000Z</time>
      </trkpt>
      <trkpt lat="40.28129" lon="20.48105">
        <ele>565.86999511719</ele>
        <time>2023-09-28T11:41:25.000Z</time>
      </trkpt>
      <trkpt lat="40.28124" lon="20.48103">
        <ele>566.34997558594</ele>
        <time>2023-09-28T11:41:24.000Z</time>
      </trkpt>
      <trkpt lat="40.28118" lon="20.48101">
        <ele>566.83001708984</ele>
        <time>2023-09-28T11:41:23.000Z</time>
      </trkpt>
      <trkpt lat="40.28111" lon="20.48101">
        <ele>567.79998779297</ele>
        <time>2023-09-28T11:41:22.000Z</time>
      </trkpt>
      <trkpt lat="40.28105" lon="20.48099">
        <ele>568.28002929688</ele>
        <time>2023-09-28T11:41:21.000Z</time>
      </trkpt>
      <trkpt lat="40.28098" lon="20.48097">
        <ele>568.76000976562</ele>
        <time>2023-09-28T11:41:20.000Z</time>
      </trkpt>
      <trkpt lat="40.28093" lon="20.48093">
        <ele>569.23999023438</ele>
        <time>2023-09-28T11:41:19.000Z</time>
      </trkpt>
      <trkpt lat="40.28088" lon="20.48089">
        <ele>569.23999023438</ele>
        <time>2023-09-28T11:41:18.000Z</time>
      </trkpt>
      <trkpt lat="40.28085" lon="20.48084">
        <ele>569.23999023438</ele>
        <time>2023-09-28T11:41:17.000Z</time>
      </trkpt>
      <trkpt lat="40.28083" lon="20.48079">
        <ele>568.76000976562</ele>
        <time>2023-09-28T11:41:16.000Z</time>
      </trkpt>
      <trkpt lat="40.28081" lon="20.4807">
        <ele>568.76000976562</ele>
        <time>2023-09-28T11:41:15.000Z</time>
      </trkpt>
      <trkpt lat="40.2808" lon="20.48061">
        <ele>568.76000976562</ele>
        <time>2023-09-28T11:41:14.000Z</time>
      </trkpt>
      <trkpt lat="40.28077" lon="20.48053">
        <ele>569.71997070312</ele>
        <time>2023-09-28T11:41:13.000Z</time>
      </trkpt>
      <trkpt lat="40.28073" lon="20.48046">
        <ele>570.20001220703</ele>
        <time>2023-09-28T11:41:12.000Z</time>
      </trkpt>
      <trkpt lat="40.28069" lon="20.48039">
        <ele>571.15997314453</ele>
        <time>2023-09-28T11:41:11.000Z</time>
      </trkpt>
      <trkpt lat="40.28062" lon="20.48032">
        <ele>572.11999511719</ele>
        <time>2023-09-28T11:41:10.000Z</time>
      </trkpt>
      <trkpt lat="40.28057" lon="20.48028">
        <ele>572.59997558594</ele>
        <time>2023-09-28T11:41:09.000Z</time>
      </trkpt>
      <trkpt lat="40.28048" lon="20.48022">
        <ele>573.55999755859</ele>
        <time>2023-09-28T11:41:08.000Z</time>
      </trkpt>
      <trkpt lat="40.28041" lon="20.48017">
        <ele>574.03997802734</ele>
        <time>2023-09-28T11:41:07.000Z</time>
      </trkpt>
      <trkpt lat="40.28039" lon="20.48017">
        <ele>574.03997802734</ele>
        <time>2023-09-28T11:41:06.000Z</time>
      </trkpt>
      <trkpt lat="40.28028" lon="20.48012">
        <ele>575.48999023438</ele>
        <time>2023-09-28T11:41:05.000Z</time>
      </trkpt>
      <trkpt lat="40.28024" lon="20.48009">
        <ele>576.92999267578</ele>
        <time>2023-09-28T11:41:04.000Z</time>
      </trkpt>
      <trkpt lat="40.28022" lon="20.48007">
        <ele>577.40997314453</ele>
        <time>2023-09-28T11:41:03.000Z</time>
      </trkpt>
      <trkpt lat="40.28018" lon="20.47999">
        <ele>578.36999511719</ele>
        <time>2023-09-28T11:41:01.000Z</time>
      </trkpt>
      <trkpt lat="40.28015" lon="20.47993">
        <ele>578.36999511719</ele>
        <time>2023-09-28T11:41:00.000Z</time>
      </trkpt>
      <trkpt lat="40.2801" lon="20.47985">
        <ele>578.84997558594</ele>
        <time>2023-09-28T11:40:59.000Z</time>
      </trkpt>
      <trkpt lat="40.28004" lon="20.47975">
        <ele>579.80999755859</ele>
        <time>2023-09-28T11:40:57.000Z</time>
      </trkpt>
      <trkpt lat="40.27996" lon="20.47962">
        <ele>580.28997802734</ele>
        <time>2023-09-28T11:40:56.000Z</time>
      </trkpt>
      <trkpt lat="40.27991" lon="20.47954">
        <ele>581.25</ele>
        <time>2023-09-28T11:40:55.000Z</time>
      </trkpt>
      <trkpt lat="40.27987" lon="20.47949">
        <ele>581.72998046875</ele>
        <time>2023-09-28T11:40:54.000Z</time>
      </trkpt>
      <trkpt lat="40.2798" lon="20.47942">
        <ele>582.21997070312</ele>
        <time>2023-09-28T11:40:53.000Z</time>
      </trkpt>
      <trkpt lat="40.27972" lon="20.47933">
        <ele>583.17999267578</ele>
        <time>2023-09-28T11:40:52.000Z</time>
      </trkpt>
      <trkpt lat="40.2797" lon="20.47931">
        <ele>583.65997314453</ele>
        <time>2023-09-28T11:40:51.000Z</time>
      </trkpt>
      <trkpt lat="40.27961" lon="20.47919">
        <ele>584.61999511719</ele>
        <time>2023-09-28T11:40:50.000Z</time>
      </trkpt>
      <trkpt lat="40.27956" lon="20.47912">
        <ele>585.09997558594</ele>
        <time>2023-09-28T11:40:49.000Z</time>
      </trkpt>
      <trkpt lat="40.27952" lon="20.47905">
        <ele>586.05999755859</ele>
        <time>2023-09-28T11:40:48.000Z</time>
      </trkpt>
      <trkpt lat="40.27945" lon="20.47897">
        <ele>586.53997802734</ele>
        <time>2023-09-28T11:40:47.000Z</time>
      </trkpt>
      <trkpt lat="40.27942" lon="20.47893">
        <ele>587.02001953125</ele>
        <time>2023-09-28T11:40:46.000Z</time>
      </trkpt>
      <trkpt lat="40.27934" lon="20.47886">
        <ele>588.46002197266</ele>
        <time>2023-09-28T11:40:45.000Z</time>
      </trkpt>
      <trkpt lat="40.27929" lon="20.47881">
        <ele>588.95001220703</ele>
        <time>2023-09-28T11:40:44.000Z</time>
      </trkpt>
      <trkpt lat="40.27927" lon="20.4788">
        <ele>589.42999267578</ele>
        <time>2023-09-28T11:40:43.000Z</time>
      </trkpt>
      <trkpt lat="40.27921" lon="20.4788">
        <ele>589.90997314453</ele>
        <time>2023-09-28T11:40:42.000Z</time>
      </trkpt>
      <trkpt lat="40.27918" lon="20.47881">
        <ele>590.39001464844</ele>
        <time>2023-09-28T11:40:41.000Z</time>
      </trkpt>
      <trkpt lat="40.27914" lon="20.47884">
        <ele>590.86999511719</ele>
        <time>2023-09-28T11:40:40.000Z</time>
      </trkpt>
      <trkpt lat="40.2791" lon="20.47886">
        <ele>591.34997558594</ele>
        <time>2023-09-28T11:40:39.000Z</time>
      </trkpt>
      <trkpt lat="40.27902" lon="20.47892">
        <ele>592.30999755859</ele>
        <time>2023-09-28T11:40:38.000Z</time>
      </trkpt>
      <trkpt lat="40.27896" lon="20.47894">
        <ele>592.30999755859</ele>
        <time>2023-09-28T11:40:37.000Z</time>
      </trkpt>
      <trkpt lat="40.27892" lon="20.47895">
        <ele>592.30999755859</ele>
        <time>2023-09-28T11:40:36.000Z</time>
      </trkpt>
      <trkpt lat="40.27885" lon="20.47896">
        <ele>592.30999755859</ele>
        <time>2023-09-28T11:40:35.000Z</time>
      </trkpt>
      <trkpt lat="40.27884" lon="20.47896">
        <ele>592.78997802734</ele>
        <time>2023-09-28T11:40:34.000Z</time>
      </trkpt>
      <trkpt lat="40.27877" lon="20.47899">
        <ele>592.78997802734</ele>
        <time>2023-09-28T11:40:33.000Z</time>
      </trkpt>
      <trkpt lat="40.27869" lon="20.47901">
        <ele>593.27001953125</ele>
        <time>2023-09-28T11:40:32.000Z</time>
      </trkpt>
      <trkpt lat="40.27863" lon="20.47902">
        <ele>593.75</ele>
        <time>2023-09-28T11:40:31.000Z</time>
      </trkpt>
      <trkpt lat="40.27858" lon="20.479">
        <ele>594.22998046875</ele>
        <time>2023-09-28T11:40:30.000Z</time>
      </trkpt>
      <trkpt lat="40.27852" lon="20.47897">
        <ele>594.71002197266</ele>
        <time>2023-09-28T11:40:29.000Z</time>
      </trkpt>
      <trkpt lat="40.27845" lon="20.47894">
        <ele>595.19000244141</ele>
        <time>2023-09-28T11:40:28.000Z</time>
      </trkpt>
      <trkpt lat="40.2784" lon="20.4789">
        <ele>595.66998291016</ele>
        <time>2023-09-28T11:40:27.000Z</time>
      </trkpt>
      <trkpt lat="40.27838" lon="20.47886">
        <ele>596.64001464844</ele>
        <time>2023-09-28T11:40:26.000Z</time>
      </trkpt>
      <trkpt lat="40.27834" lon="20.4788">
        <ele>596.64001464844</ele>
        <time>2023-09-28T11:40:25.000Z</time>
      </trkpt>
      <trkpt lat="40.27831" lon="20.47879">
        <ele>597.11999511719</ele>
        <time>2023-09-28T11:40:24.000Z</time>
      </trkpt>
      <trkpt lat="40.27822" lon="20.4788">
        <ele>597.11999511719</ele>
        <time>2023-09-28T11:40:22.000Z</time>
      </trkpt>
      <trkpt lat="40.27819" lon="20.47882">
        <ele>597.11999511719</ele>
        <time>2023-09-28T11:40:21.000Z</time>
      </trkpt>
      <trkpt lat="40.27813" lon="20.47888">
        <ele>597.59997558594</ele>
        <time>2023-09-28T11:40:20.000Z</time>
      </trkpt>
      <trkpt lat="40.27808" lon="20.47892">
        <ele>598.08001708984</ele>
        <time>2023-09-28T11:40:19.000Z</time>
      </trkpt>
      <trkpt lat="40.27802" lon="20.47894">
        <ele>598.55999755859</ele>
        <time>2023-09-28T11:40:18.000Z</time>
      </trkpt>
      <trkpt lat="40.27796" lon="20.47897">
        <ele>598.55999755859</ele>
        <time>2023-09-28T11:40:17.000Z</time>
      </trkpt>
      <trkpt lat="40.27789" lon="20.47899">
        <ele>599.03997802734</ele>
        <time>2023-09-28T11:40:16.000Z</time>
      </trkpt>
      <trkpt lat="40.27782" lon="20.47903">
        <ele>600</ele>
        <time>2023-09-28T11:40:15.000Z</time>
      </trkpt>
      <trkpt lat="40.27777" lon="20.47907">
        <ele>600.47998046875</ele>
        <time>2023-09-28T11:40:14.000Z</time>
      </trkpt>
      <trkpt lat="40.27772" lon="20.4791">
        <ele>600.47998046875</ele>
        <time>2023-09-28T11:40:13.000Z</time>
      </trkpt>
      <trkpt lat="40.27766" lon="20.47914">
        <ele>600.47998046875</ele>
        <time>2023-09-28T11:40:12.000Z</time>
      </trkpt>
      <trkpt lat="40.27761" lon="20.47915">
        <ele>600.96002197266</ele>
        <time>2023-09-28T11:40:11.000Z</time>
      </trkpt>
      <trkpt lat="40.27755" lon="20.47915">
        <ele>600.96002197266</ele>
        <time>2023-09-28T11:40:10.000Z</time>
      </trkpt>
      <trkpt lat="40.2775" lon="20.47914">
        <ele>600.47998046875</ele>
        <time>2023-09-28T11:40:09.000Z</time>
      </trkpt>
      <trkpt lat="40.27747" lon="20.47914">
        <ele>600.47998046875</ele>
        <time>2023-09-28T11:40:08.000Z</time>
      </trkpt>
      <trkpt lat="40.27735" lon="20.47913">
        <ele>600</ele>
        <time>2023-09-28T11:40:07.000Z</time>
      </trkpt>
      <trkpt lat="40.27732" lon="20.47913">
        <ele>600</ele>
        <time>2023-09-28T11:40:06.000Z</time>
      </trkpt>
      <trkpt lat="40.27723" lon="20.47913">
        <ele>599.52001953125</ele>
        <time>2023-09-28T11:40:05.000Z</time>
      </trkpt>
      <trkpt lat="40.27712" lon="20.47915">
        <ele>599.03997802734</ele>
        <time>2023-09-28T11:40:03.000Z</time>
      </trkpt>
      <trkpt lat="40.277" lon="20.47917">
        <ele>599.52001953125</ele>
        <time>2023-09-28T11:40:02.000Z</time>
      </trkpt>
      <trkpt lat="40.27694" lon="20.47918">
        <ele>600</ele>
        <time>2023-09-28T11:40:01.000Z</time>
      </trkpt>
      <trkpt lat="40.27689" lon="20.47917">
        <ele>600.47998046875</ele>
        <time>2023-09-28T11:40:00.000Z</time>
      </trkpt>
      <trkpt lat="40.27685" lon="20.47915">
        <ele>601.44000244141</ele>
        <time>2023-09-28T11:39:59.000Z</time>
      </trkpt>
      <trkpt lat="40.27682" lon="20.4791">
        <ele>601.91998291016</ele>
        <time>2023-09-28T11:39:58.000Z</time>
      </trkpt>
      <trkpt lat="40.2768" lon="20.47904">
        <ele>602.88000488281</ele>
        <time>2023-09-28T11:39:57.000Z</time>
      </trkpt>
      <trkpt lat="40.27679" lon="20.47898">
        <ele>603.35998535156</ele>
        <time>2023-09-28T11:39:56.000Z</time>
      </trkpt>
      <trkpt lat="40.27678" lon="20.47892">
        <ele>604.33001708984</ele>
        <time>2023-09-28T11:39:55.000Z</time>
      </trkpt>
      <trkpt lat="40.2768" lon="20.47886">
        <ele>604.80999755859</ele>
        <time>2023-09-28T11:39:54.000Z</time>
      </trkpt>
      <trkpt lat="40.2768" lon="20.47885">
        <ele>605.28997802734</ele>
        <time>2023-09-28T11:39:53.000Z</time>
      </trkpt>
      <trkpt lat="40.27684" lon="20.47873">
        <ele>605.77001953125</ele>
        <time>2023-09-28T11:39:52.000Z</time>
      </trkpt>
      <trkpt lat="40.27686" lon="20.47868">
        <ele>606.25</ele>
        <time>2023-09-28T11:39:51.000Z</time>
      </trkpt>
      <trkpt lat="40.27688" lon="20.47861">
        <ele>606.25</ele>
        <time>2023-09-28T11:39:50.000Z</time>
      </trkpt>
      <trkpt lat="40.27687" lon="20.47854">
        <ele>606.25</ele>
        <time>2023-09-28T11:39:49.000Z</time>
      </trkpt>
      <trkpt lat="40.27687" lon="20.47851">
        <ele>605.77001953125</ele>
        <time>2023-09-28T11:39:48.000Z</time>
      </trkpt>
      <trkpt lat="40.27684" lon="20.47842">
        <ele>605.77001953125</ele>
        <time>2023-09-28T11:39:47.000Z</time>
      </trkpt>
      <trkpt lat="40.27683" lon="20.47837">
        <ele>605.28997802734</ele>
        <time>2023-09-28T11:39:46.000Z</time>
      </trkpt>
      <trkpt lat="40.27677" lon="20.47819">
        <ele>605.28997802734</ele>
        <time>2023-09-28T11:39:42.000Z</time>
      </trkpt>
      <trkpt lat="40.27677" lon="20.47817">
        <ele>605.28997802734</ele>
        <time>2023-09-28T11:39:41.000Z</time>
      </trkpt>
      <trkpt lat="40.2768" lon="20.47793">
        <ele>605.28997802734</ele>
        <time>2023-09-28T11:39:33.000Z</time>
      </trkpt>
      <trkpt lat="40.27682" lon="20.47772">
        <ele>605.77001953125</ele>
        <time>2023-09-28T11:39:27.000Z</time>
      </trkpt>
      <trkpt lat="40.27682" lon="20.47766">
        <ele>605.28997802734</ele>
        <time>2023-09-28T11:39:26.000Z</time>
      </trkpt>
      <trkpt lat="40.27681" lon="20.4776">
        <ele>604.80999755859</ele>
        <time>2023-09-28T11:39:25.000Z</time>
      </trkpt>
      <trkpt lat="40.2768" lon="20.47753">
        <ele>604.80999755859</ele>
        <time>2023-09-28T11:39:24.000Z</time>
      </trkpt>
      <trkpt lat="40.27681" lon="20.47747">
        <ele>604.33001708984</ele>
        <time>2023-09-28T11:39:23.000Z</time>
      </trkpt>
      <trkpt lat="40.27682" lon="20.47739">
        <ele>604.80999755859</ele>
        <time>2023-09-28T11:39:22.000Z</time>
      </trkpt>
      <trkpt lat="40.27683" lon="20.47732">
        <ele>604.80999755859</ele>
        <time>2023-09-28T11:39:21.000Z</time>
      </trkpt>
      <trkpt lat="40.27683" lon="20.47726">
        <ele>604.33001708984</ele>
        <time>2023-09-28T11:39:20.000Z</time>
      </trkpt>
      <trkpt lat="40.27681" lon="20.47721">
        <ele>603.84997558594</ele>
        <time>2023-09-28T11:39:19.000Z</time>
      </trkpt>
      <trkpt lat="40.27679" lon="20.47714">
        <ele>603.84997558594</ele>
        <time>2023-09-28T11:39:18.000Z</time>
      </trkpt>
      <trkpt lat="40.27677" lon="20.47708">
        <ele>603.84997558594</ele>
        <time>2023-09-28T11:39:17.000Z</time>
      </trkpt>
      <trkpt lat="40.27677" lon="20.47707">
        <ele>603.84997558594</ele>
        <time>2023-09-28T11:39:16.000Z</time>
      </trkpt>
      <trkpt lat="40.27673" lon="20.47702">
        <ele>603.35998535156</ele>
        <time>2023-09-28T11:39:15.000Z</time>
      </trkpt>
      <trkpt lat="40.2766" lon="20.47705">
        <ele>603.84997558594</ele>
        <time>2023-09-28T11:39:11.000Z</time>
      </trkpt>
      <trkpt lat="40.27658" lon="20.47712">
        <ele>603.84997558594</ele>
        <time>2023-09-28T11:39:10.000Z</time>
      </trkpt>
      <trkpt lat="40.27657" lon="20.47716">
        <ele>603.84997558594</ele>
        <time>2023-09-28T11:39:09.000Z</time>
      </trkpt>
      <trkpt lat="40.27656" lon="20.47721">
        <ele>603.84997558594</ele>
        <time>2023-09-28T11:39:08.000Z</time>
      </trkpt>
      <trkpt lat="40.27642" lon="20.47736">
        <ele>604.33001708984</ele>
        <time>2023-09-28T11:39:03.000Z</time>
      </trkpt>
      <trkpt lat="40.27639" lon="20.4774">
        <ele>604.80999755859</ele>
        <time>2023-09-28T11:39:02.000Z</time>
      </trkpt>
      <trkpt lat="40.27634" lon="20.47745">
        <ele>605.77001953125</ele>
        <time>2023-09-28T11:39:01.000Z</time>
      </trkpt>
      <trkpt lat="40.27631" lon="20.47748">
        <ele>606.72998046875</ele>
        <time>2023-09-28T11:39:00.000Z</time>
      </trkpt>
      <trkpt lat="40.27622" lon="20.47747">
        <ele>608.65002441406</ele>
        <time>2023-09-28T11:38:58.000Z</time>
      </trkpt>
      <trkpt lat="40.27617" lon="20.47744">
        <ele>609.13000488281</ele>
        <time>2023-09-28T11:38:57.000Z</time>
      </trkpt>
      <trkpt lat="40.27612" lon="20.47741">
        <ele>610.09002685547</ele>
        <time>2023-09-28T11:38:56.000Z</time>
      </trkpt>
      <trkpt lat="40.27606" lon="20.47737">
        <ele>611.05999755859</ele>
        <time>2023-09-28T11:38:55.000Z</time>
      </trkpt>
      <trkpt lat="40.276" lon="20.47736">
        <ele>612.02001953125</ele>
        <time>2023-09-28T11:38:54.000Z</time>
      </trkpt>
      <trkpt lat="40.27595" lon="20.47736">
        <ele>612.5</ele>
        <time>2023-09-28T11:38:53.000Z</time>
      </trkpt>
      <trkpt lat="40.2759" lon="20.47739">
        <ele>613.46002197266</ele>
        <time>2023-09-28T11:38:52.000Z</time>
      </trkpt>
      <trkpt lat="40.27586" lon="20.47744">
        <ele>613.94000244141</ele>
        <time>2023-09-28T11:38:51.000Z</time>
      </trkpt>
      <trkpt lat="40.27584" lon="20.47751">
        <ele>614.41998291016</ele>
        <time>2023-09-28T11:38:50.000Z</time>
      </trkpt>
      <trkpt lat="40.27584" lon="20.47754">
        <ele>614.90002441406</ele>
        <time>2023-09-28T11:38:49.000Z</time>
      </trkpt>
      <trkpt lat="40.27583" lon="20.47764">
        <ele>615.85998535156</ele>
        <time>2023-09-28T11:38:48.000Z</time>
      </trkpt>
      <trkpt lat="40.2758" lon="20.47772">
        <ele>616.34002685547</ele>
        <time>2023-09-28T11:38:47.000Z</time>
      </trkpt>
      <trkpt lat="40.27576" lon="20.47776">
        <ele>616.82000732422</ele>
        <time>2023-09-28T11:38:46.000Z</time>
      </trkpt>
      <trkpt lat="40.2757" lon="20.47779">
        <ele>617.29998779297</ele>
        <time>2023-09-28T11:38:45.000Z</time>
      </trkpt>
      <trkpt lat="40.27564" lon="20.47781">
        <ele>617.29998779297</ele>
        <time>2023-09-28T11:38:44.000Z</time>
      </trkpt>
      <trkpt lat="40.27556" lon="20.47782">
        <ele>617.29998779297</ele>
        <time>2023-09-28T11:38:43.000Z</time>
      </trkpt>
      <trkpt lat="40.27549" lon="20.47783">
        <ele>617.29998779297</ele>
        <time>2023-09-28T11:38:42.000Z</time>
      </trkpt>
      <trkpt lat="40.27542" lon="20.47785">
        <ele>617.78002929688</ele>
        <time>2023-09-28T11:38:41.000Z</time>
      </trkpt>
      <trkpt lat="40.27536" lon="20.47787">
        <ele>618.26000976562</ele>
        <time>2023-09-28T11:38:40.000Z</time>
      </trkpt>
      <trkpt lat="40.27528" lon="20.47789">
        <ele>617.78002929688</ele>
        <time>2023-09-28T11:38:39.000Z</time>
      </trkpt>
      <trkpt lat="40.27521" lon="20.47792">
        <ele>617.78002929688</ele>
        <time>2023-09-28T11:38:38.000Z</time>
      </trkpt>
      <trkpt lat="40.27515" lon="20.47795">
        <ele>618.26000976562</ele>
        <time>2023-09-28T11:38:37.000Z</time>
      </trkpt>
      <trkpt lat="40.27509" lon="20.47798">
        <ele>618.26000976562</ele>
        <time>2023-09-28T11:38:36.000Z</time>
      </trkpt>
      <trkpt lat="40.27504" lon="20.47801">
        <ele>618.75</ele>
        <time>2023-09-28T11:38:35.000Z</time>
      </trkpt>
      <trkpt lat="40.27497" lon="20.47805">
        <ele>619.22998046875</ele>
        <time>2023-09-28T11:38:34.000Z</time>
      </trkpt>
      <trkpt lat="40.27492" lon="20.47808">
        <ele>619.71002197266</ele>
        <time>2023-09-28T11:38:33.000Z</time>
      </trkpt>
      <trkpt lat="40.27487" lon="20.47812">
        <ele>620.19000244141</ele>
        <time>2023-09-28T11:38:32.000Z</time>
      </trkpt>
      <trkpt lat="40.27486" lon="20.47813">
        <ele>620.19000244141</ele>
        <time>2023-09-28T11:38:31.000Z</time>
      </trkpt>
      <trkpt lat="40.27478" lon="20.47819">
        <ele>621.15002441406</ele>
        <time>2023-09-28T11:38:29.000Z</time>
      </trkpt>
      <trkpt lat="40.27473" lon="20.47818">
        <ele>621.15002441406</ele>
        <time>2023-09-28T11:38:28.000Z</time>
      </trkpt>
      <trkpt lat="40.27466" lon="20.47816">
        <ele>621.63000488281</ele>
        <time>2023-09-28T11:38:27.000Z</time>
      </trkpt>
      <trkpt lat="40.2746" lon="20.47815">
        <ele>621.63000488281</ele>
        <time>2023-09-28T11:38:26.000Z</time>
      </trkpt>
      <trkpt lat="40.27454" lon="20.47815">
        <ele>621.63000488281</ele>
        <time>2023-09-28T11:38:25.000Z</time>
      </trkpt>
      <trkpt lat="40.27448" lon="20.47816">
        <ele>622.10998535156</ele>
        <time>2023-09-28T11:38:24.000Z</time>
      </trkpt>
      <trkpt lat="40.27443" lon="20.47819">
        <ele>622.59002685547</ele>
        <time>2023-09-28T11:38:23.000Z</time>
      </trkpt>
      <trkpt lat="40.27437" lon="20.47822">
        <ele>623.07000732422</ele>
        <time>2023-09-28T11:38:22.000Z</time>
      </trkpt>
      <trkpt lat="40.27433" lon="20.47823">
        <ele>623.54998779297</ele>
        <time>2023-09-28T11:38:21.000Z</time>
      </trkpt>
      <trkpt lat="40.27428" lon="20.47822">
        <ele>623.54998779297</ele>
        <time>2023-09-28T11:38:20.000Z</time>
      </trkpt>
      <trkpt lat="40.27423" lon="20.47818">
        <ele>624.03002929688</ele>
        <time>2023-09-28T11:38:19.000Z</time>
      </trkpt>
      <trkpt lat="40.27421" lon="20.47816">
        <ele>623.54998779297</ele>
        <time>2023-09-28T11:38:18.000Z</time>
      </trkpt>
      <trkpt lat="40.27413" lon="20.47807">
        <ele>623.07000732422</ele>
        <time>2023-09-28T11:38:17.000Z</time>
      </trkpt>
      <trkpt lat="40.27406" lon="20.47801">
        <ele>623.07000732422</ele>
        <time>2023-09-28T11:38:16.000Z</time>
      </trkpt>
      <trkpt lat="40.27398" lon="20.47797">
        <ele>622.10998535156</ele>
        <time>2023-09-28T11:38:15.000Z</time>
      </trkpt>
      <trkpt lat="40.2739" lon="20.47794">
        <ele>621.63000488281</ele>
        <time>2023-09-28T11:38:14.000Z</time>
      </trkpt>
      <trkpt lat="40.27382" lon="20.47791">
        <ele>620.66998291016</ele>
        <time>2023-09-28T11:38:13.000Z</time>
      </trkpt>
      <trkpt lat="40.27375" lon="20.47791">
        <ele>619.71002197266</ele>
        <time>2023-09-28T11:38:12.000Z</time>
      </trkpt>
      <trkpt lat="40.27368" lon="20.4779">
        <ele>619.22998046875</ele>
        <time>2023-09-28T11:38:11.000Z</time>
      </trkpt>
      <trkpt lat="40.2736" lon="20.47787">
        <ele>618.75</ele>
        <time>2023-09-28T11:38:10.000Z</time>
      </trkpt>
      <trkpt lat="40.27354" lon="20.47785">
        <ele>618.26000976562</ele>
        <time>2023-09-28T11:38:09.000Z</time>
      </trkpt>
      <trkpt lat="40.27345" lon="20.47782">
        <ele>617.78002929688</ele>
        <time>2023-09-28T11:38:08.000Z</time>
      </trkpt>
      <trkpt lat="40.27337" lon="20.4778">
        <ele>616.82000732422</ele>
        <time>2023-09-28T11:38:07.000Z</time>
      </trkpt>
      <trkpt lat="40.27331" lon="20.4778">
        <ele>616.34002685547</ele>
        <time>2023-09-28T11:38:06.000Z</time>
      </trkpt>
      <trkpt lat="40.27326" lon="20.47781">
        <ele>615.85998535156</ele>
        <time>2023-09-28T11:38:05.000Z</time>
      </trkpt>
      <trkpt lat="40.27319" lon="20.47783">
        <ele>615.38000488281</ele>
        <time>2023-09-28T11:38:04.000Z</time>
      </trkpt>
      <trkpt lat="40.27314" lon="20.47783">
        <ele>615.38000488281</ele>
        <time>2023-09-28T11:38:03.000Z</time>
      </trkpt>
      <trkpt lat="40.2731" lon="20.47782">
        <ele>615.38000488281</ele>
        <time>2023-09-28T11:38:02.000Z</time>
      </trkpt>
      <trkpt lat="40.27305" lon="20.47779">
        <ele>615.85998535156</ele>
        <time>2023-09-28T11:38:01.000Z</time>
      </trkpt>
      <trkpt lat="40.27301" lon="20.47775">
        <ele>615.85998535156</ele>
        <time>2023-09-28T11:38:00.000Z</time>
      </trkpt>
      <trkpt lat="40.27298" lon="20.4777">
        <ele>616.34002685547</ele>
        <time>2023-09-28T11:37:59.000Z</time>
      </trkpt>
      <trkpt lat="40.27295" lon="20.47763">
        <ele>617.29998779297</ele>
        <time>2023-09-28T11:37:58.000Z</time>
      </trkpt>
      <trkpt lat="40.27291" lon="20.47757">
        <ele>617.29998779297</ele>
        <time>2023-09-28T11:37:57.000Z</time>
      </trkpt>
      <trkpt lat="40.27287" lon="20.47753">
        <ele>616.82000732422</ele>
        <time>2023-09-28T11:37:56.000Z</time>
      </trkpt>
      <trkpt lat="40.27283" lon="20.4775">
        <ele>615.85998535156</ele>
        <time>2023-09-28T11:37:55.000Z</time>
      </trkpt>
      <trkpt lat="40.27279" lon="20.4775">
        <ele>615.38000488281</ele>
        <time>2023-09-28T11:37:54.000Z</time>
      </trkpt>
      <trkpt lat="40.27273" lon="20.4775">
        <ele>613.94000244141</ele>
        <time>2023-09-28T11:37:53.000Z</time>
      </trkpt>
      <trkpt lat="40.27263" lon="20.47749">
        <ele>611.53997802734</ele>
        <time>2023-09-28T11:37:52.000Z</time>
      </trkpt>
      <trkpt lat="40.27259" lon="20.47748">
        <ele>611.05999755859</ele>
        <time>2023-09-28T11:37:51.000Z</time>
      </trkpt>
      <trkpt lat="40.27251" lon="20.47744">
        <ele>609.13000488281</ele>
        <time>2023-09-28T11:37:50.000Z</time>
      </trkpt>
      <trkpt lat="40.27244" lon="20.47741">
        <ele>607.69000244141</ele>
        <time>2023-09-28T11:37:49.000Z</time>
      </trkpt>
      <trkpt lat="40.27241" lon="20.4774">
        <ele>607.21002197266</ele>
        <time>2023-09-28T11:37:48.000Z</time>
      </trkpt>
      <trkpt lat="40.27232" lon="20.47736">
        <ele>605.77001953125</ele>
        <time>2023-09-28T11:37:47.000Z</time>
      </trkpt>
      <trkpt lat="40.27224" lon="20.47735">
        <ele>604.80999755859</ele>
        <time>2023-09-28T11:37:46.000Z</time>
      </trkpt>
      <trkpt lat="40.27218" lon="20.47735">
        <ele>604.33001708984</ele>
        <time>2023-09-28T11:37:45.000Z</time>
      </trkpt>
      <trkpt lat="40.27211" lon="20.47735">
        <ele>604.33001708984</ele>
        <time>2023-09-28T11:37:44.000Z</time>
      </trkpt>
      <trkpt lat="40.27196" lon="20.47737">
        <ele>604.33001708984</ele>
        <time>2023-09-28T11:37:43.000Z</time>
      </trkpt>
      <trkpt lat="40.27184" lon="20.47739">
        <ele>604.33001708984</ele>
        <time>2023-09-28T11:37:42.000Z</time>
      </trkpt>
      <trkpt lat="40.27176" lon="20.4774">
        <ele>603.84997558594</ele>
        <time>2023-09-28T11:37:41.000Z</time>
      </trkpt>
      <trkpt lat="40.27163" lon="20.47742">
        <ele>603.35998535156</ele>
        <time>2023-09-28T11:37:39.000Z</time>
      </trkpt>
      <trkpt lat="40.27149" lon="20.47744">
        <ele>602.88000488281</ele>
        <time>2023-09-28T11:37:37.000Z</time>
      </trkpt>
      <trkpt lat="40.27147" lon="20.47744">
        <ele>602.88000488281</ele>
        <time>2023-09-28T11:37:36.000Z</time>
      </trkpt>
      <trkpt lat="40.27127" lon="20.47748">
        <ele>601.91998291016</ele>
        <time>2023-09-28T11:37:30.000Z</time>
      </trkpt>
      <trkpt lat="40.27126" lon="20.47749">
        <ele>603.84997558594</ele>
        <time>2023-09-28T11:24:22.000Z</time>
      </trkpt>
      <trkpt lat="40.27131" lon="20.47735">
        <ele>605.28997802734</ele>
        <time>2023-09-28T11:24:15.000Z</time>
      </trkpt>
      <trkpt lat="40.27133" lon="20.47728">
        <ele>605.77001953125</ele>
        <time>2023-09-28T11:24:14.000Z</time>
      </trkpt>
      <trkpt lat="40.27135" lon="20.4772">
        <ele>606.25</ele>
        <time>2023-09-28T11:24:13.000Z</time>
      </trkpt>
      <trkpt lat="40.27136" lon="20.47712">
        <ele>606.72998046875</ele>
        <time>2023-09-28T11:24:12.000Z</time>
      </trkpt>
      <trkpt lat="40.27136" lon="20.47702">
        <ele>607.21002197266</ele>
        <time>2023-09-28T11:24:11.000Z</time>
      </trkpt>
      <trkpt lat="40.27135" lon="20.47692">
        <ele>607.21002197266</ele>
        <time>2023-09-28T11:24:10.000Z</time>
      </trkpt>
      <trkpt lat="40.27135" lon="20.47684">
        <ele>607.21002197266</ele>
        <time>2023-09-28T11:24:09.000Z</time>
      </trkpt>
      <trkpt lat="40.27133" lon="20.47675">
        <ele>606.72998046875</ele>
        <time>2023-09-28T11:24:08.000Z</time>
      </trkpt>
      <trkpt lat="40.2713" lon="20.47669">
        <ele>606.25</ele>
        <time>2023-09-28T11:24:07.000Z</time>
      </trkpt>
      <trkpt lat="40.27127" lon="20.47662">
        <ele>606.25</ele>
        <time>2023-09-28T11:24:06.000Z</time>
      </trkpt>
      <trkpt lat="40.27125" lon="20.47659">
        <ele>606.25</ele>
        <time>2023-09-28T11:24:05.000Z</time>
      </trkpt>
      <trkpt lat="40.27119" lon="20.47649">
        <ele>606.25</ele>
        <time>2023-09-28T11:24:04.000Z</time>
      </trkpt>
      <trkpt lat="40.27117" lon="20.47644">
        <ele>606.25</ele>
        <time>2023-09-28T11:24:03.000Z</time>
      </trkpt>
      <trkpt lat="40.27118" lon="20.47639">
        <ele>606.25</ele>
        <time>2023-09-28T11:24:02.000Z</time>
      </trkpt>
      <trkpt lat="40.27119" lon="20.47634">
        <ele>606.25</ele>
        <time>2023-09-28T11:24:01.000Z</time>
      </trkpt>
      <trkpt lat="40.27121" lon="20.47624">
        <ele>606.25</ele>
        <time>2023-09-28T11:24:00.000Z</time>
      </trkpt>
      <trkpt lat="40.27123" lon="20.47615">
        <ele>606.25</ele>
        <time>2023-09-28T11:23:59.000Z</time>
      </trkpt>
      <trkpt lat="40.27124" lon="20.47603">
        <ele>605.77001953125</ele>
        <time>2023-09-28T11:23:58.000Z</time>
      </trkpt>
      <trkpt lat="40.27124" lon="20.47593">
        <ele>605.77001953125</ele>
        <time>2023-09-28T11:23:57.000Z</time>
      </trkpt>
      <trkpt lat="40.27123" lon="20.47581">
        <ele>605.28997802734</ele>
        <time>2023-09-28T11:23:56.000Z</time>
      </trkpt>
      <trkpt lat="40.27121" lon="20.47569">
        <ele>605.28997802734</ele>
        <time>2023-09-28T11:23:55.000Z</time>
      </trkpt>
      <trkpt lat="40.27119" lon="20.47558">
        <ele>604.80999755859</ele>
        <time>2023-09-28T11:23:54.000Z</time>
      </trkpt>
      <trkpt lat="40.27119" lon="20.47548">
        <ele>604.33001708984</ele>
        <time>2023-09-28T11:23:53.000Z</time>
      </trkpt>
      <trkpt lat="40.27119" lon="20.47546">
        <ele>604.33001708984</ele>
        <time>2023-09-28T11:23:52.000Z</time>
      </trkpt>
      <trkpt lat="40.2712" lon="20.47527">
        <ele>603.35998535156</ele>
        <time>2023-09-28T11:23:51.000Z</time>
      </trkpt>
      <trkpt lat="40.2712" lon="20.47518">
        <ele>602.88000488281</ele>
        <time>2023-09-28T11:23:50.000Z</time>
      </trkpt>
      <trkpt lat="40.27117" lon="20.4751">
        <ele>602.40002441406</ele>
        <time>2023-09-28T11:23:49.000Z</time>
      </trkpt>
      <trkpt lat="40.27114" lon="20.47502">
        <ele>601.91998291016</ele>
        <time>2023-09-28T11:23:48.000Z</time>
      </trkpt>
      <trkpt lat="40.2711" lon="20.47495">
        <ele>601.44000244141</ele>
        <time>2023-09-28T11:23:47.000Z</time>
      </trkpt>
      <trkpt lat="40.27107" lon="20.47489">
        <ele>601.44000244141</ele>
        <time>2023-09-28T11:23:46.000Z</time>
      </trkpt>
      <trkpt lat="40.27105" lon="20.47483">
        <ele>600.96002197266</ele>
        <time>2023-09-28T11:23:45.000Z</time>
      </trkpt>
      <trkpt lat="40.27105" lon="20.47475">
        <ele>600</ele>
        <time>2023-09-28T11:23:44.000Z</time>
      </trkpt>
      <trkpt lat="40.27106" lon="20.4747">
        <ele>600</ele>
        <time>2023-09-28T11:23:43.000Z</time>
      </trkpt>
      <trkpt lat="40.27108" lon="20.47461">
        <ele>599.52001953125</ele>
        <time>2023-09-28T11:23:42.000Z</time>
      </trkpt>
      <trkpt lat="40.27109" lon="20.47454">
        <ele>599.52001953125</ele>
        <time>2023-09-28T11:23:41.000Z</time>
      </trkpt>
      <trkpt lat="40.27113" lon="20.47437">
        <ele>598.08001708984</ele>
        <time>2023-09-28T11:23:40.000Z</time>
      </trkpt>
      <trkpt lat="40.27114" lon="20.47428">
        <ele>597.11999511719</ele>
        <time>2023-09-28T11:23:39.000Z</time>
      </trkpt>
      <trkpt lat="40.27113" lon="20.47421">
        <ele>597.11999511719</ele>
        <time>2023-09-28T11:23:38.000Z</time>
      </trkpt>
      <trkpt lat="40.27111" lon="20.47411">
        <ele>596.64001464844</ele>
        <time>2023-09-28T11:23:37.000Z</time>
      </trkpt>
      <trkpt lat="40.2711" lon="20.47403">
        <ele>596.15002441406</ele>
        <time>2023-09-28T11:23:36.000Z</time>
      </trkpt>
      <trkpt lat="40.27107" lon="20.47397">
        <ele>595.19000244141</ele>
        <time>2023-09-28T11:23:35.000Z</time>
      </trkpt>
      <trkpt lat="40.27101" lon="20.4739">
        <ele>594.71002197266</ele>
        <time>2023-09-28T11:23:34.000Z</time>
      </trkpt>
      <trkpt lat="40.27098" lon="20.47386">
        <ele>594.22998046875</ele>
        <time>2023-09-28T11:23:33.000Z</time>
      </trkpt>
      <trkpt lat="40.2709" lon="20.47379">
        <ele>593.75</ele>
        <time>2023-09-28T11:23:32.000Z</time>
      </trkpt>
      <trkpt lat="40.27083" lon="20.47372">
        <ele>594.22998046875</ele>
        <time>2023-09-28T11:23:31.000Z</time>
      </trkpt>
      <trkpt lat="40.27079" lon="20.47367">
        <ele>594.22998046875</ele>
        <time>2023-09-28T11:23:30.000Z</time>
      </trkpt>
      <trkpt lat="40.27078" lon="20.47366">
        <ele>594.22998046875</ele>
        <time>2023-09-28T11:23:29.000Z</time>
      </trkpt>
      <trkpt lat="40.27075" lon="20.47357">
        <ele>594.71002197266</ele>
        <time>2023-09-28T11:23:28.000Z</time>
      </trkpt>
      <trkpt lat="40.27075" lon="20.47351">
        <ele>595.19000244141</ele>
        <time>2023-09-28T11:23:27.000Z</time>
      </trkpt>
      <trkpt lat="40.27078" lon="20.47347">
        <ele>595.19000244141</ele>
        <time>2023-09-28T11:23:26.000Z</time>
      </trkpt>
      <trkpt lat="40.27084" lon="20.47342">
        <ele>594.71002197266</ele>
        <time>2023-09-28T11:23:25.000Z</time>
      </trkpt>
      <trkpt lat="40.27091" lon="20.47339">
        <ele>593.75</ele>
        <time>2023-09-28T11:23:24.000Z</time>
      </trkpt>
      <trkpt lat="40.27097" lon="20.47335">
        <ele>593.27001953125</ele>
        <time>2023-09-28T11:23:23.000Z</time>
      </trkpt>
      <trkpt lat="40.27103" lon="20.47329">
        <ele>592.30999755859</ele>
        <time>2023-09-28T11:23:22.000Z</time>
      </trkpt>
      <trkpt lat="40.27108" lon="20.47321">
        <ele>591.34997558594</ele>
        <time>2023-09-28T11:23:21.000Z</time>
      </trkpt>
      <trkpt lat="40.2711" lon="20.47313">
        <ele>590.86999511719</ele>
        <time>2023-09-28T11:23:20.000Z</time>
      </trkpt>
      <trkpt lat="40.2711" lon="20.47306">
        <ele>590.86999511719</ele>
        <time>2023-09-28T11:23:19.000Z</time>
      </trkpt>
      <trkpt lat="40.27111" lon="20.47299">
        <ele>590.86999511719</ele>
        <time>2023-09-28T11:23:18.000Z</time>
      </trkpt>
      <trkpt lat="40.27113" lon="20.47293">
        <ele>590.86999511719</ele>
        <time>2023-09-28T11:23:17.000Z</time>
      </trkpt>
      <trkpt lat="40.27116" lon="20.4729">
        <ele>590.39001464844</ele>
        <time>2023-09-28T11:23:16.000Z</time>
      </trkpt>
      <trkpt lat="40.27122" lon="20.47284">
        <ele>589.42999267578</ele>
        <time>2023-09-28T11:23:15.000Z</time>
      </trkpt>
      <trkpt lat="40.27124" lon="20.47279">
        <ele>588.46002197266</ele>
        <time>2023-09-28T11:23:14.000Z</time>
      </trkpt>
      <trkpt lat="40.27123" lon="20.47273">
        <ele>588.46002197266</ele>
        <time>2023-09-28T11:23:13.000Z</time>
      </trkpt>
      <trkpt lat="40.2712" lon="20.47268">
        <ele>588.46002197266</ele>
        <time>2023-09-28T11:23:12.000Z</time>
      </trkpt>
      <trkpt lat="40.27117" lon="20.47262">
        <ele>588.46002197266</ele>
        <time>2023-09-28T11:23:11.000Z</time>
      </trkpt>
      <trkpt lat="40.27113" lon="20.47257">
        <ele>587.97998046875</ele>
        <time>2023-09-28T11:23:10.000Z</time>
      </trkpt>
      <trkpt lat="40.27108" lon="20.47253">
        <ele>587.97998046875</ele>
        <time>2023-09-28T11:23:09.000Z</time>
      </trkpt>
      <trkpt lat="40.27105" lon="20.47251">
        <ele>587.5</ele>
        <time>2023-09-28T11:23:08.000Z</time>
      </trkpt>
      <trkpt lat="40.27103" lon="20.47235">
        <ele>585.09997558594</ele>
        <time>2023-09-28T11:23:03.000Z</time>
      </trkpt>
      <trkpt lat="40.27107" lon="20.47231">
        <ele>584.14001464844</ele>
        <time>2023-09-28T11:23:02.000Z</time>
      </trkpt>
      <trkpt lat="40.27111" lon="20.47229">
        <ele>583.65997314453</ele>
        <time>2023-09-28T11:23:01.000Z</time>
      </trkpt>
      <trkpt lat="40.2712" lon="20.47223">
        <ele>583.17999267578</ele>
        <time>2023-09-28T11:23:00.000Z</time>
      </trkpt>
      <trkpt lat="40.27124" lon="20.47218">
        <ele>582.21997070312</ele>
        <time>2023-09-28T11:22:59.000Z</time>
      </trkpt>
      <trkpt lat="40.27127" lon="20.47213">
        <ele>581.72998046875</ele>
        <time>2023-09-28T11:22:58.000Z</time>
      </trkpt>
      <trkpt lat="40.27127" lon="20.47207">
        <ele>580.77001953125</ele>
        <time>2023-09-28T11:22:57.000Z</time>
      </trkpt>
      <trkpt lat="40.27126" lon="20.47202">
        <ele>580.28997802734</ele>
        <time>2023-09-28T11:22:56.000Z</time>
      </trkpt>
      <trkpt lat="40.27123" lon="20.47193">
        <ele>579.80999755859</ele>
        <time>2023-09-28T11:22:55.000Z</time>
      </trkpt>
      <trkpt lat="40.27119" lon="20.47186">
        <ele>579.33001708984</ele>
        <time>2023-09-28T11:22:54.000Z</time>
      </trkpt>
      <trkpt lat="40.27114" lon="20.47181">
        <ele>578.84997558594</ele>
        <time>2023-09-28T11:22:53.000Z</time>
      </trkpt>
      <trkpt lat="40.27107" lon="20.47177">
        <ele>578.36999511719</ele>
        <time>2023-09-28T11:22:52.000Z</time>
      </trkpt>
      <trkpt lat="40.27099" lon="20.47174">
        <ele>577.89001464844</ele>
        <time>2023-09-28T11:22:51.000Z</time>
      </trkpt>
      <trkpt lat="40.27096" lon="20.47172">
        <ele>577.40997314453</ele>
        <time>2023-09-28T11:22:50.000Z</time>
      </trkpt>
      <trkpt lat="40.27087" lon="20.47169">
        <ele>576.92999267578</ele>
        <time>2023-09-28T11:22:49.000Z</time>
      </trkpt>
      <trkpt lat="40.27075" lon="20.47166">
        <ele>575.96997070312</ele>
        <time>2023-09-28T11:22:48.000Z</time>
      </trkpt>
      <trkpt lat="40.2707" lon="20.47164">
        <ele>575.96997070312</ele>
        <time>2023-09-28T11:22:47.000Z</time>
      </trkpt>
      <trkpt lat="40.27066" lon="20.4716">
        <ele>575.48999023438</ele>
        <time>2023-09-28T11:22:46.000Z</time>
      </trkpt>
      <trkpt lat="40.27063" lon="20.47155">
        <ele>575.01000976562</ele>
        <time>2023-09-28T11:22:45.000Z</time>
      </trkpt>
      <trkpt lat="40.27063" lon="20.47149">
        <ele>574.53002929688</ele>
        <time>2023-09-28T11:22:44.000Z</time>
      </trkpt>
      <trkpt lat="40.27064" lon="20.47141">
        <ele>574.53002929688</ele>
        <time>2023-09-28T11:22:43.000Z</time>
      </trkpt>
      <trkpt lat="40.27067" lon="20.47133">
        <ele>574.03997802734</ele>
        <time>2023-09-28T11:22:42.000Z</time>
      </trkpt>
      <trkpt lat="40.27071" lon="20.47128">
        <ele>573.08001708984</ele>
        <time>2023-09-28T11:22:41.000Z</time>
      </trkpt>
      <trkpt lat="40.27075" lon="20.47124">
        <ele>572.11999511719</ele>
        <time>2023-09-28T11:22:40.000Z</time>
      </trkpt>
      <trkpt lat="40.27083" lon="20.47119">
        <ele>571.64001464844</ele>
        <time>2023-09-28T11:22:39.000Z</time>
      </trkpt>
      <trkpt lat="40.2709" lon="20.47114">
        <ele>571.15997314453</ele>
        <time>2023-09-28T11:22:38.000Z</time>
      </trkpt>
      <trkpt lat="40.27096" lon="20.47109">
        <ele>569.71997070312</ele>
        <time>2023-09-28T11:22:37.000Z</time>
      </trkpt>
      <trkpt lat="40.27101" lon="20.47102">
        <ele>567.79998779297</ele>
        <time>2023-09-28T11:22:36.000Z</time>
      </trkpt>
      <trkpt lat="40.27104" lon="20.47095">
        <ele>567.32000732422</ele>
        <time>2023-09-28T11:22:35.000Z</time>
      </trkpt>
      <trkpt lat="40.27104" lon="20.4709">
        <ele>566.34997558594</ele>
        <time>2023-09-28T11:22:34.000Z</time>
      </trkpt>
      <trkpt lat="40.27104" lon="20.47076">
        <ele>563.95001220703</ele>
        <time>2023-09-28T11:22:33.000Z</time>
      </trkpt>
      <trkpt lat="40.27105" lon="20.47065">
        <ele>562.98999023438</ele>
        <time>2023-09-28T11:22:32.000Z</time>
      </trkpt>
      <trkpt lat="40.27105" lon="20.47058">
        <ele>562.51000976562</ele>
        <time>2023-09-28T11:22:31.000Z</time>
      </trkpt>
      <trkpt lat="40.27105" lon="20.47049">
        <ele>561.54998779297</ele>
        <time>2023-09-28T11:22:30.000Z</time>
      </trkpt>
      <trkpt lat="40.27104" lon="20.47042">
        <ele>561.07000732422</ele>
        <time>2023-09-28T11:22:29.000Z</time>
      </trkpt>
      <trkpt lat="40.27103" lon="20.47039">
        <ele>560.59002685547</ele>
        <time>2023-09-28T11:22:28.000Z</time>
      </trkpt>
      <trkpt lat="40.27099" lon="20.47034">
        <ele>560.59002685547</ele>
        <time>2023-09-28T11:22:27.000Z</time>
      </trkpt>
      <trkpt lat="40.27093" lon="20.47032">
        <ele>560.59002685547</ele>
        <time>2023-09-28T11:22:26.000Z</time>
      </trkpt>
      <trkpt lat="40.27086" lon="20.47029">
        <ele>560.59002685547</ele>
        <time>2023-09-28T11:22:25.000Z</time>
      </trkpt>
      <trkpt lat="40.27083" lon="20.47027">
        <ele>560.59002685547</ele>
        <time>2023-09-28T11:22:24.000Z</time>
      </trkpt>
      <trkpt lat="40.27076" lon="20.47023">
        <ele>560.59002685547</ele>
        <time>2023-09-28T11:22:23.000Z</time>
      </trkpt>
      <trkpt lat="40.27075" lon="20.47023">
        <ele>560.59002685547</ele>
        <time>2023-09-28T11:22:22.000Z</time>
      </trkpt>
      <trkpt lat="40.27067" lon="20.47028">
        <ele>561.07000732422</ele>
        <time>2023-09-28T11:22:20.000Z</time>
      </trkpt>
      <trkpt lat="40.27065" lon="20.47034">
        <ele>561.07000732422</ele>
        <time>2023-09-28T11:22:19.000Z</time>
      </trkpt>
      <trkpt lat="40.27063" lon="20.47041">
        <ele>561.54998779297</ele>
        <time>2023-09-28T11:22:18.000Z</time>
      </trkpt>
      <trkpt lat="40.27058" lon="20.47048">
        <ele>562.03002929688</ele>
        <time>2023-09-28T11:22:17.000Z</time>
      </trkpt>
      <trkpt lat="40.27053" lon="20.47052">
        <ele>562.03002929688</ele>
        <time>2023-09-28T11:22:16.000Z</time>
      </trkpt>
      <trkpt lat="40.27045" lon="20.47056">
        <ele>561.54998779297</ele>
        <time>2023-09-28T11:22:15.000Z</time>
      </trkpt>
      <trkpt lat="40.2704" lon="20.47058">
        <ele>561.54998779297</ele>
        <time>2023-09-28T11:22:14.000Z</time>
      </trkpt>
      <trkpt lat="40.27029" lon="20.47063">
        <ele>561.07000732422</ele>
        <time>2023-09-28T11:22:13.000Z</time>
      </trkpt>
      <trkpt lat="40.27023" lon="20.47065">
        <ele>561.07000732422</ele>
        <time>2023-09-28T11:22:12.000Z</time>
      </trkpt>
      <trkpt lat="40.27002" lon="20.47077">
        <ele>560.59002685547</ele>
        <time>2023-09-28T11:22:10.000Z</time>
      </trkpt>
      <trkpt lat="40.26998" lon="20.47079">
        <ele>560.59002685547</ele>
        <time>2023-09-28T11:22:09.000Z</time>
      </trkpt>
      <trkpt lat="40.26982" lon="20.47087">
        <ele>560.10998535156</ele>
        <time>2023-09-28T11:22:08.000Z</time>
      </trkpt>
      <trkpt lat="40.26976" lon="20.47091">
        <ele>560.10998535156</ele>
        <time>2023-09-28T11:22:07.000Z</time>
      </trkpt>
      <trkpt lat="40.26967" lon="20.47099">
        <ele>560.10998535156</ele>
        <time>2023-09-28T11:22:06.000Z</time>
      </trkpt>
      <trkpt lat="40.2696" lon="20.47105">
        <ele>560.10998535156</ele>
        <time>2023-09-28T11:22:05.000Z</time>
      </trkpt>
      <trkpt lat="40.26958" lon="20.47107">
        <ele>560.10998535156</ele>
        <time>2023-09-28T11:22:04.000Z</time>
      </trkpt>
      <trkpt lat="40.26945" lon="20.4712">
        <ele>559.61999511719</ele>
        <time>2023-09-28T11:22:03.000Z</time>
      </trkpt>
      <trkpt lat="40.26939" lon="20.47125">
        <ele>559.61999511719</ele>
        <time>2023-09-28T11:22:02.000Z</time>
      </trkpt>
      <trkpt lat="40.2693" lon="20.47132">
        <ele>559.14001464844</ele>
        <time>2023-09-28T11:22:01.000Z</time>
      </trkpt>
      <trkpt lat="40.26921" lon="20.47141">
        <ele>559.14001464844</ele>
        <time>2023-09-28T11:22:00.000Z</time>
      </trkpt>
      <trkpt lat="40.26913" lon="20.47149">
        <ele>558.65997314453</ele>
        <time>2023-09-28T11:21:59.000Z</time>
      </trkpt>
      <trkpt lat="40.26906" lon="20.47155">
        <ele>558.65997314453</ele>
        <time>2023-09-28T11:21:58.000Z</time>
      </trkpt>
      <trkpt lat="40.2689" lon="20.47173">
        <ele>558.17999267578</ele>
        <time>2023-09-28T11:21:56.000Z</time>
      </trkpt>
      <trkpt lat="40.26884" lon="20.47178">
        <ele>557.21997070312</ele>
        <time>2023-09-28T11:21:55.000Z</time>
      </trkpt>
      <trkpt lat="40.26879" lon="20.47181">
        <ele>556.73999023438</ele>
        <time>2023-09-28T11:21:54.000Z</time>
      </trkpt>
      <trkpt lat="40.26867" lon="20.47189">
        <ele>556.73999023438</ele>
        <time>2023-09-28T11:21:53.000Z</time>
      </trkpt>
      <trkpt lat="40.26865" lon="20.4719">
        <ele>556.73999023438</ele>
        <time>2023-09-28T11:21:52.000Z</time>
      </trkpt>
      <trkpt lat="40.26856" lon="20.47194">
        <ele>555.78002929688</ele>
        <time>2023-09-28T11:21:51.000Z</time>
      </trkpt>
      <trkpt lat="40.26852" lon="20.47194">
        <ele>555.78002929688</ele>
        <time>2023-09-28T11:21:50.000Z</time>
      </trkpt>
      <trkpt lat="40.26849" lon="20.47192">
        <ele>555.29998779297</ele>
        <time>2023-09-28T11:21:49.000Z</time>
      </trkpt>
      <trkpt lat="40.26845" lon="20.47185">
        <ele>554.82000732422</ele>
        <time>2023-09-28T11:21:48.000Z</time>
      </trkpt>
      <trkpt lat="40.26843" lon="20.47178">
        <ele>554.34002685547</ele>
        <time>2023-09-28T11:21:47.000Z</time>
      </trkpt>
      <trkpt lat="40.26839" lon="20.47167">
        <ele>554.34002685547</ele>
        <time>2023-09-28T11:21:46.000Z</time>
      </trkpt>
      <trkpt lat="40.26835" lon="20.47159">
        <ele>553.85998535156</ele>
        <time>2023-09-28T11:21:45.000Z</time>
      </trkpt>
      <trkpt lat="40.2683" lon="20.47153">
        <ele>553.38000488281</ele>
        <time>2023-09-28T11:21:44.000Z</time>
      </trkpt>
      <trkpt lat="40.26823" lon="20.47149">
        <ele>552.90002441406</ele>
        <time>2023-09-28T11:21:43.000Z</time>
      </trkpt>
      <trkpt lat="40.26818" lon="20.47147">
        <ele>552.90002441406</ele>
        <time>2023-09-28T11:21:42.000Z</time>
      </trkpt>
      <trkpt lat="40.26808" lon="20.47144">
        <ele>551.92999267578</ele>
        <time>2023-09-28T11:21:41.000Z</time>
      </trkpt>
      <trkpt lat="40.26801" lon="20.47143">
        <ele>551.45001220703</ele>
        <time>2023-09-28T11:21:40.000Z</time>
      </trkpt>
      <trkpt lat="40.26795" lon="20.47144">
        <ele>550.96997070312</ele>
        <time>2023-09-28T11:21:39.000Z</time>
      </trkpt>
      <trkpt lat="40.26789" lon="20.47147">
        <ele>550.48999023438</ele>
        <time>2023-09-28T11:21:38.000Z</time>
      </trkpt>
      <trkpt lat="40.26784" lon="20.47152">
        <ele>550.48999023438</ele>
        <time>2023-09-28T11:21:37.000Z</time>
      </trkpt>
      <trkpt lat="40.26775" lon="20.47158">
        <ele>549.53002929688</ele>
        <time>2023-09-28T11:21:36.000Z</time>
      </trkpt>
      <trkpt lat="40.26771" lon="20.47162">
        <ele>549.04998779297</ele>
        <time>2023-09-28T11:21:35.000Z</time>
      </trkpt>
      <trkpt lat="40.26765" lon="20.47167">
        <ele>548.57000732422</ele>
        <time>2023-09-28T11:21:34.000Z</time>
      </trkpt>
      <trkpt lat="40.26761" lon="20.4717">
        <ele>548.09002685547</ele>
        <time>2023-09-28T11:21:33.000Z</time>
      </trkpt>
      <trkpt lat="40.26756" lon="20.47171">
        <ele>547.60998535156</ele>
        <time>2023-09-28T11:21:32.000Z</time>
      </trkpt>
      <trkpt lat="40.26751" lon="20.4717">
        <ele>547.13000488281</ele>
        <time>2023-09-28T11:21:31.000Z</time>
      </trkpt>
      <trkpt lat="40.26746" lon="20.47169">
        <ele>546.65002441406</ele>
        <time>2023-09-28T11:21:30.000Z</time>
      </trkpt>
      <trkpt lat="40.2674" lon="20.4717">
        <ele>546.16998291016</ele>
        <time>2023-09-28T11:21:29.000Z</time>
      </trkpt>
      <trkpt lat="40.26736" lon="20.47171">
        <ele>546.16998291016</ele>
        <time>2023-09-28T11:21:28.000Z</time>
      </trkpt>
      <trkpt lat="40.26731" lon="20.47172">
        <ele>545.69000244141</ele>
        <time>2023-09-28T11:21:27.000Z</time>
      </trkpt>
      <trkpt lat="40.26721" lon="20.47178">
        <ele>544.71997070312</ele>
        <time>2023-09-28T11:21:26.000Z</time>
      </trkpt>
      <trkpt lat="40.26715" lon="20.47182">
        <ele>544.71997070312</ele>
        <time>2023-09-28T11:21:25.000Z</time>
      </trkpt>
      <trkpt lat="40.26711" lon="20.47187">
        <ele>544.71997070312</ele>
        <time>2023-09-28T11:21:24.000Z</time>
      </trkpt>
      <trkpt lat="40.26706" lon="20.47193">
        <ele>544.71997070312</ele>
        <time>2023-09-28T11:21:23.000Z</time>
      </trkpt>
      <trkpt lat="40.26701" lon="20.47198">
        <ele>544.71997070312</ele>
        <time>2023-09-28T11:21:22.000Z</time>
      </trkpt>
      <trkpt lat="40.26696" lon="20.47203">
        <ele>544.71997070312</ele>
        <time>2023-09-28T11:21:21.000Z</time>
      </trkpt>
      <trkpt lat="40.26693" lon="20.47205">
        <ele>545.20001220703</ele>
        <time>2023-09-28T11:21:20.000Z</time>
      </trkpt>
      <trkpt lat="40.26688" lon="20.47207">
        <ele>545.20001220703</ele>
        <time>2023-09-28T11:21:19.000Z</time>
      </trkpt>
      <trkpt lat="40.26683" lon="20.47211">
        <ele>545.69000244141</ele>
        <time>2023-09-28T11:21:18.000Z</time>
      </trkpt>
      <trkpt lat="40.26679" lon="20.47212">
        <ele>546.16998291016</ele>
        <time>2023-09-28T11:21:17.000Z</time>
      </trkpt>
      <trkpt lat="40.26674" lon="20.47213">
        <ele>546.16998291016</ele>
        <time>2023-09-28T11:21:16.000Z</time>
      </trkpt>
      <trkpt lat="40.26669" lon="20.47213">
        <ele>546.65002441406</ele>
        <time>2023-09-28T11:21:15.000Z</time>
      </trkpt>
      <trkpt lat="40.26663" lon="20.47212">
        <ele>546.65002441406</ele>
        <time>2023-09-28T11:21:14.000Z</time>
      </trkpt>
      <trkpt lat="40.26658" lon="20.47211">
        <ele>546.65002441406</ele>
        <time>2023-09-28T11:21:13.000Z</time>
      </trkpt>
      <trkpt lat="40.26654" lon="20.47208">
        <ele>546.65002441406</ele>
        <time>2023-09-28T11:21:12.000Z</time>
      </trkpt>
      <trkpt lat="40.26651" lon="20.47205">
        <ele>546.65002441406</ele>
        <time>2023-09-28T11:21:11.000Z</time>
      </trkpt>
      <trkpt lat="40.26648" lon="20.47201">
        <ele>546.65002441406</ele>
        <time>2023-09-28T11:21:10.000Z</time>
      </trkpt>
      <trkpt lat="40.26645" lon="20.47197">
        <ele>546.65002441406</ele>
        <time>2023-09-28T11:21:09.000Z</time>
      </trkpt>
      <trkpt lat="40.26642" lon="20.47192">
        <ele>546.65002441406</ele>
        <time>2023-09-28T11:21:08.000Z</time>
      </trkpt>
      <trkpt lat="40.26639" lon="20.47187">
        <ele>546.65002441406</ele>
        <time>2023-09-28T11:21:07.000Z</time>
      </trkpt>
      <trkpt lat="40.26636" lon="20.47184">
        <ele>546.65002441406</ele>
        <time>2023-09-28T11:21:06.000Z</time>
      </trkpt>
      <trkpt lat="40.26631" lon="20.47178">
        <ele>546.16998291016</ele>
        <time>2023-09-28T11:21:05.000Z</time>
      </trkpt>
      <trkpt lat="40.26627" lon="20.47175">
        <ele>545.69000244141</ele>
        <time>2023-09-28T11:21:04.000Z</time>
      </trkpt>
      <trkpt lat="40.26622" lon="20.47171">
        <ele>545.69000244141</ele>
        <time>2023-09-28T11:21:03.000Z</time>
      </trkpt>
      <trkpt lat="40.26617" lon="20.47169">
        <ele>545.20001220703</ele>
        <time>2023-09-28T11:21:02.000Z</time>
      </trkpt>
      <trkpt lat="40.26612" lon="20.47165">
        <ele>545.20001220703</ele>
        <time>2023-09-28T11:21:01.000Z</time>
      </trkpt>
      <trkpt lat="40.26607" lon="20.47162">
        <ele>545.20001220703</ele>
        <time>2023-09-28T11:21:00.000Z</time>
      </trkpt>
      <trkpt lat="40.26604" lon="20.47159">
        <ele>544.71997070312</ele>
        <time>2023-09-28T11:20:59.000Z</time>
      </trkpt>
      <trkpt lat="40.266" lon="20.47149">
        <ele>543.76000976562</ele>
        <time>2023-09-28T11:20:57.000Z</time>
      </trkpt>
      <trkpt lat="40.26601" lon="20.47144">
        <ele>543.76000976562</ele>
        <time>2023-09-28T11:20:56.000Z</time>
      </trkpt>
      <trkpt lat="40.26603" lon="20.47137">
        <ele>542.79998779297</ele>
        <time>2023-09-28T11:20:55.000Z</time>
      </trkpt>
      <trkpt lat="40.26606" lon="20.47131">
        <ele>542.32000732422</ele>
        <time>2023-09-28T11:20:54.000Z</time>
      </trkpt>
      <trkpt lat="40.26608" lon="20.47123">
        <ele>542.32000732422</ele>
        <time>2023-09-28T11:20:53.000Z</time>
      </trkpt>
      <trkpt lat="40.26609" lon="20.47115">
        <ele>541.84002685547</ele>
        <time>2023-09-28T11:20:52.000Z</time>
      </trkpt>
      <trkpt lat="40.26611" lon="20.47109">
        <ele>541.35998535156</ele>
        <time>2023-09-28T11:20:51.000Z</time>
      </trkpt>
      <trkpt lat="40.26611" lon="20.47106">
        <ele>541.35998535156</ele>
        <time>2023-09-28T11:20:50.000Z</time>
      </trkpt>
      <trkpt lat="40.26613" lon="20.47095">
        <ele>540.88000488281</ele>
        <time>2023-09-28T11:16:57.000Z</time>
      </trkpt>
      <trkpt lat="40.26616" lon="20.47088">
        <ele>540.88000488281</ele>
        <time>2023-09-28T11:16:50.000Z</time>
      </trkpt>
      <trkpt lat="40.2662" lon="20.47082">
        <ele>540.40002441406</ele>
        <time>2023-09-28T11:16:49.000Z</time>
      </trkpt>
      <trkpt lat="40.26623" lon="20.47076">
        <ele>539.91998291016</ele>
        <time>2023-09-28T11:16:48.000Z</time>
      </trkpt>
      <trkpt lat="40.26627" lon="20.47069">
        <ele>538.96002197266</ele>
        <time>2023-09-28T11:16:47.000Z</time>
      </trkpt>
      <trkpt lat="40.26632" lon="20.47062">
        <ele>537.98999023438</ele>
        <time>2023-09-28T11:16:46.000Z</time>
      </trkpt>
      <trkpt lat="40.26635" lon="20.47056">
        <ele>537.03002929688</ele>
        <time>2023-09-28T11:16:45.000Z</time>
      </trkpt>
      <trkpt lat="40.26637" lon="20.47052">
        <ele>536.54998779297</ele>
        <time>2023-09-28T11:16:44.000Z</time>
      </trkpt>
      <trkpt lat="40.26642" lon="20.47043">
        <ele>535.59002685547</ele>
        <time>2023-09-28T11:16:43.000Z</time>
      </trkpt>
      <trkpt lat="40.26647" lon="20.47037">
        <ele>534.63000488281</ele>
        <time>2023-09-28T11:16:42.000Z</time>
      </trkpt>
      <trkpt lat="40.26649" lon="20.47034">
        <ele>534.15002441406</ele>
        <time>2023-09-28T11:16:41.000Z</time>
      </trkpt>
      <trkpt lat="40.26654" lon="20.47026">
        <ele>532.22998046875</ele>
        <time>2023-09-28T11:16:40.000Z</time>
      </trkpt>
      <trkpt lat="40.26656" lon="20.47021">
        <ele>531.27001953125</ele>
        <time>2023-09-28T11:16:39.000Z</time>
      </trkpt>
      <trkpt lat="40.26658" lon="20.47018">
        <ele>530.78997802734</ele>
        <time>2023-09-28T11:16:38.000Z</time>
      </trkpt>
      <trkpt lat="40.26662" lon="20.47006">
        <ele>529.34002685547</ele>
        <time>2023-09-28T11:16:37.000Z</time>
      </trkpt>
      <trkpt lat="40.26664" lon="20.47">
        <ele>528.38000488281</ele>
        <time>2023-09-28T11:16:36.000Z</time>
      </trkpt>
      <trkpt lat="40.26665" lon="20.46999">
        <ele>528.38000488281</ele>
        <time>2023-09-28T11:16:35.000Z</time>
      </trkpt>
      <trkpt lat="40.26669" lon="20.46976">
        <ele>523.58001708984</ele>
        <time>2023-09-28T11:16:30.000Z</time>
      </trkpt>
      <trkpt lat="40.26669" lon="20.46974">
        <ele>523.09002685547</ele>
        <time>2023-09-28T11:16:29.000Z</time>
      </trkpt>
      <trkpt lat="40.26667" lon="20.46967">
        <ele>522.13000488281</ele>
        <time>2023-09-28T11:16:28.000Z</time>
      </trkpt>
      <trkpt lat="40.26663" lon="20.46963">
        <ele>521.16998291016</ele>
        <time>2023-09-28T11:16:27.000Z</time>
      </trkpt>
      <trkpt lat="40.26656" lon="20.46961">
        <ele>520.69000244141</ele>
        <time>2023-09-28T11:16:26.000Z</time>
      </trkpt>
      <trkpt lat="40.2665" lon="20.4696">
        <ele>519.72998046875</ele>
        <time>2023-09-28T11:16:25.000Z</time>
      </trkpt>
      <trkpt lat="40.26643" lon="20.46958">
        <ele>519.25</ele>
        <time>2023-09-28T11:16:24.000Z</time>
      </trkpt>
      <trkpt lat="40.26636" lon="20.46955">
        <ele>518.28997802734</ele>
        <time>2023-09-28T11:16:23.000Z</time>
      </trkpt>
      <trkpt lat="40.26631" lon="20.46951">
        <ele>517.80999755859</ele>
        <time>2023-09-28T11:16:22.000Z</time>
      </trkpt>
      <trkpt lat="40.26623" lon="20.46945">
        <ele>515.88000488281</ele>
        <time>2023-09-28T11:16:21.000Z</time>
      </trkpt>
      <trkpt lat="40.26616" lon="20.46941">
        <ele>514.91998291016</ele>
        <time>2023-09-28T11:16:20.000Z</time>
      </trkpt>
      <trkpt lat="40.2661" lon="20.46938">
        <ele>514.44000244141</ele>
        <time>2023-09-28T11:16:19.000Z</time>
      </trkpt>
      <trkpt lat="40.26603" lon="20.46938">
        <ele>513.47998046875</ele>
        <time>2023-09-28T11:16:18.000Z</time>
      </trkpt>
      <trkpt lat="40.26596" lon="20.46941">
        <ele>512.52001953125</ele>
        <time>2023-09-28T11:16:17.000Z</time>
      </trkpt>
      <trkpt lat="40.2659" lon="20.46944">
        <ele>512.03997802734</ele>
        <time>2023-09-28T11:16:16.000Z</time>
      </trkpt>
      <trkpt lat="40.26584" lon="20.46947">
        <ele>511.07998657227</ele>
        <time>2023-09-28T11:16:15.000Z</time>
      </trkpt>
      <trkpt lat="40.2658" lon="20.46948">
        <ele>510.11999511719</ele>
        <time>2023-09-28T11:16:14.000Z</time>
      </trkpt>
      <trkpt lat="40.26573" lon="20.46947">
        <ele>508.67001342773</ele>
        <time>2023-09-28T11:16:13.000Z</time>
      </trkpt>
      <trkpt lat="40.26567" lon="20.46946">
        <ele>507.70999145508</ele>
        <time>2023-09-28T11:16:12.000Z</time>
      </trkpt>
      <trkpt lat="40.26561" lon="20.46947">
        <ele>506.75</ele>
        <time>2023-09-28T11:16:11.000Z</time>
      </trkpt>
      <trkpt lat="40.26554" lon="20.46949">
        <ele>505.79000854492</ele>
        <time>2023-09-28T11:16:10.000Z</time>
      </trkpt>
      <trkpt lat="40.2655" lon="20.46952">
        <ele>505.30999755859</ele>
        <time>2023-09-28T11:16:09.000Z</time>
      </trkpt>
      <trkpt lat="40.26544" lon="20.46957">
        <ele>504.35000610352</ele>
        <time>2023-09-28T11:16:08.000Z</time>
      </trkpt>
      <trkpt lat="40.26538" lon="20.4696">
        <ele>503.86999511719</ele>
        <time>2023-09-28T11:16:07.000Z</time>
      </trkpt>
      <trkpt lat="40.26532" lon="20.46962">
        <ele>503.39001464844</ele>
        <time>2023-09-28T11:16:06.000Z</time>
      </trkpt>
      <trkpt lat="40.26526" lon="20.46963">
        <ele>502.42999267578</ele>
        <time>2023-09-28T11:16:05.000Z</time>
      </trkpt>
      <trkpt lat="40.26521" lon="20.46961">
        <ele>501.95001220703</ele>
        <time>2023-09-28T11:16:04.000Z</time>
      </trkpt>
      <trkpt lat="40.26516" lon="20.46958">
        <ele>501.45999145508</ele>
        <time>2023-09-28T11:16:03.000Z</time>
      </trkpt>
      <trkpt lat="40.26512" lon="20.46954">
        <ele>501.45999145508</ele>
        <time>2023-09-28T11:16:02.000Z</time>
      </trkpt>
      <trkpt lat="40.26509" lon="20.46949">
        <ele>500.5</ele>
        <time>2023-09-28T11:16:01.000Z</time>
      </trkpt>
      <trkpt lat="40.26501" lon="20.4694">
        <ele>499.54000854492</ele>
        <time>2023-09-28T11:16:00.000Z</time>
      </trkpt>
      <trkpt lat="40.26497" lon="20.46935">
        <ele>498.57998657227</ele>
        <time>2023-09-28T11:15:59.000Z</time>
      </trkpt>
      <trkpt lat="40.26492" lon="20.46931">
        <ele>497.61999511719</ele>
        <time>2023-09-28T11:15:58.000Z</time>
      </trkpt>
      <trkpt lat="40.26486" lon="20.46931">
        <ele>496.66000366211</ele>
        <time>2023-09-28T11:15:57.000Z</time>
      </trkpt>
      <trkpt lat="40.26479" lon="20.46932">
        <ele>496.17999267578</ele>
        <time>2023-09-28T11:15:56.000Z</time>
      </trkpt>
      <trkpt lat="40.26473" lon="20.46934">
        <ele>495.70001220703</ele>
        <time>2023-09-28T11:15:55.000Z</time>
      </trkpt>
      <trkpt lat="40.26468" lon="20.46938">
        <ele>495.2200012207</ele>
        <time>2023-09-28T11:15:54.000Z</time>
      </trkpt>
      <trkpt lat="40.26462" lon="20.46943">
        <ele>494.73999023438</ele>
        <time>2023-09-28T11:15:53.000Z</time>
      </trkpt>
      <trkpt lat="40.26457" lon="20.46945">
        <ele>494.26000976562</ele>
        <time>2023-09-28T11:15:52.000Z</time>
      </trkpt>
      <trkpt lat="40.26452" lon="20.46946">
        <ele>494.26000976562</ele>
        <time>2023-09-28T11:15:51.000Z</time>
      </trkpt>
      <trkpt lat="40.26447" lon="20.46944">
        <ele>493.76998901367</ele>
        <time>2023-09-28T11:15:50.000Z</time>
      </trkpt>
      <trkpt lat="40.26443" lon="20.46941">
        <ele>493.29000854492</ele>
        <time>2023-09-28T11:15:49.000Z</time>
      </trkpt>
      <trkpt lat="40.2644" lon="20.46937">
        <ele>492.80999755859</ele>
        <time>2023-09-28T11:15:48.000Z</time>
      </trkpt>
      <trkpt lat="40.26435" lon="20.46929">
        <ele>491.85000610352</ele>
        <time>2023-09-28T11:15:47.000Z</time>
      </trkpt>
      <trkpt lat="40.26432" lon="20.46923">
        <ele>491.36999511719</ele>
        <time>2023-09-28T11:15:46.000Z</time>
      </trkpt>
      <trkpt lat="40.2643" lon="20.46917">
        <ele>490.89001464844</ele>
        <time>2023-09-28T11:15:45.000Z</time>
      </trkpt>
      <trkpt lat="40.26428" lon="20.4691">
        <ele>490.41000366211</ele>
        <time>2023-09-28T11:15:44.000Z</time>
      </trkpt>
      <trkpt lat="40.26428" lon="20.46902">
        <ele>489.45001220703</ele>
        <time>2023-09-28T11:15:43.000Z</time>
      </trkpt>
      <trkpt lat="40.26428" lon="20.46893">
        <ele>488.9700012207</ele>
        <time>2023-09-28T11:15:42.000Z</time>
      </trkpt>
      <trkpt lat="40.26429" lon="20.46884">
        <ele>488.01000976562</ele>
        <time>2023-09-28T11:15:41.000Z</time>
      </trkpt>
      <trkpt lat="40.2643" lon="20.46877">
        <ele>487.04998779297</ele>
        <time>2023-09-28T11:15:40.000Z</time>
      </trkpt>
      <trkpt lat="40.2643" lon="20.46868">
        <ele>485.60000610352</ele>
        <time>2023-09-28T11:15:39.000Z</time>
      </trkpt>
      <trkpt lat="40.26429" lon="20.46861">
        <ele>485.11999511719</ele>
        <time>2023-09-28T11:15:38.000Z</time>
      </trkpt>
      <trkpt lat="40.26426" lon="20.46852">
        <ele>484.16000366211</ele>
        <time>2023-09-28T11:15:37.000Z</time>
      </trkpt>
      <trkpt lat="40.26422" lon="20.46842">
        <ele>483.67999267578</ele>
        <time>2023-09-28T11:15:36.000Z</time>
      </trkpt>
      <trkpt lat="40.26418" lon="20.46834">
        <ele>483.20001220703</ele>
        <time>2023-09-28T11:15:35.000Z</time>
      </trkpt>
      <trkpt lat="40.26413" lon="20.46828">
        <ele>482.23999023438</ele>
        <time>2023-09-28T11:15:34.000Z</time>
      </trkpt>
      <trkpt lat="40.26408" lon="20.46822">
        <ele>481.76000976562</ele>
        <time>2023-09-28T11:15:33.000Z</time>
      </trkpt>
      <trkpt lat="40.26402" lon="20.46818">
        <ele>480.79998779297</ele>
        <time>2023-09-28T11:15:32.000Z</time>
      </trkpt>
      <trkpt lat="40.26396" lon="20.46817">
        <ele>480.32000732422</ele>
        <time>2023-09-28T11:15:31.000Z</time>
      </trkpt>
      <trkpt lat="40.26388" lon="20.46815">
        <ele>479.35000610352</ele>
        <time>2023-09-28T11:15:30.000Z</time>
      </trkpt>
      <trkpt lat="40.26383" lon="20.46814">
        <ele>478.86999511719</ele>
        <time>2023-09-28T11:15:29.000Z</time>
      </trkpt>
      <trkpt lat="40.26376" lon="20.46808">
        <ele>478.39001464844</ele>
        <time>2023-09-28T11:15:28.000Z</time>
      </trkpt>
      <trkpt lat="40.26371" lon="20.46803">
        <ele>477.91000366211</ele>
        <time>2023-09-28T11:15:27.000Z</time>
      </trkpt>
      <trkpt lat="40.26366" lon="20.46798">
        <ele>476.95001220703</ele>
        <time>2023-09-28T11:15:26.000Z</time>
      </trkpt>
      <trkpt lat="40.26361" lon="20.46792">
        <ele>476.4700012207</ele>
        <time>2023-09-28T11:15:25.000Z</time>
      </trkpt>
      <trkpt lat="40.26357" lon="20.46785">
        <ele>475.98999023438</ele>
        <time>2023-09-28T11:15:24.000Z</time>
      </trkpt>
      <trkpt lat="40.26355" lon="20.46777">
        <ele>475.0299987793</ele>
        <time>2023-09-28T11:15:23.000Z</time>
      </trkpt>
      <trkpt lat="40.26353" lon="20.46767">
        <ele>474.54998779297</ele>
        <time>2023-09-28T11:15:22.000Z</time>
      </trkpt>
      <trkpt lat="40.26352" lon="20.4676">
        <ele>474.54998779297</ele>
        <time>2023-09-28T11:15:21.000Z</time>
      </trkpt>
      <trkpt lat="40.26348" lon="20.4675">
        <ele>474.07000732422</ele>
        <time>2023-09-28T11:15:20.000Z</time>
      </trkpt>
      <trkpt lat="40.26345" lon="20.46739">
        <ele>474.07000732422</ele>
        <time>2023-09-28T11:15:19.000Z</time>
      </trkpt>
      <trkpt lat="40.26344" lon="20.4673">
        <ele>474.07000732422</ele>
        <time>2023-09-28T11:15:18.000Z</time>
      </trkpt>
      <trkpt lat="40.26342" lon="20.4672">
        <ele>474.54998779297</ele>
        <time>2023-09-28T11:15:17.000Z</time>
      </trkpt>
      <trkpt lat="40.26341" lon="20.46711">
        <ele>474.07000732422</ele>
        <time>2023-09-28T11:15:16.000Z</time>
      </trkpt>
      <trkpt lat="40.26341" lon="20.46703">
        <ele>474.07000732422</ele>
        <time>2023-09-28T11:15:15.000Z</time>
      </trkpt>
      <trkpt lat="40.2634" lon="20.46697">
        <ele>474.07000732422</ele>
        <time>2023-09-28T11:15:14.000Z</time>
      </trkpt>
      <trkpt lat="40.26339" lon="20.46687">
        <ele>473.58999633789</ele>
        <time>2023-09-28T11:15:13.000Z</time>
      </trkpt>
      <trkpt lat="40.26338" lon="20.46678">
        <ele>473.10998535156</ele>
        <time>2023-09-28T11:15:12.000Z</time>
      </trkpt>
      <trkpt lat="40.26338" lon="20.46669">
        <ele>473.10998535156</ele>
        <time>2023-09-28T11:15:11.000Z</time>
      </trkpt>
      <trkpt lat="40.2634" lon="20.46661">
        <ele>472.14001464844</ele>
        <time>2023-09-28T11:15:10.000Z</time>
      </trkpt>
      <trkpt lat="40.26343" lon="20.46654">
        <ele>471.66000366211</ele>
        <time>2023-09-28T11:15:09.000Z</time>
      </trkpt>
      <trkpt lat="40.26347" lon="20.46648">
        <ele>470.70001220703</ele>
        <time>2023-09-28T11:15:08.000Z</time>
      </trkpt>
      <trkpt lat="40.26352" lon="20.46643">
        <ele>470.2200012207</ele>
        <time>2023-09-28T11:15:07.000Z</time>
      </trkpt>
      <trkpt lat="40.26357" lon="20.4664">
        <ele>469.26000976562</ele>
        <time>2023-09-28T11:15:06.000Z</time>
      </trkpt>
      <trkpt lat="40.26363" lon="20.46637">
        <ele>468.29998779297</ele>
        <time>2023-09-28T11:15:05.000Z</time>
      </trkpt>
      <trkpt lat="40.26367" lon="20.46633">
        <ele>468.29998779297</ele>
        <time>2023-09-28T11:15:04.000Z</time>
      </trkpt>
      <trkpt lat="40.26371" lon="20.46626">
        <ele>467.33999633789</ele>
        <time>2023-09-28T11:15:03.000Z</time>
      </trkpt>
      <trkpt lat="40.26375" lon="20.46615">
        <ele>466.38000488281</ele>
        <time>2023-09-28T11:15:02.000Z</time>
      </trkpt>
      <trkpt lat="40.2638" lon="20.46606">
        <ele>464.92999267578</ele>
        <time>2023-09-28T11:15:01.000Z</time>
      </trkpt>
      <trkpt lat="40.26386" lon="20.46598">
        <ele>463.9700012207</ele>
        <time>2023-09-28T11:15:00.000Z</time>
      </trkpt>
      <trkpt lat="40.26389" lon="20.46595">
        <ele>463.9700012207</ele>
        <time>2023-09-28T11:14:59.000Z</time>
      </trkpt>
      <trkpt lat="40.26397" lon="20.46586">
        <ele>462.04998779297</ele>
        <time>2023-09-28T11:14:58.000Z</time>
      </trkpt>
      <trkpt lat="40.26403" lon="20.4658">
        <ele>460.13000488281</ele>
        <time>2023-09-28T11:14:57.000Z</time>
      </trkpt>
      <trkpt lat="40.26409" lon="20.46572">
        <ele>458.69000244141</ele>
        <time>2023-09-28T11:14:56.000Z</time>
      </trkpt>
      <trkpt lat="40.26414" lon="20.46564">
        <ele>457.7200012207</ele>
        <time>2023-09-28T11:14:55.000Z</time>
      </trkpt>
      <trkpt lat="40.26419" lon="20.46558">
        <ele>456.2799987793</ele>
        <time>2023-09-28T11:14:54.000Z</time>
      </trkpt>
      <trkpt lat="40.26423" lon="20.46553">
        <ele>454.83999633789</ele>
        <time>2023-09-28T11:14:53.000Z</time>
      </trkpt>
      <trkpt lat="40.26424" lon="20.4655">
        <ele>454.83999633789</ele>
        <time>2023-09-28T11:14:52.000Z</time>
      </trkpt>
      <trkpt lat="40.26416" lon="20.46535">
        <ele>449.54998779297</ele>
        <time>2023-09-28T11:14:47.000Z</time>
      </trkpt>
      <trkpt lat="40.26412" lon="20.46536">
        <ele>449.07000732422</ele>
        <time>2023-09-28T11:14:46.000Z</time>
      </trkpt>
      <trkpt lat="40.26405" lon="20.4654">
        <ele>448.10998535156</ele>
        <time>2023-09-28T11:14:45.000Z</time>
      </trkpt>
      <trkpt lat="40.264" lon="20.46543">
        <ele>447.63000488281</ele>
        <time>2023-09-28T11:14:44.000Z</time>
      </trkpt>
      <trkpt lat="40.26392" lon="20.46546">
        <ele>447.14999389648</ele>
        <time>2023-09-28T11:14:43.000Z</time>
      </trkpt>
      <trkpt lat="40.26383" lon="20.4655">
        <ele>446.67001342773</ele>
        <time>2023-09-28T11:14:42.000Z</time>
      </trkpt>
      <trkpt lat="40.26374" lon="20.46555">
        <ele>445.70999145508</ele>
        <time>2023-09-28T11:14:41.000Z</time>
      </trkpt>
      <trkpt lat="40.26364" lon="20.46561">
        <ele>444.75</ele>
        <time>2023-09-28T11:14:40.000Z</time>
      </trkpt>
      <trkpt lat="40.26349" lon="20.46569">
        <ele>443.79000854492</ele>
        <time>2023-09-28T11:14:38.000Z</time>
      </trkpt>
      <trkpt lat="40.26343" lon="20.46572">
        <ele>443.30999755859</ele>
        <time>2023-09-28T11:14:37.000Z</time>
      </trkpt>
      <trkpt lat="40.26335" lon="20.46578">
        <ele>442.33999633789</ele>
        <time>2023-09-28T11:14:36.000Z</time>
      </trkpt>
      <trkpt lat="40.2633" lon="20.46582">
        <ele>441.85998535156</ele>
        <time>2023-09-28T11:14:35.000Z</time>
      </trkpt>
      <trkpt lat="40.26326" lon="20.46585">
        <ele>441.38000488281</ele>
        <time>2023-09-28T11:14:34.000Z</time>
      </trkpt>
      <trkpt lat="40.2632" lon="20.4659">
        <ele>440.89999389648</ele>
        <time>2023-09-28T11:14:33.000Z</time>
      </trkpt>
      <trkpt lat="40.26313" lon="20.46596">
        <ele>440.42001342773</ele>
        <time>2023-09-28T11:14:32.000Z</time>
      </trkpt>
      <trkpt lat="40.26308" lon="20.466">
        <ele>439.94000244141</ele>
        <time>2023-09-28T11:14:31.000Z</time>
      </trkpt>
      <trkpt lat="40.26308" lon="20.46601">
        <ele>439.94000244141</ele>
        <time>2023-09-28T11:14:30.000Z</time>
      </trkpt>
      <trkpt lat="40.26299" lon="20.4661">
        <ele>439.45999145508</ele>
        <time>2023-09-28T11:14:25.000Z</time>
      </trkpt>
      <trkpt lat="40.26296" lon="20.46615">
        <ele>438.98001098633</ele>
        <time>2023-09-28T11:14:24.000Z</time>
      </trkpt>
      <trkpt lat="40.26295" lon="20.46619">
        <ele>438.98001098633</ele>
        <time>2023-09-28T11:14:23.000Z</time>
      </trkpt>
      <trkpt lat="40.26292" lon="20.46624">
        <ele>438.5</ele>
        <time>2023-09-28T11:14:22.000Z</time>
      </trkpt>
      <trkpt lat="40.26277" lon="20.46643">
        <ele>437.54000854492</ele>
        <time>2023-09-28T11:14:15.000Z</time>
      </trkpt>
      <trkpt lat="40.26271" lon="20.46645">
        <ele>437.05999755859</ele>
        <time>2023-09-28T11:14:14.000Z</time>
      </trkpt>
      <trkpt lat="40.26267" lon="20.46647">
        <ele>436.10000610352</ele>
        <time>2023-09-28T11:14:13.000Z</time>
      </trkpt>
      <trkpt lat="40.26258" lon="20.4665">
        <ele>435.60998535156</ele>
        <time>2023-09-28T11:14:12.000Z</time>
      </trkpt>
      <trkpt lat="40.26252" lon="20.46653">
        <ele>435.60998535156</ele>
        <time>2023-09-28T11:14:11.000Z</time>
      </trkpt>
      <trkpt lat="40.26246" lon="20.46658">
        <ele>435.60998535156</ele>
        <time>2023-09-28T11:14:10.000Z</time>
      </trkpt>
      <trkpt lat="40.26241" lon="20.46664">
        <ele>435.60998535156</ele>
        <time>2023-09-28T11:14:09.000Z</time>
      </trkpt>
      <trkpt lat="40.26235" lon="20.4667">
        <ele>435.60998535156</ele>
        <time>2023-09-28T11:14:08.000Z</time>
      </trkpt>
      <trkpt lat="40.26229" lon="20.46674">
        <ele>435.60998535156</ele>
        <time>2023-09-28T11:14:07.000Z</time>
      </trkpt>
      <trkpt lat="40.26221" lon="20.46676">
        <ele>435.60998535156</ele>
        <time>2023-09-28T11:14:06.000Z</time>
      </trkpt>
      <trkpt lat="40.26215" lon="20.46676">
        <ele>435.60998535156</ele>
        <time>2023-09-28T11:14:05.000Z</time>
      </trkpt>
      <trkpt lat="40.26211" lon="20.46676">
        <ele>435.60998535156</ele>
        <time>2023-09-28T11:14:04.000Z</time>
      </trkpt>
      <trkpt lat="40.26207" lon="20.46676">
        <ele>435.13000488281</ele>
        <time>2023-09-28T11:14:03.000Z</time>
      </trkpt>
      <trkpt lat="40.26199" lon="20.46677">
        <ele>435.13000488281</ele>
        <time>2023-09-28T11:14:02.000Z</time>
      </trkpt>
      <trkpt lat="40.26194" lon="20.46676">
        <ele>434.64999389648</ele>
        <time>2023-09-28T11:14:01.000Z</time>
      </trkpt>
      <trkpt lat="40.26193" lon="20.46675">
        <ele>434.64999389648</ele>
        <time>2023-09-28T11:14:00.000Z</time>
      </trkpt>
      <trkpt lat="40.26185" lon="20.46668">
        <ele>433.20999145508</ele>
        <time>2023-09-28T11:13:58.000Z</time>
      </trkpt>
      <trkpt lat="40.26182" lon="20.46663">
        <ele>432.73001098633</ele>
        <time>2023-09-28T11:13:57.000Z</time>
      </trkpt>
      <trkpt lat="40.26179" lon="20.46656">
        <ele>432.73001098633</ele>
        <time>2023-09-28T11:13:56.000Z</time>
      </trkpt>
      <trkpt lat="40.26176" lon="20.4665">
        <ele>432.73001098633</ele>
        <time>2023-09-28T11:13:55.000Z</time>
      </trkpt>
      <trkpt lat="40.26173" lon="20.4664">
        <ele>432.25</ele>
        <time>2023-09-28T11:13:54.000Z</time>
      </trkpt>
      <trkpt lat="40.26169" lon="20.46633">
        <ele>431.76998901367</ele>
        <time>2023-09-28T11:13:53.000Z</time>
      </trkpt>
      <trkpt lat="40.26166" lon="20.46628">
        <ele>431.29000854492</ele>
        <time>2023-09-28T11:13:52.000Z</time>
      </trkpt>
      <trkpt lat="40.2616" lon="20.46621">
        <ele>430.32998657227</ele>
        <time>2023-09-28T11:13:51.000Z</time>
      </trkpt>
      <trkpt lat="40.26154" lon="20.46614">
        <ele>429.85000610352</ele>
        <time>2023-09-28T11:13:50.000Z</time>
      </trkpt>
      <trkpt lat="40.26147" lon="20.46609">
        <ele>429.36999511719</ele>
        <time>2023-09-28T11:13:49.000Z</time>
      </trkpt>
      <trkpt lat="40.2614" lon="20.46604">
        <ele>428.39999389648</ele>
        <time>2023-09-28T11:13:48.000Z</time>
      </trkpt>
      <trkpt lat="40.26134" lon="20.46601">
        <ele>427.44000244141</ele>
        <time>2023-09-28T11:13:47.000Z</time>
      </trkpt>
      <trkpt lat="40.26131" lon="20.466">
        <ele>426.95999145508</ele>
        <time>2023-09-28T11:13:46.000Z</time>
      </trkpt>
      <trkpt lat="40.26112" lon="20.46592">
        <ele>424.07998657227</ele>
        <time>2023-09-28T11:13:44.000Z</time>
      </trkpt>
      <trkpt lat="40.26104" lon="20.46588">
        <ele>423.11999511719</ele>
        <time>2023-09-28T11:13:43.000Z</time>
      </trkpt>
      <trkpt lat="40.26096" lon="20.46585">
        <ele>422.64001464844</ele>
        <time>2023-09-28T11:13:42.000Z</time>
      </trkpt>
      <trkpt lat="40.2609" lon="20.46584">
        <ele>421.67999267578</ele>
        <time>2023-09-28T11:13:41.000Z</time>
      </trkpt>
      <trkpt lat="40.26084" lon="20.46585">
        <ele>420.70999145508</ele>
        <time>2023-09-28T11:13:40.000Z</time>
      </trkpt>
      <trkpt lat="40.26078" lon="20.46587">
        <ele>419.75</ele>
        <time>2023-09-28T11:13:39.000Z</time>
      </trkpt>
      <trkpt lat="40.26073" lon="20.4659">
        <ele>418.79000854492</ele>
        <time>2023-09-28T11:13:38.000Z</time>
      </trkpt>
      <trkpt lat="40.26067" lon="20.46594">
        <ele>417.82998657227</ele>
        <time>2023-09-28T11:13:37.000Z</time>
      </trkpt>
      <trkpt lat="40.26062" lon="20.46599">
        <ele>416.86999511719</ele>
        <time>2023-09-28T11:13:36.000Z</time>
      </trkpt>
      <trkpt lat="40.26056" lon="20.46605">
        <ele>415.91000366211</ele>
        <time>2023-09-28T11:13:35.000Z</time>
      </trkpt>
      <trkpt lat="40.26051" lon="20.46611">
        <ele>414.95001220703</ele>
        <time>2023-09-28T11:13:34.000Z</time>
      </trkpt>
      <trkpt lat="40.26046" lon="20.46619">
        <ele>413.98001098633</ele>
        <time>2023-09-28T11:13:33.000Z</time>
      </trkpt>
      <trkpt lat="40.26043" lon="20.46625">
        <ele>413.5</ele>
        <time>2023-09-28T11:13:32.000Z</time>
      </trkpt>
      <trkpt lat="40.26039" lon="20.46634">
        <ele>412.54000854492</ele>
        <time>2023-09-28T11:13:31.000Z</time>
      </trkpt>
      <trkpt lat="40.26035" lon="20.4664">
        <ele>411.57998657227</ele>
        <time>2023-09-28T11:13:30.000Z</time>
      </trkpt>
      <trkpt lat="40.26031" lon="20.46645">
        <ele>410.61999511719</ele>
        <time>2023-09-28T11:13:29.000Z</time>
      </trkpt>
      <trkpt lat="40.26027" lon="20.46648">
        <ele>410.14001464844</ele>
        <time>2023-09-28T11:13:28.000Z</time>
      </trkpt>
      <trkpt lat="40.26023" lon="20.46649">
        <ele>410.14001464844</ele>
        <time>2023-09-28T11:13:27.000Z</time>
      </trkpt>
      <trkpt lat="40.26017" lon="20.46649">
        <ele>409.66000366211</ele>
        <time>2023-09-28T11:13:26.000Z</time>
      </trkpt>
      <trkpt lat="40.26012" lon="20.46648">
        <ele>409.66000366211</ele>
        <time>2023-09-28T11:13:25.000Z</time>
      </trkpt>
      <trkpt lat="40.26007" lon="20.46645">
        <ele>409.17999267578</ele>
        <time>2023-09-28T11:13:24.000Z</time>
      </trkpt>
      <trkpt lat="40.26001" lon="20.46641">
        <ele>409.17999267578</ele>
        <time>2023-09-28T11:13:23.000Z</time>
      </trkpt>
      <trkpt lat="40.25997" lon="20.46638">
        <ele>409.17999267578</ele>
        <time>2023-09-28T11:13:22.000Z</time>
      </trkpt>
      <trkpt lat="40.25987" lon="20.46629">
        <ele>409.66000366211</ele>
        <time>2023-09-28T11:13:21.000Z</time>
      </trkpt>
      <trkpt lat="40.25979" lon="20.46622">
        <ele>410.14001464844</ele>
        <time>2023-09-28T11:13:19.000Z</time>
      </trkpt>
      <trkpt lat="40.25973" lon="20.46616">
        <ele>409.66000366211</ele>
        <time>2023-09-28T11:13:18.000Z</time>
      </trkpt>
      <trkpt lat="40.25967" lon="20.4661">
        <ele>409.66000366211</ele>
        <time>2023-09-28T11:13:17.000Z</time>
      </trkpt>
      <trkpt lat="40.25961" lon="20.46605">
        <ele>409.66000366211</ele>
        <time>2023-09-28T11:13:16.000Z</time>
      </trkpt>
      <trkpt lat="40.25956" lon="20.46601">
        <ele>409.66000366211</ele>
        <time>2023-09-28T11:13:15.000Z</time>
      </trkpt>
      <trkpt lat="40.25953" lon="20.46596">
        <ele>410.14001464844</ele>
        <time>2023-09-28T11:13:14.000Z</time>
      </trkpt>
      <trkpt lat="40.25951" lon="20.4659">
        <ele>410.61999511719</ele>
        <time>2023-09-28T11:13:13.000Z</time>
      </trkpt>
      <trkpt lat="40.2595" lon="20.46583">
        <ele>411.10000610352</ele>
        <time>2023-09-28T11:13:12.000Z</time>
      </trkpt>
      <trkpt lat="40.25949" lon="20.46578">
        <ele>411.10000610352</ele>
        <time>2023-09-28T11:13:11.000Z</time>
      </trkpt>
      <trkpt lat="40.25949" lon="20.46573">
        <ele>411.10000610352</ele>
        <time>2023-09-28T11:13:10.000Z</time>
      </trkpt>
      <trkpt lat="40.25948" lon="20.46567">
        <ele>411.10000610352</ele>
        <time>2023-09-28T11:13:09.000Z</time>
      </trkpt>
      <trkpt lat="40.25948" lon="20.46555">
        <ele>411.10000610352</ele>
        <time>2023-09-28T11:13:08.000Z</time>
      </trkpt>
      <trkpt lat="40.25948" lon="20.4655">
        <ele>411.10000610352</ele>
        <time>2023-09-28T11:13:07.000Z</time>
      </trkpt>
      <trkpt lat="40.25948" lon="20.46538">
        <ele>411.10000610352</ele>
        <time>2023-09-28T11:13:06.000Z</time>
      </trkpt>
      <trkpt lat="40.25947" lon="20.46531">
        <ele>410.61999511719</ele>
        <time>2023-09-28T11:13:05.000Z</time>
      </trkpt>
      <trkpt lat="40.25945" lon="20.46523">
        <ele>409.17999267578</ele>
        <time>2023-09-28T11:13:04.000Z</time>
      </trkpt>
      <trkpt lat="40.25942" lon="20.46517">
        <ele>407.73999023438</ele>
        <time>2023-09-28T11:13:03.000Z</time>
      </trkpt>
      <trkpt lat="40.2594" lon="20.46509">
        <ele>407.26000976562</ele>
        <time>2023-09-28T11:13:02.000Z</time>
      </trkpt>
      <trkpt lat="40.25938" lon="20.46501">
        <ele>406.76998901367</ele>
        <time>2023-09-28T11:13:01.000Z</time>
      </trkpt>
      <trkpt lat="40.25936" lon="20.46493">
        <ele>405.80999755859</ele>
        <time>2023-09-28T11:13:00.000Z</time>
      </trkpt>
      <trkpt lat="40.25933" lon="20.46488">
        <ele>405.32998657227</ele>
        <time>2023-09-28T11:12:59.000Z</time>
      </trkpt>
      <trkpt lat="40.25928" lon="20.46484">
        <ele>405.32998657227</ele>
        <time>2023-09-28T11:12:58.000Z</time>
      </trkpt>
      <trkpt lat="40.25921" lon="20.4648">
        <ele>405.32998657227</ele>
        <time>2023-09-28T11:12:57.000Z</time>
      </trkpt>
      <trkpt lat="40.25916" lon="20.46478">
        <ele>404.85000610352</ele>
        <time>2023-09-28T11:12:56.000Z</time>
      </trkpt>
      <trkpt lat="40.2591" lon="20.46476">
        <ele>404.85000610352</ele>
        <time>2023-09-28T11:12:55.000Z</time>
      </trkpt>
      <trkpt lat="40.25905" lon="20.46476">
        <ele>404.85000610352</ele>
        <time>2023-09-28T11:12:54.000Z</time>
      </trkpt>
      <trkpt lat="40.25901" lon="20.46479">
        <ele>403.89001464844</ele>
        <time>2023-09-28T11:12:53.000Z</time>
      </trkpt>
      <trkpt lat="40.25898" lon="20.46483">
        <ele>403.41000366211</ele>
        <time>2023-09-28T11:12:52.000Z</time>
      </trkpt>
      <trkpt lat="40.25897" lon="20.46489">
        <ele>403.89001464844</ele>
        <time>2023-09-28T11:12:51.000Z</time>
      </trkpt>
      <trkpt lat="40.25898" lon="20.46494">
        <ele>403.89001464844</ele>
        <time>2023-09-28T11:12:50.000Z</time>
      </trkpt>
      <trkpt lat="40.259" lon="20.46499">
        <ele>403.89001464844</ele>
        <time>2023-09-28T11:12:49.000Z</time>
      </trkpt>
      <trkpt lat="40.25903" lon="20.46504">
        <ele>403.89001464844</ele>
        <time>2023-09-28T11:12:48.000Z</time>
      </trkpt>
      <trkpt lat="40.25906" lon="20.4651">
        <ele>403.41000366211</ele>
        <time>2023-09-28T11:12:47.000Z</time>
      </trkpt>
      <trkpt lat="40.25909" lon="20.46518">
        <ele>403.41000366211</ele>
        <time>2023-09-28T11:12:46.000Z</time>
      </trkpt>
      <trkpt lat="40.25911" lon="20.46527">
        <ele>403.41000366211</ele>
        <time>2023-09-28T11:12:45.000Z</time>
      </trkpt>
      <trkpt lat="40.25911" lon="20.46535">
        <ele>403.41000366211</ele>
        <time>2023-09-28T11:12:44.000Z</time>
      </trkpt>
      <trkpt lat="40.25912" lon="20.46542">
        <ele>403.89001464844</ele>
        <time>2023-09-28T11:12:43.000Z</time>
      </trkpt>
      <trkpt lat="40.25912" lon="20.46552">
        <ele>404.36999511719</ele>
        <time>2023-09-28T11:12:42.000Z</time>
      </trkpt>
      <trkpt lat="40.25911" lon="20.46566">
        <ele>405.32998657227</ele>
        <time>2023-09-28T11:12:40.000Z</time>
      </trkpt>
      <trkpt lat="40.2591" lon="20.46581">
        <ele>406.76998901367</ele>
        <time>2023-09-28T11:12:39.000Z</time>
      </trkpt>
      <trkpt lat="40.25911" lon="20.46593">
        <ele>407.26000976562</ele>
        <time>2023-09-28T11:12:38.000Z</time>
      </trkpt>
      <trkpt lat="40.25912" lon="20.46608">
        <ele>408.70001220703</ele>
        <time>2023-09-28T11:12:36.000Z</time>
      </trkpt>
      <trkpt lat="40.25912" lon="20.46615">
        <ele>409.17999267578</ele>
        <time>2023-09-28T11:12:35.000Z</time>
      </trkpt>
      <trkpt lat="40.25912" lon="20.4662">
        <ele>409.66000366211</ele>
        <time>2023-09-28T11:12:34.000Z</time>
      </trkpt>
      <trkpt lat="40.25912" lon="20.46628">
        <ele>409.66000366211</ele>
        <time>2023-09-28T11:12:33.000Z</time>
      </trkpt>
      <trkpt lat="40.25912" lon="20.46632">
        <ele>410.14001464844</ele>
        <time>2023-09-28T11:12:32.000Z</time>
      </trkpt>
      <trkpt lat="40.2591" lon="20.46646">
        <ele>410.14001464844</ele>
        <time>2023-09-28T11:12:26.000Z</time>
      </trkpt>
      <trkpt lat="40.25912" lon="20.46657">
        <ele>411.10000610352</ele>
        <time>2023-09-28T11:12:20.000Z</time>
      </trkpt>
      <trkpt lat="40.25921" lon="20.4667">
        <ele>413.5</ele>
        <time>2023-09-28T11:12:16.000Z</time>
      </trkpt>
      <trkpt lat="40.25915" lon="20.46679">
        <ele>414.95001220703</ele>
        <time>2023-09-28T11:12:12.000Z</time>
      </trkpt>
      <trkpt lat="40.25912" lon="20.46677">
        <ele>414.95001220703</ele>
        <time>2023-09-28T11:12:11.000Z</time>
      </trkpt>
      <trkpt lat="40.25909" lon="20.46673">
        <ele>414.95001220703</ele>
        <time>2023-09-28T11:12:10.000Z</time>
      </trkpt>
      <trkpt lat="40.25902" lon="20.46667">
        <ele>414.95001220703</ele>
        <time>2023-09-28T11:12:09.000Z</time>
      </trkpt>
      <trkpt lat="40.25897" lon="20.46661">
        <ele>415.42999267578</ele>
        <time>2023-09-28T11:12:08.000Z</time>
      </trkpt>
      <trkpt lat="40.25894" lon="20.46657">
        <ele>415.91000366211</ele>
        <time>2023-09-28T11:12:07.000Z</time>
      </trkpt>
      <trkpt lat="40.25893" lon="20.46654">
        <ele>415.91000366211</ele>
        <time>2023-09-28T11:12:06.000Z</time>
      </trkpt>
      <trkpt lat="40.25891" lon="20.46649">
        <ele>416.86999511719</ele>
        <time>2023-09-28T11:12:05.000Z</time>
      </trkpt>
      <trkpt lat="40.2588" lon="20.46654">
        <ele>420.23001098633</ele>
        <time>2023-09-28T11:12:00.000Z</time>
      </trkpt>
      <trkpt lat="40.25882" lon="20.46661">
        <ele>421.19000244141</ele>
        <time>2023-09-28T11:11:59.000Z</time>
      </trkpt>
      <trkpt lat="40.25886" lon="20.46668">
        <ele>422.64001464844</ele>
        <time>2023-09-28T11:11:58.000Z</time>
      </trkpt>
      <trkpt lat="40.25889" lon="20.46675">
        <ele>423.60000610352</ele>
        <time>2023-09-28T11:11:57.000Z</time>
      </trkpt>
      <trkpt lat="40.25892" lon="20.46683">
        <ele>424.07998657227</ele>
        <time>2023-09-28T11:11:56.000Z</time>
      </trkpt>
      <trkpt lat="40.25905" lon="20.46718">
        <ele>428.39999389648</ele>
        <time>2023-09-28T11:11:54.000Z</time>
      </trkpt>
      <trkpt lat="40.25907" lon="20.46724">
        <ele>429.36999511719</ele>
        <time>2023-09-28T11:11:53.000Z</time>
      </trkpt>
      <trkpt lat="40.25911" lon="20.46739">
        <ele>431.29000854492</ele>
        <time>2023-09-28T11:11:52.000Z</time>
      </trkpt>
      <trkpt lat="40.25913" lon="20.46746">
        <ele>431.76998901367</ele>
        <time>2023-09-28T11:11:51.000Z</time>
      </trkpt>
      <trkpt lat="40.25914" lon="20.46756">
        <ele>433.20999145508</ele>
        <time>2023-09-28T11:11:50.000Z</time>
      </trkpt>
      <trkpt lat="40.25913" lon="20.46762">
        <ele>434.17001342773</ele>
        <time>2023-09-28T11:11:49.000Z</time>
      </trkpt>
      <trkpt lat="40.25911" lon="20.46767">
        <ele>435.13000488281</ele>
        <time>2023-09-28T11:11:48.000Z</time>
      </trkpt>
      <trkpt lat="40.25908" lon="20.46771">
        <ele>436.10000610352</ele>
        <time>2023-09-28T11:11:47.000Z</time>
      </trkpt>
      <trkpt lat="40.25903" lon="20.46774">
        <ele>437.05999755859</ele>
        <time>2023-09-28T11:11:46.000Z</time>
      </trkpt>
      <trkpt lat="40.25898" lon="20.46776">
        <ele>438.01998901367</ele>
        <time>2023-09-28T11:11:45.000Z</time>
      </trkpt>
      <trkpt lat="40.25892" lon="20.46775">
        <ele>438.5</ele>
        <time>2023-09-28T11:11:44.000Z</time>
      </trkpt>
      <trkpt lat="40.25886" lon="20.46771">
        <ele>438.98001098633</ele>
        <time>2023-09-28T11:11:43.000Z</time>
      </trkpt>
      <trkpt lat="40.25882" lon="20.46765">
        <ele>439.45999145508</ele>
        <time>2023-09-28T11:11:42.000Z</time>
      </trkpt>
      <trkpt lat="40.25879" lon="20.4676">
        <ele>439.94000244141</ele>
        <time>2023-09-28T11:11:41.000Z</time>
      </trkpt>
      <trkpt lat="40.25877" lon="20.46756">
        <ele>440.42001342773</ele>
        <time>2023-09-28T11:11:40.000Z</time>
      </trkpt>
      <trkpt lat="40.25869" lon="20.46734">
        <ele>441.38000488281</ele>
        <time>2023-09-28T11:11:39.000Z</time>
      </trkpt>
      <trkpt lat="40.25864" lon="20.46721">
        <ele>441.85998535156</ele>
        <time>2023-09-28T11:11:38.000Z</time>
      </trkpt>
      <trkpt lat="40.25859" lon="20.46712">
        <ele>442.33999633789</ele>
        <time>2023-09-28T11:11:37.000Z</time>
      </trkpt>
      <trkpt lat="40.25852" lon="20.46701">
        <ele>442.82000732422</ele>
        <time>2023-09-28T11:11:36.000Z</time>
      </trkpt>
      <trkpt lat="40.25845" lon="20.46691">
        <ele>443.30999755859</ele>
        <time>2023-09-28T11:11:35.000Z</time>
      </trkpt>
      <trkpt lat="40.25838" lon="20.46685">
        <ele>443.79000854492</ele>
        <time>2023-09-28T11:11:34.000Z</time>
      </trkpt>
      <trkpt lat="40.25831" lon="20.46681">
        <ele>444.75</ele>
        <time>2023-09-28T11:11:33.000Z</time>
      </trkpt>
      <trkpt lat="40.25824" lon="20.46681">
        <ele>445.23001098633</ele>
        <time>2023-09-28T11:11:32.000Z</time>
      </trkpt>
      <trkpt lat="40.25817" lon="20.46684">
        <ele>446.19000244141</ele>
        <time>2023-09-28T11:11:31.000Z</time>
      </trkpt>
      <trkpt lat="40.25809" lon="20.46689">
        <ele>446.67001342773</ele>
        <time>2023-09-28T11:11:30.000Z</time>
      </trkpt>
      <trkpt lat="40.25802" lon="20.46693">
        <ele>447.14999389648</ele>
        <time>2023-09-28T11:11:29.000Z</time>
      </trkpt>
      <trkpt lat="40.25793" lon="20.46696">
        <ele>447.63000488281</ele>
        <time>2023-09-28T11:11:28.000Z</time>
      </trkpt>
      <trkpt lat="40.25784" lon="20.46698">
        <ele>448.10998535156</ele>
        <time>2023-09-28T11:11:27.000Z</time>
      </trkpt>
      <trkpt lat="40.25775" lon="20.46697">
        <ele>449.07000732422</ele>
        <time>2023-09-28T11:11:26.000Z</time>
      </trkpt>
      <trkpt lat="40.25767" lon="20.46696">
        <ele>450.0299987793</ele>
        <time>2023-09-28T11:11:25.000Z</time>
      </trkpt>
      <trkpt lat="40.2576" lon="20.46692">
        <ele>451</ele>
        <time>2023-09-28T11:11:24.000Z</time>
      </trkpt>
      <trkpt lat="40.25755" lon="20.46687">
        <ele>451.48001098633</ele>
        <time>2023-09-28T11:11:23.000Z</time>
      </trkpt>
      <trkpt lat="40.25739" lon="20.46671">
        <ele>452.92001342773</ele>
        <time>2023-09-28T11:11:21.000Z</time>
      </trkpt>
      <trkpt lat="40.25732" lon="20.46664">
        <ele>453.39999389648</ele>
        <time>2023-09-28T11:11:20.000Z</time>
      </trkpt>
      <trkpt lat="40.25727" lon="20.46657">
        <ele>454.35998535156</ele>
        <time>2023-09-28T11:11:19.000Z</time>
      </trkpt>
      <trkpt lat="40.25719" lon="20.46646">
        <ele>455.32000732422</ele>
        <time>2023-09-28T11:11:18.000Z</time>
      </trkpt>
      <trkpt lat="40.25711" lon="20.46634">
        <ele>456.76000976562</ele>
        <time>2023-09-28T11:11:17.000Z</time>
      </trkpt>
      <trkpt lat="40.25707" lon="20.46626">
        <ele>457.7200012207</ele>
        <time>2023-09-28T11:11:16.000Z</time>
      </trkpt>
      <trkpt lat="40.25701" lon="20.46617">
        <ele>458.69000244141</ele>
        <time>2023-09-28T11:11:15.000Z</time>
      </trkpt>
      <trkpt lat="40.25695" lon="20.46605">
        <ele>460.13000488281</ele>
        <time>2023-09-28T11:11:14.000Z</time>
      </trkpt>
      <trkpt lat="40.2569" lon="20.46598">
        <ele>461.57000732422</ele>
        <time>2023-09-28T11:11:13.000Z</time>
      </trkpt>
      <trkpt lat="40.25684" lon="20.46593">
        <ele>462.5299987793</ele>
        <time>2023-09-28T11:11:12.000Z</time>
      </trkpt>
      <trkpt lat="40.25678" lon="20.46591">
        <ele>463.48999023438</ele>
        <time>2023-09-28T11:11:11.000Z</time>
      </trkpt>
      <trkpt lat="40.25671" lon="20.46591">
        <ele>463.9700012207</ele>
        <time>2023-09-28T11:11:10.000Z</time>
      </trkpt>
      <trkpt lat="40.25665" lon="20.46593">
        <ele>464.45001220703</ele>
        <time>2023-09-28T11:11:09.000Z</time>
      </trkpt>
      <trkpt lat="40.25659" lon="20.46598">
        <ele>464.45001220703</ele>
        <time>2023-09-28T11:11:08.000Z</time>
      </trkpt>
      <trkpt lat="40.25653" lon="20.46605">
        <ele>464.45001220703</ele>
        <time>2023-09-28T11:11:07.000Z</time>
      </trkpt>
      <trkpt lat="40.25647" lon="20.4661">
        <ele>464.45001220703</ele>
        <time>2023-09-28T11:11:06.000Z</time>
      </trkpt>
      <trkpt lat="40.25639" lon="20.46614">
        <ele>464.45001220703</ele>
        <time>2023-09-28T11:11:05.000Z</time>
      </trkpt>
      <trkpt lat="40.25631" lon="20.46617">
        <ele>464.92999267578</ele>
        <time>2023-09-28T11:11:04.000Z</time>
      </trkpt>
      <trkpt lat="40.25628" lon="20.46617">
        <ele>464.92999267578</ele>
        <time>2023-09-28T11:11:03.000Z</time>
      </trkpt>
      <trkpt lat="40.25589" lon="20.46616">
        <ele>468.7799987793</ele>
        <time>2023-09-28T11:11:00.000Z</time>
      </trkpt>
      <trkpt lat="40.25581" lon="20.46615">
        <ele>469.26000976562</ele>
        <time>2023-09-28T11:10:59.000Z</time>
      </trkpt>
      <trkpt lat="40.25571" lon="20.46612">
        <ele>470.70001220703</ele>
        <time>2023-09-28T11:10:58.000Z</time>
      </trkpt>
      <trkpt lat="40.25561" lon="20.46609">
        <ele>472.14001464844</ele>
        <time>2023-09-28T11:10:57.000Z</time>
      </trkpt>
      <trkpt lat="40.25556" lon="20.46609">
        <ele>472.63000488281</ele>
        <time>2023-09-28T11:10:56.000Z</time>
      </trkpt>
      <trkpt lat="40.25551" lon="20.46611">
        <ele>473.58999633789</ele>
        <time>2023-09-28T11:10:55.000Z</time>
      </trkpt>
      <trkpt lat="40.25549" lon="20.46615">
        <ele>474.54998779297</ele>
        <time>2023-09-28T11:10:54.000Z</time>
      </trkpt>
      <trkpt lat="40.25548" lon="20.46621">
        <ele>475.51000976562</ele>
        <time>2023-09-28T11:10:53.000Z</time>
      </trkpt>
      <trkpt lat="40.2555" lon="20.46628">
        <ele>476.4700012207</ele>
        <time>2023-09-28T11:10:52.000Z</time>
      </trkpt>
      <trkpt lat="40.25553" lon="20.46633">
        <ele>477.42999267578</ele>
        <time>2023-09-28T11:10:51.000Z</time>
      </trkpt>
      <trkpt lat="40.2556" lon="20.46639">
        <ele>478.39001464844</ele>
        <time>2023-09-28T11:10:50.000Z</time>
      </trkpt>
      <trkpt lat="40.25567" lon="20.46643">
        <ele>478.86999511719</ele>
        <time>2023-09-28T11:10:49.000Z</time>
      </trkpt>
      <trkpt lat="40.25574" lon="20.46646">
        <ele>479.35000610352</ele>
        <time>2023-09-28T11:10:48.000Z</time>
      </trkpt>
      <trkpt lat="40.2558" lon="20.46648">
        <ele>480.32000732422</ele>
        <time>2023-09-28T11:10:47.000Z</time>
      </trkpt>
      <trkpt lat="40.25585" lon="20.4665">
        <ele>480.79998779297</ele>
        <time>2023-09-28T11:10:46.000Z</time>
      </trkpt>
      <trkpt lat="40.25587" lon="20.46655">
        <ele>481.2799987793</ele>
        <time>2023-09-28T11:10:45.000Z</time>
      </trkpt>
      <trkpt lat="40.25588" lon="20.4666">
        <ele>481.76000976562</ele>
        <time>2023-09-28T11:10:44.000Z</time>
      </trkpt>
      <trkpt lat="40.25586" lon="20.46666">
        <ele>482.7200012207</ele>
        <time>2023-09-28T11:10:43.000Z</time>
      </trkpt>
      <trkpt lat="40.25582" lon="20.46668">
        <ele>483.20001220703</ele>
        <time>2023-09-28T11:10:42.000Z</time>
      </trkpt>
      <trkpt lat="40.25578" lon="20.46668">
        <ele>483.20001220703</ele>
        <time>2023-09-28T11:10:41.000Z</time>
      </trkpt>
      <trkpt lat="40.25573" lon="20.46667">
        <ele>484.16000366211</ele>
        <time>2023-09-28T11:10:40.000Z</time>
      </trkpt>
      <trkpt lat="40.25568" lon="20.46664">
        <ele>484.64001464844</ele>
        <time>2023-09-28T11:10:39.000Z</time>
      </trkpt>
      <trkpt lat="40.25561" lon="20.46661">
        <ele>485.11999511719</ele>
        <time>2023-09-28T11:10:38.000Z</time>
      </trkpt>
      <trkpt lat="40.25547" lon="20.46654">
        <ele>487.04998779297</ele>
        <time>2023-09-28T11:10:37.000Z</time>
      </trkpt>
      <trkpt lat="40.25539" lon="20.46649">
        <ele>488.01000976562</ele>
        <time>2023-09-28T11:10:36.000Z</time>
      </trkpt>
      <trkpt lat="40.25533" lon="20.46644">
        <ele>488.9700012207</ele>
        <time>2023-09-28T11:10:35.000Z</time>
      </trkpt>
      <trkpt lat="40.25526" lon="20.46635">
        <ele>489.45001220703</ele>
        <time>2023-09-28T11:10:34.000Z</time>
      </trkpt>
      <trkpt lat="40.25523" lon="20.46631">
        <ele>489.92999267578</ele>
        <time>2023-09-28T11:10:33.000Z</time>
      </trkpt>
      <trkpt lat="40.25512" lon="20.46615">
        <ele>491.85000610352</ele>
        <time>2023-09-28T11:10:31.000Z</time>
      </trkpt>
      <trkpt lat="40.25509" lon="20.46605">
        <ele>493.29000854492</ele>
        <time>2023-09-28T11:10:30.000Z</time>
      </trkpt>
      <trkpt lat="40.25508" lon="20.46597">
        <ele>494.26000976562</ele>
        <time>2023-09-28T11:10:29.000Z</time>
      </trkpt>
      <trkpt lat="40.25508" lon="20.46593">
        <ele>494.73999023438</ele>
        <time>2023-09-28T11:10:28.000Z</time>
      </trkpt>
      <trkpt lat="40.2551" lon="20.46579">
        <ele>496.17999267578</ele>
        <time>2023-09-28T11:10:27.000Z</time>
      </trkpt>
      <trkpt lat="40.25511" lon="20.46571">
        <ele>497.14001464844</ele>
        <time>2023-09-28T11:10:26.000Z</time>
      </trkpt>
      <trkpt lat="40.25512" lon="20.46558">
        <ele>498.57998657227</ele>
        <time>2023-09-28T11:10:25.000Z</time>
      </trkpt>
      <trkpt lat="40.25511" lon="20.46548">
        <ele>499.54000854492</ele>
        <time>2023-09-28T11:10:24.000Z</time>
      </trkpt>
      <trkpt lat="40.25507" lon="20.46538">
        <ele>500.5</ele>
        <time>2023-09-28T11:10:23.000Z</time>
      </trkpt>
      <trkpt lat="40.25503" lon="20.46528">
        <ele>501.45999145508</ele>
        <time>2023-09-28T11:10:22.000Z</time>
      </trkpt>
      <trkpt lat="40.25498" lon="20.4652">
        <ele>502.42999267578</ele>
        <time>2023-09-28T11:10:21.000Z</time>
      </trkpt>
      <trkpt lat="40.25496" lon="20.46516">
        <ele>502.42999267578</ele>
        <time>2023-09-28T11:10:20.000Z</time>
      </trkpt>
      <trkpt lat="40.25486" lon="20.46504">
        <ele>503.39001464844</ele>
        <time>2023-09-28T11:10:19.000Z</time>
      </trkpt>
      <trkpt lat="40.25479" lon="20.46495">
        <ele>504.35000610352</ele>
        <time>2023-09-28T11:10:18.000Z</time>
      </trkpt>
      <trkpt lat="40.25475" lon="20.46485">
        <ele>504.82998657227</ele>
        <time>2023-09-28T11:10:17.000Z</time>
      </trkpt>
      <trkpt lat="40.25473" lon="20.4648">
        <ele>505.30999755859</ele>
        <time>2023-09-28T11:10:16.000Z</time>
      </trkpt>
      <trkpt lat="40.25467" lon="20.46461">
        <ele>506.75</ele>
        <time>2023-09-28T11:10:15.000Z</time>
      </trkpt>
      <trkpt lat="40.2546" lon="20.46438">
        <ele>507.70999145508</ele>
        <time>2023-09-28T11:10:13.000Z</time>
      </trkpt>
      <trkpt lat="40.25457" lon="20.46425">
        <ele>508.67001342773</ele>
        <time>2023-09-28T11:10:12.000Z</time>
      </trkpt>
      <trkpt lat="40.25451" lon="20.46383">
        <ele>510.60000610352</ele>
        <time>2023-09-28T11:10:09.000Z</time>
      </trkpt>
      <trkpt lat="40.25448" lon="20.46367">
        <ele>511.55999755859</ele>
        <time>2023-09-28T11:10:08.000Z</time>
      </trkpt>
      <trkpt lat="40.25446" lon="20.46354">
        <ele>512.03997802734</ele>
        <time>2023-09-28T11:10:07.000Z</time>
      </trkpt>
      <trkpt lat="40.25445" lon="20.46349">
        <ele>512.52001953125</ele>
        <time>2023-09-28T11:10:06.000Z</time>
      </trkpt>
      <trkpt lat="40.25441" lon="20.46332">
        <ele>513</ele>
        <time>2023-09-28T11:10:05.000Z</time>
      </trkpt>
      <trkpt lat="40.25433" lon="20.46292">
        <ele>513</ele>
        <time>2023-09-28T11:10:02.000Z</time>
      </trkpt>
      <trkpt lat="40.25431" lon="20.4628">
        <ele>513</ele>
        <time>2023-09-28T11:10:01.000Z</time>
      </trkpt>
      <trkpt lat="40.25428" lon="20.4627">
        <ele>513</ele>
        <time>2023-09-28T11:10:00.000Z</time>
      </trkpt>
      <trkpt lat="40.25423" lon="20.46251">
        <ele>513.47998046875</ele>
        <time>2023-09-28T11:09:59.000Z</time>
      </trkpt>
      <trkpt lat="40.25417" lon="20.46233">
        <ele>514.44000244141</ele>
        <time>2023-09-28T11:09:57.000Z</time>
      </trkpt>
      <trkpt lat="40.25413" lon="20.46216">
        <ele>514.91998291016</ele>
        <time>2023-09-28T11:09:56.000Z</time>
      </trkpt>
      <trkpt lat="40.25411" lon="20.4621">
        <ele>515.40002441406</ele>
        <time>2023-09-28T11:09:55.000Z</time>
      </trkpt>
      <trkpt lat="40.25407" lon="20.46199">
        <ele>516.36999511719</ele>
        <time>2023-09-28T11:09:54.000Z</time>
      </trkpt>
      <trkpt lat="40.25402" lon="20.46183">
        <ele>516.84997558594</ele>
        <time>2023-09-28T11:09:53.000Z</time>
      </trkpt>
      <trkpt lat="40.2539" lon="20.46155">
        <ele>518.77001953125</ele>
        <time>2023-09-28T11:09:51.000Z</time>
      </trkpt>
      <trkpt lat="40.25386" lon="20.46145">
        <ele>519.25</ele>
        <time>2023-09-28T11:09:50.000Z</time>
      </trkpt>
      <trkpt lat="40.25383" lon="20.46139">
        <ele>519.72998046875</ele>
        <time>2023-09-28T11:09:49.000Z</time>
      </trkpt>
      <trkpt lat="40.25377" lon="20.46124">
        <ele>519.72998046875</ele>
        <time>2023-09-28T11:09:48.000Z</time>
      </trkpt>
      <trkpt lat="40.25372" lon="20.46113">
        <ele>519.25</ele>
        <time>2023-09-28T11:09:47.000Z</time>
      </trkpt>
      <trkpt lat="40.25367" lon="20.46105">
        <ele>518.28997802734</ele>
        <time>2023-09-28T11:09:46.000Z</time>
      </trkpt>
      <trkpt lat="40.25359" lon="20.46094">
        <ele>517.33001708984</ele>
        <time>2023-09-28T11:09:45.000Z</time>
      </trkpt>
      <trkpt lat="40.25354" lon="20.46087">
        <ele>516.84997558594</ele>
        <time>2023-09-28T11:09:44.000Z</time>
      </trkpt>
      <trkpt lat="40.25344" lon="20.46079">
        <ele>515.40002441406</ele>
        <time>2023-09-28T11:09:43.000Z</time>
      </trkpt>
      <trkpt lat="40.25336" lon="20.46073">
        <ele>514.91998291016</ele>
        <time>2023-09-28T11:09:42.000Z</time>
      </trkpt>
      <trkpt lat="40.2533" lon="20.46069">
        <ele>514.91998291016</ele>
        <time>2023-09-28T11:09:41.000Z</time>
      </trkpt>
      <trkpt lat="40.25322" lon="20.46065">
        <ele>514.91998291016</ele>
        <time>2023-09-28T11:09:40.000Z</time>
      </trkpt>
      <trkpt lat="40.253" lon="20.46054">
        <ele>513.47998046875</ele>
        <time>2023-09-28T11:09:37.000Z</time>
      </trkpt>
      <trkpt lat="40.25294" lon="20.46051">
        <ele>513.47998046875</ele>
        <time>2023-09-28T11:09:36.000Z</time>
      </trkpt>
      <trkpt lat="40.25289" lon="20.46048">
        <ele>513.47998046875</ele>
        <time>2023-09-28T11:09:35.000Z</time>
      </trkpt>
      <trkpt lat="40.25281" lon="20.46043">
        <ele>513.47998046875</ele>
        <time>2023-09-28T11:09:34.000Z</time>
      </trkpt>
      <trkpt lat="40.25279" lon="20.46042">
        <ele>513.47998046875</ele>
        <time>2023-09-28T11:09:33.000Z</time>
      </trkpt>
      <trkpt lat="40.25271" lon="20.46037">
        <ele>513.47998046875</ele>
        <time>2023-09-28T11:09:32.000Z</time>
      </trkpt>
      <trkpt lat="40.25266" lon="20.46033">
        <ele>513.47998046875</ele>
        <time>2023-09-28T11:09:31.000Z</time>
      </trkpt>
      <trkpt lat="40.25262" lon="20.4603">
        <ele>513.47998046875</ele>
        <time>2023-09-28T11:09:30.000Z</time>
      </trkpt>
      <trkpt lat="40.25257" lon="20.46027">
        <ele>513.47998046875</ele>
        <time>2023-09-28T11:09:29.000Z</time>
      </trkpt>
      <trkpt lat="40.25252" lon="20.46024">
        <ele>513.47998046875</ele>
        <time>2023-09-28T11:09:28.000Z</time>
      </trkpt>
      <trkpt lat="40.2525" lon="20.46022">
        <ele>513.47998046875</ele>
        <time>2023-09-28T11:09:27.000Z</time>
      </trkpt>
      <trkpt lat="40.25243" lon="20.46018">
        <ele>513.47998046875</ele>
        <time>2023-09-28T11:09:26.000Z</time>
      </trkpt>
      <trkpt lat="40.2524" lon="20.46016">
        <ele>513.96002197266</ele>
        <time>2023-09-28T11:09:25.000Z</time>
      </trkpt>
      <trkpt lat="40.25231" lon="20.4601">
        <ele>509.64001464844</ele>
        <time>2023-09-28T11:06:48.000Z</time>
      </trkpt>
      <trkpt lat="40.25221" lon="20.46004">
        <ele>510.11999511719</ele>
        <time>2023-09-28T11:06:41.000Z</time>
      </trkpt>
      <trkpt lat="40.25218" lon="20.46003">
        <ele>510.11999511719</ele>
        <time>2023-09-28T11:06:40.000Z</time>
      </trkpt>
      <trkpt lat="40.25213" lon="20.46001">
        <ele>510.11999511719</ele>
        <time>2023-09-28T11:06:39.000Z</time>
      </trkpt>
      <trkpt lat="40.25208" lon="20.45999">
        <ele>510.11999511719</ele>
        <time>2023-09-28T11:06:38.000Z</time>
      </trkpt>
      <trkpt lat="40.25192" lon="20.45991">
        <ele>509.64001464844</ele>
        <time>2023-09-28T11:06:36.000Z</time>
      </trkpt>
      <trkpt lat="40.25184" lon="20.45987">
        <ele>509.64001464844</ele>
        <time>2023-09-28T11:06:35.000Z</time>
      </trkpt>
      <trkpt lat="40.25177" lon="20.45984">
        <ele>509.16000366211</ele>
        <time>2023-09-28T11:06:34.000Z</time>
      </trkpt>
      <trkpt lat="40.25169" lon="20.45982">
        <ele>508.67001342773</ele>
        <time>2023-09-28T11:06:33.000Z</time>
      </trkpt>
      <trkpt lat="40.25157" lon="20.45979">
        <ele>507.70999145508</ele>
        <time>2023-09-28T11:06:32.000Z</time>
      </trkpt>
      <trkpt lat="40.25143" lon="20.45978">
        <ele>506.26998901367</ele>
        <time>2023-09-28T11:06:31.000Z</time>
      </trkpt>
      <trkpt lat="40.25135" lon="20.45978">
        <ele>505.79000854492</ele>
        <time>2023-09-28T11:06:30.000Z</time>
      </trkpt>
      <trkpt lat="40.25126" lon="20.4598">
        <ele>504.35000610352</ele>
        <time>2023-09-28T11:06:29.000Z</time>
      </trkpt>
      <trkpt lat="40.25116" lon="20.45984">
        <ele>502.91000366211</ele>
        <time>2023-09-28T11:06:28.000Z</time>
      </trkpt>
      <trkpt lat="40.25108" lon="20.45988">
        <ele>501.45999145508</ele>
        <time>2023-09-28T11:06:27.000Z</time>
      </trkpt>
      <trkpt lat="40.251" lon="20.45992">
        <ele>500.98001098633</ele>
        <time>2023-09-28T11:06:26.000Z</time>
      </trkpt>
      <trkpt lat="40.25093" lon="20.45996">
        <ele>500.01998901367</ele>
        <time>2023-09-28T11:06:25.000Z</time>
      </trkpt>
      <trkpt lat="40.25088" lon="20.46001">
        <ele>499.05999755859</ele>
        <time>2023-09-28T11:06:24.000Z</time>
      </trkpt>
      <trkpt lat="40.25084" lon="20.46007">
        <ele>498.57998657227</ele>
        <time>2023-09-28T11:06:23.000Z</time>
      </trkpt>
      <trkpt lat="40.25075" lon="20.46022">
        <ele>497.14001464844</ele>
        <time>2023-09-28T11:06:22.000Z</time>
      </trkpt>
      <trkpt lat="40.25071" lon="20.46028">
        <ele>497.14001464844</ele>
        <time>2023-09-28T11:06:21.000Z</time>
      </trkpt>
      <trkpt lat="40.25064" lon="20.46038">
        <ele>495.2200012207</ele>
        <time>2023-09-28T11:06:20.000Z</time>
      </trkpt>
      <trkpt lat="40.25057" lon="20.46049">
        <ele>492.80999755859</ele>
        <time>2023-09-28T11:06:19.000Z</time>
      </trkpt>
      <trkpt lat="40.25054" lon="20.46059">
        <ele>491.36999511719</ele>
        <time>2023-09-28T11:06:18.000Z</time>
      </trkpt>
      <trkpt lat="40.25051" lon="20.4607">
        <ele>489.92999267578</ele>
        <time>2023-09-28T11:06:17.000Z</time>
      </trkpt>
      <trkpt lat="40.25051" lon="20.46072">
        <ele>489.92999267578</ele>
        <time>2023-09-28T11:06:16.000Z</time>
      </trkpt>
      <trkpt lat="40.25047" lon="20.46088">
        <ele>488.9700012207</ele>
        <time>2023-09-28T11:06:15.000Z</time>
      </trkpt>
      <trkpt lat="40.25044" lon="20.46093">
        <ele>488.48999023438</ele>
        <time>2023-09-28T11:06:14.000Z</time>
      </trkpt>
      <trkpt lat="40.2504" lon="20.46097">
        <ele>488.48999023438</ele>
        <time>2023-09-28T11:06:13.000Z</time>
      </trkpt>
      <trkpt lat="40.25033" lon="20.46098">
        <ele>488.01000976562</ele>
        <time>2023-09-28T11:06:12.000Z</time>
      </trkpt>
      <trkpt lat="40.25026" lon="20.46096">
        <ele>488.48999023438</ele>
        <time>2023-09-28T11:06:11.000Z</time>
      </trkpt>
      <trkpt lat="40.2502" lon="20.46092">
        <ele>489.92999267578</ele>
        <time>2023-09-28T11:06:10.000Z</time>
      </trkpt>
      <trkpt lat="40.25014" lon="20.46088">
        <ele>490.41000366211</ele>
        <time>2023-09-28T11:06:09.000Z</time>
      </trkpt>
      <trkpt lat="40.25007" lon="20.46083">
        <ele>492.32998657227</ele>
        <time>2023-09-28T11:06:08.000Z</time>
      </trkpt>
      <trkpt lat="40.24998" lon="20.46077">
        <ele>493.76998901367</ele>
        <time>2023-09-28T11:06:07.000Z</time>
      </trkpt>
      <trkpt lat="40.24992" lon="20.46073">
        <ele>495.70001220703</ele>
        <time>2023-09-28T11:06:06.000Z</time>
      </trkpt>
      <trkpt lat="40.24987" lon="20.46068">
        <ele>497.14001464844</ele>
        <time>2023-09-28T11:06:05.000Z</time>
      </trkpt>
      <trkpt lat="40.24982" lon="20.46062">
        <ele>498.57998657227</ele>
        <time>2023-09-28T11:06:04.000Z</time>
      </trkpt>
      <trkpt lat="40.24979" lon="20.46057">
        <ele>499.54000854492</ele>
        <time>2023-09-28T11:06:03.000Z</time>
      </trkpt>
      <trkpt lat="40.24975" lon="20.46045">
        <ele>501.95001220703</ele>
        <time>2023-09-28T11:06:02.000Z</time>
      </trkpt>
      <trkpt lat="40.24971" lon="20.46036">
        <ele>503.39001464844</ele>
        <time>2023-09-28T11:06:01.000Z</time>
      </trkpt>
      <trkpt lat="40.24966" lon="20.46029">
        <ele>504.82998657227</ele>
        <time>2023-09-28T11:06:00.000Z</time>
      </trkpt>
      <trkpt lat="40.24961" lon="20.46023">
        <ele>506.26998901367</ele>
        <time>2023-09-28T11:05:59.000Z</time>
      </trkpt>
      <trkpt lat="40.24956" lon="20.46019">
        <ele>507.70999145508</ele>
        <time>2023-09-28T11:05:58.000Z</time>
      </trkpt>
      <trkpt lat="40.2495" lon="20.46015">
        <ele>509.16000366211</ele>
        <time>2023-09-28T11:05:57.000Z</time>
      </trkpt>
      <trkpt lat="40.24944" lon="20.46011">
        <ele>510.60000610352</ele>
        <time>2023-09-28T11:05:56.000Z</time>
      </trkpt>
      <trkpt lat="40.2494" lon="20.46008">
        <ele>511.55999755859</ele>
        <time>2023-09-28T11:05:55.000Z</time>
      </trkpt>
      <trkpt lat="40.24937" lon="20.46003">
        <ele>513</ele>
        <time>2023-09-28T11:05:54.000Z</time>
      </trkpt>
      <trkpt lat="40.24935" lon="20.45997">
        <ele>513.96002197266</ele>
        <time>2023-09-28T11:05:53.000Z</time>
      </trkpt>
      <trkpt lat="40.24935" lon="20.4599">
        <ele>514.91998291016</ele>
        <time>2023-09-28T11:05:52.000Z</time>
      </trkpt>
      <trkpt lat="40.24936" lon="20.45977">
        <ele>516.36999511719</ele>
        <time>2023-09-28T11:05:51.000Z</time>
      </trkpt>
      <trkpt lat="40.24936" lon="20.45969">
        <ele>517.33001708984</ele>
        <time>2023-09-28T11:05:50.000Z</time>
      </trkpt>
      <trkpt lat="40.24934" lon="20.45945">
        <ele>519.72998046875</ele>
        <time>2023-09-28T11:05:48.000Z</time>
      </trkpt>
      <trkpt lat="40.24933" lon="20.45937">
        <ele>520.69000244141</ele>
        <time>2023-09-28T11:05:47.000Z</time>
      </trkpt>
      <trkpt lat="40.2493" lon="20.45931">
        <ele>521.16998291016</ele>
        <time>2023-09-28T11:05:46.000Z</time>
      </trkpt>
      <trkpt lat="40.24926" lon="20.45927">
        <ele>521.65002441406</ele>
        <time>2023-09-28T11:05:45.000Z</time>
      </trkpt>
      <trkpt lat="40.24921" lon="20.45926">
        <ele>522.13000488281</ele>
        <time>2023-09-28T11:05:44.000Z</time>
      </trkpt>
      <trkpt lat="40.24914" lon="20.45927">
        <ele>522.13000488281</ele>
        <time>2023-09-28T11:05:43.000Z</time>
      </trkpt>
      <trkpt lat="40.24911" lon="20.45929">
        <ele>522.60998535156</ele>
        <time>2023-09-28T11:05:42.000Z</time>
      </trkpt>
      <trkpt lat="40.24902" lon="20.45935">
        <ele>524.05999755859</ele>
        <time>2023-09-28T11:05:41.000Z</time>
      </trkpt>
      <trkpt lat="40.24891" lon="20.45942">
        <ele>525.5</ele>
        <time>2023-09-28T11:05:40.000Z</time>
      </trkpt>
      <trkpt lat="40.24883" lon="20.45946">
        <ele>526.46002197266</ele>
        <time>2023-09-28T11:05:39.000Z</time>
      </trkpt>
      <trkpt lat="40.24872" lon="20.45953">
        <ele>527.90002441406</ele>
        <time>2023-09-28T11:05:38.000Z</time>
      </trkpt>
      <trkpt lat="40.24864" lon="20.45955">
        <ele>528.85998535156</ele>
        <time>2023-09-28T11:05:37.000Z</time>
      </trkpt>
      <trkpt lat="40.24856" lon="20.45955">
        <ele>529.82000732422</ele>
        <time>2023-09-28T11:05:36.000Z</time>
      </trkpt>
      <trkpt lat="40.24849" lon="20.45952">
        <ele>530.78997802734</ele>
        <time>2023-09-28T11:05:35.000Z</time>
      </trkpt>
      <trkpt lat="40.24843" lon="20.45946">
        <ele>531.75</ele>
        <time>2023-09-28T11:05:34.000Z</time>
      </trkpt>
      <trkpt lat="40.24837" lon="20.45938">
        <ele>532.71002197266</ele>
        <time>2023-09-28T11:05:33.000Z</time>
      </trkpt>
      <trkpt lat="40.24833" lon="20.45929">
        <ele>533.66998291016</ele>
        <time>2023-09-28T11:05:32.000Z</time>
      </trkpt>
      <trkpt lat="40.2483" lon="20.45922">
        <ele>534.63000488281</ele>
        <time>2023-09-28T11:05:31.000Z</time>
      </trkpt>
      <trkpt lat="40.24826" lon="20.45911">
        <ele>536.07000732422</ele>
        <time>2023-09-28T11:05:30.000Z</time>
      </trkpt>
      <trkpt lat="40.24822" lon="20.45905">
        <ele>536.54998779297</ele>
        <time>2023-09-28T11:05:29.000Z</time>
      </trkpt>
      <trkpt lat="40.24816" lon="20.45902">
        <ele>537.51000976562</ele>
        <time>2023-09-28T11:05:28.000Z</time>
      </trkpt>
      <trkpt lat="40.24812" lon="20.45902">
        <ele>537.51000976562</ele>
        <time>2023-09-28T11:05:27.000Z</time>
      </trkpt>
      <trkpt lat="40.24807" lon="20.45904">
        <ele>537.98999023438</ele>
        <time>2023-09-28T11:05:26.000Z</time>
      </trkpt>
      <trkpt lat="40.24801" lon="20.45909">
        <ele>538.47998046875</ele>
        <time>2023-09-28T11:05:25.000Z</time>
      </trkpt>
      <trkpt lat="40.24799" lon="20.4591">
        <ele>538.47998046875</ele>
        <time>2023-09-28T11:05:24.000Z</time>
      </trkpt>
      <trkpt lat="40.24787" lon="20.45921">
        <ele>538.47998046875</ele>
        <time>2023-09-28T11:05:23.000Z</time>
      </trkpt>
      <trkpt lat="40.24779" lon="20.45927">
        <ele>538.96002197266</ele>
        <time>2023-09-28T11:05:22.000Z</time>
      </trkpt>
      <trkpt lat="40.24748" lon="20.45945">
        <ele>538.47998046875</ele>
        <time>2023-09-28T11:05:19.000Z</time>
      </trkpt>
      <trkpt lat="40.2474" lon="20.45948">
        <ele>538.47998046875</ele>
        <time>2023-09-28T11:05:18.000Z</time>
      </trkpt>
      <trkpt lat="40.2473" lon="20.45951">
        <ele>537.98999023438</ele>
        <time>2023-09-28T11:05:17.000Z</time>
      </trkpt>
      <trkpt lat="40.24719" lon="20.45952">
        <ele>537.03002929688</ele>
        <time>2023-09-28T11:05:16.000Z</time>
      </trkpt>
      <trkpt lat="40.2471" lon="20.45951">
        <ele>537.03002929688</ele>
        <time>2023-09-28T11:05:15.000Z</time>
      </trkpt>
      <trkpt lat="40.24703" lon="20.4595">
        <ele>537.51000976562</ele>
        <time>2023-09-28T11:05:14.000Z</time>
      </trkpt>
      <trkpt lat="40.24693" lon="20.45946">
        <ele>538.96002197266</ele>
        <time>2023-09-28T11:05:13.000Z</time>
      </trkpt>
      <trkpt lat="40.24687" lon="20.45944">
        <ele>539.91998291016</ele>
        <time>2023-09-28T11:05:12.000Z</time>
      </trkpt>
      <trkpt lat="40.24681" lon="20.4594">
        <ele>540.88000488281</ele>
        <time>2023-09-28T11:05:11.000Z</time>
      </trkpt>
      <trkpt lat="40.24676" lon="20.45934">
        <ele>542.32000732422</ele>
        <time>2023-09-28T11:05:10.000Z</time>
      </trkpt>
      <trkpt lat="40.24672" lon="20.45927">
        <ele>543.28002929688</ele>
        <time>2023-09-28T11:05:09.000Z</time>
      </trkpt>
      <trkpt lat="40.24671" lon="20.45924">
        <ele>543.76000976562</ele>
        <time>2023-09-28T11:05:08.000Z</time>
      </trkpt>
      <trkpt lat="40.24664" lon="20.45909">
        <ele>546.65002441406</ele>
        <time>2023-09-28T11:05:07.000Z</time>
      </trkpt>
      <trkpt lat="40.24658" lon="20.45901">
        <ele>548.09002685547</ele>
        <time>2023-09-28T11:05:06.000Z</time>
      </trkpt>
      <trkpt lat="40.24652" lon="20.45893">
        <ele>549.53002929688</ele>
        <time>2023-09-28T11:05:05.000Z</time>
      </trkpt>
      <trkpt lat="40.2465" lon="20.4589">
        <ele>550.01000976562</ele>
        <time>2023-09-28T11:05:04.000Z</time>
      </trkpt>
      <trkpt lat="40.24641" lon="20.45881">
        <ele>551.92999267578</ele>
        <time>2023-09-28T11:05:03.000Z</time>
      </trkpt>
      <trkpt lat="40.24635" lon="20.45876">
        <ele>552.90002441406</ele>
        <time>2023-09-28T11:05:02.000Z</time>
      </trkpt>
      <trkpt lat="40.24627" lon="20.45872">
        <ele>553.85998535156</ele>
        <time>2023-09-28T11:05:01.000Z</time>
      </trkpt>
      <trkpt lat="40.24623" lon="20.45871">
        <ele>554.82000732422</ele>
        <time>2023-09-28T11:05:00.000Z</time>
      </trkpt>
      <trkpt lat="40.24612" lon="20.45869">
        <ele>555.78002929688</ele>
        <time>2023-09-28T11:04:59.000Z</time>
      </trkpt>
      <trkpt lat="40.24604" lon="20.45868">
        <ele>556.73999023438</ele>
        <time>2023-09-28T11:04:58.000Z</time>
      </trkpt>
      <trkpt lat="40.24595" lon="20.45867">
        <ele>557.70001220703</ele>
        <time>2023-09-28T11:04:57.000Z</time>
      </trkpt>
      <trkpt lat="40.24587" lon="20.45868">
        <ele>558.65997314453</ele>
        <time>2023-09-28T11:04:56.000Z</time>
      </trkpt>
      <trkpt lat="40.24582" lon="20.45868">
        <ele>558.65997314453</ele>
        <time>2023-09-28T11:04:55.000Z</time>
      </trkpt>
      <trkpt lat="40.24577" lon="20.45869">
        <ele>559.61999511719</ele>
        <time>2023-09-28T11:04:54.000Z</time>
      </trkpt>
      <trkpt lat="40.24563" lon="20.45874">
        <ele>560.59002685547</ele>
        <time>2023-09-28T11:04:53.000Z</time>
      </trkpt>
      <trkpt lat="40.2454" lon="20.4588">
        <ele>551.68359375</ele>
      </trkpt>
      <trkpt lat="40.24523" lon="20.45886">
        <ele>551.3515625</ele>
      </trkpt>
      <trkpt lat="40.24508" lon="20.45906">
        <ele>556.7890625</ele>
      </trkpt>
      <trkpt lat="40.24495" lon="20.45917">
        <ele>559.2265625</ele>
      </trkpt>
      <trkpt lat="40.2447" lon="20.45937">
        <ele>559.41015625</ele>
      </trkpt>
      <trkpt lat="40.24453" lon="20.45949">
        <ele>557.9140625</ele>
      </trkpt>
      <trkpt lat="40.24438" lon="20.45963">
        <ele>556.9453125</ele>
      </trkpt>
      <trkpt lat="40.24413" lon="20.45998">
        <ele>559.40234375</ele>
      </trkpt>
      <trkpt lat="40.24393" lon="20.46026">
        <ele>558.828125</ele>
      </trkpt>
      <trkpt lat="40.24382" lon="20.46041">
        <ele>559.11328125</ele>
      </trkpt>
      <trkpt lat="40.24358" lon="20.46063">
        <ele>559.78125</ele>
      </trkpt>
      <trkpt lat="40.24356" lon="20.46062">
        <ele>553.1</ele>
      </trkpt>
      <trkpt lat="40.24266" lon="20.46129">
        <ele>566.9</ele>
      </trkpt>
      <trkpt lat="40.24217" lon="20.46182">
        <ele>577.2</ele>
      </trkpt>
      <trkpt lat="40.24204" lon="20.46206">
        <ele>581.7</ele>
      </trkpt>
      <trkpt lat="40.24157" lon="20.46202">
        <ele>590.5</ele>
      </trkpt>
      <trkpt lat="40.24138" lon="20.46251">
        <ele>594.3</ele>
      </trkpt>
      <trkpt lat="40.24131" lon="20.46274">
        <ele>595.6</ele>
      </trkpt>
      <trkpt lat="40.24127" lon="20.46279">
        <ele>596.8</ele>
      </trkpt>
      <trkpt lat="40.24105" lon="20.4627">
        <ele>605.5</ele>
      </trkpt>
      <trkpt lat="40.24088" lon="20.46283">
        <ele>608.8</ele>
      </trkpt>
      <trkpt lat="40.2408" lon="20.46283">
        <ele>612.2</ele>
      </trkpt>
      <trkpt lat="40.24101" lon="20.46238">
        <ele>612.7</ele>
      </trkpt>
      <trkpt lat="40.2411" lon="20.46167">
        <ele>618.4</ele>
      </trkpt>
      <trkpt lat="40.24101" lon="20.46126">
        <ele>630.5</ele>
      </trkpt>
      <trkpt lat="40.24127" lon="20.46103">
        <ele>621.4</ele>
      </trkpt>
      <trkpt lat="40.2414" lon="20.46056">
        <ele>625.2</ele>
      </trkpt>
      <trkpt lat="40.24153" lon="20.46034">
        <ele>624.1</ele>
      </trkpt>
      <trkpt lat="40.24155" lon="20.45987">
        <ele>633.3</ele>
      </trkpt>
      <trkpt lat="40.24172" lon="20.45931">
        <ele>631.1</ele>
      </trkpt>
      <trkpt lat="40.24172" lon="20.45901">
        <ele>629.7</ele>
      </trkpt>
      <trkpt lat="40.24148" lon="20.45862">
        <ele>633.3</ele>
      </trkpt>
      <trkpt lat="40.24131" lon="20.4579">
        <ele>622.8</ele>
      </trkpt>
      <trkpt lat="40.24125" lon="20.45777">
        <ele>621.3</ele>
      </trkpt>
      <trkpt lat="40.2409" lon="20.45764">
        <ele>627.3</ele>
      </trkpt>
      <trkpt lat="40.24088" lon="20.45751">
        <ele>623.1</ele>
      </trkpt>
      <trkpt lat="40.24103" lon="20.45738">
        <ele>619.3</ele>
      </trkpt>
      <trkpt lat="40.2415" lon="20.45736">
        <ele>609.1</ele>
      </trkpt>
      <trkpt lat="40.2418" lon="20.45725">
        <ele>605.3</ele>
      </trkpt>
      <trkpt lat="40.24198" lon="20.45738">
        <ele>599.3</ele>
      </trkpt>
      <trkpt lat="40.24223" lon="20.45729">
        <ele>597</ele>
      </trkpt>
      <trkpt lat="40.24232" lon="20.45723">
        <ele>597.6</ele>
      </trkpt>
      <trkpt lat="40.24243" lon="20.45699">
        <ele>604</ele>
      </trkpt>
      <trkpt lat="40.24249" lon="20.45697">
        <ele>604.1</ele>
      </trkpt>
      <trkpt lat="40.24268" lon="20.45721">
        <ele>592.3</ele>
      </trkpt>
      <trkpt lat="40.24294" lon="20.45723">
        <ele>586.9</ele>
      </trkpt>
      <trkpt lat="40.24307" lon="20.45717">
        <ele>587.6</ele>
      </trkpt>
      <trkpt lat="40.2432" lon="20.45699">
        <ele>593.9</ele>
      </trkpt>
      <trkpt lat="40.24344" lon="20.45644">
        <ele>614.7</ele>
      </trkpt>
      <trkpt lat="40.24374" lon="20.45635">
        <ele>608.3</ele>
      </trkpt>
      <trkpt lat="40.24395" lon="20.45635">
        <ele>601.2</ele>
      </trkpt>
      <trkpt lat="40.24404" lon="20.45592">
        <ele>617.1</ele>
      </trkpt>
      <trkpt lat="40.24429" lon="20.45571">
        <ele>617.1</ele>
      </trkpt>
      <trkpt lat="40.24444" lon="20.45577">
        <ele>608.2</ele>
      </trkpt>
      <trkpt lat="40.24451" lon="20.45571">
        <ele>608</ele>
      </trkpt>
      <trkpt lat="40.24457" lon="20.45558">
        <ele>610.3</ele>
      </trkpt>
      <trkpt lat="40.24466" lon="20.45506">
        <ele>626.1</ele>
      </trkpt>
      <trkpt lat="40.24479" lon="20.45485">
        <ele>627.8</ele>
      </trkpt>
      <trkpt lat="40.24496" lon="20.45474">
        <ele>623.9</ele>
      </trkpt>
      <trkpt lat="40.24519" lon="20.45444">
        <ele>624.2</ele>
      </trkpt>
      <trkpt lat="40.24543" lon="20.4545">
        <ele>610.3</ele>
      </trkpt>
      <trkpt lat="40.24571" lon="20.45472">
        <ele>587.9</ele>
      </trkpt>
      <trkpt lat="40.2458" lon="20.45461">
        <ele>588.2</ele>
      </trkpt>
      <trkpt lat="40.24597" lon="20.45427">
        <ele>598.4</ele>
      </trkpt>
      <trkpt lat="40.24614" lon="20.45429">
        <ele>594.5</ele>
      </trkpt>
      <trkpt lat="40.24622" lon="20.45423">
        <ele>595.6</ele>
      </trkpt>
      <trkpt lat="40.24648" lon="20.45386">
        <ele>607.5</ele>
      </trkpt>
      <trkpt lat="40.24657" lon="20.4538">
        <ele>608.8</ele>
      </trkpt>
      <trkpt lat="40.2467" lon="20.45375">
        <ele>608.1</ele>
      </trkpt>
      <trkpt lat="40.24695" lon="20.45386">
        <ele>596.3</ele>
      </trkpt>
      <trkpt lat="40.2471" lon="20.45397">
        <ele>587.7</ele>
      </trkpt>
      <trkpt lat="40.24732" lon="20.4542">
        <ele>572.1</ele>
      </trkpt>
      <trkpt lat="40.24743" lon="20.45416">
        <ele>571.1</ele>
      </trkpt>
      <trkpt lat="40.24762" lon="20.45388">
        <ele>580.4</ele>
      </trkpt>
      <trkpt lat="40.24801" lon="20.4538">
        <ele>581.9</ele>
      </trkpt>
      <trkpt lat="40.24841" lon="20.4538">
        <ele>579</ele>
      </trkpt>
      <trkpt lat="40.24886" lon="20.45367">
        <ele>576.6</ele>
      </trkpt>
      <trkpt lat="40.24895" lon="20.45356">
        <ele>579</ele>
      </trkpt>
      <trkpt lat="40.24893" lon="20.45335">
        <ele>586.9</ele>
      </trkpt>
      <trkpt lat="40.24871" lon="20.45298">
        <ele>596.9</ele>
      </trkpt>
      <trkpt lat="40.2485" lon="20.45236">
        <ele>608.1</ele>
      </trkpt>
      <trkpt lat="40.24846" lon="20.45174">
        <ele>595.8</ele>
      </trkpt>
      <trkpt lat="40.24809" lon="20.45142">
        <ele>595</ele>
      </trkpt>
      <trkpt lat="40.2476" lon="20.45139">
        <ele>606.6</ele>
      </trkpt>
      <trkpt lat="40.24715" lon="20.45118">
        <ele>617.9</ele>
      </trkpt>
      <trkpt lat="40.24723" lon="20.45028">
        <ele>602.6</ele>
      </trkpt>
      <trkpt lat="40.24753" lon="20.44966">
        <ele>587.4</ele>
      </trkpt>
      <trkpt lat="40.24753" lon="20.44951">
        <ele>583.8</ele>
      </trkpt>
      <trkpt lat="40.24749" lon="20.4494">
        <ele>581.9</ele>
      </trkpt>
      <trkpt lat="40.24713" lon="20.44925">
        <ele>578.6</ele>
      </trkpt>
      <trkpt lat="40.24627" lon="20.44914">
        <ele>572.1</ele>
      </trkpt>
      <trkpt lat="40.24592" lon="20.44929">
        <ele>572.5</ele>
      </trkpt>
      <trkpt lat="40.24554" lon="20.44923">
        <ele>570.1</ele>
      </trkpt>
      <trkpt lat="40.24535" lon="20.44938">
        <ele>573.6</ele>
      </trkpt>
      <trkpt lat="40.24459" lon="20.44955">
        <ele>588.5</ele>
      </trkpt>
      <trkpt lat="40.24429" lon="20.44957">
        <ele>597.5</ele>
      </trkpt>
      <trkpt lat="40.24416" lon="20.4497">
        <ele>599.1</ele>
      </trkpt>
      <trkpt lat="40.24406" lon="20.4497">
        <ele>601.9</ele>
      </trkpt>
      <trkpt lat="40.24416" lon="20.44882">
        <ele>613.9</ele>
      </trkpt>
      <trkpt lat="40.24429" lon="20.44871">
        <ele>609.6</ele>
      </trkpt>
      <trkpt lat="40.245" lon="20.44792">
        <ele>590</ele>
      </trkpt>
      <trkpt lat="40.24545" lon="20.44757">
        <ele>581.8</ele>
      </trkpt>
      <trkpt lat="40.2456" lon="20.44719">
        <ele>581.4</ele>
      </trkpt>
      <trkpt lat="40.24562" lon="20.44702">
        <ele>582.6</ele>
      </trkpt>
      <trkpt lat="40.2456" lon="20.44678">
        <ele>585.8</ele>
      </trkpt>
      <trkpt lat="40.24554" lon="20.44657">
        <ele>587.2</ele>
      </trkpt>
      <trkpt lat="40.24552" lon="20.44622">
        <ele>583.6</ele>
      </trkpt>
      <trkpt lat="40.24567" lon="20.44596">
        <ele>580</ele>
      </trkpt>
      <trkpt lat="40.24573" lon="20.44558">
        <ele>579.9</ele>
      </trkpt>
      <trkpt lat="40.24616" lon="20.44485">
        <ele>573.6</ele>
      </trkpt>
      <trkpt lat="40.24622" lon="20.44474">
        <ele>571.9</ele>
      </trkpt>
      <trkpt lat="40.24653" lon="20.44453">
        <ele>565.4</ele>
      </trkpt>
      <trkpt lat="40.24678" lon="20.44399">
        <ele>564.2</ele>
      </trkpt>
      <trkpt lat="40.24683" lon="20.4438">
        <ele>564.3</ele>
      </trkpt>
      <trkpt lat="40.24702" lon="20.44358">
        <ele>559.9</ele>
      </trkpt>
      <trkpt lat="40.2471" lon="20.44335">
        <ele>559.7</ele>
      </trkpt>
      <trkpt lat="40.24717" lon="20.44303">
        <ele>553.2</ele>
      </trkpt>
      <trkpt lat="40.24695" lon="20.44253">
        <ele>549.4</ele>
      </trkpt>
      <trkpt lat="40.24661" lon="20.44193">
        <ele>532.5</ele>
      </trkpt>
      <trkpt lat="40.24631" lon="20.44167">
        <ele>519.1</ele>
      </trkpt>
      <trkpt lat="40.24588" lon="20.44165">
        <ele>512.3</ele>
      </trkpt>
      <trkpt lat="40.24565" lon="20.44154">
        <ele>504</ele>
      </trkpt>
      <trkpt lat="40.24539" lon="20.44157">
        <ele>497.3</ele>
      </trkpt>
      <trkpt lat="40.245" lon="20.44178">
        <ele>491.2</ele>
      </trkpt>
      <trkpt lat="40.24481" lon="20.44197">
        <ele>491</ele>
      </trkpt>
      <trkpt lat="40.24472" lon="20.44184">
        <ele>486.9</ele>
      </trkpt>
      <trkpt lat="40.24494" lon="20.44157">
        <ele>485.5</ele>
      </trkpt>
      <trkpt lat="40.24522" lon="20.44133">
        <ele>487</ele>
      </trkpt>
      <trkpt lat="40.24541" lon="20.44105">
        <ele>485.9</ele>
      </trkpt>
      <trkpt lat="40.24552" lon="20.44101">
        <ele>487.9</ele>
      </trkpt>
      <trkpt lat="40.2458" lon="20.44114">
        <ele>498.8</ele>
      </trkpt>
      <trkpt lat="40.24588" lon="20.44109">
        <ele>499.6</ele>
      </trkpt>
      <trkpt lat="40.24586" lon="20.44092">
        <ele>495.4</ele>
      </trkpt>
      <trkpt lat="40.24535" lon="20.44069">
        <ele>475.2</ele>
      </trkpt>
      <trkpt lat="40.24517" lon="20.44071">
        <ele>471</ele>
      </trkpt>
      <trkpt lat="40.24492" lon="20.4409">
        <ele>470.6</ele>
      </trkpt>
      <trkpt lat="40.24466" lon="20.44129">
        <ele>476.5</ele>
      </trkpt>
      <trkpt lat="40.24391" lon="20.44169">
        <ele>479.5</ele>
      </trkpt>
      <trkpt lat="40.24378" lon="20.4418">
        <ele>484.8</ele>
      </trkpt>
      <trkpt lat="40.24367" lon="20.44208">
        <ele>493.9</ele>
      </trkpt>
      <trkpt lat="40.24356" lon="20.44208">
        <ele>496.9</ele>
      </trkpt>
      <trkpt lat="40.24356" lon="20.44193">
        <ele>493.2</ele>
      </trkpt>
      <trkpt lat="40.24404" lon="20.44092">
        <ele>474.4</ele>
      </trkpt>
      <trkpt lat="40.24432" lon="20.4406">
        <ele>468.5</ele>
      </trkpt>
      <trkpt lat="40.24447" lon="20.44009">
        <ele>462.7</ele>
      </trkpt>
      <trkpt lat="40.24444" lon="20.43961">
        <ele>459.4</ele>
      </trkpt>
      <trkpt lat="40.24453" lon="20.43944">
        <ele>455.7</ele>
      </trkpt>
      <trkpt lat="40.24447" lon="20.43929">
        <ele>456.3</ele>
      </trkpt>
      <trkpt lat="40.24436" lon="20.43931">
        <ele>459.7</ele>
      </trkpt>
      <trkpt lat="40.24425" lon="20.43953">
        <ele>464</ele>
      </trkpt>
      <trkpt lat="40.24419" lon="20.43991">
        <ele>467.3</ele>
      </trkpt>
      <trkpt lat="40.2441" lon="20.43989">
        <ele>471.3</ele>
      </trkpt>
      <trkpt lat="40.24401" lon="20.44026">
        <ele>476</ele>
      </trkpt>
      <trkpt lat="40.24395" lon="20.4403">
        <ele>478.9</ele>
      </trkpt>
      <trkpt lat="40.24386" lon="20.44024">
        <ele>483.3</ele>
      </trkpt>
      <trkpt lat="40.24389" lon="20.43989">
        <ele>483.1</ele>
      </trkpt>
      <trkpt lat="40.24382" lon="20.43951">
        <ele>485.1</ele>
      </trkpt>
      <trkpt lat="40.24384" lon="20.43897">
        <ele>477.7</ele>
      </trkpt>
      <trkpt lat="40.24386" lon="20.43884">
        <ele>473.4</ele>
      </trkpt>
      <trkpt lat="40.24397" lon="20.43869">
        <ele>464.5</ele>
      </trkpt>
      <trkpt lat="40.24401" lon="20.43841">
        <ele>455.9</ele>
      </trkpt>
      <trkpt lat="40.24389" lon="20.43818">
        <ele>455.3</ele>
      </trkpt>
      <trkpt lat="40.24344" lon="20.43781">
        <ele>467.5</ele>
      </trkpt>
      <trkpt lat="40.24324" lon="20.43747">
        <ele>466.5</ele>
      </trkpt>
      <trkpt lat="40.24322" lon="20.43732">
        <ele>464.6</ele>
      </trkpt>
      <trkpt lat="40.24335" lon="20.43652">
        <ele>446.4</ele>
      </trkpt>
      <trkpt lat="40.24365" lon="20.43616">
        <ele>428.8</ele>
      </trkpt>
      <trkpt lat="40.24384" lon="20.43573">
        <ele>419.2</ele>
      </trkpt>
      <trkpt lat="40.24382" lon="20.43517">
        <ele>415.6</ele>
      </trkpt>
      <trkpt lat="40.24391" lon="20.43483">
        <ele>408.5</ele>
      </trkpt>
      <trkpt lat="40.24423" lon="20.43442">
        <ele>390.2</ele>
      </trkpt>
      <trkpt lat="40.24427" lon="20.43408">
        <ele>383.3</ele>
      </trkpt>
      <trkpt lat="40.24419" lon="20.43397">
        <ele>383.7</ele>
      </trkpt>
      <trkpt lat="40.24374" lon="20.43401">
        <ele>401.5</ele>
      </trkpt>
      <trkpt lat="40.24356" lon="20.43395">
        <ele>407</ele>
      </trkpt>
      <trkpt lat="40.24365" lon="20.43369">
        <ele>399.2</ele>
      </trkpt>
      <trkpt lat="40.24365" lon="20.43341">
        <ele>394.4</ele>
      </trkpt>
      <trkpt lat="40.2435" lon="20.43288">
        <ele>385.6</ele>
      </trkpt>
      <trkpt lat="40.24329" lon="20.43242">
        <ele>376</ele>
      </trkpt>
      <trkpt lat="40.24318" lon="20.43227">
        <ele>368.3</ele>
      </trkpt>
      <trkpt lat="40.24292" lon="20.432">
        <ele>354.1</ele>
      </trkpt>
      <trkpt lat="40.24262" lon="20.43182">
        <ele>345.4</ele>
      </trkpt>
      <trkpt lat="40.24198" lon="20.43167">
        <ele>344.6</ele>
      </trkpt>
      <trkpt lat="40.24108" lon="20.43159">
        <ele>364.6</ele>
      </trkpt>
      <trkpt lat="40.24097" lon="20.43131">
        <ele>355.3</ele>
      </trkpt>
      <trkpt lat="40.24088" lon="20.43103">
        <ele>343.9</ele>
      </trkpt>
      <trkpt lat="40.24073" lon="20.43034">
        <ele>327.9</ele>
      </trkpt>
      <trkpt lat="40.24073" lon="20.43021">
        <ele>325.7</ele>
      </trkpt>
      <trkpt lat="40.24079" lon="20.4302">
        <ele>323.14001464844</ele>
        <time>2024-09-27T11:07:50.000Z</time>
      </trkpt>
      <trkpt lat="40.24103" lon="20.43019">
        <ele>321.70001220703</ele>
        <time>2024-09-27T11:07:59.000Z</time>
      </trkpt>
      <trkpt lat="40.24125" lon="20.43014">
        <ele>321.70001220703</ele>
        <time>2024-09-27T11:08:05.000Z</time>
      </trkpt>
      <trkpt lat="40.2413" lon="20.43013">
        <ele>321.70001220703</ele>
        <time>2024-09-27T11:08:06.000Z</time>
      </trkpt>
      <trkpt lat="40.24139" lon="20.43013">
        <ele>321.70001220703</ele>
        <time>2024-09-27T11:08:07.000Z</time>
      </trkpt>
      <trkpt lat="40.24142" lon="20.43013">
        <ele>322.17999267578</ele>
        <time>2024-09-27T11:08:08.000Z</time>
      </trkpt>
      <trkpt lat="40.24146" lon="20.43013">
        <ele>322.17999267578</ele>
        <time>2024-09-27T11:08:09.000Z</time>
      </trkpt>
      <trkpt lat="40.24157" lon="20.43015">
        <ele>322.17999267578</ele>
        <time>2024-09-27T11:08:10.000Z</time>
      </trkpt>
      <trkpt lat="40.2416" lon="20.43016">
        <ele>322.17999267578</ele>
        <time>2024-09-27T11:08:11.000Z</time>
      </trkpt>
      <trkpt lat="40.24164" lon="20.43016">
        <ele>322.66000366211</ele>
        <time>2024-09-27T11:08:12.000Z</time>
      </trkpt>
      <trkpt lat="40.24173" lon="20.43016">
        <ele>322.66000366211</ele>
        <time>2024-09-27T11:08:13.000Z</time>
      </trkpt>
      <trkpt lat="40.24179" lon="20.43016">
        <ele>322.66000366211</ele>
        <time>2024-09-27T11:08:14.000Z</time>
      </trkpt>
      <trkpt lat="40.24183" lon="20.43016">
        <ele>323.14001464844</ele>
        <time>2024-09-27T11:08:15.000Z</time>
      </trkpt>
      <trkpt lat="40.24191" lon="20.43017">
        <ele>323.14001464844</ele>
        <time>2024-09-27T11:08:17.000Z</time>
      </trkpt>
      <trkpt lat="40.24196" lon="20.43017">
        <ele>323.14001464844</ele>
        <time>2024-09-27T11:08:18.000Z</time>
      </trkpt>
      <trkpt lat="40.24206" lon="20.43019">
        <ele>323.61999511719</ele>
        <time>2024-09-27T11:08:20.000Z</time>
      </trkpt>
      <trkpt lat="40.2422" lon="20.43022">
        <ele>323.61999511719</ele>
        <time>2024-09-27T11:08:22.000Z</time>
      </trkpt>
      <trkpt lat="40.24225" lon="20.43023">
        <ele>323.61999511719</ele>
        <time>2024-09-27T11:08:23.000Z</time>
      </trkpt>
      <trkpt lat="40.24237" lon="20.43028">
        <ele>324.10000610352</ele>
        <time>2024-09-27T11:08:25.000Z</time>
      </trkpt>
      <trkpt lat="40.24271" lon="20.4304">
        <ele>325.05999755859</ele>
        <time>2024-09-27T11:08:30.000Z</time>
      </trkpt>
      <trkpt lat="40.24276" lon="20.43042">
        <ele>325.05999755859</ele>
        <time>2024-09-27T11:08:31.000Z</time>
      </trkpt>
      <trkpt lat="40.24282" lon="20.43043">
        <ele>325.05999755859</ele>
        <time>2024-09-27T11:08:32.000Z</time>
      </trkpt>
      <trkpt lat="40.24288" lon="20.43044">
        <ele>325.05999755859</ele>
        <time>2024-09-27T11:08:33.000Z</time>
      </trkpt>
      <trkpt lat="40.243" lon="20.43045">
        <ele>325.05999755859</ele>
        <time>2024-09-27T11:08:34.000Z</time>
      </trkpt>
      <trkpt lat="40.24304" lon="20.43045">
        <ele>325.05999755859</ele>
        <time>2024-09-27T11:08:35.000Z</time>
      </trkpt>
      <trkpt lat="40.24317" lon="20.43048">
        <ele>325.05999755859</ele>
        <time>2024-09-27T11:08:37.000Z</time>
      </trkpt>
      <trkpt lat="40.24324" lon="20.43049">
        <ele>325.05999755859</ele>
        <time>2024-09-27T11:08:38.000Z</time>
      </trkpt>
      <trkpt lat="40.24333" lon="20.4305">
        <ele>325.05999755859</ele>
        <time>2024-09-27T11:08:39.000Z</time>
      </trkpt>
      <trkpt lat="40.24335" lon="20.4305">
        <ele>325.05999755859</ele>
        <time>2024-09-27T11:08:40.000Z</time>
      </trkpt>
      <trkpt lat="40.24341" lon="20.43053">
        <ele>324.57998657227</ele>
        <time>2024-09-27T11:08:41.000Z</time>
      </trkpt>
      <trkpt lat="40.24345" lon="20.43057">
        <ele>324.57998657227</ele>
        <time>2024-09-27T11:08:42.000Z</time>
      </trkpt>
      <trkpt lat="40.24348" lon="20.43063">
        <ele>324.57998657227</ele>
        <time>2024-09-27T11:08:43.000Z</time>
      </trkpt>
      <trkpt lat="40.2435" lon="20.4307">
        <ele>324.57998657227</ele>
        <time>2024-09-27T11:08:44.000Z</time>
      </trkpt>
      <trkpt lat="40.24351" lon="20.43078">
        <ele>324.57998657227</ele>
        <time>2024-09-27T11:08:45.000Z</time>
      </trkpt>
      <trkpt lat="40.24352" lon="20.43087">
        <ele>324.57998657227</ele>
        <time>2024-09-27T11:08:46.000Z</time>
      </trkpt>
      <trkpt lat="40.24353" lon="20.43093">
        <ele>324.57998657227</ele>
        <time>2024-09-27T11:08:47.000Z</time>
      </trkpt>
      <trkpt lat="40.24354" lon="20.43099">
        <ele>324.57998657227</ele>
        <time>2024-09-27T11:08:48.000Z</time>
      </trkpt>
      <trkpt lat="40.24357" lon="20.43107">
        <ele>325.05999755859</ele>
        <time>2024-09-27T11:08:49.000Z</time>
      </trkpt>
      <trkpt lat="40.2436" lon="20.43113">
        <ele>325.05999755859</ele>
        <time>2024-09-27T11:08:50.000Z</time>
      </trkpt>
      <trkpt lat="40.24363" lon="20.43118">
        <ele>325.54000854492</ele>
        <time>2024-09-27T11:08:51.000Z</time>
      </trkpt>
      <trkpt lat="40.24367" lon="20.43125">
        <ele>325.54000854492</ele>
        <time>2024-09-27T11:08:52.000Z</time>
      </trkpt>
      <trkpt lat="40.24373" lon="20.43134">
        <ele>326.01998901367</ele>
        <time>2024-09-27T11:08:53.000Z</time>
      </trkpt>
      <trkpt lat="40.24374" lon="20.43135">
        <ele>326.5</ele>
        <time>2024-09-27T11:08:54.000Z</time>
      </trkpt>
      <trkpt lat="40.24378" lon="20.43141">
        <ele>326.98999023438</ele>
        <time>2024-09-27T11:08:55.000Z</time>
      </trkpt>
      <trkpt lat="40.24384" lon="20.43148">
        <ele>326.98999023438</ele>
        <time>2024-09-27T11:08:56.000Z</time>
      </trkpt>
      <trkpt lat="40.24386" lon="20.4315">
        <ele>326.98999023438</ele>
        <time>2024-09-27T11:08:57.000Z</time>
      </trkpt>
      <trkpt lat="40.24388" lon="20.43153">
        <ele>326.98999023438</ele>
        <time>2024-09-27T11:08:58.000Z</time>
      </trkpt>
      <trkpt lat="40.24391" lon="20.43156">
        <ele>326.98999023438</ele>
        <time>2024-09-27T11:08:59.000Z</time>
      </trkpt>
      <trkpt lat="40.24411" lon="20.43175">
        <ele>326.98999023438</ele>
        <time>2024-09-27T11:09:08.000Z</time>
      </trkpt>
      <trkpt lat="40.24411" lon="20.43176">
        <ele>327.4700012207</ele>
        <time>2024-09-27T11:09:38.000Z</time>
      </trkpt>
      <trkpt lat="40.24412" lon="20.43173">
        <ele>325.05999755859</ele>
        <time>2024-09-27T11:53:46.000Z</time>
      </trkpt>
      <trkpt lat="40.24409" lon="20.43175">
        <ele>322.17999267578</ele>
        <time>2024-09-27T11:54:19.000Z</time>
      </trkpt>
      <trkpt lat="40.24413" lon="20.4319">
        <ele>322.17999267578</ele>
        <time>2024-09-27T11:54:27.000Z</time>
        <extensions>
          <visugpx:TrkExtension xmlns:visugpx="https://www.visugpx.com/editgpx/">
            <visugpx:node>1</visugpx:node>
            </visugpx:TrkExtension>
        </extensions>
      </trkpt>
    </trkseg>
  </trk>
</gpx>